<?xml version='1.0' encoding='UTF-8'?><gpx version="1.1" creator="JPX - https://github.com/jenetics/jpx" xmlns="http://www.topografix.com/GPX/1/1"><trk><trkseg><trkpt lat="44.5210839" lon="10.8463278"><ele>182.0</ele><time>2026-05-02T06:24:56.347Z</time></trkpt><trkpt lat="44.5211521" lon="10.8463943"><ele>182.0</ele><time>2026-05-02T06:41:11.349Z</time></trkpt><trkpt lat="44.5211548" lon="10.8464995"><ele>182.0</ele><time>2026-05-02T06:41:15.219Z</time></trkpt><trkpt lat="44.5210876" lon="10.8464868"><ele>182.0</ele><time>2026-05-02T06:41:19.286Z</time></trkpt><trkpt lat="44.521031" lon="10.8465358"><ele>182.0</ele><time>2026-05-02T06:41:23.254Z</time></trkpt><trkpt lat="44.5209836" lon="10.8466145"><ele>182.0</ele><time>2026-05-02T06:41:30.352Z</time></trkpt><trkpt lat="44.5210002" lon="10.846711"><ele>182.0</ele><time>2026-05-02T06:41:33.209Z</time></trkpt><trkpt lat="44.5210292" lon="10.846817"><ele>181.83333333333331</ele><time>2026-05-02T06:41:35.272Z</time></trkpt><trkpt lat="44.521061" lon="10.8469343"><ele>181.66666666666666</ele><time>2026-05-02T06:41:37.312Z</time></trkpt><trkpt lat="44.521005" lon="10.8469827"><ele>181.5</ele><time>2026-05-02T06:41:42.357Z</time></trkpt><trkpt lat="44.5209339" lon="10.8469535"><ele>181.33333333333334</ele><time>2026-05-02T06:41:45.219Z</time></trkpt><trkpt lat="44.520863" lon="10.8469241"><ele>181.16666666666669</ele><time>2026-05-02T06:41:47.27Z</time></trkpt><trkpt lat="44.520776" lon="10.8468905"><ele>181.0</ele><time>2026-05-02T06:41:49.259Z</time></trkpt><trkpt lat="44.5206842" lon="10.8469038"><ele>181.0</ele><time>2026-05-02T06:41:51.178Z</time></trkpt><trkpt lat="44.5205079" lon="10.8468543"><ele>181.0</ele><time>2026-05-02T06:41:52.211Z</time></trkpt><trkpt lat="44.5204041" lon="10.8468267"><ele>181.0</ele><time>2026-05-02T06:41:53.222Z</time></trkpt><trkpt lat="44.5203168" lon="10.8468027"><ele>181.0</ele><time>2026-05-02T06:41:54.207Z</time></trkpt><trkpt lat="44.5202355" lon="10.8467823"><ele>181.60000000000002</ele><time>2026-05-02T06:41:55.227Z</time></trkpt><trkpt lat="44.5201363" lon="10.8467596"><ele>182.2</ele><time>2026-05-02T06:41:56.226Z</time></trkpt><trkpt lat="44.5200398" lon="10.8467179"><ele>182.8</ele><time>2026-05-02T06:41:57.226Z</time></trkpt><trkpt lat="44.5199495" lon="10.846668"><ele>183.39999999999998</ele><time>2026-05-02T06:41:58.207Z</time></trkpt><trkpt lat="44.5198595" lon="10.8466188"><ele>184.0</ele><time>2026-05-02T06:41:59.225Z</time></trkpt><trkpt lat="44.5197643" lon="10.8465703"><ele>184.0</ele><time>2026-05-02T06:42:00.258Z</time></trkpt><trkpt lat="44.5196788" lon="10.8465284"><ele>184.0</ele><time>2026-05-02T06:42:01.237Z</time></trkpt><trkpt lat="44.5196047" lon="10.8464896"><ele>184.0</ele><time>2026-05-02T06:42:02.218Z</time></trkpt><trkpt lat="44.5195267" lon="10.846451"><ele>184.0</ele><time>2026-05-02T06:42:03.203Z</time></trkpt><trkpt lat="44.5194513" lon="10.8464122"><ele>184.0</ele><time>2026-05-02T06:42:04.222Z</time></trkpt><trkpt lat="44.5193927" lon="10.8463785"><ele>184.0</ele><time>2026-05-02T06:42:05.246Z</time></trkpt><trkpt lat="44.5193155" lon="10.8462917"><ele>184.66666666666669</ele><time>2026-05-02T06:42:07.205Z</time></trkpt><trkpt lat="44.5192471" lon="10.846139"><ele>185.33333333333334</ele><time>2026-05-02T06:42:09.225Z</time></trkpt><trkpt lat="44.5192072" lon="10.8460567"><ele>186.0</ele><time>2026-05-02T06:42:10.229Z</time></trkpt><trkpt lat="44.5191626" lon="10.8459671"><ele>186.66666666666666</ele><time>2026-05-02T06:42:11.234Z</time></trkpt><trkpt lat="44.5191171" lon="10.8458769"><ele>187.33333333333331</ele><time>2026-05-02T06:42:12.243Z</time></trkpt><trkpt lat="44.5190693" lon="10.8457898"><ele>188.0</ele><time>2026-05-02T06:42:13.214Z</time></trkpt><trkpt lat="44.5190287" lon="10.8457096"><ele>188.0</ele><time>2026-05-02T06:42:14.233Z</time></trkpt><trkpt lat="44.5189548" lon="10.8455773"><ele>188.0</ele><time>2026-05-02T06:42:16.225Z</time></trkpt><trkpt lat="44.5189151" lon="10.8455048"><ele>188.0</ele><time>2026-05-02T06:42:17.203Z</time></trkpt><trkpt lat="44.5188733" lon="10.845434"><ele>188.0</ele><time>2026-05-02T06:42:18.251Z</time></trkpt><trkpt lat="44.5187955" lon="10.8453142"><ele>188.0</ele><time>2026-05-02T06:42:20.227Z</time></trkpt><trkpt lat="44.5187012" lon="10.8452347"><ele>188.4</ele><time>2026-05-02T06:42:22.246Z</time></trkpt><trkpt lat="44.5186128" lon="10.8451861"><ele>188.8</ele><time>2026-05-02T06:42:24.243Z</time></trkpt><trkpt lat="44.5185195" lon="10.8451806"><ele>189.2</ele><time>2026-05-02T06:42:26.243Z</time></trkpt><trkpt lat="44.5184075" lon="10.845143"><ele>189.6</ele><time>2026-05-02T06:42:28.218Z</time></trkpt><trkpt lat="44.518298" lon="10.8451035"><ele>190.0</ele><time>2026-05-02T06:42:30.235Z</time></trkpt><trkpt lat="44.5181848" lon="10.845072"><ele>190.0</ele><time>2026-05-02T06:42:32.233Z</time></trkpt><trkpt lat="44.5180747" lon="10.8450539"><ele>190.0</ele><time>2026-05-02T06:42:34.23Z</time></trkpt><trkpt lat="44.5179619" lon="10.8450495"><ele>190.0</ele><time>2026-05-02T06:42:36.225Z</time></trkpt><trkpt lat="44.5178548" lon="10.8450562"><ele>190.0</ele><time>2026-05-02T06:42:38.258Z</time></trkpt><trkpt lat="44.5177439" lon="10.8450604"><ele>190.0</ele><time>2026-05-02T06:42:40.222Z</time></trkpt><trkpt lat="44.5176218" lon="10.8450342"><ele>190.83333333333334</ele><time>2026-05-02T06:42:42.238Z</time></trkpt><trkpt lat="44.5174976" lon="10.845011"><ele>191.66666666666669</ele><time>2026-05-02T06:42:44.242Z</time></trkpt><trkpt lat="44.5174281" lon="10.8449997"><ele>192.5</ele><time>2026-05-02T06:42:45.216Z</time></trkpt><trkpt lat="44.5173555" lon="10.844993"><ele>193.33333333333334</ele><time>2026-05-02T06:42:46.239Z</time></trkpt><trkpt lat="44.5172819" lon="10.8449837"><ele>194.16666666666666</ele><time>2026-05-02T06:42:47.216Z</time></trkpt><trkpt lat="44.5172074" lon="10.8449703"><ele>195.0</ele><time>2026-05-02T06:42:48.227Z</time></trkpt><trkpt lat="44.5171352" lon="10.8449632"><ele>195.83333333333334</ele><time>2026-05-02T06:42:49.236Z</time></trkpt><trkpt lat="44.5170649" lon="10.844961"><ele>196.66666666666669</ele><time>2026-05-02T06:42:50.25Z</time></trkpt><trkpt lat="44.5169617" lon="10.8449918"><ele>197.5</ele><time>2026-05-02T06:42:52.244Z</time></trkpt><trkpt lat="44.5168958" lon="10.8450299"><ele>198.33333333333334</ele><time>2026-05-02T06:42:54.22Z</time></trkpt><trkpt lat="44.5168233" lon="10.8451072"><ele>199.16666666666669</ele><time>2026-05-02T06:42:56.21Z</time></trkpt><trkpt lat="44.5167739" lon="10.8452247"><ele>200.0</ele><time>2026-05-02T06:42:58.242Z</time></trkpt><trkpt lat="44.516739" lon="10.8453064"><ele>200.83333333333334</ele><time>2026-05-02T06:42:59.219Z</time></trkpt><trkpt lat="44.5166681" lon="10.8454365"><ele>201.66666666666669</ele><time>2026-05-02T06:43:01.244Z</time></trkpt><trkpt lat="44.5165668" lon="10.8455063"><ele>202.5</ele><time>2026-05-02T06:43:03.24Z</time></trkpt><trkpt lat="44.5164987" lon="10.8455103"><ele>203.33333333333331</ele><time>2026-05-02T06:43:04.236Z</time></trkpt><trkpt lat="44.5164277" lon="10.8454934"><ele>204.16666666666666</ele><time>2026-05-02T06:43:05.228Z</time></trkpt><trkpt lat="44.5163594" lon="10.845479"><ele>205.0</ele><time>2026-05-02T06:43:06.229Z</time></trkpt><trkpt lat="44.516291" lon="10.8454722"><ele>205.57142857142858</ele><time>2026-05-02T06:43:07.251Z</time></trkpt><trkpt lat="44.5162222" lon="10.8454777"><ele>206.14285714285714</ele><time>2026-05-02T06:43:08.195Z</time></trkpt><trkpt lat="44.516152" lon="10.8454879"><ele>206.71428571428572</ele><time>2026-05-02T06:43:09.239Z</time></trkpt><trkpt lat="44.5160828" lon="10.8455013"><ele>207.28571428571428</ele><time>2026-05-02T06:43:10.233Z</time></trkpt><trkpt lat="44.5160124" lon="10.8455138"><ele>207.85714285714283</ele><time>2026-05-02T06:43:11.228Z</time></trkpt><trkpt lat="44.5159389" lon="10.8455255"><ele>208.42857142857142</ele><time>2026-05-02T06:43:12.225Z</time></trkpt><trkpt lat="44.5158581" lon="10.8455358"><ele>209.0</ele><time>2026-05-02T06:43:13.227Z</time></trkpt><trkpt lat="44.5157679" lon="10.8455488"><ele>209.00000000000003</ele><time>2026-05-02T06:43:14.199Z</time></trkpt><trkpt lat="44.5156748" lon="10.8455639"><ele>209.0</ele><time>2026-05-02T06:43:15.231Z</time></trkpt><trkpt lat="44.5155863" lon="10.8455774"><ele>209.0</ele><time>2026-05-02T06:43:16.206Z</time></trkpt><trkpt lat="44.5155092" lon="10.845592"><ele>209.0</ele><time>2026-05-02T06:43:17.232Z</time></trkpt><trkpt lat="44.5154356" lon="10.8456099"><ele>209.00000000000003</ele><time>2026-05-02T06:43:18.3Z</time></trkpt><trkpt lat="44.5153642" lon="10.8456303"><ele>209.0</ele><time>2026-05-02T06:43:19.252Z</time></trkpt><trkpt lat="44.5152921" lon="10.8456576"><ele>209.83333333333334</ele><time>2026-05-02T06:43:20.233Z</time></trkpt><trkpt lat="44.5152155" lon="10.8456936"><ele>210.66666666666669</ele><time>2026-05-02T06:43:21.19Z</time></trkpt><trkpt lat="44.5151365" lon="10.8457307"><ele>211.5</ele><time>2026-05-02T06:43:22.232Z</time></trkpt><trkpt lat="44.5150563" lon="10.8457637"><ele>212.33333333333331</ele><time>2026-05-02T06:43:23.224Z</time></trkpt><trkpt lat="44.5149777" lon="10.8457912"><ele>213.16666666666666</ele><time>2026-05-02T06:43:24.235Z</time></trkpt><trkpt lat="44.5148982" lon="10.8458137"><ele>214.0</ele><time>2026-05-02T06:43:25.225Z</time></trkpt><trkpt lat="44.5148176" lon="10.8458304"><ele>213.99999999999997</ele><time>2026-05-02T06:43:26.204Z</time></trkpt><trkpt lat="44.5147332" lon="10.8458436"><ele>214.0</ele><time>2026-05-02T06:43:27.238Z</time></trkpt><trkpt lat="44.514649" lon="10.8458552"><ele>214.0</ele><time>2026-05-02T06:43:28.227Z</time></trkpt><trkpt lat="44.5145682" lon="10.8458641"><ele>214.0</ele><time>2026-05-02T06:43:29.215Z</time></trkpt><trkpt lat="44.5144903" lon="10.8458688"><ele>213.99999999999997</ele><time>2026-05-02T06:43:30.241Z</time></trkpt><trkpt lat="44.5144179" lon="10.8458682"><ele>214.0</ele><time>2026-05-02T06:43:31.225Z</time></trkpt><trkpt lat="44.5143505" lon="10.8458606"><ele>215.2</ele><time>2026-05-02T06:43:32.242Z</time></trkpt><trkpt lat="44.5142842" lon="10.8458518"><ele>216.39999999999998</ele><time>2026-05-02T06:43:33.225Z</time></trkpt><trkpt lat="44.5141712" lon="10.8457943"><ele>217.6</ele><time>2026-05-02T06:43:35.233Z</time></trkpt><trkpt lat="44.5140772" lon="10.8457197"><ele>218.8</ele><time>2026-05-02T06:43:37.234Z</time></trkpt><trkpt lat="44.5139931" lon="10.8456431"><ele>220.0</ele><time>2026-05-02T06:43:39.233Z</time></trkpt><trkpt lat="44.513907" lon="10.8455742"><ele>219.99999999999997</ele><time>2026-05-02T06:43:41.192Z</time></trkpt><trkpt lat="44.5138231" lon="10.8455052"><ele>220.0</ele><time>2026-05-02T06:43:43.174Z</time></trkpt><trkpt lat="44.5137275" lon="10.8454155"><ele>220.0</ele><time>2026-05-02T06:43:45.19Z</time></trkpt><trkpt lat="44.5136755" lon="10.8453656"><ele>220.0</ele><time>2026-05-02T06:43:46.191Z</time></trkpt><trkpt lat="44.5135844" lon="10.845283"><ele>219.99999999999997</ele><time>2026-05-02T06:43:48.22Z</time></trkpt><trkpt lat="44.5135296" lon="10.8452368"><ele>220.0</ele><time>2026-05-02T06:43:49.22Z</time></trkpt><trkpt lat="44.5134744" lon="10.8451886"><ele>222.6</ele><time>2026-05-02T06:43:50.217Z</time></trkpt><trkpt lat="44.5133953" lon="10.8451136"><ele>225.2</ele><time>2026-05-02T06:43:52.243Z</time></trkpt><trkpt lat="44.5133148" lon="10.8450409"><ele>227.8</ele><time>2026-05-02T06:43:54.223Z</time></trkpt><trkpt lat="44.5132289" lon="10.8449725"><ele>230.4</ele><time>2026-05-02T06:43:56.242Z</time></trkpt><trkpt lat="44.5131348" lon="10.8449038"><ele>233.0</ele><time>2026-05-02T06:43:58.239Z</time></trkpt><trkpt lat="44.5130597" lon="10.8448437"><ele>233.00000000000003</ele><time>2026-05-02T06:43:59.229Z</time></trkpt><trkpt lat="44.5129885" lon="10.8447853"><ele>233.0</ele><time>2026-05-02T06:44:00.232Z</time></trkpt><trkpt lat="44.5129157" lon="10.8447361"><ele>233.0</ele><time>2026-05-02T06:44:01.194Z</time></trkpt><trkpt lat="44.5128513" lon="10.8446943"><ele>233.0</ele><time>2026-05-02T06:44:02.236Z</time></trkpt><trkpt lat="44.5127847" lon="10.8446355"><ele>233.00000000000003</ele><time>2026-05-02T06:44:03.221Z</time></trkpt><trkpt lat="44.512715" lon="10.8445824"><ele>233.0</ele><time>2026-05-02T06:44:04.249Z</time></trkpt><trkpt lat="44.5126501" lon="10.8445386"><ele>235.2</ele><time>2026-05-02T06:44:05.213Z</time></trkpt><trkpt lat="44.5125847" lon="10.8445044"><ele>237.4</ele><time>2026-05-02T06:44:06.21Z</time></trkpt><trkpt lat="44.5124646" lon="10.844477"><ele>239.59999999999997</ele><time>2026-05-02T06:44:08.25Z</time></trkpt><trkpt lat="44.5123645" lon="10.8444751"><ele>241.79999999999998</ele><time>2026-05-02T06:44:10.245Z</time></trkpt><trkpt lat="44.5122803" lon="10.8444861"><ele>244.0</ele><time>2026-05-02T06:44:13.211Z</time></trkpt><trkpt lat="44.5121755" lon="10.8444995"><ele>244.0</ele><time>2026-05-02T06:44:16.226Z</time></trkpt><trkpt lat="44.5120791" lon="10.8445143"><ele>243.99999999999997</ele><time>2026-05-02T06:44:18.179Z</time></trkpt><trkpt lat="44.5119551" lon="10.8444905"><ele>243.99999999999997</ele><time>2026-05-02T06:44:20.22Z</time></trkpt><trkpt lat="44.5118762" lon="10.8444842"><ele>244.0</ele><time>2026-05-02T06:44:21.236Z</time></trkpt><trkpt lat="44.5117757" lon="10.8444906"><ele>244.0</ele><time>2026-05-02T06:44:22.22Z</time></trkpt><trkpt lat="44.5116676" lon="10.8444991"><ele>245.49999999999997</ele><time>2026-05-02T06:44:23.254Z</time></trkpt><trkpt lat="44.5115661" lon="10.8445099"><ele>247.0</ele><time>2026-05-02T06:44:24.209Z</time></trkpt><trkpt lat="44.511472" lon="10.8445188"><ele>248.5</ele><time>2026-05-02T06:44:25.228Z</time></trkpt><trkpt lat="44.511394" lon="10.8445271"><ele>250.0</ele><time>2026-05-02T06:44:26.232Z</time></trkpt><trkpt lat="44.5113258" lon="10.8445325"><ele>251.49999999999997</ele><time>2026-05-02T06:44:27.219Z</time></trkpt><trkpt lat="44.5112198" lon="10.8445413"><ele>253.0</ele><time>2026-05-02T06:44:29.247Z</time></trkpt><trkpt lat="44.5111469" lon="10.8444879"><ele>254.99999999999997</ele><time>2026-05-02T06:44:31.196Z</time></trkpt><trkpt lat="44.5110433" lon="10.8444334"><ele>257.0</ele><time>2026-05-02T06:44:33.258Z</time></trkpt><trkpt lat="44.5109576" lon="10.844434"><ele>259.0</ele><time>2026-05-02T06:44:34.238Z</time></trkpt><trkpt lat="44.5108681" lon="10.8444431"><ele>261.0</ele><time>2026-05-02T06:44:35.233Z</time></trkpt><trkpt lat="44.5107895" lon="10.8444534"><ele>263.0</ele><time>2026-05-02T06:44:36.207Z</time></trkpt><trkpt lat="44.5107204" lon="10.8444588"><ele>265.0</ele><time>2026-05-02T06:44:37.214Z</time></trkpt><trkpt lat="44.5106014" lon="10.8444846"><ele>264.99999999999994</ele><time>2026-05-02T06:44:39.247Z</time></trkpt><trkpt lat="44.5105372" lon="10.8445265"><ele>265.0</ele><time>2026-05-02T06:44:40.216Z</time></trkpt><trkpt lat="44.5104726" lon="10.8445645"><ele>265.0</ele><time>2026-05-02T06:44:41.26Z</time></trkpt><trkpt lat="44.5104007" lon="10.8445823"><ele>265.0</ele><time>2026-05-02T06:44:42.214Z</time></trkpt><trkpt lat="44.5103287" lon="10.8446037"><ele>265.0</ele><time>2026-05-02T06:44:43.227Z</time></trkpt><trkpt lat="44.5102613" lon="10.8446228"><ele>264.99999999999994</ele><time>2026-05-02T06:44:44.222Z</time></trkpt><trkpt lat="44.5101852" lon="10.844635"><ele>265.0</ele><time>2026-05-02T06:44:45.225Z</time></trkpt><trkpt lat="44.5101144" lon="10.844649"><ele>265.66666666666663</ele><time>2026-05-02T06:44:46.191Z</time></trkpt><trkpt lat="44.5100149" lon="10.844649"><ele>266.3333333333333</ele><time>2026-05-02T06:44:48.221Z</time></trkpt><trkpt lat="44.5099477" lon="10.8446549"><ele>267.0</ele><time>2026-05-02T06:44:50.241Z</time></trkpt><trkpt lat="44.5098828" lon="10.8446453"><ele>267.6666666666667</ele><time>2026-05-02T06:44:52.241Z</time></trkpt><trkpt lat="44.5097686" lon="10.8445901"><ele>268.33333333333337</ele><time>2026-05-02T06:44:54.229Z</time></trkpt><trkpt lat="44.5097022" lon="10.8445589"><ele>269.0</ele><time>2026-05-02T06:44:55.217Z</time></trkpt><trkpt lat="44.5096325" lon="10.8445348"><ele>268.4</ele><time>2026-05-02T06:44:56.214Z</time></trkpt><trkpt lat="44.5095258" lon="10.8444922"><ele>267.79999999999995</ele><time>2026-05-02T06:44:58.223Z</time></trkpt><trkpt lat="44.5094706" lon="10.8444264"><ele>267.20000000000005</ele><time>2026-05-02T06:45:00.213Z</time></trkpt><trkpt lat="44.5094492" lon="10.8443272"><ele>266.6</ele><time>2026-05-02T06:45:02.22Z</time></trkpt><trkpt lat="44.5094387" lon="10.8441836"><ele>266.0</ele><time>2026-05-02T06:45:04.224Z</time></trkpt><trkpt lat="44.5094128" lon="10.8440331"><ele>265.8</ele><time>2026-05-02T06:45:06.232Z</time></trkpt><trkpt lat="44.5093835" lon="10.8438721"><ele>265.6</ele><time>2026-05-02T06:45:08.207Z</time></trkpt><trkpt lat="44.5093466" lon="10.8437261"><ele>265.4</ele><time>2026-05-02T06:45:10.227Z</time></trkpt><trkpt lat="44.5093304" lon="10.843606"><ele>265.2</ele><time>2026-05-02T06:45:12.246Z</time></trkpt><trkpt lat="44.5093265" lon="10.8434999"><ele>265.0</ele><time>2026-05-02T06:45:14.211Z</time></trkpt><trkpt lat="44.5093276" lon="10.8433551"><ele>265.0</ele><time>2026-05-02T06:45:16.207Z</time></trkpt><trkpt lat="44.5093193" lon="10.8431828"><ele>265.0</ele><time>2026-05-02T06:45:18.222Z</time></trkpt><trkpt lat="44.5092998" lon="10.8430189"><ele>265.0</ele><time>2026-05-02T06:45:20.233Z</time></trkpt><trkpt lat="44.5092871" lon="10.8428555"><ele>265.0</ele><time>2026-05-02T06:45:22.222Z</time></trkpt><trkpt lat="44.5092862" lon="10.8427591"><ele>265.0</ele><time>2026-05-02T06:45:23.213Z</time></trkpt><trkpt lat="44.509293" lon="10.8426582"><ele>262.6</ele><time>2026-05-02T06:45:24.251Z</time></trkpt><trkpt lat="44.5093011" lon="10.8425635"><ele>260.2</ele><time>2026-05-02T06:45:25.23Z</time></trkpt><trkpt lat="44.5093058" lon="10.8424687"><ele>257.8</ele><time>2026-05-02T06:45:26.212Z</time></trkpt><trkpt lat="44.5093041" lon="10.8423134"><ele>255.4</ele><time>2026-05-02T06:45:28.217Z</time></trkpt><trkpt lat="44.5092667" lon="10.8421712"><ele>253.0</ele><time>2026-05-02T06:45:30.218Z</time></trkpt><trkpt lat="44.5092079" lon="10.84204"><ele>253.0</ele><time>2026-05-02T06:45:32.229Z</time></trkpt><trkpt lat="44.509129" lon="10.8419126"><ele>253.0</ele><time>2026-05-02T06:45:34.238Z</time></trkpt><trkpt lat="44.5090441" lon="10.8417927"><ele>253.0</ele><time>2026-05-02T06:45:36.232Z</time></trkpt><trkpt lat="44.5089385" lon="10.8416911"><ele>253.0</ele><time>2026-05-02T06:45:38.228Z</time></trkpt><trkpt lat="44.5088803" lon="10.8416383"><ele>253.0</ele><time>2026-05-02T06:45:39.23Z</time></trkpt><trkpt lat="44.5088212" lon="10.8415869"><ele>252.2</ele><time>2026-05-02T06:45:40.24Z</time></trkpt><trkpt lat="44.5087594" lon="10.8415352"><ele>251.4</ele><time>2026-05-02T06:45:41.213Z</time></trkpt><trkpt lat="44.5086979" lon="10.8414853"><ele>250.59999999999997</ele><time>2026-05-02T06:45:42.235Z</time></trkpt><trkpt lat="44.5086393" lon="10.8414365"><ele>249.79999999999998</ele><time>2026-05-02T06:45:43.229Z</time></trkpt><trkpt lat="44.5085284" lon="10.8413556"><ele>249.0</ele><time>2026-05-02T06:45:45.205Z</time></trkpt><trkpt lat="44.5084188" lon="10.8412764"><ele>249.0</ele><time>2026-05-02T06:45:47.228Z</time></trkpt><trkpt lat="44.508309" lon="10.8412284"><ele>248.99999999999997</ele><time>2026-05-02T06:45:49.207Z</time></trkpt><trkpt lat="44.5082176" lon="10.8412044"><ele>248.99999999999997</ele><time>2026-05-02T06:45:51.214Z</time></trkpt><trkpt lat="44.5081464" lon="10.8411672"><ele>249.0</ele><time>2026-05-02T06:45:53.187Z</time></trkpt><trkpt lat="44.5080694" lon="10.8411145"><ele>249.0</ele><time>2026-05-02T06:45:55.215Z</time></trkpt><trkpt lat="44.5079778" lon="10.8410324"><ele>245.79999999999998</ele><time>2026-05-02T06:45:57.219Z</time></trkpt><trkpt lat="44.5079294" lon="10.8409234"><ele>242.59999999999997</ele><time>2026-05-02T06:45:59.228Z</time></trkpt><trkpt lat="44.507939" lon="10.8407865"><ele>239.4</ele><time>2026-05-02T06:46:01.231Z</time></trkpt><trkpt lat="44.5080311" lon="10.8406646"><ele>236.2</ele><time>2026-05-02T06:46:03.223Z</time></trkpt><trkpt lat="44.5080992" lon="10.8406238"><ele>233.0</ele><time>2026-05-02T06:46:04.215Z</time></trkpt><trkpt lat="44.5081646" lon="10.8405844"><ele>233.0</ele><time>2026-05-02T06:46:05.23Z</time></trkpt><trkpt lat="44.5082664" lon="10.8405222"><ele>233.0</ele><time>2026-05-02T06:46:07.211Z</time></trkpt><trkpt lat="44.5083251" lon="10.8404388"><ele>233.0</ele><time>2026-05-02T06:46:09.183Z</time></trkpt><trkpt lat="44.5083872" lon="10.8402915"><ele>233.0</ele><time>2026-05-02T06:46:11.23Z</time></trkpt><trkpt lat="44.5084123" lon="10.8402103"><ele>233.0</ele><time>2026-05-02T06:46:12.251Z</time></trkpt><trkpt lat="44.508461" lon="10.8400533"><ele>227.75</ele><time>2026-05-02T06:46:14.236Z</time></trkpt><trkpt lat="44.5085092" lon="10.8398867"><ele>222.5</ele><time>2026-05-02T06:46:16.207Z</time></trkpt><trkpt lat="44.5085543" lon="10.8397361"><ele>217.25</ele><time>2026-05-02T06:46:18.223Z</time></trkpt><trkpt lat="44.5085957" lon="10.8395965"><ele>212.0</ele><time>2026-05-02T06:46:20.256Z</time></trkpt><trkpt lat="44.5086329" lon="10.8394598"><ele>212.0</ele><time>2026-05-02T06:46:22.252Z</time></trkpt><trkpt lat="44.5086703" lon="10.8393286"><ele>212.0</ele><time>2026-05-02T06:46:24.238Z</time></trkpt><trkpt lat="44.5087049" lon="10.8391874"><ele>212.0</ele><time>2026-05-02T06:46:26.224Z</time></trkpt><trkpt lat="44.5087379" lon="10.839033"><ele>212.0</ele><time>2026-05-02T06:46:28.241Z</time></trkpt><trkpt lat="44.5087793" lon="10.8388857"><ele>212.0</ele><time>2026-05-02T06:46:30.24Z</time></trkpt><trkpt lat="44.5088175" lon="10.8387424"><ele>209.8</ele><time>2026-05-02T06:46:32.237Z</time></trkpt><trkpt lat="44.5088603" lon="10.8385999"><ele>207.6</ele><time>2026-05-02T06:46:34.246Z</time></trkpt><trkpt lat="44.5089046" lon="10.8384506"><ele>205.4</ele><time>2026-05-02T06:46:36.226Z</time></trkpt><trkpt lat="44.50894" lon="10.8383149"><ele>203.20000000000002</ele><time>2026-05-02T06:46:38.229Z</time></trkpt><trkpt lat="44.5089781" lon="10.8381828"><ele>201.0</ele><time>2026-05-02T06:46:40.24Z</time></trkpt><trkpt lat="44.5090152" lon="10.8380391"><ele>198.5</ele><time>2026-05-02T06:46:42.223Z</time></trkpt><trkpt lat="44.5090531" lon="10.8378922"><ele>196.0</ele><time>2026-05-02T06:46:44.223Z</time></trkpt><trkpt lat="44.5090952" lon="10.8377358"><ele>193.5</ele><time>2026-05-02T06:46:46.196Z</time></trkpt><trkpt lat="44.5091324" lon="10.8375786"><ele>191.0</ele><time>2026-05-02T06:46:48.237Z</time></trkpt><trkpt lat="44.5091628" lon="10.8374384"><ele>189.83333333333331</ele><time>2026-05-02T06:46:50.237Z</time></trkpt><trkpt lat="44.5091911" lon="10.8372845"><ele>188.66666666666666</ele><time>2026-05-02T06:46:52.219Z</time></trkpt><trkpt lat="44.5092091" lon="10.8371938"><ele>187.5</ele><time>2026-05-02T06:46:53.253Z</time></trkpt><trkpt lat="44.5092348" lon="10.8370831"><ele>186.33333333333334</ele><time>2026-05-02T06:46:54.247Z</time></trkpt><trkpt lat="44.509263" lon="10.8369627"><ele>185.16666666666669</ele><time>2026-05-02T06:46:55.233Z</time></trkpt><trkpt lat="44.5092949" lon="10.8368433"><ele>184.0</ele><time>2026-05-02T06:46:56.241Z</time></trkpt><trkpt lat="44.5093275" lon="10.8367255"><ele>182.66666666666669</ele><time>2026-05-02T06:46:57.222Z</time></trkpt><trkpt lat="44.5093577" lon="10.8366141"><ele>181.33333333333334</ele><time>2026-05-02T06:46:58.218Z</time></trkpt><trkpt lat="44.5093879" lon="10.8365057"><ele>180.0</ele><time>2026-05-02T06:46:59.229Z</time></trkpt><trkpt lat="44.5094144" lon="10.8364017"><ele>178.66666666666666</ele><time>2026-05-02T06:47:00.224Z</time></trkpt><trkpt lat="44.50944" lon="10.8363012"><ele>177.33333333333331</ele><time>2026-05-02T06:47:01.212Z</time></trkpt><trkpt lat="44.5094637" lon="10.8362092"><ele>176.0</ele><time>2026-05-02T06:47:02.206Z</time></trkpt><trkpt lat="44.5094907" lon="10.8361235"><ele>176.0</ele><time>2026-05-02T06:47:03.227Z</time></trkpt><trkpt lat="44.5095161" lon="10.836035"><ele>176.0</ele><time>2026-05-02T06:47:04.245Z</time></trkpt><trkpt lat="44.5095424" lon="10.835953"><ele>176.0</ele><time>2026-05-02T06:47:05.227Z</time></trkpt><trkpt lat="44.50959" lon="10.835786"><ele>176.0</ele><time>2026-05-02T06:47:07.294Z</time></trkpt><trkpt lat="44.509635" lon="10.8356026"><ele>176.0</ele><time>2026-05-02T06:47:09.201Z</time></trkpt><trkpt lat="44.5096608" lon="10.8355084"><ele>174.83333333333331</ele><time>2026-05-02T06:47:10.251Z</time></trkpt><trkpt lat="44.5096883" lon="10.8354207"><ele>173.66666666666666</ele><time>2026-05-02T06:47:11.209Z</time></trkpt><trkpt lat="44.5097143" lon="10.8353403"><ele>172.5</ele><time>2026-05-02T06:47:12.229Z</time></trkpt><trkpt lat="44.5098081" lon="10.8352686"><ele>171.33333333333334</ele><time>2026-05-02T06:47:14.229Z</time></trkpt><trkpt lat="44.5098901" lon="10.8352486"><ele>170.16666666666669</ele><time>2026-05-02T06:47:16.238Z</time></trkpt><trkpt lat="44.509926" lon="10.8351515"><ele>169.0</ele><time>2026-05-02T06:47:23.239Z</time></trkpt><trkpt lat="44.5098493" lon="10.8350368"><ele>169.0</ele><time>2026-05-02T06:47:25.247Z</time></trkpt><trkpt lat="44.5097777" lon="10.8349597"><ele>169.0</ele><time>2026-05-02T06:47:26.237Z</time></trkpt><trkpt lat="44.5096991" lon="10.8348801"><ele>169.0</ele><time>2026-05-02T06:47:27.247Z</time></trkpt><trkpt lat="44.5096154" lon="10.8347963"><ele>169.0</ele><time>2026-05-02T06:47:28.244Z</time></trkpt><trkpt lat="44.5095334" lon="10.8347206"><ele>169.0</ele><time>2026-05-02T06:47:29.203Z</time></trkpt><trkpt lat="44.5094558" lon="10.8346557"><ele>169.0</ele><time>2026-05-02T06:47:30.238Z</time></trkpt><trkpt lat="44.509382" lon="10.8345982"><ele>169.0</ele><time>2026-05-02T06:47:31.232Z</time></trkpt><trkpt lat="44.5093102" lon="10.8345357"><ele>169.0</ele><time>2026-05-02T06:47:32.247Z</time></trkpt><trkpt lat="44.5092346" lon="10.8344716"><ele>169.0</ele><time>2026-05-02T06:47:33.234Z</time></trkpt><trkpt lat="44.5091549" lon="10.8344072"><ele>169.0</ele><time>2026-05-02T06:47:34.239Z</time></trkpt><trkpt lat="44.5090786" lon="10.8343426"><ele>169.0</ele><time>2026-05-02T06:47:35.219Z</time></trkpt><trkpt lat="44.5090034" lon="10.8342831"><ele>168.6</ele><time>2026-05-02T06:47:36.272Z</time></trkpt><trkpt lat="44.5089221" lon="10.8342233"><ele>168.2</ele><time>2026-05-02T06:47:37.228Z</time></trkpt><trkpt lat="44.5088382" lon="10.8341641"><ele>167.79999999999998</ele><time>2026-05-02T06:47:38.226Z</time></trkpt><trkpt lat="44.5087535" lon="10.8341057"><ele>167.39999999999998</ele><time>2026-05-02T06:47:39.243Z</time></trkpt><trkpt lat="44.5086719" lon="10.8340546"><ele>167.0</ele><time>2026-05-02T06:47:40.225Z</time></trkpt><trkpt lat="44.5085901" lon="10.8340013"><ele>167.0</ele><time>2026-05-02T06:47:41.23Z</time></trkpt><trkpt lat="44.5085098" lon="10.8339435"><ele>167.0</ele><time>2026-05-02T06:47:42.233Z</time></trkpt><trkpt lat="44.5084343" lon="10.8338858"><ele>167.0</ele><time>2026-05-02T06:47:43.231Z</time></trkpt><trkpt lat="44.5083619" lon="10.8338311"><ele>167.0</ele><time>2026-05-02T06:47:44.229Z</time></trkpt><trkpt lat="44.5082867" lon="10.8337657"><ele>167.0</ele><time>2026-05-02T06:47:45.235Z</time></trkpt><trkpt lat="44.5082091" lon="10.8336827"><ele>167.0</ele><time>2026-05-02T06:47:46.203Z</time></trkpt><trkpt lat="44.508131" lon="10.8335819"><ele>166.8</ele><time>2026-05-02T06:47:47.219Z</time></trkpt><trkpt lat="44.5080589" lon="10.8334704"><ele>166.6</ele><time>2026-05-02T06:47:48.201Z</time></trkpt><trkpt lat="44.5079932" lon="10.8333492"><ele>166.4</ele><time>2026-05-02T06:47:49.242Z</time></trkpt><trkpt lat="44.507932" lon="10.8332187"><ele>166.20000000000002</ele><time>2026-05-02T06:47:50.231Z</time></trkpt><trkpt lat="44.5078726" lon="10.8330946"><ele>166.0</ele><time>2026-05-02T06:47:51.211Z</time></trkpt><trkpt lat="44.507813" lon="10.8329785"><ele>166.4</ele><time>2026-05-02T06:47:52.244Z</time></trkpt><trkpt lat="44.507748" lon="10.8328624"><ele>166.8</ele><time>2026-05-02T06:47:53.22Z</time></trkpt><trkpt lat="44.5076804" lon="10.8327457"><ele>167.20000000000002</ele><time>2026-05-02T06:47:54.222Z</time></trkpt><trkpt lat="44.5076138" lon="10.8326288"><ele>167.60000000000002</ele><time>2026-05-02T06:47:55.221Z</time></trkpt><trkpt lat="44.5075482" lon="10.8325189"><ele>168.0</ele><time>2026-05-02T06:47:56.23Z</time></trkpt><trkpt lat="44.5074846" lon="10.8324151"><ele>168.2</ele><time>2026-05-02T06:47:57.21Z</time></trkpt><trkpt lat="44.5074174" lon="10.8323117"><ele>168.4</ele><time>2026-05-02T06:47:58.24Z</time></trkpt><trkpt lat="44.5073462" lon="10.8322133"><ele>168.6</ele><time>2026-05-02T06:47:59.228Z</time></trkpt><trkpt lat="44.5072757" lon="10.8321233"><ele>168.79999999999998</ele><time>2026-05-02T06:48:00.201Z</time></trkpt><trkpt lat="44.507209" lon="10.832039"><ele>169.0</ele><time>2026-05-02T06:48:01.198Z</time></trkpt><trkpt lat="44.5071426" lon="10.8319732"><ele>169.33333333333334</ele><time>2026-05-02T06:48:02.205Z</time></trkpt><trkpt lat="44.5070708" lon="10.8319163"><ele>169.66666666666669</ele><time>2026-05-02T06:48:03.234Z</time></trkpt><trkpt lat="44.5070054" lon="10.8318626"><ele>170.0</ele><time>2026-05-02T06:48:04.2Z</time></trkpt><trkpt lat="44.5069224" lon="10.8318037"><ele>170.33333333333334</ele><time>2026-05-02T06:48:06.206Z</time></trkpt><trkpt lat="44.5068245" lon="10.8318263"><ele>170.66666666666666</ele><time>2026-05-02T06:48:09.228Z</time></trkpt><trkpt lat="44.506786" lon="10.8318998"><ele>171.0</ele><time>2026-05-02T06:48:10.208Z</time></trkpt><trkpt lat="44.506747" lon="10.8319978"><ele>171.0</ele><time>2026-05-02T06:48:11.217Z</time></trkpt><trkpt lat="44.5067068" lon="10.832096"><ele>171.0</ele><time>2026-05-02T06:48:12.224Z</time></trkpt><trkpt lat="44.5066658" lon="10.8321971"><ele>171.0</ele><time>2026-05-02T06:48:13.221Z</time></trkpt><trkpt lat="44.5066254" lon="10.8323062"><ele>171.0</ele><time>2026-05-02T06:48:14.222Z</time></trkpt><trkpt lat="44.506588" lon="10.8324163"><ele>171.0</ele><time>2026-05-02T06:48:15.223Z</time></trkpt><trkpt lat="44.5065507" lon="10.8325275"><ele>171.0</ele><time>2026-05-02T06:48:16.266Z</time></trkpt><trkpt lat="44.5065111" lon="10.832632"><ele>170.83333333333334</ele><time>2026-05-02T06:48:17.24Z</time></trkpt><trkpt lat="44.506465" lon="10.8327122"><ele>170.66666666666666</ele><time>2026-05-02T06:48:18.211Z</time></trkpt><trkpt lat="44.5064112" lon="10.8327746"><ele>170.5</ele><time>2026-05-02T06:48:19.215Z</time></trkpt><trkpt lat="44.5063391" lon="10.8328226"><ele>170.33333333333331</ele><time>2026-05-02T06:48:20.228Z</time></trkpt><trkpt lat="44.5062638" lon="10.8328687"><ele>170.16666666666666</ele><time>2026-05-02T06:48:21.239Z</time></trkpt><trkpt lat="44.5061651" lon="10.8328873"><ele>170.0</ele><time>2026-05-02T06:48:22.215Z</time></trkpt><trkpt lat="44.5060616" lon="10.8328884"><ele>172.8</ele><time>2026-05-02T06:48:23.218Z</time></trkpt><trkpt lat="44.5059482" lon="10.8328854"><ele>175.6</ele><time>2026-05-02T06:48:24.224Z</time></trkpt><trkpt lat="44.5058335" lon="10.8328782"><ele>178.39999999999998</ele><time>2026-05-02T06:48:25.215Z</time></trkpt><trkpt lat="44.5057276" lon="10.8328713"><ele>181.2</ele><time>2026-05-02T06:48:26.223Z</time></trkpt><trkpt lat="44.5056397" lon="10.8328687"><ele>184.0</ele><time>2026-05-02T06:48:27.226Z</time></trkpt><trkpt lat="44.5055618" lon="10.8328638"><ele>184.0</ele><time>2026-05-02T06:48:28.23Z</time></trkpt><trkpt lat="44.5054919" lon="10.8328607"><ele>184.0</ele><time>2026-05-02T06:48:29.211Z</time></trkpt><trkpt lat="44.5053922" lon="10.8328527"><ele>184.0</ele><time>2026-05-02T06:48:31.237Z</time></trkpt><trkpt lat="44.5053039" lon="10.8328732"><ele>184.0</ele><time>2026-05-02T06:48:34.24Z</time></trkpt><trkpt lat="44.5052947" lon="10.832997"><ele>184.0</ele><time>2026-05-02T06:48:37.254Z</time></trkpt><trkpt lat="44.5053307" lon="10.8330791"><ele>184.0</ele><time>2026-05-02T06:48:38.234Z</time></trkpt><trkpt lat="44.5053814" lon="10.8332093"><ele>184.0</ele><time>2026-05-02T06:48:39.235Z</time></trkpt><trkpt lat="44.5054424" lon="10.8333522"><ele>184.0</ele><time>2026-05-02T06:48:40.228Z</time></trkpt><trkpt lat="44.5055036" lon="10.8334812"><ele>184.0</ele><time>2026-05-02T06:48:41.231Z</time></trkpt><trkpt lat="44.5055661" lon="10.8336038"><ele>184.0</ele><time>2026-05-02T06:48:42.223Z</time></trkpt><trkpt lat="44.5056348" lon="10.8337291"><ele>184.0</ele><time>2026-05-02T06:48:43.227Z</time></trkpt><trkpt lat="44.5057067" lon="10.8338545"><ele>185.5</ele><time>2026-05-02T06:48:44.224Z</time></trkpt><trkpt lat="44.5057689" lon="10.8339632"><ele>187.0</ele><time>2026-05-02T06:48:45.235Z</time></trkpt><trkpt lat="44.5058279" lon="10.8340665"><ele>188.5</ele><time>2026-05-02T06:48:46.229Z</time></trkpt><trkpt lat="44.5058859" lon="10.8341526"><ele>190.0</ele><time>2026-05-02T06:48:47.222Z</time></trkpt><trkpt lat="44.5059342" lon="10.8342386"><ele>191.49999999999997</ele><time>2026-05-02T06:48:48.226Z</time></trkpt><trkpt lat="44.5059723" lon="10.8343242"><ele>193.0</ele><time>2026-05-02T06:48:49.218Z</time></trkpt><trkpt lat="44.5060034" lon="10.8344214"><ele>193.2</ele><time>2026-05-02T06:48:50.216Z</time></trkpt><trkpt lat="44.5060193" lon="10.8345734"><ele>193.4</ele><time>2026-05-02T06:48:52.202Z</time></trkpt><trkpt lat="44.5059132" lon="10.8347063"><ele>193.6</ele><time>2026-05-02T06:48:54.225Z</time></trkpt><trkpt lat="44.5058309" lon="10.8347397"><ele>193.79999999999998</ele><time>2026-05-02T06:48:55.244Z</time></trkpt><trkpt lat="44.5057458" lon="10.8347827"><ele>194.0</ele><time>2026-05-02T06:48:56.214Z</time></trkpt><trkpt lat="44.5056542" lon="10.8348167"><ele>194.0</ele><time>2026-05-02T06:48:57.227Z</time></trkpt><trkpt lat="44.5055585" lon="10.834845"><ele>194.0</ele><time>2026-05-02T06:48:58.234Z</time></trkpt><trkpt lat="44.5054631" lon="10.8348845"><ele>194.0</ele><time>2026-05-02T06:48:59.242Z</time></trkpt><trkpt lat="44.5053749" lon="10.8349246"><ele>194.0</ele><time>2026-05-02T06:49:00.246Z</time></trkpt><trkpt lat="44.5052919" lon="10.8349625"><ele>194.0</ele><time>2026-05-02T06:49:01.23Z</time></trkpt><trkpt lat="44.5052209" lon="10.8350052"><ele>194.00000000000003</ele><time>2026-05-02T06:49:02.285Z</time></trkpt><trkpt lat="44.5051257" lon="10.8350592"><ele>194.0</ele><time>2026-05-02T06:49:04.233Z</time></trkpt><trkpt lat="44.5050672" lon="10.8350984"><ele>194.0</ele><time>2026-05-02T06:49:07.229Z</time></trkpt><trkpt lat="44.5050305" lon="10.8351779"><ele>194.0</ele><time>2026-05-02T06:49:10.216Z</time></trkpt><trkpt lat="44.5049764" lon="10.8352417"><ele>194.00000000000003</ele><time>2026-05-02T06:49:13.242Z</time></trkpt><trkpt lat="44.5049004" lon="10.8352675"><ele>194.0</ele><time>2026-05-02T06:49:15.232Z</time></trkpt><trkpt lat="44.5048365" lon="10.8352954"><ele>194.00000000000003</ele><time>2026-05-02T06:49:17.236Z</time></trkpt><trkpt lat="44.5047718" lon="10.8353305"><ele>194.0</ele><time>2026-05-02T06:49:19.229Z</time></trkpt><trkpt lat="44.5047072" lon="10.8353623"><ele>194.0</ele><time>2026-05-02T06:49:22.219Z</time></trkpt><trkpt lat="44.5046323" lon="10.8354077"><ele>194.0</ele><time>2026-05-02T06:49:25.193Z</time></trkpt><trkpt lat="44.5045519" lon="10.8354593"><ele>194.00000000000003</ele><time>2026-05-02T06:49:28.214Z</time></trkpt><trkpt lat="44.5044897" lon="10.8355047"><ele>194.0</ele><time>2026-05-02T06:49:30.205Z</time></trkpt><trkpt lat="44.5044135" lon="10.8355278"><ele>197.66666666666669</ele><time>2026-05-02T06:49:32.228Z</time></trkpt><trkpt lat="44.5043347" lon="10.835538"><ele>201.33333333333334</ele><time>2026-05-02T06:49:34.224Z</time></trkpt><trkpt lat="44.5042457" lon="10.8355289"><ele>205.0</ele><time>2026-05-02T06:49:36.202Z</time></trkpt><trkpt lat="44.504173" lon="10.8355126"><ele>208.66666666666669</ele><time>2026-05-02T06:49:38.241Z</time></trkpt><trkpt lat="44.5040995" lon="10.8355124"><ele>212.33333333333334</ele><time>2026-05-02T06:49:41.251Z</time></trkpt><trkpt lat="44.5040368" lon="10.8355258"><ele>216.0</ele><time>2026-05-02T06:49:49.192Z</time></trkpt><trkpt lat="44.5039398" lon="10.8355585"><ele>216.0</ele><time>2026-05-02T06:49:52.264Z</time></trkpt><trkpt lat="44.5038689" lon="10.8356074"><ele>216.0</ele><time>2026-05-02T06:49:54.226Z</time></trkpt><trkpt lat="44.5038014" lon="10.8356637"><ele>216.0</ele><time>2026-05-02T06:49:56.248Z</time></trkpt><trkpt lat="44.5037314" lon="10.8356996"><ele>216.0</ele><time>2026-05-02T06:49:59.205Z</time></trkpt><trkpt lat="44.5036729" lon="10.8357479"><ele>216.0</ele><time>2026-05-02T06:50:02.182Z</time></trkpt><trkpt lat="44.5036101" lon="10.8358153"><ele>216.0</ele><time>2026-05-02T06:50:04.258Z</time></trkpt><trkpt lat="44.5035363" lon="10.8358819"><ele>218.33333333333334</ele><time>2026-05-02T06:50:06.222Z</time></trkpt><trkpt lat="44.5034564" lon="10.8359348"><ele>220.66666666666669</ele><time>2026-05-02T06:50:08.248Z</time></trkpt><trkpt lat="44.5034" lon="10.8359795"><ele>223.0</ele><time>2026-05-02T06:50:10.221Z</time></trkpt><trkpt lat="44.5033355" lon="10.8360285"><ele>225.33333333333334</ele><time>2026-05-02T06:50:13.179Z</time></trkpt><trkpt lat="44.5032355" lon="10.8360956"><ele>227.66666666666669</ele><time>2026-05-02T06:50:19.238Z</time></trkpt><trkpt lat="44.5031718" lon="10.8361425"><ele>230.0</ele><time>2026-05-02T06:50:24.238Z</time></trkpt><trkpt lat="44.5031036" lon="10.8361937"><ele>230.0</ele><time>2026-05-02T06:50:29.209Z</time></trkpt><trkpt lat="44.5030411" lon="10.8362579"><ele>230.0</ele><time>2026-05-02T06:50:34.21Z</time></trkpt><trkpt lat="44.5029783" lon="10.836312"><ele>230.0</ele><time>2026-05-02T06:50:38.217Z</time></trkpt><trkpt lat="44.5028869" lon="10.8363752"><ele>230.0</ele><time>2026-05-02T06:50:41.222Z</time></trkpt><trkpt lat="44.5027777" lon="10.836455"><ele>230.0</ele><time>2026-05-02T06:50:43.234Z</time></trkpt><trkpt lat="44.502711" lon="10.8364983"><ele>233.00000000000003</ele><time>2026-05-02T06:50:44.275Z</time></trkpt><trkpt lat="44.5026317" lon="10.8365464"><ele>236.0</ele><time>2026-05-02T06:50:45.219Z</time></trkpt><trkpt lat="44.5025487" lon="10.8365963"><ele>239.0</ele><time>2026-05-02T06:50:46.229Z</time></trkpt><trkpt lat="44.5024616" lon="10.8366504"><ele>242.0</ele><time>2026-05-02T06:50:47.24Z</time></trkpt><trkpt lat="44.5023744" lon="10.8367064"><ele>245.00000000000003</ele><time>2026-05-02T06:50:48.231Z</time></trkpt><trkpt lat="44.5023007" lon="10.8367513"><ele>248.0</ele><time>2026-05-02T06:50:49.224Z</time></trkpt><trkpt lat="44.5022221" lon="10.8367985"><ele>248.8</ele><time>2026-05-02T06:50:50.239Z</time></trkpt><trkpt lat="44.5021389" lon="10.8368499"><ele>249.60000000000002</ele><time>2026-05-02T06:50:51.225Z</time></trkpt><trkpt lat="44.5020368" lon="10.836902"><ele>250.39999999999998</ele><time>2026-05-02T06:50:52.23Z</time></trkpt><trkpt lat="44.5019355" lon="10.8369436"><ele>251.2</ele><time>2026-05-02T06:50:53.243Z</time></trkpt><trkpt lat="44.5018187" lon="10.8369771"><ele>252.0</ele><time>2026-05-02T06:50:54.237Z</time></trkpt><trkpt lat="44.5016986" lon="10.8370051"><ele>252.0</ele><time>2026-05-02T06:50:55.239Z</time></trkpt><trkpt lat="44.5015908" lon="10.837032"><ele>252.0</ele><time>2026-05-02T06:50:56.239Z</time></trkpt><trkpt lat="44.5014986" lon="10.8370589"><ele>252.0</ele><time>2026-05-02T06:50:57.235Z</time></trkpt><trkpt lat="44.5014126" lon="10.837088"><ele>252.0</ele><time>2026-05-02T06:50:58.237Z</time></trkpt><trkpt lat="44.5013259" lon="10.837126"><ele>252.0</ele><time>2026-05-02T06:50:59.25Z</time></trkpt><trkpt lat="44.5012384" lon="10.8371706"><ele>253.6</ele><time>2026-05-02T06:51:00.22Z</time></trkpt><trkpt lat="44.5011449" lon="10.8372278"><ele>255.2</ele><time>2026-05-02T06:51:01.281Z</time></trkpt><trkpt lat="44.5010484" lon="10.8372912"><ele>256.8</ele><time>2026-05-02T06:51:02.235Z</time></trkpt><trkpt lat="44.500958" lon="10.8373472"><ele>258.4</ele><time>2026-05-02T06:51:03.224Z</time></trkpt><trkpt lat="44.5008729" lon="10.8373935"><ele>260.0</ele><time>2026-05-02T06:51:04.244Z</time></trkpt><trkpt lat="44.5007943" lon="10.8374381"><ele>260.0</ele><time>2026-05-02T06:51:05.24Z</time></trkpt><trkpt lat="44.5007202" lon="10.8374838"><ele>260.0</ele><time>2026-05-02T06:51:06.233Z</time></trkpt><trkpt lat="44.5006468" lon="10.8375289"><ele>260.0</ele><time>2026-05-02T06:51:07.301Z</time></trkpt><trkpt lat="44.500502" lon="10.8376255"><ele>260.0</ele><time>2026-05-02T06:51:09.217Z</time></trkpt><trkpt lat="44.500432" lon="10.8376737"><ele>260.0</ele><time>2026-05-02T06:51:10.216Z</time></trkpt><trkpt lat="44.5003599" lon="10.8377256"><ele>260.5</ele><time>2026-05-02T06:51:11.232Z</time></trkpt><trkpt lat="44.5002827" lon="10.8377803"><ele>261.0</ele><time>2026-05-02T06:51:12.228Z</time></trkpt><trkpt lat="44.5002051" lon="10.8378272"><ele>261.5</ele><time>2026-05-02T06:51:13.215Z</time></trkpt><trkpt lat="44.5001321" lon="10.8378622"><ele>262.0</ele><time>2026-05-02T06:51:14.249Z</time></trkpt><trkpt lat="44.5000645" lon="10.8378887"><ele>262.5</ele><time>2026-05-02T06:51:15.232Z</time></trkpt><trkpt lat="44.4999666" lon="10.8379139"><ele>263.0</ele><time>2026-05-02T06:51:17.237Z</time></trkpt><trkpt lat="44.4998979" lon="10.8378563"><ele>263.0</ele><time>2026-05-02T06:51:55.226Z</time></trkpt><trkpt lat="44.4998293" lon="10.837733"><ele>263.0</ele><time>2026-05-02T06:51:57.221Z</time></trkpt><trkpt lat="44.4997326" lon="10.83761"><ele>263.0</ele><time>2026-05-02T06:51:59.237Z</time></trkpt><trkpt lat="44.4996619" lon="10.8375774"><ele>263.0</ele><time>2026-05-02T06:52:00.223Z</time></trkpt><trkpt lat="44.4995867" lon="10.8375469"><ele>263.0</ele><time>2026-05-02T06:52:01.269Z</time></trkpt><trkpt lat="44.4995011" lon="10.8375365"><ele>263.0</ele><time>2026-05-02T06:52:02.228Z</time></trkpt><trkpt lat="44.4994163" lon="10.8375261"><ele>263.0</ele><time>2026-05-02T06:52:03.203Z</time></trkpt><trkpt lat="44.4993265" lon="10.8375157"><ele>263.0</ele><time>2026-05-02T06:52:04.22Z</time></trkpt><trkpt lat="44.4992401" lon="10.8375108"><ele>263.0</ele><time>2026-05-02T06:52:05.236Z</time></trkpt><trkpt lat="44.4991573" lon="10.8375049"><ele>263.0</ele><time>2026-05-02T06:52:06.225Z</time></trkpt><trkpt lat="44.499081" lon="10.8375089"><ele>263.0</ele><time>2026-05-02T06:52:07.272Z</time></trkpt><trkpt lat="44.4990036" lon="10.8375122"><ele>263.0</ele><time>2026-05-02T06:52:08.223Z</time></trkpt><trkpt lat="44.4989328" lon="10.8375095"><ele>263.0</ele><time>2026-05-02T06:52:09.227Z</time></trkpt><trkpt lat="44.4988618" lon="10.8375021"><ele>263.0</ele><time>2026-05-02T06:52:10.196Z</time></trkpt><trkpt lat="44.4987948" lon="10.8374938"><ele>263.0</ele><time>2026-05-02T06:52:11.245Z</time></trkpt><trkpt lat="44.4987291" lon="10.8374799"><ele>263.0</ele><time>2026-05-02T06:52:12.236Z</time></trkpt><trkpt lat="44.4986682" lon="10.8374568"><ele>263.0</ele><time>2026-05-02T06:52:13.21Z</time></trkpt><trkpt lat="44.4985729" lon="10.8373705"><ele>261.4</ele><time>2026-05-02T06:52:15.243Z</time></trkpt><trkpt lat="44.4984951" lon="10.8372597"><ele>259.8</ele><time>2026-05-02T06:52:17.246Z</time></trkpt><trkpt lat="44.4984082" lon="10.8371691"><ele>258.2</ele><time>2026-05-02T06:52:19.313Z</time></trkpt><trkpt lat="44.4983253" lon="10.8370207"><ele>256.6</ele><time>2026-05-02T06:52:21.236Z</time></trkpt><trkpt lat="44.4982788" lon="10.8369145"><ele>255.0</ele><time>2026-05-02T06:52:22.209Z</time></trkpt><trkpt lat="44.4982227" lon="10.8367934"><ele>255.0</ele><time>2026-05-02T06:52:23.235Z</time></trkpt><trkpt lat="44.4981645" lon="10.8366743"><ele>255.0</ele><time>2026-05-02T06:52:24.245Z</time></trkpt><trkpt lat="44.4981058" lon="10.8365565"><ele>255.0</ele><time>2026-05-02T06:52:25.273Z</time></trkpt><trkpt lat="44.498042" lon="10.8364426"><ele>255.0</ele><time>2026-05-02T06:52:26.208Z</time></trkpt><trkpt lat="44.4979723" lon="10.8363277"><ele>255.0</ele><time>2026-05-02T06:52:27.229Z</time></trkpt><trkpt lat="44.4978995" lon="10.836212"><ele>253.8</ele><time>2026-05-02T06:52:28.248Z</time></trkpt><trkpt lat="44.497826" lon="10.836093"><ele>252.6</ele><time>2026-05-02T06:52:29.218Z</time></trkpt><trkpt lat="44.4977523" lon="10.8359716"><ele>251.39999999999998</ele><time>2026-05-02T06:52:30.219Z</time></trkpt><trkpt lat="44.4976839" lon="10.8358581"><ele>250.2</ele><time>2026-05-02T06:52:31.264Z</time></trkpt><trkpt lat="44.4976262" lon="10.8357537"><ele>249.0</ele><time>2026-05-02T06:52:32.235Z</time></trkpt><trkpt lat="44.4975875" lon="10.8356526"><ele>249.0</ele><time>2026-05-02T06:52:33.227Z</time></trkpt><trkpt lat="44.497565" lon="10.8355421"><ele>248.99999999999997</ele><time>2026-05-02T06:52:34.243Z</time></trkpt><trkpt lat="44.4975554" lon="10.8354222"><ele>248.99999999999997</ele><time>2026-05-02T06:52:35.256Z</time></trkpt><trkpt lat="44.4975547" lon="10.8352882"><ele>249.0</ele><time>2026-05-02T06:52:36.22Z</time></trkpt><trkpt lat="44.4975561" lon="10.8351502"><ele>249.0</ele><time>2026-05-02T06:52:37.224Z</time></trkpt><trkpt lat="44.4975703" lon="10.8350129"><ele>250.0</ele><time>2026-05-02T06:52:38.223Z</time></trkpt><trkpt lat="44.4975893" lon="10.8348869"><ele>251.0</ele><time>2026-05-02T06:52:39.234Z</time></trkpt><trkpt lat="44.4976233" lon="10.834792"><ele>252.0</ele><time>2026-05-02T06:52:40.239Z</time></trkpt><trkpt lat="44.4976756" lon="10.8347121"><ele>253.0</ele><time>2026-05-02T06:52:41.199Z</time></trkpt><trkpt lat="44.4977375" lon="10.8346189"><ele>254.0</ele><time>2026-05-02T06:52:42.232Z</time></trkpt><trkpt lat="44.4978112" lon="10.834541"><ele>255.0</ele><time>2026-05-02T06:52:43.213Z</time></trkpt><trkpt lat="44.4978943" lon="10.8344516"><ele>254.25</ele><time>2026-05-02T06:52:44.253Z</time></trkpt><trkpt lat="44.4979825" lon="10.8343518"><ele>253.5</ele><time>2026-05-02T06:52:45.222Z</time></trkpt><trkpt lat="44.4980763" lon="10.8342479"><ele>252.75</ele><time>2026-05-02T06:52:46.243Z</time></trkpt><trkpt lat="44.4981674" lon="10.8341493"><ele>252.0</ele><time>2026-05-02T06:52:47.218Z</time></trkpt><trkpt lat="44.4982493" lon="10.8340574"><ele>253.2</ele><time>2026-05-02T06:52:48.235Z</time></trkpt><trkpt lat="44.4983279" lon="10.8339569"><ele>254.39999999999998</ele><time>2026-05-02T06:52:49.222Z</time></trkpt><trkpt lat="44.4983999" lon="10.8338604"><ele>255.60000000000002</ele><time>2026-05-02T06:52:50.21Z</time></trkpt><trkpt lat="44.4984571" lon="10.8337603"><ele>256.8</ele><time>2026-05-02T06:52:51.217Z</time></trkpt><trkpt lat="44.4984945" lon="10.8336407"><ele>258.0</ele><time>2026-05-02T06:52:52.204Z</time></trkpt><trkpt lat="44.4985223" lon="10.8335243"><ele>259.6</ele><time>2026-05-02T06:52:53.23Z</time></trkpt><trkpt lat="44.4985506" lon="10.8334057"><ele>261.20000000000005</ele><time>2026-05-02T06:52:54.24Z</time></trkpt><trkpt lat="44.4985754" lon="10.8332868"><ele>262.8</ele><time>2026-05-02T06:52:55.255Z</time></trkpt><trkpt lat="44.4986057" lon="10.8331727"><ele>264.40000000000003</ele><time>2026-05-02T06:52:56.218Z</time></trkpt><trkpt lat="44.49864" lon="10.8330469"><ele>266.0</ele><time>2026-05-02T06:52:57.232Z</time></trkpt><trkpt lat="44.4986801" lon="10.8329123"><ele>266.0</ele><time>2026-05-02T06:52:58.233Z</time></trkpt><trkpt lat="44.4987271" lon="10.8327731"><ele>266.0</ele><time>2026-05-02T06:52:59.223Z</time></trkpt><trkpt lat="44.4987763" lon="10.8326322"><ele>266.0</ele><time>2026-05-02T06:53:00.204Z</time></trkpt><trkpt lat="44.4988256" lon="10.8324881"><ele>266.0</ele><time>2026-05-02T06:53:01.223Z</time></trkpt><trkpt lat="44.4988729" lon="10.8323377"><ele>265.2</ele><time>2026-05-02T06:53:02.221Z</time></trkpt><trkpt lat="44.49892" lon="10.8321933"><ele>264.40000000000003</ele><time>2026-05-02T06:53:03.22Z</time></trkpt><trkpt lat="44.4989667" lon="10.8320473"><ele>263.6</ele><time>2026-05-02T06:53:04.173Z</time></trkpt><trkpt lat="44.4990108" lon="10.8319211"><ele>262.8</ele><time>2026-05-02T06:53:05.239Z</time></trkpt><trkpt lat="44.49905" lon="10.8318104"><ele>262.0</ele><time>2026-05-02T06:53:06.222Z</time></trkpt><trkpt lat="44.4990854" lon="10.8317161"><ele>263.2857142857143</ele><time>2026-05-02T06:53:07.235Z</time></trkpt><trkpt lat="44.4991172" lon="10.831621"><ele>264.5714285714286</ele><time>2026-05-02T06:53:08.207Z</time></trkpt><trkpt lat="44.4991503" lon="10.8315228"><ele>265.8571428571429</ele><time>2026-05-02T06:53:09.217Z</time></trkpt><trkpt lat="44.4991815" lon="10.8314317"><ele>267.14285714285717</ele><time>2026-05-02T06:53:10.231Z</time></trkpt><trkpt lat="44.4992089" lon="10.8313473"><ele>268.42857142857144</ele><time>2026-05-02T06:53:11.21Z</time></trkpt><trkpt lat="44.4992514" lon="10.8312639"><ele>269.7142857142857</ele><time>2026-05-02T06:53:12.269Z</time></trkpt><trkpt lat="44.4993132" lon="10.8311829"><ele>271.0</ele><time>2026-05-02T06:53:13.229Z</time></trkpt><trkpt lat="44.4993939" lon="10.8311143"><ele>271.0</ele><time>2026-05-02T06:53:14.207Z</time></trkpt><trkpt lat="44.4994878" lon="10.8310619"><ele>271.0</ele><time>2026-05-02T06:53:15.25Z</time></trkpt><trkpt lat="44.499583" lon="10.8310176"><ele>271.0</ele><time>2026-05-02T06:53:16.242Z</time></trkpt><trkpt lat="44.4996764" lon="10.8309801"><ele>271.0</ele><time>2026-05-02T06:53:17.234Z</time></trkpt><trkpt lat="44.4997688" lon="10.8309492"><ele>271.0</ele><time>2026-05-02T06:53:18.258Z</time></trkpt><trkpt lat="44.4998615" lon="10.8309199"><ele>269.8333333333333</ele><time>2026-05-02T06:53:19.233Z</time></trkpt><trkpt lat="44.4999576" lon="10.8308936"><ele>268.66666666666663</ele><time>2026-05-02T06:53:20.223Z</time></trkpt><trkpt lat="44.5000527" lon="10.8308689"><ele>267.5</ele><time>2026-05-02T06:53:21.218Z</time></trkpt><trkpt lat="44.5001424" lon="10.830844"><ele>266.3333333333333</ele><time>2026-05-02T06:53:22.24Z</time></trkpt><trkpt lat="44.5002276" lon="10.830821"><ele>265.1666666666667</ele><time>2026-05-02T06:53:23.244Z</time></trkpt><trkpt lat="44.5002991" lon="10.8307974"><ele>264.0</ele><time>2026-05-02T06:53:24.239Z</time></trkpt><trkpt lat="44.5003589" lon="10.8307651"><ele>264.0</ele><time>2026-05-02T06:53:25.245Z</time></trkpt><trkpt lat="44.5004106" lon="10.8306405"><ele>264.0</ele><time>2026-05-02T06:53:27.203Z</time></trkpt><trkpt lat="44.5003354" lon="10.8304993"><ele>264.0</ele><time>2026-05-02T06:53:29.227Z</time></trkpt><trkpt lat="44.5002789" lon="10.8304286"><ele>264.0</ele><time>2026-05-02T06:53:30.242Z</time></trkpt><trkpt lat="44.5001987" lon="10.830391"><ele>264.0</ele><time>2026-05-02T06:53:31.23Z</time></trkpt><trkpt lat="44.5001221" lon="10.830345"><ele>264.0</ele><time>2026-05-02T06:53:32.248Z</time></trkpt><trkpt lat="44.5000454" lon="10.8302987"><ele>264.0</ele><time>2026-05-02T06:53:33.226Z</time></trkpt><trkpt lat="44.4999739" lon="10.8302531"><ele>264.0</ele><time>2026-05-02T06:53:34.236Z</time></trkpt><trkpt lat="44.4999153" lon="10.8301999"><ele>264.0</ele><time>2026-05-02T06:53:35.232Z</time></trkpt><trkpt lat="44.4998656" lon="10.8300798"><ele>264.0</ele><time>2026-05-02T06:53:37.233Z</time></trkpt><trkpt lat="44.4999312" lon="10.8299804"><ele>264.0</ele><time>2026-05-02T06:53:39.226Z</time></trkpt><trkpt lat="44.500011" lon="10.8299791"><ele>262.6666666666667</ele><time>2026-05-02T06:53:40.235Z</time></trkpt><trkpt lat="44.5000979" lon="10.8299956"><ele>261.3333333333333</ele><time>2026-05-02T06:53:41.267Z</time></trkpt><trkpt lat="44.5001906" lon="10.8300126"><ele>260.0</ele><time>2026-05-02T06:53:42.235Z</time></trkpt><trkpt lat="44.5002793" lon="10.8300128"><ele>258.66666666666663</ele><time>2026-05-02T06:53:43.222Z</time></trkpt><trkpt lat="44.5003615" lon="10.8299944"><ele>257.3333333333333</ele><time>2026-05-02T06:53:44.225Z</time></trkpt><trkpt lat="44.5004393" lon="10.8299788"><ele>256.0</ele><time>2026-05-02T06:53:45.227Z</time></trkpt><trkpt lat="44.5004951" lon="10.8299039"><ele>254.42857142857142</ele><time>2026-05-02T06:53:46.222Z</time></trkpt><trkpt lat="44.5005268" lon="10.8298009"><ele>252.85714285714283</ele><time>2026-05-02T06:53:47.226Z</time></trkpt><trkpt lat="44.5005551" lon="10.8297011"><ele>251.28571428571428</ele><time>2026-05-02T06:53:48.209Z</time></trkpt><trkpt lat="44.5005514" lon="10.8295869"><ele>249.71428571428572</ele><time>2026-05-02T06:53:49.223Z</time></trkpt><trkpt lat="44.5005477" lon="10.8294763"><ele>248.14285714285714</ele><time>2026-05-02T06:53:50.233Z</time></trkpt><trkpt lat="44.5005706" lon="10.8293882"><ele>246.57142857142856</ele><time>2026-05-02T06:53:51.235Z</time></trkpt><trkpt lat="44.5005923" lon="10.8293034"><ele>245.0</ele><time>2026-05-02T06:53:52.242Z</time></trkpt><trkpt lat="44.5006537" lon="10.8292574"><ele>244.00000000000003</ele><time>2026-05-02T06:53:53.242Z</time></trkpt><trkpt lat="44.5007214" lon="10.8292138"><ele>243.0</ele><time>2026-05-02T06:53:54.24Z</time></trkpt><trkpt lat="44.5007932" lon="10.8291651"><ele>242.0</ele><time>2026-05-02T06:53:55.252Z</time></trkpt><trkpt lat="44.5008711" lon="10.8291145"><ele>241.0</ele><time>2026-05-02T06:53:56.238Z</time></trkpt><trkpt lat="44.5009548" lon="10.8290584"><ele>240.00000000000003</ele><time>2026-05-02T06:53:57.243Z</time></trkpt><trkpt lat="44.5010412" lon="10.8289963"><ele>239.0</ele><time>2026-05-02T06:53:58.238Z</time></trkpt><trkpt lat="44.5011219" lon="10.8289358"><ele>239.00000000000003</ele><time>2026-05-02T06:53:59.265Z</time></trkpt><trkpt lat="44.5011959" lon="10.8288749"><ele>239.0</ele><time>2026-05-02T06:54:00.206Z</time></trkpt><trkpt lat="44.5012636" lon="10.8288087"><ele>239.0</ele><time>2026-05-02T06:54:01.232Z</time></trkpt><trkpt lat="44.501325" lon="10.8287363"><ele>239.0</ele><time>2026-05-02T06:54:02.245Z</time></trkpt><trkpt lat="44.5013827" lon="10.8286582"><ele>239.00000000000003</ele><time>2026-05-02T06:54:03.218Z</time></trkpt><trkpt lat="44.5014443" lon="10.828595"><ele>239.0</ele><time>2026-05-02T06:54:04.208Z</time></trkpt><trkpt lat="44.5015133" lon="10.8285483"><ele>236.66666666666669</ele><time>2026-05-02T06:54:05.229Z</time></trkpt><trkpt lat="44.501593" lon="10.8285272"><ele>234.33333333333334</ele><time>2026-05-02T06:54:06.233Z</time></trkpt><trkpt lat="44.5016767" lon="10.8285337"><ele>232.0</ele><time>2026-05-02T06:54:07.216Z</time></trkpt><trkpt lat="44.5017575" lon="10.8285703"><ele>229.66666666666669</ele><time>2026-05-02T06:54:08.202Z</time></trkpt><trkpt lat="44.5018265" lon="10.8286378"><ele>227.33333333333334</ele><time>2026-05-02T06:54:09.225Z</time></trkpt><trkpt lat="44.5018741" lon="10.8287262"><ele>225.0</ele><time>2026-05-02T06:54:10.241Z</time></trkpt><trkpt lat="44.5019" lon="10.8288251"><ele>225.0</ele><time>2026-05-02T06:54:11.205Z</time></trkpt><trkpt lat="44.5019065" lon="10.828936"><ele>225.0</ele><time>2026-05-02T06:54:12.213Z</time></trkpt><trkpt lat="44.5019077" lon="10.8290691"><ele>225.0</ele><time>2026-05-02T06:54:13.222Z</time></trkpt><trkpt lat="44.5019158" lon="10.8292124"><ele>225.0</ele><time>2026-05-02T06:54:14.178Z</time></trkpt><trkpt lat="44.5019364" lon="10.8293581"><ele>225.0</ele><time>2026-05-02T06:54:15.23Z</time></trkpt><trkpt lat="44.5019676" lon="10.8294979"><ele>225.33333333333334</ele><time>2026-05-02T06:54:16.239Z</time></trkpt><trkpt lat="44.5020019" lon="10.8296276"><ele>225.66666666666669</ele><time>2026-05-02T06:54:17.231Z</time></trkpt><trkpt lat="44.502038" lon="10.8297439"><ele>226.0</ele><time>2026-05-02T06:54:18.219Z</time></trkpt><trkpt lat="44.5020826" lon="10.8298443"><ele>226.33333333333334</ele><time>2026-05-02T06:54:19.242Z</time></trkpt><trkpt lat="44.5021431" lon="10.8299193"><ele>226.66666666666669</ele><time>2026-05-02T06:54:20.232Z</time></trkpt><trkpt lat="44.5022182" lon="10.8299694"><ele>227.0</ele><time>2026-05-02T06:54:21.204Z</time></trkpt><trkpt lat="44.5023049" lon="10.8299943"><ele>224.50000000000003</ele><time>2026-05-02T06:54:22.207Z</time></trkpt><trkpt lat="44.5023963" lon="10.8299991"><ele>222.0</ele><time>2026-05-02T06:54:23.228Z</time></trkpt><trkpt lat="44.5024914" lon="10.8299988"><ele>219.5</ele><time>2026-05-02T06:54:24.227Z</time></trkpt><trkpt lat="44.5025839" lon="10.8300039"><ele>217.0</ele><time>2026-05-02T06:54:25.223Z</time></trkpt><trkpt lat="44.5026658" lon="10.8300008"><ele>214.50000000000003</ele><time>2026-05-02T06:54:26.223Z</time></trkpt><trkpt lat="44.5027451" lon="10.8299987"><ele>212.0</ele><time>2026-05-02T06:54:27.224Z</time></trkpt><trkpt lat="44.5028079" lon="10.8299294"><ele>212.00000000000003</ele><time>2026-05-02T06:54:28.207Z</time></trkpt><trkpt lat="44.5028687" lon="10.8298542"><ele>212.0</ele><time>2026-05-02T06:54:29.211Z</time></trkpt><trkpt lat="44.5028982" lon="10.8297321"><ele>212.0</ele><time>2026-05-02T06:54:30.202Z</time></trkpt><trkpt lat="44.5029232" lon="10.8296141"><ele>212.0</ele><time>2026-05-02T06:54:31.217Z</time></trkpt><trkpt lat="44.50298" lon="10.8295214"><ele>212.00000000000003</ele><time>2026-05-02T06:54:32.222Z</time></trkpt><trkpt lat="44.5030353" lon="10.8294365"><ele>212.0</ele><time>2026-05-02T06:54:33.19Z</time></trkpt><trkpt lat="44.5031155" lon="10.8294002"><ele>210.0</ele><time>2026-05-02T06:54:34.239Z</time></trkpt><trkpt lat="44.5032068" lon="10.8293782"><ele>208.0</ele><time>2026-05-02T06:54:35.231Z</time></trkpt><trkpt lat="44.503301" lon="10.8293701"><ele>206.0</ele><time>2026-05-02T06:54:36.225Z</time></trkpt><trkpt lat="44.5033991" lon="10.8293752"><ele>204.0</ele><time>2026-05-02T06:54:37.253Z</time></trkpt><trkpt lat="44.5034944" lon="10.8293938"><ele>202.0</ele><time>2026-05-02T06:54:38.236Z</time></trkpt><trkpt lat="44.503585" lon="10.829418"><ele>202.0</ele><time>2026-05-02T06:54:39.207Z</time></trkpt><trkpt lat="44.5036755" lon="10.8294235"><ele>202.0</ele><time>2026-05-02T06:54:40.224Z</time></trkpt><trkpt lat="44.5037677" lon="10.8294003"><ele>202.0</ele><time>2026-05-02T06:54:41.273Z</time></trkpt><trkpt lat="44.5038615" lon="10.8293744"><ele>202.0</ele><time>2026-05-02T06:54:42.215Z</time></trkpt><trkpt lat="44.5039479" lon="10.8293158"><ele>202.0</ele><time>2026-05-02T06:54:43.224Z</time></trkpt><trkpt lat="44.5040489" lon="10.8292529"><ele>199.6</ele><time>2026-05-02T06:54:44.231Z</time></trkpt><trkpt lat="44.5041463" lon="10.8291913"><ele>197.2</ele><time>2026-05-02T06:54:45.206Z</time></trkpt><trkpt lat="44.5042466" lon="10.8291275"><ele>194.8</ele><time>2026-05-02T06:54:46.236Z</time></trkpt><trkpt lat="44.5043509" lon="10.8290609"><ele>192.4</ele><time>2026-05-02T06:54:47.221Z</time></trkpt><trkpt lat="44.5044563" lon="10.8289873"><ele>190.0</ele><time>2026-05-02T06:54:48.224Z</time></trkpt><trkpt lat="44.5045622" lon="10.8289118"><ele>187.8</ele><time>2026-05-02T06:54:49.22Z</time></trkpt><trkpt lat="44.504671" lon="10.8288303"><ele>185.6</ele><time>2026-05-02T06:54:50.24Z</time></trkpt><trkpt lat="44.5047706" lon="10.8287482"><ele>183.39999999999998</ele><time>2026-05-02T06:54:51.221Z</time></trkpt><trkpt lat="44.504863" lon="10.8286761"><ele>181.2</ele><time>2026-05-02T06:54:52.227Z</time></trkpt><trkpt lat="44.5049503" lon="10.8285986"><ele>179.0</ele><time>2026-05-02T06:54:53.223Z</time></trkpt><trkpt lat="44.5050263" lon="10.8285196"><ele>179.0</ele><time>2026-05-02T06:54:54.229Z</time></trkpt><trkpt lat="44.5050858" lon="10.8284425"><ele>179.0</ele><time>2026-05-02T06:54:55.233Z</time></trkpt><trkpt lat="44.5051611" lon="10.8283431"><ele>179.0</ele><time>2026-05-02T06:54:57.225Z</time></trkpt><trkpt lat="44.5052189" lon="10.8282802"><ele>179.0</ele><time>2026-05-02T06:55:00.207Z</time></trkpt><trkpt lat="44.5052263" lon="10.8281829"><ele>179.0</ele><time>2026-05-02T06:55:03.219Z</time></trkpt><trkpt lat="44.5051421" lon="10.8280789"><ele>179.0</ele><time>2026-05-02T06:55:05.215Z</time></trkpt><trkpt lat="44.5050781" lon="10.8280007"><ele>179.0</ele><time>2026-05-02T06:55:06.207Z</time></trkpt><trkpt lat="44.50501" lon="10.8279143"><ele>179.0</ele><time>2026-05-02T06:55:07.212Z</time></trkpt><trkpt lat="44.5049384" lon="10.827825"><ele>179.0</ele><time>2026-05-02T06:55:08.218Z</time></trkpt><trkpt lat="44.5048514" lon="10.8277272"><ele>179.0</ele><time>2026-05-02T06:55:09.202Z</time></trkpt><trkpt lat="44.5047678" lon="10.8276301"><ele>179.0</ele><time>2026-05-02T06:55:10.261Z</time></trkpt><trkpt lat="44.5046863" lon="10.827532"><ele>178.39999999999998</ele><time>2026-05-02T06:55:11.204Z</time></trkpt><trkpt lat="44.5046054" lon="10.8274359"><ele>177.8</ele><time>2026-05-02T06:55:12.207Z</time></trkpt><trkpt lat="44.5045343" lon="10.8273429"><ele>177.2</ele><time>2026-05-02T06:55:13.23Z</time></trkpt><trkpt lat="44.5044695" lon="10.8272418"><ele>176.60000000000002</ele><time>2026-05-02T06:55:14.235Z</time></trkpt><trkpt lat="44.5044165" lon="10.8271215"><ele>176.0</ele><time>2026-05-02T06:55:15.248Z</time></trkpt><trkpt lat="44.5043749" lon="10.8269793"><ele>177.5</ele><time>2026-05-02T06:55:16.212Z</time></trkpt><trkpt lat="44.5043386" lon="10.8268241"><ele>179.0</ele><time>2026-05-02T06:55:17.22Z</time></trkpt><trkpt lat="44.5043022" lon="10.8266667"><ele>180.5</ele><time>2026-05-02T06:55:18.226Z</time></trkpt><trkpt lat="44.5042673" lon="10.8265211"><ele>182.0</ele><time>2026-05-02T06:55:19.22Z</time></trkpt><trkpt lat="44.5042313" lon="10.8263803"><ele>182.0</ele><time>2026-05-02T06:55:20.244Z</time></trkpt><trkpt lat="44.5041966" lon="10.8262457"><ele>182.0</ele><time>2026-05-02T06:55:21.209Z</time></trkpt><trkpt lat="44.5041659" lon="10.8261161"><ele>182.0</ele><time>2026-05-02T06:55:22.234Z</time></trkpt><trkpt lat="44.504134" lon="10.8259768"><ele>182.0</ele><time>2026-05-02T06:55:23.216Z</time></trkpt><trkpt lat="44.5041031" lon="10.8258371"><ele>182.0</ele><time>2026-05-02T06:55:24.23Z</time></trkpt><trkpt lat="44.5040733" lon="10.825706"><ele>181.8</ele><time>2026-05-02T06:55:25.242Z</time></trkpt><trkpt lat="44.5040373" lon="10.8255897"><ele>181.6</ele><time>2026-05-02T06:55:26.262Z</time></trkpt><trkpt lat="44.5040022" lon="10.8254828"><ele>181.4</ele><time>2026-05-02T06:55:27.215Z</time></trkpt><trkpt lat="44.5039328" lon="10.8254049"><ele>181.20000000000002</ele><time>2026-05-02T06:55:28.175Z</time></trkpt><trkpt lat="44.5038487" lon="10.8253409"><ele>181.0</ele><time>2026-05-02T06:55:29.221Z</time></trkpt><trkpt lat="44.5037593" lon="10.8252845"><ele>181.0</ele><time>2026-05-02T06:55:30.221Z</time></trkpt><trkpt lat="44.5036659" lon="10.8252267"><ele>181.0</ele><time>2026-05-02T06:55:31.237Z</time></trkpt><trkpt lat="44.5035675" lon="10.8251614"><ele>181.0</ele><time>2026-05-02T06:55:32.271Z</time></trkpt><trkpt lat="44.5034641" lon="10.8250903"><ele>181.0</ele><time>2026-05-02T06:55:33.197Z</time></trkpt><trkpt lat="44.5033613" lon="10.8250124"><ele>181.0</ele><time>2026-05-02T06:55:34.237Z</time></trkpt><trkpt lat="44.5032648" lon="10.8249395"><ele>181.0</ele><time>2026-05-02T06:55:35.229Z</time></trkpt><trkpt lat="44.5031748" lon="10.8248684"><ele>181.0</ele><time>2026-05-02T06:55:36.218Z</time></trkpt><trkpt lat="44.5030878" lon="10.8247944"><ele>181.0</ele><time>2026-05-02T06:55:37.208Z</time></trkpt><trkpt lat="44.503" lon="10.8247191"><ele>181.0</ele><time>2026-05-02T06:55:38.253Z</time></trkpt><trkpt lat="44.5029179" lon="10.8246418"><ele>181.0</ele><time>2026-05-02T06:55:39.205Z</time></trkpt><trkpt lat="44.5028447" lon="10.8245589"><ele>181.5</ele><time>2026-05-02T06:55:40.206Z</time></trkpt><trkpt lat="44.5027798" lon="10.8244741"><ele>182.0</ele><time>2026-05-02T06:55:41.223Z</time></trkpt><trkpt lat="44.5027259" lon="10.8243865"><ele>182.5</ele><time>2026-05-02T06:55:42.234Z</time></trkpt><trkpt lat="44.5026761" lon="10.8243067"><ele>183.0</ele><time>2026-05-02T06:55:43.225Z</time></trkpt><trkpt lat="44.5026475" lon="10.8242215"><ele>183.5</ele><time>2026-05-02T06:55:44.185Z</time></trkpt><trkpt lat="44.5026709" lon="10.8241352"><ele>184.0</ele><time>2026-05-02T06:55:45.226Z</time></trkpt><trkpt lat="44.5026971" lon="10.8240386"><ele>184.0</ele><time>2026-05-02T06:55:46.225Z</time></trkpt><trkpt lat="44.5027574" lon="10.8239429"><ele>184.0</ele><time>2026-05-02T06:55:47.214Z</time></trkpt><trkpt lat="44.5028237" lon="10.8238462"><ele>184.0</ele><time>2026-05-02T06:55:48.222Z</time></trkpt><trkpt lat="44.5028864" lon="10.8237542"><ele>184.0</ele><time>2026-05-02T06:55:49.216Z</time></trkpt><trkpt lat="44.5029446" lon="10.8236699"><ele>184.0</ele><time>2026-05-02T06:55:50.274Z</time></trkpt><trkpt lat="44.5029929" lon="10.8235796"><ele>184.0</ele><time>2026-05-02T06:55:51.202Z</time></trkpt><trkpt lat="44.503037" lon="10.8234804"><ele>183.39999999999998</ele><time>2026-05-02T06:55:52.201Z</time></trkpt><trkpt lat="44.5030538" lon="10.8233565"><ele>182.8</ele><time>2026-05-02T06:55:53.224Z</time></trkpt><trkpt lat="44.503042" lon="10.8232223"><ele>182.2</ele><time>2026-05-02T06:55:54.235Z</time></trkpt><trkpt lat="44.503013" lon="10.8230825"><ele>181.60000000000002</ele><time>2026-05-02T06:55:55.213Z</time></trkpt><trkpt lat="44.5029868" lon="10.8229402"><ele>181.0</ele><time>2026-05-02T06:55:56.215Z</time></trkpt><trkpt lat="44.5029652" lon="10.8227943"><ele>181.4</ele><time>2026-05-02T06:55:57.193Z</time></trkpt><trkpt lat="44.5029436" lon="10.8226434"><ele>181.8</ele><time>2026-05-02T06:55:58.216Z</time></trkpt><trkpt lat="44.5029225" lon="10.8224862"><ele>182.20000000000002</ele><time>2026-05-02T06:55:59.205Z</time></trkpt><trkpt lat="44.5029017" lon="10.8223383"><ele>182.60000000000002</ele><time>2026-05-02T06:56:00.207Z</time></trkpt><trkpt lat="44.5028813" lon="10.8221948"><ele>183.0</ele><time>2026-05-02T06:56:01.217Z</time></trkpt><trkpt lat="44.5028601" lon="10.822071"><ele>183.0</ele><time>2026-05-02T06:56:02.277Z</time></trkpt><trkpt lat="44.5028402" lon="10.8219513"><ele>183.0</ele><time>2026-05-02T06:56:03.199Z</time></trkpt><trkpt lat="44.5028226" lon="10.8218303"><ele>183.0</ele><time>2026-05-02T06:56:04.225Z</time></trkpt><trkpt lat="44.5028046" lon="10.8217048"><ele>183.0</ele><time>2026-05-02T06:56:05.206Z</time></trkpt><trkpt lat="44.5027869" lon="10.8215871"><ele>183.0</ele><time>2026-05-02T06:56:06.218Z</time></trkpt><trkpt lat="44.5027719" lon="10.821459"><ele>183.0</ele><time>2026-05-02T06:56:07.232Z</time></trkpt><trkpt lat="44.5027639" lon="10.8213218"><ele>183.4</ele><time>2026-05-02T06:56:08.257Z</time></trkpt><trkpt lat="44.5027677" lon="10.8211754"><ele>183.8</ele><time>2026-05-02T06:56:09.191Z</time></trkpt><trkpt lat="44.5027817" lon="10.8210155"><ele>184.2</ele><time>2026-05-02T06:56:10.187Z</time></trkpt><trkpt lat="44.5028021" lon="10.8208522"><ele>184.6</ele><time>2026-05-02T06:56:11.223Z</time></trkpt><trkpt lat="44.5028199" lon="10.8207021"><ele>185.0</ele><time>2026-05-02T06:56:12.214Z</time></trkpt><trkpt lat="44.5028318" lon="10.8205549"><ele>185.2</ele><time>2026-05-02T06:56:13.216Z</time></trkpt><trkpt lat="44.5028368" lon="10.8204076"><ele>185.4</ele><time>2026-05-02T06:56:14.258Z</time></trkpt><trkpt lat="44.5028382" lon="10.8202618"><ele>185.60000000000002</ele><time>2026-05-02T06:56:15.228Z</time></trkpt><trkpt lat="44.5028383" lon="10.8201216"><ele>185.8</ele><time>2026-05-02T06:56:16.234Z</time></trkpt><trkpt lat="44.5028273" lon="10.8199826"><ele>186.0</ele><time>2026-05-02T06:56:17.22Z</time></trkpt><trkpt lat="44.5028091" lon="10.8198504"><ele>186.83333333333334</ele><time>2026-05-02T06:56:18.217Z</time></trkpt><trkpt lat="44.5027897" lon="10.8197197"><ele>187.66666666666666</ele><time>2026-05-02T06:56:19.229Z</time></trkpt><trkpt lat="44.5027607" lon="10.8195943"><ele>188.5</ele><time>2026-05-02T06:56:20.225Z</time></trkpt><trkpt lat="44.5027352" lon="10.8194778"><ele>189.33333333333331</ele><time>2026-05-02T06:56:21.195Z</time></trkpt><trkpt lat="44.502711" lon="10.8193649"><ele>190.16666666666666</ele><time>2026-05-02T06:56:22.199Z</time></trkpt><trkpt lat="44.502686" lon="10.8192454"><ele>191.0</ele><time>2026-05-02T06:56:23.226Z</time></trkpt><trkpt lat="44.5026614" lon="10.8191176"><ele>191.60000000000002</ele><time>2026-05-02T06:56:24.225Z</time></trkpt><trkpt lat="44.5026338" lon="10.8189812"><ele>192.2</ele><time>2026-05-02T06:56:25.218Z</time></trkpt><trkpt lat="44.5025871" lon="10.8188455"><ele>192.8</ele><time>2026-05-02T06:56:26.23Z</time></trkpt><trkpt lat="44.5025353" lon="10.8187208"><ele>193.39999999999998</ele><time>2026-05-02T06:56:27.216Z</time></trkpt><trkpt lat="44.5024827" lon="10.8185958"><ele>194.0</ele><time>2026-05-02T06:56:28.184Z</time></trkpt><trkpt lat="44.5024352" lon="10.8184706"><ele>194.2</ele><time>2026-05-02T06:56:29.22Z</time></trkpt><trkpt lat="44.5023881" lon="10.8183461"><ele>194.39999999999998</ele><time>2026-05-02T06:56:30.194Z</time></trkpt><trkpt lat="44.5023442" lon="10.8182214"><ele>194.6</ele><time>2026-05-02T06:56:31.228Z</time></trkpt><trkpt lat="44.5022963" lon="10.8181009"><ele>194.8</ele><time>2026-05-02T06:56:32.206Z</time></trkpt><trkpt lat="44.5022469" lon="10.8179706"><ele>195.0</ele><time>2026-05-02T06:56:33.208Z</time></trkpt><trkpt lat="44.5021987" lon="10.8178182"><ele>195.0</ele><time>2026-05-02T06:56:34.219Z</time></trkpt><trkpt lat="44.5021509" lon="10.8176612"><ele>195.0</ele><time>2026-05-02T06:56:35.23Z</time></trkpt><trkpt lat="44.5021015" lon="10.8175041"><ele>195.0</ele><time>2026-05-02T06:56:36.207Z</time></trkpt><trkpt lat="44.5020494" lon="10.8173436"><ele>195.0</ele><time>2026-05-02T06:56:37.224Z</time></trkpt><trkpt lat="44.5019986" lon="10.8171953"><ele>194.75</ele><time>2026-05-02T06:56:38.218Z</time></trkpt><trkpt lat="44.5019512" lon="10.8170491"><ele>194.5</ele><time>2026-05-02T06:56:39.219Z</time></trkpt><trkpt lat="44.5019041" lon="10.8169046"><ele>194.25</ele><time>2026-05-02T06:56:40.217Z</time></trkpt><trkpt lat="44.5018555" lon="10.8167589"><ele>194.0</ele><time>2026-05-02T06:56:41.241Z</time></trkpt><trkpt lat="44.5018067" lon="10.8166118"><ele>194.0</ele><time>2026-05-02T06:56:42.293Z</time></trkpt><trkpt lat="44.5017556" lon="10.816464"><ele>194.0</ele><time>2026-05-02T06:56:43.231Z</time></trkpt><trkpt lat="44.5017026" lon="10.8163078"><ele>194.0</ele><time>2026-05-02T06:56:44.212Z</time></trkpt><trkpt lat="44.5016483" lon="10.8161479"><ele>194.0</ele><time>2026-05-02T06:56:45.198Z</time></trkpt><trkpt lat="44.5015881" lon="10.8159862"><ele>194.5</ele><time>2026-05-02T06:56:46.203Z</time></trkpt><trkpt lat="44.5015176" lon="10.8158395"><ele>195.0</ele><time>2026-05-02T06:56:47.2Z</time></trkpt><trkpt lat="44.5014433" lon="10.815708"><ele>195.5</ele><time>2026-05-02T06:56:48.205Z</time></trkpt><trkpt lat="44.5013638" lon="10.8155869"><ele>196.0</ele><time>2026-05-02T06:56:49.21Z</time></trkpt><trkpt lat="44.5012795" lon="10.8154673"><ele>196.0</ele><time>2026-05-02T06:56:50.229Z</time></trkpt><trkpt lat="44.5011943" lon="10.8153423"><ele>196.0</ele><time>2026-05-02T06:56:51.237Z</time></trkpt><trkpt lat="44.5011074" lon="10.815214"><ele>196.0</ele><time>2026-05-02T06:56:52.207Z</time></trkpt><trkpt lat="44.5010179" lon="10.8150818"><ele>196.0</ele><time>2026-05-02T06:56:53.224Z</time></trkpt><trkpt lat="44.5009222" lon="10.8149458"><ele>196.25</ele><time>2026-05-02T06:56:54.267Z</time></trkpt><trkpt lat="44.5008257" lon="10.8148103"><ele>196.5</ele><time>2026-05-02T06:56:55.216Z</time></trkpt><trkpt lat="44.5007289" lon="10.8146778"><ele>196.75</ele><time>2026-05-02T06:56:56.2Z</time></trkpt><trkpt lat="44.5006343" lon="10.8145496"><ele>197.0</ele><time>2026-05-02T06:56:57.225Z</time></trkpt><trkpt lat="44.5005454" lon="10.814426"><ele>197.25</ele><time>2026-05-02T06:56:58.226Z</time></trkpt><trkpt lat="44.5004592" lon="10.814305"><ele>197.5</ele><time>2026-05-02T06:56:59.215Z</time></trkpt><trkpt lat="44.5003715" lon="10.8141861"><ele>197.75</ele><time>2026-05-02T06:57:00.215Z</time></trkpt><trkpt lat="44.5002839" lon="10.8140646"><ele>198.0</ele><time>2026-05-02T06:57:01.222Z</time></trkpt><trkpt lat="44.5001973" lon="10.8139389"><ele>198.25</ele><time>2026-05-02T06:57:02.21Z</time></trkpt><trkpt lat="44.5001098" lon="10.8138144"><ele>198.5</ele><time>2026-05-02T06:57:03.221Z</time></trkpt><trkpt lat="44.5000248" lon="10.8136934"><ele>198.75</ele><time>2026-05-02T06:57:04.207Z</time></trkpt><trkpt lat="44.49994" lon="10.8135739"><ele>199.0</ele><time>2026-05-02T06:57:05.223Z</time></trkpt><trkpt lat="44.4998531" lon="10.8134544"><ele>199.0</ele><time>2026-05-02T06:57:06.243Z</time></trkpt><trkpt lat="44.4997701" lon="10.8133392"><ele>199.0</ele><time>2026-05-02T06:57:07.213Z</time></trkpt><trkpt lat="44.4996893" lon="10.8132278"><ele>199.0</ele><time>2026-05-02T06:57:08.227Z</time></trkpt><trkpt lat="44.4996085" lon="10.8131192"><ele>199.0</ele><time>2026-05-02T06:57:09.232Z</time></trkpt><trkpt lat="44.4995285" lon="10.8130108"><ele>199.25</ele><time>2026-05-02T06:57:10.223Z</time></trkpt><trkpt lat="44.4994482" lon="10.8129005"><ele>199.5</ele><time>2026-05-02T06:57:11.218Z</time></trkpt><trkpt lat="44.4993684" lon="10.8127877"><ele>199.75</ele><time>2026-05-02T06:57:12.236Z</time></trkpt><trkpt lat="44.499292" lon="10.81267"><ele>200.0</ele><time>2026-05-02T06:57:13.246Z</time></trkpt><trkpt lat="44.4992209" lon="10.8125454"><ele>200.2</ele><time>2026-05-02T06:57:14.229Z</time></trkpt><trkpt lat="44.4991575" lon="10.812414"><ele>200.4</ele><time>2026-05-02T06:57:15.219Z</time></trkpt><trkpt lat="44.4990983" lon="10.8122795"><ele>200.60000000000002</ele><time>2026-05-02T06:57:16.225Z</time></trkpt><trkpt lat="44.4990424" lon="10.8121455"><ele>200.8</ele><time>2026-05-02T06:57:17.288Z</time></trkpt><trkpt lat="44.4989876" lon="10.8120146"><ele>201.0</ele><time>2026-05-02T06:57:18.226Z</time></trkpt><trkpt lat="44.4989304" lon="10.8118872"><ele>201.0</ele><time>2026-05-02T06:57:19.251Z</time></trkpt><trkpt lat="44.4988722" lon="10.8117585"><ele>201.0</ele><time>2026-05-02T06:57:20.211Z</time></trkpt><trkpt lat="44.4988135" lon="10.8116248"><ele>201.0</ele><time>2026-05-02T06:57:21.234Z</time></trkpt><trkpt lat="44.4987529" lon="10.811484"><ele>201.0</ele><time>2026-05-02T06:57:22.197Z</time></trkpt><trkpt lat="44.4986917" lon="10.8113426"><ele>200.75</ele><time>2026-05-02T06:57:23.223Z</time></trkpt><trkpt lat="44.4986294" lon="10.8112039"><ele>200.5</ele><time>2026-05-02T06:57:24.237Z</time></trkpt><trkpt lat="44.498569" lon="10.8110699"><ele>200.25</ele><time>2026-05-02T06:57:25.222Z</time></trkpt><trkpt lat="44.4985078" lon="10.8109397"><ele>200.0</ele><time>2026-05-02T06:57:26.219Z</time></trkpt><trkpt lat="44.4984425" lon="10.8108149"><ele>200.0</ele><time>2026-05-02T06:57:27.189Z</time></trkpt><trkpt lat="44.4983709" lon="10.810693"><ele>200.0</ele><time>2026-05-02T06:57:28.218Z</time></trkpt><trkpt lat="44.4982958" lon="10.8105711"><ele>200.0</ele><time>2026-05-02T06:57:29.215Z</time></trkpt><trkpt lat="44.4982196" lon="10.8104498"><ele>200.0</ele><time>2026-05-02T06:57:30.18Z</time></trkpt><trkpt lat="44.4981411" lon="10.8103306"><ele>200.0</ele><time>2026-05-02T06:57:31.221Z</time></trkpt><trkpt lat="44.4980611" lon="10.810213"><ele>200.0</ele><time>2026-05-02T06:57:32.237Z</time></trkpt><trkpt lat="44.4979808" lon="10.8100937"><ele>200.0</ele><time>2026-05-02T06:57:33.218Z</time></trkpt><trkpt lat="44.4979007" lon="10.8099757"><ele>200.0</ele><time>2026-05-02T06:57:34.215Z</time></trkpt><trkpt lat="44.4978235" lon="10.8098578"><ele>201.2</ele><time>2026-05-02T06:57:35.244Z</time></trkpt><trkpt lat="44.497747" lon="10.8097421"><ele>202.4</ele><time>2026-05-02T06:57:36.184Z</time></trkpt><trkpt lat="44.497672" lon="10.8096298"><ele>203.60000000000002</ele><time>2026-05-02T06:57:37.17Z</time></trkpt><trkpt lat="44.4975981" lon="10.8095219"><ele>204.8</ele><time>2026-05-02T06:57:38.163Z</time></trkpt><trkpt lat="44.4975236" lon="10.8094138"><ele>206.0</ele><time>2026-05-02T06:57:39.176Z</time></trkpt><trkpt lat="44.4974436" lon="10.8093066"><ele>206.0</ele><time>2026-05-02T06:57:40.17Z</time></trkpt><trkpt lat="44.4973569" lon="10.8092037"><ele>206.0</ele><time>2026-05-02T06:57:41.204Z</time></trkpt><trkpt lat="44.4972683" lon="10.809104"><ele>206.0</ele><time>2026-05-02T06:57:42.203Z</time></trkpt><trkpt lat="44.4971752" lon="10.8090089"><ele>206.0</ele><time>2026-05-02T06:57:43.198Z</time></trkpt><trkpt lat="44.4970781" lon="10.808919"><ele>206.0</ele><time>2026-05-02T06:57:44.223Z</time></trkpt><trkpt lat="44.496978" lon="10.8088312"><ele>206.0</ele><time>2026-05-02T06:57:45.211Z</time></trkpt><trkpt lat="44.4968764" lon="10.8087398"><ele>206.0</ele><time>2026-05-02T06:57:46.212Z</time></trkpt><trkpt lat="44.4967757" lon="10.8086463"><ele>206.0</ele><time>2026-05-02T06:57:47.217Z</time></trkpt><trkpt lat="44.4966766" lon="10.8085549"><ele>206.25</ele><time>2026-05-02T06:57:48.227Z</time></trkpt><trkpt lat="44.4965779" lon="10.8084661"><ele>206.5</ele><time>2026-05-02T06:57:49.228Z</time></trkpt><trkpt lat="44.4964807" lon="10.8083787"><ele>206.75</ele><time>2026-05-02T06:57:50.23Z</time></trkpt><trkpt lat="44.4963855" lon="10.8082932"><ele>207.0</ele><time>2026-05-02T06:57:51.27Z</time></trkpt><trkpt lat="44.4962934" lon="10.8082121"><ele>207.0</ele><time>2026-05-02T06:57:52.23Z</time></trkpt><trkpt lat="44.4962043" lon="10.8081315"><ele>207.0</ele><time>2026-05-02T06:57:53.196Z</time></trkpt><trkpt lat="44.4961174" lon="10.8080486"><ele>207.0</ele><time>2026-05-02T06:57:54.211Z</time></trkpt><trkpt lat="44.4960307" lon="10.8079627"><ele>207.0</ele><time>2026-05-02T06:57:55.235Z</time></trkpt><trkpt lat="44.4959441" lon="10.8078781"><ele>207.0</ele><time>2026-05-02T06:57:56.233Z</time></trkpt><trkpt lat="44.4958554" lon="10.8077967"><ele>207.0</ele><time>2026-05-02T06:57:57.195Z</time></trkpt><trkpt lat="44.4957638" lon="10.8077124"><ele>207.0</ele><time>2026-05-02T06:57:58.232Z</time></trkpt><trkpt lat="44.4956693" lon="10.8076248"><ele>207.0</ele><time>2026-05-02T06:57:59.228Z</time></trkpt><trkpt lat="44.4955741" lon="10.8075361"><ele>207.0</ele><time>2026-05-02T06:58:00.208Z</time></trkpt><trkpt lat="44.4954791" lon="10.807448"><ele>208.0</ele><time>2026-05-02T06:58:01.222Z</time></trkpt><trkpt lat="44.4953837" lon="10.8073604"><ele>209.0</ele><time>2026-05-02T06:58:02.216Z</time></trkpt><trkpt lat="44.4952886" lon="10.807273"><ele>210.0</ele><time>2026-05-02T06:58:03.215Z</time></trkpt><trkpt lat="44.495194" lon="10.807186"><ele>211.0</ele><time>2026-05-02T06:58:04.213Z</time></trkpt><trkpt lat="44.4951001" lon="10.8071002"><ele>211.0</ele><time>2026-05-02T06:58:05.21Z</time></trkpt><trkpt lat="44.4950064" lon="10.8070186"><ele>211.0</ele><time>2026-05-02T06:58:06.217Z</time></trkpt><trkpt lat="44.4949099" lon="10.8069447"><ele>211.0</ele><time>2026-05-02T06:58:07.203Z</time></trkpt><trkpt lat="44.4948119" lon="10.8068753"><ele>211.0</ele><time>2026-05-02T06:58:08.224Z</time></trkpt><trkpt lat="44.4947153" lon="10.8068062"><ele>211.0</ele><time>2026-05-02T06:58:09.262Z</time></trkpt><trkpt lat="44.494618" lon="10.8067389"><ele>211.0</ele><time>2026-05-02T06:58:10.209Z</time></trkpt><trkpt lat="44.4945197" lon="10.8066688"><ele>211.0</ele><time>2026-05-02T06:58:11.216Z</time></trkpt><trkpt lat="44.4944207" lon="10.806596"><ele>211.0</ele><time>2026-05-02T06:58:12.21Z</time></trkpt><trkpt lat="44.4943229" lon="10.8065169"><ele>211.0</ele><time>2026-05-02T06:58:13.23Z</time></trkpt><trkpt lat="44.4942238" lon="10.8064352"><ele>211.0</ele><time>2026-05-02T06:58:14.218Z</time></trkpt><trkpt lat="44.4941244" lon="10.8063512"><ele>211.0</ele><time>2026-05-02T06:58:15.214Z</time></trkpt><trkpt lat="44.4940259" lon="10.8062637"><ele>211.0</ele><time>2026-05-02T06:58:16.227Z</time></trkpt><trkpt lat="44.4939283" lon="10.8061739"><ele>211.0</ele><time>2026-05-02T06:58:17.243Z</time></trkpt><trkpt lat="44.4938298" lon="10.8060852"><ele>211.75</ele><time>2026-05-02T06:58:18.218Z</time></trkpt><trkpt lat="44.493732" lon="10.8059975"><ele>212.5</ele><time>2026-05-02T06:58:19.241Z</time></trkpt><trkpt lat="44.4936355" lon="10.8059074"><ele>213.25</ele><time>2026-05-02T06:58:20.219Z</time></trkpt><trkpt lat="44.4935396" lon="10.8058158"><ele>214.0</ele><time>2026-05-02T06:58:21.23Z</time></trkpt><trkpt lat="44.4934438" lon="10.8057244"><ele>214.0</ele><time>2026-05-02T06:58:22.237Z</time></trkpt><trkpt lat="44.493349" lon="10.8056352"><ele>214.0</ele><time>2026-05-02T06:58:23.237Z</time></trkpt><trkpt lat="44.4932562" lon="10.8055486"><ele>214.0</ele><time>2026-05-02T06:58:24.23Z</time></trkpt><trkpt lat="44.4931642" lon="10.805462"><ele>214.0</ele><time>2026-05-02T06:58:25.201Z</time></trkpt><trkpt lat="44.4930685" lon="10.8053776"><ele>214.0</ele><time>2026-05-02T06:58:26.226Z</time></trkpt><trkpt lat="44.4929721" lon="10.8052928"><ele>213.99999999999997</ele><time>2026-05-02T06:58:27.219Z</time></trkpt><trkpt lat="44.4928806" lon="10.8052102"><ele>213.99999999999997</ele><time>2026-05-02T06:58:28.209Z</time></trkpt><trkpt lat="44.4927864" lon="10.8051259"><ele>214.0</ele><time>2026-05-02T06:58:29.232Z</time></trkpt><trkpt lat="44.4926927" lon="10.8050349"><ele>214.0</ele><time>2026-05-02T06:58:30.197Z</time></trkpt><trkpt lat="44.4926068" lon="10.8049422"><ele>214.2</ele><time>2026-05-02T06:58:31.205Z</time></trkpt><trkpt lat="44.492525" lon="10.804839"><ele>214.39999999999998</ele><time>2026-05-02T06:58:32.174Z</time></trkpt><trkpt lat="44.4924459" lon="10.8047266"><ele>214.6</ele><time>2026-05-02T06:58:33.181Z</time></trkpt><trkpt lat="44.4923752" lon="10.8046184"><ele>214.8</ele><time>2026-05-02T06:58:34.219Z</time></trkpt><trkpt lat="44.4923088" lon="10.8045192"><ele>215.0</ele><time>2026-05-02T06:58:35.213Z</time></trkpt><trkpt lat="44.4922446" lon="10.8044335"><ele>215.00000000000003</ele><time>2026-05-02T06:58:36.196Z</time></trkpt><trkpt lat="44.4921796" lon="10.8043707"><ele>215.0</ele><time>2026-05-02T06:58:37.217Z</time></trkpt><trkpt lat="44.4921123" lon="10.8043463"><ele>215.0</ele><time>2026-05-02T06:58:38.243Z</time></trkpt><trkpt lat="44.4920485" lon="10.8043619"><ele>215.0</ele><time>2026-05-02T06:58:39.211Z</time></trkpt><trkpt lat="44.4919386" lon="10.8044426"><ele>215.00000000000003</ele><time>2026-05-02T06:58:41.169Z</time></trkpt><trkpt lat="44.4918509" lon="10.8044861"><ele>215.0</ele><time>2026-05-02T06:58:43.212Z</time></trkpt><trkpt lat="44.4917671" lon="10.8043619"><ele>215.83333333333334</ele><time>2026-05-02T06:58:45.223Z</time></trkpt><trkpt lat="44.4917233" lon="10.8042561"><ele>216.66666666666669</ele><time>2026-05-02T06:58:46.228Z</time></trkpt><trkpt lat="44.4916801" lon="10.8041534"><ele>217.5</ele><time>2026-05-02T06:58:47.197Z</time></trkpt><trkpt lat="44.4916404" lon="10.8040566"><ele>218.33333333333331</ele><time>2026-05-02T06:58:48.229Z</time></trkpt><trkpt lat="44.4915989" lon="10.8039558"><ele>219.16666666666666</ele><time>2026-05-02T06:58:49.203Z</time></trkpt><trkpt lat="44.4915564" lon="10.8038429"><ele>220.0</ele><time>2026-05-02T06:58:50.27Z</time></trkpt><trkpt lat="44.4915237" lon="10.8037241"><ele>220.0</ele><time>2026-05-02T06:58:51.209Z</time></trkpt><trkpt lat="44.4915003" lon="10.803597"><ele>220.0</ele><time>2026-05-02T06:58:52.226Z</time></trkpt><trkpt lat="44.491489" lon="10.803473"><ele>220.0</ele><time>2026-05-02T06:58:53.233Z</time></trkpt><trkpt lat="44.491489" lon="10.8033433"><ele>220.0</ele><time>2026-05-02T06:58:54.216Z</time></trkpt><trkpt lat="44.4914942" lon="10.8032106"><ele>220.0</ele><time>2026-05-02T06:58:55.228Z</time></trkpt><trkpt lat="44.4915023" lon="10.803078"><ele>220.16666666666666</ele><time>2026-05-02T06:58:56.221Z</time></trkpt><trkpt lat="44.4915075" lon="10.8029466"><ele>220.33333333333331</ele><time>2026-05-02T06:58:57.221Z</time></trkpt><trkpt lat="44.4915083" lon="10.802824"><ele>220.5</ele><time>2026-05-02T06:58:58.205Z</time></trkpt><trkpt lat="44.491498" lon="10.8027071"><ele>220.66666666666669</ele><time>2026-05-02T06:58:59.218Z</time></trkpt><trkpt lat="44.4914745" lon="10.8025926"><ele>220.83333333333334</ele><time>2026-05-02T06:59:00.21Z</time></trkpt><trkpt lat="44.4914343" lon="10.8024864"><ele>221.0</ele><time>2026-05-02T06:59:01.226Z</time></trkpt><trkpt lat="44.4913854" lon="10.8023938"><ele>221.0</ele><time>2026-05-02T06:59:02.217Z</time></trkpt><trkpt lat="44.4913248" lon="10.80231"><ele>221.00000000000003</ele><time>2026-05-02T06:59:03.21Z</time></trkpt><trkpt lat="44.4912541" lon="10.8022304"><ele>221.00000000000003</ele><time>2026-05-02T06:59:04.219Z</time></trkpt><trkpt lat="44.4911801" lon="10.8021599"><ele>221.0</ele><time>2026-05-02T06:59:05.216Z</time></trkpt><trkpt lat="44.4910995" lon="10.8021006"><ele>221.0</ele><time>2026-05-02T06:59:06.223Z</time></trkpt><trkpt lat="44.4910097" lon="10.8020634"><ele>221.0</ele><time>2026-05-02T06:59:07.173Z</time></trkpt><trkpt lat="44.4909128" lon="10.8020467"><ele>221.00000000000003</ele><time>2026-05-02T06:59:08.219Z</time></trkpt><trkpt lat="44.4908133" lon="10.8020311"><ele>221.00000000000003</ele><time>2026-05-02T06:59:09.217Z</time></trkpt><trkpt lat="44.4907101" lon="10.8020357"><ele>221.0</ele><time>2026-05-02T06:59:10.227Z</time></trkpt><trkpt lat="44.4906109" lon="10.8020337"><ele>221.0</ele><time>2026-05-02T06:59:11.198Z</time></trkpt><trkpt lat="44.4905161" lon="10.8020348"><ele>222.0</ele><time>2026-05-02T06:59:12.23Z</time></trkpt><trkpt lat="44.4904145" lon="10.8020345"><ele>223.00000000000003</ele><time>2026-05-02T06:59:13.209Z</time></trkpt><trkpt lat="44.4903106" lon="10.8020388"><ele>224.00000000000003</ele><time>2026-05-02T06:59:14.194Z</time></trkpt><trkpt lat="44.4902058" lon="10.8020424"><ele>225.0</ele><time>2026-05-02T06:59:15.162Z</time></trkpt><trkpt lat="44.4901011" lon="10.8020554"><ele>226.0</ele><time>2026-05-02T06:59:16.175Z</time></trkpt><trkpt lat="44.4899929" lon="10.8020696"><ele>226.0</ele><time>2026-05-02T06:59:17.206Z</time></trkpt><trkpt lat="44.4898887" lon="10.8020848"><ele>226.00000000000003</ele><time>2026-05-02T06:59:18.281Z</time></trkpt><trkpt lat="44.48979" lon="10.8021034"><ele>226.00000000000003</ele><time>2026-05-02T06:59:19.221Z</time></trkpt><trkpt lat="44.489697" lon="10.8021189"><ele>226.0</ele><time>2026-05-02T06:59:20.212Z</time></trkpt><trkpt lat="44.4896075" lon="10.8021258"><ele>226.0</ele><time>2026-05-02T06:59:21.213Z</time></trkpt><trkpt lat="44.4895119" lon="10.8021278"><ele>226.20000000000002</ele><time>2026-05-02T06:59:22.226Z</time></trkpt><trkpt lat="44.4894146" lon="10.8021184"><ele>226.40000000000003</ele><time>2026-05-02T06:59:23.204Z</time></trkpt><trkpt lat="44.4893203" lon="10.8020915"><ele>226.6</ele><time>2026-05-02T06:59:24.211Z</time></trkpt><trkpt lat="44.4892305" lon="10.8020542"><ele>226.8</ele><time>2026-05-02T06:59:25.21Z</time></trkpt><trkpt lat="44.4891385" lon="10.8020188"><ele>227.0</ele><time>2026-05-02T06:59:26.224Z</time></trkpt><trkpt lat="44.4890474" lon="10.8019759"><ele>227.0</ele><time>2026-05-02T06:59:27.216Z</time></trkpt><trkpt lat="44.4889606" lon="10.8019178"><ele>227.0</ele><time>2026-05-02T06:59:28.221Z</time></trkpt><trkpt lat="44.4888773" lon="10.8018508"><ele>227.0</ele><time>2026-05-02T06:59:29.214Z</time></trkpt><trkpt lat="44.4888001" lon="10.8017848"><ele>227.0</ele><time>2026-05-02T06:59:30.206Z</time></trkpt><trkpt lat="44.4887236" lon="10.8017201"><ele>227.0</ele><time>2026-05-02T06:59:31.22Z</time></trkpt><trkpt lat="44.48865" lon="10.8016597"><ele>227.83333333333334</ele><time>2026-05-02T06:59:32.215Z</time></trkpt><trkpt lat="44.488577" lon="10.8016008"><ele>228.66666666666669</ele><time>2026-05-02T06:59:33.219Z</time></trkpt><trkpt lat="44.488508" lon="10.8015425"><ele>229.5</ele><time>2026-05-02T06:59:34.201Z</time></trkpt><trkpt lat="44.4884365" lon="10.8014847"><ele>230.33333333333331</ele><time>2026-05-02T06:59:35.226Z</time></trkpt><trkpt lat="44.4883651" lon="10.8014173"><ele>231.16666666666666</ele><time>2026-05-02T06:59:36.235Z</time></trkpt><trkpt lat="44.4882975" lon="10.8013354"><ele>232.0</ele><time>2026-05-02T06:59:37.234Z</time></trkpt><trkpt lat="44.4882276" lon="10.8012314"><ele>232.0</ele><time>2026-05-02T06:59:38.236Z</time></trkpt><trkpt lat="44.4881657" lon="10.8011218"><ele>232.0</ele><time>2026-05-02T06:59:39.25Z</time></trkpt><trkpt lat="44.4881053" lon="10.8010189"><ele>232.0</ele><time>2026-05-02T06:59:40.233Z</time></trkpt><trkpt lat="44.4880491" lon="10.8009211"><ele>232.0</ele><time>2026-05-02T06:59:41.21Z</time></trkpt><trkpt lat="44.4879871" lon="10.8008267"><ele>232.0</ele><time>2026-05-02T06:59:42.208Z</time></trkpt><trkpt lat="44.4879224" lon="10.8007465"><ele>232.49999999999997</ele><time>2026-05-02T06:59:43.216Z</time></trkpt><trkpt lat="44.4878535" lon="10.8006837"><ele>233.0</ele><time>2026-05-02T06:59:44.26Z</time></trkpt><trkpt lat="44.4877774" lon="10.800633"><ele>233.5</ele><time>2026-05-02T06:59:45.194Z</time></trkpt><trkpt lat="44.4877006" lon="10.8005778"><ele>234.0</ele><time>2026-05-02T06:59:46.195Z</time></trkpt><trkpt lat="44.4876325" lon="10.8005155"><ele>234.49999999999997</ele><time>2026-05-02T06:59:47.242Z</time></trkpt><trkpt lat="44.487578" lon="10.8004408"><ele>235.0</ele><time>2026-05-02T06:59:48.229Z</time></trkpt><trkpt lat="44.4875328" lon="10.8003532"><ele>234.99999999999997</ele><time>2026-05-02T06:59:49.214Z</time></trkpt><trkpt lat="44.4874909" lon="10.8002717"><ele>235.0</ele><time>2026-05-02T06:59:50.218Z</time></trkpt><trkpt lat="44.4874728" lon="10.8001748"><ele>235.0</ele><time>2026-05-02T06:59:51.2Z</time></trkpt><trkpt lat="44.4874649" lon="10.8000678"><ele>235.0</ele><time>2026-05-02T06:59:52.291Z</time></trkpt><trkpt lat="44.4874682" lon="10.7999567"><ele>234.99999999999997</ele><time>2026-05-02T06:59:53.226Z</time></trkpt><trkpt lat="44.4874627" lon="10.7998399"><ele>235.0</ele><time>2026-05-02T06:59:54.214Z</time></trkpt><trkpt lat="44.4874498" lon="10.7997194"><ele>234.49999999999997</ele><time>2026-05-02T06:59:55.248Z</time></trkpt><trkpt lat="44.487429" lon="10.7995973"><ele>234.0</ele><time>2026-05-02T06:59:56.236Z</time></trkpt><trkpt lat="44.4874076" lon="10.7994786"><ele>233.5</ele><time>2026-05-02T06:59:57.237Z</time></trkpt><trkpt lat="44.4873687" lon="10.7993706"><ele>233.0</ele><time>2026-05-02T06:59:58.262Z</time></trkpt><trkpt lat="44.4873126" lon="10.7992898"><ele>232.49999999999997</ele><time>2026-05-02T06:59:59.232Z</time></trkpt><trkpt lat="44.4872438" lon="10.7992185"><ele>232.0</ele><time>2026-05-02T07:00:00.229Z</time></trkpt><trkpt lat="44.4871653" lon="10.7991529"><ele>233.6</ele><time>2026-05-02T07:00:01.226Z</time></trkpt><trkpt lat="44.4870905" lon="10.7990909"><ele>235.2</ele><time>2026-05-02T07:00:02.226Z</time></trkpt><trkpt lat="44.4870147" lon="10.7990247"><ele>236.8</ele><time>2026-05-02T07:00:03.227Z</time></trkpt><trkpt lat="44.4869245" lon="10.798953"><ele>238.4</ele><time>2026-05-02T07:00:04.217Z</time></trkpt><trkpt lat="44.4868323" lon="10.7988797"><ele>240.0</ele><time>2026-05-02T07:00:05.206Z</time></trkpt><trkpt lat="44.4867387" lon="10.7987997"><ele>240.0</ele><time>2026-05-02T07:00:06.226Z</time></trkpt><trkpt lat="44.4866467" lon="10.7987176"><ele>240.0</ele><time>2026-05-02T07:00:07.266Z</time></trkpt><trkpt lat="44.4865574" lon="10.7986381"><ele>240.0</ele><time>2026-05-02T07:00:08.218Z</time></trkpt><trkpt lat="44.4864714" lon="10.7985625"><ele>240.0</ele><time>2026-05-02T07:00:09.232Z</time></trkpt><trkpt lat="44.4863908" lon="10.7984906"><ele>240.0</ele><time>2026-05-02T07:00:10.197Z</time></trkpt><trkpt lat="44.4863132" lon="10.7984166"><ele>243.0</ele><time>2026-05-02T07:00:11.221Z</time></trkpt><trkpt lat="44.4862372" lon="10.7983458"><ele>246.0</ele><time>2026-05-02T07:00:12.22Z</time></trkpt><trkpt lat="44.4861564" lon="10.7982712"><ele>249.0</ele><time>2026-05-02T07:00:13.214Z</time></trkpt><trkpt lat="44.4860716" lon="10.7981954"><ele>252.0</ele><time>2026-05-02T07:00:14.217Z</time></trkpt><trkpt lat="44.4859959" lon="10.7981308"><ele>255.0</ele><time>2026-05-02T07:00:15.225Z</time></trkpt><trkpt lat="44.4859269" lon="10.7980678"><ele>255.0</ele><time>2026-05-02T07:00:16.214Z</time></trkpt><trkpt lat="44.485875" lon="10.7979842"><ele>255.0</ele><time>2026-05-02T07:00:17.219Z</time></trkpt><trkpt lat="44.4858302" lon="10.7978873"><ele>255.0</ele><time>2026-05-02T07:00:18.202Z</time></trkpt><trkpt lat="44.4857991" lon="10.7977894"><ele>255.0</ele><time>2026-05-02T07:00:19.215Z</time></trkpt><trkpt lat="44.4857788" lon="10.7976842"><ele>255.0</ele><time>2026-05-02T07:00:20.202Z</time></trkpt><trkpt lat="44.4857624" lon="10.797577"><ele>255.0</ele><time>2026-05-02T07:00:21.245Z</time></trkpt><trkpt lat="44.4857494" lon="10.7974692"><ele>253.2857142857143</ele><time>2026-05-02T07:00:22.212Z</time></trkpt><trkpt lat="44.4857478" lon="10.7973654"><ele>251.5714285714286</ele><time>2026-05-02T07:00:23.17Z</time></trkpt><trkpt lat="44.4857611" lon="10.7972693"><ele>249.85714285714286</ele><time>2026-05-02T07:00:24.172Z</time></trkpt><trkpt lat="44.4857887" lon="10.7971738"><ele>248.14285714285717</ele><time>2026-05-02T07:00:25.167Z</time></trkpt><trkpt lat="44.4858276" lon="10.797081"><ele>246.42857142857144</ele><time>2026-05-02T07:00:26.175Z</time></trkpt><trkpt lat="44.485871" lon="10.796995"><ele>244.71428571428572</ele><time>2026-05-02T07:00:27.22Z</time></trkpt><trkpt lat="44.4859117" lon="10.7969157"><ele>243.0</ele><time>2026-05-02T07:00:28.219Z</time></trkpt><trkpt lat="44.4859479" lon="10.7968393"><ele>242.83333333333334</ele><time>2026-05-02T07:00:29.207Z</time></trkpt><trkpt lat="44.4859817" lon="10.7967642"><ele>242.66666666666669</ele><time>2026-05-02T07:00:30.206Z</time></trkpt><trkpt lat="44.4860163" lon="10.7966898"><ele>242.5</ele><time>2026-05-02T07:00:31.221Z</time></trkpt><trkpt lat="44.4860563" lon="10.796607"><ele>242.33333333333334</ele><time>2026-05-02T07:00:32.215Z</time></trkpt><trkpt lat="44.4861007" lon="10.7965201"><ele>242.16666666666669</ele><time>2026-05-02T07:00:33.257Z</time></trkpt><trkpt lat="44.4861503" lon="10.7964228"><ele>242.0</ele><time>2026-05-02T07:00:34.216Z</time></trkpt><trkpt lat="44.4862045" lon="10.7963171"><ele>242.00000000000003</ele><time>2026-05-02T07:00:35.217Z</time></trkpt><trkpt lat="44.4862496" lon="10.796211"><ele>242.0</ele><time>2026-05-02T07:00:36.21Z</time></trkpt><trkpt lat="44.4862885" lon="10.7961067"><ele>242.0</ele><time>2026-05-02T07:00:37.222Z</time></trkpt><trkpt lat="44.4863225" lon="10.7959985"><ele>242.0</ele><time>2026-05-02T07:00:38.205Z</time></trkpt><trkpt lat="44.4863554" lon="10.7958708"><ele>242.00000000000003</ele><time>2026-05-02T07:00:39.268Z</time></trkpt><trkpt lat="44.4863851" lon="10.7957425"><ele>242.0</ele><time>2026-05-02T07:00:40.235Z</time></trkpt><trkpt lat="44.4864157" lon="10.7956257"><ele>243.50000000000003</ele><time>2026-05-02T07:00:41.226Z</time></trkpt><trkpt lat="44.4864461" lon="10.7955091"><ele>245.0</ele><time>2026-05-02T07:00:42.208Z</time></trkpt><trkpt lat="44.4864748" lon="10.7953879"><ele>246.5</ele><time>2026-05-02T07:00:43.209Z</time></trkpt><trkpt lat="44.4864907" lon="10.795271"><ele>248.0</ele><time>2026-05-02T07:00:44.207Z</time></trkpt><trkpt lat="44.4865055" lon="10.7951576"><ele>249.50000000000003</ele><time>2026-05-02T07:00:45.163Z</time></trkpt><trkpt lat="44.4865105" lon="10.7950445"><ele>251.0</ele><time>2026-05-02T07:00:46.221Z</time></trkpt><trkpt lat="44.4864901" lon="10.7949282"><ele>251.66666666666669</ele><time>2026-05-02T07:00:47.217Z</time></trkpt><trkpt lat="44.4864601" lon="10.7948195"><ele>252.33333333333334</ele><time>2026-05-02T07:00:48.232Z</time></trkpt><trkpt lat="44.4864315" lon="10.7947146"><ele>253.0</ele><time>2026-05-02T07:00:49.213Z</time></trkpt><trkpt lat="44.4863875" lon="10.7946139"><ele>253.66666666666669</ele><time>2026-05-02T07:00:50.198Z</time></trkpt><trkpt lat="44.486338" lon="10.7945282"><ele>254.33333333333334</ele><time>2026-05-02T07:00:51.218Z</time></trkpt><trkpt lat="44.4862857" lon="10.7944562"><ele>255.0</ele><time>2026-05-02T07:00:52.222Z</time></trkpt><trkpt lat="44.4862274" lon="10.7944017"><ele>256.8333333333333</ele><time>2026-05-02T07:00:53.228Z</time></trkpt><trkpt lat="44.4861718" lon="10.7943475"><ele>258.6666666666667</ele><time>2026-05-02T07:00:54.218Z</time></trkpt><trkpt lat="44.486116" lon="10.7942928"><ele>260.5</ele><time>2026-05-02T07:00:55.228Z</time></trkpt><trkpt lat="44.4860361" lon="10.7941872"><ele>262.33333333333337</ele><time>2026-05-02T07:00:57.209Z</time></trkpt><trkpt lat="44.4860294" lon="10.7940773"><ele>264.1666666666667</ele><time>2026-05-02T07:00:58.208Z</time></trkpt><trkpt lat="44.4860306" lon="10.7939779"><ele>266.0</ele><time>2026-05-02T07:00:59.21Z</time></trkpt><trkpt lat="44.4860028" lon="10.793885"><ele>266.0</ele><time>2026-05-02T07:01:00.231Z</time></trkpt><trkpt lat="44.4859526" lon="10.7938012"><ele>266.0</ele><time>2026-05-02T07:01:01.249Z</time></trkpt><trkpt lat="44.4858983" lon="10.793731"><ele>266.0</ele><time>2026-05-02T07:01:02.202Z</time></trkpt><trkpt lat="44.4858479" lon="10.793656"><ele>266.0</ele><time>2026-05-02T07:01:03.226Z</time></trkpt><trkpt lat="44.4858225" lon="10.7935582"><ele>266.0</ele><time>2026-05-02T07:01:04.219Z</time></trkpt><trkpt lat="44.4858142" lon="10.7934457"><ele>266.0</ele><time>2026-05-02T07:01:05.222Z</time></trkpt><trkpt lat="44.4858053" lon="10.7933229"><ele>264.83333333333337</ele><time>2026-05-02T07:01:06.226Z</time></trkpt><trkpt lat="44.4858067" lon="10.7931844"><ele>263.6666666666667</ele><time>2026-05-02T07:01:07.255Z</time></trkpt><trkpt lat="44.4858003" lon="10.7930643"><ele>262.5</ele><time>2026-05-02T07:01:08.217Z</time></trkpt><trkpt lat="44.4857776" lon="10.7929482"><ele>261.3333333333333</ele><time>2026-05-02T07:01:09.225Z</time></trkpt><trkpt lat="44.4857393" lon="10.7928438"><ele>260.16666666666663</ele><time>2026-05-02T07:01:10.189Z</time></trkpt><trkpt lat="44.4856917" lon="10.7927475"><ele>259.0</ele><time>2026-05-02T07:01:11.224Z</time></trkpt><trkpt lat="44.4856409" lon="10.7926628"><ele>259.0</ele><time>2026-05-02T07:01:12.189Z</time></trkpt><trkpt lat="44.4855862" lon="10.7925861"><ele>259.0</ele><time>2026-05-02T07:01:13.18Z</time></trkpt><trkpt lat="44.4855255" lon="10.7925166"><ele>259.0</ele><time>2026-05-02T07:01:14.23Z</time></trkpt><trkpt lat="44.4854565" lon="10.792468"><ele>259.0</ele><time>2026-05-02T07:01:15.215Z</time></trkpt><trkpt lat="44.4853805" lon="10.7924473"><ele>259.0</ele><time>2026-05-02T07:01:16.217Z</time></trkpt><trkpt lat="44.4853007" lon="10.7924517"><ele>259.0</ele><time>2026-05-02T07:01:17.22Z</time></trkpt><trkpt lat="44.4852177" lon="10.792483"><ele>258.16666666666663</ele><time>2026-05-02T07:01:18.217Z</time></trkpt><trkpt lat="44.485139" lon="10.7925318"><ele>257.3333333333333</ele><time>2026-05-02T07:01:19.232Z</time></trkpt><trkpt lat="44.4850697" lon="10.7925943"><ele>256.5</ele><time>2026-05-02T07:01:20.224Z</time></trkpt><trkpt lat="44.485007" lon="10.7926751"><ele>255.66666666666669</ele><time>2026-05-02T07:01:21.216Z</time></trkpt><trkpt lat="44.4849476" lon="10.7927711"><ele>254.83333333333334</ele><time>2026-05-02T07:01:22.224Z</time></trkpt><trkpt lat="44.4848884" lon="10.7928797"><ele>254.0</ele><time>2026-05-02T07:01:23.209Z</time></trkpt><trkpt lat="44.4848336" lon="10.7929836"><ele>253.79999999999998</ele><time>2026-05-02T07:01:24.209Z</time></trkpt><trkpt lat="44.4847815" lon="10.7930806"><ele>253.59999999999997</ele><time>2026-05-02T07:01:25.283Z</time></trkpt><trkpt lat="44.4847322" lon="10.7931762"><ele>253.4</ele><time>2026-05-02T07:01:26.24Z</time></trkpt><trkpt lat="44.4846815" lon="10.7932806"><ele>253.2</ele><time>2026-05-02T07:01:27.224Z</time></trkpt><trkpt lat="44.4846248" lon="10.7933883"><ele>253.0</ele><time>2026-05-02T07:01:28.227Z</time></trkpt><trkpt lat="44.4845633" lon="10.7935014"><ele>253.66666666666666</ele><time>2026-05-02T07:01:29.207Z</time></trkpt><trkpt lat="44.4845031" lon="10.7936045"><ele>254.33333333333331</ele><time>2026-05-02T07:01:30.226Z</time></trkpt><trkpt lat="44.484439" lon="10.793687"><ele>255.0</ele><time>2026-05-02T07:01:31.235Z</time></trkpt><trkpt lat="44.4843693" lon="10.7937465"><ele>255.66666666666669</ele><time>2026-05-02T07:01:32.23Z</time></trkpt><trkpt lat="44.4842976" lon="10.7937866"><ele>256.33333333333337</ele><time>2026-05-02T07:01:33.225Z</time></trkpt><trkpt lat="44.4842262" lon="10.7938023"><ele>257.0</ele><time>2026-05-02T07:01:34.219Z</time></trkpt><trkpt lat="44.4841554" lon="10.7937884"><ele>257.0</ele><time>2026-05-02T07:01:35.219Z</time></trkpt><trkpt lat="44.4840857" lon="10.7937454"><ele>257.0</ele><time>2026-05-02T07:01:36.224Z</time></trkpt><trkpt lat="44.4840283" lon="10.7936711"><ele>257.0</ele><time>2026-05-02T07:01:37.218Z</time></trkpt><trkpt lat="44.4839862" lon="10.793575"><ele>257.0</ele><time>2026-05-02T07:01:38.202Z</time></trkpt><trkpt lat="44.4839557" lon="10.7934627"><ele>257.0</ele><time>2026-05-02T07:01:39.224Z</time></trkpt><trkpt lat="44.4839234" lon="10.7933432"><ele>257.0</ele><time>2026-05-02T07:01:40.21Z</time></trkpt><trkpt lat="44.4838888" lon="10.7932354"><ele>257.1666666666667</ele><time>2026-05-02T07:01:41.218Z</time></trkpt><trkpt lat="44.4838517" lon="10.7931404"><ele>257.33333333333337</ele><time>2026-05-02T07:01:42.255Z</time></trkpt><trkpt lat="44.4838109" lon="10.7930462"><ele>257.5</ele><time>2026-05-02T07:01:43.215Z</time></trkpt><trkpt lat="44.4837609" lon="10.7929487"><ele>257.6666666666667</ele><time>2026-05-02T07:01:44.186Z</time></trkpt><trkpt lat="44.4837111" lon="10.7928543"><ele>257.8333333333333</ele><time>2026-05-02T07:01:45.232Z</time></trkpt><trkpt lat="44.4836626" lon="10.7927671"><ele>258.0</ele><time>2026-05-02T07:01:46.209Z</time></trkpt><trkpt lat="44.4836106" lon="10.7926867"><ele>258.0</ele><time>2026-05-02T07:01:47.202Z</time></trkpt><trkpt lat="44.4835526" lon="10.7926208"><ele>258.0</ele><time>2026-05-02T07:01:48.202Z</time></trkpt><trkpt lat="44.4834858" lon="10.7925817"><ele>258.0</ele><time>2026-05-02T07:01:49.21Z</time></trkpt><trkpt lat="44.483414" lon="10.7925805"><ele>258.0</ele><time>2026-05-02T07:01:50.206Z</time></trkpt><trkpt lat="44.4833385" lon="10.7925816"><ele>258.0</ele><time>2026-05-02T07:01:51.212Z</time></trkpt><trkpt lat="44.4832524" lon="10.7926459"><ele>258.0</ele><time>2026-05-02T07:01:52.195Z</time></trkpt><trkpt lat="44.4831678" lon="10.792722"><ele>258.0</ele><time>2026-05-02T07:01:53.27Z</time></trkpt><trkpt lat="44.4830864" lon="10.7927945"><ele>258.0</ele><time>2026-05-02T07:01:54.23Z</time></trkpt><trkpt lat="44.4830023" lon="10.7928505"><ele>258.0</ele><time>2026-05-02T07:01:55.225Z</time></trkpt><trkpt lat="44.482916" lon="10.7928762"><ele>258.0</ele><time>2026-05-02T07:01:56.23Z</time></trkpt><trkpt lat="44.4828214" lon="10.7928746"><ele>258.0</ele><time>2026-05-02T07:01:57.2Z</time></trkpt><trkpt lat="44.4827219" lon="10.7928587"><ele>257.8</ele><time>2026-05-02T07:01:58.207Z</time></trkpt><trkpt lat="44.4826236" lon="10.7928359"><ele>257.6</ele><time>2026-05-02T07:01:59.216Z</time></trkpt><trkpt lat="44.4825303" lon="10.7928071"><ele>257.4</ele><time>2026-05-02T07:02:00.219Z</time></trkpt><trkpt lat="44.4824409" lon="10.7927675"><ele>257.2</ele><time>2026-05-02T07:02:01.213Z</time></trkpt><trkpt lat="44.4823552" lon="10.792708"><ele>257.0</ele><time>2026-05-02T07:02:02.221Z</time></trkpt><trkpt lat="44.4822739" lon="10.7926295"><ele>257.0</ele><time>2026-05-02T07:02:03.225Z</time></trkpt><trkpt lat="44.4822021" lon="10.792546"><ele>257.0</ele><time>2026-05-02T07:02:04.216Z</time></trkpt><trkpt lat="44.4821378" lon="10.7924654"><ele>257.0</ele><time>2026-05-02T07:02:05.218Z</time></trkpt><trkpt lat="44.4820772" lon="10.7923867"><ele>257.0</ele><time>2026-05-02T07:02:06.217Z</time></trkpt><trkpt lat="44.4820138" lon="10.7923077"><ele>257.0</ele><time>2026-05-02T07:02:07.219Z</time></trkpt><trkpt lat="44.4819478" lon="10.7922232"><ele>257.0</ele><time>2026-05-02T07:02:08.22Z</time></trkpt><trkpt lat="44.4818825" lon="10.7921397"><ele>258.6</ele><time>2026-05-02T07:02:09.223Z</time></trkpt><trkpt lat="44.4818164" lon="10.7920477"><ele>260.2</ele><time>2026-05-02T07:02:10.212Z</time></trkpt><trkpt lat="44.4817466" lon="10.791968"><ele>261.8</ele><time>2026-05-02T07:02:11.203Z</time></trkpt><trkpt lat="44.4816681" lon="10.7919035"><ele>263.4</ele><time>2026-05-02T07:02:12.218Z</time></trkpt><trkpt lat="44.4815854" lon="10.7918405"><ele>265.0</ele><time>2026-05-02T07:02:13.208Z</time></trkpt><trkpt lat="44.4814957" lon="10.7918047"><ele>265.0</ele><time>2026-05-02T07:02:14.208Z</time></trkpt><trkpt lat="44.4814055" lon="10.7917702"><ele>265.0</ele><time>2026-05-02T07:02:15.22Z</time></trkpt><trkpt lat="44.4813156" lon="10.7917353"><ele>265.0</ele><time>2026-05-02T07:02:16.275Z</time></trkpt><trkpt lat="44.4812186" lon="10.7916992"><ele>265.0</ele><time>2026-05-02T07:02:17.209Z</time></trkpt><trkpt lat="44.4811197" lon="10.7916611"><ele>265.0</ele><time>2026-05-02T07:02:18.211Z</time></trkpt><trkpt lat="44.4810249" lon="10.7916259"><ele>265.2</ele><time>2026-05-02T07:02:19.222Z</time></trkpt><trkpt lat="44.4809281" lon="10.7915948"><ele>265.4</ele><time>2026-05-02T07:02:20.227Z</time></trkpt><trkpt lat="44.4808324" lon="10.7915758"><ele>265.6</ele><time>2026-05-02T07:02:21.238Z</time></trkpt><trkpt lat="44.480737" lon="10.7915679"><ele>265.8</ele><time>2026-05-02T07:02:22.191Z</time></trkpt><trkpt lat="44.4806447" lon="10.7915682"><ele>266.0</ele><time>2026-05-02T07:02:23.221Z</time></trkpt><trkpt lat="44.4805591" lon="10.791573"><ele>266.0</ele><time>2026-05-02T07:02:24.208Z</time></trkpt><trkpt lat="44.4804768" lon="10.7915797"><ele>266.0</ele><time>2026-05-02T07:02:25.23Z</time></trkpt><trkpt lat="44.480392" lon="10.7915894"><ele>266.0</ele><time>2026-05-02T07:02:26.212Z</time></trkpt><trkpt lat="44.4803031" lon="10.7915956"><ele>266.0</ele><time>2026-05-02T07:02:27.217Z</time></trkpt><trkpt lat="44.4802149" lon="10.7915982"><ele>266.0</ele><time>2026-05-02T07:02:28.186Z</time></trkpt><trkpt lat="44.4801276" lon="10.791601"><ele>266.0</ele><time>2026-05-02T07:02:29.221Z</time></trkpt><trkpt lat="44.4800407" lon="10.7916058"><ele>267.0</ele><time>2026-05-02T07:02:30.21Z</time></trkpt><trkpt lat="44.4799524" lon="10.7916128"><ele>268.0</ele><time>2026-05-02T07:02:31.23Z</time></trkpt><trkpt lat="44.4798682" lon="10.7916189"><ele>269.0</ele><time>2026-05-02T07:02:32.211Z</time></trkpt><trkpt lat="44.4797924" lon="10.7916233"><ele>270.0</ele><time>2026-05-02T07:02:33.227Z</time></trkpt><trkpt lat="44.4797206" lon="10.7916311"><ele>271.0</ele><time>2026-05-02T07:02:34.217Z</time></trkpt><trkpt lat="44.4796543" lon="10.7916426"><ele>272.0</ele><time>2026-05-02T07:02:35.192Z</time></trkpt><trkpt lat="44.4795227" lon="10.7916479"><ele>272.33333333333337</ele><time>2026-05-02T07:02:37.224Z</time></trkpt><trkpt lat="44.479441" lon="10.7916469"><ele>272.6666666666667</ele><time>2026-05-02T07:02:38.217Z</time></trkpt><trkpt lat="44.4793561" lon="10.7916465"><ele>273.0</ele><time>2026-05-02T07:02:39.203Z</time></trkpt><trkpt lat="44.4792837" lon="10.7915995"><ele>273.3333333333333</ele><time>2026-05-02T07:02:40.25Z</time></trkpt><trkpt lat="44.479211" lon="10.7915526"><ele>273.66666666666663</ele><time>2026-05-02T07:02:41.22Z</time></trkpt><trkpt lat="44.4791505" lon="10.7914653"><ele>274.0</ele><time>2026-05-02T07:02:42.218Z</time></trkpt><trkpt lat="44.4791016" lon="10.7913454"><ele>274.0</ele><time>2026-05-02T07:02:43.221Z</time></trkpt><trkpt lat="44.4790534" lon="10.7912432"><ele>274.0</ele><time>2026-05-02T07:02:44.213Z</time></trkpt><trkpt lat="44.4789923" lon="10.7911564"><ele>274.0</ele><time>2026-05-02T07:02:45.204Z</time></trkpt><trkpt lat="44.4789192" lon="10.791098"><ele>274.0</ele><time>2026-05-02T07:02:46.188Z</time></trkpt><trkpt lat="44.4788369" lon="10.7910559"><ele>274.0</ele><time>2026-05-02T07:02:47.223Z</time></trkpt><trkpt lat="44.4787444" lon="10.7910356"><ele>274.0</ele><time>2026-05-02T07:02:48.203Z</time></trkpt><trkpt lat="44.4786588" lon="10.7910242"><ele>276.16666666666663</ele><time>2026-05-02T07:02:49.213Z</time></trkpt><trkpt lat="44.4785747" lon="10.7910207"><ele>278.3333333333333</ele><time>2026-05-02T07:02:50.211Z</time></trkpt><trkpt lat="44.4784911" lon="10.7910164"><ele>280.5</ele><time>2026-05-02T07:02:51.208Z</time></trkpt><trkpt lat="44.4784018" lon="10.7910278"><ele>282.6666666666667</ele><time>2026-05-02T07:02:52.213Z</time></trkpt><trkpt lat="44.4783115" lon="10.7910365"><ele>284.83333333333337</ele><time>2026-05-02T07:02:53.199Z</time></trkpt><trkpt lat="44.478225" lon="10.7910467"><ele>287.0</ele><time>2026-05-02T07:02:54.206Z</time></trkpt><trkpt lat="44.4781382" lon="10.7910558"><ele>287.0</ele><time>2026-05-02T07:02:55.22Z</time></trkpt><trkpt lat="44.4780534" lon="10.7910649"><ele>287.0</ele><time>2026-05-02T07:02:56.217Z</time></trkpt><trkpt lat="44.4779709" lon="10.7910726"><ele>287.0</ele><time>2026-05-02T07:02:57.215Z</time></trkpt><trkpt lat="44.4778973" lon="10.7910805"><ele>287.0</ele><time>2026-05-02T07:02:58.21Z</time></trkpt><trkpt lat="44.4778302" lon="10.7910881"><ele>287.0</ele><time>2026-05-02T07:02:59.193Z</time></trkpt><trkpt lat="44.4777184" lon="10.7911016"><ele>287.0</ele><time>2026-05-02T07:03:01.206Z</time></trkpt><trkpt lat="44.4776514" lon="10.7911001"><ele>286.1666666666667</ele><time>2026-05-02T07:03:03.23Z</time></trkpt><trkpt lat="44.4775824" lon="10.7911646"><ele>285.33333333333337</ele><time>2026-05-02T07:03:07.239Z</time></trkpt><trkpt lat="44.4775471" lon="10.7912817"><ele>284.5</ele><time>2026-05-02T07:03:10.213Z</time></trkpt><trkpt lat="44.4775284" lon="10.7913706"><ele>283.6666666666667</ele><time>2026-05-02T07:03:12.219Z</time></trkpt><trkpt lat="44.4774962" lon="10.7914885"><ele>282.8333333333333</ele><time>2026-05-02T07:03:14.218Z</time></trkpt><trkpt lat="44.4774509" lon="10.7916393"><ele>282.0</ele><time>2026-05-02T07:03:16.239Z</time></trkpt><trkpt lat="44.4773687" lon="10.7917519"><ele>284.4</ele><time>2026-05-02T07:03:18.22Z</time></trkpt><trkpt lat="44.4772922" lon="10.791861"><ele>286.79999999999995</ele><time>2026-05-02T07:03:20.2Z</time></trkpt><trkpt lat="44.4772142" lon="10.7919936"><ele>289.2</ele><time>2026-05-02T07:03:22.207Z</time></trkpt><trkpt lat="44.4771508" lon="10.7921097"><ele>291.59999999999997</ele><time>2026-05-02T07:03:24.196Z</time></trkpt><trkpt lat="44.477092" lon="10.7922392"><ele>294.0</ele><time>2026-05-02T07:03:26.218Z</time></trkpt><trkpt lat="44.4770604" lon="10.7923208"><ele>294.0</ele><time>2026-05-02T07:03:27.208Z</time></trkpt><trkpt lat="44.4770212" lon="10.7924307"><ele>294.0</ele><time>2026-05-02T07:03:28.199Z</time></trkpt><trkpt lat="44.4769891" lon="10.792548"><ele>294.0</ele><time>2026-05-02T07:03:29.189Z</time></trkpt><trkpt lat="44.4769655" lon="10.7926521"><ele>294.0</ele><time>2026-05-02T07:03:30.219Z</time></trkpt><trkpt lat="44.4769463" lon="10.7927396"><ele>294.0</ele><time>2026-05-02T07:03:31.239Z</time></trkpt><trkpt lat="44.4768996" lon="10.7928747"><ele>294.0</ele><time>2026-05-02T07:03:33.219Z</time></trkpt><trkpt lat="44.476829" lon="10.7929731"><ele>293.4</ele><time>2026-05-02T07:03:35.229Z</time></trkpt><trkpt lat="44.4767695" lon="10.7930747"><ele>292.79999999999995</ele><time>2026-05-02T07:03:37.217Z</time></trkpt><trkpt lat="44.4767177" lon="10.7931295"><ele>292.20000000000005</ele><time>2026-05-02T07:03:38.208Z</time></trkpt><trkpt lat="44.4766275" lon="10.7932221"><ele>291.6</ele><time>2026-05-02T07:03:40.216Z</time></trkpt><trkpt lat="44.4765374" lon="10.7933035"><ele>291.0</ele><time>2026-05-02T07:03:42.223Z</time></trkpt><trkpt lat="44.4764562" lon="10.7933667"><ele>291.0</ele><time>2026-05-02T07:03:44.21Z</time></trkpt><trkpt lat="44.4763714" lon="10.7934369"><ele>291.0</ele><time>2026-05-02T07:03:46.205Z</time></trkpt><trkpt lat="44.4762898" lon="10.7935124"><ele>291.0</ele><time>2026-05-02T07:03:48.204Z</time></trkpt><trkpt lat="44.4762096" lon="10.7935924"><ele>291.0</ele><time>2026-05-02T07:03:50.227Z</time></trkpt><trkpt lat="44.4761373" lon="10.7936588"><ele>291.0</ele><time>2026-05-02T07:03:52.215Z</time></trkpt><trkpt lat="44.4760731" lon="10.7937169"><ele>294.8333333333333</ele><time>2026-05-02T07:03:54.212Z</time></trkpt><trkpt lat="44.4760181" lon="10.7937696"><ele>298.6666666666667</ele><time>2026-05-02T07:03:57.271Z</time></trkpt><trkpt lat="44.47598" lon="10.7938668"><ele>302.5</ele><time>2026-05-02T07:04:00.209Z</time></trkpt><trkpt lat="44.4759306" lon="10.7939689"><ele>306.33333333333337</ele><time>2026-05-02T07:04:02.217Z</time></trkpt><trkpt lat="44.4758867" lon="10.7940815"><ele>310.1666666666667</ele><time>2026-05-02T07:04:14.219Z</time></trkpt><trkpt lat="44.4758254" lon="10.7941604"><ele>314.0</ele><time>2026-05-02T07:04:16.202Z</time></trkpt><trkpt lat="44.4757601" lon="10.7942295"><ele>314.0</ele><time>2026-05-02T07:04:18.245Z</time></trkpt><trkpt lat="44.4756877" lon="10.7943133"><ele>314.0</ele><time>2026-05-02T07:04:20.241Z</time></trkpt><trkpt lat="44.4756026" lon="10.794404"><ele>314.0</ele><time>2026-05-02T07:04:22.265Z</time></trkpt><trkpt lat="44.4754851" lon="10.7944727"><ele>314.0</ele><time>2026-05-02T07:04:24.218Z</time></trkpt><trkpt lat="44.4753956" lon="10.7944722"><ele>314.0</ele><time>2026-05-02T07:04:26.236Z</time></trkpt><trkpt lat="44.4753304" lon="10.7944608"><ele>316.4</ele><time>2026-05-02T07:04:27.203Z</time></trkpt><trkpt lat="44.4752616" lon="10.7944125"><ele>318.79999999999995</ele><time>2026-05-02T07:04:29.234Z</time></trkpt><trkpt lat="44.4752409" lon="10.7942655"><ele>321.20000000000005</ele><time>2026-05-02T07:04:31.233Z</time></trkpt><trkpt lat="44.4752736" lon="10.7941251"><ele>323.6</ele><time>2026-05-02T07:04:33.214Z</time></trkpt><trkpt lat="44.4753381" lon="10.7940336"><ele>326.0</ele><time>2026-05-02T07:04:35.228Z</time></trkpt><trkpt lat="44.4753601" lon="10.7938837"><ele>327.20000000000005</ele><time>2026-05-02T07:04:37.209Z</time></trkpt><trkpt lat="44.4753318" lon="10.7937335"><ele>328.40000000000003</ele><time>2026-05-02T07:04:39.207Z</time></trkpt><trkpt lat="44.4753144" lon="10.7936005"><ele>329.6</ele><time>2026-05-02T07:04:41.219Z</time></trkpt><trkpt lat="44.4752884" lon="10.7934716"><ele>330.8</ele><time>2026-05-02T07:04:43.227Z</time></trkpt><trkpt lat="44.4753356" lon="10.7934003"><ele>332.0</ele><time>2026-05-02T07:04:45.202Z</time></trkpt><trkpt lat="44.4754003" lon="10.7933322"><ele>333.8</ele><time>2026-05-02T07:04:47.204Z</time></trkpt><trkpt lat="44.4754126" lon="10.7932385"><ele>335.6</ele><time>2026-05-02T07:04:49.243Z</time></trkpt><trkpt lat="44.4753386" lon="10.7931398"><ele>337.40000000000003</ele><time>2026-05-02T07:04:51.236Z</time></trkpt><trkpt lat="44.4752726" lon="10.7931082"><ele>339.20000000000005</ele><time>2026-05-02T07:04:52.222Z</time></trkpt><trkpt lat="44.4751748" lon="10.7930161"><ele>341.0</ele><time>2026-05-02T07:04:54.24Z</time></trkpt><trkpt lat="44.4750714" lon="10.7929616"><ele>341.0</ele><time>2026-05-02T07:04:56.233Z</time></trkpt><trkpt lat="44.4749935" lon="10.792867"><ele>341.0</ele><time>2026-05-02T07:04:58.198Z</time></trkpt><trkpt lat="44.4749701" lon="10.7927834"><ele>341.0</ele><time>2026-05-02T07:04:59.211Z</time></trkpt><trkpt lat="44.4749438" lon="10.7926955"><ele>341.0</ele><time>2026-05-02T07:05:00.233Z</time></trkpt><trkpt lat="44.4749149" lon="10.7926164"><ele>341.0</ele><time>2026-05-02T07:05:01.198Z</time></trkpt><trkpt lat="44.4748646" lon="10.792526"><ele>341.0</ele><time>2026-05-02T07:05:03.232Z</time></trkpt><trkpt lat="44.4747871" lon="10.7925898"><ele>341.0</ele><time>2026-05-02T07:05:06.243Z</time></trkpt><trkpt lat="44.4747295" lon="10.7927054"><ele>341.0</ele><time>2026-05-02T07:05:08.215Z</time></trkpt><trkpt lat="44.4746609" lon="10.7927748"><ele>341.0</ele><time>2026-05-02T07:05:10.24Z</time></trkpt><trkpt lat="44.4745754" lon="10.7927924"><ele>341.0</ele><time>2026-05-02T07:05:12.221Z</time></trkpt><trkpt lat="44.4744732" lon="10.7927867"><ele>341.0</ele><time>2026-05-02T07:05:14.186Z</time></trkpt><trkpt lat="44.4743799" lon="10.792758"><ele>344.6666666666667</ele><time>2026-05-02T07:05:16.229Z</time></trkpt><trkpt lat="44.4742978" lon="10.7927601"><ele>348.33333333333337</ele><time>2026-05-02T07:05:18.218Z</time></trkpt><trkpt lat="44.4742134" lon="10.7927933"><ele>352.0</ele><time>2026-05-02T07:05:20.197Z</time></trkpt><trkpt lat="44.4741203" lon="10.7928331"><ele>355.6666666666667</ele><time>2026-05-02T07:05:22.233Z</time></trkpt><trkpt lat="44.4740346" lon="10.7928628"><ele>359.3333333333333</ele><time>2026-05-02T07:05:24.296Z</time></trkpt><trkpt lat="44.4739448" lon="10.7928733"><ele>363.0</ele><time>2026-05-02T07:05:26.228Z</time></trkpt><trkpt lat="44.4738318" lon="10.7928488"><ele>368.4</ele><time>2026-05-02T07:05:28.22Z</time></trkpt><trkpt lat="44.4737173" lon="10.7928284"><ele>373.79999999999995</ele><time>2026-05-02T07:05:30.219Z</time></trkpt><trkpt lat="44.4736211" lon="10.7927911"><ele>379.2</ele><time>2026-05-02T07:05:32.226Z</time></trkpt><trkpt lat="44.4735288" lon="10.7927433"><ele>384.6</ele><time>2026-05-02T07:05:34.234Z</time></trkpt><trkpt lat="44.4734362" lon="10.7926847"><ele>390.0</ele><time>2026-05-02T07:05:36.233Z</time></trkpt><trkpt lat="44.4733512" lon="10.7926431"><ele>390.0</ele><time>2026-05-02T07:05:38.246Z</time></trkpt><trkpt lat="44.4732781" lon="10.7926285"><ele>390.0</ele><time>2026-05-02T07:05:40.19Z</time></trkpt><trkpt lat="44.4731842" lon="10.7926443"><ele>390.0</ele><time>2026-05-02T07:05:43.208Z</time></trkpt><trkpt lat="44.4731141" lon="10.7927181"><ele>390.0</ele><time>2026-05-02T07:05:46.242Z</time></trkpt><trkpt lat="44.4730708" lon="10.7927857"><ele>390.0</ele><time>2026-05-02T07:05:48.221Z</time></trkpt><trkpt lat="44.4730174" lon="10.7928604"><ele>390.0</ele><time>2026-05-02T07:05:50.193Z</time></trkpt><trkpt lat="44.4729533" lon="10.792939"><ele>394.2</ele><time>2026-05-02T07:05:52.156Z</time></trkpt><trkpt lat="44.4728864" lon="10.7930001"><ele>398.4</ele><time>2026-05-02T07:05:54.184Z</time></trkpt><trkpt lat="44.4728137" lon="10.7930448"><ele>402.6</ele><time>2026-05-02T07:05:56.198Z</time></trkpt><trkpt lat="44.4727209" lon="10.7930859"><ele>406.8</ele><time>2026-05-02T07:05:58.234Z</time></trkpt><trkpt lat="44.472619" lon="10.7931321"><ele>411.0</ele><time>2026-05-02T07:06:00.221Z</time></trkpt><trkpt lat="44.4725064" lon="10.7931755"><ele>411.0</ele><time>2026-05-02T07:06:02.238Z</time></trkpt><trkpt lat="44.4723959" lon="10.7932199"><ele>411.0</ele><time>2026-05-02T07:06:04.214Z</time></trkpt><trkpt lat="44.4723222" lon="10.7932585"><ele>411.0</ele><time>2026-05-02T07:06:06.215Z</time></trkpt><trkpt lat="44.4722803" lon="10.7933309"><ele>411.0</ele><time>2026-05-02T07:06:18.21Z</time></trkpt><trkpt lat="44.4722427" lon="10.7934466"><ele>411.0</ele><time>2026-05-02T07:06:20.217Z</time></trkpt><trkpt lat="44.4721958" lon="10.7935789"><ele>410.2857142857143</ele><time>2026-05-02T07:06:22.232Z</time></trkpt><trkpt lat="44.4721639" lon="10.7936553"><ele>409.57142857142856</ele><time>2026-05-02T07:06:23.232Z</time></trkpt><trkpt lat="44.4721288" lon="10.7937356"><ele>408.8571428571429</ele><time>2026-05-02T07:06:24.215Z</time></trkpt><trkpt lat="44.472088" lon="10.7938178"><ele>408.1428571428571</ele><time>2026-05-02T07:06:25.201Z</time></trkpt><trkpt lat="44.4720405" lon="10.7939029"><ele>407.42857142857144</ele><time>2026-05-02T07:06:26.216Z</time></trkpt><trkpt lat="44.4719986" lon="10.7939868"><ele>406.7142857142857</ele><time>2026-05-02T07:06:27.224Z</time></trkpt><trkpt lat="44.4719658" lon="10.7940713"><ele>406.0</ele><time>2026-05-02T07:06:28.223Z</time></trkpt><trkpt lat="44.4719385" lon="10.7941579"><ele>407.42857142857144</ele><time>2026-05-02T07:06:29.225Z</time></trkpt><trkpt lat="44.4719048" lon="10.7942389"><ele>408.8571428571429</ele><time>2026-05-02T07:06:30.221Z</time></trkpt><trkpt lat="44.4718608" lon="10.7943094"><ele>410.2857142857143</ele><time>2026-05-02T07:06:31.236Z</time></trkpt><trkpt lat="44.4718099" lon="10.7943733"><ele>411.7142857142857</ele><time>2026-05-02T07:06:32.227Z</time></trkpt><trkpt lat="44.4717595" lon="10.7944454"><ele>413.14285714285717</ele><time>2026-05-02T07:06:33.215Z</time></trkpt><trkpt lat="44.471708" lon="10.7945345"><ele>414.57142857142856</ele><time>2026-05-02T07:06:34.169Z</time></trkpt><trkpt lat="44.4716563" lon="10.7946291"><ele>416.0</ele><time>2026-05-02T07:06:35.201Z</time></trkpt><trkpt lat="44.4716066" lon="10.7947175"><ele>417.1428571428571</ele><time>2026-05-02T07:06:36.232Z</time></trkpt><trkpt lat="44.4715555" lon="10.7947911"><ele>418.28571428571433</ele><time>2026-05-02T07:06:37.21Z</time></trkpt><trkpt lat="44.4715029" lon="10.7948512"><ele>419.42857142857144</ele><time>2026-05-02T07:06:38.241Z</time></trkpt><trkpt lat="44.4714495" lon="10.7949085"><ele>420.57142857142856</ele><time>2026-05-02T07:06:39.236Z</time></trkpt><trkpt lat="44.4713975" lon="10.7949679"><ele>421.71428571428567</ele><time>2026-05-02T07:06:40.214Z</time></trkpt><trkpt lat="44.4713437" lon="10.7950322"><ele>422.8571428571429</ele><time>2026-05-02T07:06:41.224Z</time></trkpt><trkpt lat="44.4712879" lon="10.7951056"><ele>424.0</ele><time>2026-05-02T07:06:42.214Z</time></trkpt><trkpt lat="44.4712375" lon="10.7951872"><ele>425.1666666666667</ele><time>2026-05-02T07:06:43.229Z</time></trkpt><trkpt lat="44.4711983" lon="10.7952792"><ele>426.33333333333337</ele><time>2026-05-02T07:06:44.21Z</time></trkpt><trkpt lat="44.4711744" lon="10.7953846"><ele>427.5</ele><time>2026-05-02T07:06:45.232Z</time></trkpt><trkpt lat="44.4711642" lon="10.7954934"><ele>428.66666666666663</ele><time>2026-05-02T07:06:46.238Z</time></trkpt><trkpt lat="44.4711581" lon="10.7955981"><ele>429.8333333333333</ele><time>2026-05-02T07:06:47.232Z</time></trkpt><trkpt lat="44.4711503" lon="10.795708"><ele>431.0</ele><time>2026-05-02T07:06:48.237Z</time></trkpt><trkpt lat="44.4711406" lon="10.7958182"><ele>430.99999999999994</ele><time>2026-05-02T07:06:49.253Z</time></trkpt><trkpt lat="44.4711257" lon="10.7959223"><ele>431.0</ele><time>2026-05-02T07:06:50.211Z</time></trkpt><trkpt lat="44.4710988" lon="10.7960249"><ele>431.0</ele><time>2026-05-02T07:06:51.244Z</time></trkpt><trkpt lat="44.4710595" lon="10.7961292"><ele>431.0</ele><time>2026-05-02T07:06:52.243Z</time></trkpt><trkpt lat="44.4710093" lon="10.7962395"><ele>430.99999999999994</ele><time>2026-05-02T07:06:53.215Z</time></trkpt><trkpt lat="44.470965" lon="10.7963471"><ele>431.0</ele><time>2026-05-02T07:06:54.227Z</time></trkpt><trkpt lat="44.4709282" lon="10.7964473"><ele>433.6</ele><time>2026-05-02T07:06:55.256Z</time></trkpt><trkpt lat="44.4708896" lon="10.7965585"><ele>436.20000000000005</ele><time>2026-05-02T07:06:56.252Z</time></trkpt><trkpt lat="44.4708483" lon="10.7966822"><ele>438.79999999999995</ele><time>2026-05-02T07:06:57.22Z</time></trkpt><trkpt lat="44.4708018" lon="10.7968131"><ele>441.4</ele><time>2026-05-02T07:06:58.24Z</time></trkpt><trkpt lat="44.4707547" lon="10.7969308"><ele>444.0</ele><time>2026-05-02T07:06:59.22Z</time></trkpt><trkpt lat="44.470704" lon="10.7970331"><ele>445.3333333333333</ele><time>2026-05-02T07:07:00.19Z</time></trkpt><trkpt lat="44.4706548" lon="10.7971321"><ele>446.66666666666663</ele><time>2026-05-02T07:07:01.216Z</time></trkpt><trkpt lat="44.4705892" lon="10.7972097"><ele>448.0</ele><time>2026-05-02T07:07:02.253Z</time></trkpt><trkpt lat="44.47052" lon="10.7972761"><ele>449.3333333333333</ele><time>2026-05-02T07:07:03.23Z</time></trkpt><trkpt lat="44.4704532" lon="10.7973473"><ele>450.66666666666663</ele><time>2026-05-02T07:07:04.242Z</time></trkpt><trkpt lat="44.4703884" lon="10.7974218"><ele>452.0</ele><time>2026-05-02T07:07:05.233Z</time></trkpt><trkpt lat="44.4703257" lon="10.7975088"><ele>452.66666666666663</ele><time>2026-05-02T07:07:06.234Z</time></trkpt><trkpt lat="44.4702694" lon="10.797608"><ele>453.3333333333333</ele><time>2026-05-02T07:07:07.212Z</time></trkpt><trkpt lat="44.4702136" lon="10.7977135"><ele>454.0</ele><time>2026-05-02T07:07:08.212Z</time></trkpt><trkpt lat="44.4701613" lon="10.7978159"><ele>454.66666666666663</ele><time>2026-05-02T07:07:09.223Z</time></trkpt><trkpt lat="44.4701178" lon="10.797921"><ele>455.3333333333333</ele><time>2026-05-02T07:07:10.228Z</time></trkpt><trkpt lat="44.4700837" lon="10.7980259"><ele>456.0</ele><time>2026-05-02T07:07:11.205Z</time></trkpt><trkpt lat="44.4700507" lon="10.7981388"><ele>457.0</ele><time>2026-05-02T07:07:12.254Z</time></trkpt><trkpt lat="44.4700165" lon="10.7982611"><ele>458.0</ele><time>2026-05-02T07:07:13.231Z</time></trkpt><trkpt lat="44.469981" lon="10.7983861"><ele>459.0</ele><time>2026-05-02T07:07:14.219Z</time></trkpt><trkpt lat="44.4699463" lon="10.7985101"><ele>460.0</ele><time>2026-05-02T07:07:15.223Z</time></trkpt><trkpt lat="44.4699108" lon="10.7986293"><ele>461.0</ele><time>2026-05-02T07:07:16.227Z</time></trkpt><trkpt lat="44.4698832" lon="10.7987462"><ele>461.4</ele><time>2026-05-02T07:07:17.178Z</time></trkpt><trkpt lat="44.4698623" lon="10.798868"><ele>461.8</ele><time>2026-05-02T07:07:18.22Z</time></trkpt><trkpt lat="44.4698458" lon="10.7989851"><ele>462.19999999999993</ele><time>2026-05-02T07:07:19.225Z</time></trkpt><trkpt lat="44.4698344" lon="10.7991133"><ele>462.59999999999997</ele><time>2026-05-02T07:07:20.235Z</time></trkpt><trkpt lat="44.4698328" lon="10.7992472"><ele>463.0</ele><time>2026-05-02T07:07:21.218Z</time></trkpt><trkpt lat="44.4698318" lon="10.7993729"><ele>463.0</ele><time>2026-05-02T07:07:22.239Z</time></trkpt><trkpt lat="44.469821" lon="10.7995007"><ele>462.99999999999994</ele><time>2026-05-02T07:07:23.237Z</time></trkpt><trkpt lat="44.4697996" lon="10.7996327"><ele>462.99999999999994</ele><time>2026-05-02T07:07:24.235Z</time></trkpt><trkpt lat="44.4697775" lon="10.7997597"><ele>463.0</ele><time>2026-05-02T07:07:25.183Z</time></trkpt><trkpt lat="44.4697372" lon="10.7998783"><ele>463.0</ele><time>2026-05-02T07:07:26.213Z</time></trkpt><trkpt lat="44.469695" lon="10.7999937"><ele>463.00000000000006</ele><time>2026-05-02T07:07:27.229Z</time></trkpt><trkpt lat="44.4696544" lon="10.8001052"><ele>463.0</ele><time>2026-05-02T07:07:28.243Z</time></trkpt><trkpt lat="44.4696162" lon="10.8002147"><ele>463.0</ele><time>2026-05-02T07:07:29.225Z</time></trkpt><trkpt lat="44.4695789" lon="10.8003171"><ele>463.0</ele><time>2026-05-02T07:07:30.224Z</time></trkpt><trkpt lat="44.469543" lon="10.800416"><ele>463.00000000000006</ele><time>2026-05-02T07:07:31.191Z</time></trkpt><trkpt lat="44.4695058" lon="10.8004891"><ele>463.0</ele><time>2026-05-02T07:07:32.225Z</time></trkpt><trkpt lat="44.4694336" lon="10.8005656"><ele>464.4</ele><time>2026-05-02T07:07:34.157Z</time></trkpt><trkpt lat="44.4693415" lon="10.8005687"><ele>465.79999999999995</ele><time>2026-05-02T07:07:36.168Z</time></trkpt><trkpt lat="44.4692309" lon="10.8005925"><ele>467.2</ele><time>2026-05-02T07:07:38.183Z</time></trkpt><trkpt lat="44.4691183" lon="10.8006593"><ele>468.6</ele><time>2026-05-02T07:07:40.202Z</time></trkpt><trkpt lat="44.4690435" lon="10.8007666"><ele>470.0</ele><time>2026-05-02T07:07:42.224Z</time></trkpt><trkpt lat="44.4690104" lon="10.8008455"><ele>469.99999999999994</ele><time>2026-05-02T07:07:43.169Z</time></trkpt><trkpt lat="44.4689641" lon="10.8009196"><ele>470.0</ele><time>2026-05-02T07:07:44.227Z</time></trkpt><trkpt lat="44.4689247" lon="10.8010214"><ele>470.0</ele><time>2026-05-02T07:07:45.182Z</time></trkpt><trkpt lat="44.468883" lon="10.8011375"><ele>470.0</ele><time>2026-05-02T07:07:46.238Z</time></trkpt><trkpt lat="44.4688361" lon="10.8012457"><ele>469.99999999999994</ele><time>2026-05-02T07:07:47.212Z</time></trkpt><trkpt lat="44.4687806" lon="10.8013543"><ele>470.0</ele><time>2026-05-02T07:07:48.218Z</time></trkpt><trkpt lat="44.4687251" lon="10.8014568"><ele>470.16666666666663</ele><time>2026-05-02T07:07:49.218Z</time></trkpt><trkpt lat="44.4686689" lon="10.8015595"><ele>470.3333333333333</ele><time>2026-05-02T07:07:50.253Z</time></trkpt><trkpt lat="44.4686114" lon="10.8016541"><ele>470.5</ele><time>2026-05-02T07:07:51.226Z</time></trkpt><trkpt lat="44.4685533" lon="10.8017478"><ele>470.66666666666663</ele><time>2026-05-02T07:07:52.239Z</time></trkpt><trkpt lat="44.4684867" lon="10.8018133"><ele>470.8333333333333</ele><time>2026-05-02T07:07:53.219Z</time></trkpt><trkpt lat="44.4684224" lon="10.8018593"><ele>471.0</ele><time>2026-05-02T07:07:54.213Z</time></trkpt><trkpt lat="44.4683581" lon="10.8018956"><ele>471.0</ele><time>2026-05-02T07:07:55.226Z</time></trkpt><trkpt lat="44.4682921" lon="10.801919"><ele>471.0</ele><time>2026-05-02T07:07:56.234Z</time></trkpt><trkpt lat="44.4682219" lon="10.8019374"><ele>471.0</ele><time>2026-05-02T07:07:57.237Z</time></trkpt><trkpt lat="44.4681453" lon="10.8019485"><ele>471.0</ele><time>2026-05-02T07:07:58.241Z</time></trkpt><trkpt lat="44.4680632" lon="10.801966"><ele>471.0</ele><time>2026-05-02T07:07:59.213Z</time></trkpt><trkpt lat="44.4679777" lon="10.8019949"><ele>471.0</ele><time>2026-05-02T07:08:00.233Z</time></trkpt><trkpt lat="44.4678906" lon="10.8020378"><ele>467.0</ele><time>2026-05-02T07:08:01.224Z</time></trkpt><trkpt lat="44.4678032" lon="10.8020858"><ele>463.0</ele><time>2026-05-02T07:08:02.222Z</time></trkpt><trkpt lat="44.4677165" lon="10.8021432"><ele>459.0</ele><time>2026-05-02T07:08:03.234Z</time></trkpt><trkpt lat="44.4676321" lon="10.8022077"><ele>455.0</ele><time>2026-05-02T07:08:04.218Z</time></trkpt><trkpt lat="44.4675497" lon="10.8022739"><ele>451.0</ele><time>2026-05-02T07:08:05.2Z</time></trkpt><trkpt lat="44.4674702" lon="10.8023396"><ele>451.00000000000006</ele><time>2026-05-02T07:08:06.202Z</time></trkpt><trkpt lat="44.4673904" lon="10.8024054"><ele>451.0</ele><time>2026-05-02T07:08:07.214Z</time></trkpt><trkpt lat="44.4673105" lon="10.8024617"><ele>451.0</ele><time>2026-05-02T07:08:08.214Z</time></trkpt><trkpt lat="44.4672408" lon="10.802516"><ele>451.0</ele><time>2026-05-02T07:08:09.207Z</time></trkpt><trkpt lat="44.467177" lon="10.8025781"><ele>451.00000000000006</ele><time>2026-05-02T07:08:10.208Z</time></trkpt><trkpt lat="44.4671161" lon="10.8026507"><ele>451.0</ele><time>2026-05-02T07:08:11.206Z</time></trkpt><trkpt lat="44.4670555" lon="10.8027255"><ele>450.33333333333337</ele><time>2026-05-02T07:08:12.219Z</time></trkpt><trkpt lat="44.4669914" lon="10.8027919"><ele>449.6666666666667</ele><time>2026-05-02T07:08:13.222Z</time></trkpt><trkpt lat="44.4669226" lon="10.8028432"><ele>449.0</ele><time>2026-05-02T07:08:14.211Z</time></trkpt><trkpt lat="44.4668539" lon="10.8028764"><ele>448.33333333333337</ele><time>2026-05-02T07:08:15.259Z</time></trkpt><trkpt lat="44.4667873" lon="10.8028988"><ele>447.6666666666667</ele><time>2026-05-02T07:08:16.222Z</time></trkpt><trkpt lat="44.4666906" lon="10.8029186"><ele>447.0</ele><time>2026-05-02T07:08:18.222Z</time></trkpt><trkpt lat="44.4666195" lon="10.8029296"><ele>447.0</ele><time>2026-05-02T07:08:20.223Z</time></trkpt><trkpt lat="44.4665606" lon="10.8028897"><ele>447.0</ele><time>2026-05-02T07:08:23.211Z</time></trkpt><trkpt lat="44.46657" lon="10.8027875"><ele>447.0</ele><time>2026-05-02T07:08:26.254Z</time></trkpt><trkpt lat="44.4666291" lon="10.8026744"><ele>447.0</ele><time>2026-05-02T07:08:29.203Z</time></trkpt><trkpt lat="44.4666828" lon="10.8025624"><ele>447.0</ele><time>2026-05-02T07:08:31.194Z</time></trkpt><trkpt lat="44.4667343" lon="10.80244"><ele>447.0</ele><time>2026-05-02T07:08:33.2Z</time></trkpt><trkpt lat="44.4667868" lon="10.8023199"><ele>445.3333333333333</ele><time>2026-05-02T07:08:35.209Z</time></trkpt><trkpt lat="44.4668825" lon="10.8022671"><ele>443.66666666666663</ele><time>2026-05-02T07:08:37.22Z</time></trkpt><trkpt lat="44.4669506" lon="10.8022862"><ele>442.0</ele><time>2026-05-02T07:08:40.211Z</time></trkpt><trkpt lat="44.4669848" lon="10.8021658"><ele>440.3333333333333</ele><time>2026-05-02T07:08:43.2Z</time></trkpt><trkpt lat="44.4669972" lon="10.8020789"><ele>438.66666666666663</ele><time>2026-05-02T07:08:45.226Z</time></trkpt><trkpt lat="44.4669645" lon="10.8019901"><ele>437.0</ele><time>2026-05-02T07:08:48.162Z</time></trkpt><trkpt lat="44.4669327" lon="10.8019054"><ele>434.49999999999994</ele><time>2026-05-02T07:08:50.233Z</time></trkpt><trkpt lat="44.4669158" lon="10.8018051"><ele>432.0</ele><time>2026-05-02T07:08:52.238Z</time></trkpt><trkpt lat="44.4669042" lon="10.8016978"><ele>429.5</ele><time>2026-05-02T07:08:54.225Z</time></trkpt><trkpt lat="44.4668699" lon="10.8015987"><ele>427.0</ele><time>2026-05-02T07:08:56.243Z</time></trkpt><trkpt lat="44.4668421" lon="10.8014794"><ele>424.49999999999994</ele><time>2026-05-02T07:08:58.255Z</time></trkpt><trkpt lat="44.4668055" lon="10.80137"><ele>422.0</ele><time>2026-05-02T07:09:01.212Z</time></trkpt><trkpt lat="44.4667412" lon="10.8013344"><ele>421.99999999999994</ele><time>2026-05-02T07:09:04.22Z</time></trkpt><trkpt lat="44.4666558" lon="10.801316"><ele>422.0</ele><time>2026-05-02T07:09:07.208Z</time></trkpt><trkpt lat="44.4665942" lon="10.8012603"><ele>422.0</ele><time>2026-05-02T07:09:09.2Z</time></trkpt><trkpt lat="44.466535" lon="10.8012022"><ele>422.0</ele><time>2026-05-02T07:09:13.206Z</time></trkpt><trkpt lat="44.4664811" lon="10.8010999"><ele>421.99999999999994</ele><time>2026-05-02T07:09:16.216Z</time></trkpt><trkpt lat="44.4664398" lon="10.8009775"><ele>422.0</ele><time>2026-05-02T07:09:18.219Z</time></trkpt><trkpt lat="44.4663977" lon="10.8008717"><ele>419.99999999999994</ele><time>2026-05-02T07:09:20.193Z</time></trkpt><trkpt lat="44.4663257" lon="10.8007795"><ele>418.0</ele><time>2026-05-02T07:09:22.213Z</time></trkpt><trkpt lat="44.4662494" lon="10.8007137"><ele>416.0</ele><time>2026-05-02T07:09:24.21Z</time></trkpt><trkpt lat="44.4661828" lon="10.8006663"><ele>414.0</ele><time>2026-05-02T07:09:27.2Z</time></trkpt><trkpt lat="44.4661287" lon="10.800611"><ele>411.99999999999994</ele><time>2026-05-02T07:09:52.175Z</time></trkpt><trkpt lat="44.4660717" lon="10.8005579"><ele>410.0</ele><time>2026-05-02T07:09:56.226Z</time></trkpt><trkpt lat="44.4660054" lon="10.8005184"><ele>408.8333333333333</ele><time>2026-05-02T07:10:04.213Z</time></trkpt><trkpt lat="44.4659396" lon="10.8005196"><ele>407.66666666666663</ele><time>2026-05-02T07:10:08.302Z</time></trkpt><trkpt lat="44.4658622" lon="10.8005726"><ele>406.5</ele><time>2026-05-02T07:10:13.208Z</time></trkpt><trkpt lat="44.4657944" lon="10.8005594"><ele>405.33333333333337</ele><time>2026-05-02T07:10:17.218Z</time></trkpt><trkpt lat="44.4657173" lon="10.8004892"><ele>404.1666666666667</ele><time>2026-05-02T07:10:20.187Z</time></trkpt><trkpt lat="44.4656469" lon="10.8004148"><ele>403.0</ele><time>2026-05-02T07:10:22.201Z</time></trkpt><trkpt lat="44.4655753" lon="10.8003425"><ele>403.00000000000006</ele><time>2026-05-02T07:10:24.24Z</time></trkpt><trkpt lat="44.46555" lon="10.8002448"><ele>403.0</ele><time>2026-05-02T07:10:27.238Z</time></trkpt><trkpt lat="44.465563" lon="10.8001509"><ele>403.0</ele><time>2026-05-02T07:10:30.222Z</time></trkpt><trkpt lat="44.4654875" lon="10.80006"><ele>403.0</ele><time>2026-05-02T07:10:33.183Z</time></trkpt><trkpt lat="44.4654137" lon="10.800001"><ele>403.00000000000006</ele><time>2026-05-02T07:10:35.198Z</time></trkpt><trkpt lat="44.4653807" lon="10.7999011"><ele>403.0</ele><time>2026-05-02T07:10:37.177Z</time></trkpt><trkpt lat="44.4653681" lon="10.7997998"><ele>402.0</ele><time>2026-05-02T07:10:39.213Z</time></trkpt><trkpt lat="44.4653813" lon="10.7996848"><ele>401.0</ele><time>2026-05-02T07:11:51.2Z</time></trkpt><trkpt lat="44.465383" lon="10.7995675"><ele>400.0</ele><time>2026-05-02T07:11:53.217Z</time></trkpt><trkpt lat="44.4653897" lon="10.7994048"><ele>399.0</ele><time>2026-05-02T07:11:55.211Z</time></trkpt><trkpt lat="44.4653941" lon="10.7993166"><ele>398.0</ele><time>2026-05-02T07:11:56.203Z</time></trkpt><trkpt lat="44.465394" lon="10.7991706"><ele>398.0</ele><time>2026-05-02T07:11:58.228Z</time></trkpt><trkpt lat="44.4653847" lon="10.7990283"><ele>398.0</ele><time>2026-05-02T07:12:00.22Z</time></trkpt><trkpt lat="44.4653603" lon="10.7988833"><ele>398.0</ele><time>2026-05-02T07:12:02.215Z</time></trkpt><trkpt lat="44.4653185" lon="10.7987641"><ele>398.0</ele><time>2026-05-02T07:12:04.221Z</time></trkpt><trkpt lat="44.4652574" lon="10.7986541"><ele>398.0</ele><time>2026-05-02T07:12:06.211Z</time></trkpt><trkpt lat="44.4651847" lon="10.798546"><ele>396.2</ele><time>2026-05-02T07:12:08.21Z</time></trkpt><trkpt lat="44.4651143" lon="10.7984262"><ele>394.4</ele><time>2026-05-02T07:12:10.206Z</time></trkpt><trkpt lat="44.465066" lon="10.7983208"><ele>392.59999999999997</ele><time>2026-05-02T07:12:12.202Z</time></trkpt><trkpt lat="44.4649872" lon="10.7982865"><ele>390.79999999999995</ele><time>2026-05-02T07:12:14.194Z</time></trkpt><trkpt lat="44.4648876" lon="10.7982883"><ele>389.0</ele><time>2026-05-02T07:12:16.207Z</time></trkpt><trkpt lat="44.4647852" lon="10.798291"><ele>388.99999999999994</ele><time>2026-05-02T07:12:18.231Z</time></trkpt><trkpt lat="44.464692" lon="10.7983041"><ele>389.0</ele><time>2026-05-02T07:12:20.208Z</time></trkpt><trkpt lat="44.4646207" lon="10.7983076"><ele>389.0</ele><time>2026-05-02T07:12:22.2Z</time></trkpt><trkpt lat="44.464552" lon="10.7982957"><ele>389.0</ele><time>2026-05-02T07:12:24.208Z</time></trkpt><trkpt lat="44.4644793" lon="10.7983191"><ele>388.99999999999994</ele><time>2026-05-02T07:12:46.199Z</time></trkpt><trkpt lat="44.4644006" lon="10.7983806"><ele>389.0</ele><time>2026-05-02T07:12:49.221Z</time></trkpt><trkpt lat="44.4643345" lon="10.7984591"><ele>389.3333333333333</ele><time>2026-05-02T07:12:52.231Z</time></trkpt><trkpt lat="44.4642531" lon="10.7984618"><ele>389.66666666666663</ele><time>2026-05-02T07:12:55.188Z</time></trkpt><trkpt lat="44.4641871" lon="10.7983809"><ele>390.0</ele><time>2026-05-02T07:12:58.238Z</time></trkpt><trkpt lat="44.4641256" lon="10.7982956"><ele>390.33333333333337</ele><time>2026-05-02T07:13:01.205Z</time></trkpt><trkpt lat="44.4640641" lon="10.7981981"><ele>390.6666666666667</ele><time>2026-05-02T07:13:15.212Z</time></trkpt><trkpt lat="44.4640259" lon="10.7981138"><ele>391.0</ele><time>2026-05-02T07:13:17.217Z</time></trkpt><trkpt lat="44.4639704" lon="10.7980282"><ele>391.00000000000006</ele><time>2026-05-02T07:13:19.229Z</time></trkpt><trkpt lat="44.4639058" lon="10.7979388"><ele>391.0</ele><time>2026-05-02T07:13:21.223Z</time></trkpt><trkpt lat="44.4638585" lon="10.7978438"><ele>391.0</ele><time>2026-05-02T07:13:29.243Z</time></trkpt><trkpt lat="44.4637904" lon="10.7977528"><ele>391.0</ele><time>2026-05-02T07:15:25.219Z</time></trkpt><trkpt lat="44.4637615" lon="10.7976441"><ele>391.00000000000006</ele><time>2026-05-02T07:15:27.188Z</time></trkpt><trkpt lat="44.4637368" lon="10.7975164"><ele>391.0</ele><time>2026-05-02T07:15:29.232Z</time></trkpt><trkpt lat="44.4637282" lon="10.7973999"><ele>391.50000000000006</ele><time>2026-05-02T07:15:31.211Z</time></trkpt><trkpt lat="44.4637417" lon="10.797302"><ele>392.0</ele><time>2026-05-02T07:15:33.21Z</time></trkpt><trkpt lat="44.4637724" lon="10.7972044"><ele>392.5</ele><time>2026-05-02T07:15:35.226Z</time></trkpt><trkpt lat="44.4638144" lon="10.797105"><ele>393.0</ele><time>2026-05-02T07:15:37.155Z</time></trkpt><trkpt lat="44.4638654" lon="10.7969922"><ele>393.50000000000006</ele><time>2026-05-02T07:15:39.176Z</time></trkpt><trkpt lat="44.4639206" lon="10.7969045"><ele>394.0</ele><time>2026-05-02T07:15:41.169Z</time></trkpt><trkpt lat="44.4639989" lon="10.7968298"><ele>395.83333333333337</ele><time>2026-05-02T07:15:43.176Z</time></trkpt><trkpt lat="44.4640498" lon="10.7967772"><ele>397.6666666666667</ele><time>2026-05-02T07:15:44.201Z</time></trkpt><trkpt lat="44.4640929" lon="10.7967104"><ele>399.5</ele><time>2026-05-02T07:15:45.213Z</time></trkpt><trkpt lat="44.4641703" lon="10.7966062"><ele>401.33333333333337</ele><time>2026-05-02T07:15:47.198Z</time></trkpt><trkpt lat="44.4642527" lon="10.79651"><ele>403.1666666666667</ele><time>2026-05-02T07:15:49.198Z</time></trkpt><trkpt lat="44.4643412" lon="10.796441"><ele>405.0</ele><time>2026-05-02T07:15:51.193Z</time></trkpt><trkpt lat="44.4644617" lon="10.7963898"><ele>405.0</ele><time>2026-05-02T07:15:53.209Z</time></trkpt><trkpt lat="44.4645324" lon="10.7963471"><ele>405.0</ele><time>2026-05-02T07:15:54.19Z</time></trkpt><trkpt lat="44.4645961" lon="10.7963167"><ele>405.0</ele><time>2026-05-02T07:15:55.212Z</time></trkpt><trkpt lat="44.4646769" lon="10.7962918"><ele>405.0</ele><time>2026-05-02T07:15:57.21Z</time></trkpt><trkpt lat="44.4646774" lon="10.7962031"><ele>405.0</ele><time>2026-05-02T07:15:59.229Z</time></trkpt><trkpt lat="44.4645846" lon="10.7961256"><ele>405.0</ele><time>2026-05-02T07:16:01.178Z</time></trkpt><trkpt lat="44.4644717" lon="10.796015"><ele>407.0</ele><time>2026-05-02T07:16:03.167Z</time></trkpt><trkpt lat="44.4644271" lon="10.7959366"><ele>409.0</ele><time>2026-05-02T07:16:04.205Z</time></trkpt><trkpt lat="44.4643879" lon="10.7958632"><ele>411.0</ele><time>2026-05-02T07:16:05.17Z</time></trkpt><trkpt lat="44.4643458" lon="10.7957866"><ele>413.0</ele><time>2026-05-02T07:16:06.219Z</time></trkpt><trkpt lat="44.4643115" lon="10.7957083"><ele>415.0</ele><time>2026-05-02T07:16:07.185Z</time></trkpt><trkpt lat="44.4642644" lon="10.7955639"><ele>417.0</ele><time>2026-05-02T07:16:09.184Z</time></trkpt><trkpt lat="44.4642254" lon="10.7954531"><ele>417.0</ele><time>2026-05-02T07:16:11.202Z</time></trkpt><trkpt lat="44.4641945" lon="10.795337"><ele>417.0</ele><time>2026-05-02T07:16:13.203Z</time></trkpt><trkpt lat="44.4641621" lon="10.7952168"><ele>417.0</ele><time>2026-05-02T07:16:15.208Z</time></trkpt><trkpt lat="44.4641231" lon="10.7951003"><ele>417.0</ele><time>2026-05-02T07:16:17.182Z</time></trkpt><trkpt lat="44.4640756" lon="10.7949769"><ele>417.0</ele><time>2026-05-02T07:16:19.223Z</time></trkpt><trkpt lat="44.4640119" lon="10.7948458"><ele>417.5</ele><time>2026-05-02T07:16:21.228Z</time></trkpt><trkpt lat="44.4639403" lon="10.7947195"><ele>418.0</ele><time>2026-05-02T07:16:23.224Z</time></trkpt><trkpt lat="44.4638612" lon="10.7945874"><ele>418.5</ele><time>2026-05-02T07:16:25.216Z</time></trkpt><trkpt lat="44.4637933" lon="10.794442"><ele>419.0</ele><time>2026-05-02T07:16:27.215Z</time></trkpt><trkpt lat="44.4637452" lon="10.794296"><ele>422.49999999999994</ele><time>2026-05-02T07:16:29.183Z</time></trkpt><trkpt lat="44.4637068" lon="10.7941191"><ele>426.0</ele><time>2026-05-02T07:16:31.209Z</time></trkpt><trkpt lat="44.463679" lon="10.7940196"><ele>429.5</ele><time>2026-05-02T07:16:32.212Z</time></trkpt><trkpt lat="44.4636512" lon="10.7939234"><ele>433.0</ele><time>2026-05-02T07:16:33.222Z</time></trkpt><trkpt lat="44.4636059" lon="10.7938417"><ele>436.49999999999994</ele><time>2026-05-02T07:16:34.219Z</time></trkpt><trkpt lat="44.4635671" lon="10.7937624"><ele>440.0</ele><time>2026-05-02T07:16:35.222Z</time></trkpt><trkpt lat="44.4635076" lon="10.79362"><ele>438.8333333333333</ele><time>2026-05-02T07:16:37.217Z</time></trkpt><trkpt lat="44.4634477" lon="10.7934682"><ele>437.66666666666663</ele><time>2026-05-02T07:16:39.271Z</time></trkpt><trkpt lat="44.4634113" lon="10.7933881"><ele>436.5</ele><time>2026-05-02T07:16:40.229Z</time></trkpt><trkpt lat="44.463364" lon="10.7933102"><ele>435.33333333333337</ele><time>2026-05-02T07:16:41.208Z</time></trkpt><trkpt lat="44.4633085" lon="10.7932418"><ele>434.1666666666667</ele><time>2026-05-02T07:16:42.225Z</time></trkpt><trkpt lat="44.4632474" lon="10.7931809"><ele>433.0</ele><time>2026-05-02T07:16:43.19Z</time></trkpt><trkpt lat="44.4631832" lon="10.7931231"><ele>433.0</ele><time>2026-05-02T07:16:44.217Z</time></trkpt><trkpt lat="44.4631175" lon="10.7930538"><ele>432.99999999999994</ele><time>2026-05-02T07:16:45.181Z</time></trkpt><trkpt lat="44.4630658" lon="10.7929721"><ele>432.99999999999994</ele><time>2026-05-02T07:16:46.23Z</time></trkpt><trkpt lat="44.4630089" lon="10.7928803"><ele>433.0</ele><time>2026-05-02T07:16:47.198Z</time></trkpt><trkpt lat="44.4629611" lon="10.7927588"><ele>433.0</ele><time>2026-05-02T07:16:48.213Z</time></trkpt><trkpt lat="44.4629097" lon="10.79263"><ele>436.79999999999995</ele><time>2026-05-02T07:16:49.21Z</time></trkpt><trkpt lat="44.4628639" lon="10.7925016"><ele>440.59999999999997</ele><time>2026-05-02T07:16:50.209Z</time></trkpt><trkpt lat="44.4628219" lon="10.7923782"><ele>444.40000000000003</ele><time>2026-05-02T07:16:51.18Z</time></trkpt><trkpt lat="44.4627803" lon="10.7922611"><ele>448.20000000000005</ele><time>2026-05-02T07:16:52.208Z</time></trkpt><trkpt lat="44.4627455" lon="10.7921681"><ele>452.0</ele><time>2026-05-02T07:16:53.232Z</time></trkpt><trkpt lat="44.4626783" lon="10.792032"><ele>451.99999999999994</ele><time>2026-05-02T07:16:55.223Z</time></trkpt><trkpt lat="44.4625935" lon="10.7919076"><ele>452.0</ele><time>2026-05-02T07:16:57.254Z</time></trkpt><trkpt lat="44.4624983" lon="10.7917964"><ele>452.0</ele><time>2026-05-02T07:16:59.229Z</time></trkpt><trkpt lat="44.4624488" lon="10.7917416"><ele>452.0</ele><time>2026-05-02T07:17:00.211Z</time></trkpt><trkpt lat="44.4623915" lon="10.7916876"><ele>451.99999999999994</ele><time>2026-05-02T07:17:01.239Z</time></trkpt><trkpt lat="44.4623326" lon="10.7916378"><ele>452.0</ele><time>2026-05-02T07:17:02.245Z</time></trkpt><trkpt lat="44.4622767" lon="10.7915884"><ele>451.8571428571429</ele><time>2026-05-02T07:17:03.228Z</time></trkpt><trkpt lat="44.4622196" lon="10.7915405"><ele>451.71428571428567</ele><time>2026-05-02T07:17:04.238Z</time></trkpt><trkpt lat="44.4621603" lon="10.7915011"><ele>451.57142857142856</ele><time>2026-05-02T07:17:05.226Z</time></trkpt><trkpt lat="44.4620994" lon="10.7914721"><ele>451.42857142857144</ele><time>2026-05-02T07:17:06.189Z</time></trkpt><trkpt lat="44.4620386" lon="10.7914444"><ele>451.28571428571433</ele><time>2026-05-02T07:17:07.211Z</time></trkpt><trkpt lat="44.4619747" lon="10.7914195"><ele>451.1428571428571</ele><time>2026-05-02T07:17:08.21Z</time></trkpt><trkpt lat="44.4619096" lon="10.7913845"><ele>451.0</ele><time>2026-05-02T07:17:09.213Z</time></trkpt><trkpt lat="44.4618407" lon="10.7913478"><ele>451.0</ele><time>2026-05-02T07:17:10.205Z</time></trkpt><trkpt lat="44.4617773" lon="10.7913116"><ele>451.0</ele><time>2026-05-02T07:17:11.206Z</time></trkpt><trkpt lat="44.461718" lon="10.7912746"><ele>451.0</ele><time>2026-05-02T07:17:12.223Z</time></trkpt><trkpt lat="44.4616598" lon="10.7912356"><ele>451.0</ele><time>2026-05-02T07:17:13.203Z</time></trkpt><trkpt lat="44.4615997" lon="10.7911967"><ele>451.0</ele><time>2026-05-02T07:17:14.211Z</time></trkpt><trkpt lat="44.4615367" lon="10.7911659"><ele>451.0</ele><time>2026-05-02T07:17:15.208Z</time></trkpt><trkpt lat="44.4614672" lon="10.7911436"><ele>451.0</ele><time>2026-05-02T07:17:16.21Z</time></trkpt><trkpt lat="44.4613925" lon="10.7911309"><ele>451.00000000000006</ele><time>2026-05-02T07:17:17.199Z</time></trkpt><trkpt lat="44.4613152" lon="10.7911273"><ele>451.0</ele><time>2026-05-02T07:17:18.208Z</time></trkpt><trkpt lat="44.4612415" lon="10.7911234"><ele>451.0</ele><time>2026-05-02T07:17:19.211Z</time></trkpt><trkpt lat="44.461158" lon="10.7911041"><ele>451.0</ele><time>2026-05-02T07:17:20.246Z</time></trkpt><trkpt lat="44.4610763" lon="10.7910811"><ele>451.00000000000006</ele><time>2026-05-02T07:17:21.206Z</time></trkpt><trkpt lat="44.4609885" lon="10.7910549"><ele>451.0</ele><time>2026-05-02T07:17:22.213Z</time></trkpt><trkpt lat="44.4609005" lon="10.7910138"><ele>449.0</ele><time>2026-05-02T07:17:23.207Z</time></trkpt><trkpt lat="44.460801" lon="10.7909547"><ele>447.0</ele><time>2026-05-02T07:17:24.22Z</time></trkpt><trkpt lat="44.4607065" lon="10.7908936"><ele>445.0</ele><time>2026-05-02T07:17:25.214Z</time></trkpt><trkpt lat="44.4606201" lon="10.7908438"><ele>443.0</ele><time>2026-05-02T07:17:26.25Z</time></trkpt><trkpt lat="44.4605406" lon="10.7908045"><ele>441.0</ele><time>2026-05-02T07:17:27.211Z</time></trkpt><trkpt lat="44.460462" lon="10.7907726"><ele>441.57142857142856</ele><time>2026-05-02T07:17:28.207Z</time></trkpt><trkpt lat="44.4603835" lon="10.7907489"><ele>442.1428571428571</ele><time>2026-05-02T07:17:29.222Z</time></trkpt><trkpt lat="44.460307" lon="10.7907339"><ele>442.7142857142857</ele><time>2026-05-02T07:17:30.216Z</time></trkpt><trkpt lat="44.4602307" lon="10.7907188"><ele>443.2857142857143</ele><time>2026-05-02T07:17:31.216Z</time></trkpt><trkpt lat="44.4601542" lon="10.7907182"><ele>443.85714285714283</ele><time>2026-05-02T07:17:32.226Z</time></trkpt><trkpt lat="44.4600829" lon="10.7907126"><ele>444.42857142857144</ele><time>2026-05-02T07:17:33.217Z</time></trkpt><trkpt lat="44.4600176" lon="10.790704"><ele>445.0</ele><time>2026-05-02T07:17:34.204Z</time></trkpt><trkpt lat="44.4599578" lon="10.7906535"><ele>445.00000000000006</ele><time>2026-05-02T07:17:35.236Z</time></trkpt><trkpt lat="44.4598965" lon="10.7905865"><ele>445.0</ele><time>2026-05-02T07:17:36.234Z</time></trkpt><trkpt lat="44.4598351" lon="10.790517"><ele>445.0</ele><time>2026-05-02T07:17:37.196Z</time></trkpt><trkpt lat="44.4597773" lon="10.7904329"><ele>445.0</ele><time>2026-05-02T07:17:38.201Z</time></trkpt><trkpt lat="44.459719" lon="10.7903486"><ele>445.00000000000006</ele><time>2026-05-02T07:17:39.238Z</time></trkpt><trkpt lat="44.4596645" lon="10.7902581"><ele>445.0</ele><time>2026-05-02T07:17:40.226Z</time></trkpt><trkpt lat="44.4596129" lon="10.7901571"><ele>445.0</ele><time>2026-05-02T07:17:41.217Z</time></trkpt><trkpt lat="44.4595625" lon="10.7900432"><ele>445.0</ele><time>2026-05-02T07:17:42.207Z</time></trkpt><trkpt lat="44.4595162" lon="10.7899242"><ele>445.0</ele><time>2026-05-02T07:17:43.204Z</time></trkpt><trkpt lat="44.4594714" lon="10.7898148"><ele>445.0</ele><time>2026-05-02T07:17:44.22Z</time></trkpt><trkpt lat="44.4594238" lon="10.7897095"><ele>445.0</ele><time>2026-05-02T07:17:45.219Z</time></trkpt><trkpt lat="44.4593736" lon="10.7896036"><ele>445.00000000000006</ele><time>2026-05-02T07:17:46.221Z</time></trkpt><trkpt lat="44.4593245" lon="10.7895017"><ele>445.0</ele><time>2026-05-02T07:17:47.251Z</time></trkpt><trkpt lat="44.4592754" lon="10.7894062"><ele>445.0</ele><time>2026-05-02T07:17:48.262Z</time></trkpt><trkpt lat="44.4592287" lon="10.7893358"><ele>445.0</ele><time>2026-05-02T07:17:49.231Z</time></trkpt><trkpt lat="44.459168" lon="10.7892374"><ele>445.00000000000006</ele><time>2026-05-02T07:17:51.224Z</time></trkpt><trkpt lat="44.4591909" lon="10.7891208"><ele>445.0</ele><time>2026-05-02T07:17:53.201Z</time></trkpt><trkpt lat="44.4592435" lon="10.7890573"><ele>443.83333333333337</ele><time>2026-05-02T07:17:54.212Z</time></trkpt><trkpt lat="44.4593131" lon="10.7890011"><ele>442.6666666666667</ele><time>2026-05-02T07:17:55.207Z</time></trkpt><trkpt lat="44.459387" lon="10.7889515"><ele>441.5</ele><time>2026-05-02T07:17:56.22Z</time></trkpt><trkpt lat="44.459467" lon="10.7888949"><ele>440.33333333333337</ele><time>2026-05-02T07:17:57.208Z</time></trkpt><trkpt lat="44.459548" lon="10.7888368"><ele>439.1666666666667</ele><time>2026-05-02T07:17:58.206Z</time></trkpt><trkpt lat="44.4596287" lon="10.7887696"><ele>438.0</ele><time>2026-05-02T07:17:59.221Z</time></trkpt><trkpt lat="44.4597098" lon="10.7887036"><ele>437.0</ele><time>2026-05-02T07:18:00.22Z</time></trkpt><trkpt lat="44.4597932" lon="10.7886404"><ele>436.0</ele><time>2026-05-02T07:18:01.247Z</time></trkpt><trkpt lat="44.4598698" lon="10.7885764"><ele>435.0</ele><time>2026-05-02T07:18:02.212Z</time></trkpt><trkpt lat="44.459945" lon="10.7885051"><ele>434.0</ele><time>2026-05-02T07:18:03.225Z</time></trkpt><trkpt lat="44.460012" lon="10.7884306"><ele>433.0</ele><time>2026-05-02T07:18:04.273Z</time></trkpt><trkpt lat="44.4600737" lon="10.7883536"><ele>432.0</ele><time>2026-05-02T07:18:05.24Z</time></trkpt><trkpt lat="44.4601356" lon="10.7882708"><ele>431.3333333333333</ele><time>2026-05-02T07:18:06.171Z</time></trkpt><trkpt lat="44.4601967" lon="10.7881846"><ele>430.66666666666663</ele><time>2026-05-02T07:18:07.208Z</time></trkpt><trkpt lat="44.4602573" lon="10.7880968"><ele>430.0</ele><time>2026-05-02T07:18:08.228Z</time></trkpt><trkpt lat="44.460316" lon="10.7880124"><ele>429.3333333333333</ele><time>2026-05-02T07:18:09.214Z</time></trkpt><trkpt lat="44.4603743" lon="10.7879207"><ele>428.66666666666663</ele><time>2026-05-02T07:18:10.282Z</time></trkpt><trkpt lat="44.4604262" lon="10.7878208"><ele>428.0</ele><time>2026-05-02T07:18:11.229Z</time></trkpt><trkpt lat="44.4604682" lon="10.7877341"><ele>427.00000000000006</ele><time>2026-05-02T07:18:12.212Z</time></trkpt><trkpt lat="44.4605061" lon="10.7876401"><ele>426.0</ele><time>2026-05-02T07:18:13.207Z</time></trkpt><trkpt lat="44.4605426" lon="10.7875535"><ele>425.0</ele><time>2026-05-02T07:18:14.206Z</time></trkpt><trkpt lat="44.4605672" lon="10.7874681"><ele>424.0</ele><time>2026-05-02T07:18:15.226Z</time></trkpt><trkpt lat="44.4605826" lon="10.787375"><ele>423.0</ele><time>2026-05-02T07:18:16.204Z</time></trkpt><trkpt lat="44.4606034" lon="10.7872839"><ele>422.00000000000006</ele><time>2026-05-02T07:18:17.222Z</time></trkpt><trkpt lat="44.4606291" lon="10.7871987"><ele>421.0</ele><time>2026-05-02T07:18:18.223Z</time></trkpt><trkpt lat="44.4606655" lon="10.787106"><ele>421.00000000000006</ele><time>2026-05-02T07:18:19.216Z</time></trkpt><trkpt lat="44.4607072" lon="10.7870226"><ele>421.0</ele><time>2026-05-02T07:18:20.195Z</time></trkpt><trkpt lat="44.4607464" lon="10.7869487"><ele>421.0</ele><time>2026-05-02T07:18:21.212Z</time></trkpt><trkpt lat="44.4608167" lon="10.7868123"><ele>421.0</ele><time>2026-05-02T07:18:23.198Z</time></trkpt><trkpt lat="44.4609008" lon="10.7866949"><ele>421.00000000000006</ele><time>2026-05-02T07:18:25.187Z</time></trkpt><trkpt lat="44.4609522" lon="10.7866406"><ele>421.0</ele><time>2026-05-02T07:18:26.191Z</time></trkpt><trkpt lat="44.4610061" lon="10.7865894"><ele>421.00000000000006</ele><time>2026-05-02T07:18:27.208Z</time></trkpt><trkpt lat="44.4610655" lon="10.7865425"><ele>421.0</ele><time>2026-05-02T07:18:28.216Z</time></trkpt><trkpt lat="44.4611241" lon="10.7865001"><ele>421.0</ele><time>2026-05-02T07:18:29.232Z</time></trkpt><trkpt lat="44.4611928" lon="10.7864484"><ele>421.0</ele><time>2026-05-02T07:18:30.223Z</time></trkpt><trkpt lat="44.4612664" lon="10.7863916"><ele>421.00000000000006</ele><time>2026-05-02T07:18:31.205Z</time></trkpt><trkpt lat="44.4613445" lon="10.7863275"><ele>421.0</ele><time>2026-05-02T07:18:32.238Z</time></trkpt><trkpt lat="44.4614146" lon="10.7862638"><ele>420.33333333333337</ele><time>2026-05-02T07:18:33.265Z</time></trkpt><trkpt lat="44.4614756" lon="10.7861908"><ele>419.6666666666667</ele><time>2026-05-02T07:18:34.224Z</time></trkpt><trkpt lat="44.46153" lon="10.7861067"><ele>419.0</ele><time>2026-05-02T07:18:35.222Z</time></trkpt><trkpt lat="44.4615741" lon="10.7860062"><ele>418.33333333333337</ele><time>2026-05-02T07:18:36.189Z</time></trkpt><trkpt lat="44.4616123" lon="10.7858899"><ele>417.6666666666667</ele><time>2026-05-02T07:18:37.222Z</time></trkpt><trkpt lat="44.4616478" lon="10.7857838"><ele>417.0</ele><time>2026-05-02T07:18:38.186Z</time></trkpt><trkpt lat="44.4616794" lon="10.785689"><ele>417.0</ele><time>2026-05-02T07:18:39.273Z</time></trkpt><trkpt lat="44.4617084" lon="10.7855922"><ele>417.0</ele><time>2026-05-02T07:18:40.183Z</time></trkpt><trkpt lat="44.4617401" lon="10.7854931"><ele>417.0</ele><time>2026-05-02T07:18:41.161Z</time></trkpt><trkpt lat="44.4617829" lon="10.7853961"><ele>417.0</ele><time>2026-05-02T07:18:42.246Z</time></trkpt><trkpt lat="44.4618372" lon="10.785308"><ele>417.0</ele><time>2026-05-02T07:18:43.232Z</time></trkpt><trkpt lat="44.461895" lon="10.7852303"><ele>417.0</ele><time>2026-05-02T07:18:44.218Z</time></trkpt><trkpt lat="44.4619519" lon="10.785164"><ele>415.6666666666667</ele><time>2026-05-02T07:18:45.207Z</time></trkpt><trkpt lat="44.4620036" lon="10.7851036"><ele>414.33333333333337</ele><time>2026-05-02T07:18:46.195Z</time></trkpt><trkpt lat="44.4621" lon="10.7849905"><ele>413.0</ele><time>2026-05-02T07:18:48.208Z</time></trkpt><trkpt lat="44.4621498" lon="10.7849334"><ele>411.6666666666667</ele><time>2026-05-02T07:18:49.174Z</time></trkpt><trkpt lat="44.462202" lon="10.784877"><ele>410.33333333333337</ele><time>2026-05-02T07:18:50.195Z</time></trkpt><trkpt lat="44.4622564" lon="10.7848215"><ele>409.0</ele><time>2026-05-02T07:18:51.198Z</time></trkpt><trkpt lat="44.4623079" lon="10.7847686"><ele>407.79999999999995</ele><time>2026-05-02T07:18:52.207Z</time></trkpt><trkpt lat="44.4624021" lon="10.7846656"><ele>406.59999999999997</ele><time>2026-05-02T07:18:54.205Z</time></trkpt><trkpt lat="44.462482" lon="10.7845677"><ele>405.4</ele><time>2026-05-02T07:18:56.21Z</time></trkpt><trkpt lat="44.4625275" lon="10.7844987"><ele>404.2</ele><time>2026-05-02T07:18:58.191Z</time></trkpt><trkpt lat="44.4625289" lon="10.7843774"><ele>403.0</ele><time>2026-05-02T07:19:01.206Z</time></trkpt><trkpt lat="44.4624693" lon="10.7842847"><ele>402.00000000000006</ele><time>2026-05-02T07:19:04.225Z</time></trkpt><trkpt lat="44.4624304" lon="10.7842075"><ele>401.0</ele><time>2026-05-02T07:19:06.192Z</time></trkpt><trkpt lat="44.4623967" lon="10.7841016"><ele>400.0</ele><time>2026-05-02T07:19:08.229Z</time></trkpt><trkpt lat="44.4623671" lon="10.7839973"><ele>399.0</ele><time>2026-05-02T07:19:10.227Z</time></trkpt><trkpt lat="44.4623214" lon="10.7839176"><ele>398.00000000000006</ele><time>2026-05-02T07:19:12.229Z</time></trkpt><trkpt lat="44.4622481" lon="10.7838595"><ele>397.0</ele><time>2026-05-02T07:19:14.235Z</time></trkpt><trkpt lat="44.4621554" lon="10.7838318"><ele>396.00000000000006</ele><time>2026-05-02T07:19:16.201Z</time></trkpt><trkpt lat="44.4620799" lon="10.7838032"><ele>395.0</ele><time>2026-05-02T07:19:18.224Z</time></trkpt><trkpt lat="44.4619851" lon="10.7837628"><ele>394.0</ele><time>2026-05-02T07:19:20.216Z</time></trkpt><trkpt lat="44.4618844" lon="10.7837587"><ele>393.0</ele><time>2026-05-02T07:19:22.23Z</time></trkpt><trkpt lat="44.4617928" lon="10.7837619"><ele>392.00000000000006</ele><time>2026-05-02T07:19:24.182Z</time></trkpt><trkpt lat="44.461747" lon="10.7837002"><ele>391.0</ele><time>2026-05-02T07:19:26.191Z</time></trkpt><trkpt lat="44.4617485" lon="10.7836079"><ele>391.0</ele><time>2026-05-02T07:19:28.209Z</time></trkpt><trkpt lat="44.4618301" lon="10.78354"><ele>391.0</ele><time>2026-05-02T07:19:30.225Z</time></trkpt><trkpt lat="44.4619193" lon="10.7834572"><ele>391.0</ele><time>2026-05-02T07:19:32.224Z</time></trkpt><trkpt lat="44.461991" lon="10.7833557"><ele>391.0</ele><time>2026-05-02T07:19:34.249Z</time></trkpt><trkpt lat="44.4620474" lon="10.783284"><ele>391.0</ele><time>2026-05-02T07:19:36.209Z</time></trkpt><trkpt lat="44.4620817" lon="10.7831992"><ele>389.00000000000006</ele><time>2026-05-02T07:19:38.198Z</time></trkpt><trkpt lat="44.4621068" lon="10.7830839"><ele>387.0</ele><time>2026-05-02T07:19:40.271Z</time></trkpt><trkpt lat="44.4621341" lon="10.7829728"><ele>385.0</ele><time>2026-05-02T07:19:42.212Z</time></trkpt><trkpt lat="44.4621657" lon="10.7828479"><ele>383.0</ele><time>2026-05-02T07:19:44.215Z</time></trkpt><trkpt lat="44.4621889" lon="10.7827254"><ele>381.0</ele><time>2026-05-02T07:19:46.233Z</time></trkpt><trkpt lat="44.4621853" lon="10.7826119"><ele>379.0</ele><time>2026-05-02T07:19:48.204Z</time></trkpt><trkpt lat="44.4622106" lon="10.7824951"><ele>374.79999999999995</ele><time>2026-05-02T07:19:50.217Z</time></trkpt><trkpt lat="44.4622684" lon="10.7823868"><ele>370.59999999999997</ele><time>2026-05-02T07:19:52.217Z</time></trkpt><trkpt lat="44.4623183" lon="10.782265"><ele>366.4</ele><time>2026-05-02T07:19:54.199Z</time></trkpt><trkpt lat="44.4623727" lon="10.7821237"><ele>362.2</ele><time>2026-05-02T07:19:56.223Z</time></trkpt><trkpt lat="44.46244" lon="10.7820159"><ele>358.0</ele><time>2026-05-02T07:19:58.207Z</time></trkpt><trkpt lat="44.4625209" lon="10.7819715"><ele>358.0</ele><time>2026-05-02T07:20:00.232Z</time></trkpt><trkpt lat="44.4625999" lon="10.781938"><ele>358.0</ele><time>2026-05-02T07:20:02.195Z</time></trkpt><trkpt lat="44.4626794" lon="10.7818685"><ele>358.0</ele><time>2026-05-02T07:20:04.209Z</time></trkpt><trkpt lat="44.4627559" lon="10.7817989"><ele>358.0</ele><time>2026-05-02T07:20:06.215Z</time></trkpt><trkpt lat="44.4628339" lon="10.7817454"><ele>358.0</ele><time>2026-05-02T07:20:08.213Z</time></trkpt><trkpt lat="44.4629278" lon="10.781694"><ele>353.2</ele><time>2026-05-02T07:20:10.205Z</time></trkpt><trkpt lat="44.4630222" lon="10.7816495"><ele>348.4</ele><time>2026-05-02T07:20:12.225Z</time></trkpt><trkpt lat="44.4631293" lon="10.781594"><ele>343.59999999999997</ele><time>2026-05-02T07:20:14.222Z</time></trkpt><trkpt lat="44.4632118" lon="10.7815023"><ele>338.79999999999995</ele><time>2026-05-02T07:20:16.208Z</time></trkpt><trkpt lat="44.4632802" lon="10.7814202"><ele>334.0</ele><time>2026-05-02T07:20:18.236Z</time></trkpt><trkpt lat="44.4633464" lon="10.7813481"><ele>334.0</ele><time>2026-05-02T07:20:20.218Z</time></trkpt><trkpt lat="44.4633979" lon="10.7812689"><ele>334.0</ele><time>2026-05-02T07:20:24.196Z</time></trkpt><trkpt lat="44.4633487" lon="10.7811796"><ele>334.0</ele><time>2026-05-02T07:20:29.187Z</time></trkpt><trkpt lat="44.4632847" lon="10.7811304"><ele>334.0</ele><time>2026-05-02T07:20:32.217Z</time></trkpt><trkpt lat="44.4632474" lon="10.7810353"><ele>334.0</ele><time>2026-05-02T07:20:47.181Z</time></trkpt><trkpt lat="44.4631424" lon="10.7809769"><ele>334.0</ele><time>2026-05-02T07:20:49.219Z</time></trkpt><trkpt lat="44.4630671" lon="10.7809425"><ele>334.0</ele><time>2026-05-02T07:20:50.233Z</time></trkpt><trkpt lat="44.4629742" lon="10.7809006"><ele>334.0</ele><time>2026-05-02T07:20:51.244Z</time></trkpt><trkpt lat="44.4628889" lon="10.7808767"><ele>334.0</ele><time>2026-05-02T07:20:52.164Z</time></trkpt><trkpt lat="44.462815" lon="10.7808565"><ele>334.0</ele><time>2026-05-02T07:20:53.201Z</time></trkpt><trkpt lat="44.4627366" lon="10.7808266"><ele>334.0</ele><time>2026-05-02T07:20:54.231Z</time></trkpt><trkpt lat="44.462667" lon="10.7807923"><ele>334.0</ele><time>2026-05-02T07:20:55.21Z</time></trkpt><trkpt lat="44.4625998" lon="10.7807525"><ele>334.0</ele><time>2026-05-02T07:20:56.22Z</time></trkpt><trkpt lat="44.4625079" lon="10.7806634"><ele>334.0</ele><time>2026-05-02T07:20:58.214Z</time></trkpt><trkpt lat="44.4624365" lon="10.780575"><ele>334.0</ele><time>2026-05-02T07:21:00.201Z</time></trkpt><trkpt lat="44.4623669" lon="10.7804413"><ele>334.0</ele><time>2026-05-02T07:21:02.189Z</time></trkpt><trkpt lat="44.4623105" lon="10.780259"><ele>334.3333333333333</ele><time>2026-05-02T07:21:04.208Z</time></trkpt><trkpt lat="44.4622824" lon="10.7801614"><ele>334.66666666666663</ele><time>2026-05-02T07:21:05.197Z</time></trkpt><trkpt lat="44.4622519" lon="10.7800664"><ele>335.0</ele><time>2026-05-02T07:21:06.208Z</time></trkpt><trkpt lat="44.4622224" lon="10.7799749"><ele>335.3333333333333</ele><time>2026-05-02T07:21:07.242Z</time></trkpt><trkpt lat="44.4621984" lon="10.7798869"><ele>335.6666666666667</ele><time>2026-05-02T07:21:08.217Z</time></trkpt><trkpt lat="44.4621723" lon="10.7797898"><ele>336.0</ele><time>2026-05-02T07:21:09.225Z</time></trkpt><trkpt lat="44.4621422" lon="10.7796745"><ele>336.0</ele><time>2026-05-02T07:21:10.234Z</time></trkpt><trkpt lat="44.4621154" lon="10.7795653"><ele>336.0</ele><time>2026-05-02T07:21:11.172Z</time></trkpt><trkpt lat="44.4620842" lon="10.7794797"><ele>336.0</ele><time>2026-05-02T07:21:12.202Z</time></trkpt><trkpt lat="44.4620513" lon="10.7793999"><ele>336.0</ele><time>2026-05-02T07:21:13.171Z</time></trkpt><trkpt lat="44.4620168" lon="10.7793219"><ele>336.0</ele><time>2026-05-02T07:21:14.181Z</time></trkpt><trkpt lat="44.4619788" lon="10.7792412"><ele>336.0</ele><time>2026-05-02T07:21:15.195Z</time></trkpt><trkpt lat="44.4619411" lon="10.7791605"><ele>336.0</ele><time>2026-05-02T07:21:16.199Z</time></trkpt><trkpt lat="44.4619023" lon="10.7790796"><ele>337.85714285714283</ele><time>2026-05-02T07:21:17.177Z</time></trkpt><trkpt lat="44.4618662" lon="10.7789989"><ele>339.7142857142857</ele><time>2026-05-02T07:21:18.188Z</time></trkpt><trkpt lat="44.4618313" lon="10.7789205"><ele>341.57142857142856</ele><time>2026-05-02T07:21:19.231Z</time></trkpt><trkpt lat="44.4617956" lon="10.7788419"><ele>343.42857142857144</ele><time>2026-05-02T07:21:20.193Z</time></trkpt><trkpt lat="44.4617581" lon="10.7787581"><ele>345.2857142857143</ele><time>2026-05-02T07:21:21.183Z</time></trkpt><trkpt lat="44.4617231" lon="10.7786747"><ele>347.1428571428571</ele><time>2026-05-02T07:21:22.182Z</time></trkpt><trkpt lat="44.4616883" lon="10.7785906"><ele>349.0</ele><time>2026-05-02T07:21:23.217Z</time></trkpt><trkpt lat="44.4616535" lon="10.7785044"><ele>350.5</ele><time>2026-05-02T07:21:24.215Z</time></trkpt><trkpt lat="44.4616193" lon="10.7784213"><ele>352.0</ele><time>2026-05-02T07:21:25.221Z</time></trkpt><trkpt lat="44.46158" lon="10.7783316"><ele>353.5</ele><time>2026-05-02T07:21:26.221Z</time></trkpt><trkpt lat="44.4615408" lon="10.7782429"><ele>355.0</ele><time>2026-05-02T07:21:27.205Z</time></trkpt><trkpt lat="44.4615011" lon="10.7781479"><ele>356.5</ele><time>2026-05-02T07:21:28.192Z</time></trkpt><trkpt lat="44.4614551" lon="10.7780336"><ele>358.0</ele><time>2026-05-02T07:21:29.187Z</time></trkpt><trkpt lat="44.4614039" lon="10.7779074"><ele>358.0</ele><time>2026-05-02T07:21:30.231Z</time></trkpt><trkpt lat="44.4613619" lon="10.7777872"><ele>358.0</ele><time>2026-05-02T07:21:31.214Z</time></trkpt><trkpt lat="44.4613255" lon="10.77767"><ele>358.0</ele><time>2026-05-02T07:21:32.228Z</time></trkpt><trkpt lat="44.4612849" lon="10.7775572"><ele>358.0</ele><time>2026-05-02T07:21:33.225Z</time></trkpt><trkpt lat="44.4612644" lon="10.7774413"><ele>358.0</ele><time>2026-05-02T07:21:34.228Z</time></trkpt><trkpt lat="44.4612563" lon="10.7773443"><ele>358.0</ele><time>2026-05-02T07:21:35.213Z</time></trkpt><trkpt lat="44.4612539" lon="10.7772557"><ele>361.5</ele><time>2026-05-02T07:21:36.203Z</time></trkpt><trkpt lat="44.4612452" lon="10.7770788"><ele>365.0</ele><time>2026-05-02T07:21:38.186Z</time></trkpt><trkpt lat="44.4612374" lon="10.7769659"><ele>368.5</ele><time>2026-05-02T07:21:39.197Z</time></trkpt><trkpt lat="44.4612277" lon="10.7768462"><ele>372.0</ele><time>2026-05-02T07:21:40.184Z</time></trkpt><trkpt lat="44.4612197" lon="10.7767381"><ele>375.5</ele><time>2026-05-02T07:21:41.273Z</time></trkpt><trkpt lat="44.4612128" lon="10.7766323"><ele>379.0</ele><time>2026-05-02T07:21:42.205Z</time></trkpt><trkpt lat="44.4612073" lon="10.7765406"><ele>381.28571428571433</ele><time>2026-05-02T07:21:43.218Z</time></trkpt><trkpt lat="44.4612021" lon="10.776443"><ele>383.57142857142856</ele><time>2026-05-02T07:21:44.23Z</time></trkpt><trkpt lat="44.4611974" lon="10.7763367"><ele>385.8571428571429</ele><time>2026-05-02T07:21:45.2Z</time></trkpt><trkpt lat="44.4611929" lon="10.7762351"><ele>388.14285714285717</ele><time>2026-05-02T07:21:46.23Z</time></trkpt><trkpt lat="44.4611857" lon="10.7761309"><ele>390.42857142857144</ele><time>2026-05-02T07:21:47.243Z</time></trkpt><trkpt lat="44.4611761" lon="10.7760243"><ele>392.7142857142857</ele><time>2026-05-02T07:21:48.254Z</time></trkpt><trkpt lat="44.4611638" lon="10.7759239"><ele>395.0</ele><time>2026-05-02T07:21:49.239Z</time></trkpt><trkpt lat="44.4611508" lon="10.7758255"><ele>397.6</ele><time>2026-05-02T07:21:50.223Z</time></trkpt><trkpt lat="44.4611093" lon="10.7756738"><ele>400.2</ele><time>2026-05-02T07:21:52.206Z</time></trkpt><trkpt lat="44.4610367" lon="10.7755551"><ele>402.79999999999995</ele><time>2026-05-02T07:21:54.211Z</time></trkpt><trkpt lat="44.4609444" lon="10.7754713"><ele>405.4</ele><time>2026-05-02T07:21:56.221Z</time></trkpt><trkpt lat="44.4608639" lon="10.7754083"><ele>408.0</ele><time>2026-05-02T07:21:58.21Z</time></trkpt><trkpt lat="44.4607781" lon="10.7753509"><ele>408.0</ele><time>2026-05-02T07:22:00.171Z</time></trkpt><trkpt lat="44.4606888" lon="10.7752965"><ele>408.0</ele><time>2026-05-02T07:22:02.209Z</time></trkpt><trkpt lat="44.4605773" lon="10.7752379"><ele>408.0</ele><time>2026-05-02T07:22:04.23Z</time></trkpt><trkpt lat="44.4605178" lon="10.775209"><ele>408.0</ele><time>2026-05-02T07:22:05.225Z</time></trkpt><trkpt lat="44.4604576" lon="10.7751798"><ele>408.0</ele><time>2026-05-02T07:22:06.204Z</time></trkpt><trkpt lat="44.4603885" lon="10.7751444"><ele>408.0</ele><time>2026-05-02T07:22:07.188Z</time></trkpt><trkpt lat="44.4603148" lon="10.7750997"><ele>409.5</ele><time>2026-05-02T07:22:08.244Z</time></trkpt><trkpt lat="44.4602542" lon="10.7750683"><ele>411.0</ele><time>2026-05-02T07:22:09.216Z</time></trkpt><trkpt lat="44.4601482" lon="10.7750618"><ele>412.5</ele><time>2026-05-02T07:22:11.207Z</time></trkpt><trkpt lat="44.4600583" lon="10.7750977"><ele>414.0</ele><time>2026-05-02T07:22:13.218Z</time></trkpt><trkpt lat="44.4599535" lon="10.7751492"><ele>415.5</ele><time>2026-05-02T07:22:15.21Z</time></trkpt><trkpt lat="44.4598855" lon="10.7751873"><ele>417.0</ele><time>2026-05-02T07:22:16.207Z</time></trkpt><trkpt lat="44.4598096" lon="10.775235"><ele>417.0</ele><time>2026-05-02T07:22:17.21Z</time></trkpt><trkpt lat="44.4597384" lon="10.7752875"><ele>417.0</ele><time>2026-05-02T07:22:18.188Z</time></trkpt><trkpt lat="44.4596699" lon="10.7753421"><ele>417.0</ele><time>2026-05-02T07:22:19.209Z</time></trkpt><trkpt lat="44.4596044" lon="10.7753924"><ele>417.0</ele><time>2026-05-02T07:22:20.202Z</time></trkpt><trkpt lat="44.4595408" lon="10.7754418"><ele>417.0</ele><time>2026-05-02T07:22:21.203Z</time></trkpt><trkpt lat="44.4594728" lon="10.7754994"><ele>417.0</ele><time>2026-05-02T07:22:22.204Z</time></trkpt><trkpt lat="44.4594043" lon="10.7755711"><ele>419.1666666666667</ele><time>2026-05-02T07:22:23.21Z</time></trkpt><trkpt lat="44.4593344" lon="10.7756437"><ele>421.33333333333337</ele><time>2026-05-02T07:22:24.214Z</time></trkpt><trkpt lat="44.4592719" lon="10.7757054"><ele>423.5</ele><time>2026-05-02T07:22:25.203Z</time></trkpt><trkpt lat="44.4592146" lon="10.7757655"><ele>425.6666666666667</ele><time>2026-05-02T07:22:26.199Z</time></trkpt><trkpt lat="44.4591543" lon="10.7758149"><ele>427.83333333333337</ele><time>2026-05-02T07:22:27.188Z</time></trkpt><trkpt lat="44.4590964" lon="10.7758626"><ele>430.0</ele><time>2026-05-02T07:22:28.215Z</time></trkpt><trkpt lat="44.4589863" lon="10.775931"><ele>430.0</ele><time>2026-05-02T07:22:30.197Z</time></trkpt><trkpt lat="44.4588859" lon="10.7759516"><ele>430.0</ele><time>2026-05-02T07:22:32.238Z</time></trkpt><trkpt lat="44.4587792" lon="10.7759212"><ele>430.0</ele><time>2026-05-02T07:22:34.21Z</time></trkpt><trkpt lat="44.4586508" lon="10.7759061"><ele>430.0</ele><time>2026-05-02T07:22:36.208Z</time></trkpt><trkpt lat="44.4585759" lon="10.7758988"><ele>430.0</ele><time>2026-05-02T07:22:37.199Z</time></trkpt><trkpt lat="44.4584989" lon="10.7758826"><ele>430.0</ele><time>2026-05-02T07:22:38.19Z</time></trkpt><trkpt lat="44.4584301" lon="10.7758673"><ele>430.0</ele><time>2026-05-02T07:22:39.225Z</time></trkpt><trkpt lat="44.4583616" lon="10.7758525"><ele>430.0</ele><time>2026-05-02T07:22:40.211Z</time></trkpt><trkpt lat="44.4582976" lon="10.7758525"><ele>430.0</ele><time>2026-05-02T07:22:41.21Z</time></trkpt><trkpt lat="44.4582282" lon="10.7758663"><ele>430.0</ele><time>2026-05-02T07:22:42.216Z</time></trkpt><trkpt lat="44.4581605" lon="10.775883"><ele>430.0</ele><time>2026-05-02T07:22:43.217Z</time></trkpt><trkpt lat="44.4580889" lon="10.7758788"><ele>430.0</ele><time>2026-05-02T07:22:44.206Z</time></trkpt><trkpt lat="44.4580092" lon="10.7758478"><ele>427.33333333333337</ele><time>2026-05-02T07:22:45.209Z</time></trkpt><trkpt lat="44.4579252" lon="10.7758001"><ele>424.6666666666667</ele><time>2026-05-02T07:22:46.205Z</time></trkpt><trkpt lat="44.4578528" lon="10.7757497"><ele>422.0</ele><time>2026-05-02T07:22:47.204Z</time></trkpt><trkpt lat="44.4577848" lon="10.7756751"><ele>419.33333333333337</ele><time>2026-05-02T07:22:48.206Z</time></trkpt><trkpt lat="44.4577213" lon="10.775594"><ele>416.6666666666667</ele><time>2026-05-02T07:22:49.212Z</time></trkpt><trkpt lat="44.4576662" lon="10.7755113"><ele>414.0</ele><time>2026-05-02T07:22:50.226Z</time></trkpt><trkpt lat="44.4576187" lon="10.7754357"><ele>414.0</ele><time>2026-05-02T07:22:51.196Z</time></trkpt><trkpt lat="44.4575726" lon="10.7753519"><ele>414.0</ele><time>2026-05-02T07:22:52.208Z</time></trkpt><trkpt lat="44.4575291" lon="10.7752626"><ele>414.0</ele><time>2026-05-02T07:22:53.212Z</time></trkpt><trkpt lat="44.4574879" lon="10.7751528"><ele>414.0</ele><time>2026-05-02T07:22:54.267Z</time></trkpt><trkpt lat="44.4574466" lon="10.7750515"><ele>414.0</ele><time>2026-05-02T07:22:55.227Z</time></trkpt><trkpt lat="44.4574054" lon="10.774951"><ele>414.0</ele><time>2026-05-02T07:22:56.206Z</time></trkpt><trkpt lat="44.4573719" lon="10.7748489"><ele>415.5</ele><time>2026-05-02T07:22:57.188Z</time></trkpt><trkpt lat="44.4573405" lon="10.7747516"><ele>417.0</ele><time>2026-05-02T07:22:58.238Z</time></trkpt><trkpt lat="44.4572687" lon="10.7746327"><ele>418.5</ele><time>2026-05-02T07:23:00.197Z</time></trkpt><trkpt lat="44.4571995" lon="10.7746058"><ele>420.0</ele><time>2026-05-02T07:23:01.199Z</time></trkpt><trkpt lat="44.4571394" lon="10.7745794"><ele>421.5</ele><time>2026-05-02T07:23:02.218Z</time></trkpt><trkpt lat="44.4570766" lon="10.7745403"><ele>423.0</ele><time>2026-05-02T07:23:03.217Z</time></trkpt><trkpt lat="44.4570137" lon="10.7744842"><ele>423.0</ele><time>2026-05-02T07:23:04.207Z</time></trkpt><trkpt lat="44.4569733" lon="10.7743867"><ele>423.0</ele><time>2026-05-02T07:23:05.206Z</time></trkpt><trkpt lat="44.4569339" lon="10.7742993"><ele>423.0</ele><time>2026-05-02T07:23:06.217Z</time></trkpt><trkpt lat="44.4568988" lon="10.7742232"><ele>423.0</ele><time>2026-05-02T07:23:07.205Z</time></trkpt><trkpt lat="44.4568445" lon="10.7741764"><ele>423.0</ele><time>2026-05-02T07:23:08.188Z</time></trkpt><trkpt lat="44.4567393" lon="10.7741103"><ele>423.0</ele><time>2026-05-02T07:23:10.21Z</time></trkpt><trkpt lat="44.4566815" lon="10.7740489"><ele>425.0</ele><time>2026-05-02T07:23:11.219Z</time></trkpt><trkpt lat="44.4566221" lon="10.7739875"><ele>427.0</ele><time>2026-05-02T07:23:12.209Z</time></trkpt><trkpt lat="44.4565678" lon="10.7739202"><ele>429.0</ele><time>2026-05-02T07:23:13.214Z</time></trkpt><trkpt lat="44.4565167" lon="10.7738531"><ele>431.0</ele><time>2026-05-02T07:23:14.211Z</time></trkpt><trkpt lat="44.4564708" lon="10.7737887"><ele>433.0</ele><time>2026-05-02T07:23:15.21Z</time></trkpt><trkpt lat="44.4564246" lon="10.7737143"><ele>435.0</ele><time>2026-05-02T07:23:16.214Z</time></trkpt><trkpt lat="44.4563789" lon="10.7736336"><ele>437.0</ele><time>2026-05-02T07:23:17.197Z</time></trkpt><trkpt lat="44.4563331" lon="10.7735536"><ele>438.66666666666663</ele><time>2026-05-02T07:23:18.222Z</time></trkpt><trkpt lat="44.4562886" lon="10.7734796"><ele>440.3333333333333</ele><time>2026-05-02T07:23:19.225Z</time></trkpt><trkpt lat="44.4562083" lon="10.7733542"><ele>442.0</ele><time>2026-05-02T07:23:21.238Z</time></trkpt><trkpt lat="44.4561579" lon="10.7732809"><ele>443.66666666666663</ele><time>2026-05-02T07:23:22.208Z</time></trkpt><trkpt lat="44.4560932" lon="10.7732148"><ele>445.3333333333333</ele><time>2026-05-02T07:23:23.204Z</time></trkpt><trkpt lat="44.4560394" lon="10.7731398"><ele>447.0</ele><time>2026-05-02T07:23:24.211Z</time></trkpt><trkpt lat="44.4559837" lon="10.7730189"><ele>449.0</ele><time>2026-05-02T07:23:26.226Z</time></trkpt><trkpt lat="44.4559278" lon="10.7729587"><ele>451.0</ele><time>2026-05-02T07:23:28.183Z</time></trkpt><trkpt lat="44.4558409" lon="10.7729527"><ele>453.0</ele><time>2026-05-02T07:23:31.208Z</time></trkpt><trkpt lat="44.4557936" lon="10.7728844"><ele>455.0</ele><time>2026-05-02T07:23:33.231Z</time></trkpt><trkpt lat="44.4557855" lon="10.772771"><ele>457.0</ele><time>2026-05-02T07:23:35.198Z</time></trkpt><trkpt lat="44.4557737" lon="10.7726523"><ele>459.0</ele><time>2026-05-02T07:23:37.2Z</time></trkpt><trkpt lat="44.4557607" lon="10.7724766"><ele>459.8333333333333</ele><time>2026-05-02T07:23:39.224Z</time></trkpt><trkpt lat="44.4557565" lon="10.7723694"><ele>460.66666666666663</ele><time>2026-05-02T07:23:40.234Z</time></trkpt><trkpt lat="44.4557563" lon="10.772243"><ele>461.5</ele><time>2026-05-02T07:23:41.226Z</time></trkpt><trkpt lat="44.4557531" lon="10.7721072"><ele>462.3333333333333</ele><time>2026-05-02T07:23:42.211Z</time></trkpt><trkpt lat="44.4557497" lon="10.7719809"><ele>463.16666666666663</ele><time>2026-05-02T07:23:43.203Z</time></trkpt><trkpt lat="44.4557442" lon="10.7718508"><ele>464.0</ele><time>2026-05-02T07:23:44.221Z</time></trkpt><trkpt lat="44.4557393" lon="10.7717184"><ele>465.4</ele><time>2026-05-02T07:23:45.213Z</time></trkpt><trkpt lat="44.4557366" lon="10.77158"><ele>466.79999999999995</ele><time>2026-05-02T07:23:46.234Z</time></trkpt><trkpt lat="44.4557315" lon="10.7714503"><ele>468.20000000000005</ele><time>2026-05-02T07:23:47.225Z</time></trkpt><trkpt lat="44.4557284" lon="10.7713265"><ele>469.6</ele><time>2026-05-02T07:23:48.225Z</time></trkpt><trkpt lat="44.4557254" lon="10.7712015"><ele>471.0</ele><time>2026-05-02T07:23:49.215Z</time></trkpt><trkpt lat="44.4557183" lon="10.7710697"><ele>472.6</ele><time>2026-05-02T07:23:50.207Z</time></trkpt><trkpt lat="44.4557073" lon="10.770927"><ele>474.20000000000005</ele><time>2026-05-02T07:23:51.218Z</time></trkpt><trkpt lat="44.4556948" lon="10.7707811"><ele>475.79999999999995</ele><time>2026-05-02T07:23:52.195Z</time></trkpt><trkpt lat="44.4556648" lon="10.7706358"><ele>477.4</ele><time>2026-05-02T07:23:53.199Z</time></trkpt><trkpt lat="44.4556237" lon="10.7704971"><ele>479.0</ele><time>2026-05-02T07:23:54.175Z</time></trkpt><trkpt lat="44.4555767" lon="10.7703576"><ele>479.0</ele><time>2026-05-02T07:23:55.183Z</time></trkpt><trkpt lat="44.4555364" lon="10.7702254"><ele>479.0</ele><time>2026-05-02T07:23:56.24Z</time></trkpt><trkpt lat="44.4555046" lon="10.7700973"><ele>479.0</ele><time>2026-05-02T07:23:57.219Z</time></trkpt><trkpt lat="44.4554792" lon="10.7699682"><ele>479.0</ele><time>2026-05-02T07:23:58.229Z</time></trkpt><trkpt lat="44.4554606" lon="10.7698368"><ele>479.0</ele><time>2026-05-02T07:23:59.205Z</time></trkpt><trkpt lat="44.4554494" lon="10.7697008"><ele>481.2</ele><time>2026-05-02T07:24:00.257Z</time></trkpt><trkpt lat="44.455446" lon="10.7695681"><ele>483.4</ele><time>2026-05-02T07:24:01.213Z</time></trkpt><trkpt lat="44.4554499" lon="10.7694418"><ele>485.6</ele><time>2026-05-02T07:24:02.21Z</time></trkpt><trkpt lat="44.4554624" lon="10.7693185"><ele>487.8</ele><time>2026-05-02T07:24:03.204Z</time></trkpt><trkpt lat="44.455482" lon="10.7691857"><ele>490.0</ele><time>2026-05-02T07:24:04.196Z</time></trkpt><trkpt lat="44.4555072" lon="10.7690459"><ele>490.0</ele><time>2026-05-02T07:24:05.196Z</time></trkpt><trkpt lat="44.4555327" lon="10.7689087"><ele>490.0</ele><time>2026-05-02T07:24:06.194Z</time></trkpt><trkpt lat="44.4555553" lon="10.7687726"><ele>490.0</ele><time>2026-05-02T07:24:07.205Z</time></trkpt><trkpt lat="44.4555799" lon="10.768627"><ele>490.0</ele><time>2026-05-02T07:24:08.202Z</time></trkpt><trkpt lat="44.4556057" lon="10.7684818"><ele>490.0</ele><time>2026-05-02T07:24:09.202Z</time></trkpt><trkpt lat="44.455627" lon="10.7683442"><ele>490.00000000000006</ele><time>2026-05-02T07:24:10.188Z</time></trkpt><trkpt lat="44.4556423" lon="10.7682144"><ele>490.0</ele><time>2026-05-02T07:24:11.199Z</time></trkpt><trkpt lat="44.4556484" lon="10.7680936"><ele>490.0</ele><time>2026-05-02T07:24:12.211Z</time></trkpt><trkpt lat="44.4556416" lon="10.767982"><ele>490.0</ele><time>2026-05-02T07:24:13.201Z</time></trkpt><trkpt lat="44.455617" lon="10.7678857"><ele>490.00000000000006</ele><time>2026-05-02T07:24:14.206Z</time></trkpt><trkpt lat="44.455576" lon="10.7678012"><ele>490.0</ele><time>2026-05-02T07:24:15.201Z</time></trkpt><trkpt lat="44.4555244" lon="10.7677302"><ele>489.6666666666667</ele><time>2026-05-02T07:24:16.204Z</time></trkpt><trkpt lat="44.4554656" lon="10.7676599"><ele>489.33333333333337</ele><time>2026-05-02T07:24:17.237Z</time></trkpt><trkpt lat="44.455403" lon="10.7675829"><ele>489.0</ele><time>2026-05-02T07:24:18.219Z</time></trkpt><trkpt lat="44.4553402" lon="10.7675055"><ele>488.66666666666663</ele><time>2026-05-02T07:24:19.208Z</time></trkpt><trkpt lat="44.4552824" lon="10.7674241"><ele>488.3333333333333</ele><time>2026-05-02T07:24:20.216Z</time></trkpt><trkpt lat="44.4552304" lon="10.767334"><ele>488.0</ele><time>2026-05-02T07:24:21.234Z</time></trkpt><trkpt lat="44.4551801" lon="10.767232"><ele>488.0</ele><time>2026-05-02T07:24:22.216Z</time></trkpt><trkpt lat="44.4551307" lon="10.767127"><ele>487.99999999999994</ele><time>2026-05-02T07:24:23.208Z</time></trkpt><trkpt lat="44.455081" lon="10.7670092"><ele>487.99999999999994</ele><time>2026-05-02T07:24:24.219Z</time></trkpt><trkpt lat="44.455032" lon="10.7668747"><ele>488.0</ele><time>2026-05-02T07:24:25.205Z</time></trkpt><trkpt lat="44.4549849" lon="10.7667494"><ele>488.0</ele><time>2026-05-02T07:24:26.234Z</time></trkpt><trkpt lat="44.4549395" lon="10.7666416"><ele>490.0</ele><time>2026-05-02T07:24:27.194Z</time></trkpt><trkpt lat="44.4548968" lon="10.7665414"><ele>491.99999999999994</ele><time>2026-05-02T07:24:28.205Z</time></trkpt><trkpt lat="44.4548508" lon="10.7664319"><ele>493.99999999999994</ele><time>2026-05-02T07:24:29.199Z</time></trkpt><trkpt lat="44.4547954" lon="10.7663063"><ele>496.0</ele><time>2026-05-02T07:24:30.211Z</time></trkpt><trkpt lat="44.454736" lon="10.7661769"><ele>498.0</ele><time>2026-05-02T07:24:31.198Z</time></trkpt><trkpt lat="44.4546825" lon="10.7660563"><ele>498.2</ele><time>2026-05-02T07:24:32.191Z</time></trkpt><trkpt lat="44.4546339" lon="10.765946"><ele>498.4</ele><time>2026-05-02T07:24:33.209Z</time></trkpt><trkpt lat="44.4545911" lon="10.7658313"><ele>498.59999999999997</ele><time>2026-05-02T07:24:34.176Z</time></trkpt><trkpt lat="44.4545488" lon="10.7656981"><ele>498.79999999999995</ele><time>2026-05-02T07:24:35.209Z</time></trkpt><trkpt lat="44.4545129" lon="10.7655636"><ele>499.0</ele><time>2026-05-02T07:24:36.237Z</time></trkpt><trkpt lat="44.4544794" lon="10.7654395"><ele>499.0</ele><time>2026-05-02T07:24:37.21Z</time></trkpt><trkpt lat="44.454448" lon="10.765322"><ele>499.0</ele><time>2026-05-02T07:24:38.216Z</time></trkpt><trkpt lat="44.4544165" lon="10.7651994"><ele>499.0</ele><time>2026-05-02T07:24:39.172Z</time></trkpt><trkpt lat="44.45439" lon="10.7650925"><ele>499.0</ele><time>2026-05-02T07:24:40.209Z</time></trkpt><trkpt lat="44.4543651" lon="10.764991"><ele>499.0</ele><time>2026-05-02T07:24:41.207Z</time></trkpt><trkpt lat="44.4543223" lon="10.7648412"><ele>499.83333333333337</ele><time>2026-05-02T07:24:43.193Z</time></trkpt><trkpt lat="44.4543007" lon="10.7646972"><ele>500.6666666666667</ele><time>2026-05-02T07:24:46.212Z</time></trkpt><trkpt lat="44.4542528" lon="10.7645478"><ele>501.5</ele><time>2026-05-02T07:24:48.22Z</time></trkpt><trkpt lat="44.4542143" lon="10.7644676"><ele>502.33333333333337</ele><time>2026-05-02T07:24:49.214Z</time></trkpt><trkpt lat="44.4541738" lon="10.7643847"><ele>503.1666666666667</ele><time>2026-05-02T07:24:50.213Z</time></trkpt><trkpt lat="44.4541336" lon="10.764304"><ele>504.0</ele><time>2026-05-02T07:24:51.21Z</time></trkpt><trkpt lat="44.4540897" lon="10.76423"><ele>504.0</ele><time>2026-05-02T07:24:52.204Z</time></trkpt><trkpt lat="44.4540357" lon="10.7641611"><ele>504.0</ele><time>2026-05-02T07:24:53.204Z</time></trkpt><trkpt lat="44.4539728" lon="10.7640929"><ele>504.0</ele><time>2026-05-02T07:24:54.215Z</time></trkpt><trkpt lat="44.4539105" lon="10.7640256"><ele>504.0</ele><time>2026-05-02T07:24:55.259Z</time></trkpt><trkpt lat="44.4538467" lon="10.763962"><ele>504.0</ele><time>2026-05-02T07:24:56.228Z</time></trkpt><trkpt lat="44.4537854" lon="10.7639001"><ele>504.0</ele><time>2026-05-02T07:24:57.228Z</time></trkpt><trkpt lat="44.4537243" lon="10.7638375"><ele>504.0</ele><time>2026-05-02T07:24:58.213Z</time></trkpt><trkpt lat="44.453663" lon="10.7637717"><ele>504.0</ele><time>2026-05-02T07:24:59.22Z</time></trkpt><trkpt lat="44.4536007" lon="10.7637086"><ele>504.0</ele><time>2026-05-02T07:25:00.214Z</time></trkpt><trkpt lat="44.4535401" lon="10.7636434"><ele>504.0</ele><time>2026-05-02T07:25:01.276Z</time></trkpt><trkpt lat="44.4534797" lon="10.763581"><ele>504.0</ele><time>2026-05-02T07:25:02.221Z</time></trkpt><trkpt lat="44.4534207" lon="10.7635213"><ele>504.0</ele><time>2026-05-02T07:25:03.219Z</time></trkpt><trkpt lat="44.4533625" lon="10.7634597"><ele>503.7142857142857</ele><time>2026-05-02T07:25:04.219Z</time></trkpt><trkpt lat="44.4533049" lon="10.7633997"><ele>503.42857142857144</ele><time>2026-05-02T07:25:05.229Z</time></trkpt><trkpt lat="44.4532477" lon="10.76334"><ele>503.1428571428571</ele><time>2026-05-02T07:25:06.191Z</time></trkpt><trkpt lat="44.45319" lon="10.763284"><ele>502.85714285714283</ele><time>2026-05-02T07:25:07.199Z</time></trkpt><trkpt lat="44.4531335" lon="10.7632275"><ele>502.57142857142856</ele><time>2026-05-02T07:25:08.202Z</time></trkpt><trkpt lat="44.4530754" lon="10.7631738"><ele>502.2857142857142</ele><time>2026-05-02T07:25:09.192Z</time></trkpt><trkpt lat="44.4530155" lon="10.7631253"><ele>501.99999999999994</ele><time>2026-05-02T07:25:10.219Z</time></trkpt><trkpt lat="44.452957" lon="10.7630783"><ele>502.1428571428571</ele><time>2026-05-02T07:25:11.191Z</time></trkpt><trkpt lat="44.4528986" lon="10.7630314"><ele>502.2857142857143</ele><time>2026-05-02T07:25:12.206Z</time></trkpt><trkpt lat="44.4528416" lon="10.7629821"><ele>502.42857142857144</ele><time>2026-05-02T07:25:13.198Z</time></trkpt><trkpt lat="44.452783" lon="10.7629379"><ele>502.57142857142856</ele><time>2026-05-02T07:25:14.207Z</time></trkpt><trkpt lat="44.4526936" lon="10.7628715"><ele>502.7142857142858</ele><time>2026-05-02T07:25:16.199Z</time></trkpt><trkpt lat="44.4526304" lon="10.762842"><ele>502.8571428571429</ele><time>2026-05-02T07:25:18.202Z</time></trkpt><trkpt lat="44.4525814" lon="10.762771"><ele>503.0</ele><time>2026-05-02T07:25:22.204Z</time></trkpt><trkpt lat="44.4524896" lon="10.7627619"><ele>503.0</ele><time>2026-05-02T07:25:27.203Z</time></trkpt><trkpt lat="44.4524129" lon="10.7627865"><ele>502.99999999999994</ele><time>2026-05-02T07:25:28.199Z</time></trkpt><trkpt lat="44.4523098" lon="10.7627972"><ele>502.99999999999994</ele><time>2026-05-02T07:25:29.175Z</time></trkpt><trkpt lat="44.4521863" lon="10.762805"><ele>503.0</ele><time>2026-05-02T07:25:30.201Z</time></trkpt><trkpt lat="44.452053" lon="10.7628104"><ele>503.0</ele><time>2026-05-02T07:25:31.205Z</time></trkpt><trkpt lat="44.4518989" lon="10.7628127"><ele>502.0</ele><time>2026-05-02T07:25:32.199Z</time></trkpt><trkpt lat="44.4517331" lon="10.7628169"><ele>501.0</ele><time>2026-05-02T07:25:33.179Z</time></trkpt><trkpt lat="44.4515675" lon="10.7628176"><ele>500.0</ele><time>2026-05-02T07:25:34.212Z</time></trkpt><trkpt lat="44.451385" lon="10.7628247"><ele>501.3333333333333</ele><time>2026-05-02T07:25:35.199Z</time></trkpt><trkpt lat="44.451206" lon="10.7628335"><ele>502.66666666666663</ele><time>2026-05-02T07:25:36.191Z</time></trkpt><trkpt lat="44.4510238" lon="10.7628363"><ele>504.0</ele><time>2026-05-02T07:25:37.205Z</time></trkpt><trkpt lat="44.4508497" lon="10.7628463"><ele>504.0</ele><time>2026-05-02T07:25:38.226Z</time></trkpt><trkpt lat="44.450689" lon="10.7628518"><ele>504.0</ele><time>2026-05-02T07:25:39.225Z</time></trkpt><trkpt lat="44.4505357" lon="10.7628573"><ele>504.0</ele><time>2026-05-02T07:25:40.23Z</time></trkpt><trkpt lat="44.4503921" lon="10.7628503"><ele>505.0</ele><time>2026-05-02T07:25:41.217Z</time></trkpt><trkpt lat="44.450255" lon="10.7628423"><ele>506.0</ele><time>2026-05-02T07:25:42.216Z</time></trkpt><trkpt lat="44.4501376" lon="10.7628293"><ele>507.0</ele><time>2026-05-02T07:25:43.212Z</time></trkpt><trkpt lat="44.4500471" lon="10.7628163"><ele>508.0</ele><time>2026-05-02T07:25:44.201Z</time></trkpt><trkpt lat="44.4499712" lon="10.7628077"><ele>509.0</ele><time>2026-05-02T07:25:45.214Z</time></trkpt><trkpt lat="44.4499015" lon="10.7628007"><ele>508.99999999999994</ele><time>2026-05-02T07:25:46.191Z</time></trkpt><trkpt lat="44.449804" lon="10.7627616"><ele>509.0</ele><time>2026-05-02T07:25:48.23Z</time></trkpt><trkpt lat="44.4497965" lon="10.762668"><ele>509.0</ele><time>2026-05-02T07:25:51.201Z</time></trkpt><trkpt lat="44.4498992" lon="10.762604"><ele>509.0</ele><time>2026-05-02T07:26:05.18Z</time></trkpt><trkpt lat="44.4499577" lon="10.7626932"><ele>508.99999999999994</ele><time>2026-05-02T07:29:33.229Z</time></trkpt><trkpt lat="44.4500138" lon="10.76276"><ele>509.0</ele><time>2026-05-02T07:29:36.179Z</time></trkpt><trkpt lat="44.4500714" lon="10.7628136"><ele>509.0</ele><time>2026-05-02T07:29:38.215Z</time></trkpt><trkpt lat="44.4501915" lon="10.7628462"><ele>509.0</ele><time>2026-05-02T07:29:40.21Z</time></trkpt><trkpt lat="44.4502779" lon="10.7628577"><ele>509.0</ele><time>2026-05-02T07:29:41.201Z</time></trkpt><trkpt lat="44.4503732" lon="10.7628649"><ele>509.0</ele><time>2026-05-02T07:29:42.184Z</time></trkpt><trkpt lat="44.4504776" lon="10.762869"><ele>509.0</ele><time>2026-05-02T07:29:43.215Z</time></trkpt><trkpt lat="44.4505919" lon="10.7628676"><ele>507.75</ele><time>2026-05-02T07:29:44.23Z</time></trkpt><trkpt lat="44.4507078" lon="10.7628662"><ele>506.5</ele><time>2026-05-02T07:29:45.204Z</time></trkpt><trkpt lat="44.450824" lon="10.7628641"><ele>505.25</ele><time>2026-05-02T07:29:46.236Z</time></trkpt><trkpt lat="44.4509488" lon="10.7628617"><ele>504.0</ele><time>2026-05-02T07:29:47.205Z</time></trkpt><trkpt lat="44.4510786" lon="10.7628556"><ele>504.0</ele><time>2026-05-02T07:29:48.208Z</time></trkpt><trkpt lat="44.4512122" lon="10.7628502"><ele>504.0</ele><time>2026-05-02T07:29:49.202Z</time></trkpt><trkpt lat="44.4513385" lon="10.7628439"><ele>504.0</ele><time>2026-05-02T07:29:50.204Z</time></trkpt><trkpt lat="44.4514593" lon="10.7628364"><ele>504.0</ele><time>2026-05-02T07:29:51.206Z</time></trkpt><trkpt lat="44.4515734" lon="10.7628274"><ele>503.2</ele><time>2026-05-02T07:29:52.231Z</time></trkpt><trkpt lat="44.4516798" lon="10.7628211"><ele>502.4</ele><time>2026-05-02T07:29:53.193Z</time></trkpt><trkpt lat="44.4517889" lon="10.762818"><ele>501.6</ele><time>2026-05-02T07:29:54.2Z</time></trkpt><trkpt lat="44.4518893" lon="10.7628171"><ele>500.8</ele><time>2026-05-02T07:29:55.205Z</time></trkpt><trkpt lat="44.4519817" lon="10.7628178"><ele>500.0</ele><time>2026-05-02T07:29:56.204Z</time></trkpt><trkpt lat="44.4520685" lon="10.7628158"><ele>500.49999999999994</ele><time>2026-05-02T07:29:57.19Z</time></trkpt><trkpt lat="44.4521503" lon="10.7628119"><ele>501.0</ele><time>2026-05-02T07:29:58.207Z</time></trkpt><trkpt lat="44.4522252" lon="10.7628102"><ele>501.5</ele><time>2026-05-02T07:29:59.2Z</time></trkpt><trkpt lat="44.4522912" lon="10.7628106"><ele>502.0</ele><time>2026-05-02T07:30:00.21Z</time></trkpt><trkpt lat="44.4524057" lon="10.7628147"><ele>502.49999999999994</ele><time>2026-05-02T07:30:02.191Z</time></trkpt><trkpt lat="44.4524949" lon="10.762827"><ele>503.0</ele><time>2026-05-02T07:30:04.201Z</time></trkpt><trkpt lat="44.452566" lon="10.7628231"><ele>502.99999999999994</ele><time>2026-05-02T07:30:07.162Z</time></trkpt><trkpt lat="44.4526427" lon="10.7628154"><ele>503.0</ele><time>2026-05-02T07:30:10.208Z</time></trkpt><trkpt lat="44.4526652" lon="10.7627257"><ele>503.0</ele><time>2026-05-02T07:30:46.216Z</time></trkpt><trkpt lat="44.4526395" lon="10.7628117"><ele>503.0</ele><time>2026-05-02T07:35:13.169Z</time></trkpt><trkpt lat="44.45271" lon="10.762841"><ele>502.99999999999994</ele><time>2026-05-02T07:37:24.177Z</time></trkpt><trkpt lat="44.4527883" lon="10.7629327"><ele>503.0</ele><time>2026-05-02T07:37:33.186Z</time></trkpt><trkpt lat="44.4528834" lon="10.7630177"><ele>502.79999999999995</ele><time>2026-05-02T07:37:35.215Z</time></trkpt><trkpt lat="44.4529869" lon="10.7631072"><ele>502.59999999999997</ele><time>2026-05-02T07:37:37.202Z</time></trkpt><trkpt lat="44.4530568" lon="10.7631692"><ele>502.40000000000003</ele><time>2026-05-02T07:37:38.212Z</time></trkpt><trkpt lat="44.4531324" lon="10.7632427"><ele>502.20000000000005</ele><time>2026-05-02T07:37:39.203Z</time></trkpt><trkpt lat="44.4532007" lon="10.7633135"><ele>502.0</ele><time>2026-05-02T07:37:40.205Z</time></trkpt><trkpt lat="44.4532613" lon="10.7633788"><ele>502.0</ele><time>2026-05-02T07:37:41.193Z</time></trkpt><trkpt lat="44.4533234" lon="10.7634455"><ele>502.00000000000006</ele><time>2026-05-02T07:37:42.239Z</time></trkpt><trkpt lat="44.4533912" lon="10.7635176"><ele>502.00000000000006</ele><time>2026-05-02T07:37:43.209Z</time></trkpt><trkpt lat="44.4534638" lon="10.763594"><ele>502.0</ele><time>2026-05-02T07:37:44.207Z</time></trkpt><trkpt lat="44.4535419" lon="10.7636729"><ele>502.0</ele><time>2026-05-02T07:37:45.185Z</time></trkpt><trkpt lat="44.4536241" lon="10.7637554"><ele>502.40000000000003</ele><time>2026-05-02T07:37:46.205Z</time></trkpt><trkpt lat="44.4537102" lon="10.7638452"><ele>502.80000000000007</ele><time>2026-05-02T07:37:47.204Z</time></trkpt><trkpt lat="44.453796" lon="10.7639331"><ele>503.2</ele><time>2026-05-02T07:37:48.195Z</time></trkpt><trkpt lat="44.4538766" lon="10.7640196"><ele>503.6</ele><time>2026-05-02T07:37:49.155Z</time></trkpt><trkpt lat="44.4539549" lon="10.7641078"><ele>504.0</ele><time>2026-05-02T07:37:50.201Z</time></trkpt><trkpt lat="44.45403" lon="10.7642021"><ele>504.0</ele><time>2026-05-02T07:37:51.212Z</time></trkpt><trkpt lat="44.4541009" lon="10.7643072"><ele>504.0</ele><time>2026-05-02T07:37:52.216Z</time></trkpt><trkpt lat="44.4541686" lon="10.764421"><ele>504.0</ele><time>2026-05-02T07:37:53.224Z</time></trkpt><trkpt lat="44.454228" lon="10.764527"><ele>504.0</ele><time>2026-05-02T07:37:54.21Z</time></trkpt><trkpt lat="44.4542703" lon="10.7646165"><ele>504.0</ele><time>2026-05-02T07:37:55.193Z</time></trkpt><trkpt lat="44.4543137" lon="10.7647736"><ele>504.0</ele><time>2026-05-02T07:37:57.194Z</time></trkpt><trkpt lat="44.454357" lon="10.7649314"><ele>504.0</ele><time>2026-05-02T07:37:59.204Z</time></trkpt><trkpt lat="44.4543805" lon="10.7650155"><ele>504.0</ele><time>2026-05-02T07:38:00.206Z</time></trkpt><trkpt lat="44.4544021" lon="10.7651092"><ele>504.0</ele><time>2026-05-02T07:38:01.195Z</time></trkpt><trkpt lat="44.4544256" lon="10.7652164"><ele>504.0</ele><time>2026-05-02T07:38:02.192Z</time></trkpt><trkpt lat="44.4544512" lon="10.7653233"><ele>504.0</ele><time>2026-05-02T07:38:03.19Z</time></trkpt><trkpt lat="44.454477" lon="10.765431"><ele>503.1666666666667</ele><time>2026-05-02T07:38:04.193Z</time></trkpt><trkpt lat="44.4545055" lon="10.7655414"><ele>502.33333333333337</ele><time>2026-05-02T07:38:05.198Z</time></trkpt><trkpt lat="44.4545364" lon="10.7656494"><ele>501.5</ele><time>2026-05-02T07:38:06.204Z</time></trkpt><trkpt lat="44.4545711" lon="10.7657612"><ele>500.6666666666667</ele><time>2026-05-02T07:38:07.207Z</time></trkpt><trkpt lat="44.4546128" lon="10.7658804"><ele>499.83333333333337</ele><time>2026-05-02T07:38:08.196Z</time></trkpt><trkpt lat="44.4546568" lon="10.7660038"><ele>499.0</ele><time>2026-05-02T07:38:09.198Z</time></trkpt><trkpt lat="44.4547099" lon="10.7661285"><ele>498.79999999999995</ele><time>2026-05-02T07:38:10.192Z</time></trkpt><trkpt lat="44.4547603" lon="10.7662437"><ele>498.59999999999997</ele><time>2026-05-02T07:38:11.199Z</time></trkpt><trkpt lat="44.4548101" lon="10.7663595"><ele>498.4</ele><time>2026-05-02T07:38:12.202Z</time></trkpt><trkpt lat="44.4548598" lon="10.7664738"><ele>498.2</ele><time>2026-05-02T07:38:13.198Z</time></trkpt><trkpt lat="44.4549087" lon="10.7665826"><ele>498.0</ele><time>2026-05-02T07:38:14.221Z</time></trkpt><trkpt lat="44.4549573" lon="10.7666893"><ele>498.0</ele><time>2026-05-02T07:38:15.207Z</time></trkpt><trkpt lat="44.4550022" lon="10.7668016"><ele>497.99999999999994</ele><time>2026-05-02T07:38:16.204Z</time></trkpt><trkpt lat="44.4550443" lon="10.7669216"><ele>497.99999999999994</ele><time>2026-05-02T07:38:17.19Z</time></trkpt><trkpt lat="44.4550915" lon="10.7670417"><ele>498.0</ele><time>2026-05-02T07:38:18.199Z</time></trkpt><trkpt lat="44.4551452" lon="10.7671596"><ele>498.0</ele><time>2026-05-02T07:38:19.193Z</time></trkpt><trkpt lat="44.4552038" lon="10.7672768"><ele>496.6666666666667</ele><time>2026-05-02T07:38:20.202Z</time></trkpt><trkpt lat="44.4552614" lon="10.7673825"><ele>495.33333333333337</ele><time>2026-05-02T07:38:21.19Z</time></trkpt><trkpt lat="44.4553166" lon="10.7674714"><ele>494.0</ele><time>2026-05-02T07:38:22.202Z</time></trkpt><trkpt lat="44.4553758" lon="10.7675523"><ele>492.6666666666667</ele><time>2026-05-02T07:38:23.255Z</time></trkpt><trkpt lat="44.4554385" lon="10.7676328"><ele>491.33333333333337</ele><time>2026-05-02T07:38:24.221Z</time></trkpt><trkpt lat="44.455503" lon="10.7677124"><ele>490.0</ele><time>2026-05-02T07:38:25.217Z</time></trkpt><trkpt lat="44.4555636" lon="10.7677951"><ele>490.00000000000006</ele><time>2026-05-02T07:38:26.229Z</time></trkpt><trkpt lat="44.4556106" lon="10.7678848"><ele>490.0</ele><time>2026-05-02T07:38:27.197Z</time></trkpt><trkpt lat="44.4556407" lon="10.7679877"><ele>490.0</ele><time>2026-05-02T07:38:28.228Z</time></trkpt><trkpt lat="44.455649" lon="10.7680987"><ele>490.0</ele><time>2026-05-02T07:38:29.22Z</time></trkpt><trkpt lat="44.4556413" lon="10.7682167"><ele>490.00000000000006</ele><time>2026-05-02T07:38:30.198Z</time></trkpt><trkpt lat="44.4556251" lon="10.7683414"><ele>490.0</ele><time>2026-05-02T07:38:31.207Z</time></trkpt><trkpt lat="44.4556073" lon="10.7684717"><ele>490.00000000000006</ele><time>2026-05-02T07:38:32.226Z</time></trkpt><trkpt lat="44.4555866" lon="10.7686021"><ele>490.0</ele><time>2026-05-02T07:38:33.2Z</time></trkpt><trkpt lat="44.4555631" lon="10.7687271"><ele>490.0</ele><time>2026-05-02T07:38:34.219Z</time></trkpt><trkpt lat="44.45554" lon="10.7688477"><ele>490.0</ele><time>2026-05-02T07:38:35.206Z</time></trkpt><trkpt lat="44.4555178" lon="10.768964"><ele>490.00000000000006</ele><time>2026-05-02T07:38:36.221Z</time></trkpt><trkpt lat="44.4554948" lon="10.769077"><ele>490.0</ele><time>2026-05-02T07:38:37.219Z</time></trkpt><trkpt lat="44.4554744" lon="10.7691894"><ele>490.00000000000006</ele><time>2026-05-02T07:38:38.213Z</time></trkpt><trkpt lat="44.455459" lon="10.7693021"><ele>490.0</ele><time>2026-05-02T07:38:39.213Z</time></trkpt><trkpt lat="44.4554495" lon="10.7694132"><ele>490.0</ele><time>2026-05-02T07:38:40.212Z</time></trkpt><trkpt lat="44.4554432" lon="10.7695225"><ele>490.0</ele><time>2026-05-02T07:38:41.223Z</time></trkpt><trkpt lat="44.4554438" lon="10.7696317"><ele>490.00000000000006</ele><time>2026-05-02T07:38:42.203Z</time></trkpt><trkpt lat="44.4554509" lon="10.7697415"><ele>490.0</ele><time>2026-05-02T07:38:43.207Z</time></trkpt><trkpt lat="44.4554621" lon="10.7698536"><ele>489.50000000000006</ele><time>2026-05-02T07:38:44.214Z</time></trkpt><trkpt lat="44.4554764" lon="10.7699707"><ele>489.0</ele><time>2026-05-02T07:38:45.209Z</time></trkpt><trkpt lat="44.4554972" lon="10.7700874"><ele>488.5</ele><time>2026-05-02T07:38:46.23Z</time></trkpt><trkpt lat="44.4555251" lon="10.7701991"><ele>488.0</ele><time>2026-05-02T07:38:47.205Z</time></trkpt><trkpt lat="44.4555619" lon="10.7703087"><ele>487.50000000000006</ele><time>2026-05-02T07:38:48.208Z</time></trkpt><trkpt lat="44.4556032" lon="10.7704253"><ele>487.0</ele><time>2026-05-02T07:38:49.204Z</time></trkpt><trkpt lat="44.4556428" lon="10.7705546"><ele>485.40000000000003</ele><time>2026-05-02T07:38:50.206Z</time></trkpt><trkpt lat="44.4556768" lon="10.770687"><ele>483.80000000000007</ele><time>2026-05-02T07:38:51.223Z</time></trkpt><trkpt lat="44.4557018" lon="10.7708236"><ele>482.2</ele><time>2026-05-02T07:38:52.224Z</time></trkpt><trkpt lat="44.4557188" lon="10.7709599"><ele>480.6</ele><time>2026-05-02T07:38:53.212Z</time></trkpt><trkpt lat="44.4557285" lon="10.7710955"><ele>479.0</ele><time>2026-05-02T07:38:54.213Z</time></trkpt><trkpt lat="44.4557339" lon="10.7712289"><ele>477.0</ele><time>2026-05-02T07:38:55.315Z</time></trkpt><trkpt lat="44.4557414" lon="10.771502"><ele>475.0</ele><time>2026-05-02T07:38:57.208Z</time></trkpt><trkpt lat="44.4557472" lon="10.7716395"><ele>473.0</ele><time>2026-05-02T07:38:58.221Z</time></trkpt><trkpt lat="44.4557537" lon="10.7717714"><ele>471.0</ele><time>2026-05-02T07:38:59.214Z</time></trkpt><trkpt lat="44.4557596" lon="10.7718985"><ele>469.8333333333333</ele><time>2026-05-02T07:39:00.207Z</time></trkpt><trkpt lat="44.4557647" lon="10.7720214"><ele>468.66666666666663</ele><time>2026-05-02T07:39:01.209Z</time></trkpt><trkpt lat="44.4557689" lon="10.7721358"><ele>467.5</ele><time>2026-05-02T07:39:02.204Z</time></trkpt><trkpt lat="44.4557729" lon="10.7722426"><ele>466.3333333333333</ele><time>2026-05-02T07:39:03.187Z</time></trkpt><trkpt lat="44.4557771" lon="10.7723363"><ele>465.16666666666663</ele><time>2026-05-02T07:39:04.198Z</time></trkpt><trkpt lat="44.4557774" lon="10.7724271"><ele>464.0</ele><time>2026-05-02T07:39:05.199Z</time></trkpt><trkpt lat="44.4557675" lon="10.7725733"><ele>463.99999999999994</ele><time>2026-05-02T07:39:07.203Z</time></trkpt><trkpt lat="44.4557241" lon="10.7726573"><ele>464.0</ele><time>2026-05-02T07:39:10.206Z</time></trkpt><trkpt lat="44.4556607" lon="10.7726504"><ele>464.0</ele><time>2026-05-02T07:39:19.268Z</time></trkpt><trkpt lat="44.4555638" lon="10.7726283"><ele>464.0</ele><time>2026-05-02T07:39:21.217Z</time></trkpt><trkpt lat="44.4554387" lon="10.7726194"><ele>463.99999999999994</ele><time>2026-05-02T07:39:23.217Z</time></trkpt><trkpt lat="44.4553675" lon="10.7726265"><ele>464.0</ele><time>2026-05-02T07:39:24.212Z</time></trkpt><trkpt lat="44.4552988" lon="10.7726264"><ele>461.4</ele><time>2026-05-02T07:39:25.211Z</time></trkpt><trkpt lat="44.4552202" lon="10.7726296"><ele>458.79999999999995</ele><time>2026-05-02T07:39:26.176Z</time></trkpt><trkpt lat="44.4551555" lon="10.7726345"><ele>456.20000000000005</ele><time>2026-05-02T07:39:27.216Z</time></trkpt><trkpt lat="44.45506" lon="10.7726349"><ele>453.6</ele><time>2026-05-02T07:39:29.21Z</time></trkpt><trkpt lat="44.4549635" lon="10.7725788"><ele>451.0</ele><time>2026-05-02T07:39:31.212Z</time></trkpt><trkpt lat="44.4548481" lon="10.7725526"><ele>451.0</ele><time>2026-05-02T07:39:33.214Z</time></trkpt><trkpt lat="44.4547507" lon="10.7726056"><ele>451.0</ele><time>2026-05-02T07:39:35.206Z</time></trkpt><trkpt lat="44.4546576" lon="10.7726646"><ele>451.0</ele><time>2026-05-02T07:39:37.193Z</time></trkpt><trkpt lat="44.4545646" lon="10.7727062"><ele>451.0</ele><time>2026-05-02T07:39:39.211Z</time></trkpt><trkpt lat="44.4544771" lon="10.7727576"><ele>451.0</ele><time>2026-05-02T07:39:41.209Z</time></trkpt><trkpt lat="44.4543981" lon="10.7727912"><ele>447.6</ele><time>2026-05-02T07:39:43.21Z</time></trkpt><trkpt lat="44.4543086" lon="10.7728247"><ele>444.20000000000005</ele><time>2026-05-02T07:39:45.187Z</time></trkpt><trkpt lat="44.4542116" lon="10.7728182"><ele>440.79999999999995</ele><time>2026-05-02T07:39:47.215Z</time></trkpt><trkpt lat="44.4541241" lon="10.7727604"><ele>437.4</ele><time>2026-05-02T07:39:49.219Z</time></trkpt><trkpt lat="44.4540471" lon="10.77271"><ele>434.0</ele><time>2026-05-02T07:39:51.217Z</time></trkpt><trkpt lat="44.453957" lon="10.7726596"><ele>433.99999999999994</ele><time>2026-05-02T07:39:53.228Z</time></trkpt><trkpt lat="44.4538601" lon="10.772596"><ele>434.0</ele><time>2026-05-02T07:39:55.216Z</time></trkpt><trkpt lat="44.4537449" lon="10.772522"><ele>434.0</ele><time>2026-05-02T07:39:57.195Z</time></trkpt><trkpt lat="44.4536876" lon="10.7724842"><ele>434.0</ele><time>2026-05-02T07:39:58.22Z</time></trkpt><trkpt lat="44.4536321" lon="10.7724365"><ele>433.99999999999994</ele><time>2026-05-02T07:39:59.183Z</time></trkpt><trkpt lat="44.4535772" lon="10.7723857"><ele>434.0</ele><time>2026-05-02T07:40:00.179Z</time></trkpt><trkpt lat="44.4535241" lon="10.7723331"><ele>431.8333333333333</ele><time>2026-05-02T07:40:01.171Z</time></trkpt><trkpt lat="44.4534201" lon="10.7722396"><ele>429.66666666666663</ele><time>2026-05-02T07:40:03.205Z</time></trkpt><trkpt lat="44.4533644" lon="10.7721984"><ele>427.5</ele><time>2026-05-02T07:40:04.212Z</time></trkpt><trkpt lat="44.4533052" lon="10.7721654"><ele>425.33333333333337</ele><time>2026-05-02T07:40:05.229Z</time></trkpt><trkpt lat="44.4532423" lon="10.772139"><ele>423.1666666666667</ele><time>2026-05-02T07:40:06.194Z</time></trkpt><trkpt lat="44.4531794" lon="10.7721174"><ele>421.0</ele><time>2026-05-02T07:40:07.224Z</time></trkpt><trkpt lat="44.4530609" lon="10.7720943"><ele>421.00000000000006</ele><time>2026-05-02T07:40:09.22Z</time></trkpt><trkpt lat="44.4529741" lon="10.7720656"><ele>421.0</ele><time>2026-05-02T07:40:11.183Z</time></trkpt><trkpt lat="44.4529053" lon="10.7720285"><ele>421.0</ele><time>2026-05-02T07:40:13.208Z</time></trkpt><trkpt lat="44.4528368" lon="10.7720015"><ele>421.0</ele><time>2026-05-02T07:40:16.208Z</time></trkpt><trkpt lat="44.4527882" lon="10.772071"><ele>421.00000000000006</ele><time>2026-05-02T07:40:19.204Z</time></trkpt><trkpt lat="44.4527157" lon="10.7720723"><ele>421.0</ele><time>2026-05-02T07:40:24.223Z</time></trkpt><trkpt lat="44.4526266" lon="10.7720186"><ele>421.1666666666667</ele><time>2026-05-02T07:40:27.246Z</time></trkpt><trkpt lat="44.4525586" lon="10.7719731"><ele>421.33333333333337</ele><time>2026-05-02T07:40:30.208Z</time></trkpt><trkpt lat="44.4525001" lon="10.772006"><ele>421.5</ele><time>2026-05-02T07:40:39.215Z</time></trkpt><trkpt lat="44.4524738" lon="10.7720878"><ele>421.66666666666663</ele><time>2026-05-02T07:40:44.219Z</time></trkpt><trkpt lat="44.4524979" lon="10.7721744"><ele>421.8333333333333</ele><time>2026-05-02T07:40:49.231Z</time></trkpt><trkpt lat="44.4525115" lon="10.7723345"><ele>422.0</ele><time>2026-05-02T07:42:31.216Z</time></trkpt><trkpt lat="44.4524572" lon="10.7724064"><ele>421.99999999999994</ele><time>2026-05-02T07:42:34.277Z</time></trkpt><trkpt lat="44.4523886" lon="10.7723861"><ele>422.0</ele><time>2026-05-02T07:42:36.194Z</time></trkpt><trkpt lat="44.4523053" lon="10.772385"><ele>422.0</ele><time>2026-05-02T07:42:39.225Z</time></trkpt><trkpt lat="44.4522386" lon="10.7724193"><ele>422.0</ele><time>2026-05-02T07:42:41.201Z</time></trkpt><trkpt lat="44.452143" lon="10.7724481"><ele>421.99999999999994</ele><time>2026-05-02T07:42:44.219Z</time></trkpt><trkpt lat="44.4520639" lon="10.7724688"><ele>422.0</ele><time>2026-05-02T07:42:46.19Z</time></trkpt><trkpt lat="44.4519843" lon="10.7724944"><ele>424.0</ele><time>2026-05-02T07:42:48.191Z</time></trkpt><trkpt lat="44.4519219" lon="10.7725314"><ele>426.0</ele><time>2026-05-02T07:42:50.204Z</time></trkpt><trkpt lat="44.4519089" lon="10.772631"><ele>428.0</ele><time>2026-05-02T07:42:52.194Z</time></trkpt><trkpt lat="44.45191" lon="10.7727604"><ele>430.0</ele><time>2026-05-02T07:42:54.202Z</time></trkpt><trkpt lat="44.4519309" lon="10.7728557"><ele>432.0</ele><time>2026-05-02T07:42:56.213Z</time></trkpt><trkpt lat="44.4519511" lon="10.7729407"><ele>434.0</ele><time>2026-05-02T07:49:17.229Z</time></trkpt><trkpt lat="44.4519101" lon="10.773016"><ele>436.0</ele><time>2026-05-02T07:51:27.189Z</time></trkpt><trkpt lat="44.4518404" lon="10.7730409"><ele>438.00000000000006</ele><time>2026-05-02T07:51:29.203Z</time></trkpt><trkpt lat="44.4517625" lon="10.773051"><ele>440.0</ele><time>2026-05-02T07:51:32.205Z</time></trkpt><trkpt lat="44.4516995" lon="10.7730462"><ele>442.0</ele><time>2026-05-02T07:51:34.212Z</time></trkpt><trkpt lat="44.4516217" lon="10.7730631"><ele>444.0</ele><time>2026-05-02T07:51:37.199Z</time></trkpt><trkpt lat="44.4515265" lon="10.7730621"><ele>446.00000000000006</ele><time>2026-05-02T07:51:40.231Z</time></trkpt><trkpt lat="44.4514765" lon="10.7731521"><ele>448.0</ele><time>2026-05-02T07:51:43.216Z</time></trkpt><trkpt lat="44.4514545" lon="10.7732818"><ele>448.00000000000006</ele><time>2026-05-02T07:51:45.21Z</time></trkpt><trkpt lat="44.4514137" lon="10.7734504"><ele>448.0</ele><time>2026-05-02T07:51:47.232Z</time></trkpt><trkpt lat="44.4513714" lon="10.7735609"><ele>448.0</ele><time>2026-05-02T07:51:49.201Z</time></trkpt><trkpt lat="44.4513114" lon="10.7736343"><ele>448.0</ele><time>2026-05-02T07:51:51.23Z</time></trkpt><trkpt lat="44.451244" lon="10.7736848"><ele>448.00000000000006</ele><time>2026-05-02T07:51:53.211Z</time></trkpt><trkpt lat="44.4511815" lon="10.773715"><ele>448.0</ele><time>2026-05-02T07:51:55.251Z</time></trkpt><trkpt lat="44.4510997" lon="10.7737212"><ele>451.2</ele><time>2026-05-02T07:52:22.212Z</time></trkpt><trkpt lat="44.4510179" lon="10.7737244"><ele>454.4</ele><time>2026-05-02T07:52:24.184Z</time></trkpt><trkpt lat="44.4509103" lon="10.7737482"><ele>457.59999999999997</ele><time>2026-05-02T07:52:26.224Z</time></trkpt><trkpt lat="44.4507932" lon="10.7737648"><ele>460.79999999999995</ele><time>2026-05-02T07:52:28.245Z</time></trkpt><trkpt lat="44.4507012" lon="10.7737933"><ele>464.0</ele><time>2026-05-02T07:52:30.237Z</time></trkpt><trkpt lat="44.4506136" lon="10.7738586"><ele>463.99999999999994</ele><time>2026-05-02T07:52:32.221Z</time></trkpt><trkpt lat="44.4505351" lon="10.7739024"><ele>464.0</ele><time>2026-05-02T07:52:34.199Z</time></trkpt><trkpt lat="44.4504442" lon="10.7739264"><ele>464.0</ele><time>2026-05-02T07:52:37.214Z</time></trkpt><trkpt lat="44.4503581" lon="10.7739359"><ele>464.0</ele><time>2026-05-02T07:52:40.202Z</time></trkpt><trkpt lat="44.4502848" lon="10.7739519"><ele>463.99999999999994</ele><time>2026-05-02T07:53:17.218Z</time></trkpt><trkpt lat="44.4502136" lon="10.7739988"><ele>464.0</ele><time>2026-05-02T07:53:19.226Z</time></trkpt><trkpt lat="44.4501291" lon="10.7740694"><ele>466.28571428571433</ele><time>2026-05-02T07:53:21.204Z</time></trkpt><trkpt lat="44.4500723" lon="10.7741161"><ele>468.57142857142856</ele><time>2026-05-02T07:53:22.233Z</time></trkpt><trkpt lat="44.4500125" lon="10.7741608"><ele>470.8571428571429</ele><time>2026-05-02T07:53:23.216Z</time></trkpt><trkpt lat="44.4499527" lon="10.7741961"><ele>473.14285714285717</ele><time>2026-05-02T07:53:24.213Z</time></trkpt><trkpt lat="44.4498852" lon="10.7742276"><ele>475.42857142857144</ele><time>2026-05-02T07:53:25.226Z</time></trkpt><trkpt lat="44.4498217" lon="10.7742525"><ele>477.7142857142857</ele><time>2026-05-02T07:53:26.237Z</time></trkpt><trkpt lat="44.4497107" lon="10.7742873"><ele>480.0</ele><time>2026-05-02T07:53:28.225Z</time></trkpt><trkpt lat="44.4496035" lon="10.7743133"><ele>480.6666666666667</ele><time>2026-05-02T07:53:30.21Z</time></trkpt><trkpt lat="44.4495042" lon="10.7743827"><ele>481.33333333333337</ele><time>2026-05-02T07:53:32.21Z</time></trkpt><trkpt lat="44.4494423" lon="10.7743553"><ele>482.0</ele><time>2026-05-02T07:53:45.215Z</time></trkpt><trkpt lat="44.4494581" lon="10.7742547"><ele>482.6666666666667</ele><time>2026-05-02T07:53:48.212Z</time></trkpt><trkpt lat="44.4495083" lon="10.7741678"><ele>483.33333333333337</ele><time>2026-05-02T07:53:50.215Z</time></trkpt><trkpt lat="44.4495653" lon="10.7741144"><ele>484.0</ele><time>2026-05-02T07:53:52.189Z</time></trkpt><trkpt lat="44.4496195" lon="10.7740549"><ele>485.4</ele><time>2026-05-02T07:53:55.221Z</time></trkpt><trkpt lat="44.4495988" lon="10.7739325"><ele>486.79999999999995</ele><time>2026-05-02T07:53:58.213Z</time></trkpt><trkpt lat="44.4495334" lon="10.7738281"><ele>488.20000000000005</ele><time>2026-05-02T07:54:00.177Z</time></trkpt><trkpt lat="44.4494552" lon="10.7737253"><ele>489.6</ele><time>2026-05-02T07:54:02.191Z</time></trkpt><trkpt lat="44.4493687" lon="10.7736502"><ele>491.0</ele><time>2026-05-02T07:54:04.208Z</time></trkpt><trkpt lat="44.4492794" lon="10.7735863"><ele>488.20000000000005</ele><time>2026-05-02T07:54:06.229Z</time></trkpt><trkpt lat="44.449188" lon="10.7735204"><ele>485.40000000000003</ele><time>2026-05-02T07:54:08.226Z</time></trkpt><trkpt lat="44.4490933" lon="10.7734432"><ele>482.6</ele><time>2026-05-02T07:54:10.237Z</time></trkpt><trkpt lat="44.4489936" lon="10.7733671"><ele>479.8</ele><time>2026-05-02T07:54:12.225Z</time></trkpt><trkpt lat="44.4488961" lon="10.7733023"><ele>477.0</ele><time>2026-05-02T07:54:14.19Z</time></trkpt><trkpt lat="44.4488103" lon="10.7732468"><ele>477.6666666666667</ele><time>2026-05-02T07:54:16.223Z</time></trkpt><trkpt lat="44.4487351" lon="10.7731993"><ele>478.33333333333337</ele><time>2026-05-02T07:54:18.207Z</time></trkpt><trkpt lat="44.4486785" lon="10.7731142"><ele>479.0</ele><time>2026-05-02T07:54:22.202Z</time></trkpt><trkpt lat="44.4486664" lon="10.7730153"><ele>479.6666666666667</ele><time>2026-05-02T07:54:24.211Z</time></trkpt><trkpt lat="44.4486574" lon="10.7729101"><ele>480.33333333333337</ele><time>2026-05-02T07:54:26.216Z</time></trkpt><trkpt lat="44.4486555" lon="10.7728118"><ele>481.0</ele><time>2026-05-02T07:54:28.224Z</time></trkpt><trkpt lat="44.4486559" lon="10.7727172"><ele>479.42857142857133</ele><time>2026-05-02T07:54:30.174Z</time></trkpt><trkpt lat="44.4486595" lon="10.7726262"><ele>477.85714285714283</ele><time>2026-05-02T07:54:32.195Z</time></trkpt><trkpt lat="44.448643" lon="10.7725305"><ele>476.2857142857142</ele><time>2026-05-02T07:54:34.19Z</time></trkpt><trkpt lat="44.4486244" lon="10.7724316"><ele>474.71428571428567</ele><time>2026-05-02T07:54:36.215Z</time></trkpt><trkpt lat="44.4486066" lon="10.7723283"><ele>473.1428571428571</ele><time>2026-05-02T07:54:38.232Z</time></trkpt><trkpt lat="44.448589" lon="10.7722306"><ele>471.57142857142856</ele><time>2026-05-02T07:54:40.236Z</time></trkpt><trkpt lat="44.4485618" lon="10.7721144"><ele>470.0</ele><time>2026-05-02T07:54:43.211Z</time></trkpt><trkpt lat="44.4485745" lon="10.7720186"><ele>469.99999999999994</ele><time>2026-05-02T07:54:45.187Z</time></trkpt><trkpt lat="44.448599" lon="10.7719163"><ele>470.0</ele><time>2026-05-02T07:54:47.189Z</time></trkpt><trkpt lat="44.4486226" lon="10.7718196"><ele>470.0</ele><time>2026-05-02T07:54:49.211Z</time></trkpt><trkpt lat="44.4486521" lon="10.7717065"><ele>470.0</ele><time>2026-05-02T07:54:51.225Z</time></trkpt><trkpt lat="44.4486797" lon="10.7716117"><ele>469.99999999999994</ele><time>2026-05-02T07:54:53.205Z</time></trkpt><trkpt lat="44.4486578" lon="10.771522"><ele>470.0</ele><time>2026-05-02T07:54:56.211Z</time></trkpt><trkpt lat="44.4485783" lon="10.7715113"><ele>467.99999999999994</ele><time>2026-05-02T07:54:58.218Z</time></trkpt><trkpt lat="44.448504" lon="10.7715089"><ele>466.0</ele><time>2026-05-02T07:55:00.204Z</time></trkpt><trkpt lat="44.4484808" lon="10.7714191"><ele>464.0</ele><time>2026-05-02T07:55:04.196Z</time></trkpt><trkpt lat="44.4484824" lon="10.7712711"><ele>462.0</ele><time>2026-05-02T07:55:07.218Z</time></trkpt><trkpt lat="44.448432" lon="10.7711962"><ele>459.99999999999994</ele><time>2026-05-02T07:55:09.191Z</time></trkpt><trkpt lat="44.4483463" lon="10.7711695"><ele>458.0</ele><time>2026-05-02T07:55:11.216Z</time></trkpt><trkpt lat="44.4482618" lon="10.7711472"><ele>457.99999999999994</ele><time>2026-05-02T07:55:13.216Z</time></trkpt><trkpt lat="44.4481865" lon="10.7711158"><ele>458.0</ele><time>2026-05-02T07:55:15.192Z</time></trkpt><trkpt lat="44.4481203" lon="10.7710398"><ele>458.0</ele><time>2026-05-02T07:55:18.22Z</time></trkpt><trkpt lat="44.4480723" lon="10.7709506"><ele>458.0</ele><time>2026-05-02T07:55:20.198Z</time></trkpt><trkpt lat="44.4480282" lon="10.7708258"><ele>457.99999999999994</ele><time>2026-05-02T07:55:22.234Z</time></trkpt><trkpt lat="44.4479811" lon="10.7706945"><ele>458.0</ele><time>2026-05-02T07:55:24.217Z</time></trkpt><trkpt lat="44.4479459" lon="10.7705851"><ele>458.2</ele><time>2026-05-02T07:55:26.187Z</time></trkpt><trkpt lat="44.4479555" lon="10.7704566"><ele>458.4</ele><time>2026-05-02T07:55:28.216Z</time></trkpt><trkpt lat="44.4480023" lon="10.7703086"><ele>458.59999999999997</ele><time>2026-05-02T07:55:30.208Z</time></trkpt><trkpt lat="44.4480279" lon="10.7701744"><ele>458.79999999999995</ele><time>2026-05-02T07:55:32.201Z</time></trkpt><trkpt lat="44.4480283" lon="10.7700331"><ele>459.0</ele><time>2026-05-02T07:55:34.187Z</time></trkpt><trkpt lat="44.4479974" lon="10.7698942"><ele>465.6</ele><time>2026-05-02T07:55:36.229Z</time></trkpt><trkpt lat="44.4479481" lon="10.7697464"><ele>472.2</ele><time>2026-05-02T07:55:38.216Z</time></trkpt><trkpt lat="44.4478851" lon="10.7696144"><ele>478.80000000000007</ele><time>2026-05-02T07:55:40.21Z</time></trkpt><trkpt lat="44.447833" lon="10.7694784"><ele>485.40000000000003</ele><time>2026-05-02T07:55:42.214Z</time></trkpt><trkpt lat="44.4477945" lon="10.7693397"><ele>492.0</ele><time>2026-05-02T07:55:44.225Z</time></trkpt><trkpt lat="44.4477778" lon="10.7691975"><ele>492.6666666666667</ele><time>2026-05-02T07:55:46.207Z</time></trkpt><trkpt lat="44.4477543" lon="10.7690875"><ele>493.33333333333337</ele><time>2026-05-02T07:55:48.203Z</time></trkpt><trkpt lat="44.4477004" lon="10.7690217"><ele>494.0</ele><time>2026-05-02T07:55:51.194Z</time></trkpt><trkpt lat="44.4476169" lon="10.7690408"><ele>494.6666666666667</ele><time>2026-05-02T07:55:53.203Z</time></trkpt><trkpt lat="44.4475306" lon="10.7690339"><ele>495.33333333333337</ele><time>2026-05-02T07:55:55.217Z</time></trkpt><trkpt lat="44.4474394" lon="10.7689555"><ele>496.0</ele><time>2026-05-02T07:55:57.218Z</time></trkpt><trkpt lat="44.4473624" lon="10.7688356"><ele>496.00000000000006</ele><time>2026-05-02T07:55:59.224Z</time></trkpt><trkpt lat="44.4473124" lon="10.7687427"><ele>496.0</ele><time>2026-05-02T07:56:01.213Z</time></trkpt><trkpt lat="44.4472691" lon="10.7686707"><ele>496.0</ele><time>2026-05-02T07:56:04.214Z</time></trkpt><trkpt lat="44.4471909" lon="10.7685737"><ele>496.0</ele><time>2026-05-02T07:56:07.215Z</time></trkpt><trkpt lat="44.4471141" lon="10.7686165"><ele>496.00000000000006</ele><time>2026-05-02T07:56:10.184Z</time></trkpt><trkpt lat="44.4470666" lon="10.7687143"><ele>496.0</ele><time>2026-05-02T07:56:12.164Z</time></trkpt><trkpt lat="44.4470325" lon="10.7688054"><ele>501.33333333333337</ele><time>2026-05-02T07:56:14.215Z</time></trkpt><trkpt lat="44.446989" lon="10.7689497"><ele>506.6666666666667</ele><time>2026-05-02T07:56:16.213Z</time></trkpt><trkpt lat="44.446954" lon="10.769088"><ele>512.0</ele><time>2026-05-02T07:56:18.213Z</time></trkpt><trkpt lat="44.4469191" lon="10.7691646"><ele>517.3333333333334</ele><time>2026-05-02T07:56:21.206Z</time></trkpt><trkpt lat="44.4468599" lon="10.7691027"><ele>522.6666666666666</ele><time>2026-05-02T07:56:24.232Z</time></trkpt><trkpt lat="44.4468354" lon="10.7690138"><ele>528.0</ele><time>2026-05-02T07:56:25.198Z</time></trkpt><trkpt lat="44.4467932" lon="10.7688727"><ele>528.0</ele><time>2026-05-02T07:56:27.206Z</time></trkpt><trkpt lat="44.4467477" lon="10.76878"><ele>528.0</ele><time>2026-05-02T07:56:29.202Z</time></trkpt><trkpt lat="44.4467175" lon="10.7686913"><ele>528.0</ele><time>2026-05-02T07:56:31.217Z</time></trkpt><trkpt lat="44.4466787" lon="10.7686199"><ele>528.0</ele><time>2026-05-02T07:56:33.209Z</time></trkpt><trkpt lat="44.4466042" lon="10.7685537"><ele>528.0</ele><time>2026-05-02T07:56:36.211Z</time></trkpt><trkpt lat="44.4465386" lon="10.7686053"><ele>528.0</ele><time>2026-05-02T07:56:39.236Z</time></trkpt><trkpt lat="44.4465587" lon="10.7687022"><ele>528.0</ele><time>2026-05-02T07:56:42.181Z</time></trkpt><trkpt lat="44.446564" lon="10.7687938"><ele>528.0</ele><time>2026-05-02T07:56:44.21Z</time></trkpt><trkpt lat="44.4465658" lon="10.7689031"><ele>528.0</ele><time>2026-05-02T07:56:46.187Z</time></trkpt><trkpt lat="44.4465581" lon="10.769006"><ele>528.0</ele><time>2026-05-02T07:56:48.25Z</time></trkpt><trkpt lat="44.4465382" lon="10.7690941"><ele>528.0</ele><time>2026-05-02T07:56:50.205Z</time></trkpt><trkpt lat="44.446515" lon="10.7691952"><ele>528.0</ele><time>2026-05-02T07:56:53.22Z</time></trkpt><trkpt lat="44.4465191" lon="10.769296"><ele>528.0</ele><time>2026-05-02T07:56:56.196Z</time></trkpt><trkpt lat="44.4465296" lon="10.7694061"><ele>528.1666666666666</ele><time>2026-05-02T07:57:00.22Z</time></trkpt><trkpt lat="44.4465122" lon="10.7695018"><ele>528.3333333333334</ele><time>2026-05-02T07:57:02.196Z</time></trkpt><trkpt lat="44.4464405" lon="10.7695024"><ele>528.5</ele><time>2026-05-02T07:57:04.208Z</time></trkpt><trkpt lat="44.4463538" lon="10.7694564"><ele>528.6666666666667</ele><time>2026-05-02T07:57:06.231Z</time></trkpt><trkpt lat="44.4462583" lon="10.7694233"><ele>528.8333333333334</ele><time>2026-05-02T07:57:08.181Z</time></trkpt><trkpt lat="44.4462012" lon="10.7693825"><ele>529.0</ele><time>2026-05-02T07:57:10.269Z</time></trkpt><trkpt lat="44.4461974" lon="10.7692917"><ele>531.8333333333334</ele><time>2026-05-02T07:57:13.25Z</time></trkpt><trkpt lat="44.4462226" lon="10.7691799"><ele>534.6666666666667</ele><time>2026-05-02T07:57:21.211Z</time></trkpt><trkpt lat="44.4462391" lon="10.7690247"><ele>537.5</ele><time>2026-05-02T07:57:23.22Z</time></trkpt><trkpt lat="44.4462402" lon="10.7688932"><ele>540.3333333333334</ele><time>2026-05-02T07:57:25.232Z</time></trkpt><trkpt lat="44.4462294" lon="10.7688053"><ele>543.1666666666666</ele><time>2026-05-02T07:57:26.207Z</time></trkpt><trkpt lat="44.4462018" lon="10.7687053"><ele>546.0</ele><time>2026-05-02T07:57:27.198Z</time></trkpt><trkpt lat="44.4461679" lon="10.7685865"><ele>548.0</ele><time>2026-05-02T07:57:28.2Z</time></trkpt><trkpt lat="44.4461421" lon="10.7684708"><ele>550.0</ele><time>2026-05-02T07:57:29.21Z</time></trkpt><trkpt lat="44.4461375" lon="10.7683652"><ele>552.0</ele><time>2026-05-02T07:57:30.208Z</time></trkpt><trkpt lat="44.4461346" lon="10.7682521"><ele>554.0</ele><time>2026-05-02T07:57:31.225Z</time></trkpt><trkpt lat="44.4461746" lon="10.7681389"><ele>556.0</ele><time>2026-05-02T07:57:32.22Z</time></trkpt><trkpt lat="44.4462328" lon="10.7680272"><ele>558.0</ele><time>2026-05-02T07:57:33.219Z</time></trkpt><trkpt lat="44.4462941" lon="10.7679312"><ele>556.2857142857142</ele><time>2026-05-02T07:57:34.191Z</time></trkpt><trkpt lat="44.4463535" lon="10.7678525"><ele>554.5714285714286</ele><time>2026-05-02T07:57:35.21Z</time></trkpt><trkpt lat="44.4464051" lon="10.7677783"><ele>552.8571428571429</ele><time>2026-05-02T07:57:36.217Z</time></trkpt><trkpt lat="44.4464485" lon="10.7676917"><ele>551.1428571428571</ele><time>2026-05-02T07:57:37.213Z</time></trkpt><trkpt lat="44.4464804" lon="10.7676011"><ele>549.4285714285714</ele><time>2026-05-02T07:57:38.218Z</time></trkpt><trkpt lat="44.4464997" lon="10.7675097"><ele>547.7142857142857</ele><time>2026-05-02T07:57:39.217Z</time></trkpt><trkpt lat="44.4465141" lon="10.7674204"><ele>546.0</ele><time>2026-05-02T07:57:40.178Z</time></trkpt><trkpt lat="44.4465362" lon="10.7672739"><ele>546.0</ele><time>2026-05-02T07:57:42.203Z</time></trkpt><trkpt lat="44.446498" lon="10.7671845"><ele>546.0</ele><time>2026-05-02T07:57:45.209Z</time></trkpt><trkpt lat="44.4464468" lon="10.7672863"><ele>546.0</ele><time>2026-05-02T07:57:47.206Z</time></trkpt><trkpt lat="44.4464237" lon="10.7673761"><ele>546.0</ele><time>2026-05-02T07:57:48.218Z</time></trkpt><trkpt lat="44.4463943" lon="10.7674655"><ele>546.0</ele><time>2026-05-02T07:57:49.226Z</time></trkpt><trkpt lat="44.4463563" lon="10.7675556"><ele>546.0</ele><time>2026-05-02T07:57:50.221Z</time></trkpt><trkpt lat="44.4463096" lon="10.7676279"><ele>546.0</ele><time>2026-05-02T07:57:51.255Z</time></trkpt><trkpt lat="44.4462475" lon="10.7676851"><ele>548.4</ele><time>2026-05-02T07:57:52.205Z</time></trkpt><trkpt lat="44.4461743" lon="10.7677224"><ele>550.8</ele><time>2026-05-02T07:57:53.228Z</time></trkpt><trkpt lat="44.4460834" lon="10.7677559"><ele>553.1999999999999</ele><time>2026-05-02T07:57:54.198Z</time></trkpt><trkpt lat="44.4459835" lon="10.7677924"><ele>555.6</ele><time>2026-05-02T07:57:55.229Z</time></trkpt><trkpt lat="44.4458832" lon="10.7678289"><ele>558.0</ele><time>2026-05-02T07:57:56.198Z</time></trkpt><trkpt lat="44.4457729" lon="10.7678678"><ele>558.0</ele><time>2026-05-02T07:57:57.258Z</time></trkpt><trkpt lat="44.445658" lon="10.7679027"><ele>558.0</ele><time>2026-05-02T07:57:58.206Z</time></trkpt><trkpt lat="44.4455515" lon="10.7679324"><ele>558.0</ele><time>2026-05-02T07:57:59.21Z</time></trkpt><trkpt lat="44.4454563" lon="10.7679521"><ele>558.0</ele><time>2026-05-02T07:58:00.212Z</time></trkpt><trkpt lat="44.4453795" lon="10.7679575"><ele>558.0</ele><time>2026-05-02T07:58:01.212Z</time></trkpt><trkpt lat="44.4453098" lon="10.7679461"><ele>558.1999999999999</ele><time>2026-05-02T07:58:02.191Z</time></trkpt><trkpt lat="44.4452364" lon="10.7679085"><ele>558.4</ele><time>2026-05-02T07:58:03.271Z</time></trkpt><trkpt lat="44.4451613" lon="10.7678486"><ele>558.5999999999999</ele><time>2026-05-02T07:58:04.216Z</time></trkpt><trkpt lat="44.4450797" lon="10.7677744"><ele>558.8</ele><time>2026-05-02T07:58:05.173Z</time></trkpt><trkpt lat="44.4449987" lon="10.767704"><ele>559.0</ele><time>2026-05-02T07:58:06.2Z</time></trkpt><trkpt lat="44.444909" lon="10.7676349"><ele>561.0</ele><time>2026-05-02T07:58:07.234Z</time></trkpt><trkpt lat="44.4448143" lon="10.7675674"><ele>563.0</ele><time>2026-05-02T07:58:08.231Z</time></trkpt><trkpt lat="44.4447183" lon="10.7674954"><ele>565.0</ele><time>2026-05-02T07:58:09.255Z</time></trkpt><trkpt lat="44.4446239" lon="10.7674183"><ele>567.0</ele><time>2026-05-02T07:58:10.209Z</time></trkpt><trkpt lat="44.4445305" lon="10.767339"><ele>569.0</ele><time>2026-05-02T07:58:11.223Z</time></trkpt><trkpt lat="44.4444394" lon="10.7672633"><ele>570.6</ele><time>2026-05-02T07:58:12.225Z</time></trkpt><trkpt lat="44.4443526" lon="10.7671892"><ele>572.2</ele><time>2026-05-02T07:58:13.21Z</time></trkpt><trkpt lat="44.4442607" lon="10.7671186"><ele>573.8000000000001</ele><time>2026-05-02T07:58:14.212Z</time></trkpt><trkpt lat="44.4441625" lon="10.7670437"><ele>575.4</ele><time>2026-05-02T07:58:15.213Z</time></trkpt><trkpt lat="44.4440679" lon="10.7669694"><ele>577.0</ele><time>2026-05-02T07:58:16.199Z</time></trkpt><trkpt lat="44.4439759" lon="10.7668948"><ele>577.6666666666667</ele><time>2026-05-02T07:58:17.218Z</time></trkpt><trkpt lat="44.4439029" lon="10.766805"><ele>578.3333333333334</ele><time>2026-05-02T07:58:18.164Z</time></trkpt><trkpt lat="44.4438447" lon="10.7667286"><ele>579.0</ele><time>2026-05-02T07:58:19.169Z</time></trkpt><trkpt lat="44.4437925" lon="10.7666515"><ele>579.6666666666666</ele><time>2026-05-02T07:58:20.253Z</time></trkpt><trkpt lat="44.4437406" lon="10.7665734"><ele>580.3333333333333</ele><time>2026-05-02T07:58:21.203Z</time></trkpt><trkpt lat="44.4437021" lon="10.7664591"><ele>581.0</ele><time>2026-05-02T07:58:22.231Z</time></trkpt><trkpt lat="44.4436682" lon="10.7663311"><ele>582.3333333333333</ele><time>2026-05-02T07:58:23.224Z</time></trkpt><trkpt lat="44.443636" lon="10.7662057"><ele>583.6666666666666</ele><time>2026-05-02T07:58:24.235Z</time></trkpt><trkpt lat="44.4436073" lon="10.7660872"><ele>585.0</ele><time>2026-05-02T07:58:25.214Z</time></trkpt><trkpt lat="44.443573" lon="10.7659764"><ele>586.3333333333334</ele><time>2026-05-02T07:58:26.23Z</time></trkpt><trkpt lat="44.4435301" lon="10.7658759"><ele>587.6666666666667</ele><time>2026-05-02T07:58:27.218Z</time></trkpt><trkpt lat="44.4434778" lon="10.765794"><ele>589.0</ele><time>2026-05-02T07:58:28.218Z</time></trkpt><trkpt lat="44.4434153" lon="10.7657267"><ele>589.6666666666667</ele><time>2026-05-02T07:58:29.225Z</time></trkpt><trkpt lat="44.4433604" lon="10.7656504"><ele>590.3333333333334</ele><time>2026-05-02T07:58:30.216Z</time></trkpt><trkpt lat="44.4432707" lon="10.7656269"><ele>591.0</ele><time>2026-05-02T07:58:31.218Z</time></trkpt><trkpt lat="44.4431734" lon="10.7656121"><ele>591.6666666666666</ele><time>2026-05-02T07:58:32.224Z</time></trkpt><trkpt lat="44.4430848" lon="10.7655906"><ele>592.3333333333333</ele><time>2026-05-02T07:58:33.226Z</time></trkpt><trkpt lat="44.4430022" lon="10.7655492"><ele>593.0</ele><time>2026-05-02T07:58:34.203Z</time></trkpt><trkpt lat="44.4429215" lon="10.7654887"><ele>596.0</ele><time>2026-05-02T07:58:35.211Z</time></trkpt><trkpt lat="44.4428344" lon="10.7654204"><ele>599.0</ele><time>2026-05-02T07:58:36.232Z</time></trkpt><trkpt lat="44.4427411" lon="10.7653587"><ele>602.0</ele><time>2026-05-02T07:58:37.255Z</time></trkpt><trkpt lat="44.4426524" lon="10.7653013"><ele>605.0</ele><time>2026-05-02T07:58:38.221Z</time></trkpt><trkpt lat="44.4425688" lon="10.7652491"><ele>608.0</ele><time>2026-05-02T07:58:39.226Z</time></trkpt><trkpt lat="44.4424883" lon="10.7652132"><ele>607.5</ele><time>2026-05-02T07:58:40.212Z</time></trkpt><trkpt lat="44.4424069" lon="10.7651831"><ele>607.0</ele><time>2026-05-02T07:58:41.221Z</time></trkpt><trkpt lat="44.4423401" lon="10.7651602"><ele>606.5</ele><time>2026-05-02T07:58:42.17Z</time></trkpt><trkpt lat="44.4422515" lon="10.7651208"><ele>606.0</ele><time>2026-05-02T07:58:44.174Z</time></trkpt><trkpt lat="44.4421714" lon="10.7650119"><ele>605.5</ele><time>2026-05-02T07:58:46.232Z</time></trkpt><trkpt lat="44.442125" lon="10.7649118"><ele>605.0</ele><time>2026-05-02T07:58:48.219Z</time></trkpt><trkpt lat="44.4420805" lon="10.7648383"><ele>609.6</ele><time>2026-05-02T07:59:00.216Z</time></trkpt><trkpt lat="44.4420195" lon="10.7647928"><ele>614.2</ele><time>2026-05-02T07:59:02.199Z</time></trkpt><trkpt lat="44.4419347" lon="10.7647073"><ele>618.8</ele><time>2026-05-02T07:59:04.198Z</time></trkpt><trkpt lat="44.4418679" lon="10.7646079"><ele>623.4</ele><time>2026-05-02T07:59:06.215Z</time></trkpt><trkpt lat="44.4417916" lon="10.7644935"><ele>628.0</ele><time>2026-05-02T07:59:08.209Z</time></trkpt><trkpt lat="44.4417018" lon="10.764402"><ele>627.1999999999999</ele><time>2026-05-02T07:59:10.22Z</time></trkpt><trkpt lat="44.4415879" lon="10.7643311"><ele>626.4</ele><time>2026-05-02T07:59:12.23Z</time></trkpt><trkpt lat="44.4414761" lon="10.7642646"><ele>625.5999999999999</ele><time>2026-05-02T07:59:14.183Z</time></trkpt><trkpt lat="44.4413597" lon="10.7641978"><ele>624.8</ele><time>2026-05-02T07:59:16.233Z</time></trkpt><trkpt lat="44.441298" lon="10.7641656"><ele>624.0</ele><time>2026-05-02T07:59:17.196Z</time></trkpt><trkpt lat="44.4412268" lon="10.7641325"><ele>624.0</ele><time>2026-05-02T07:59:18.232Z</time></trkpt><trkpt lat="44.4411504" lon="10.7640964"><ele>624.0</ele><time>2026-05-02T07:59:19.219Z</time></trkpt><trkpt lat="44.4410739" lon="10.764056"><ele>624.0</ele><time>2026-05-02T07:59:20.21Z</time></trkpt><trkpt lat="44.4410044" lon="10.7640141"><ele>624.0</ele><time>2026-05-02T07:59:21.236Z</time></trkpt><trkpt lat="44.4409328" lon="10.7639692"><ele>624.0</ele><time>2026-05-02T07:59:22.221Z</time></trkpt><trkpt lat="44.440864" lon="10.7639233"><ele>624.0</ele><time>2026-05-02T07:59:23.234Z</time></trkpt><trkpt lat="44.4407938" lon="10.7638848"><ele>624.0</ele><time>2026-05-02T07:59:24.241Z</time></trkpt><trkpt lat="44.4407258" lon="10.7638462"><ele>624.0</ele><time>2026-05-02T07:59:25.236Z</time></trkpt><trkpt lat="44.4406661" lon="10.7638119"><ele>624.0</ele><time>2026-05-02T07:59:26.23Z</time></trkpt><trkpt lat="44.4405637" lon="10.7637201"><ele>624.0</ele><time>2026-05-02T07:59:28.208Z</time></trkpt><trkpt lat="44.4405169" lon="10.7636469"><ele>624.0</ele><time>2026-05-02T07:59:29.204Z</time></trkpt><trkpt lat="44.4404731" lon="10.7635823"><ele>624.0</ele><time>2026-05-02T07:59:30.243Z</time></trkpt><trkpt lat="44.4404014" lon="10.7634651"><ele>625.4</ele><time>2026-05-02T07:59:32.235Z</time></trkpt><trkpt lat="44.4403248" lon="10.7633851"><ele>626.8</ele><time>2026-05-02T07:59:34.173Z</time></trkpt><trkpt lat="44.4402267" lon="10.7633232"><ele>628.2</ele><time>2026-05-02T07:59:36.215Z</time></trkpt><trkpt lat="44.4401411" lon="10.7632223"><ele>629.6</ele><time>2026-05-02T07:59:38.197Z</time></trkpt><trkpt lat="44.4400623" lon="10.7631054"><ele>631.0</ele><time>2026-05-02T07:59:40.211Z</time></trkpt><trkpt lat="44.4399949" lon="10.7629828"><ele>631.0</ele><time>2026-05-02T07:59:42.237Z</time></trkpt><trkpt lat="44.4399311" lon="10.7628307"><ele>631.0</ele><time>2026-05-02T07:59:44.265Z</time></trkpt><trkpt lat="44.4398801" lon="10.7627541"><ele>631.0</ele><time>2026-05-02T07:59:45.196Z</time></trkpt><trkpt lat="44.4398218" lon="10.7626977"><ele>631.0</ele><time>2026-05-02T07:59:46.23Z</time></trkpt><trkpt lat="44.4397224" lon="10.7626034"><ele>631.0</ele><time>2026-05-02T07:59:48.239Z</time></trkpt><trkpt lat="44.439663" lon="10.7625695"><ele>630.8571428571429</ele><time>2026-05-02T07:59:49.244Z</time></trkpt><trkpt lat="44.4395966" lon="10.7625466"><ele>630.7142857142857</ele><time>2026-05-02T07:59:50.2Z</time></trkpt><trkpt lat="44.4395184" lon="10.7625177"><ele>630.5714285714286</ele><time>2026-05-02T07:59:51.223Z</time></trkpt><trkpt lat="44.4394442" lon="10.7624881"><ele>630.4285714285714</ele><time>2026-05-02T07:59:52.218Z</time></trkpt><trkpt lat="44.4393746" lon="10.7624688"><ele>630.2857142857142</ele><time>2026-05-02T07:59:53.225Z</time></trkpt><trkpt lat="44.4393072" lon="10.7624542"><ele>630.1428571428571</ele><time>2026-05-02T07:59:54.208Z</time></trkpt><trkpt lat="44.4392437" lon="10.7624444"><ele>630.0</ele><time>2026-05-02T07:59:55.228Z</time></trkpt><trkpt lat="44.4391805" lon="10.7624344"><ele>630.0</ele><time>2026-05-02T07:59:56.23Z</time></trkpt><trkpt lat="44.4390544" lon="10.7624075"><ele>630.0</ele><time>2026-05-02T07:59:58.217Z</time></trkpt><trkpt lat="44.4389588" lon="10.7623124"><ele>630.0</ele><time>2026-05-02T08:00:00.241Z</time></trkpt><trkpt lat="44.4388892" lon="10.7621533"><ele>630.0</ele><time>2026-05-02T08:00:02.221Z</time></trkpt><trkpt lat="44.438857" lon="10.7620751"><ele>630.0</ele><time>2026-05-02T08:00:03.164Z</time></trkpt><trkpt lat="44.4387836" lon="10.7619425"><ele>630.2</ele><time>2026-05-02T08:00:05.2Z</time></trkpt><trkpt lat="44.4387018" lon="10.7618621"><ele>630.4</ele><time>2026-05-02T08:00:07.212Z</time></trkpt><trkpt lat="44.4386384" lon="10.7618364"><ele>630.6</ele><time>2026-05-02T08:00:08.227Z</time></trkpt><trkpt lat="44.4385363" lon="10.7617564"><ele>630.8</ele><time>2026-05-02T08:00:10.218Z</time></trkpt><trkpt lat="44.438454" lon="10.7616315"><ele>631.0</ele><time>2026-05-02T08:00:12.206Z</time></trkpt><trkpt lat="44.438399" lon="10.7615827"><ele>631.0</ele><time>2026-05-02T08:00:13.22Z</time></trkpt><trkpt lat="44.4383427" lon="10.7615339"><ele>631.0</ele><time>2026-05-02T08:00:14.21Z</time></trkpt><trkpt lat="44.4382791" lon="10.7614665"><ele>631.0</ele><time>2026-05-02T08:00:15.216Z</time></trkpt><trkpt lat="44.4382392" lon="10.7613672"><ele>631.0</ele><time>2026-05-02T08:00:16.229Z</time></trkpt><trkpt lat="44.4382158" lon="10.7612704"><ele>631.0</ele><time>2026-05-02T08:00:17.215Z</time></trkpt><trkpt lat="44.4381859" lon="10.7611888"><ele>631.0</ele><time>2026-05-02T08:00:18.217Z</time></trkpt><trkpt lat="44.4381161" lon="10.7610646"><ele>629.0</ele><time>2026-05-02T08:00:20.223Z</time></trkpt><trkpt lat="44.4380353" lon="10.7609805"><ele>627.0</ele><time>2026-05-02T08:00:22.174Z</time></trkpt><trkpt lat="44.4379975" lon="10.7608792"><ele>625.0</ele><time>2026-05-02T08:00:24.214Z</time></trkpt><trkpt lat="44.4379962" lon="10.7607586"><ele>623.0</ele><time>2026-05-02T08:00:26.227Z</time></trkpt><trkpt lat="44.4379883" lon="10.7606632"><ele>621.0</ele><time>2026-05-02T08:00:28.221Z</time></trkpt><trkpt lat="44.4379445" lon="10.760591"><ele>619.0</ele><time>2026-05-02T08:00:30.221Z</time></trkpt><trkpt lat="44.4378862" lon="10.7605137"><ele>621.6</ele><time>2026-05-02T08:00:32.213Z</time></trkpt><trkpt lat="44.4378138" lon="10.7604447"><ele>624.2</ele><time>2026-05-02T08:00:34.212Z</time></trkpt><trkpt lat="44.4377508" lon="10.760385"><ele>626.8000000000001</ele><time>2026-05-02T08:00:36.198Z</time></trkpt><trkpt lat="44.4376972" lon="10.7602651"><ele>629.4</ele><time>2026-05-02T08:00:39.219Z</time></trkpt><trkpt lat="44.4376372" lon="10.7601564"><ele>632.0</ele><time>2026-05-02T08:00:41.226Z</time></trkpt><trkpt lat="44.4375575" lon="10.760057"><ele>632.0</ele><time>2026-05-02T08:00:43.242Z</time></trkpt><trkpt lat="44.4374953" lon="10.7599477"><ele>632.0</ele><time>2026-05-02T08:00:45.247Z</time></trkpt><trkpt lat="44.4374529" lon="10.7598422"><ele>632.0</ele><time>2026-05-02T08:00:47.201Z</time></trkpt><trkpt lat="44.4373788" lon="10.7597632"><ele>632.0</ele><time>2026-05-02T08:00:49.197Z</time></trkpt><trkpt lat="44.4372905" lon="10.759721"><ele>632.0</ele><time>2026-05-02T08:00:51.222Z</time></trkpt><trkpt lat="44.4372271" lon="10.7597012"><ele>632.0</ele><time>2026-05-02T08:00:53.21Z</time></trkpt><trkpt lat="44.4371832" lon="10.7596221"><ele>632.0</ele><time>2026-05-02T08:00:56.222Z</time></trkpt><trkpt lat="44.4371773" lon="10.7595332"><ele>632.0</ele><time>2026-05-02T08:00:58.166Z</time></trkpt><trkpt lat="44.4371469" lon="10.7594483"><ele>632.0</ele><time>2026-05-02T08:01:00.183Z</time></trkpt><trkpt lat="44.4371116" lon="10.759341"><ele>632.0</ele><time>2026-05-02T08:01:03.201Z</time></trkpt><trkpt lat="44.4371776" lon="10.7592975"><ele>632.0</ele><time>2026-05-02T08:01:06.2Z</time></trkpt><trkpt lat="44.4372677" lon="10.7592704"><ele>632.0</ele><time>2026-05-02T08:01:09.217Z</time></trkpt><trkpt lat="44.4372931" lon="10.7591684"><ele>633.3333333333333</ele><time>2026-05-02T08:01:11.222Z</time></trkpt><trkpt lat="44.4372984" lon="10.7590432"><ele>634.6666666666666</ele><time>2026-05-02T08:01:13.217Z</time></trkpt><trkpt lat="44.4373321" lon="10.7589242"><ele>636.0</ele><time>2026-05-02T08:01:15.184Z</time></trkpt><trkpt lat="44.4372632" lon="10.7588731"><ele>637.3333333333334</ele><time>2026-05-02T08:01:21.217Z</time></trkpt><trkpt lat="44.4372001" lon="10.7588816"><ele>638.6666666666667</ele><time>2026-05-02T08:01:23.18Z</time></trkpt><trkpt lat="44.4371347" lon="10.7587936"><ele>640.0</ele><time>2026-05-02T08:01:26.172Z</time></trkpt><trkpt lat="44.4371016" lon="10.7586968"><ele>640.0</ele><time>2026-05-02T08:01:28.172Z</time></trkpt><trkpt lat="44.4370298" lon="10.7586624"><ele>640.0</ele><time>2026-05-02T08:01:31.211Z</time></trkpt><trkpt lat="44.4369499" lon="10.7586118"><ele>640.0</ele><time>2026-05-02T08:01:34.199Z</time></trkpt><trkpt lat="44.4368901" lon="10.7585491"><ele>640.0</ele><time>2026-05-02T08:01:36.188Z</time></trkpt><trkpt lat="44.4368294" lon="10.7584957"><ele>640.0</ele><time>2026-05-02T08:01:38.225Z</time></trkpt><trkpt lat="44.4367528" lon="10.7584787"><ele>640.0</ele><time>2026-05-02T08:01:41.21Z</time></trkpt><trkpt lat="44.4366594" lon="10.7584996"><ele>640.0</ele><time>2026-05-02T08:01:44.177Z</time></trkpt><trkpt lat="44.4365784" lon="10.7585423"><ele>640.0</ele><time>2026-05-02T08:01:46.224Z</time></trkpt><trkpt lat="44.4365124" lon="10.7585747"><ele>640.0</ele><time>2026-05-02T08:01:48.23Z</time></trkpt><trkpt lat="44.4364432" lon="10.7586039"><ele>640.0</ele><time>2026-05-02T08:01:51.224Z</time></trkpt><trkpt lat="44.4363942" lon="10.7586913"><ele>640.0</ele><time>2026-05-02T08:01:54.174Z</time></trkpt><trkpt lat="44.4363788" lon="10.758792"><ele>640.0</ele><time>2026-05-02T08:02:00.201Z</time></trkpt><trkpt lat="44.4363619" lon="10.7588909"><ele>640.0</ele><time>2026-05-02T08:02:03.222Z</time></trkpt><trkpt lat="44.4363367" lon="10.7589794"><ele>640.0</ele><time>2026-05-02T08:02:06.173Z</time></trkpt><trkpt lat="44.4363004" lon="10.7590646"><ele>640.0</ele><time>2026-05-02T08:02:08.217Z</time></trkpt><trkpt lat="44.436216" lon="10.7591294"><ele>640.0</ele><time>2026-05-02T08:02:10.221Z</time></trkpt><trkpt lat="44.4361191" lon="10.7591678"><ele>640.0</ele><time>2026-05-02T08:02:12.247Z</time></trkpt><trkpt lat="44.4360604" lon="10.7592019"><ele>640.0</ele><time>2026-05-02T08:02:13.22Z</time></trkpt><trkpt lat="44.4359902" lon="10.7592745"><ele>643.3333333333334</ele><time>2026-05-02T08:02:15.224Z</time></trkpt><trkpt lat="44.4359361" lon="10.7593383"><ele>646.6666666666667</ele><time>2026-05-02T08:02:27.2Z</time></trkpt><trkpt lat="44.4358575" lon="10.7593925"><ele>650.0</ele><time>2026-05-02T08:02:30.244Z</time></trkpt><trkpt lat="44.4357666" lon="10.7594477"><ele>653.3333333333334</ele><time>2026-05-02T08:02:32.232Z</time></trkpt><trkpt lat="44.4357065" lon="10.7595114"><ele>656.6666666666666</ele><time>2026-05-02T08:02:34.203Z</time></trkpt><trkpt lat="44.4356472" lon="10.7595823"><ele>660.0</ele><time>2026-05-02T08:02:36.209Z</time></trkpt><trkpt lat="44.4355641" lon="10.7596646"><ele>662.4</ele><time>2026-05-02T08:02:38.197Z</time></trkpt><trkpt lat="44.4354829" lon="10.7597524"><ele>664.8</ele><time>2026-05-02T08:02:40.214Z</time></trkpt><trkpt lat="44.4354076" lon="10.7598678"><ele>667.2</ele><time>2026-05-02T08:02:42.207Z</time></trkpt><trkpt lat="44.4353703" lon="10.7599762"><ele>669.6</ele><time>2026-05-02T08:02:44.192Z</time></trkpt><trkpt lat="44.4353846" lon="10.7600821"><ele>672.0</ele><time>2026-05-02T08:02:48.201Z</time></trkpt><trkpt lat="44.435438" lon="10.760151"><ele>672.0</ele><time>2026-05-02T08:02:50.217Z</time></trkpt><trkpt lat="44.4355358" lon="10.7601646"><ele>672.0</ele><time>2026-05-02T08:02:52.221Z</time></trkpt><trkpt lat="44.4355998" lon="10.7601809"><ele>672.0</ele><time>2026-05-02T08:02:54.24Z</time></trkpt><trkpt lat="44.4356263" lon="10.7602848"><ele>672.0</ele><time>2026-05-02T08:02:56.218Z</time></trkpt><trkpt lat="44.4355923" lon="10.760414"><ele>672.0</ele><time>2026-05-02T08:02:58.203Z</time></trkpt><trkpt lat="44.4356212" lon="10.7605404"><ele>672.0</ele><time>2026-05-02T08:03:01.22Z</time></trkpt><trkpt lat="44.435682" lon="10.7606009"><ele>674.1666666666666</ele><time>2026-05-02T08:03:03.214Z</time></trkpt><trkpt lat="44.4357289" lon="10.7606607"><ele>676.3333333333334</ele><time>2026-05-02T08:03:05.218Z</time></trkpt><trkpt lat="44.4357516" lon="10.7607889"><ele>678.5</ele><time>2026-05-02T08:03:08.225Z</time></trkpt><trkpt lat="44.4357662" lon="10.7609237"><ele>680.6666666666667</ele><time>2026-05-02T08:03:10.265Z</time></trkpt><trkpt lat="44.4357936" lon="10.761019"><ele>682.8333333333334</ele><time>2026-05-02T08:03:12.23Z</time></trkpt><trkpt lat="44.4358631" lon="10.7611077"><ele>685.0</ele><time>2026-05-02T08:03:16.185Z</time></trkpt><trkpt lat="44.435937" lon="10.7611985"><ele>687.2</ele><time>2026-05-02T08:03:18.214Z</time></trkpt><trkpt lat="44.436018" lon="10.7612299"><ele>689.4</ele><time>2026-05-02T08:03:20.223Z</time></trkpt><trkpt lat="44.4361359" lon="10.7612433"><ele>691.5999999999999</ele><time>2026-05-02T08:03:22.204Z</time></trkpt><trkpt lat="44.43621" lon="10.7612999"><ele>693.8</ele><time>2026-05-02T08:03:24.222Z</time></trkpt><trkpt lat="44.4362505" lon="10.7614145"><ele>696.0</ele><time>2026-05-02T08:03:27.208Z</time></trkpt><trkpt lat="44.4362321" lon="10.7615318"><ele>696.0</ele><time>2026-05-02T08:03:29.209Z</time></trkpt><trkpt lat="44.4361716" lon="10.7616493"><ele>696.0</ele><time>2026-05-02T08:03:31.202Z</time></trkpt><trkpt lat="44.4360869" lon="10.7617539"><ele>696.0</ele><time>2026-05-02T08:03:33.203Z</time></trkpt><trkpt lat="44.4360124" lon="10.7618314"><ele>696.0</ele><time>2026-05-02T08:03:35.212Z</time></trkpt><trkpt lat="44.4359385" lon="10.7618585"><ele>696.0</ele><time>2026-05-02T08:03:37.214Z</time></trkpt><trkpt lat="44.43585" lon="10.7618684"><ele>699.1666666666666</ele><time>2026-05-02T08:03:40.218Z</time></trkpt><trkpt lat="44.4357877" lon="10.7618871"><ele>702.3333333333334</ele><time>2026-05-02T08:03:42.198Z</time></trkpt><trkpt lat="44.4357187" lon="10.7619506"><ele>705.5</ele><time>2026-05-02T08:03:44.2Z</time></trkpt><trkpt lat="44.4357015" lon="10.7620421"><ele>708.6666666666667</ele><time>2026-05-02T08:03:47.205Z</time></trkpt><trkpt lat="44.4357602" lon="10.7621457"><ele>711.8333333333334</ele><time>2026-05-02T08:03:49.213Z</time></trkpt><trkpt lat="44.4358066" lon="10.7622366"><ele>715.0</ele><time>2026-05-02T08:03:51.215Z</time></trkpt><trkpt lat="44.435875" lon="10.7623169"><ele>715.0</ele><time>2026-05-02T08:03:53.185Z</time></trkpt><trkpt lat="44.4359323" lon="10.7623889"><ele>715.0</ele><time>2026-05-02T08:03:55.195Z</time></trkpt><trkpt lat="44.4359929" lon="10.762472"><ele>715.0</ele><time>2026-05-02T08:03:57.197Z</time></trkpt><trkpt lat="44.4360559" lon="10.762547"><ele>715.0</ele><time>2026-05-02T08:03:59.188Z</time></trkpt><trkpt lat="44.4361199" lon="10.7626455"><ele>715.0</ele><time>2026-05-02T08:04:01.209Z</time></trkpt><trkpt lat="44.4361802" lon="10.76275"><ele>715.0</ele><time>2026-05-02T08:04:03.195Z</time></trkpt><trkpt lat="44.4362454" lon="10.7628188"><ele>715.0</ele><time>2026-05-02T08:04:05.208Z</time></trkpt><trkpt lat="44.4363064" lon="10.7628813"><ele>715.0</ele><time>2026-05-02T08:04:07.239Z</time></trkpt><trkpt lat="44.436354" lon="10.7629614"><ele>715.0</ele><time>2026-05-02T08:04:10.2Z</time></trkpt><trkpt lat="44.4363534" lon="10.7630716"><ele>715.0</ele><time>2026-05-02T08:04:12.209Z</time></trkpt><trkpt lat="44.4363162" lon="10.7631702"><ele>715.0</ele><time>2026-05-02T08:04:14.24Z</time></trkpt><trkpt lat="44.4363258" lon="10.7632852"><ele>715.0</ele><time>2026-05-02T08:04:16.207Z</time></trkpt><trkpt lat="44.436383" lon="10.7633999"><ele>715.0</ele><time>2026-05-02T08:04:18.255Z</time></trkpt><trkpt lat="44.4364158" lon="10.7635215"><ele>715.0</ele><time>2026-05-02T08:04:20.207Z</time></trkpt><trkpt lat="44.4364032" lon="10.7636743"><ele>715.0</ele><time>2026-05-02T08:04:23.212Z</time></trkpt><trkpt lat="44.4363421" lon="10.7637758"><ele>715.0</ele><time>2026-05-02T08:04:26.235Z</time></trkpt><trkpt lat="44.4363364" lon="10.7638774"><ele>715.0</ele><time>2026-05-02T08:04:28.219Z</time></trkpt><trkpt lat="44.4363675" lon="10.7639974"><ele>717.3333333333334</ele><time>2026-05-02T08:04:30.227Z</time></trkpt><trkpt lat="44.4364074" lon="10.7640944"><ele>719.6666666666667</ele><time>2026-05-02T08:04:32.234Z</time></trkpt><trkpt lat="44.4364697" lon="10.7641352"><ele>722.0</ele><time>2026-05-02T08:04:35.279Z</time></trkpt><trkpt lat="44.4365204" lon="10.7642103"><ele>724.3333333333334</ele><time>2026-05-02T08:04:39.205Z</time></trkpt><trkpt lat="44.4364673" lon="10.7642649"><ele>726.6666666666666</ele><time>2026-05-02T08:04:42.186Z</time></trkpt><trkpt lat="44.4363957" lon="10.7642673"><ele>729.0</ele><time>2026-05-02T08:04:44.221Z</time></trkpt><trkpt lat="44.4362999" lon="10.7642515"><ele>731.4000000000001</ele><time>2026-05-02T08:04:46.198Z</time></trkpt><trkpt lat="44.4361968" lon="10.7642479"><ele>733.8</ele><time>2026-05-02T08:04:48.224Z</time></trkpt><trkpt lat="44.4360908" lon="10.7642282"><ele>736.2</ele><time>2026-05-02T08:04:50.194Z</time></trkpt><trkpt lat="44.4359767" lon="10.7641966"><ele>738.5999999999999</ele><time>2026-05-02T08:04:52.177Z</time></trkpt><trkpt lat="44.4358715" lon="10.7641925"><ele>741.0</ele><time>2026-05-02T08:04:54.182Z</time></trkpt><trkpt lat="44.4357771" lon="10.7642143"><ele>741.0</ele><time>2026-05-02T08:04:56.218Z</time></trkpt><trkpt lat="44.4356739" lon="10.7642797"><ele>741.0</ele><time>2026-05-02T08:04:58.221Z</time></trkpt><trkpt lat="44.4355547" lon="10.7643344"><ele>741.0</ele><time>2026-05-02T08:05:00.195Z</time></trkpt><trkpt lat="44.4354795" lon="10.764352"><ele>741.0</ele><time>2026-05-02T08:05:01.216Z</time></trkpt><trkpt lat="44.4354174" lon="10.7643729"><ele>741.0</ele><time>2026-05-02T08:05:02.201Z</time></trkpt><trkpt lat="44.4353069" lon="10.7644107"><ele>743.0</ele><time>2026-05-02T08:05:04.21Z</time></trkpt><trkpt lat="44.435194" lon="10.7644589"><ele>745.0</ele><time>2026-05-02T08:05:06.199Z</time></trkpt><trkpt lat="44.4351324" lon="10.7644798"><ele>747.0</ele><time>2026-05-02T08:05:07.193Z</time></trkpt><trkpt lat="44.4350444" lon="10.7644881"><ele>749.0</ele><time>2026-05-02T08:05:09.263Z</time></trkpt><trkpt lat="44.4349407" lon="10.764513"><ele>751.0</ele><time>2026-05-02T08:05:11.213Z</time></trkpt><trkpt lat="44.4348479" lon="10.764575"><ele>751.0</ele><time>2026-05-02T08:05:13.216Z</time></trkpt><trkpt lat="44.4347682" lon="10.7646972"><ele>751.0</ele><time>2026-05-02T08:05:15.238Z</time></trkpt><trkpt lat="44.4347288" lon="10.7647668"><ele>751.0</ele><time>2026-05-02T08:05:16.218Z</time></trkpt><trkpt lat="44.4346624" lon="10.7648883"><ele>751.0</ele><time>2026-05-02T08:05:18.227Z</time></trkpt><trkpt lat="44.4345853" lon="10.7650241"><ele>751.0</ele><time>2026-05-02T08:05:20.217Z</time></trkpt><trkpt lat="44.4345102" lon="10.7651386"><ele>754.0</ele><time>2026-05-02T08:05:22.21Z</time></trkpt><trkpt lat="44.4344383" lon="10.7652406"><ele>757.0</ele><time>2026-05-02T08:05:24.216Z</time></trkpt><trkpt lat="44.4343879" lon="10.765295"><ele>760.0</ele><time>2026-05-02T08:05:26.196Z</time></trkpt><trkpt lat="44.4342812" lon="10.7653095"><ele>763.0</ele><time>2026-05-02T08:05:28.208Z</time></trkpt><trkpt lat="44.4341734" lon="10.7653128"><ele>766.0</ele><time>2026-05-02T08:05:30.225Z</time></trkpt><trkpt lat="44.4340977" lon="10.7653221"><ele>766.0</ele><time>2026-05-02T08:05:32.21Z</time></trkpt><trkpt lat="44.4340168" lon="10.765318"><ele>766.0</ele><time>2026-05-02T08:05:34.18Z</time></trkpt><trkpt lat="44.4339614" lon="10.7653658"><ele>766.0</ele><time>2026-05-02T08:05:36.193Z</time></trkpt><trkpt lat="44.4339317" lon="10.7652445"><ele>766.0</ele><time>2026-05-02T08:06:28.238Z</time></trkpt><trkpt lat="44.43393" lon="10.7651456"><ele>766.0</ele><time>2026-05-02T08:06:29.216Z</time></trkpt><trkpt lat="44.4339262" lon="10.7650286"><ele>766.0</ele><time>2026-05-02T08:06:30.22Z</time></trkpt><trkpt lat="44.4339217" lon="10.7648995"><ele>766.1999999999999</ele><time>2026-05-02T08:06:31.226Z</time></trkpt><trkpt lat="44.4339172" lon="10.7647653"><ele>766.4</ele><time>2026-05-02T08:06:32.228Z</time></trkpt><trkpt lat="44.4339087" lon="10.7646325"><ele>766.6</ele><time>2026-05-02T08:06:33.227Z</time></trkpt><trkpt lat="44.4339016" lon="10.764488"><ele>766.8</ele><time>2026-05-02T08:06:34.21Z</time></trkpt><trkpt lat="44.4338829" lon="10.7643345"><ele>767.0</ele><time>2026-05-02T08:06:35.204Z</time></trkpt><trkpt lat="44.433854" lon="10.7641831"><ele>767.0</ele><time>2026-05-02T08:06:36.199Z</time></trkpt><trkpt lat="44.4338155" lon="10.764028"><ele>767.0</ele><time>2026-05-02T08:06:37.196Z</time></trkpt><trkpt lat="44.4337655" lon="10.7638718"><ele>767.0</ele><time>2026-05-02T08:06:38.209Z</time></trkpt><trkpt lat="44.43371" lon="10.7637141"><ele>767.0</ele><time>2026-05-02T08:06:39.209Z</time></trkpt><trkpt lat="44.4336476" lon="10.7635539"><ele>770.5</ele><time>2026-05-02T08:06:40.2Z</time></trkpt><trkpt lat="44.4335787" lon="10.7633882"><ele>774.0</ele><time>2026-05-02T08:06:41.205Z</time></trkpt><trkpt lat="44.4335112" lon="10.7632352"><ele>777.5</ele><time>2026-05-02T08:06:42.201Z</time></trkpt><trkpt lat="44.433443" lon="10.7630943"><ele>781.0</ele><time>2026-05-02T08:06:43.181Z</time></trkpt><trkpt lat="44.4333804" lon="10.7629606"><ele>781.0</ele><time>2026-05-02T08:06:44.153Z</time></trkpt><trkpt lat="44.4333267" lon="10.762824"><ele>781.0</ele><time>2026-05-02T08:06:45.214Z</time></trkpt><trkpt lat="44.4332824" lon="10.762671"><ele>781.0</ele><time>2026-05-02T08:06:46.196Z</time></trkpt><trkpt lat="44.4332431" lon="10.7625046"><ele>781.0</ele><time>2026-05-02T08:06:47.251Z</time></trkpt><trkpt lat="44.4332056" lon="10.7623363"><ele>783.0</ele><time>2026-05-02T08:06:48.219Z</time></trkpt><trkpt lat="44.4331629" lon="10.7621811"><ele>785.0</ele><time>2026-05-02T08:06:49.22Z</time></trkpt><trkpt lat="44.4331117" lon="10.7620417"><ele>787.0</ele><time>2026-05-02T08:06:50.214Z</time></trkpt><trkpt lat="44.4330477" lon="10.7619108"><ele>789.0</ele><time>2026-05-02T08:06:51.231Z</time></trkpt><trkpt lat="44.4329711" lon="10.7617847"><ele>789.0</ele><time>2026-05-02T08:06:52.204Z</time></trkpt><trkpt lat="44.4328936" lon="10.761659"><ele>789.0</ele><time>2026-05-02T08:06:53.204Z</time></trkpt><trkpt lat="44.4328233" lon="10.7615262"><ele>789.0</ele><time>2026-05-02T08:06:54.229Z</time></trkpt><trkpt lat="44.4327683" lon="10.7613671"><ele>789.0</ele><time>2026-05-02T08:06:55.216Z</time></trkpt><trkpt lat="44.4327254" lon="10.7611902"><ele>786.0</ele><time>2026-05-02T08:06:56.226Z</time></trkpt><trkpt lat="44.4326855" lon="10.7610187"><ele>783.0</ele><time>2026-05-02T08:06:57.222Z</time></trkpt><trkpt lat="44.4326497" lon="10.7608575"><ele>780.0</ele><time>2026-05-02T08:06:58.229Z</time></trkpt><trkpt lat="44.4326152" lon="10.7606967"><ele>777.0</ele><time>2026-05-02T08:06:59.226Z</time></trkpt><trkpt lat="44.4325801" lon="10.7605358"><ele>777.0</ele><time>2026-05-02T08:07:00.212Z</time></trkpt><trkpt lat="44.4325472" lon="10.7603692"><ele>777.0</ele><time>2026-05-02T08:07:01.185Z</time></trkpt><trkpt lat="44.4325365" lon="10.7602013"><ele>777.0</ele><time>2026-05-02T08:07:02.212Z</time></trkpt><trkpt lat="44.432541" lon="10.7600382"><ele>777.0</ele><time>2026-05-02T08:07:03.2Z</time></trkpt><trkpt lat="44.4325688" lon="10.7598726"><ele>776.25</ele><time>2026-05-02T08:07:04.164Z</time></trkpt><trkpt lat="44.4326157" lon="10.7597065"><ele>775.5</ele><time>2026-05-02T08:07:05.157Z</time></trkpt><trkpt lat="44.4326604" lon="10.7595457"><ele>774.75</ele><time>2026-05-02T08:07:06.173Z</time></trkpt><trkpt lat="44.4327016" lon="10.7593944"><ele>774.0</ele><time>2026-05-02T08:07:07.211Z</time></trkpt><trkpt lat="44.432728" lon="10.7592427"><ele>773.5</ele><time>2026-05-02T08:07:08.211Z</time></trkpt><trkpt lat="44.4327327" lon="10.7590913"><ele>773.0</ele><time>2026-05-02T08:07:09.23Z</time></trkpt><trkpt lat="44.4327222" lon="10.7589221"><ele>772.5</ele><time>2026-05-02T08:07:10.213Z</time></trkpt><trkpt lat="44.4326961" lon="10.7587481"><ele>772.0</ele><time>2026-05-02T08:07:11.244Z</time></trkpt><trkpt lat="44.4326584" lon="10.7585714"><ele>769.75</ele><time>2026-05-02T08:07:12.217Z</time></trkpt><trkpt lat="44.4326088" lon="10.7584004"><ele>767.5</ele><time>2026-05-02T08:07:13.206Z</time></trkpt><trkpt lat="44.4325618" lon="10.7582341"><ele>765.25</ele><time>2026-05-02T08:07:14.234Z</time></trkpt><trkpt lat="44.4325224" lon="10.7580656"><ele>763.0</ele><time>2026-05-02T08:07:15.212Z</time></trkpt><trkpt lat="44.4324955" lon="10.757898"><ele>763.0</ele><time>2026-05-02T08:07:16.208Z</time></trkpt><trkpt lat="44.4324899" lon="10.7577277"><ele>763.0</ele><time>2026-05-02T08:07:17.217Z</time></trkpt><trkpt lat="44.4325135" lon="10.7575753"><ele>763.0</ele><time>2026-05-02T08:07:18.212Z</time></trkpt><trkpt lat="44.4325654" lon="10.75744"><ele>763.0</ele><time>2026-05-02T08:07:19.219Z</time></trkpt><trkpt lat="44.4326209" lon="10.7573103"><ele>762.2</ele><time>2026-05-02T08:07:20.203Z</time></trkpt><trkpt lat="44.4326604" lon="10.7571746"><ele>761.4</ele><time>2026-05-02T08:07:21.264Z</time></trkpt><trkpt lat="44.4326718" lon="10.7570335"><ele>760.6</ele><time>2026-05-02T08:07:22.196Z</time></trkpt><trkpt lat="44.4326523" lon="10.7568962"><ele>759.8000000000001</ele><time>2026-05-02T08:07:23.225Z</time></trkpt><trkpt lat="44.4326072" lon="10.7567756"><ele>759.0</ele><time>2026-05-02T08:07:24.221Z</time></trkpt><trkpt lat="44.4325411" lon="10.7566796"><ele>757.6</ele><time>2026-05-02T08:07:25.207Z</time></trkpt><trkpt lat="44.4324571" lon="10.7566061"><ele>756.2</ele><time>2026-05-02T08:07:26.226Z</time></trkpt><trkpt lat="44.4323638" lon="10.756537"><ele>754.8000000000001</ele><time>2026-05-02T08:07:27.253Z</time></trkpt><trkpt lat="44.4322663" lon="10.7564623"><ele>753.4000000000001</ele><time>2026-05-02T08:07:28.226Z</time></trkpt><trkpt lat="44.4321695" lon="10.7563817"><ele>752.0</ele><time>2026-05-02T08:07:29.228Z</time></trkpt><trkpt lat="44.4320821" lon="10.7562854"><ele>754.2</ele><time>2026-05-02T08:07:30.221Z</time></trkpt><trkpt lat="44.4319988" lon="10.7561924"><ele>756.4000000000001</ele><time>2026-05-02T08:07:31.171Z</time></trkpt><trkpt lat="44.431948" lon="10.7560566"><ele>758.5999999999999</ele><time>2026-05-02T08:07:32.158Z</time></trkpt><trkpt lat="44.4319267" lon="10.7559075"><ele>760.8</ele><time>2026-05-02T08:07:33.173Z</time></trkpt><trkpt lat="44.4319214" lon="10.7557475"><ele>763.0</ele><time>2026-05-02T08:07:34.17Z</time></trkpt><trkpt lat="44.4319151" lon="10.7555936"><ele>763.0</ele><time>2026-05-02T08:07:35.19Z</time></trkpt><trkpt lat="44.4318985" lon="10.755444"><ele>763.0</ele><time>2026-05-02T08:07:36.214Z</time></trkpt><trkpt lat="44.4318628" lon="10.7553074"><ele>763.0</ele><time>2026-05-02T08:07:37.174Z</time></trkpt><trkpt lat="44.4318082" lon="10.7551812"><ele>763.0</ele><time>2026-05-02T08:07:38.209Z</time></trkpt><trkpt lat="44.4317373" lon="10.7550705"><ele>763.0</ele><time>2026-05-02T08:07:39.197Z</time></trkpt><trkpt lat="44.4316486" lon="10.754969"><ele>764.5999999999999</ele><time>2026-05-02T08:07:40.298Z</time></trkpt><trkpt lat="44.4315539" lon="10.7548754"><ele>766.1999999999999</ele><time>2026-05-02T08:07:41.233Z</time></trkpt><trkpt lat="44.4314617" lon="10.7547837"><ele>767.8</ele><time>2026-05-02T08:07:42.221Z</time></trkpt><trkpt lat="44.4313758" lon="10.7546849"><ele>769.4</ele><time>2026-05-02T08:07:43.193Z</time></trkpt><trkpt lat="44.4313001" lon="10.7545758"><ele>771.0</ele><time>2026-05-02T08:07:44.214Z</time></trkpt><trkpt lat="44.4312381" lon="10.7544518"><ele>768.5</ele><time>2026-05-02T08:07:45.217Z</time></trkpt><trkpt lat="44.4311926" lon="10.7543097"><ele>766.0</ele><time>2026-05-02T08:07:46.197Z</time></trkpt><trkpt lat="44.4311656" lon="10.7541493"><ele>763.5</ele><time>2026-05-02T08:07:47.198Z</time></trkpt><trkpt lat="44.4311566" lon="10.7539846"><ele>761.0</ele><time>2026-05-02T08:07:48.206Z</time></trkpt><trkpt lat="44.4311703" lon="10.7538253"><ele>761.0</ele><time>2026-05-02T08:07:49.199Z</time></trkpt><trkpt lat="44.4312053" lon="10.7536708"><ele>761.0</ele><time>2026-05-02T08:07:50.19Z</time></trkpt><trkpt lat="44.4312608" lon="10.7535277"><ele>761.0</ele><time>2026-05-02T08:07:51.192Z</time></trkpt><trkpt lat="44.4313394" lon="10.7534016"><ele>761.0</ele><time>2026-05-02T08:07:52.205Z</time></trkpt><trkpt lat="44.4314409" lon="10.7532917"><ele>755.5</ele><time>2026-05-02T08:07:53.201Z</time></trkpt><trkpt lat="44.4315519" lon="10.7532003"><ele>750.0</ele><time>2026-05-02T08:07:54.213Z</time></trkpt><trkpt lat="44.4316601" lon="10.7531108"><ele>744.5</ele><time>2026-05-02T08:07:55.206Z</time></trkpt><trkpt lat="44.4317569" lon="10.7530056"><ele>739.0</ele><time>2026-05-02T08:07:56.212Z</time></trkpt><trkpt lat="44.4318374" lon="10.7528803"><ele>739.0</ele><time>2026-05-02T08:07:57.224Z</time></trkpt><trkpt lat="44.4319026" lon="10.7527319"><ele>739.0</ele><time>2026-05-02T08:07:58.219Z</time></trkpt><trkpt lat="44.4319595" lon="10.7525621"><ele>739.0</ele><time>2026-05-02T08:07:59.211Z</time></trkpt><trkpt lat="44.4320134" lon="10.7523938"><ele>739.0</ele><time>2026-05-02T08:08:00.201Z</time></trkpt><trkpt lat="44.4320772" lon="10.7522329"><ele>737.25</ele><time>2026-05-02T08:08:01.22Z</time></trkpt><trkpt lat="44.4321415" lon="10.7520734"><ele>735.5</ele><time>2026-05-02T08:08:02.209Z</time></trkpt><trkpt lat="44.4322229" lon="10.7519229"><ele>733.75</ele><time>2026-05-02T08:08:03.2Z</time></trkpt><trkpt lat="44.4323022" lon="10.7517738"><ele>732.0</ele><time>2026-05-02T08:08:04.239Z</time></trkpt><trkpt lat="44.4323779" lon="10.7516283"><ele>732.0</ele><time>2026-05-02T08:08:05.219Z</time></trkpt><trkpt lat="44.4324502" lon="10.7514812"><ele>732.0</ele><time>2026-05-02T08:08:06.217Z</time></trkpt><trkpt lat="44.4325084" lon="10.7513389"><ele>732.0</ele><time>2026-05-02T08:08:07.243Z</time></trkpt><trkpt lat="44.4325428" lon="10.7511994"><ele>732.0</ele><time>2026-05-02T08:08:08.189Z</time></trkpt><trkpt lat="44.4325518" lon="10.7510593"><ele>731.5</ele><time>2026-05-02T08:08:09.218Z</time></trkpt><trkpt lat="44.4325367" lon="10.7509167"><ele>731.0</ele><time>2026-05-02T08:08:10.221Z</time></trkpt><trkpt lat="44.4324962" lon="10.7507692"><ele>730.5</ele><time>2026-05-02T08:08:11.277Z</time></trkpt><trkpt lat="44.4324374" lon="10.7506251"><ele>730.0</ele><time>2026-05-02T08:08:12.2Z</time></trkpt><trkpt lat="44.4323608" lon="10.7504947"><ele>730.0</ele><time>2026-05-02T08:08:13.202Z</time></trkpt><trkpt lat="44.4322635" lon="10.7503755"><ele>730.0</ele><time>2026-05-02T08:08:14.216Z</time></trkpt><trkpt lat="44.4321491" lon="10.7502653"><ele>730.0</ele><time>2026-05-02T08:08:15.211Z</time></trkpt><trkpt lat="44.4320339" lon="10.7501636"><ele>730.0</ele><time>2026-05-02T08:08:16.213Z</time></trkpt><trkpt lat="44.431926" lon="10.7500613"><ele>731.0</ele><time>2026-05-02T08:08:17.253Z</time></trkpt><trkpt lat="44.4318243" lon="10.7499658"><ele>732.0</ele><time>2026-05-02T08:08:18.226Z</time></trkpt><trkpt lat="44.4317384" lon="10.7498587"><ele>733.0</ele><time>2026-05-02T08:08:19.225Z</time></trkpt><trkpt lat="44.4316544" lon="10.7497474"><ele>734.0</ele><time>2026-05-02T08:08:20.229Z</time></trkpt><trkpt lat="44.431564" lon="10.7496275"><ele>734.0</ele><time>2026-05-02T08:08:21.231Z</time></trkpt><trkpt lat="44.4314705" lon="10.7495042"><ele>734.0</ele><time>2026-05-02T08:08:22.199Z</time></trkpt><trkpt lat="44.4313799" lon="10.7493855"><ele>734.0</ele><time>2026-05-02T08:08:23.226Z</time></trkpt><trkpt lat="44.4312917" lon="10.7492704"><ele>734.0</ele><time>2026-05-02T08:08:24.24Z</time></trkpt><trkpt lat="44.4312019" lon="10.7491527"><ele>736.5</ele><time>2026-05-02T08:08:25.206Z</time></trkpt><trkpt lat="44.4311128" lon="10.7490256"><ele>739.0</ele><time>2026-05-02T08:08:26.215Z</time></trkpt><trkpt lat="44.4310282" lon="10.7488868"><ele>741.5</ele><time>2026-05-02T08:08:27.223Z</time></trkpt><trkpt lat="44.430954" lon="10.7487429"><ele>744.0</ele><time>2026-05-02T08:08:28.199Z</time></trkpt><trkpt lat="44.4308889" lon="10.7485955"><ele>738.5</ele><time>2026-05-02T08:08:29.218Z</time></trkpt><trkpt lat="44.4308335" lon="10.7484472"><ele>733.0</ele><time>2026-05-02T08:08:30.199Z</time></trkpt><trkpt lat="44.4307809" lon="10.7483031"><ele>727.5</ele><time>2026-05-02T08:08:31.195Z</time></trkpt><trkpt lat="44.4307301" lon="10.7481671"><ele>722.0</ele><time>2026-05-02T08:08:32.208Z</time></trkpt><trkpt lat="44.4306524" lon="10.7480519"><ele>722.0</ele><time>2026-05-02T08:08:33.197Z</time></trkpt><trkpt lat="44.4305568" lon="10.7479557"><ele>722.0</ele><time>2026-05-02T08:08:34.21Z</time></trkpt><trkpt lat="44.4304501" lon="10.7478648"><ele>722.0</ele><time>2026-05-02T08:08:35.223Z</time></trkpt><trkpt lat="44.430343" lon="10.7477791"><ele>722.0</ele><time>2026-05-02T08:08:36.224Z</time></trkpt><trkpt lat="44.4302406" lon="10.7476888"><ele>721.4000000000001</ele><time>2026-05-02T08:08:37.236Z</time></trkpt><trkpt lat="44.4301473" lon="10.7475903"><ele>720.8000000000001</ele><time>2026-05-02T08:08:38.231Z</time></trkpt><trkpt lat="44.4300633" lon="10.7474828"><ele>720.2</ele><time>2026-05-02T08:08:39.193Z</time></trkpt><trkpt lat="44.4299809" lon="10.747378"><ele>719.6</ele><time>2026-05-02T08:08:40.221Z</time></trkpt><trkpt lat="44.4299114" lon="10.7472642"><ele>719.0</ele><time>2026-05-02T08:08:41.202Z</time></trkpt><trkpt lat="44.4298572" lon="10.7471396"><ele>719.0</ele><time>2026-05-02T08:08:42.212Z</time></trkpt><trkpt lat="44.4298095" lon="10.7470118"><ele>719.0</ele><time>2026-05-02T08:08:43.239Z</time></trkpt><trkpt lat="44.4297612" lon="10.7468759"><ele>719.0</ele><time>2026-05-02T08:08:44.193Z</time></trkpt><trkpt lat="44.4297144" lon="10.7467304"><ele>719.0</ele><time>2026-05-02T08:08:45.196Z</time></trkpt><trkpt lat="44.4296703" lon="10.7465857"><ele>719.0</ele><time>2026-05-02T08:08:46.216Z</time></trkpt><trkpt lat="44.4296242" lon="10.7464489"><ele>720.2</ele><time>2026-05-02T08:08:47.223Z</time></trkpt><trkpt lat="44.4295734" lon="10.746317"><ele>721.4000000000001</ele><time>2026-05-02T08:08:48.214Z</time></trkpt><trkpt lat="44.4295181" lon="10.7461942"><ele>722.6</ele><time>2026-05-02T08:08:49.212Z</time></trkpt><trkpt lat="44.4294597" lon="10.7460801"><ele>723.8</ele><time>2026-05-02T08:08:50.227Z</time></trkpt><trkpt lat="44.4294025" lon="10.7459681"><ele>725.0</ele><time>2026-05-02T08:08:51.214Z</time></trkpt><trkpt lat="44.4293525" lon="10.7458532"><ele>722.4</ele><time>2026-05-02T08:08:52.212Z</time></trkpt><trkpt lat="44.4293143" lon="10.7457329"><ele>719.8</ele><time>2026-05-02T08:08:53.226Z</time></trkpt><trkpt lat="44.4292875" lon="10.7456055"><ele>717.2</ele><time>2026-05-02T08:08:54.193Z</time></trkpt><trkpt lat="44.4292693" lon="10.7454721"><ele>714.6</ele><time>2026-05-02T08:08:55.207Z</time></trkpt><trkpt lat="44.4292616" lon="10.7453412"><ele>712.0</ele><time>2026-05-02T08:08:56.223Z</time></trkpt><trkpt lat="44.4292614" lon="10.7452137"><ele>711.3333333333334</ele><time>2026-05-02T08:08:57.223Z</time></trkpt><trkpt lat="44.4292655" lon="10.7450906"><ele>710.6666666666667</ele><time>2026-05-02T08:08:58.225Z</time></trkpt><trkpt lat="44.42927" lon="10.744971"><ele>710.0</ele><time>2026-05-02T08:08:59.23Z</time></trkpt><trkpt lat="44.4292746" lon="10.7448531"><ele>709.3333333333334</ele><time>2026-05-02T08:09:00.204Z</time></trkpt><trkpt lat="44.4292801" lon="10.7447354"><ele>708.6666666666666</ele><time>2026-05-02T08:09:01.184Z</time></trkpt><trkpt lat="44.4292873" lon="10.7446096"><ele>708.0</ele><time>2026-05-02T08:09:02.21Z</time></trkpt><trkpt lat="44.4293008" lon="10.7444735"><ele>707.5999999999999</ele><time>2026-05-02T08:09:03.232Z</time></trkpt><trkpt lat="44.4293256" lon="10.744337"><ele>707.1999999999999</ele><time>2026-05-02T08:09:04.216Z</time></trkpt><trkpt lat="44.4293612" lon="10.7442049"><ele>706.8</ele><time>2026-05-02T08:09:05.212Z</time></trkpt><trkpt lat="44.4294038" lon="10.7440796"><ele>706.4</ele><time>2026-05-02T08:09:06.219Z</time></trkpt><trkpt lat="44.4294473" lon="10.7439608"><ele>706.0</ele><time>2026-05-02T08:09:07.26Z</time></trkpt><trkpt lat="44.4294853" lon="10.743844"><ele>706.0</ele><time>2026-05-02T08:09:08.215Z</time></trkpt><trkpt lat="44.4295177" lon="10.7437295"><ele>706.0</ele><time>2026-05-02T08:09:09.234Z</time></trkpt><trkpt lat="44.4295482" lon="10.7436147"><ele>706.0</ele><time>2026-05-02T08:09:10.214Z</time></trkpt><trkpt lat="44.4295809" lon="10.7434939"><ele>706.0</ele><time>2026-05-02T08:09:11.206Z</time></trkpt><trkpt lat="44.4296093" lon="10.7433742"><ele>706.0</ele><time>2026-05-02T08:09:12.198Z</time></trkpt><trkpt lat="44.4296307" lon="10.7432664"><ele>706.0</ele><time>2026-05-02T08:09:13.212Z</time></trkpt><trkpt lat="44.4296454" lon="10.7431612"><ele>706.0</ele><time>2026-05-02T08:09:14.202Z</time></trkpt><trkpt lat="44.4296591" lon="10.743059"><ele>706.0</ele><time>2026-05-02T08:09:15.214Z</time></trkpt><trkpt lat="44.4296761" lon="10.7429675"><ele>706.0</ele><time>2026-05-02T08:09:16.224Z</time></trkpt><trkpt lat="44.4297063" lon="10.7428102"><ele>706.0</ele><time>2026-05-02T08:09:18.23Z</time></trkpt><trkpt lat="44.4296859" lon="10.7426444"><ele>706.0</ele><time>2026-05-02T08:09:20.223Z</time></trkpt><trkpt lat="44.4296609" lon="10.742558"><ele>706.0</ele><time>2026-05-02T08:09:21.227Z</time></trkpt><trkpt lat="44.4296363" lon="10.7424727"><ele>706.0</ele><time>2026-05-02T08:09:22.208Z</time></trkpt><trkpt lat="44.4295844" lon="10.7423077"><ele>706.0</ele><time>2026-05-02T08:09:24.218Z</time></trkpt><trkpt lat="44.4295549" lon="10.7422103"><ele>706.0</ele><time>2026-05-02T08:09:25.215Z</time></trkpt><trkpt lat="44.4295315" lon="10.7421282"><ele>706.0</ele><time>2026-05-02T08:09:26.219Z</time></trkpt><trkpt lat="44.4295059" lon="10.741972"><ele>706.0</ele><time>2026-05-02T08:09:28.206Z</time></trkpt><trkpt lat="44.4295022" lon="10.7418118"><ele>707.5</ele><time>2026-05-02T08:09:30.193Z</time></trkpt><trkpt lat="44.429498" lon="10.7417231"><ele>709.0</ele><time>2026-05-02T08:09:31.193Z</time></trkpt><trkpt lat="44.4294941" lon="10.7415454"><ele>710.5</ele><time>2026-05-02T08:09:33.227Z</time></trkpt><trkpt lat="44.4295006" lon="10.7414476"><ele>712.0</ele><time>2026-05-02T08:09:34.235Z</time></trkpt><trkpt lat="44.429506" lon="10.7413463"><ele>713.5</ele><time>2026-05-02T08:09:35.229Z</time></trkpt><trkpt lat="44.4295022" lon="10.7412453"><ele>715.0</ele><time>2026-05-02T08:09:36.229Z</time></trkpt><trkpt lat="44.4294908" lon="10.7411467"><ele>715.0</ele><time>2026-05-02T08:09:37.195Z</time></trkpt><trkpt lat="44.4294731" lon="10.7410509"><ele>715.0</ele><time>2026-05-02T08:09:38.211Z</time></trkpt><trkpt lat="44.4294546" lon="10.7409576"><ele>715.0</ele><time>2026-05-02T08:09:39.214Z</time></trkpt><trkpt lat="44.4294348" lon="10.7408683"><ele>715.0</ele><time>2026-05-02T08:09:40.241Z</time></trkpt><trkpt lat="44.4294169" lon="10.7407776"><ele>715.0</ele><time>2026-05-02T08:09:41.216Z</time></trkpt><trkpt lat="44.4293975" lon="10.7406894"><ele>715.0</ele><time>2026-05-02T08:09:42.209Z</time></trkpt><trkpt lat="44.4293785" lon="10.7406029"><ele>715.0</ele><time>2026-05-02T08:09:43.268Z</time></trkpt><trkpt lat="44.4293612" lon="10.7405154"><ele>716.4</ele><time>2026-05-02T08:09:44.23Z</time></trkpt><trkpt lat="44.4293347" lon="10.7403518"><ele>717.8</ele><time>2026-05-02T08:09:46.218Z</time></trkpt><trkpt lat="44.4293182" lon="10.7402034"><ele>719.2</ele><time>2026-05-02T08:09:48.22Z</time></trkpt><trkpt lat="44.4293254" lon="10.7400496"><ele>720.6</ele><time>2026-05-02T08:09:50.242Z</time></trkpt><trkpt lat="44.4293414" lon="10.7399642"><ele>722.0</ele><time>2026-05-02T08:09:51.247Z</time></trkpt><trkpt lat="44.4293658" lon="10.7398782"><ele>722.0</ele><time>2026-05-02T08:09:52.242Z</time></trkpt><trkpt lat="44.4293985" lon="10.7397845"><ele>722.0</ele><time>2026-05-02T08:09:53.222Z</time></trkpt><trkpt lat="44.4294334" lon="10.7396891"><ele>722.0</ele><time>2026-05-02T08:09:54.219Z</time></trkpt><trkpt lat="44.4294647" lon="10.7395974"><ele>722.0</ele><time>2026-05-02T08:09:55.217Z</time></trkpt><trkpt lat="44.4294889" lon="10.7395071"><ele>722.0</ele><time>2026-05-02T08:09:56.209Z</time></trkpt><trkpt lat="44.4295059" lon="10.7394191"><ele>722.0</ele><time>2026-05-02T08:09:57.21Z</time></trkpt><trkpt lat="44.4295279" lon="10.73925"><ele>721.1666666666666</ele><time>2026-05-02T08:09:59.235Z</time></trkpt><trkpt lat="44.4295284" lon="10.7390896"><ele>720.3333333333333</ele><time>2026-05-02T08:10:01.217Z</time></trkpt><trkpt lat="44.4295265" lon="10.7389107"><ele>719.5</ele><time>2026-05-02T08:10:03.208Z</time></trkpt><trkpt lat="44.4295287" lon="10.7388188"><ele>718.6666666666666</ele><time>2026-05-02T08:10:04.211Z</time></trkpt><trkpt lat="44.4295363" lon="10.7387267"><ele>717.8333333333334</ele><time>2026-05-02T08:10:05.203Z</time></trkpt><trkpt lat="44.429549" lon="10.7386302"><ele>717.0</ele><time>2026-05-02T08:10:06.256Z</time></trkpt><trkpt lat="44.4295609" lon="10.7385412"><ele>716.6</ele><time>2026-05-02T08:10:07.217Z</time></trkpt><trkpt lat="44.4295727" lon="10.7383724"><ele>716.2</ele><time>2026-05-02T08:10:09.226Z</time></trkpt><trkpt lat="44.4295724" lon="10.738191"><ele>715.8</ele><time>2026-05-02T08:10:11.227Z</time></trkpt><trkpt lat="44.4295681" lon="10.7380966"><ele>715.4</ele><time>2026-05-02T08:10:12.251Z</time></trkpt><trkpt lat="44.4295588" lon="10.7380075"><ele>715.0</ele><time>2026-05-02T08:10:13.211Z</time></trkpt><trkpt lat="44.4295282" lon="10.7378441"><ele>715.0</ele><time>2026-05-02T08:10:15.222Z</time></trkpt><trkpt lat="44.4295125" lon="10.7377514"><ele>715.0</ele><time>2026-05-02T08:10:16.207Z</time></trkpt><trkpt lat="44.4294975" lon="10.7376531"><ele>715.0</ele><time>2026-05-02T08:10:17.229Z</time></trkpt><trkpt lat="44.4294853" lon="10.7375603"><ele>715.0</ele><time>2026-05-02T08:10:18.211Z</time></trkpt><trkpt lat="44.4294765" lon="10.7373907"><ele>715.0</ele><time>2026-05-02T08:10:20.228Z</time></trkpt><trkpt lat="44.4294886" lon="10.7372155"><ele>715.2</ele><time>2026-05-02T08:10:22.2Z</time></trkpt><trkpt lat="44.4294966" lon="10.7371257"><ele>715.4</ele><time>2026-05-02T08:10:23.235Z</time></trkpt><trkpt lat="44.4295086" lon="10.7369553"><ele>715.5999999999999</ele><time>2026-05-02T08:10:25.215Z</time></trkpt><trkpt lat="44.4294996" lon="10.7367936"><ele>715.8</ele><time>2026-05-02T08:10:27.227Z</time></trkpt><trkpt lat="44.429452" lon="10.7366378"><ele>716.0</ele><time>2026-05-02T08:10:29.167Z</time></trkpt><trkpt lat="44.4294241" lon="10.7365569"><ele>716.0000000000001</ele><time>2026-05-02T08:10:30.246Z</time></trkpt><trkpt lat="44.4293977" lon="10.7364733"><ele>716.0</ele><time>2026-05-02T08:10:31.185Z</time></trkpt><trkpt lat="44.4293739" lon="10.7363873"><ele>716.0</ele><time>2026-05-02T08:10:32.232Z</time></trkpt><trkpt lat="44.4293542" lon="10.736298"><ele>716.0</ele><time>2026-05-02T08:10:33.226Z</time></trkpt><trkpt lat="44.4293367" lon="10.7362095"><ele>716.0</ele><time>2026-05-02T08:10:34.226Z</time></trkpt><trkpt lat="44.4293229" lon="10.7361212"><ele>716.0000000000001</ele><time>2026-05-02T08:10:35.23Z</time></trkpt><trkpt lat="44.4292974" lon="10.7359588"><ele>716.0</ele><time>2026-05-02T08:10:37.226Z</time></trkpt><trkpt lat="44.4292748" lon="10.7358137"><ele>718.1999999999999</ele><time>2026-05-02T08:10:39.208Z</time></trkpt><trkpt lat="44.4292987" lon="10.7356517"><ele>720.4</ele><time>2026-05-02T08:10:41.254Z</time></trkpt><trkpt lat="44.4293448" lon="10.7355143"><ele>722.6</ele><time>2026-05-02T08:10:43.182Z</time></trkpt><trkpt lat="44.4294034" lon="10.735393"><ele>724.8</ele><time>2026-05-02T08:10:45.211Z</time></trkpt><trkpt lat="44.4294772" lon="10.7352761"><ele>727.0</ele><time>2026-05-02T08:10:47.221Z</time></trkpt><trkpt lat="44.4295528" lon="10.735156"><ele>727.0</ele><time>2026-05-02T08:10:49.232Z</time></trkpt><trkpt lat="44.4296331" lon="10.7350568"><ele>727.0</ele><time>2026-05-02T08:10:51.213Z</time></trkpt><trkpt lat="44.4297049" lon="10.7349578"><ele>727.0</ele><time>2026-05-02T08:10:53.223Z</time></trkpt><trkpt lat="44.4297671" lon="10.7348405"><ele>727.0</ele><time>2026-05-02T08:10:55.159Z</time></trkpt><trkpt lat="44.4298263" lon="10.7346937"><ele>727.0</ele><time>2026-05-02T08:10:57.197Z</time></trkpt><trkpt lat="44.4298588" lon="10.7345428"><ele>727.2</ele><time>2026-05-02T08:10:59.224Z</time></trkpt><trkpt lat="44.4298919" lon="10.7343969"><ele>727.4000000000001</ele><time>2026-05-02T08:11:01.229Z</time></trkpt><trkpt lat="44.429948" lon="10.7342592"><ele>727.5999999999999</ele><time>2026-05-02T08:11:03.197Z</time></trkpt><trkpt lat="44.429996" lon="10.7341764"><ele>727.8</ele><time>2026-05-02T08:11:04.255Z</time></trkpt><trkpt lat="44.4300494" lon="10.7340929"><ele>728.0</ele><time>2026-05-02T08:11:05.214Z</time></trkpt><trkpt lat="44.4301028" lon="10.7340091"><ele>728.2857142857143</ele><time>2026-05-02T08:11:06.242Z</time></trkpt><trkpt lat="44.4301542" lon="10.7339314"><ele>728.5714285714286</ele><time>2026-05-02T08:11:07.236Z</time></trkpt><trkpt lat="44.4302025" lon="10.7338542"><ele>728.8571428571429</ele><time>2026-05-02T08:11:08.218Z</time></trkpt><trkpt lat="44.430248" lon="10.7337729"><ele>729.1428571428571</ele><time>2026-05-02T08:11:09.225Z</time></trkpt><trkpt lat="44.4302873" lon="10.7336872"><ele>729.4285714285714</ele><time>2026-05-02T08:11:10.304Z</time></trkpt><trkpt lat="44.4303261" lon="10.7336048"><ele>729.7142857142858</ele><time>2026-05-02T08:11:11.215Z</time></trkpt><trkpt lat="44.4303572" lon="10.7335117"><ele>730.0</ele><time>2026-05-02T08:11:12.214Z</time></trkpt><trkpt lat="44.4303894" lon="10.7334169"><ele>730.0</ele><time>2026-05-02T08:11:13.225Z</time></trkpt><trkpt lat="44.4304238" lon="10.7333173"><ele>730.0</ele><time>2026-05-02T08:11:14.228Z</time></trkpt><trkpt lat="44.430457" lon="10.7332079"><ele>730.0</ele><time>2026-05-02T08:11:15.229Z</time></trkpt><trkpt lat="44.4304882" lon="10.7330996"><ele>730.0</ele><time>2026-05-02T08:11:16.265Z</time></trkpt><trkpt lat="44.4305189" lon="10.7329912"><ele>730.0</ele><time>2026-05-02T08:11:17.206Z</time></trkpt><trkpt lat="44.4305486" lon="10.7328838"><ele>730.0</ele><time>2026-05-02T08:11:18.2Z</time></trkpt><trkpt lat="44.4305791" lon="10.7327788"><ele>729.1666666666667</ele><time>2026-05-02T08:11:19.221Z</time></trkpt><trkpt lat="44.4306046" lon="10.7326841"><ele>728.3333333333334</ele><time>2026-05-02T08:11:20.241Z</time></trkpt><trkpt lat="44.4306317" lon="10.7326003"><ele>727.5</ele><time>2026-05-02T08:11:21.204Z</time></trkpt><trkpt lat="44.4306591" lon="10.7325177"><ele>726.6666666666666</ele><time>2026-05-02T08:11:22.262Z</time></trkpt><trkpt lat="44.4307035" lon="10.732372"><ele>725.8333333333333</ele><time>2026-05-02T08:11:24.22Z</time></trkpt><trkpt lat="44.4307226" lon="10.7322373"><ele>725.0</ele><time>2026-05-02T08:11:26.227Z</time></trkpt><trkpt lat="44.430661" lon="10.7321339"><ele>725.0</ele><time>2026-05-02T08:11:28.213Z</time></trkpt><trkpt lat="44.4306053" lon="10.7320796"><ele>725.0</ele><time>2026-05-02T08:11:29.23Z</time></trkpt><trkpt lat="44.430551" lon="10.7320073"><ele>725.0</ele><time>2026-05-02T08:11:30.23Z</time></trkpt><trkpt lat="44.4305038" lon="10.7319183"><ele>725.0</ele><time>2026-05-02T08:11:31.221Z</time></trkpt><trkpt lat="44.430462" lon="10.7318197"><ele>725.0</ele><time>2026-05-02T08:11:32.175Z</time></trkpt><trkpt lat="44.4304132" lon="10.7317215"><ele>725.0</ele><time>2026-05-02T08:11:33.211Z</time></trkpt><trkpt lat="44.4303536" lon="10.7316178"><ele>723.2</ele><time>2026-05-02T08:11:34.214Z</time></trkpt><trkpt lat="44.4302848" lon="10.7315115"><ele>721.4</ele><time>2026-05-02T08:11:35.197Z</time></trkpt><trkpt lat="44.4302102" lon="10.7314136"><ele>719.5999999999999</ele><time>2026-05-02T08:11:36.175Z</time></trkpt><trkpt lat="44.4301303" lon="10.7313124"><ele>717.8</ele><time>2026-05-02T08:11:37.185Z</time></trkpt><trkpt lat="44.4300451" lon="10.731203"><ele>716.0</ele><time>2026-05-02T08:11:38.213Z</time></trkpt><trkpt lat="44.4299647" lon="10.7310866"><ele>714.8</ele><time>2026-05-02T08:11:39.182Z</time></trkpt><trkpt lat="44.4298851" lon="10.7309698"><ele>713.5999999999999</ele><time>2026-05-02T08:11:40.177Z</time></trkpt><trkpt lat="44.4298066" lon="10.7308563"><ele>712.4</ele><time>2026-05-02T08:11:41.188Z</time></trkpt><trkpt lat="44.4297297" lon="10.730746"><ele>711.2</ele><time>2026-05-02T08:11:42.233Z</time></trkpt><trkpt lat="44.4296567" lon="10.7306348"><ele>710.0</ele><time>2026-05-02T08:11:43.212Z</time></trkpt><trkpt lat="44.4295902" lon="10.7305243"><ele>709.5</ele><time>2026-05-02T08:11:44.245Z</time></trkpt><trkpt lat="44.4295335" lon="10.7304257"><ele>709.0</ele><time>2026-05-02T08:11:45.244Z</time></trkpt><trkpt lat="44.4294859" lon="10.7303373"><ele>708.5</ele><time>2026-05-02T08:11:46.203Z</time></trkpt><trkpt lat="44.4294476" lon="10.730257"><ele>708.0</ele><time>2026-05-02T08:11:47.209Z</time></trkpt><trkpt lat="44.4293968" lon="10.7301096"><ele>707.5</ele><time>2026-05-02T08:11:49.204Z</time></trkpt><trkpt lat="44.4293443" lon="10.7300117"><ele>707.0</ele><time>2026-05-02T08:11:51.196Z</time></trkpt><trkpt lat="44.429265" lon="10.7300343"><ele>707.0</ele><time>2026-05-02T08:11:53.213Z</time></trkpt><trkpt lat="44.4291942" lon="10.7301805"><ele>707.0</ele><time>2026-05-02T08:11:55.219Z</time></trkpt><trkpt lat="44.429162" lon="10.7302889"><ele>707.0</ele><time>2026-05-02T08:11:56.222Z</time></trkpt><trkpt lat="44.4291353" lon="10.730405"><ele>707.0</ele><time>2026-05-02T08:11:57.248Z</time></trkpt><trkpt lat="44.4291163" lon="10.7305142"><ele>707.0</ele><time>2026-05-02T08:11:58.213Z</time></trkpt><trkpt lat="44.4290994" lon="10.7306116"><ele>707.0</ele><time>2026-05-02T08:11:59.225Z</time></trkpt><trkpt lat="44.4290651" lon="10.730742"><ele>707.0</ele><time>2026-05-02T08:12:01.198Z</time></trkpt><trkpt lat="44.4289673" lon="10.730724"><ele>707.0</ele><time>2026-05-02T08:12:03.205Z</time></trkpt><trkpt lat="44.4289065" lon="10.7306769"><ele>707.0</ele><time>2026-05-02T08:12:04.227Z</time></trkpt><trkpt lat="44.4288444" lon="10.7306008"><ele>707.0</ele><time>2026-05-02T08:12:05.215Z</time></trkpt><trkpt lat="44.4287823" lon="10.7305151"><ele>707.0</ele><time>2026-05-02T08:12:06.211Z</time></trkpt><trkpt lat="44.4287191" lon="10.7304282"><ele>707.0</ele><time>2026-05-02T08:12:07.224Z</time></trkpt><trkpt lat="44.4286611" lon="10.7303366"><ele>706.0</ele><time>2026-05-02T08:12:08.202Z</time></trkpt><trkpt lat="44.4286069" lon="10.7302538"><ele>705.0</ele><time>2026-05-02T08:12:09.205Z</time></trkpt><trkpt lat="44.4285687" lon="10.7301821"><ele>704.0</ele><time>2026-05-02T08:12:10.212Z</time></trkpt><trkpt lat="44.4285132" lon="10.7300835"><ele>703.0</ele><time>2026-05-02T08:12:12.207Z</time></trkpt><trkpt lat="44.4284157" lon="10.7300341"><ele>702.0</ele><time>2026-05-02T08:12:14.175Z</time></trkpt><trkpt lat="44.4283314" lon="10.7300171"><ele>701.0</ele><time>2026-05-02T08:12:15.154Z</time></trkpt><trkpt lat="44.4282416" lon="10.7299747"><ele>701.0</ele><time>2026-05-02T08:12:16.162Z</time></trkpt><trkpt lat="44.4281447" lon="10.729895"><ele>701.0</ele><time>2026-05-02T08:12:17.163Z</time></trkpt><trkpt lat="44.4280434" lon="10.7298025"><ele>701.0</ele><time>2026-05-02T08:12:18.233Z</time></trkpt><trkpt lat="44.4279424" lon="10.7297316"><ele>701.0</ele><time>2026-05-02T08:12:19.201Z</time></trkpt><trkpt lat="44.4278432" lon="10.729689"><ele>701.5999999999999</ele><time>2026-05-02T08:12:20.23Z</time></trkpt><trkpt lat="44.4277427" lon="10.7296782"><ele>702.2</ele><time>2026-05-02T08:12:21.222Z</time></trkpt><trkpt lat="44.4276387" lon="10.7297081"><ele>702.8</ele><time>2026-05-02T08:12:22.203Z</time></trkpt><trkpt lat="44.4275352" lon="10.729778"><ele>703.4000000000001</ele><time>2026-05-02T08:12:23.235Z</time></trkpt><trkpt lat="44.4274342" lon="10.7298793"><ele>704.0</ele><time>2026-05-02T08:12:24.192Z</time></trkpt><trkpt lat="44.427342" lon="10.7299821"><ele>704.0</ele><time>2026-05-02T08:12:25.211Z</time></trkpt><trkpt lat="44.4272645" lon="10.7300727"><ele>704.0</ele><time>2026-05-02T08:12:26.173Z</time></trkpt><trkpt lat="44.4272011" lon="10.7301412"><ele>704.0</ele><time>2026-05-02T08:12:27.224Z</time></trkpt><trkpt lat="44.4271446" lon="10.730185"><ele>704.0</ele><time>2026-05-02T08:12:28.224Z</time></trkpt><trkpt lat="44.4270222" lon="10.7301658"><ele>704.0</ele><time>2026-05-02T08:12:30.233Z</time></trkpt><trkpt lat="44.4269534" lon="10.7301152"><ele>704.0</ele><time>2026-05-02T08:12:31.233Z</time></trkpt><trkpt lat="44.4268884" lon="10.7300627"><ele>703.1666666666666</ele><time>2026-05-02T08:12:32.226Z</time></trkpt><trkpt lat="44.4268222" lon="10.7300128"><ele>702.3333333333333</ele><time>2026-05-02T08:12:33.219Z</time></trkpt><trkpt lat="44.4267535" lon="10.7299564"><ele>701.5</ele><time>2026-05-02T08:12:34.205Z</time></trkpt><trkpt lat="44.4266833" lon="10.7298945"><ele>700.6666666666666</ele><time>2026-05-02T08:12:35.237Z</time></trkpt><trkpt lat="44.4266187" lon="10.7298277"><ele>699.8333333333334</ele><time>2026-05-02T08:12:36.211Z</time></trkpt><trkpt lat="44.4265581" lon="10.7297585"><ele>699.0</ele><time>2026-05-02T08:12:37.22Z</time></trkpt><trkpt lat="44.4264965" lon="10.7296942"><ele>699.0</ele><time>2026-05-02T08:12:38.232Z</time></trkpt><trkpt lat="44.4264323" lon="10.7296367"><ele>699.0</ele><time>2026-05-02T08:12:39.236Z</time></trkpt><trkpt lat="44.4263702" lon="10.7295843"><ele>699.0</ele><time>2026-05-02T08:12:40.224Z</time></trkpt><trkpt lat="44.4263119" lon="10.7295345"><ele>699.0</ele><time>2026-05-02T08:12:41.226Z</time></trkpt><trkpt lat="44.4262563" lon="10.7294852"><ele>699.0</ele><time>2026-05-02T08:12:42.196Z</time></trkpt><trkpt lat="44.4262032" lon="10.729435"><ele>699.0</ele><time>2026-05-02T08:12:43.258Z</time></trkpt><trkpt lat="44.4261502" lon="10.7293818"><ele>699.0</ele><time>2026-05-02T08:12:44.241Z</time></trkpt><trkpt lat="44.4260895" lon="10.7293211"><ele>698.4000000000001</ele><time>2026-05-02T08:12:45.212Z</time></trkpt><trkpt lat="44.4260222" lon="10.7292515"><ele>697.8</ele><time>2026-05-02T08:12:46.251Z</time></trkpt><trkpt lat="44.4259451" lon="10.7291709"><ele>697.2</ele><time>2026-05-02T08:12:47.185Z</time></trkpt><trkpt lat="44.4258702" lon="10.7290911"><ele>696.5999999999999</ele><time>2026-05-02T08:12:48.209Z</time></trkpt><trkpt lat="44.4257984" lon="10.729014"><ele>696.0</ele><time>2026-05-02T08:12:49.226Z</time></trkpt><trkpt lat="44.4257299" lon="10.7289387"><ele>696.0</ele><time>2026-05-02T08:12:50.232Z</time></trkpt><trkpt lat="44.4256649" lon="10.7288672"><ele>696.0</ele><time>2026-05-02T08:12:51.221Z</time></trkpt><trkpt lat="44.4256005" lon="10.7287966"><ele>696.0</ele><time>2026-05-02T08:12:52.228Z</time></trkpt><trkpt lat="44.4255401" lon="10.7287316"><ele>696.0</ele><time>2026-05-02T08:12:53.224Z</time></trkpt><trkpt lat="44.4254837" lon="10.7286703"><ele>696.0</ele><time>2026-05-02T08:12:54.232Z</time></trkpt><trkpt lat="44.4253849" lon="10.7286036"><ele>696.0</ele><time>2026-05-02T08:12:56.189Z</time></trkpt><trkpt lat="44.4252842" lon="10.7286137"><ele>695.0</ele><time>2026-05-02T08:12:58.23Z</time></trkpt><trkpt lat="44.4251706" lon="10.7286883"><ele>694.0</ele><time>2026-05-02T08:13:00.206Z</time></trkpt><trkpt lat="44.4250707" lon="10.7287902"><ele>693.0</ele><time>2026-05-02T08:13:02.219Z</time></trkpt><trkpt lat="44.4250215" lon="10.7288464"><ele>692.0</ele><time>2026-05-02T08:13:03.232Z</time></trkpt><trkpt lat="44.4249706" lon="10.7289036"><ele>691.0</ele><time>2026-05-02T08:13:04.237Z</time></trkpt><trkpt lat="44.4249146" lon="10.7289655"><ele>690.0</ele><time>2026-05-02T08:13:05.2Z</time></trkpt><trkpt lat="44.4248464" lon="10.7290377"><ele>690.0</ele><time>2026-05-02T08:13:06.277Z</time></trkpt><trkpt lat="44.4247728" lon="10.7291128"><ele>690.0</ele><time>2026-05-02T08:13:07.177Z</time></trkpt><trkpt lat="44.4246947" lon="10.7291842"><ele>690.0</ele><time>2026-05-02T08:13:08.236Z</time></trkpt><trkpt lat="44.4246139" lon="10.7292486"><ele>690.0</ele><time>2026-05-02T08:13:09.224Z</time></trkpt><trkpt lat="44.4245293" lon="10.7293066"><ele>690.0</ele><time>2026-05-02T08:13:10.215Z</time></trkpt><trkpt lat="44.4244413" lon="10.7293568"><ele>688.0</ele><time>2026-05-02T08:13:11.214Z</time></trkpt><trkpt lat="44.424351" lon="10.7294015"><ele>686.0</ele><time>2026-05-02T08:13:12.247Z</time></trkpt><trkpt lat="44.4242634" lon="10.7294483"><ele>684.0</ele><time>2026-05-02T08:13:13.217Z</time></trkpt><trkpt lat="44.4241778" lon="10.729498"><ele>682.0</ele><time>2026-05-02T08:13:14.224Z</time></trkpt><trkpt lat="44.4240979" lon="10.7295457"><ele>680.0</ele><time>2026-05-02T08:13:15.235Z</time></trkpt><trkpt lat="44.4240208" lon="10.7295877"><ele>680.0</ele><time>2026-05-02T08:13:16.237Z</time></trkpt><trkpt lat="44.423945" lon="10.7296243"><ele>680.0</ele><time>2026-05-02T08:13:17.207Z</time></trkpt><trkpt lat="44.4238725" lon="10.7296567"><ele>680.0</ele><time>2026-05-02T08:13:18.262Z</time></trkpt><trkpt lat="44.4238051" lon="10.7296912"><ele>680.0</ele><time>2026-05-02T08:13:19.223Z</time></trkpt><trkpt lat="44.4237039" lon="10.7297808"><ele>680.0</ele><time>2026-05-02T08:13:21.214Z</time></trkpt><trkpt lat="44.4236133" lon="10.7298794"><ele>678.5</ele><time>2026-05-02T08:13:23.2Z</time></trkpt><trkpt lat="44.4235108" lon="10.7299761"><ele>677.0</ele><time>2026-05-02T08:13:25.231Z</time></trkpt><trkpt lat="44.4234514" lon="10.7300306"><ele>675.5</ele><time>2026-05-02T08:13:26.184Z</time></trkpt><trkpt lat="44.4233903" lon="10.7300903"><ele>674.0</ele><time>2026-05-02T08:13:27.205Z</time></trkpt><trkpt lat="44.4233279" lon="10.7301529"><ele>672.5</ele><time>2026-05-02T08:13:28.207Z</time></trkpt><trkpt lat="44.423268" lon="10.730218"><ele>671.0</ele><time>2026-05-02T08:13:29.222Z</time></trkpt><trkpt lat="44.4232079" lon="10.7302889"><ele>670.2857142857142</ele><time>2026-05-02T08:13:30.216Z</time></trkpt><trkpt lat="44.423151" lon="10.7303608"><ele>669.5714285714287</ele><time>2026-05-02T08:13:31.242Z</time></trkpt><trkpt lat="44.423101" lon="10.7304325"><ele>668.8571428571429</ele><time>2026-05-02T08:13:32.23Z</time></trkpt><trkpt lat="44.4230557" lon="10.730508"><ele>668.1428571428571</ele><time>2026-05-02T08:13:33.243Z</time></trkpt><trkpt lat="44.4230166" lon="10.7305842"><ele>667.4285714285713</ele><time>2026-05-02T08:13:34.233Z</time></trkpt><trkpt lat="44.4229846" lon="10.7306682"><ele>666.7142857142858</ele><time>2026-05-02T08:13:35.209Z</time></trkpt><trkpt lat="44.4229568" lon="10.7307543"><ele>666.0</ele><time>2026-05-02T08:13:36.222Z</time></trkpt><trkpt lat="44.4229267" lon="10.7308402"><ele>665.0</ele><time>2026-05-02T08:13:37.214Z</time></trkpt><trkpt lat="44.4228948" lon="10.7309279"><ele>664.0</ele><time>2026-05-02T08:13:38.218Z</time></trkpt><trkpt lat="44.4228627" lon="10.7310198"><ele>663.0</ele><time>2026-05-02T08:13:39.208Z</time></trkpt><trkpt lat="44.4228317" lon="10.7311083"><ele>662.0</ele><time>2026-05-02T08:13:40.209Z</time></trkpt><trkpt lat="44.4228011" lon="10.7311857"><ele>661.0</ele><time>2026-05-02T08:13:41.197Z</time></trkpt><trkpt lat="44.4227398" lon="10.7313161"><ele>660.0</ele><time>2026-05-02T08:13:43.222Z</time></trkpt><trkpt lat="44.4226766" lon="10.731436"><ele>659.0</ele><time>2026-05-02T08:13:45.225Z</time></trkpt><trkpt lat="44.4226179" lon="10.731583"><ele>658.0</ele><time>2026-05-02T08:13:47.26Z</time></trkpt><trkpt lat="44.4225879" lon="10.73174"><ele>657.0</ele><time>2026-05-02T08:13:49.216Z</time></trkpt><trkpt lat="44.4225651" lon="10.7318925"><ele>656.0</ele><time>2026-05-02T08:13:51.207Z</time></trkpt><trkpt lat="44.422527" lon="10.7320275"><ele>653.75</ele><time>2026-05-02T08:13:53.262Z</time></trkpt><trkpt lat="44.4224774" lon="10.7321645"><ele>651.5</ele><time>2026-05-02T08:13:55.214Z</time></trkpt><trkpt lat="44.4224198" lon="10.7323093"><ele>649.25</ele><time>2026-05-02T08:13:57.185Z</time></trkpt><trkpt lat="44.4223648" lon="10.7324584"><ele>647.0</ele><time>2026-05-02T08:13:59.212Z</time></trkpt><trkpt lat="44.4223011" lon="10.7325993"><ele>647.0</ele><time>2026-05-02T08:14:01.208Z</time></trkpt><trkpt lat="44.4222208" lon="10.7326948"><ele>647.0</ele><time>2026-05-02T08:14:03.201Z</time></trkpt><trkpt lat="44.4221289" lon="10.7327636"><ele>647.0</ele><time>2026-05-02T08:14:05.232Z</time></trkpt><trkpt lat="44.4220298" lon="10.7328368"><ele>647.0</ele><time>2026-05-02T08:14:07.228Z</time></trkpt><trkpt lat="44.4219292" lon="10.7329083"><ele>647.0</ele><time>2026-05-02T08:14:09.227Z</time></trkpt><trkpt lat="44.4218328" lon="10.7329358"><ele>644.6</ele><time>2026-05-02T08:14:11.197Z</time></trkpt><trkpt lat="44.4217384" lon="10.7329066"><ele>642.2</ele><time>2026-05-02T08:14:13.247Z</time></trkpt><trkpt lat="44.4216471" lon="10.7329113"><ele>639.8</ele><time>2026-05-02T08:14:15.229Z</time></trkpt><trkpt lat="44.4215627" lon="10.7329545"><ele>637.4</ele><time>2026-05-02T08:14:17.251Z</time></trkpt><trkpt lat="44.421508" lon="10.7330393"><ele>635.0</ele><time>2026-05-02T08:14:19.218Z</time></trkpt><trkpt lat="44.4214323" lon="10.733115"><ele>635.0</ele><time>2026-05-02T08:14:21.226Z</time></trkpt><trkpt lat="44.4213383" lon="10.7331774"><ele>635.0</ele><time>2026-05-02T08:14:23.205Z</time></trkpt><trkpt lat="44.4212416" lon="10.7332451"><ele>635.0</ele><time>2026-05-02T08:14:25.203Z</time></trkpt><trkpt lat="44.4211575" lon="10.7333317"><ele>635.0</ele><time>2026-05-02T08:14:27.221Z</time></trkpt><trkpt lat="44.4210683" lon="10.7334087"><ele>635.0</ele><time>2026-05-02T08:14:29.215Z</time></trkpt><trkpt lat="44.4209794" lon="10.7334554"><ele>633.4</ele><time>2026-05-02T08:14:31.218Z</time></trkpt><trkpt lat="44.4208923" lon="10.7334757"><ele>631.8</ele><time>2026-05-02T08:14:33.219Z</time></trkpt><trkpt lat="44.4208031" lon="10.7334843"><ele>630.2</ele><time>2026-05-02T08:14:35.206Z</time></trkpt><trkpt lat="44.4207123" lon="10.7335226"><ele>628.6</ele><time>2026-05-02T08:14:37.205Z</time></trkpt><trkpt lat="44.4206197" lon="10.7335565"><ele>627.0</ele><time>2026-05-02T08:14:39.229Z</time></trkpt><trkpt lat="44.4205227" lon="10.7335598"><ele>624.0</ele><time>2026-05-02T08:14:41.213Z</time></trkpt><trkpt lat="44.4204369" lon="10.7335438"><ele>621.0</ele><time>2026-05-02T08:14:43.228Z</time></trkpt><trkpt lat="44.420346" lon="10.7335292"><ele>618.0</ele><time>2026-05-02T08:14:45.198Z</time></trkpt><trkpt lat="44.4202605" lon="10.7335644"><ele>615.0</ele><time>2026-05-02T08:14:47.233Z</time></trkpt><trkpt lat="44.4201956" lon="10.7336406"><ele>612.0</ele><time>2026-05-02T08:14:49.209Z</time></trkpt><trkpt lat="44.4201334" lon="10.7337165"><ele>609.0</ele><time>2026-05-02T08:14:51.226Z</time></trkpt><trkpt lat="44.4200806" lon="10.7337738"><ele>609.0</ele><time>2026-05-02T08:14:53.217Z</time></trkpt><trkpt lat="44.4200151" lon="10.7338197"><ele>609.0</ele><time>2026-05-02T08:14:55.219Z</time></trkpt><trkpt lat="44.4199248" lon="10.7338356"><ele>609.0</ele><time>2026-05-02T08:14:57.205Z</time></trkpt><trkpt lat="44.4198299" lon="10.7338479"><ele>609.0</ele><time>2026-05-02T08:14:59.216Z</time></trkpt><trkpt lat="44.4197296" lon="10.7338692"><ele>609.0</ele><time>2026-05-02T08:15:01.197Z</time></trkpt><trkpt lat="44.4196247" lon="10.7339075"><ele>607.2</ele><time>2026-05-02T08:15:03.223Z</time></trkpt><trkpt lat="44.4195202" lon="10.7339568"><ele>605.4</ele><time>2026-05-02T08:15:05.214Z</time></trkpt><trkpt lat="44.4194251" lon="10.7339966"><ele>603.6</ele><time>2026-05-02T08:15:07.276Z</time></trkpt><trkpt lat="44.4193387" lon="10.7340111"><ele>601.8</ele><time>2026-05-02T08:15:09.226Z</time></trkpt><trkpt lat="44.4192453" lon="10.7339933"><ele>600.0</ele><time>2026-05-02T08:15:11.224Z</time></trkpt><trkpt lat="44.4191505" lon="10.7339544"><ele>600.0</ele><time>2026-05-02T08:15:13.216Z</time></trkpt><trkpt lat="44.4190439" lon="10.7339362"><ele>600.0</ele><time>2026-05-02T08:15:15.234Z</time></trkpt><trkpt lat="44.4189474" lon="10.7339514"><ele>600.0</ele><time>2026-05-02T08:15:17.197Z</time></trkpt><trkpt lat="44.4188631" lon="10.7339915"><ele>600.0</ele><time>2026-05-02T08:15:19.21Z</time></trkpt><trkpt lat="44.4187762" lon="10.7340049"><ele>600.0</ele><time>2026-05-02T08:15:21.199Z</time></trkpt><trkpt lat="44.4186769" lon="10.7340045"><ele>598.0</ele><time>2026-05-02T08:15:23.207Z</time></trkpt><trkpt lat="44.4185814" lon="10.7340085"><ele>596.0</ele><time>2026-05-02T08:15:25.211Z</time></trkpt><trkpt lat="44.4185111" lon="10.7339954"><ele>594.0</ele><time>2026-05-02T08:15:27.193Z</time></trkpt><trkpt lat="44.4184386" lon="10.7339584"><ele>592.0</ele><time>2026-05-02T08:15:29.212Z</time></trkpt><trkpt lat="44.4183683" lon="10.7339152"><ele>590.0</ele><time>2026-05-02T08:15:31.204Z</time></trkpt><trkpt lat="44.4183011" lon="10.7338793"><ele>588.0</ele><time>2026-05-02T08:15:33.216Z</time></trkpt><trkpt lat="44.4182277" lon="10.733841"><ele>588.0</ele><time>2026-05-02T08:15:35.198Z</time></trkpt><trkpt lat="44.4181525" lon="10.7337904"><ele>588.0</ele><time>2026-05-02T08:15:37.174Z</time></trkpt><trkpt lat="44.4180773" lon="10.7337604"><ele>588.0</ele><time>2026-05-02T08:15:39.232Z</time></trkpt><trkpt lat="44.4180008" lon="10.733748"><ele>588.0</ele><time>2026-05-02T08:15:41.219Z</time></trkpt><trkpt lat="44.4179134" lon="10.733745"><ele>588.0</ele><time>2026-05-02T08:15:43.194Z</time></trkpt><trkpt lat="44.4178214" lon="10.7337494"><ele>588.0</ele><time>2026-05-02T08:15:45.198Z</time></trkpt><trkpt lat="44.4177461" lon="10.7337415"><ele>586.0</ele><time>2026-05-02T08:15:47.214Z</time></trkpt><trkpt lat="44.4176711" lon="10.733735"><ele>584.0</ele><time>2026-05-02T08:15:49.222Z</time></trkpt><trkpt lat="44.4175923" lon="10.7337495"><ele>582.0</ele><time>2026-05-02T08:15:51.195Z</time></trkpt><trkpt lat="44.417516" lon="10.7337847"><ele>580.0</ele><time>2026-05-02T08:15:53.205Z</time></trkpt><trkpt lat="44.4174416" lon="10.7338187"><ele>578.0</ele><time>2026-05-02T08:15:55.206Z</time></trkpt><trkpt lat="44.4173963" lon="10.7339179"><ele>576.0</ele><time>2026-05-02T08:15:58.207Z</time></trkpt><trkpt lat="44.4174251" lon="10.734004"><ele>576.0</ele><time>2026-05-02T08:16:00.194Z</time></trkpt><trkpt lat="44.417463" lon="10.7340835"><ele>576.0</ele><time>2026-05-02T08:16:02.183Z</time></trkpt><trkpt lat="44.4174618" lon="10.7341747"><ele>576.0</ele><time>2026-05-02T08:16:04.182Z</time></trkpt><trkpt lat="44.4174188" lon="10.7342579"><ele>576.0</ele><time>2026-05-02T08:16:06.24Z</time></trkpt><trkpt lat="44.4173523" lon="10.734331"><ele>576.0</ele><time>2026-05-02T08:16:08.182Z</time></trkpt><trkpt lat="44.4172841" lon="10.7344006"><ele>576.0</ele><time>2026-05-02T08:16:10.199Z</time></trkpt><trkpt lat="44.4172123" lon="10.7344739"><ele>572.8333333333334</ele><time>2026-05-02T08:16:12.239Z</time></trkpt><trkpt lat="44.4171496" lon="10.734554"><ele>569.6666666666666</ele><time>2026-05-02T08:16:14.232Z</time></trkpt><trkpt lat="44.4170985" lon="10.7346262"><ele>566.5</ele><time>2026-05-02T08:16:16.164Z</time></trkpt><trkpt lat="44.4170427" lon="10.7347016"><ele>563.3333333333333</ele><time>2026-05-02T08:16:18.227Z</time></trkpt><trkpt lat="44.4169632" lon="10.7347466"><ele>560.1666666666666</ele><time>2026-05-02T08:16:20.215Z</time></trkpt><trkpt lat="44.4168733" lon="10.7347725"><ele>557.0</ele><time>2026-05-02T08:16:22.223Z</time></trkpt><trkpt lat="44.4167643" lon="10.7347945"><ele>557.0</ele><time>2026-05-02T08:16:24.178Z</time></trkpt><trkpt lat="44.416664" lon="10.7348457"><ele>557.0</ele><time>2026-05-02T08:16:26.21Z</time></trkpt><trkpt lat="44.4165594" lon="10.7348759"><ele>557.0</ele><time>2026-05-02T08:16:28.21Z</time></trkpt><trkpt lat="44.4164594" lon="10.7348787"><ele>557.0</ele><time>2026-05-02T08:16:30.224Z</time></trkpt><trkpt lat="44.4163786" lon="10.7348515"><ele>557.0</ele><time>2026-05-02T08:16:32.214Z</time></trkpt><trkpt lat="44.4163093" lon="10.7347759"><ele>555.5</ele><time>2026-05-02T08:16:34.22Z</time></trkpt><trkpt lat="44.4162428" lon="10.7346734"><ele>554.0</ele><time>2026-05-02T08:16:36.155Z</time></trkpt><trkpt lat="44.4161929" lon="10.7345564"><ele>552.5</ele><time>2026-05-02T08:16:38.201Z</time></trkpt><trkpt lat="44.4161674" lon="10.7344705"><ele>551.0</ele><time>2026-05-02T08:16:40.209Z</time></trkpt><trkpt lat="44.4161456" lon="10.734361"><ele>549.5</ele><time>2026-05-02T08:16:43.233Z</time></trkpt><trkpt lat="44.4160615" lon="10.7343048"><ele>548.0</ele><time>2026-05-02T08:16:46.184Z</time></trkpt><trkpt lat="44.4159776" lon="10.7342883"><ele>548.0</ele><time>2026-05-02T08:16:48.233Z</time></trkpt><trkpt lat="44.4158915" lon="10.7342779"><ele>548.0</ele><time>2026-05-02T08:16:50.183Z</time></trkpt><trkpt lat="44.4158019" lon="10.734276"><ele>548.0</ele><time>2026-05-02T08:16:52.226Z</time></trkpt><trkpt lat="44.4157058" lon="10.7342737"><ele>548.0</ele><time>2026-05-02T08:16:54.224Z</time></trkpt><trkpt lat="44.4155971" lon="10.7342766"><ele>548.0</ele><time>2026-05-02T08:16:56.204Z</time></trkpt><trkpt lat="44.4154938" lon="10.7342899"><ele>545.4</ele><time>2026-05-02T08:16:58.205Z</time></trkpt><trkpt lat="44.4153953" lon="10.7342993"><ele>542.8</ele><time>2026-05-02T08:17:00.221Z</time></trkpt><trkpt lat="44.4153018" lon="10.7343382"><ele>540.2</ele><time>2026-05-02T08:17:02.215Z</time></trkpt><trkpt lat="44.4152068" lon="10.7343873"><ele>537.6</ele><time>2026-05-02T08:17:04.223Z</time></trkpt><trkpt lat="44.415105" lon="10.7344101"><ele>535.0</ele><time>2026-05-02T08:17:06.213Z</time></trkpt><trkpt lat="44.4149887" lon="10.7344266"><ele>535.0</ele><time>2026-05-02T08:17:08.241Z</time></trkpt><trkpt lat="44.4148623" lon="10.7344099"><ele>535.0</ele><time>2026-05-02T08:17:10.197Z</time></trkpt><trkpt lat="44.41474" lon="10.7343853"><ele>535.0</ele><time>2026-05-02T08:17:12.21Z</time></trkpt><trkpt lat="44.4146227" lon="10.7343988"><ele>535.0</ele><time>2026-05-02T08:17:14.223Z</time></trkpt><trkpt lat="44.4145023" lon="10.7344266"><ele>534.1666666666667</ele><time>2026-05-02T08:17:16.211Z</time></trkpt><trkpt lat="44.4144371" lon="10.7344357"><ele>533.3333333333334</ele><time>2026-05-02T08:17:17.201Z</time></trkpt><trkpt lat="44.4143657" lon="10.7344542"><ele>532.5</ele><time>2026-05-02T08:17:18.219Z</time></trkpt><trkpt lat="44.4142916" lon="10.7344794"><ele>531.6666666666666</ele><time>2026-05-02T08:17:19.216Z</time></trkpt><trkpt lat="44.4142261" lon="10.7344999"><ele>530.8333333333333</ele><time>2026-05-02T08:17:20.21Z</time></trkpt><trkpt lat="44.4141106" lon="10.7345384"><ele>530.0</ele><time>2026-05-02T08:17:22.216Z</time></trkpt><trkpt lat="44.4139942" lon="10.734569"><ele>530.0</ele><time>2026-05-02T08:17:24.233Z</time></trkpt><trkpt lat="44.4138768" lon="10.7345403"><ele>530.0</ele><time>2026-05-02T08:17:26.205Z</time></trkpt><trkpt lat="44.4137655" lon="10.7344673"><ele>530.0</ele><time>2026-05-02T08:17:28.244Z</time></trkpt><trkpt lat="44.4137036" lon="10.7344325"><ele>530.0</ele><time>2026-05-02T08:17:29.266Z</time></trkpt><trkpt lat="44.4136389" lon="10.7344047"><ele>530.0</ele><time>2026-05-02T08:17:30.228Z</time></trkpt><trkpt lat="44.4135722" lon="10.7343824"><ele>530.0</ele><time>2026-05-02T08:17:31.224Z</time></trkpt><trkpt lat="44.4135046" lon="10.7343617"><ele>529.6</ele><time>2026-05-02T08:17:32.222Z</time></trkpt><trkpt lat="44.4134383" lon="10.7343434"><ele>529.2</ele><time>2026-05-02T08:17:33.218Z</time></trkpt><trkpt lat="44.413321" lon="10.7343122"><ele>528.8</ele><time>2026-05-02T08:17:35.211Z</time></trkpt><trkpt lat="44.4132173" lon="10.7342618"><ele>528.4</ele><time>2026-05-02T08:17:37.231Z</time></trkpt><trkpt lat="44.4131256" lon="10.7341916"><ele>528.0</ele><time>2026-05-02T08:17:39.213Z</time></trkpt><trkpt lat="44.413043" lon="10.7341159"><ele>526.1666666666666</ele><time>2026-05-02T08:17:41.209Z</time></trkpt><trkpt lat="44.4129512" lon="10.7340556"><ele>524.3333333333334</ele><time>2026-05-02T08:17:43.183Z</time></trkpt><trkpt lat="44.4128617" lon="10.7340002"><ele>522.5</ele><time>2026-05-02T08:17:45.218Z</time></trkpt><trkpt lat="44.4127736" lon="10.7339752"><ele>520.6666666666667</ele><time>2026-05-02T08:17:47.219Z</time></trkpt><trkpt lat="44.4127054" lon="10.7339637"><ele>518.8333333333334</ele><time>2026-05-02T08:17:49.212Z</time></trkpt><trkpt lat="44.4126175" lon="10.7339633"><ele>517.0</ele><time>2026-05-02T08:17:52.188Z</time></trkpt><trkpt lat="44.412532" lon="10.733933"><ele>517.0</ele><time>2026-05-02T08:17:55.202Z</time></trkpt><trkpt lat="44.4124394" lon="10.733891"><ele>517.0</ele><time>2026-05-02T08:17:58.164Z</time></trkpt><trkpt lat="44.4123775" lon="10.7338475"><ele>517.0</ele><time>2026-05-02T08:18:00.2Z</time></trkpt><trkpt lat="44.4122973" lon="10.7337827"><ele>517.0</ele><time>2026-05-02T08:18:03.205Z</time></trkpt><trkpt lat="44.4122294" lon="10.7336953"><ele>517.0</ele><time>2026-05-02T08:18:06.234Z</time></trkpt><trkpt lat="44.4121757" lon="10.7336255"><ele>517.0</ele><time>2026-05-02T08:18:08.198Z</time></trkpt><trkpt lat="44.4121259" lon="10.7335607"><ele>513.0</ele><time>2026-05-02T08:18:10.215Z</time></trkpt><trkpt lat="44.4120691" lon="10.7334881"><ele>509.0</ele><time>2026-05-02T08:18:12.214Z</time></trkpt><trkpt lat="44.4120206" lon="10.7334097"><ele>505.0</ele><time>2026-05-02T08:18:14.174Z</time></trkpt><trkpt lat="44.4119853" lon="10.7333327"><ele>501.0</ele><time>2026-05-02T08:18:16.182Z</time></trkpt><trkpt lat="44.4119476" lon="10.7332267"><ele>497.00000000000006</ele><time>2026-05-02T08:18:19.168Z</time></trkpt><trkpt lat="44.4119075" lon="10.7331214"><ele>493.0</ele><time>2026-05-02T08:18:22.193Z</time></trkpt><trkpt lat="44.4118634" lon="10.7330329"><ele>493.00000000000006</ele><time>2026-05-02T08:18:25.212Z</time></trkpt><trkpt lat="44.4118135" lon="10.7329558"><ele>493.0</ele><time>2026-05-02T08:18:28.193Z</time></trkpt><trkpt lat="44.4117727" lon="10.7328777"><ele>493.0</ele><time>2026-05-02T08:18:30.225Z</time></trkpt><trkpt lat="44.4117191" lon="10.7328003"><ele>493.0</ele><time>2026-05-02T08:18:32.203Z</time></trkpt><trkpt lat="44.41166" lon="10.7327269"><ele>493.00000000000006</ele><time>2026-05-02T08:18:34.217Z</time></trkpt><trkpt lat="44.4116021" lon="10.7326558"><ele>493.0</ele><time>2026-05-02T08:18:36.218Z</time></trkpt><trkpt lat="44.4115436" lon="10.7325773"><ele>490.83333333333337</ele><time>2026-05-02T08:18:38.222Z</time></trkpt><trkpt lat="44.4114737" lon="10.7325036"><ele>488.6666666666667</ele><time>2026-05-02T08:18:40.21Z</time></trkpt><trkpt lat="44.4114025" lon="10.7324768"><ele>486.5</ele><time>2026-05-02T08:18:42.215Z</time></trkpt><trkpt lat="44.4113276" lon="10.7325165"><ele>484.33333333333337</ele><time>2026-05-02T08:18:44.216Z</time></trkpt><trkpt lat="44.4112735" lon="10.7326159"><ele>482.1666666666667</ele><time>2026-05-02T08:18:46.2Z</time></trkpt><trkpt lat="44.4112349" lon="10.7327204"><ele>480.0</ele><time>2026-05-02T08:18:48.18Z</time></trkpt><trkpt lat="44.4111731" lon="10.7327541"><ele>477.5</ele><time>2026-05-02T08:18:51.222Z</time></trkpt><trkpt lat="44.4111555" lon="10.7326386"><ele>475.0</ele><time>2026-05-02T08:18:54.209Z</time></trkpt><trkpt lat="44.411163" lon="10.7325208"><ele>472.5</ele><time>2026-05-02T08:18:56.202Z</time></trkpt><trkpt lat="44.4111617" lon="10.732384"><ele>470.0</ele><time>2026-05-02T08:18:58.205Z</time></trkpt><trkpt lat="44.4111586" lon="10.7322475"><ele>467.5</ele><time>2026-05-02T08:19:00.202Z</time></trkpt><trkpt lat="44.4111582" lon="10.7321507"><ele>465.0</ele><time>2026-05-02T08:19:02.19Z</time></trkpt><trkpt lat="44.4111145" lon="10.7320723"><ele>465.0</ele><time>2026-05-02T08:19:05.201Z</time></trkpt><trkpt lat="44.411027" lon="10.7320529"><ele>465.0</ele><time>2026-05-02T08:19:07.184Z</time></trkpt><trkpt lat="44.410943" lon="10.7320209"><ele>465.0</ele><time>2026-05-02T08:19:09.212Z</time></trkpt><trkpt lat="44.4108816" lon="10.7319689"><ele>465.0</ele><time>2026-05-02T08:19:11.202Z</time></trkpt><trkpt lat="44.4108474" lon="10.7318795"><ele>465.0</ele><time>2026-05-02T08:19:14.187Z</time></trkpt><trkpt lat="44.4107936" lon="10.7317882"><ele>465.0</ele><time>2026-05-02T08:19:17.264Z</time></trkpt><trkpt lat="44.4107594" lon="10.7317058"><ele>462.5</ele><time>2026-05-02T08:19:19.241Z</time></trkpt><trkpt lat="44.41071" lon="10.7315962"><ele>460.0</ele><time>2026-05-02T08:19:22.222Z</time></trkpt><trkpt lat="44.4106595" lon="10.7315057"><ele>457.5</ele><time>2026-05-02T08:19:25.205Z</time></trkpt><trkpt lat="44.4105876" lon="10.7314993"><ele>455.0</ele><time>2026-05-02T08:19:30.249Z</time></trkpt><trkpt lat="44.4105337" lon="10.731554"><ele>452.5</ele><time>2026-05-02T08:19:39.15Z</time></trkpt><trkpt lat="44.4104667" lon="10.7315749"><ele>450.0</ele><time>2026-05-02T08:19:43.201Z</time></trkpt><trkpt lat="44.4103935" lon="10.7315731"><ele>447.0</ele><time>2026-05-02T08:19:55.186Z</time></trkpt><trkpt lat="44.4103142" lon="10.7315474"><ele>444.0</ele><time>2026-05-02T08:19:59.196Z</time></trkpt><trkpt lat="44.4102466" lon="10.7315368"><ele>441.0</ele><time>2026-05-02T08:20:09.205Z</time></trkpt><trkpt lat="44.4101744" lon="10.7314921"><ele>438.0</ele><time>2026-05-02T08:20:31.229Z</time></trkpt><trkpt lat="44.4101193" lon="10.7314297"><ele>435.0</ele><time>2026-05-02T08:20:34.193Z</time></trkpt><trkpt lat="44.4100474" lon="10.7313419"><ele>432.0</ele><time>2026-05-02T08:20:37.192Z</time></trkpt><trkpt lat="44.4099945" lon="10.7312746"><ele>432.0</ele><time>2026-05-02T08:20:39.205Z</time></trkpt><trkpt lat="44.4099375" lon="10.7312147"><ele>432.0</ele><time>2026-05-02T08:20:41.223Z</time></trkpt><trkpt lat="44.4098555" lon="10.7311595"><ele>432.0</ele><time>2026-05-02T08:20:44.172Z</time></trkpt><trkpt lat="44.409797" lon="10.7311231"><ele>432.0</ele><time>2026-05-02T08:20:46.211Z</time></trkpt><trkpt lat="44.4097118" lon="10.7310914"><ele>432.0</ele><time>2026-05-02T08:20:49.186Z</time></trkpt><trkpt lat="44.4096204" lon="10.7311068"><ele>432.0</ele><time>2026-05-02T08:20:52.222Z</time></trkpt><trkpt lat="44.4095438" lon="10.7310762"><ele>428.1666666666667</ele><time>2026-05-02T08:20:55.185Z</time></trkpt><trkpt lat="44.4094937" lon="10.7309752"><ele>424.33333333333337</ele><time>2026-05-02T08:20:58.217Z</time></trkpt><trkpt lat="44.4094433" lon="10.7308571"><ele>420.5</ele><time>2026-05-02T08:21:00.213Z</time></trkpt><trkpt lat="44.4093803" lon="10.7307367"><ele>416.6666666666667</ele><time>2026-05-02T08:21:02.227Z</time></trkpt><trkpt lat="44.4093352" lon="10.7306463"><ele>412.83333333333337</ele><time>2026-05-02T08:21:04.225Z</time></trkpt><trkpt lat="44.4092996" lon="10.730554"><ele>409.0</ele><time>2026-05-02T08:21:07.228Z</time></trkpt><trkpt lat="44.4092755" lon="10.7304225"><ele>409.00000000000006</ele><time>2026-05-02T08:21:10.196Z</time></trkpt><trkpt lat="44.4092729" lon="10.7303091"><ele>409.0</ele><time>2026-05-02T08:21:12.209Z</time></trkpt><trkpt lat="44.4092493" lon="10.7302202"><ele>409.0</ele><time>2026-05-02T08:21:14.203Z</time></trkpt><trkpt lat="44.4091883" lon="10.7301466"><ele>409.0</ele><time>2026-05-02T08:21:16.275Z</time></trkpt><trkpt lat="44.4091227" lon="10.7300451"><ele>409.00000000000006</ele><time>2026-05-02T08:21:18.178Z</time></trkpt><trkpt lat="44.4090898" lon="10.7299679"><ele>409.0</ele><time>2026-05-02T08:21:19.207Z</time></trkpt><trkpt lat="44.4090263" lon="10.7298345"><ele>408.50000000000006</ele><time>2026-05-02T08:21:21.22Z</time></trkpt><trkpt lat="44.4089879" lon="10.729754"><ele>408.0</ele><time>2026-05-02T08:21:23.211Z</time></trkpt><trkpt lat="44.4089538" lon="10.7296629"><ele>407.5</ele><time>2026-05-02T08:21:25.194Z</time></trkpt><trkpt lat="44.4089004" lon="10.7295537"><ele>407.0</ele><time>2026-05-02T08:21:27.238Z</time></trkpt><trkpt lat="44.4088555" lon="10.7294863"><ele>406.50000000000006</ele><time>2026-05-02T08:21:28.205Z</time></trkpt><trkpt lat="44.4088108" lon="10.7294198"><ele>406.0</ele><time>2026-05-02T08:21:29.2Z</time></trkpt><trkpt lat="44.4087487" lon="10.7293346"><ele>405.33333333333337</ele><time>2026-05-02T08:21:31.257Z</time></trkpt><trkpt lat="44.4087001" lon="10.7292528"><ele>404.6666666666667</ele><time>2026-05-02T08:21:48.18Z</time></trkpt><trkpt lat="44.4086608" lon="10.7291832"><ele>404.0</ele><time>2026-05-02T08:21:52.204Z</time></trkpt><trkpt lat="44.4086032" lon="10.7291001"><ele>403.33333333333337</ele><time>2026-05-02T08:22:00.158Z</time></trkpt><trkpt lat="44.4085417" lon="10.7290209"><ele>402.6666666666667</ele><time>2026-05-02T08:22:03.219Z</time></trkpt><trkpt lat="44.4084834" lon="10.7289723"><ele>402.0</ele><time>2026-05-02T08:22:06.2Z</time></trkpt><trkpt lat="44.4084151" lon="10.728899"><ele>402.0</ele><time>2026-05-02T08:22:09.236Z</time></trkpt><trkpt lat="44.4083743" lon="10.7287727"><ele>402.0</ele><time>2026-05-02T08:22:12.142Z</time></trkpt><trkpt lat="44.408329" lon="10.7286748"><ele>402.0</ele><time>2026-05-02T08:22:14.214Z</time></trkpt><trkpt lat="44.4082287" lon="10.7285965"><ele>402.0</ele><time>2026-05-02T08:22:16.174Z</time></trkpt><trkpt lat="44.4081442" lon="10.7285077"><ele>402.0</ele><time>2026-05-02T08:22:18.205Z</time></trkpt><trkpt lat="44.4080745" lon="10.7283901"><ele>402.6</ele><time>2026-05-02T08:22:20.217Z</time></trkpt><trkpt lat="44.4080115" lon="10.7282775"><ele>403.20000000000005</ele><time>2026-05-02T08:22:22.231Z</time></trkpt><trkpt lat="44.4079573" lon="10.7281823"><ele>403.8</ele><time>2026-05-02T08:22:24.221Z</time></trkpt><trkpt lat="44.4079193" lon="10.7281039"><ele>404.4</ele><time>2026-05-02T08:22:26.262Z</time></trkpt><trkpt lat="44.4078684" lon="10.7279951"><ele>405.0</ele><time>2026-05-02T08:22:28.216Z</time></trkpt><trkpt lat="44.4078191" lon="10.7278733"><ele>405.0</ele><time>2026-05-02T08:22:30.2Z</time></trkpt><trkpt lat="44.4077803" lon="10.7277358"><ele>405.0</ele><time>2026-05-02T08:22:32.249Z</time></trkpt><trkpt lat="44.4077817" lon="10.7276146"><ele>405.0</ele><time>2026-05-02T08:22:34.206Z</time></trkpt><trkpt lat="44.4078001" lon="10.7274771"><ele>405.0</ele><time>2026-05-02T08:22:36.222Z</time></trkpt><trkpt lat="44.4077773" lon="10.7273775"><ele>405.0</ele><time>2026-05-02T08:22:39.214Z</time></trkpt><trkpt lat="44.4076967" lon="10.7273362"><ele>406.85714285714283</ele><time>2026-05-02T08:22:43.183Z</time></trkpt><trkpt lat="44.4076363" lon="10.7272759"><ele>408.7142857142857</ele><time>2026-05-02T08:22:45.21Z</time></trkpt><trkpt lat="44.407588" lon="10.7272166"><ele>410.57142857142856</ele><time>2026-05-02T08:22:47.174Z</time></trkpt><trkpt lat="44.4075379" lon="10.7271527"><ele>412.42857142857144</ele><time>2026-05-02T08:23:06.194Z</time></trkpt><trkpt lat="44.4075436" lon="10.7270473"><ele>414.2857142857143</ele><time>2026-05-02T08:23:11.181Z</time></trkpt><trkpt lat="44.407603" lon="10.7269536"><ele>416.1428571428571</ele><time>2026-05-02T08:23:16.237Z</time></trkpt><trkpt lat="44.4076453" lon="10.726883"><ele>418.0</ele><time>2026-05-02T08:23:19.222Z</time></trkpt><trkpt lat="44.4076755" lon="10.7267682"><ele>419.83333333333337</ele><time>2026-05-02T08:23:22.205Z</time></trkpt><trkpt lat="44.4076271" lon="10.7266954"><ele>421.6666666666667</ele><time>2026-05-02T08:23:26.222Z</time></trkpt><trkpt lat="44.4075178" lon="10.726654"><ele>423.5</ele><time>2026-05-02T08:29:06.198Z</time></trkpt><trkpt lat="44.4074375" lon="10.7266456"><ele>425.33333333333337</ele><time>2026-05-02T08:29:10.197Z</time></trkpt><trkpt lat="44.4073525" lon="10.7266591"><ele>427.1666666666667</ele><time>2026-05-02T08:29:14.205Z</time></trkpt><trkpt lat="44.4072786" lon="10.7266736"><ele>429.0</ele><time>2026-05-02T08:29:17.232Z</time></trkpt><trkpt lat="44.4072037" lon="10.7266719"><ele>424.8333333333333</ele><time>2026-05-02T08:29:20.237Z</time></trkpt><trkpt lat="44.4071133" lon="10.7266995"><ele>420.66666666666663</ele><time>2026-05-02T08:29:23.201Z</time></trkpt><trkpt lat="44.407049" lon="10.7267267"><ele>416.5</ele><time>2026-05-02T08:29:25.19Z</time></trkpt><trkpt lat="44.4069603" lon="10.7267162"><ele>412.3333333333333</ele><time>2026-05-02T08:29:28.223Z</time></trkpt><trkpt lat="44.4068957" lon="10.7267003"><ele>408.16666666666663</ele><time>2026-05-02T08:29:31.17Z</time></trkpt><trkpt lat="44.4068308" lon="10.7266478"><ele>404.0</ele><time>2026-05-02T08:29:35.205Z</time></trkpt><trkpt lat="44.4067915" lon="10.7265662"><ele>404.0</ele><time>2026-05-02T08:29:38.176Z</time></trkpt><trkpt lat="44.4067476" lon="10.7264917"><ele>404.0</ele><time>2026-05-02T08:29:45.202Z</time></trkpt><trkpt lat="44.4067066" lon="10.7264048"><ele>404.0</ele><time>2026-05-02T08:29:49.191Z</time></trkpt><trkpt lat="44.4066436" lon="10.726348"><ele>404.0</ele><time>2026-05-02T08:29:53.2Z</time></trkpt><trkpt lat="44.4065754" lon="10.7263317"><ele>404.0</ele><time>2026-05-02T08:29:57.213Z</time></trkpt><trkpt lat="44.4065056" lon="10.7262966"><ele>404.0</ele><time>2026-05-02T08:30:02.162Z</time></trkpt><trkpt lat="44.4064333" lon="10.7262974"><ele>404.0</ele><time>2026-05-02T08:30:07.193Z</time></trkpt><trkpt lat="44.4063759" lon="10.7263426"><ele>401.2857142857143</ele><time>2026-05-02T08:30:12.198Z</time></trkpt><trkpt lat="44.4063019" lon="10.7263454"><ele>398.57142857142856</ele><time>2026-05-02T08:30:17.175Z</time></trkpt><trkpt lat="44.4062584" lon="10.7264128"><ele>395.8571428571429</ele><time>2026-05-02T08:30:36.222Z</time></trkpt><trkpt lat="44.4062092" lon="10.7264952"><ele>393.1428571428571</ele><time>2026-05-02T08:30:40.189Z</time></trkpt><trkpt lat="44.4061608" lon="10.726577"><ele>390.42857142857144</ele><time>2026-05-02T08:30:43.189Z</time></trkpt><trkpt lat="44.4061147" lon="10.7266373"><ele>387.7142857142857</ele><time>2026-05-02T08:30:55.193Z</time></trkpt><trkpt lat="44.4060609" lon="10.7266869"><ele>385.0</ele><time>2026-05-02T08:31:06.221Z</time></trkpt><trkpt lat="44.4060085" lon="10.7267603"><ele>385.0</ele><time>2026-05-02T08:31:23.19Z</time></trkpt><trkpt lat="44.4059819" lon="10.7268738"><ele>385.0</ele><time>2026-05-02T08:31:27.22Z</time></trkpt><trkpt lat="44.4059773" lon="10.7269619"><ele>385.0</ele><time>2026-05-02T08:31:29.252Z</time></trkpt><trkpt lat="44.4059638" lon="10.7270621"><ele>385.0</ele><time>2026-05-02T08:31:32.219Z</time></trkpt><trkpt lat="44.405935" lon="10.7271605"><ele>385.0</ele><time>2026-05-02T08:31:35.186Z</time></trkpt><trkpt lat="44.405905" lon="10.7272439"><ele>385.0</ele><time>2026-05-02T08:31:38.214Z</time></trkpt><trkpt lat="44.4058542" lon="10.7273043"><ele>385.0</ele><time>2026-05-02T08:31:41.212Z</time></trkpt><trkpt lat="44.4058025" lon="10.7273625"><ele>383.83333333333337</ele><time>2026-05-02T08:31:44.225Z</time></trkpt><trkpt lat="44.4057846" lon="10.7274671"><ele>382.6666666666667</ele><time>2026-05-02T08:31:48.203Z</time></trkpt><trkpt lat="44.4058203" lon="10.7275665"><ele>381.5</ele><time>2026-05-02T08:31:52.186Z</time></trkpt><trkpt lat="44.4058538" lon="10.7276514"><ele>380.33333333333337</ele><time>2026-05-02T08:31:55.212Z</time></trkpt><trkpt lat="44.4058952" lon="10.7277756"><ele>379.1666666666667</ele><time>2026-05-02T08:31:58.181Z</time></trkpt><trkpt lat="44.4058792" lon="10.7278975"><ele>378.0</ele><time>2026-05-02T08:32:01.152Z</time></trkpt><trkpt lat="44.405821" lon="10.7279625"><ele>377.3333333333333</ele><time>2026-05-02T08:32:03.218Z</time></trkpt><trkpt lat="44.4057601" lon="10.7279964"><ele>376.6666666666667</ele><time>2026-05-02T08:32:05.196Z</time></trkpt><trkpt lat="44.4057056" lon="10.7279502"><ele>376.0</ele><time>2026-05-02T08:32:12.213Z</time></trkpt><trkpt lat="44.4056099" lon="10.7278884"><ele>375.33333333333337</ele><time>2026-05-02T08:32:15.204Z</time></trkpt><trkpt lat="44.4055021" lon="10.7278448"><ele>374.6666666666667</ele><time>2026-05-02T08:32:17.178Z</time></trkpt><trkpt lat="44.4054342" lon="10.7278251"><ele>374.0</ele><time>2026-05-02T08:32:18.186Z</time></trkpt><trkpt lat="44.4053673" lon="10.7278049"><ele>374.0</ele><time>2026-05-02T08:32:19.19Z</time></trkpt><trkpt lat="44.4053052" lon="10.7277817"><ele>374.0</ele><time>2026-05-02T08:32:20.2Z</time></trkpt><trkpt lat="44.4052389" lon="10.7277483"><ele>374.0</ele><time>2026-05-02T08:32:21.222Z</time></trkpt><trkpt lat="44.4051733" lon="10.7277005"><ele>374.0</ele><time>2026-05-02T08:32:22.192Z</time></trkpt><trkpt lat="44.4051084" lon="10.7276367"><ele>374.0</ele><time>2026-05-02T08:32:23.213Z</time></trkpt><trkpt lat="44.4050474" lon="10.7275583"><ele>374.0</ele><time>2026-05-02T08:32:24.203Z</time></trkpt><trkpt lat="44.4049933" lon="10.7274702"><ele>373.5</ele><time>2026-05-02T08:32:25.193Z</time></trkpt><trkpt lat="44.4049474" lon="10.7273706"><ele>373.0</ele><time>2026-05-02T08:32:26.174Z</time></trkpt><trkpt lat="44.404914" lon="10.7272641"><ele>372.5</ele><time>2026-05-02T08:32:27.175Z</time></trkpt><trkpt lat="44.4048873" lon="10.7271555"><ele>372.0</ele><time>2026-05-02T08:32:28.18Z</time></trkpt><trkpt lat="44.4048641" lon="10.7270441"><ele>371.5</ele><time>2026-05-02T08:32:29.185Z</time></trkpt><trkpt lat="44.4048424" lon="10.726932"><ele>371.0</ele><time>2026-05-02T08:32:30.181Z</time></trkpt><trkpt lat="44.4048212" lon="10.7268196"><ele>371.0</ele><time>2026-05-02T08:32:31.174Z</time></trkpt><trkpt lat="44.4047975" lon="10.7267061"><ele>371.0</ele><time>2026-05-02T08:32:32.194Z</time></trkpt><trkpt lat="44.4047694" lon="10.726597"><ele>371.0</ele><time>2026-05-02T08:32:33.188Z</time></trkpt><trkpt lat="44.4047292" lon="10.7265016"><ele>371.0</ele><time>2026-05-02T08:32:34.182Z</time></trkpt><trkpt lat="44.4046716" lon="10.7264331"><ele>371.0</ele><time>2026-05-02T08:32:35.199Z</time></trkpt><trkpt lat="44.4045985" lon="10.7263957"><ele>371.0</ele><time>2026-05-02T08:32:36.195Z</time></trkpt><trkpt lat="44.404521" lon="10.7263843"><ele>370.57142857142856</ele><time>2026-05-02T08:32:37.174Z</time></trkpt><trkpt lat="44.4044481" lon="10.7263815"><ele>370.1428571428571</ele><time>2026-05-02T08:32:38.215Z</time></trkpt><trkpt lat="44.4043835" lon="10.7263734"><ele>369.7142857142857</ele><time>2026-05-02T08:32:39.228Z</time></trkpt><trkpt lat="44.4043213" lon="10.7263489"><ele>369.2857142857143</ele><time>2026-05-02T08:32:40.193Z</time></trkpt><trkpt lat="44.4042583" lon="10.7262907"><ele>368.85714285714283</ele><time>2026-05-02T08:32:41.199Z</time></trkpt><trkpt lat="44.4042025" lon="10.7262084"><ele>368.42857142857144</ele><time>2026-05-02T08:32:42.175Z</time></trkpt><trkpt lat="44.4041536" lon="10.7261237"><ele>368.0</ele><time>2026-05-02T08:32:43.214Z</time></trkpt><trkpt lat="44.4040953" lon="10.7260524"><ele>368.0</ele><time>2026-05-02T08:32:44.204Z</time></trkpt><trkpt lat="44.4040226" lon="10.7260021"><ele>368.0</ele><time>2026-05-02T08:32:45.206Z</time></trkpt><trkpt lat="44.4039392" lon="10.7259677"><ele>368.0</ele><time>2026-05-02T08:32:46.18Z</time></trkpt><trkpt lat="44.4038522" lon="10.725935"><ele>368.0</ele><time>2026-05-02T08:32:47.187Z</time></trkpt><trkpt lat="44.4037691" lon="10.7258859"><ele>368.0</ele><time>2026-05-02T08:32:48.199Z</time></trkpt><trkpt lat="44.4036948" lon="10.7258111"><ele>368.0</ele><time>2026-05-02T08:32:49.192Z</time></trkpt><trkpt lat="44.4036257" lon="10.7257165"><ele>366.0</ele><time>2026-05-02T08:32:50.184Z</time></trkpt><trkpt lat="44.403556" lon="10.7256278"><ele>364.0</ele><time>2026-05-02T08:32:51.174Z</time></trkpt><trkpt lat="44.403482" lon="10.7255532"><ele>362.0</ele><time>2026-05-02T08:32:52.177Z</time></trkpt><trkpt lat="44.4034054" lon="10.7254799"><ele>360.0</ele><time>2026-05-02T08:32:53.186Z</time></trkpt><trkpt lat="44.4033327" lon="10.725409"><ele>358.0</ele><time>2026-05-02T08:32:54.209Z</time></trkpt><trkpt lat="44.4032643" lon="10.725339"><ele>358.00000000000006</ele><time>2026-05-02T08:32:55.188Z</time></trkpt><trkpt lat="44.4032061" lon="10.7252666"><ele>358.0</ele><time>2026-05-02T08:32:56.204Z</time></trkpt><trkpt lat="44.4031599" lon="10.7251884"><ele>358.0</ele><time>2026-05-02T08:32:57.199Z</time></trkpt><trkpt lat="44.4031251" lon="10.7251055"><ele>358.0</ele><time>2026-05-02T08:32:58.199Z</time></trkpt><trkpt lat="44.4030971" lon="10.7250204"><ele>358.0</ele><time>2026-05-02T08:32:59.201Z</time></trkpt><trkpt lat="44.4030667" lon="10.7249368"><ele>358.00000000000006</ele><time>2026-05-02T08:33:00.195Z</time></trkpt><trkpt lat="44.4030395" lon="10.7248528"><ele>358.0</ele><time>2026-05-02T08:33:01.195Z</time></trkpt><trkpt lat="44.4029852" lon="10.724709"><ele>357.2</ele><time>2026-05-02T08:33:03.208Z</time></trkpt><trkpt lat="44.4029473" lon="10.7246107"><ele>356.4</ele><time>2026-05-02T08:33:05.161Z</time></trkpt><trkpt lat="44.4028801" lon="10.724591"><ele>355.59999999999997</ele><time>2026-05-02T08:33:08.186Z</time></trkpt><trkpt lat="44.4028034" lon="10.7247228"><ele>354.79999999999995</ele><time>2026-05-02T08:33:10.187Z</time></trkpt><trkpt lat="44.4027411" lon="10.724816"><ele>354.0</ele><time>2026-05-02T08:33:11.19Z</time></trkpt><trkpt lat="44.402664" lon="10.7249007"><ele>354.0</ele><time>2026-05-02T08:33:12.197Z</time></trkpt><trkpt lat="44.4025715" lon="10.7249683"><ele>354.0</ele><time>2026-05-02T08:33:13.183Z</time></trkpt><trkpt lat="44.4024711" lon="10.7250054"><ele>354.0</ele><time>2026-05-02T08:33:14.17Z</time></trkpt><trkpt lat="44.4023639" lon="10.7250098"><ele>354.0</ele><time>2026-05-02T08:33:15.181Z</time></trkpt><trkpt lat="44.4022581" lon="10.7249751"><ele>354.0</ele><time>2026-05-02T08:33:16.202Z</time></trkpt><trkpt lat="44.4021639" lon="10.7249001"><ele>357.0</ele><time>2026-05-02T08:33:17.168Z</time></trkpt><trkpt lat="44.4020804" lon="10.7247942"><ele>360.0</ele><time>2026-05-02T08:33:18.171Z</time></trkpt><trkpt lat="44.4019963" lon="10.724672"><ele>363.0</ele><time>2026-05-02T08:33:19.174Z</time></trkpt><trkpt lat="44.4019075" lon="10.7245496"><ele>366.0</ele><time>2026-05-02T08:33:20.193Z</time></trkpt><trkpt lat="44.4018214" lon="10.7244404"><ele>363.4</ele><time>2026-05-02T08:33:21.186Z</time></trkpt><trkpt lat="44.4017369" lon="10.7243428"><ele>360.8</ele><time>2026-05-02T08:33:22.18Z</time></trkpt><trkpt lat="44.4016523" lon="10.7242567"><ele>358.2</ele><time>2026-05-02T08:33:23.179Z</time></trkpt><trkpt lat="44.4015628" lon="10.7241767"><ele>355.59999999999997</ele><time>2026-05-02T08:33:24.176Z</time></trkpt><trkpt lat="44.4014657" lon="10.7240955"><ele>353.0</ele><time>2026-05-02T08:33:25.181Z</time></trkpt><trkpt lat="44.4013703" lon="10.7240161"><ele>356.0</ele><time>2026-05-02T08:33:26.164Z</time></trkpt><trkpt lat="44.4012792" lon="10.7239425"><ele>359.0</ele><time>2026-05-02T08:33:27.195Z</time></trkpt><trkpt lat="44.4011903" lon="10.7238774"><ele>362.0</ele><time>2026-05-02T08:33:28.204Z</time></trkpt><trkpt lat="44.4010979" lon="10.7238155"><ele>365.0</ele><time>2026-05-02T08:33:29.197Z</time></trkpt><trkpt lat="44.4010026" lon="10.7237524"><ele>368.0</ele><time>2026-05-02T08:33:30.194Z</time></trkpt><trkpt lat="44.400911" lon="10.7236999"><ele>368.0</ele><time>2026-05-02T08:33:31.202Z</time></trkpt><trkpt lat="44.4008199" lon="10.7236712"><ele>368.0</ele><time>2026-05-02T08:33:32.174Z</time></trkpt><trkpt lat="44.4007243" lon="10.7236745"><ele>368.0</ele><time>2026-05-02T08:33:33.189Z</time></trkpt><trkpt lat="44.4006245" lon="10.723713"><ele>368.0</ele><time>2026-05-02T08:33:34.199Z</time></trkpt><trkpt lat="44.4005256" lon="10.7237701"><ele>368.0</ele><time>2026-05-02T08:33:35.191Z</time></trkpt><trkpt lat="44.4004289" lon="10.7238275"><ele>369.4</ele><time>2026-05-02T08:33:36.202Z</time></trkpt><trkpt lat="44.4003286" lon="10.7238744"><ele>370.79999999999995</ele><time>2026-05-02T08:33:37.199Z</time></trkpt><trkpt lat="44.4002279" lon="10.7239059"><ele>372.2</ele><time>2026-05-02T08:33:38.199Z</time></trkpt><trkpt lat="44.4001228" lon="10.7239371"><ele>373.6</ele><time>2026-05-02T08:33:39.171Z</time></trkpt><trkpt lat="44.4000051" lon="10.7239229"><ele>375.0</ele><time>2026-05-02T08:33:40.22Z</time></trkpt><trkpt lat="44.3998786" lon="10.7239035"><ele>375.0</ele><time>2026-05-02T08:33:41.191Z</time></trkpt><trkpt lat="44.3997581" lon="10.723884"><ele>375.0</ele><time>2026-05-02T08:33:42.207Z</time></trkpt><trkpt lat="44.3996397" lon="10.7238652"><ele>375.0</ele><time>2026-05-02T08:33:43.21Z</time></trkpt><trkpt lat="44.3995304" lon="10.7238413"><ele>375.0</ele><time>2026-05-02T08:33:44.194Z</time></trkpt><trkpt lat="44.3994248" lon="10.7238166"><ele>374.75</ele><time>2026-05-02T08:33:45.201Z</time></trkpt><trkpt lat="44.399313" lon="10.7237886"><ele>374.5</ele><time>2026-05-02T08:33:46.189Z</time></trkpt><trkpt lat="44.3991953" lon="10.7237508"><ele>374.25</ele><time>2026-05-02T08:33:47.176Z</time></trkpt><trkpt lat="44.3990804" lon="10.7237077"><ele>374.0</ele><time>2026-05-02T08:33:48.214Z</time></trkpt><trkpt lat="44.3989702" lon="10.7236586"><ele>374.0</ele><time>2026-05-02T08:33:49.202Z</time></trkpt><trkpt lat="44.3988605" lon="10.7235981"><ele>374.0</ele><time>2026-05-02T08:33:50.202Z</time></trkpt><trkpt lat="44.3987478" lon="10.7235282"><ele>374.0</ele><time>2026-05-02T08:33:51.178Z</time></trkpt><trkpt lat="44.3986386" lon="10.7234509"><ele>374.0</ele><time>2026-05-02T08:33:52.189Z</time></trkpt><trkpt lat="44.3985372" lon="10.7233719"><ele>372.4</ele><time>2026-05-02T08:33:53.194Z</time></trkpt><trkpt lat="44.3984405" lon="10.7232927"><ele>370.79999999999995</ele><time>2026-05-02T08:33:54.224Z</time></trkpt><trkpt lat="44.3983483" lon="10.7232177"><ele>369.20000000000005</ele><time>2026-05-02T08:33:55.165Z</time></trkpt><trkpt lat="44.3982641" lon="10.7231457"><ele>367.6</ele><time>2026-05-02T08:33:56.209Z</time></trkpt><trkpt lat="44.3981859" lon="10.7230769"><ele>366.0</ele><time>2026-05-02T08:33:57.247Z</time></trkpt><trkpt lat="44.398114" lon="10.7230124"><ele>366.0</ele><time>2026-05-02T08:33:58.183Z</time></trkpt><trkpt lat="44.398053" lon="10.7229494"><ele>366.0</ele><time>2026-05-02T08:33:59.144Z</time></trkpt><trkpt lat="44.3980004" lon="10.7228847"><ele>366.0</ele><time>2026-05-02T08:34:00.143Z</time></trkpt><trkpt lat="44.3979357" lon="10.7227725"><ele>366.0</ele><time>2026-05-02T08:34:02.166Z</time></trkpt><trkpt lat="44.3978743" lon="10.7226801"><ele>366.0</ele><time>2026-05-02T08:34:04.164Z</time></trkpt><trkpt lat="44.3977889" lon="10.722592"><ele>366.0</ele><time>2026-05-02T08:34:06.148Z</time></trkpt><trkpt lat="44.3977298" lon="10.7225604"><ele>364.7142857142857</ele><time>2026-05-02T08:34:07.174Z</time></trkpt><trkpt lat="44.3976646" lon="10.7225295"><ele>363.42857142857144</ele><time>2026-05-02T08:34:08.191Z</time></trkpt><trkpt lat="44.3976001" lon="10.7225083"><ele>362.1428571428571</ele><time>2026-05-02T08:34:09.188Z</time></trkpt><trkpt lat="44.3975326" lon="10.7224913"><ele>360.8571428571429</ele><time>2026-05-02T08:34:10.198Z</time></trkpt><trkpt lat="44.3974672" lon="10.7224742"><ele>359.57142857142856</ele><time>2026-05-02T08:34:11.193Z</time></trkpt><trkpt lat="44.3974053" lon="10.7224576"><ele>358.2857142857143</ele><time>2026-05-02T08:34:12.173Z</time></trkpt><trkpt lat="44.3972955" lon="10.7224083"><ele>357.0</ele><time>2026-05-02T08:34:14.166Z</time></trkpt><trkpt lat="44.3972071" lon="10.7223704"><ele>356.20000000000005</ele><time>2026-05-02T08:34:16.182Z</time></trkpt><trkpt lat="44.3971116" lon="10.7224353"><ele>355.4</ele><time>2026-05-02T08:34:18.198Z</time></trkpt><trkpt lat="44.397025" lon="10.7225093"><ele>354.6</ele><time>2026-05-02T08:34:20.186Z</time></trkpt><trkpt lat="44.3969342" lon="10.7225908"><ele>353.79999999999995</ele><time>2026-05-02T08:34:22.198Z</time></trkpt><trkpt lat="44.3968518" lon="10.7226722"><ele>353.0</ele><time>2026-05-02T08:34:24.194Z</time></trkpt><trkpt lat="44.3967803" lon="10.7227242"><ele>353.0</ele><time>2026-05-02T08:34:26.193Z</time></trkpt><trkpt lat="44.3966994" lon="10.7227143"><ele>353.0</ele><time>2026-05-02T08:34:29.161Z</time></trkpt><trkpt lat="44.3966377" lon="10.7226761"><ele>353.0</ele><time>2026-05-02T08:34:31.202Z</time></trkpt><trkpt lat="44.3965765" lon="10.7226282"><ele>353.0</ele><time>2026-05-02T08:34:33.198Z</time></trkpt><trkpt lat="44.3965276" lon="10.7225411"><ele>353.0</ele><time>2026-05-02T08:34:35.188Z</time></trkpt><trkpt lat="44.3965297" lon="10.7224322"><ele>353.0</ele><time>2026-05-02T08:34:37.198Z</time></trkpt><trkpt lat="44.3965457" lon="10.7223175"><ele>353.0</ele><time>2026-05-02T08:34:39.218Z</time></trkpt><trkpt lat="44.3965147" lon="10.7222313"><ele>353.0</ele><time>2026-05-02T08:34:41.166Z</time></trkpt><trkpt lat="44.3964272" lon="10.7221449"><ele>353.0</ele><time>2026-05-02T08:34:43.189Z</time></trkpt><trkpt lat="44.3963203" lon="10.722044"><ele>353.0</ele><time>2026-05-02T08:34:45.212Z</time></trkpt><trkpt lat="44.3962402" lon="10.7219498"><ele>353.0</ele><time>2026-05-02T08:34:47.182Z</time></trkpt><trkpt lat="44.3962175" lon="10.7218414"><ele>353.59999999999997</ele><time>2026-05-02T08:34:49.2Z</time></trkpt><trkpt lat="44.396261" lon="10.7217222"><ele>354.2</ele><time>2026-05-02T08:34:51.201Z</time></trkpt><trkpt lat="44.3963435" lon="10.7216271"><ele>354.8</ele><time>2026-05-02T08:34:53.17Z</time></trkpt><trkpt lat="44.3963621" lon="10.7214901"><ele>355.4</ele><time>2026-05-02T08:34:55.207Z</time></trkpt><trkpt lat="44.3963173" lon="10.7213485"><ele>356.0</ele><time>2026-05-02T08:34:57.22Z</time></trkpt><trkpt lat="44.3963092" lon="10.7212534"><ele>356.0</ele><time>2026-05-02T08:34:58.218Z</time></trkpt><trkpt lat="44.3963192" lon="10.7211493"><ele>356.0</ele><time>2026-05-02T08:34:59.204Z</time></trkpt><trkpt lat="44.3963264" lon="10.721055"><ele>356.0</ele><time>2026-05-02T08:35:00.186Z</time></trkpt><trkpt lat="44.396328" lon="10.7209574"><ele>356.0</ele><time>2026-05-02T08:35:01.195Z</time></trkpt><trkpt lat="44.3963367" lon="10.7207858"><ele>356.0</ele><time>2026-05-02T08:35:03.234Z</time></trkpt><trkpt lat="44.3963665" lon="10.7206228"><ele>358.6</ele><time>2026-05-02T08:35:05.18Z</time></trkpt><trkpt lat="44.3964074" lon="10.7204985"><ele>361.20000000000005</ele><time>2026-05-02T08:35:07.189Z</time></trkpt><trkpt lat="44.3964493" lon="10.7203972"><ele>363.79999999999995</ele><time>2026-05-02T08:35:09.192Z</time></trkpt><trkpt lat="44.3964819" lon="10.7203102"><ele>366.4</ele><time>2026-05-02T08:35:11.205Z</time></trkpt><trkpt lat="44.3964401" lon="10.7202161"><ele>369.0</ele><time>2026-05-02T08:35:14.206Z</time></trkpt><trkpt lat="44.3963173" lon="10.7201864"><ele>375.79999999999995</ele><time>2026-05-02T08:35:16.193Z</time></trkpt><trkpt lat="44.3961952" lon="10.7201635"><ele>382.59999999999997</ele><time>2026-05-02T08:35:18.195Z</time></trkpt><trkpt lat="44.3961347" lon="10.7201242"><ele>389.4</ele><time>2026-05-02T08:35:19.171Z</time></trkpt><trkpt lat="44.3960785" lon="10.7200817"><ele>396.2</ele><time>2026-05-02T08:35:20.181Z</time></trkpt><trkpt lat="44.3959827" lon="10.7200137"><ele>403.0</ele><time>2026-05-02T08:35:22.175Z</time></trkpt><trkpt lat="44.3958744" lon="10.7199711"><ele>403.0</ele><time>2026-05-02T08:35:24.187Z</time></trkpt><trkpt lat="44.3957589" lon="10.7199477"><ele>403.0</ele><time>2026-05-02T08:35:26.193Z</time></trkpt><trkpt lat="44.3956515" lon="10.7199384"><ele>403.0</ele><time>2026-05-02T08:35:28.175Z</time></trkpt><trkpt lat="44.3955431" lon="10.7199404"><ele>403.0</ele><time>2026-05-02T08:35:30.178Z</time></trkpt><trkpt lat="44.3954546" lon="10.7199394"><ele>403.0</ele><time>2026-05-02T08:35:32.182Z</time></trkpt><trkpt lat="44.3953518" lon="10.7199343"><ele>404.2</ele><time>2026-05-02T08:35:34.229Z</time></trkpt><trkpt lat="44.395252" lon="10.7199222"><ele>405.4</ele><time>2026-05-02T08:35:36.215Z</time></trkpt><trkpt lat="44.3951296" lon="10.7199386"><ele>406.59999999999997</ele><time>2026-05-02T08:35:38.209Z</time></trkpt><trkpt lat="44.3950231" lon="10.719981"><ele>407.79999999999995</ele><time>2026-05-02T08:35:40.196Z</time></trkpt><trkpt lat="44.394922" lon="10.7200201"><ele>409.0</ele><time>2026-05-02T08:35:42.195Z</time></trkpt><trkpt lat="44.3948163" lon="10.720046"><ele>409.00000000000006</ele><time>2026-05-02T08:35:44.204Z</time></trkpt><trkpt lat="44.39473" lon="10.7200768"><ele>409.0</ele><time>2026-05-02T08:35:46.178Z</time></trkpt><trkpt lat="44.3946615" lon="10.7200586"><ele>409.0</ele><time>2026-05-02T08:36:10.174Z</time></trkpt><trkpt lat="44.3946052" lon="10.7200006"><ele>409.0</ele><time>2026-05-02T08:36:26.2Z</time></trkpt><trkpt lat="44.3945621" lon="10.7199094"><ele>409.00000000000006</ele><time>2026-05-02T08:36:28.203Z</time></trkpt><trkpt lat="44.3945534" lon="10.7197964"><ele>409.0</ele><time>2026-05-02T08:36:31.173Z</time></trkpt><trkpt lat="44.394641" lon="10.7198281"><ele>409.00000000000006</ele><time>2026-05-02T08:36:34.179Z</time></trkpt><trkpt lat="44.3946517" lon="10.7197284"><ele>409.0</ele><time>2026-05-02T08:36:38.212Z</time></trkpt><trkpt lat="44.3946788" lon="10.7196296"><ele>409.0</ele><time>2026-05-02T08:36:43.202Z</time></trkpt><trkpt lat="44.3947076" lon="10.7195421"><ele>409.0</ele><time>2026-05-02T08:36:45.221Z</time></trkpt><trkpt lat="44.3946379" lon="10.7194401"><ele>409.00000000000006</ele><time>2026-05-02T08:36:47.205Z</time></trkpt><trkpt lat="44.3946403" lon="10.7193007"><ele>409.0</ele><time>2026-05-02T08:36:49.227Z</time></trkpt><trkpt lat="44.3946557" lon="10.7192077"><ele>414.00000000000006</ele><time>2026-05-02T08:36:51.201Z</time></trkpt><trkpt lat="44.3946968" lon="10.7191313"><ele>419.0</ele><time>2026-05-02T08:36:54.206Z</time></trkpt><trkpt lat="44.3947832" lon="10.7191555"><ele>424.0</ele><time>2026-05-02T08:36:57.21Z</time></trkpt><trkpt lat="44.3948281" lon="10.7192386"><ele>429.0</ele><time>2026-05-02T08:37:00.186Z</time></trkpt><trkpt lat="44.3948703" lon="10.7191274"><ele>434.00000000000006</ele><time>2026-05-02T08:37:03.227Z</time></trkpt><trkpt lat="44.3949138" lon="10.7190349"><ele>439.0</ele><time>2026-05-02T08:37:20.195Z</time></trkpt><trkpt lat="44.3949489" lon="10.7189582"><ele>439.00000000000006</ele><time>2026-05-02T08:37:24.266Z</time></trkpt><trkpt lat="44.3949982" lon="10.7188741"><ele>439.0</ele><time>2026-05-02T08:37:27.195Z</time></trkpt><trkpt lat="44.3950299" lon="10.718796"><ele>439.0</ele><time>2026-05-02T08:37:29.206Z</time></trkpt><trkpt lat="44.3949818" lon="10.7186478"><ele>439.0</ele><time>2026-05-02T08:37:32.192Z</time></trkpt><trkpt lat="44.3949493" lon="10.7185561"><ele>439.00000000000006</ele><time>2026-05-02T08:37:34.198Z</time></trkpt><trkpt lat="44.3949439" lon="10.7184597"><ele>439.0</ele><time>2026-05-02T08:37:36.211Z</time></trkpt><trkpt lat="44.3949538" lon="10.7183354"><ele>443.00000000000006</ele><time>2026-05-02T08:37:39.187Z</time></trkpt><trkpt lat="44.3949755" lon="10.7182032"><ele>447.0</ele><time>2026-05-02T08:38:45.207Z</time></trkpt><trkpt lat="44.394974" lon="10.7180658"><ele>451.0</ele><time>2026-05-02T08:38:48.214Z</time></trkpt><trkpt lat="44.3949655" lon="10.7179694"><ele>455.0</ele><time>2026-05-02T08:38:50.207Z</time></trkpt><trkpt lat="44.3949505" lon="10.7178654"><ele>459.00000000000006</ele><time>2026-05-02T08:38:52.202Z</time></trkpt><trkpt lat="44.3949444" lon="10.7177751"><ele>463.0</ele><time>2026-05-02T08:38:54.226Z</time></trkpt><trkpt lat="44.3949469" lon="10.7176824"><ele>465.57142857142856</ele><time>2026-05-02T08:38:56.187Z</time></trkpt><trkpt lat="44.3949555" lon="10.7175814"><ele>468.1428571428571</ele><time>2026-05-02T08:38:59.212Z</time></trkpt><trkpt lat="44.3949737" lon="10.7174882"><ele>470.71428571428567</ele><time>2026-05-02T08:39:02.206Z</time></trkpt><trkpt lat="44.3950194" lon="10.7174027"><ele>473.2857142857142</ele><time>2026-05-02T08:39:05.228Z</time></trkpt><trkpt lat="44.3950124" lon="10.7173"><ele>475.85714285714283</ele><time>2026-05-02T08:39:07.17Z</time></trkpt><trkpt lat="44.3950124" lon="10.7171991"><ele>478.42857142857133</ele><time>2026-05-02T08:39:09.195Z</time></trkpt><trkpt lat="44.3950314" lon="10.7171034"><ele>480.99999999999994</ele><time>2026-05-02T08:39:16.234Z</time></trkpt><trkpt lat="44.3950613" lon="10.7170225"><ele>483.83333333333337</ele><time>2026-05-02T08:39:19.195Z</time></trkpt><trkpt lat="44.3950534" lon="10.7168744"><ele>486.6666666666667</ele><time>2026-05-02T08:39:22.159Z</time></trkpt><trkpt lat="44.3950448" lon="10.7167565"><ele>489.5</ele><time>2026-05-02T08:39:24.15Z</time></trkpt><trkpt lat="44.3950408" lon="10.7166575"><ele>492.33333333333337</ele><time>2026-05-02T08:39:26.196Z</time></trkpt><trkpt lat="44.3950532" lon="10.7165614"><ele>495.1666666666667</ele><time>2026-05-02T08:39:28.192Z</time></trkpt><trkpt lat="44.3950593" lon="10.7164461"><ele>498.0</ele><time>2026-05-02T08:39:30.213Z</time></trkpt><trkpt lat="44.3950457" lon="10.7163493"><ele>498.0</ele><time>2026-05-02T08:39:32.185Z</time></trkpt><trkpt lat="44.3950273" lon="10.7162104"><ele>497.99999999999994</ele><time>2026-05-02T08:39:34.189Z</time></trkpt><trkpt lat="44.3950248" lon="10.7160712"><ele>497.99999999999994</ele><time>2026-05-02T08:39:36.186Z</time></trkpt><trkpt lat="44.3950286" lon="10.7159419"><ele>498.0</ele><time>2026-05-02T08:39:38.248Z</time></trkpt><trkpt lat="44.3950426" lon="10.7158331"><ele>498.0</ele><time>2026-05-02T08:39:40.217Z</time></trkpt><trkpt lat="44.3950894" lon="10.7157078"><ele>500.0</ele><time>2026-05-02T08:39:43.202Z</time></trkpt><trkpt lat="44.395139" lon="10.715619"><ele>501.99999999999994</ele><time>2026-05-02T08:39:45.2Z</time></trkpt><trkpt lat="44.395168" lon="10.7155265"><ele>503.99999999999994</ele><time>2026-05-02T08:39:47.219Z</time></trkpt><trkpt lat="44.3951652" lon="10.7153869"><ele>506.0</ele><time>2026-05-02T08:39:49.229Z</time></trkpt><trkpt lat="44.3952077" lon="10.7152261"><ele>508.0</ele><time>2026-05-02T08:39:51.19Z</time></trkpt><trkpt lat="44.3952739" lon="10.7150739"><ele>511.50000000000006</ele><time>2026-05-02T08:39:53.199Z</time></trkpt><trkpt lat="44.3953223" lon="10.7149745"><ele>515.0</ele><time>2026-05-02T08:39:55.194Z</time></trkpt><trkpt lat="44.3953308" lon="10.7148772"><ele>518.5</ele><time>2026-05-02T08:39:57.203Z</time></trkpt><trkpt lat="44.395313" lon="10.7147687"><ele>522.0</ele><time>2026-05-02T08:39:59.207Z</time></trkpt><trkpt lat="44.3953006" lon="10.71466"><ele>525.5</ele><time>2026-05-02T08:40:02.153Z</time></trkpt><trkpt lat="44.3951963" lon="10.7146517"><ele>529.0</ele><time>2026-05-02T08:40:04.199Z</time></trkpt><trkpt lat="44.3950894" lon="10.714624"><ele>529.0</ele><time>2026-05-02T08:40:06.22Z</time></trkpt><trkpt lat="44.3950402" lon="10.7145476"><ele>529.0</ele><time>2026-05-02T08:40:09.14Z</time></trkpt><trkpt lat="44.3951124" lon="10.7144581"><ele>529.0</ele><time>2026-05-02T08:40:12.228Z</time></trkpt><trkpt lat="44.3951757" lon="10.7143719"><ele>529.0</ele><time>2026-05-02T08:40:14.179Z</time></trkpt><trkpt lat="44.3951258" lon="10.7142959"><ele>529.0</ele><time>2026-05-02T08:40:17.217Z</time></trkpt><trkpt lat="44.3950289" lon="10.7142977"><ele>529.0</ele><time>2026-05-02T08:40:19.177Z</time></trkpt><trkpt lat="44.394967" lon="10.7142129"><ele>533.1666666666667</ele><time>2026-05-02T08:40:22.182Z</time></trkpt><trkpt lat="44.3950188" lon="10.7141098"><ele>537.3333333333334</ele><time>2026-05-02T08:40:24.223Z</time></trkpt><trkpt lat="44.3950731" lon="10.7140535"><ele>541.5</ele><time>2026-05-02T08:40:25.172Z</time></trkpt><trkpt lat="44.3951233" lon="10.7139956"><ele>545.6666666666666</ele><time>2026-05-02T08:40:26.189Z</time></trkpt><trkpt lat="44.39521" lon="10.7138964"><ele>549.8333333333333</ele><time>2026-05-02T08:40:28.192Z</time></trkpt><trkpt lat="44.3952708" lon="10.7137913"><ele>554.0</ele><time>2026-05-02T08:40:30.243Z</time></trkpt><trkpt lat="44.3952559" lon="10.7136556"><ele>558.8</ele><time>2026-05-02T08:40:32.143Z</time></trkpt><trkpt lat="44.3951879" lon="10.7135631"><ele>563.5999999999999</ele><time>2026-05-02T08:40:34.202Z</time></trkpt><trkpt lat="44.3950688" lon="10.7135717"><ele>568.4</ele><time>2026-05-02T08:40:36.194Z</time></trkpt><trkpt lat="44.3949429" lon="10.7135595"><ele>573.1999999999999</ele><time>2026-05-02T08:40:38.211Z</time></trkpt><trkpt lat="44.3948528" lon="10.7134909"><ele>578.0</ele><time>2026-05-02T08:40:40.196Z</time></trkpt><trkpt lat="44.394792" lon="10.7134033"><ele>578.0</ele><time>2026-05-02T08:40:42.208Z</time></trkpt><trkpt lat="44.3947684" lon="10.7133008"><ele>578.0</ele><time>2026-05-02T08:40:44.22Z</time></trkpt><trkpt lat="44.3947719" lon="10.7131426"><ele>578.0</ele><time>2026-05-02T08:40:46.203Z</time></trkpt><trkpt lat="44.3947864" lon="10.7130547"><ele>578.0</ele><time>2026-05-02T08:40:47.196Z</time></trkpt><trkpt lat="44.3947908" lon="10.7129391"><ele>578.0</ele><time>2026-05-02T08:40:49.165Z</time></trkpt><trkpt lat="44.3947733" lon="10.7128155"><ele>578.0</ele><time>2026-05-02T08:40:56.222Z</time></trkpt><trkpt lat="44.394842" lon="10.7127534"><ele>578.0</ele><time>2026-05-02T08:40:59.215Z</time></trkpt><trkpt lat="44.3948908" lon="10.7128168"><ele>578.0</ele><time>2026-05-02T08:41:01.225Z</time></trkpt><trkpt lat="44.3949677" lon="10.7127757"><ele>578.0</ele><time>2026-05-02T08:41:03.195Z</time></trkpt><trkpt lat="44.395033" lon="10.7127417"><ele>578.0</ele><time>2026-05-02T08:41:05.181Z</time></trkpt><trkpt lat="44.3951141" lon="10.7126973"><ele>578.0</ele><time>2026-05-02T08:41:07.211Z</time></trkpt><trkpt lat="44.3951988" lon="10.7126353"><ele>578.0</ele><time>2026-05-02T08:41:09.186Z</time></trkpt><trkpt lat="44.3952852" lon="10.7126438"><ele>580.5</ele><time>2026-05-02T08:41:11.214Z</time></trkpt><trkpt lat="44.3953511" lon="10.7126234"><ele>583.0</ele><time>2026-05-02T08:41:13.194Z</time></trkpt><trkpt lat="44.3954053" lon="10.7125392"><ele>585.5</ele><time>2026-05-02T08:41:15.162Z</time></trkpt><trkpt lat="44.3954493" lon="10.7124382"><ele>588.0</ele><time>2026-05-02T08:41:17.192Z</time></trkpt><trkpt lat="44.3955255" lon="10.7123294"><ele>590.5</ele><time>2026-05-02T08:41:19.218Z</time></trkpt><trkpt lat="44.3955464" lon="10.7122413"><ele>593.0</ele><time>2026-05-02T08:41:20.229Z</time></trkpt><trkpt lat="44.3955556" lon="10.7120891"><ele>594.0</ele><time>2026-05-02T08:41:22.207Z</time></trkpt><trkpt lat="44.3955744" lon="10.7119389"><ele>595.0</ele><time>2026-05-02T08:41:24.184Z</time></trkpt><trkpt lat="44.395625" lon="10.7118225"><ele>596.0</ele><time>2026-05-02T08:41:26.231Z</time></trkpt><trkpt lat="44.3956481" lon="10.711691"><ele>597.0</ele><time>2026-05-02T08:41:28.171Z</time></trkpt><trkpt lat="44.3956527" lon="10.7115979"><ele>598.0</ele><time>2026-05-02T08:41:30.156Z</time></trkpt><trkpt lat="44.3956906" lon="10.7115034"><ele>599.0</ele><time>2026-05-02T08:41:32.184Z</time></trkpt><trkpt lat="44.395753" lon="10.7114236"><ele>601.0</ele><time>2026-05-02T08:41:34.174Z</time></trkpt><trkpt lat="44.3957669" lon="10.7113289"><ele>603.0</ele><time>2026-05-02T08:41:36.206Z</time></trkpt><trkpt lat="44.3957815" lon="10.7112424"><ele>605.0</ele><time>2026-05-02T08:41:38.18Z</time></trkpt><trkpt lat="44.3958381" lon="10.7111696"><ele>607.0</ele><time>2026-05-02T08:41:40.192Z</time></trkpt><trkpt lat="44.3959336" lon="10.7111007"><ele>609.0</ele><time>2026-05-02T08:41:42.195Z</time></trkpt><trkpt lat="44.3960363" lon="10.7110578"><ele>611.0</ele><time>2026-05-02T08:41:44.21Z</time></trkpt><trkpt lat="44.396117" lon="10.7110429"><ele>611.0</ele><time>2026-05-02T08:41:46.205Z</time></trkpt><trkpt lat="44.3961841" lon="10.7111231"><ele>611.0</ele><time>2026-05-02T08:41:49.205Z</time></trkpt><trkpt lat="44.3962249" lon="10.7112445"><ele>611.0</ele><time>2026-05-02T08:41:51.17Z</time></trkpt><trkpt lat="44.3962545" lon="10.7113228"><ele>611.0</ele><time>2026-05-02T08:41:53.187Z</time></trkpt><trkpt lat="44.3963054" lon="10.7114364"><ele>611.0</ele><time>2026-05-02T08:41:56.19Z</time></trkpt><trkpt lat="44.3963362" lon="10.711515"><ele>611.0</ele><time>2026-05-02T08:41:58.216Z</time></trkpt><trkpt lat="44.3963942" lon="10.7115859"><ele>613.0</ele><time>2026-05-02T08:42:00.214Z</time></trkpt><trkpt lat="44.3964526" lon="10.7116411"><ele>615.0</ele><time>2026-05-02T08:42:02.185Z</time></trkpt><trkpt lat="44.3965124" lon="10.7117496"><ele>617.0</ele><time>2026-05-02T08:42:05.184Z</time></trkpt><trkpt lat="44.3965606" lon="10.7118239"><ele>619.0</ele><time>2026-05-02T08:42:07.157Z</time></trkpt><trkpt lat="44.3966183" lon="10.7118863"><ele>621.0</ele><time>2026-05-02T08:42:09.151Z</time></trkpt><trkpt lat="44.3966995" lon="10.7119449"><ele>623.0</ele><time>2026-05-02T08:42:11.229Z</time></trkpt><trkpt lat="44.3967785" lon="10.7120213"><ele>623.0</ele><time>2026-05-02T08:42:13.197Z</time></trkpt><trkpt lat="44.3968367" lon="10.7120908"><ele>623.0</ele><time>2026-05-02T08:42:15.174Z</time></trkpt><trkpt lat="44.3968862" lon="10.7121866"><ele>623.0</ele><time>2026-05-02T08:42:18.183Z</time></trkpt><trkpt lat="44.3969539" lon="10.7121652"><ele>623.0</ele><time>2026-05-02T08:42:21.195Z</time></trkpt><trkpt lat="44.3969784" lon="10.7120646"><ele>623.0</ele><time>2026-05-02T08:42:24.215Z</time></trkpt><trkpt lat="44.3969573" lon="10.7119586"><ele>623.0</ele><time>2026-05-02T08:42:27.184Z</time></trkpt><trkpt lat="44.3969104" lon="10.7118376"><ele>625.6666666666666</ele><time>2026-05-02T08:42:30.217Z</time></trkpt><trkpt lat="44.3969145" lon="10.7117361"><ele>628.3333333333333</ele><time>2026-05-02T08:42:33.217Z</time></trkpt><trkpt lat="44.3969318" lon="10.711622"><ele>631.0</ele><time>2026-05-02T08:42:35.143Z</time></trkpt><trkpt lat="44.3969556" lon="10.7114816"><ele>633.6666666666666</ele><time>2026-05-02T08:42:38.23Z</time></trkpt><trkpt lat="44.3969709" lon="10.7113841"><ele>636.3333333333334</ele><time>2026-05-02T08:42:40.177Z</time></trkpt><trkpt lat="44.3969618" lon="10.7112809"><ele>639.0</ele><time>2026-05-02T08:42:42.206Z</time></trkpt><trkpt lat="44.3969521" lon="10.7111911"><ele>639.0000000000001</ele><time>2026-05-02T08:42:44.209Z</time></trkpt><trkpt lat="44.3969739" lon="10.7110852"><ele>639.0</ele><time>2026-05-02T08:42:46.181Z</time></trkpt><trkpt lat="44.3969966" lon="10.7109987"><ele>639.0</ele><time>2026-05-02T08:42:48.199Z</time></trkpt><trkpt lat="44.3970014" lon="10.7108999"><ele>639.0</ele><time>2026-05-02T08:42:51.188Z</time></trkpt><trkpt lat="44.3969672" lon="10.7108162"><ele>639.0</ele><time>2026-05-02T08:42:53.199Z</time></trkpt><trkpt lat="44.3969311" lon="10.7107088"><ele>639.0000000000001</ele><time>2026-05-02T08:42:55.21Z</time></trkpt><trkpt lat="44.3969246" lon="10.7105974"><ele>639.0</ele><time>2026-05-02T08:42:57.182Z</time></trkpt><trkpt lat="44.3969495" lon="10.7104899"><ele>641.0</ele><time>2026-05-02T08:42:59.215Z</time></trkpt><trkpt lat="44.3969259" lon="10.7103703"><ele>643.0</ele><time>2026-05-02T08:43:02.214Z</time></trkpt><trkpt lat="44.3969354" lon="10.7102747"><ele>645.0</ele><time>2026-05-02T08:43:04.188Z</time></trkpt><trkpt lat="44.3969922" lon="10.7101765"><ele>647.0</ele><time>2026-05-02T08:43:06.213Z</time></trkpt><trkpt lat="44.3970419" lon="10.7100797"><ele>649.0</ele><time>2026-05-02T08:43:08.203Z</time></trkpt><trkpt lat="44.3970684" lon="10.7099409"><ele>651.0</ele><time>2026-05-02T08:43:10.204Z</time></trkpt><trkpt lat="44.3970795" lon="10.7098145"><ele>652.8</ele><time>2026-05-02T08:43:12.204Z</time></trkpt><trkpt lat="44.3970638" lon="10.7096905"><ele>654.5999999999999</ele><time>2026-05-02T08:43:14.196Z</time></trkpt><trkpt lat="44.3970442" lon="10.7095598"><ele>656.4</ele><time>2026-05-02T08:43:16.2Z</time></trkpt><trkpt lat="44.3970417" lon="10.7094318"><ele>658.2</ele><time>2026-05-02T08:43:18.206Z</time></trkpt><trkpt lat="44.3970115" lon="10.709276"><ele>660.0</ele><time>2026-05-02T08:43:20.213Z</time></trkpt><trkpt lat="44.396998" lon="10.7091892"><ele>661.0</ele><time>2026-05-02T08:43:22.193Z</time></trkpt><trkpt lat="44.3969836" lon="10.7090709"><ele>662.0</ele><time>2026-05-02T08:43:24.178Z</time></trkpt><trkpt lat="44.3969575" lon="10.7089307"><ele>663.0</ele><time>2026-05-02T08:43:26.2Z</time></trkpt><trkpt lat="44.3969354" lon="10.7088421"><ele>664.0</ele><time>2026-05-02T08:43:27.198Z</time></trkpt><trkpt lat="44.3969025" lon="10.708756"><ele>665.0</ele><time>2026-05-02T08:43:28.212Z</time></trkpt><trkpt lat="44.3968681" lon="10.7086739"><ele>666.0</ele><time>2026-05-02T08:43:29.181Z</time></trkpt><trkpt lat="44.3968127" lon="10.7085613"><ele>668.8333333333334</ele><time>2026-05-02T08:43:31.207Z</time></trkpt><trkpt lat="44.3967271" lon="10.70847"><ele>671.6666666666666</ele><time>2026-05-02T08:43:33.198Z</time></trkpt><trkpt lat="44.3966704" lon="10.7084261"><ele>674.5</ele><time>2026-05-02T08:43:34.202Z</time></trkpt><trkpt lat="44.3965873" lon="10.7083618"><ele>677.3333333333333</ele><time>2026-05-02T08:43:36.241Z</time></trkpt><trkpt lat="44.3965066" lon="10.7083096"><ele>680.1666666666666</ele><time>2026-05-02T08:43:38.208Z</time></trkpt><trkpt lat="44.3964304" lon="10.7082712"><ele>683.0</ele><time>2026-05-02T08:43:40.206Z</time></trkpt><trkpt lat="44.3963474" lon="10.7082179"><ele>681.0</ele><time>2026-05-02T08:43:42.19Z</time></trkpt><trkpt lat="44.3962643" lon="10.7081506"><ele>679.0</ele><time>2026-05-02T08:43:44.213Z</time></trkpt><trkpt lat="44.3961986" lon="10.7080922"><ele>677.0</ele><time>2026-05-02T08:43:46.209Z</time></trkpt><trkpt lat="44.3961341" lon="10.708001"><ele>675.0</ele><time>2026-05-02T08:43:48.207Z</time></trkpt><trkpt lat="44.3960774" lon="10.7079302"><ele>673.0</ele><time>2026-05-02T08:43:51.193Z</time></trkpt><trkpt lat="44.3960173" lon="10.7078747"><ele>671.0</ele><time>2026-05-02T08:51:54.187Z</time></trkpt><trkpt lat="44.3959269" lon="10.7078243"><ele>671.0</ele><time>2026-05-02T08:52:02.2Z</time></trkpt><trkpt lat="44.3958526" lon="10.7077884"><ele>671.0</ele><time>2026-05-02T08:52:04.197Z</time></trkpt><trkpt lat="44.3957726" lon="10.7077595"><ele>671.0</ele><time>2026-05-02T08:52:06.2Z</time></trkpt><trkpt lat="44.3956887" lon="10.7077356"><ele>671.0</ele><time>2026-05-02T08:52:08.196Z</time></trkpt><trkpt lat="44.3956148" lon="10.7077348"><ele>671.0</ele><time>2026-05-02T08:52:10.212Z</time></trkpt><trkpt lat="44.3955498" lon="10.7077772"><ele>671.0</ele><time>2026-05-02T08:52:12.185Z</time></trkpt><trkpt lat="44.3954927" lon="10.7078175"><ele>669.1428571428571</ele><time>2026-05-02T08:52:14.184Z</time></trkpt><trkpt lat="44.3954294" lon="10.7077767"><ele>667.2857142857143</ele><time>2026-05-02T08:52:17.154Z</time></trkpt><trkpt lat="44.3954422" lon="10.7076804"><ele>665.4285714285714</ele><time>2026-05-02T08:52:21.139Z</time></trkpt><trkpt lat="44.3953728" lon="10.7076847"><ele>663.5714285714286</ele><time>2026-05-02T08:52:25.196Z</time></trkpt><trkpt lat="44.3953156" lon="10.7077751"><ele>661.7142857142858</ele><time>2026-05-02T08:52:28.172Z</time></trkpt><trkpt lat="44.3952597" lon="10.7078402"><ele>659.8571428571429</ele><time>2026-05-02T08:52:31.212Z</time></trkpt><trkpt lat="44.3951893" lon="10.707855"><ele>658.0</ele><time>2026-05-02T08:52:34.2Z</time></trkpt><trkpt lat="44.3951284" lon="10.7079059"><ele>658.0</ele><time>2026-05-02T08:52:38.215Z</time></trkpt><trkpt lat="44.3950465" lon="10.7078991"><ele>658.0</ele><time>2026-05-02T08:52:41.221Z</time></trkpt><trkpt lat="44.3949761" lon="10.7078621"><ele>658.0</ele><time>2026-05-02T08:52:44.248Z</time></trkpt><trkpt lat="44.3949367" lon="10.7077595"><ele>658.0</ele><time>2026-05-02T08:52:47.206Z</time></trkpt><trkpt lat="44.3949075" lon="10.7076784"><ele>658.0</ele><time>2026-05-02T08:52:49.178Z</time></trkpt><trkpt lat="44.3948826" lon="10.7075645"><ele>658.0</ele><time>2026-05-02T08:52:52.174Z</time></trkpt><trkpt lat="44.3948432" lon="10.7074723"><ele>658.0</ele><time>2026-05-02T08:52:55.187Z</time></trkpt><trkpt lat="44.3947795" lon="10.7074557"><ele>658.0</ele><time>2026-05-02T08:52:59.221Z</time></trkpt><trkpt lat="44.3947037" lon="10.7074952"><ele>658.0</ele><time>2026-05-02T08:53:06.248Z</time></trkpt><trkpt lat="44.3946314" lon="10.7074527"><ele>658.0</ele><time>2026-05-02T08:53:12.186Z</time></trkpt><trkpt lat="44.3945699" lon="10.7073848"><ele>658.0</ele><time>2026-05-02T08:53:16.185Z</time></trkpt><trkpt lat="44.3944922" lon="10.7073789"><ele>658.0</ele><time>2026-05-02T08:53:20.153Z</time></trkpt><trkpt lat="44.3944216" lon="10.7073386"><ele>653.3333333333334</ele><time>2026-05-02T08:53:23.172Z</time></trkpt><trkpt lat="44.3943517" lon="10.707295"><ele>648.6666666666667</ele><time>2026-05-02T08:53:26.201Z</time></trkpt><trkpt lat="44.3942707" lon="10.7072575"><ele>644.0</ele><time>2026-05-02T08:53:28.23Z</time></trkpt><trkpt lat="44.3941923" lon="10.7072295"><ele>639.3333333333334</ele><time>2026-05-02T08:53:30.155Z</time></trkpt><trkpt lat="44.3941097" lon="10.7072275"><ele>634.6666666666666</ele><time>2026-05-02T08:53:45.243Z</time></trkpt><trkpt lat="44.3940365" lon="10.707245"><ele>630.0</ele><time>2026-05-02T08:53:47.192Z</time></trkpt><trkpt lat="44.3939502" lon="10.7072498"><ele>630.0</ele><time>2026-05-02T08:53:49.208Z</time></trkpt><trkpt lat="44.3938484" lon="10.7072441"><ele>630.0</ele><time>2026-05-02T08:53:51.181Z</time></trkpt><trkpt lat="44.3937277" lon="10.7072158"><ele>630.0</ele><time>2026-05-02T08:53:53.197Z</time></trkpt><trkpt lat="44.39362" lon="10.7071518"><ele>630.0</ele><time>2026-05-02T08:53:55.222Z</time></trkpt><trkpt lat="44.3935187" lon="10.7070805"><ele>626.0</ele><time>2026-05-02T08:53:57.21Z</time></trkpt><trkpt lat="44.3934082" lon="10.7070332"><ele>622.0</ele><time>2026-05-02T08:53:59.198Z</time></trkpt><trkpt lat="44.393306" lon="10.7069895"><ele>618.0</ele><time>2026-05-02T08:54:01.2Z</time></trkpt><trkpt lat="44.3932045" lon="10.7069117"><ele>614.0</ele><time>2026-05-02T08:54:03.15Z</time></trkpt><trkpt lat="44.3931012" lon="10.706831"><ele>613.8</ele><time>2026-05-02T08:54:05.216Z</time></trkpt><trkpt lat="44.3929951" lon="10.7067514"><ele>613.5999999999999</ele><time>2026-05-02T08:54:07.241Z</time></trkpt><trkpt lat="44.392916" lon="10.706644"><ele>613.4</ele><time>2026-05-02T08:54:09.207Z</time></trkpt><trkpt lat="44.3928402" lon="10.7065471"><ele>613.1999999999999</ele><time>2026-05-02T08:54:11.18Z</time></trkpt><trkpt lat="44.3927479" lon="10.7065109"><ele>613.0</ele><time>2026-05-02T08:54:13.205Z</time></trkpt><trkpt lat="44.3926491" lon="10.7065211"><ele>613.0</ele><time>2026-05-02T08:54:15.186Z</time></trkpt><trkpt lat="44.3925607" lon="10.7065468"><ele>613.0</ele><time>2026-05-02T08:54:17.186Z</time></trkpt><trkpt lat="44.392469" lon="10.7065498"><ele>613.0</ele><time>2026-05-02T08:54:19.165Z</time></trkpt><trkpt lat="44.3923386" lon="10.7065785"><ele>613.0</ele><time>2026-05-02T08:54:21.192Z</time></trkpt><trkpt lat="44.3922751" lon="10.7066013"><ele>613.0</ele><time>2026-05-02T08:54:22.205Z</time></trkpt><trkpt lat="44.3922101" lon="10.7066401"><ele>613.0</ele><time>2026-05-02T08:54:23.139Z</time></trkpt><trkpt lat="44.3921518" lon="10.7066813"><ele>613.0</ele><time>2026-05-02T08:54:24.215Z</time></trkpt><trkpt lat="44.3920566" lon="10.7067551"><ele>613.0</ele><time>2026-05-02T08:54:26.226Z</time></trkpt><trkpt lat="44.391965" lon="10.7068087"><ele>613.0</ele><time>2026-05-02T08:54:28.188Z</time></trkpt><trkpt lat="44.3918371" lon="10.7068179"><ele>613.0</ele><time>2026-05-02T08:54:30.173Z</time></trkpt><trkpt lat="44.3917702" lon="10.7068037"><ele>613.0</ele><time>2026-05-02T08:54:31.203Z</time></trkpt><trkpt lat="44.3917079" lon="10.7067823"><ele>613.0</ele><time>2026-05-02T08:54:32.212Z</time></trkpt><trkpt lat="44.3916456" lon="10.7067559"><ele>613.0</ele><time>2026-05-02T08:54:33.196Z</time></trkpt><trkpt lat="44.3915833" lon="10.706733"><ele>613.0</ele><time>2026-05-02T08:54:34.205Z</time></trkpt><trkpt lat="44.391476" lon="10.7067042"><ele>613.0</ele><time>2026-05-02T08:54:36.2Z</time></trkpt><trkpt lat="44.3913708" lon="10.7066704"><ele>613.0</ele><time>2026-05-02T08:54:38.182Z</time></trkpt><trkpt lat="44.3912684" lon="10.7066081"><ele>613.8</ele><time>2026-05-02T08:54:40.19Z</time></trkpt><trkpt lat="44.3911644" lon="10.7065919"><ele>614.5999999999999</ele><time>2026-05-02T08:54:42.186Z</time></trkpt><trkpt lat="44.3910577" lon="10.7066243"><ele>615.4000000000001</ele><time>2026-05-02T08:54:44.21Z</time></trkpt><trkpt lat="44.3909553" lon="10.706603"><ele>616.2</ele><time>2026-05-02T08:54:46.171Z</time></trkpt><trkpt lat="44.3908447" lon="10.7065505"><ele>617.0</ele><time>2026-05-02T08:54:48.173Z</time></trkpt><trkpt lat="44.3907489" lon="10.7064847"><ele>617.0</ele><time>2026-05-02T08:54:50.191Z</time></trkpt><trkpt lat="44.3906725" lon="10.7064171"><ele>617.0</ele><time>2026-05-02T08:54:52.194Z</time></trkpt><trkpt lat="44.3906013" lon="10.7063143"><ele>617.0</ele><time>2026-05-02T08:54:54.179Z</time></trkpt><trkpt lat="44.3905254" lon="10.7062099"><ele>617.0</ele><time>2026-05-02T08:54:56.19Z</time></trkpt><trkpt lat="44.3904281" lon="10.7061632"><ele>617.0</ele><time>2026-05-02T08:54:58.182Z</time></trkpt><trkpt lat="44.3903045" lon="10.7061795"><ele>616.3333333333333</ele><time>2026-05-02T08:55:00.19Z</time></trkpt><trkpt lat="44.3902401" lon="10.7062063"><ele>615.6666666666666</ele><time>2026-05-02T08:55:01.149Z</time></trkpt><trkpt lat="44.3901251" lon="10.706222"><ele>615.0</ele><time>2026-05-02T08:55:03.171Z</time></trkpt><trkpt lat="44.3900044" lon="10.7061774"><ele>614.3333333333334</ele><time>2026-05-02T08:55:05.199Z</time></trkpt><trkpt lat="44.3899459" lon="10.7061405"><ele>613.6666666666667</ele><time>2026-05-02T08:55:06.2Z</time></trkpt><trkpt lat="44.3898868" lon="10.7061035"><ele>613.0</ele><time>2026-05-02T08:55:07.163Z</time></trkpt><trkpt lat="44.3898252" lon="10.7060718"><ele>613.0</ele><time>2026-05-02T08:55:08.192Z</time></trkpt><trkpt lat="44.3897582" lon="10.7060502"><ele>613.0</ele><time>2026-05-02T08:55:09.191Z</time></trkpt><trkpt lat="44.3896911" lon="10.7060302"><ele>613.0</ele><time>2026-05-02T08:55:10.186Z</time></trkpt><trkpt lat="44.389627" lon="10.7059981"><ele>613.0</ele><time>2026-05-02T08:55:11.194Z</time></trkpt><trkpt lat="44.3895591" lon="10.7059478"><ele>613.0</ele><time>2026-05-02T08:55:12.221Z</time></trkpt><trkpt lat="44.3894807" lon="10.7058872"><ele>613.0</ele><time>2026-05-02T08:55:13.2Z</time></trkpt><trkpt lat="44.3894068" lon="10.7058254"><ele>613.4285714285714</ele><time>2026-05-02T08:55:14.19Z</time></trkpt><trkpt lat="44.3893371" lon="10.7057644"><ele>613.8571428571429</ele><time>2026-05-02T08:55:15.206Z</time></trkpt><trkpt lat="44.3892717" lon="10.7057083"><ele>614.2857142857142</ele><time>2026-05-02T08:55:16.16Z</time></trkpt><trkpt lat="44.3892071" lon="10.7056621"><ele>614.7142857142858</ele><time>2026-05-02T08:55:17.191Z</time></trkpt><trkpt lat="44.3891412" lon="10.7056265"><ele>615.1428571428571</ele><time>2026-05-02T08:55:18.149Z</time></trkpt><trkpt lat="44.3890747" lon="10.7056058"><ele>615.5714285714286</ele><time>2026-05-02T08:55:19.168Z</time></trkpt><trkpt lat="44.3890105" lon="10.7056026"><ele>616.0</ele><time>2026-05-02T08:55:20.204Z</time></trkpt><trkpt lat="44.388947" lon="10.7056267"><ele>616.0</ele><time>2026-05-02T08:55:21.191Z</time></trkpt><trkpt lat="44.3888788" lon="10.7056786"><ele>616.0</ele><time>2026-05-02T08:55:22.197Z</time></trkpt><trkpt lat="44.3888104" lon="10.7057382"><ele>616.0</ele><time>2026-05-02T08:55:23.149Z</time></trkpt><trkpt lat="44.3887408" lon="10.7057855"><ele>616.0</ele><time>2026-05-02T08:55:24.196Z</time></trkpt><trkpt lat="44.388668" lon="10.7058201"><ele>616.0</ele><time>2026-05-02T08:55:25.224Z</time></trkpt><trkpt lat="44.3885927" lon="10.7058556"><ele>616.0</ele><time>2026-05-02T08:55:26.219Z</time></trkpt><trkpt lat="44.3885083" lon="10.7058735"><ele>617.1666666666667</ele><time>2026-05-02T08:55:27.172Z</time></trkpt><trkpt lat="44.3884174" lon="10.7058822"><ele>618.3333333333334</ele><time>2026-05-02T08:55:28.209Z</time></trkpt><trkpt lat="44.3883328" lon="10.7058875"><ele>619.5</ele><time>2026-05-02T08:55:29.209Z</time></trkpt><trkpt lat="44.3882456" lon="10.7058856"><ele>620.6666666666666</ele><time>2026-05-02T08:55:30.177Z</time></trkpt><trkpt lat="44.3881582" lon="10.7058565"><ele>621.8333333333333</ele><time>2026-05-02T08:55:31.184Z</time></trkpt><trkpt lat="44.3880777" lon="10.7057882"><ele>623.0</ele><time>2026-05-02T08:55:32.203Z</time></trkpt><trkpt lat="44.3880025" lon="10.7057207"><ele>623.1666666666666</ele><time>2026-05-02T08:55:33.186Z</time></trkpt><trkpt lat="44.3879254" lon="10.7056527"><ele>623.3333333333333</ele><time>2026-05-02T08:55:34.202Z</time></trkpt><trkpt lat="44.3878449" lon="10.7055936"><ele>623.5</ele><time>2026-05-02T08:55:35.187Z</time></trkpt><trkpt lat="44.3877709" lon="10.7055439"><ele>623.6666666666666</ele><time>2026-05-02T08:55:36.197Z</time></trkpt><trkpt lat="44.3877047" lon="10.7054996"><ele>623.8333333333334</ele><time>2026-05-02T08:55:37.215Z</time></trkpt><trkpt lat="44.3876401" lon="10.7054658"><ele>624.0</ele><time>2026-05-02T08:55:38.18Z</time></trkpt><trkpt lat="44.3875763" lon="10.7054352"><ele>624.0</ele><time>2026-05-02T08:55:39.164Z</time></trkpt><trkpt lat="44.3875176" lon="10.7053795"><ele>624.0</ele><time>2026-05-02T08:55:40.241Z</time></trkpt><trkpt lat="44.3874681" lon="10.705312"><ele>624.0</ele><time>2026-05-02T08:55:41.186Z</time></trkpt><trkpt lat="44.3874137" lon="10.7052455"><ele>624.0</ele><time>2026-05-02T08:55:42.214Z</time></trkpt><trkpt lat="44.3873548" lon="10.7051793"><ele>624.0</ele><time>2026-05-02T08:55:43.209Z</time></trkpt><trkpt lat="44.3873045" lon="10.7051163"><ele>624.0</ele><time>2026-05-02T08:55:44.188Z</time></trkpt><trkpt lat="44.387228" lon="10.7050042"><ele>625.8333333333334</ele><time>2026-05-02T08:55:46.243Z</time></trkpt><trkpt lat="44.3871498" lon="10.7048732"><ele>627.6666666666666</ele><time>2026-05-02T08:55:48.2Z</time></trkpt><trkpt lat="44.3871119" lon="10.7047962"><ele>629.5</ele><time>2026-05-02T08:55:49.159Z</time></trkpt><trkpt lat="44.3870762" lon="10.7047155"><ele>631.3333333333333</ele><time>2026-05-02T08:55:50.196Z</time></trkpt><trkpt lat="44.3870149" lon="10.704577"><ele>633.1666666666666</ele><time>2026-05-02T08:55:52.203Z</time></trkpt><trkpt lat="44.3869849" lon="10.7044961"><ele>635.0</ele><time>2026-05-02T08:55:53.209Z</time></trkpt><trkpt lat="44.3869331" lon="10.7043504"><ele>636.3333333333333</ele><time>2026-05-02T08:55:55.172Z</time></trkpt><trkpt lat="44.386902" lon="10.7042681"><ele>637.6666666666666</ele><time>2026-05-02T08:55:56.178Z</time></trkpt><trkpt lat="44.3868545" lon="10.7041142"><ele>639.0</ele><time>2026-05-02T08:55:58.184Z</time></trkpt><trkpt lat="44.3868223" lon="10.7040293"><ele>640.3333333333334</ele><time>2026-05-02T08:55:59.174Z</time></trkpt><trkpt lat="44.3867853" lon="10.703947"><ele>641.6666666666667</ele><time>2026-05-02T08:56:00.199Z</time></trkpt><trkpt lat="44.3867401" lon="10.7038466"><ele>643.0</ele><time>2026-05-02T08:56:01.181Z</time></trkpt><trkpt lat="44.3866919" lon="10.7037457"><ele>643.0</ele><time>2026-05-02T08:56:02.204Z</time></trkpt><trkpt lat="44.3866461" lon="10.7036539"><ele>643.0</ele><time>2026-05-02T08:56:03.175Z</time></trkpt><trkpt lat="44.3866019" lon="10.7035803"><ele>643.0</ele><time>2026-05-02T08:56:04.214Z</time></trkpt><trkpt lat="44.3865428" lon="10.7035166"><ele>643.0</ele><time>2026-05-02T08:56:05.147Z</time></trkpt><trkpt lat="44.3864798" lon="10.7034554"><ele>643.0</ele><time>2026-05-02T08:56:06.176Z</time></trkpt><trkpt lat="44.3864216" lon="10.7033933"><ele>643.0</ele><time>2026-05-02T08:56:07.192Z</time></trkpt><trkpt lat="44.3863966" lon="10.7033008"><ele>643.0</ele><time>2026-05-02T08:56:08.241Z</time></trkpt><trkpt lat="44.3863829" lon="10.7032127"><ele>643.4</ele><time>2026-05-02T08:56:09.208Z</time></trkpt><trkpt lat="44.3863731" lon="10.7030326"><ele>643.8</ele><time>2026-05-02T08:56:11.142Z</time></trkpt><trkpt lat="44.3863716" lon="10.7029313"><ele>644.2</ele><time>2026-05-02T08:56:12.175Z</time></trkpt><trkpt lat="44.386324" lon="10.7027933"><ele>644.6</ele><time>2026-05-02T08:56:14.185Z</time></trkpt><trkpt lat="44.386218" lon="10.7026796"><ele>645.0</ele><time>2026-05-02T08:56:16.187Z</time></trkpt><trkpt lat="44.386159" lon="10.7026418"><ele>648.2</ele><time>2026-05-02T08:56:17.175Z</time></trkpt><trkpt lat="44.3860415" lon="10.7026103"><ele>651.4</ele><time>2026-05-02T08:56:19.171Z</time></trkpt><trkpt lat="44.3859393" lon="10.7026158"><ele>654.5999999999999</ele><time>2026-05-02T08:56:21.184Z</time></trkpt><trkpt lat="44.3858577" lon="10.7026412"><ele>657.8</ele><time>2026-05-02T08:56:23.125Z</time></trkpt><trkpt lat="44.3857779" lon="10.70262"><ele>661.0</ele><time>2026-05-02T08:56:25.186Z</time></trkpt><trkpt lat="44.3856909" lon="10.7025132"><ele>661.0</ele><time>2026-05-02T08:56:27.189Z</time></trkpt><trkpt lat="44.3855546" lon="10.7024972"><ele>661.0</ele><time>2026-05-02T08:56:29.202Z</time></trkpt><trkpt lat="44.3854821" lon="10.7025018"><ele>661.0</ele><time>2026-05-02T08:56:30.176Z</time></trkpt><trkpt lat="44.385362" lon="10.7025027"><ele>661.0</ele><time>2026-05-02T08:56:32.187Z</time></trkpt><trkpt lat="44.3852606" lon="10.7024776"><ele>661.0</ele><time>2026-05-02T08:56:34.215Z</time></trkpt><trkpt lat="44.3851813" lon="10.7024565"><ele>660.5</ele><time>2026-05-02T08:56:36.263Z</time></trkpt><trkpt lat="44.3850975" lon="10.7024388"><ele>660.0</ele><time>2026-05-02T08:56:39.191Z</time></trkpt><trkpt lat="44.3850281" lon="10.702426"><ele>659.5</ele><time>2026-05-02T08:56:43.208Z</time></trkpt><trkpt lat="44.3849647" lon="10.7024107"><ele>659.0</ele><time>2026-05-02T08:56:59.208Z</time></trkpt><trkpt lat="44.3848667" lon="10.7023741"><ele>658.5</ele><time>2026-05-02T08:57:02.203Z</time></trkpt><trkpt lat="44.3847895" lon="10.7023375"><ele>658.0</ele><time>2026-05-02T08:57:04.19Z</time></trkpt><trkpt lat="44.3847051" lon="10.7022815"><ele>657.1666666666667</ele><time>2026-05-02T08:57:06.197Z</time></trkpt><trkpt lat="44.384605" lon="10.702193"><ele>656.3333333333334</ele><time>2026-05-02T08:57:08.187Z</time></trkpt><trkpt lat="44.3845399" lon="10.7021418"><ele>655.5</ele><time>2026-05-02T08:57:09.252Z</time></trkpt><trkpt lat="44.3844779" lon="10.7020997"><ele>654.6666666666666</ele><time>2026-05-02T08:57:10.207Z</time></trkpt><trkpt lat="44.3844196" lon="10.7020638"><ele>653.8333333333333</ele><time>2026-05-02T08:57:11.173Z</time></trkpt><trkpt lat="44.3843203" lon="10.7020048"><ele>653.0</ele><time>2026-05-02T08:57:13.22Z</time></trkpt><trkpt lat="44.3842424" lon="10.7019308"><ele>654.0</ele><time>2026-05-02T08:57:15.176Z</time></trkpt><trkpt lat="44.3841761" lon="10.7018119"><ele>655.0</ele><time>2026-05-02T08:57:17.165Z</time></trkpt><trkpt lat="44.3841341" lon="10.701746"><ele>656.0</ele><time>2026-05-02T08:57:18.178Z</time></trkpt><trkpt lat="44.3840412" lon="10.7016558"><ele>657.0</ele><time>2026-05-02T08:57:20.208Z</time></trkpt><trkpt lat="44.3839371" lon="10.7015849"><ele>658.0</ele><time>2026-05-02T08:57:22.172Z</time></trkpt><trkpt lat="44.38383" lon="10.701511"><ele>655.8</ele><time>2026-05-02T08:57:24.176Z</time></trkpt><trkpt lat="44.3837267" lon="10.701421"><ele>653.5999999999999</ele><time>2026-05-02T08:57:26.187Z</time></trkpt><trkpt lat="44.3836503" lon="10.7013038"><ele>651.4000000000001</ele><time>2026-05-02T08:57:28.176Z</time></trkpt><trkpt lat="44.3836113" lon="10.7011782"><ele>649.2</ele><time>2026-05-02T08:57:30.175Z</time></trkpt><trkpt lat="44.3835874" lon="10.7010221"><ele>647.0</ele><time>2026-05-02T08:57:32.167Z</time></trkpt><trkpt lat="44.3835827" lon="10.7008612"><ele>650.8333333333333</ele><time>2026-05-02T08:57:34.181Z</time></trkpt><trkpt lat="44.3835753" lon="10.700714"><ele>654.6666666666666</ele><time>2026-05-02T08:57:36.2Z</time></trkpt><trkpt lat="44.3835045" lon="10.7005976"><ele>658.5</ele><time>2026-05-02T08:57:38.174Z</time></trkpt><trkpt lat="44.3834365" lon="10.7005477"><ele>662.3333333333334</ele><time>2026-05-02T08:57:39.179Z</time></trkpt><trkpt lat="44.3833688" lon="10.7005103"><ele>666.1666666666667</ele><time>2026-05-02T08:57:40.179Z</time></trkpt><trkpt lat="44.383301" lon="10.7004764"><ele>670.0</ele><time>2026-05-02T08:57:41.195Z</time></trkpt><trkpt lat="44.3832427" lon="10.700439"><ele>670.0</ele><time>2026-05-02T08:57:42.224Z</time></trkpt><trkpt lat="44.3831512" lon="10.7003294"><ele>670.0</ele><time>2026-05-02T08:57:44.209Z</time></trkpt><trkpt lat="44.3831072" lon="10.7002594"><ele>670.0</ele><time>2026-05-02T08:57:45.199Z</time></trkpt><trkpt lat="44.383073" lon="10.7001741"><ele>670.0</ele><time>2026-05-02T08:57:46.188Z</time></trkpt><trkpt lat="44.3830283" lon="10.7001008"><ele>670.0</ele><time>2026-05-02T08:57:47.184Z</time></trkpt><trkpt lat="44.3829774" lon="10.700041"><ele>670.0</ele><time>2026-05-02T08:57:48.168Z</time></trkpt><trkpt lat="44.3829263" lon="10.6999815"><ele>670.3333333333334</ele><time>2026-05-02T08:57:49.197Z</time></trkpt><trkpt lat="44.3828628" lon="10.6999433"><ele>670.6666666666667</ele><time>2026-05-02T08:57:50.163Z</time></trkpt><trkpt lat="44.3827648" lon="10.6998778"><ele>671.0</ele><time>2026-05-02T08:57:52.189Z</time></trkpt><trkpt lat="44.3827166" lon="10.6998182"><ele>671.3333333333334</ele><time>2026-05-02T08:57:53.168Z</time></trkpt><trkpt lat="44.3826478" lon="10.6996692"><ele>671.6666666666666</ele><time>2026-05-02T08:57:55.19Z</time></trkpt><trkpt lat="44.3826161" lon="10.69959"><ele>672.0</ele><time>2026-05-02T08:57:56.206Z</time></trkpt><trkpt lat="44.3825632" lon="10.6994358"><ele>674.8</ele><time>2026-05-02T08:57:58.187Z</time></trkpt><trkpt lat="44.3825441" lon="10.6993407"><ele>677.6</ele><time>2026-05-02T08:57:59.211Z</time></trkpt><trkpt lat="44.3825163" lon="10.6991843"><ele>680.4</ele><time>2026-05-02T08:58:01.2Z</time></trkpt><trkpt lat="44.3825015" lon="10.6989942"><ele>683.1999999999999</ele><time>2026-05-02T08:58:03.193Z</time></trkpt><trkpt lat="44.3824903" lon="10.6988214"><ele>686.0</ele><time>2026-05-02T08:58:05.183Z</time></trkpt><trkpt lat="44.3825045" lon="10.6986522"><ele>688.6666666666666</ele><time>2026-05-02T08:58:07.198Z</time></trkpt><trkpt lat="44.3825222" lon="10.698561"><ele>691.3333333333333</ele><time>2026-05-02T08:58:08.189Z</time></trkpt><trkpt lat="44.3825535" lon="10.6984754"><ele>694.0</ele><time>2026-05-02T08:58:09.189Z</time></trkpt><trkpt lat="44.3825641" lon="10.6983032"><ele>696.6666666666666</ele><time>2026-05-02T08:58:11.173Z</time></trkpt><trkpt lat="44.3825649" lon="10.6982087"><ele>699.3333333333334</ele><time>2026-05-02T08:58:12.193Z</time></trkpt><trkpt lat="44.3825732" lon="10.6981205"><ele>702.0</ele><time>2026-05-02T08:58:13.173Z</time></trkpt><trkpt lat="44.3826364" lon="10.6979862"><ele>702.0</ele><time>2026-05-02T08:58:15.204Z</time></trkpt><trkpt lat="44.3827159" lon="10.6979373"><ele>702.0</ele><time>2026-05-02T08:58:17.248Z</time></trkpt><trkpt lat="44.3827798" lon="10.6979098"><ele>702.0</ele><time>2026-05-02T08:59:30.204Z</time></trkpt><trkpt lat="44.3827018" lon="10.6978522"><ele>702.0</ele><time>2026-05-02T09:01:20.222Z</time></trkpt><trkpt lat="44.3826263" lon="10.6978799"><ele>702.0</ele><time>2026-05-02T09:01:22.171Z</time></trkpt><trkpt lat="44.3825477" lon="10.6979226"><ele>702.0</ele><time>2026-05-02T09:01:24.192Z</time></trkpt><trkpt lat="44.3824872" lon="10.6979789"><ele>702.0</ele><time>2026-05-02T09:01:26.189Z</time></trkpt><trkpt lat="44.3824468" lon="10.6980655"><ele>702.0</ele><time>2026-05-02T09:01:28.173Z</time></trkpt><trkpt lat="44.3823992" lon="10.6981316"><ele>702.0</ele><time>2026-05-02T09:01:30.167Z</time></trkpt><trkpt lat="44.3823097" lon="10.6981545"><ele>702.0</ele><time>2026-05-02T09:01:33.227Z</time></trkpt><trkpt lat="44.3822202" lon="10.6981454"><ele>702.0</ele><time>2026-05-02T09:01:35.143Z</time></trkpt><trkpt lat="44.3821463" lon="10.6981917"><ele>702.0</ele><time>2026-05-02T09:01:37.197Z</time></trkpt><trkpt lat="44.3820928" lon="10.6982645"><ele>706.6666666666666</ele><time>2026-05-02T09:01:39.137Z</time></trkpt><trkpt lat="44.3820165" lon="10.6983374"><ele>711.3333333333334</ele><time>2026-05-02T09:01:41.213Z</time></trkpt><trkpt lat="44.3819537" lon="10.6983798"><ele>716.0</ele><time>2026-05-02T09:01:42.204Z</time></trkpt><trkpt lat="44.3818906" lon="10.6984284"><ele>720.6666666666667</ele><time>2026-05-02T09:01:43.247Z</time></trkpt><trkpt lat="44.3818388" lon="10.6984796"><ele>725.3333333333334</ele><time>2026-05-02T09:01:44.162Z</time></trkpt><trkpt lat="44.3817548" lon="10.6985467"><ele>730.0</ele><time>2026-05-02T09:01:46.187Z</time></trkpt><trkpt lat="44.3816283" lon="10.6985204"><ele>730.0</ele><time>2026-05-02T09:01:48.177Z</time></trkpt><trkpt lat="44.3815134" lon="10.698516"><ele>730.0</ele><time>2026-05-02T09:01:50.215Z</time></trkpt><trkpt lat="44.3814152" lon="10.6985522"><ele>730.0</ele><time>2026-05-02T09:01:52.166Z</time></trkpt><trkpt lat="44.3813448" lon="10.6986312"><ele>730.0</ele><time>2026-05-02T09:01:54.17Z</time></trkpt><trkpt lat="44.381306" lon="10.6987564"><ele>730.0</ele><time>2026-05-02T09:01:56.187Z</time></trkpt><trkpt lat="44.3812312" lon="10.6988849"><ele>728.3333333333334</ele><time>2026-05-02T09:01:58.166Z</time></trkpt><trkpt lat="44.3811831" lon="10.6989494"><ele>726.6666666666667</ele><time>2026-05-02T09:01:59.171Z</time></trkpt><trkpt lat="44.3811231" lon="10.6990242"><ele>725.0</ele><time>2026-05-02T09:02:00.137Z</time></trkpt><trkpt lat="44.3810786" lon="10.6990914"><ele>723.3333333333334</ele><time>2026-05-02T09:02:01.193Z</time></trkpt><trkpt lat="44.3810403" lon="10.6991652"><ele>721.6666666666666</ele><time>2026-05-02T09:02:02.185Z</time></trkpt><trkpt lat="44.3809793" lon="10.6992824"><ele>720.0</ele><time>2026-05-02T09:02:04.165Z</time></trkpt><trkpt lat="44.3809199" lon="10.6993473"><ele>720.0</ele><time>2026-05-02T09:02:06.166Z</time></trkpt><trkpt lat="44.3808539" lon="10.6993686"><ele>720.0</ele><time>2026-05-02T09:02:08.225Z</time></trkpt><trkpt lat="44.3807755" lon="10.6993481"><ele>720.0</ele><time>2026-05-02T09:02:10.201Z</time></trkpt><trkpt lat="44.3807124" lon="10.6993021"><ele>720.0</ele><time>2026-05-02T09:02:12.145Z</time></trkpt><trkpt lat="44.3806494" lon="10.6992514"><ele>720.0</ele><time>2026-05-02T09:02:14.205Z</time></trkpt><trkpt lat="44.3805824" lon="10.6992044"><ele>720.0</ele><time>2026-05-02T09:02:16.175Z</time></trkpt><trkpt lat="44.3804974" lon="10.6991589"><ele>722.1666666666666</ele><time>2026-05-02T09:02:18.219Z</time></trkpt><trkpt lat="44.3804163" lon="10.6991829"><ele>724.3333333333334</ele><time>2026-05-02T09:02:20.21Z</time></trkpt><trkpt lat="44.3803487" lon="10.6992262"><ele>726.5</ele><time>2026-05-02T09:02:23.206Z</time></trkpt><trkpt lat="44.3802852" lon="10.6992355"><ele>728.6666666666667</ele><time>2026-05-02T09:02:25.184Z</time></trkpt><trkpt lat="44.3802028" lon="10.6992297"><ele>730.8333333333334</ele><time>2026-05-02T09:02:28.143Z</time></trkpt><trkpt lat="44.3801148" lon="10.6992858"><ele>733.0</ele><time>2026-05-02T09:02:45.203Z</time></trkpt><trkpt lat="44.3800807" lon="10.6993759"><ele>730.6666666666667</ele><time>2026-05-02T09:02:50.195Z</time></trkpt><trkpt lat="44.380033" lon="10.699458"><ele>728.3333333333334</ele><time>2026-05-02T09:02:53.171Z</time></trkpt><trkpt lat="44.3800166" lon="10.6995574"><ele>726.0</ele><time>2026-05-02T09:02:56.2Z</time></trkpt><trkpt lat="44.3799987" lon="10.6996964"><ele>723.6666666666666</ele><time>2026-05-02T09:02:59.193Z</time></trkpt><trkpt lat="44.3799991" lon="10.6997907"><ele>721.3333333333333</ele><time>2026-05-02T09:03:00.17Z</time></trkpt><trkpt lat="44.3799879" lon="10.6998881"><ele>719.0</ele><time>2026-05-02T09:03:01.203Z</time></trkpt><trkpt lat="44.3799771" lon="10.6999845"><ele>718.9999999999999</ele><time>2026-05-02T09:03:03.214Z</time></trkpt><trkpt lat="44.379971" lon="10.7000762"><ele>719.0</ele><time>2026-05-02T09:03:10.161Z</time></trkpt><trkpt lat="44.3799313" lon="10.7001735"><ele>719.0</ele><time>2026-05-02T09:03:13.205Z</time></trkpt><trkpt lat="44.3798775" lon="10.7002248"><ele>719.0</ele><time>2026-05-02T09:03:52.218Z</time></trkpt><trkpt lat="44.3797995" lon="10.700222"><ele>719.0</ele><time>2026-05-02T09:03:54.239Z</time></trkpt><trkpt lat="44.3797472" lon="10.7001367"><ele>718.9999999999999</ele><time>2026-05-02T09:03:57.168Z</time></trkpt><trkpt lat="44.3797162" lon="10.7000373"><ele>719.0</ele><time>2026-05-02T09:04:01.183Z</time></trkpt><trkpt lat="44.3796601" lon="10.699968"><ele>723.5</ele><time>2026-05-02T09:04:05.193Z</time></trkpt><trkpt lat="44.3795997" lon="10.6998911"><ele>728.0</ele><time>2026-05-02T09:04:08.197Z</time></trkpt><trkpt lat="44.3795371" lon="10.6998565"><ele>732.5</ele><time>2026-05-02T09:04:10.221Z</time></trkpt><trkpt lat="44.3796082" lon="10.6998418"><ele>737.0</ele><time>2026-05-02T09:05:31.204Z</time></trkpt><trkpt lat="44.3795324" lon="10.6998264"><ele>741.5</ele><time>2026-05-02T09:06:59.2Z</time></trkpt><trkpt lat="44.3794649" lon="10.6997654"><ele>746.0</ele><time>2026-05-02T09:07:12.201Z</time></trkpt><trkpt lat="44.3793922" lon="10.6997598"><ele>746.0</ele><time>2026-05-02T09:07:15.181Z</time></trkpt><trkpt lat="44.379331" lon="10.6997218"><ele>746.0</ele><time>2026-05-02T09:07:18.164Z</time></trkpt><trkpt lat="44.3792865" lon="10.6996202"><ele>746.0</ele><time>2026-05-02T09:07:49.193Z</time></trkpt><trkpt lat="44.3792136" lon="10.6996397"><ele>746.0</ele><time>2026-05-02T09:07:52.14Z</time></trkpt><trkpt lat="44.3791234" lon="10.6996751"><ele>746.0</ele><time>2026-05-02T09:07:54.223Z</time></trkpt><trkpt lat="44.3790234" lon="10.6997517"><ele>746.0</ele><time>2026-05-02T09:07:56.215Z</time></trkpt><trkpt lat="44.3789634" lon="10.6997931"><ele>746.0</ele><time>2026-05-02T09:07:57.181Z</time></trkpt><trkpt lat="44.378866" lon="10.6998532"><ele>746.0</ele><time>2026-05-02T09:07:59.188Z</time></trkpt><trkpt lat="44.3787956" lon="10.6998729"><ele>746.0</ele><time>2026-05-02T09:08:01.202Z</time></trkpt><trkpt lat="44.3787049" lon="10.6998691"><ele>746.0</ele><time>2026-05-02T09:08:03.2Z</time></trkpt><trkpt lat="44.37862" lon="10.6999283"><ele>746.0</ele><time>2026-05-02T09:08:05.191Z</time></trkpt><trkpt lat="44.3785281" lon="10.6999926"><ele>746.8333333333333</ele><time>2026-05-02T09:08:07.223Z</time></trkpt><trkpt lat="44.3784344" lon="10.7000107"><ele>747.6666666666666</ele><time>2026-05-02T09:08:09.153Z</time></trkpt><trkpt lat="44.3783554" lon="10.6999808"><ele>748.5</ele><time>2026-05-02T09:08:11.21Z</time></trkpt><trkpt lat="44.3782867" lon="10.699933"><ele>749.3333333333334</ele><time>2026-05-02T09:08:13.147Z</time></trkpt><trkpt lat="44.3782269" lon="10.6998459"><ele>750.1666666666667</ele><time>2026-05-02T09:08:15.179Z</time></trkpt><trkpt lat="44.3781896" lon="10.6997628"><ele>751.0</ele><time>2026-05-02T09:08:17.275Z</time></trkpt><trkpt lat="44.3781192" lon="10.699695"><ele>751.0</ele><time>2026-05-02T09:08:20.275Z</time></trkpt><trkpt lat="44.3781395" lon="10.6995873"><ele>751.0</ele><time>2026-05-02T09:08:24.235Z</time></trkpt><trkpt lat="44.3781836" lon="10.6994785"><ele>751.0</ele><time>2026-05-02T09:08:28.205Z</time></trkpt><trkpt lat="44.3782463" lon="10.6994543"><ele>751.0</ele><time>2026-05-02T09:08:30.298Z</time></trkpt><trkpt lat="44.37831" lon="10.6994902"><ele>751.0</ele><time>2026-05-02T09:08:33.098Z</time></trkpt><trkpt lat="44.3784827" lon="10.6994951"><ele>751.0</ele><time>2026-05-02T09:08:37.194Z</time></trkpt><trkpt lat="44.3785499" lon="10.6994602"><ele>751.0</ele><time>2026-05-02T09:08:39.197Z</time></trkpt><trkpt lat="44.3786409" lon="10.6994326"><ele>751.0</ele><time>2026-05-02T09:08:48.224Z</time></trkpt><trkpt lat="44.3787349" lon="10.6993874"><ele>751.0</ele><time>2026-05-02T09:08:50.209Z</time></trkpt><trkpt lat="44.3787808" lon="10.6993166"><ele>751.0</ele><time>2026-05-02T09:08:52.159Z</time></trkpt><trkpt lat="44.3787589" lon="10.6991886"><ele>751.0</ele><time>2026-05-02T09:08:56.179Z</time></trkpt><trkpt lat="44.3787233" lon="10.6991005"><ele>755.5</ele><time>2026-05-02T09:08:58.233Z</time></trkpt><trkpt lat="44.3786843" lon="10.6990111"><ele>760.0</ele><time>2026-05-02T09:09:00.143Z</time></trkpt><trkpt lat="44.3786274" lon="10.6989145"><ele>764.5</ele><time>2026-05-02T09:09:03.192Z</time></trkpt><trkpt lat="44.3786275" lon="10.6988119"><ele>769.0</ele><time>2026-05-02T09:09:06.214Z</time></trkpt><trkpt lat="44.378589" lon="10.6987194"><ele>773.4999999999999</ele><time>2026-05-02T09:09:09.223Z</time></trkpt><trkpt lat="44.3785052" lon="10.6986605"><ele>778.0</ele><time>2026-05-02T09:09:11.165Z</time></trkpt><trkpt lat="44.3783883" lon="10.6986414"><ele>778.0</ele><time>2026-05-02T09:09:13.16Z</time></trkpt><trkpt lat="44.3783224" lon="10.6986271"><ele>778.0</ele><time>2026-05-02T09:09:14.191Z</time></trkpt><trkpt lat="44.3782122" lon="10.6985949"><ele>778.0</ele><time>2026-05-02T09:09:16.22Z</time></trkpt><trkpt lat="44.3781149" lon="10.6985598"><ele>778.0</ele><time>2026-05-02T09:09:18.189Z</time></trkpt><trkpt lat="44.37803" lon="10.6985167"><ele>778.0</ele><time>2026-05-02T09:09:20.174Z</time></trkpt><trkpt lat="44.3779984" lon="10.6983918"><ele>782.4999999999999</ele><time>2026-05-02T09:09:22.179Z</time></trkpt><trkpt lat="44.3780369" lon="10.6982824"><ele>787.0</ele><time>2026-05-02T09:09:24.196Z</time></trkpt><trkpt lat="44.3780904" lon="10.6982239"><ele>791.5</ele><time>2026-05-02T09:09:25.176Z</time></trkpt><trkpt lat="44.3781458" lon="10.698117"><ele>796.0</ele><time>2026-05-02T09:09:27.19Z</time></trkpt><trkpt lat="44.3781921" lon="10.6980525"><ele>800.4999999999999</ele><time>2026-05-02T09:09:29.19Z</time></trkpt><trkpt lat="44.3780754" lon="10.6980196"><ele>805.0</ele><time>2026-05-02T09:10:04.193Z</time></trkpt><trkpt lat="44.3779916" lon="10.69802"><ele>805.0</ele><time>2026-05-02T09:10:05.184Z</time></trkpt><trkpt lat="44.377912" lon="10.6979973"><ele>805.0</ele><time>2026-05-02T09:10:06.164Z</time></trkpt><trkpt lat="44.3778279" lon="10.697966"><ele>805.0</ele><time>2026-05-02T09:10:07.211Z</time></trkpt><trkpt lat="44.3777438" lon="10.6978822"><ele>805.0</ele><time>2026-05-02T09:10:08.184Z</time></trkpt><trkpt lat="44.3776547" lon="10.6977778"><ele>805.0</ele><time>2026-05-02T09:10:09.184Z</time></trkpt><trkpt lat="44.3775593" lon="10.6976687"><ele>809.6</ele><time>2026-05-02T09:10:10.17Z</time></trkpt><trkpt lat="44.3774723" lon="10.6975713"><ele>814.2</ele><time>2026-05-02T09:10:11.203Z</time></trkpt><trkpt lat="44.3773844" lon="10.6975007"><ele>818.8</ele><time>2026-05-02T09:10:12.188Z</time></trkpt><trkpt lat="44.3772879" lon="10.6974592"><ele>823.4</ele><time>2026-05-02T09:10:13.161Z</time></trkpt><trkpt lat="44.3771869" lon="10.6974182"><ele>828.0</ele><time>2026-05-02T09:10:14.177Z</time></trkpt><trkpt lat="44.3770782" lon="10.6974304"><ele>828.0</ele><time>2026-05-02T09:10:15.186Z</time></trkpt><trkpt lat="44.376981" lon="10.6974357"><ele>828.0</ele><time>2026-05-02T09:10:16.159Z</time></trkpt><trkpt lat="44.376895" lon="10.6974146"><ele>828.0</ele><time>2026-05-02T09:10:17.163Z</time></trkpt><trkpt lat="44.3768142" lon="10.697365"><ele>828.0</ele><time>2026-05-02T09:10:18.184Z</time></trkpt><trkpt lat="44.3767356" lon="10.6972866"><ele>828.0</ele><time>2026-05-02T09:10:19.168Z</time></trkpt><trkpt lat="44.3766583" lon="10.6972094"><ele>828.0</ele><time>2026-05-02T09:10:20.16Z</time></trkpt><trkpt lat="44.3765834" lon="10.6971191"><ele>828.0</ele><time>2026-05-02T09:10:21.185Z</time></trkpt><trkpt lat="44.3765112" lon="10.69703"><ele>828.0</ele><time>2026-05-02T09:10:22.169Z</time></trkpt><trkpt lat="44.3764415" lon="10.6969526"><ele>828.0</ele><time>2026-05-02T09:10:23.222Z</time></trkpt><trkpt lat="44.3763773" lon="10.696896"><ele>828.0</ele><time>2026-05-02T09:10:24.171Z</time></trkpt><trkpt lat="44.3763017" lon="10.6968617"><ele>828.0</ele><time>2026-05-02T09:10:25.179Z</time></trkpt><trkpt lat="44.3762221" lon="10.6968492"><ele>829.6666666666666</ele><time>2026-05-02T09:10:26.191Z</time></trkpt><trkpt lat="44.3761399" lon="10.6968464"><ele>831.3333333333333</ele><time>2026-05-02T09:10:27.179Z</time></trkpt><trkpt lat="44.3760607" lon="10.6968468"><ele>833.0</ele><time>2026-05-02T09:10:28.203Z</time></trkpt><trkpt lat="44.375979" lon="10.6968565"><ele>834.6666666666666</ele><time>2026-05-02T09:10:29.175Z</time></trkpt><trkpt lat="44.3759019" lon="10.6968805"><ele>836.3333333333333</ele><time>2026-05-02T09:10:30.19Z</time></trkpt><trkpt lat="44.3758277" lon="10.6969253"><ele>838.0</ele><time>2026-05-02T09:10:31.206Z</time></trkpt><trkpt lat="44.3757584" lon="10.6969869"><ele>837.9999999999999</ele><time>2026-05-02T09:10:32.219Z</time></trkpt><trkpt lat="44.3756969" lon="10.6970539"><ele>838.0</ele><time>2026-05-02T09:10:33.199Z</time></trkpt><trkpt lat="44.3756462" lon="10.697108"><ele>838.0</ele><time>2026-05-02T09:10:34.229Z</time></trkpt><trkpt lat="44.3755734" lon="10.6971622"><ele>838.0</ele><time>2026-05-02T09:10:36.164Z</time></trkpt><trkpt lat="44.3754724" lon="10.6972353"><ele>837.9999999999999</ele><time>2026-05-02T09:10:38.129Z</time></trkpt><trkpt lat="44.3754208" lon="10.6972951"><ele>838.0</ele><time>2026-05-02T09:10:39.188Z</time></trkpt><trkpt lat="44.3753601" lon="10.6973531"><ele>840.1666666666666</ele><time>2026-05-02T09:10:40.237Z</time></trkpt><trkpt lat="44.3752954" lon="10.6973829"><ele>842.3333333333333</ele><time>2026-05-02T09:10:41.176Z</time></trkpt><trkpt lat="44.3752264" lon="10.6973864"><ele>844.5</ele><time>2026-05-02T09:10:42.17Z</time></trkpt><trkpt lat="44.3751523" lon="10.6973667"><ele>846.6666666666667</ele><time>2026-05-02T09:10:43.184Z</time></trkpt><trkpt lat="44.3750743" lon="10.6973449"><ele>848.8333333333334</ele><time>2026-05-02T09:10:44.191Z</time></trkpt><trkpt lat="44.3749893" lon="10.6973024"><ele>851.0</ele><time>2026-05-02T09:10:45.18Z</time></trkpt><trkpt lat="44.3748968" lon="10.6972797"><ele>851.0</ele><time>2026-05-02T09:10:46.165Z</time></trkpt><trkpt lat="44.374799" lon="10.6972798"><ele>851.0</ele><time>2026-05-02T09:10:47.173Z</time></trkpt><trkpt lat="44.3747087" lon="10.6972897"><ele>851.0</ele><time>2026-05-02T09:10:48.168Z</time></trkpt><trkpt lat="44.3746194" lon="10.6972998"><ele>851.0</ele><time>2026-05-02T09:10:49.177Z</time></trkpt><trkpt lat="44.3745319" lon="10.6973008"><ele>851.0</ele><time>2026-05-02T09:10:50.177Z</time></trkpt><trkpt lat="44.3744451" lon="10.6972875"><ele>854.1666666666667</ele><time>2026-05-02T09:10:51.166Z</time></trkpt><trkpt lat="44.3743597" lon="10.6972605"><ele>857.3333333333334</ele><time>2026-05-02T09:10:52.176Z</time></trkpt><trkpt lat="44.3742654" lon="10.6972364"><ele>860.5</ele><time>2026-05-02T09:10:53.162Z</time></trkpt><trkpt lat="44.3741758" lon="10.6972255"><ele>863.6666666666667</ele><time>2026-05-02T09:10:54.158Z</time></trkpt><trkpt lat="44.3740909" lon="10.6972363"><ele>866.8333333333334</ele><time>2026-05-02T09:10:55.185Z</time></trkpt><trkpt lat="44.3740084" lon="10.6972773"><ele>870.0</ele><time>2026-05-02T09:10:56.2Z</time></trkpt><trkpt lat="44.3739273" lon="10.6973189"><ele>870.0</ele><time>2026-05-02T09:10:57.186Z</time></trkpt><trkpt lat="44.3738605" lon="10.697412"><ele>870.0</ele><time>2026-05-02T09:10:58.216Z</time></trkpt><trkpt lat="44.3738109" lon="10.6975148"><ele>870.0</ele><time>2026-05-02T09:10:59.197Z</time></trkpt><trkpt lat="44.3737772" lon="10.6976299"><ele>870.0</ele><time>2026-05-02T09:11:00.186Z</time></trkpt><trkpt lat="44.3737581" lon="10.6977536"><ele>870.0</ele><time>2026-05-02T09:11:01.193Z</time></trkpt><trkpt lat="44.3737433" lon="10.6978886"><ele>872.1666666666666</ele><time>2026-05-02T09:11:02.238Z</time></trkpt><trkpt lat="44.3737302" lon="10.6980188"><ele>874.3333333333333</ele><time>2026-05-02T09:11:03.185Z</time></trkpt><trkpt lat="44.3737108" lon="10.6981434"><ele>876.5</ele><time>2026-05-02T09:11:04.173Z</time></trkpt><trkpt lat="44.3736807" lon="10.6982588"><ele>878.6666666666666</ele><time>2026-05-02T09:11:05.184Z</time></trkpt><trkpt lat="44.3736361" lon="10.6983614"><ele>880.8333333333333</ele><time>2026-05-02T09:11:06.186Z</time></trkpt><trkpt lat="44.3735756" lon="10.6984481"><ele>883.0</ele><time>2026-05-02T09:11:07.13Z</time></trkpt><trkpt lat="44.3735007" lon="10.6985129"><ele>882.9999999999999</ele><time>2026-05-02T09:11:08.13Z</time></trkpt><trkpt lat="44.373412" lon="10.6985705"><ele>883.0</ele><time>2026-05-02T09:11:09.173Z</time></trkpt><trkpt lat="44.3733305" lon="10.6986275"><ele>883.0</ele><time>2026-05-02T09:11:10.133Z</time></trkpt><trkpt lat="44.3732517" lon="10.6986461"><ele>883.0</ele><time>2026-05-02T09:11:11.125Z</time></trkpt><trkpt lat="44.3731677" lon="10.6986375"><ele>882.9999999999999</ele><time>2026-05-02T09:11:12.146Z</time></trkpt><trkpt lat="44.373088" lon="10.6985971"><ele>883.0</ele><time>2026-05-02T09:11:13.144Z</time></trkpt><trkpt lat="44.3730132" lon="10.6985268"><ele>883.2</ele><time>2026-05-02T09:11:14.166Z</time></trkpt><trkpt lat="44.3729404" lon="10.6984292"><ele>883.4</ele><time>2026-05-02T09:11:15.17Z</time></trkpt><trkpt lat="44.3728681" lon="10.6983211"><ele>883.6000000000001</ele><time>2026-05-02T09:11:16.161Z</time></trkpt><trkpt lat="44.3728016" lon="10.6982257"><ele>883.8000000000001</ele><time>2026-05-02T09:11:17.17Z</time></trkpt><trkpt lat="44.372734" lon="10.6981415"><ele>884.0</ele><time>2026-05-02T09:11:18.195Z</time></trkpt><trkpt lat="44.3726592" lon="10.69807"><ele>884.0000000000001</ele><time>2026-05-02T09:11:19.156Z</time></trkpt><trkpt lat="44.3725805" lon="10.6980205"><ele>884.0</ele><time>2026-05-02T09:11:20.177Z</time></trkpt><trkpt lat="44.3725039" lon="10.6979985"><ele>884.0</ele><time>2026-05-02T09:11:21.168Z</time></trkpt><trkpt lat="44.3724277" lon="10.6980085"><ele>884.0</ele><time>2026-05-02T09:11:22.175Z</time></trkpt><trkpt lat="44.3723604" lon="10.6980429"><ele>884.0000000000001</ele><time>2026-05-02T09:11:23.192Z</time></trkpt><trkpt lat="44.3723026" lon="10.6980986"><ele>884.0</ele><time>2026-05-02T09:11:24.19Z</time></trkpt><trkpt lat="44.3722522" lon="10.6981682"><ele>884.0</ele><time>2026-05-02T09:11:25.18Z</time></trkpt><trkpt lat="44.3721997" lon="10.6982525"><ele>884.0000000000001</ele><time>2026-05-02T09:11:26.181Z</time></trkpt><trkpt lat="44.3721467" lon="10.6983607"><ele>884.0000000000001</ele><time>2026-05-02T09:11:27.172Z</time></trkpt><trkpt lat="44.3721025" lon="10.6984926"><ele>884.0</ele><time>2026-05-02T09:11:28.182Z</time></trkpt><trkpt lat="44.3720656" lon="10.6986318"><ele>884.0</ele><time>2026-05-02T09:11:29.247Z</time></trkpt><trkpt lat="44.3720335" lon="10.6987414"><ele>886.0</ele><time>2026-05-02T09:11:30.21Z</time></trkpt><trkpt lat="44.3720075" lon="10.698836"><ele>888.0000000000001</ele><time>2026-05-02T09:11:31.185Z</time></trkpt><trkpt lat="44.3719278" lon="10.6989475"><ele>890.0000000000001</ele><time>2026-05-02T09:11:33.207Z</time></trkpt><trkpt lat="44.3717917" lon="10.6990101"><ele>892.0</ele><time>2026-05-02T09:11:35.175Z</time></trkpt><trkpt lat="44.3717067" lon="10.6990472"><ele>894.0</ele><time>2026-05-02T09:11:36.176Z</time></trkpt><trkpt lat="44.3716253" lon="10.699105"><ele>894.0</ele><time>2026-05-02T09:11:37.159Z</time></trkpt><trkpt lat="44.37155" lon="10.6991901"><ele>894.0000000000001</ele><time>2026-05-02T09:11:38.139Z</time></trkpt><trkpt lat="44.371481" lon="10.6993022"><ele>894.0000000000001</ele><time>2026-05-02T09:11:39.19Z</time></trkpt><trkpt lat="44.3714178" lon="10.6994132"><ele>894.0</ele><time>2026-05-02T09:11:40.176Z</time></trkpt><trkpt lat="44.371352" lon="10.6994978"><ele>894.0</ele><time>2026-05-02T09:11:41.247Z</time></trkpt><trkpt lat="44.3712824" lon="10.6995475"><ele>892.0</ele><time>2026-05-02T09:11:42.227Z</time></trkpt><trkpt lat="44.3712009" lon="10.6995695"><ele>890.0000000000001</ele><time>2026-05-02T09:11:43.222Z</time></trkpt><trkpt lat="44.3711048" lon="10.6995633"><ele>888.0000000000001</ele><time>2026-05-02T09:11:44.16Z</time></trkpt><trkpt lat="44.3709968" lon="10.6995374"><ele>886.0</ele><time>2026-05-02T09:11:45.192Z</time></trkpt><trkpt lat="44.3708928" lon="10.6995131"><ele>884.0</ele><time>2026-05-02T09:11:46.214Z</time></trkpt><trkpt lat="44.3707952" lon="10.6994998"><ele>884.0000000000001</ele><time>2026-05-02T09:11:47.19Z</time></trkpt><trkpt lat="44.3707025" lon="10.6994876"><ele>884.0</ele><time>2026-05-02T09:11:48.21Z</time></trkpt><trkpt lat="44.370614" lon="10.699494"><ele>884.0</ele><time>2026-05-02T09:11:49.194Z</time></trkpt><trkpt lat="44.3705271" lon="10.6995257"><ele>884.0</ele><time>2026-05-02T09:11:50.199Z</time></trkpt><trkpt lat="44.3704503" lon="10.6995586"><ele>884.0000000000001</ele><time>2026-05-02T09:11:51.194Z</time></trkpt><trkpt lat="44.3703932" lon="10.6996171"><ele>884.0</ele><time>2026-05-02T09:11:52.252Z</time></trkpt><trkpt lat="44.3703042" lon="10.699701"><ele>885.0000000000001</ele><time>2026-05-02T09:11:54.188Z</time></trkpt><trkpt lat="44.3702315" lon="10.6997507"><ele>886.0</ele><time>2026-05-02T09:11:57.205Z</time></trkpt><trkpt lat="44.3702595" lon="10.6996668"><ele>887.0</ele><time>2026-05-02T09:12:06.212Z</time></trkpt><trkpt lat="44.3703168" lon="10.6995451"><ele>888.0</ele><time>2026-05-02T09:12:08.203Z</time></trkpt><trkpt lat="44.3704088" lon="10.6994384"><ele>889.0000000000001</ele><time>2026-05-02T09:12:10.183Z</time></trkpt><trkpt lat="44.3704637" lon="10.6993816"><ele>890.0</ele><time>2026-05-02T09:12:11.193Z</time></trkpt><trkpt lat="44.3705157" lon="10.6993254"><ele>893.2</ele><time>2026-05-02T09:12:12.192Z</time></trkpt><trkpt lat="44.370595" lon="10.6992385"><ele>896.4</ele><time>2026-05-02T09:12:14.263Z</time></trkpt><trkpt lat="44.3706505" lon="10.6990999"><ele>899.5999999999999</ele><time>2026-05-02T09:12:16.139Z</time></trkpt><trkpt lat="44.3706963" lon="10.6989679"><ele>902.8</ele><time>2026-05-02T09:12:18.191Z</time></trkpt><trkpt lat="44.3707262" lon="10.6988474"><ele>906.0</ele><time>2026-05-02T09:12:20.18Z</time></trkpt><trkpt lat="44.3707494" lon="10.6987217"><ele>908.5999999999999</ele><time>2026-05-02T09:12:22.178Z</time></trkpt><trkpt lat="44.3707575" lon="10.6985842"><ele>911.1999999999999</ele><time>2026-05-02T09:12:24.171Z</time></trkpt><trkpt lat="44.3707614" lon="10.69845"><ele>913.8000000000001</ele><time>2026-05-02T09:12:26.176Z</time></trkpt><trkpt lat="44.3707659" lon="10.6983024"><ele>916.4000000000001</ele><time>2026-05-02T09:12:28.191Z</time></trkpt><trkpt lat="44.37077" lon="10.6981669"><ele>919.0</ele><time>2026-05-02T09:12:30.183Z</time></trkpt><trkpt lat="44.3707755" lon="10.6980596"><ele>918.9999999999999</ele><time>2026-05-02T09:12:32.172Z</time></trkpt><trkpt lat="44.3707368" lon="10.6979419"><ele>919.0</ele><time>2026-05-02T09:12:37.169Z</time></trkpt><trkpt lat="44.3706932" lon="10.6978593"><ele>919.0</ele><time>2026-05-02T09:12:39.156Z</time></trkpt><trkpt lat="44.3706394" lon="10.6977915"><ele>919.0</ele><time>2026-05-02T09:12:41.143Z</time></trkpt><trkpt lat="44.3705801" lon="10.6977199"><ele>918.9999999999999</ele><time>2026-05-02T09:12:43.154Z</time></trkpt><trkpt lat="44.3705173" lon="10.6976502"><ele>919.0</ele><time>2026-05-02T09:12:45.145Z</time></trkpt><trkpt lat="44.3704481" lon="10.6975608"><ele>920.8333333333333</ele><time>2026-05-02T09:12:47.16Z</time></trkpt><trkpt lat="44.3703961" lon="10.6974963"><ele>922.6666666666666</ele><time>2026-05-02T09:12:49.204Z</time></trkpt><trkpt lat="44.370335" lon="10.6974235"><ele>924.5</ele><time>2026-05-02T09:12:51.215Z</time></trkpt><trkpt lat="44.3702701" lon="10.697386"><ele>926.3333333333333</ele><time>2026-05-02T09:12:53.135Z</time></trkpt><trkpt lat="44.3701856" lon="10.6973671"><ele>928.1666666666666</ele><time>2026-05-02T09:12:55.184Z</time></trkpt><trkpt lat="44.3700926" lon="10.6973684"><ele>930.0</ele><time>2026-05-02T09:12:57.207Z</time></trkpt><trkpt lat="44.3699954" lon="10.6973563"><ele>930.0</ele><time>2026-05-02T09:12:59.185Z</time></trkpt><trkpt lat="44.3699085" lon="10.6973415"><ele>930.0</ele><time>2026-05-02T09:13:01.199Z</time></trkpt><trkpt lat="44.3698232" lon="10.6973377"><ele>930.0</ele><time>2026-05-02T09:13:03.154Z</time></trkpt><trkpt lat="44.3697424" lon="10.6973143"><ele>930.0</ele><time>2026-05-02T09:13:05.185Z</time></trkpt><trkpt lat="44.3696518" lon="10.6973189"><ele>930.0</ele><time>2026-05-02T09:13:08.183Z</time></trkpt><trkpt lat="44.3695705" lon="10.6972829"><ele>930.0</ele><time>2026-05-02T09:13:10.211Z</time></trkpt><trkpt lat="44.3695181" lon="10.6972172"><ele>928.8333333333334</ele><time>2026-05-02T09:13:17.186Z</time></trkpt><trkpt lat="44.3694891" lon="10.6971101"><ele>927.6666666666667</ele><time>2026-05-02T09:13:19.135Z</time></trkpt><trkpt lat="44.3694808" lon="10.6970015"><ele>926.5</ele><time>2026-05-02T09:13:21.191Z</time></trkpt><trkpt lat="44.3694768" lon="10.6968928"><ele>925.3333333333334</ele><time>2026-05-02T09:13:23.21Z</time></trkpt><trkpt lat="44.3694789" lon="10.696793"><ele>924.1666666666667</ele><time>2026-05-02T09:13:25.206Z</time></trkpt><trkpt lat="44.3694771" lon="10.6966637"><ele>923.0</ele><time>2026-05-02T09:13:28.201Z</time></trkpt><trkpt lat="44.3694551" lon="10.6965217"><ele>926.8</ele><time>2026-05-02T09:13:31.206Z</time></trkpt><trkpt lat="44.3694314" lon="10.6964046"><ele>930.5999999999999</ele><time>2026-05-02T09:13:33.198Z</time></trkpt><trkpt lat="44.369428" lon="10.6962721"><ele>934.4000000000001</ele><time>2026-05-02T09:13:36.199Z</time></trkpt><trkpt lat="44.3694134" lon="10.6961542"><ele>938.2</ele><time>2026-05-02T09:13:38.205Z</time></trkpt><trkpt lat="44.369393" lon="10.696033"><ele>942.0</ele><time>2026-05-02T09:13:40.245Z</time></trkpt><trkpt lat="44.3693946" lon="10.6958882"><ele>944.8333333333334</ele><time>2026-05-02T09:13:42.606Z</time></trkpt><trkpt lat="44.369386" lon="10.6957959"><ele>947.6666666666667</ele><time>2026-05-02T09:13:44.638Z</time></trkpt><trkpt lat="44.3693695" lon="10.695704"><ele>950.5</ele><time>2026-05-02T09:13:54.256Z</time></trkpt><trkpt lat="44.3694267" lon="10.6956376"><ele>953.3333333333334</ele><time>2026-05-02T09:13:58.242Z</time></trkpt><trkpt lat="44.3694843" lon="10.6957025"><ele>956.1666666666667</ele><time>2026-05-02T09:14:00.294Z</time></trkpt><trkpt lat="44.3695319" lon="10.695795"><ele>959.0</ele><time>2026-05-02T09:14:02.201Z</time></trkpt><trkpt lat="44.3696368" lon="10.6958938"><ele>960.4000000000001</ele><time>2026-05-02T09:14:04.188Z</time></trkpt><trkpt lat="44.3697286" lon="10.6959906"><ele>961.8000000000001</ele><time>2026-05-02T09:14:06.197Z</time></trkpt><trkpt lat="44.3697983" lon="10.6961085"><ele>963.1999999999999</ele><time>2026-05-02T09:14:08.19Z</time></trkpt><trkpt lat="44.3698619" lon="10.6962211"><ele>964.5999999999999</ele><time>2026-05-02T09:14:10.177Z</time></trkpt><trkpt lat="44.3699135" lon="10.6963301"><ele>966.0</ele><time>2026-05-02T09:14:12.173Z</time></trkpt><trkpt lat="44.3699638" lon="10.6964537"><ele>966.0</ele><time>2026-05-02T09:14:14.199Z</time></trkpt><trkpt lat="44.3700193" lon="10.6965344"><ele>966.0</ele><time>2026-05-02T09:14:16.201Z</time></trkpt><trkpt lat="44.370083" lon="10.6965328"><ele>966.0</ele><time>2026-05-02T09:14:18.175Z</time></trkpt><trkpt lat="44.3701278" lon="10.696451"><ele>966.0</ele><time>2026-05-02T09:14:20.217Z</time></trkpt><trkpt lat="44.3701266" lon="10.6962856"><ele>966.0</ele><time>2026-05-02T09:14:22.21Z</time></trkpt><trkpt lat="44.3701229" lon="10.6961946"><ele>966.0</ele><time>2026-05-02T09:14:23.188Z</time></trkpt><trkpt lat="44.3701132" lon="10.6960192"><ele>967.8333333333334</ele><time>2026-05-02T09:14:25.186Z</time></trkpt><trkpt lat="44.370107" lon="10.6959184"><ele>969.6666666666667</ele><time>2026-05-02T09:14:26.17Z</time></trkpt><trkpt lat="44.3701002" lon="10.6958186"><ele>971.5</ele><time>2026-05-02T09:14:27.203Z</time></trkpt><trkpt lat="44.37009" lon="10.6957305"><ele>973.3333333333334</ele><time>2026-05-02T09:14:28.23Z</time></trkpt><trkpt lat="44.3700452" lon="10.6955644"><ele>975.1666666666667</ele><time>2026-05-02T09:14:30.215Z</time></trkpt><trkpt lat="44.370016" lon="10.6954743"><ele>977.0</ele><time>2026-05-02T09:14:31.184Z</time></trkpt><trkpt lat="44.3699936" lon="10.6953782"><ele>977.0000000000001</ele><time>2026-05-02T09:14:32.213Z</time></trkpt><trkpt lat="44.3699796" lon="10.6952852"><ele>977.0</ele><time>2026-05-02T09:14:33.216Z</time></trkpt><trkpt lat="44.3699613" lon="10.695147"><ele>977.0</ele><time>2026-05-02T09:14:35.204Z</time></trkpt><trkpt lat="44.3699613" lon="10.6950515"><ele>977.0</ele><time>2026-05-02T09:14:37.163Z</time></trkpt><trkpt lat="44.3699833" lon="10.6949654"><ele>977.0000000000001</ele><time>2026-05-02T09:14:40.196Z</time></trkpt><trkpt lat="44.3699728" lon="10.6948109"><ele>977.0</ele><time>2026-05-02T09:14:52.192Z</time></trkpt><trkpt lat="44.3699701" lon="10.6946348"><ele>979.1428571428573</ele><time>2026-05-02T09:14:54.219Z</time></trkpt><trkpt lat="44.3699779" lon="10.6945405"><ele>981.2857142857143</ele><time>2026-05-02T09:14:55.213Z</time></trkpt><trkpt lat="44.3699943" lon="10.6944482"><ele>983.4285714285716</ele><time>2026-05-02T09:14:56.148Z</time></trkpt><trkpt lat="44.3700172" lon="10.694357"><ele>985.5714285714287</ele><time>2026-05-02T09:14:57.183Z</time></trkpt><trkpt lat="44.3700469" lon="10.694273"><ele>987.7142857142858</ele><time>2026-05-02T09:14:58.22Z</time></trkpt><trkpt lat="44.3700833" lon="10.6941985"><ele>989.8571428571429</ele><time>2026-05-02T09:14:59.196Z</time></trkpt><trkpt lat="44.3701239" lon="10.6941308"><ele>992.0</ele><time>2026-05-02T09:15:00.192Z</time></trkpt><trkpt lat="44.3701976" lon="10.6939969"><ele>993.8333333333334</ele><time>2026-05-02T09:15:02.184Z</time></trkpt><trkpt lat="44.3702185" lon="10.6939043"><ele>995.6666666666667</ele><time>2026-05-02T09:15:03.193Z</time></trkpt><trkpt lat="44.3702266" lon="10.6937927"><ele>997.5</ele><time>2026-05-02T09:15:04.145Z</time></trkpt><trkpt lat="44.3702183" lon="10.6936659"><ele>999.3333333333333</ele><time>2026-05-02T09:15:05.224Z</time></trkpt><trkpt lat="44.3702042" lon="10.6935371"><ele>1001.1666666666666</ele><time>2026-05-02T09:15:06.204Z</time></trkpt><trkpt lat="44.3701827" lon="10.6933887"><ele>1003.0</ele><time>2026-05-02T09:15:07.187Z</time></trkpt><trkpt lat="44.3701645" lon="10.6932391"><ele>1006.0</ele><time>2026-05-02T09:15:08.187Z</time></trkpt><trkpt lat="44.3701506" lon="10.6930772"><ele>1009.0</ele><time>2026-05-02T09:15:09.204Z</time></trkpt><trkpt lat="44.3701382" lon="10.692898"><ele>1012.0</ele><time>2026-05-02T09:15:10.179Z</time></trkpt><trkpt lat="44.3701239" lon="10.6927106"><ele>1015.0</ele><time>2026-05-02T09:15:11.177Z</time></trkpt><trkpt lat="44.3701074" lon="10.692529"><ele>1016.6</ele><time>2026-05-02T09:15:12.214Z</time></trkpt><trkpt lat="44.3700907" lon="10.6923726"><ele>1018.2</ele><time>2026-05-02T09:15:13.19Z</time></trkpt><trkpt lat="44.3700734" lon="10.6922399"><ele>1019.8</ele><time>2026-05-02T09:15:14.16Z</time></trkpt><trkpt lat="44.3700551" lon="10.6921187"><ele>1021.4</ele><time>2026-05-02T09:15:15.156Z</time></trkpt><trkpt lat="44.3700418" lon="10.6919921"><ele>1023.0</ele><time>2026-05-02T09:15:16.167Z</time></trkpt><trkpt lat="44.3700414" lon="10.6918571"><ele>1024.25</ele><time>2026-05-02T09:15:17.166Z</time></trkpt><trkpt lat="44.3700515" lon="10.6917016"><ele>1025.5</ele><time>2026-05-02T09:15:18.201Z</time></trkpt><trkpt lat="44.3700717" lon="10.6915321"><ele>1026.75</ele><time>2026-05-02T09:15:19.24Z</time></trkpt><trkpt lat="44.3700985" lon="10.6913681"><ele>1028.0</ele><time>2026-05-02T09:15:20.202Z</time></trkpt><trkpt lat="44.3701281" lon="10.691212"><ele>1027.2</ele><time>2026-05-02T09:15:21.201Z</time></trkpt><trkpt lat="44.3701587" lon="10.6910625"><ele>1026.4</ele><time>2026-05-02T09:15:22.2Z</time></trkpt><trkpt lat="44.3701894" lon="10.6909184"><ele>1025.6000000000001</ele><time>2026-05-02T09:15:23.194Z</time></trkpt><trkpt lat="44.3702167" lon="10.690778"><ele>1024.8</ele><time>2026-05-02T09:15:24.199Z</time></trkpt><trkpt lat="44.3702397" lon="10.6906443"><ele>1024.0</ele><time>2026-05-02T09:15:25.185Z</time></trkpt><trkpt lat="44.3702576" lon="10.6905253"><ele>1023.9999999999999</ele><time>2026-05-02T09:15:26.192Z</time></trkpt><trkpt lat="44.3702772" lon="10.6904186"><ele>1024.0</ele><time>2026-05-02T09:15:27.129Z</time></trkpt><trkpt lat="44.3702938" lon="10.6903257"><ele>1024.0</ele><time>2026-05-02T09:15:28.13Z</time></trkpt><trkpt lat="44.3703042" lon="10.6902319"><ele>1024.0</ele><time>2026-05-02T09:15:29.213Z</time></trkpt><trkpt lat="44.3703087" lon="10.6901438"><ele>1023.9999999999999</ele><time>2026-05-02T09:15:30.244Z</time></trkpt><trkpt lat="44.3703461" lon="10.6899753"><ele>1024.0</ele><time>2026-05-02T09:15:32.195Z</time></trkpt><trkpt lat="44.3703736" lon="10.6898926"><ele>1023.4999999999999</ele><time>2026-05-02T09:15:33.211Z</time></trkpt><trkpt lat="44.3703884" lon="10.6897607"><ele>1023.0</ele><time>2026-05-02T09:15:35.17Z</time></trkpt><trkpt lat="44.3703691" lon="10.6896044"><ele>1022.5</ele><time>2026-05-02T09:15:37.193Z</time></trkpt><trkpt lat="44.3703508" lon="10.6895068"><ele>1022.0</ele><time>2026-05-02T09:15:38.202Z</time></trkpt><trkpt lat="44.3703322" lon="10.6894055"><ele>1021.4999999999999</ele><time>2026-05-02T09:15:39.183Z</time></trkpt><trkpt lat="44.3703228" lon="10.6892893"><ele>1021.0</ele><time>2026-05-02T09:15:40.192Z</time></trkpt><trkpt lat="44.3703147" lon="10.6891832"><ele>1021.0</ele><time>2026-05-02T09:15:41.237Z</time></trkpt><trkpt lat="44.3703051" lon="10.6890905"><ele>1021.0</ele><time>2026-05-02T09:15:42.231Z</time></trkpt><trkpt lat="44.3702914" lon="10.6890016"><ele>1021.0</ele><time>2026-05-02T09:15:43.196Z</time></trkpt><trkpt lat="44.3702716" lon="10.6889046"><ele>1021.0</ele><time>2026-05-02T09:15:44.196Z</time></trkpt><trkpt lat="44.370248" lon="10.6888094"><ele>1021.0</ele><time>2026-05-02T09:15:45.172Z</time></trkpt><trkpt lat="44.3702208" lon="10.6887189"><ele>1021.0</ele><time>2026-05-02T09:15:46.192Z</time></trkpt><trkpt lat="44.370191" lon="10.6886347"><ele>1021.0</ele><time>2026-05-02T09:15:47.204Z</time></trkpt><trkpt lat="44.3701331" lon="10.6884869"><ele>1020.4</ele><time>2026-05-02T09:15:49.214Z</time></trkpt><trkpt lat="44.3700662" lon="10.6883853"><ele>1019.8</ele><time>2026-05-02T09:15:51.193Z</time></trkpt><trkpt lat="44.3699942" lon="10.6883204"><ele>1019.1999999999999</ele><time>2026-05-02T09:15:53.193Z</time></trkpt><trkpt lat="44.369917" lon="10.6882643"><ele>1018.5999999999999</ele><time>2026-05-02T09:15:55.222Z</time></trkpt><trkpt lat="44.3698242" lon="10.688199"><ele>1018.0</ele><time>2026-05-02T09:15:57.184Z</time></trkpt><trkpt lat="44.3697263" lon="10.688123"><ele>1017.4</ele><time>2026-05-02T09:15:59.192Z</time></trkpt><trkpt lat="44.3696397" lon="10.6880406"><ele>1016.8</ele><time>2026-05-02T09:16:01.172Z</time></trkpt><trkpt lat="44.3695731" lon="10.6879368"><ele>1016.2</ele><time>2026-05-02T09:16:03.208Z</time></trkpt><trkpt lat="44.3694879" lon="10.6878208"><ele>1015.6</ele><time>2026-05-02T09:16:05.174Z</time></trkpt><trkpt lat="44.3694163" lon="10.6877102"><ele>1015.0</ele><time>2026-05-02T09:16:07.192Z</time></trkpt><trkpt lat="44.3693713" lon="10.6875587"><ele>1014.9999999999999</ele><time>2026-05-02T09:16:09.199Z</time></trkpt><trkpt lat="44.3693441" lon="10.6874321"><ele>1015.0</ele><time>2026-05-02T09:16:11.182Z</time></trkpt><trkpt lat="44.3693233" lon="10.6873316"><ele>1015.0</ele><time>2026-05-02T09:16:16.2Z</time></trkpt><trkpt lat="44.369303" lon="10.687248"><ele>1015.0</ele><time>2026-05-02T09:16:18.21Z</time></trkpt><trkpt lat="44.3692899" lon="10.6871415"><ele>1014.9999999999999</ele><time>2026-05-02T09:16:28.21Z</time></trkpt><trkpt lat="44.3692788" lon="10.6870316"><ele>1015.0</ele><time>2026-05-02T09:16:30.236Z</time></trkpt><trkpt lat="44.3692631" lon="10.6868917"><ele>1015.4999999999999</ele><time>2026-05-02T09:16:32.214Z</time></trkpt><trkpt lat="44.3692383" lon="10.6867713"><ele>1016.0</ele><time>2026-05-02T09:16:34.197Z</time></trkpt><trkpt lat="44.3691647" lon="10.6866858"><ele>1016.5</ele><time>2026-05-02T09:16:36.243Z</time></trkpt><trkpt lat="44.3691033" lon="10.6866419"><ele>1017.0</ele><time>2026-05-02T09:16:37.196Z</time></trkpt><trkpt lat="44.3690468" lon="10.6866024"><ele>1017.4999999999999</ele><time>2026-05-02T09:16:38.199Z</time></trkpt><trkpt lat="44.3689327" lon="10.6865194"><ele>1018.0</ele><time>2026-05-02T09:16:40.185Z</time></trkpt><trkpt lat="44.3688183" lon="10.6864731"><ele>1016.8571428571427</ele><time>2026-05-02T09:16:42.201Z</time></trkpt><trkpt lat="44.3687499" lon="10.6864543"><ele>1015.7142857142857</ele><time>2026-05-02T09:16:43.181Z</time></trkpt><trkpt lat="44.3686854" lon="10.6864272"><ele>1014.5714285714284</ele><time>2026-05-02T09:16:44.2Z</time></trkpt><trkpt lat="44.3686207" lon="10.6864054"><ele>1013.4285714285713</ele><time>2026-05-02T09:16:45.19Z</time></trkpt><trkpt lat="44.3685534" lon="10.686406"><ele>1012.2857142857142</ele><time>2026-05-02T09:16:46.181Z</time></trkpt><trkpt lat="44.3684914" lon="10.6864239"><ele>1011.1428571428571</ele><time>2026-05-02T09:16:47.199Z</time></trkpt><trkpt lat="44.3684175" lon="10.6864375"><ele>1010.0</ele><time>2026-05-02T09:16:48.199Z</time></trkpt><trkpt lat="44.3683363" lon="10.6864527"><ele>1010.0</ele><time>2026-05-02T09:16:49.198Z</time></trkpt><trkpt lat="44.3682579" lon="10.6864652"><ele>1009.9999999999999</ele><time>2026-05-02T09:16:50.203Z</time></trkpt><trkpt lat="44.3681838" lon="10.6864775"><ele>1010.0</ele><time>2026-05-02T09:16:51.19Z</time></trkpt><trkpt lat="44.3681167" lon="10.6864897"><ele>1010.0</ele><time>2026-05-02T09:16:52.197Z</time></trkpt><trkpt lat="44.3680489" lon="10.686499"><ele>1009.9999999999999</ele><time>2026-05-02T09:16:53.24Z</time></trkpt><trkpt lat="44.3679843" lon="10.6865057"><ele>1010.0</ele><time>2026-05-02T09:16:54.191Z</time></trkpt><trkpt lat="44.3679145" lon="10.6865134"><ele>1010.0</ele><time>2026-05-02T09:16:55.198Z</time></trkpt><trkpt lat="44.3678403" lon="10.6865239"><ele>1008.8</ele><time>2026-05-02T09:16:56.161Z</time></trkpt><trkpt lat="44.3677648" lon="10.6865362"><ele>1007.6</ele><time>2026-05-02T09:16:57.186Z</time></trkpt><trkpt lat="44.3676785" lon="10.6865557"><ele>1006.4000000000001</ele><time>2026-05-02T09:16:58.18Z</time></trkpt><trkpt lat="44.3675805" lon="10.6865749"><ele>1005.2</ele><time>2026-05-02T09:16:59.219Z</time></trkpt><trkpt lat="44.3674792" lon="10.6865895"><ele>1004.0</ele><time>2026-05-02T09:17:00.133Z</time></trkpt><trkpt lat="44.3673877" lon="10.6865957"><ele>1004.0000000000001</ele><time>2026-05-02T09:17:01.19Z</time></trkpt><trkpt lat="44.3672892" lon="10.6866001"><ele>1004.0</ele><time>2026-05-02T09:17:02.199Z</time></trkpt><trkpt lat="44.3671936" lon="10.6866086"><ele>1004.0</ele><time>2026-05-02T09:17:03.194Z</time></trkpt><trkpt lat="44.3671077" lon="10.6866228"><ele>1004.0</ele><time>2026-05-02T09:17:04.154Z</time></trkpt><trkpt lat="44.3670282" lon="10.6866329"><ele>1004.0000000000001</ele><time>2026-05-02T09:17:05.185Z</time></trkpt><trkpt lat="44.3669484" lon="10.686641"><ele>1004.0</ele><time>2026-05-02T09:17:06.202Z</time></trkpt><trkpt lat="44.3668677" lon="10.6866503"><ele>1003.5000000000001</ele><time>2026-05-02T09:17:07.186Z</time></trkpt><trkpt lat="44.3667861" lon="10.6866612"><ele>1003.0</ele><time>2026-05-02T09:17:08.164Z</time></trkpt><trkpt lat="44.3667043" lon="10.6866768"><ele>1002.5</ele><time>2026-05-02T09:17:09.245Z</time></trkpt><trkpt lat="44.3666225" lon="10.6866942"><ele>1002.0</ele><time>2026-05-02T09:17:10.179Z</time></trkpt><trkpt lat="44.3665384" lon="10.6867085"><ele>1001.5000000000001</ele><time>2026-05-02T09:17:11.187Z</time></trkpt><trkpt lat="44.3664507" lon="10.6867281"><ele>1001.0</ele><time>2026-05-02T09:17:12.196Z</time></trkpt><trkpt lat="44.3663571" lon="10.6867502"><ele>1000.0</ele><time>2026-05-02T09:17:13.19Z</time></trkpt><trkpt lat="44.3662518" lon="10.6867759"><ele>998.9999999999999</ele><time>2026-05-02T09:17:14.179Z</time></trkpt><trkpt lat="44.366143" lon="10.6867853"><ele>997.9999999999999</ele><time>2026-05-02T09:17:15.2Z</time></trkpt><trkpt lat="44.3660426" lon="10.6867738"><ele>997.0</ele><time>2026-05-02T09:17:16.199Z</time></trkpt><trkpt lat="44.3659563" lon="10.6867553"><ele>996.0</ele><time>2026-05-02T09:17:17.197Z</time></trkpt><trkpt lat="44.3658772" lon="10.6867468"><ele>996.0</ele><time>2026-05-02T09:17:18.192Z</time></trkpt><trkpt lat="44.3658021" lon="10.6867526"><ele>996.0</ele><time>2026-05-02T09:17:19.201Z</time></trkpt><trkpt lat="44.3657273" lon="10.6867761"><ele>996.0</ele><time>2026-05-02T09:17:20.204Z</time></trkpt><trkpt lat="44.3656551" lon="10.6868081"><ele>996.0</ele><time>2026-05-02T09:17:21.195Z</time></trkpt><trkpt lat="44.365579" lon="10.6868436"><ele>996.0</ele><time>2026-05-02T09:17:22.186Z</time></trkpt><trkpt lat="44.3655025" lon="10.6868783"><ele>996.0</ele><time>2026-05-02T09:17:23.2Z</time></trkpt><trkpt lat="44.3654244" lon="10.6869144"><ele>994.6666666666666</ele><time>2026-05-02T09:17:24.182Z</time></trkpt><trkpt lat="44.3653425" lon="10.6869484"><ele>993.3333333333333</ele><time>2026-05-02T09:17:25.213Z</time></trkpt><trkpt lat="44.3652565" lon="10.6869782"><ele>992.0</ele><time>2026-05-02T09:17:26.19Z</time></trkpt><trkpt lat="44.365168" lon="10.6870043"><ele>990.6666666666666</ele><time>2026-05-02T09:17:27.196Z</time></trkpt><trkpt lat="44.3650796" lon="10.6870298"><ele>989.3333333333333</ele><time>2026-05-02T09:17:28.191Z</time></trkpt><trkpt lat="44.3649917" lon="10.6870575"><ele>988.0</ele><time>2026-05-02T09:17:29.211Z</time></trkpt><trkpt lat="44.3649039" lon="10.6870919"><ele>988.0</ele><time>2026-05-02T09:17:30.174Z</time></trkpt><trkpt lat="44.364817" lon="10.6871253"><ele>988.0</ele><time>2026-05-02T09:17:31.205Z</time></trkpt><trkpt lat="44.3647284" lon="10.6871607"><ele>988.0</ele><time>2026-05-02T09:17:32.205Z</time></trkpt><trkpt lat="44.3646376" lon="10.6871967"><ele>988.0</ele><time>2026-05-02T09:17:33.158Z</time></trkpt><trkpt lat="44.364545" lon="10.6872352"><ele>988.0</ele><time>2026-05-02T09:17:34.206Z</time></trkpt><trkpt lat="44.3644584" lon="10.6872672"><ele>987.4</ele><time>2026-05-02T09:17:35.196Z</time></trkpt><trkpt lat="44.3643674" lon="10.6873018"><ele>986.8</ele><time>2026-05-02T09:17:36.198Z</time></trkpt><trkpt lat="44.3642838" lon="10.6873385"><ele>986.2</ele><time>2026-05-02T09:17:37.184Z</time></trkpt><trkpt lat="44.3642144" lon="10.6873765"><ele>985.6</ele><time>2026-05-02T09:17:38.149Z</time></trkpt><trkpt lat="44.3641111" lon="10.6874396"><ele>985.0</ele><time>2026-05-02T09:17:40.155Z</time></trkpt><trkpt lat="44.3640342" lon="10.6874875"><ele>985.0</ele><time>2026-05-02T09:17:42.259Z</time></trkpt><trkpt lat="44.3639528" lon="10.687538"><ele>985.0</ele><time>2026-05-02T09:17:44.192Z</time></trkpt><trkpt lat="44.3638275" lon="10.6876096"><ele>985.0</ele><time>2026-05-02T09:17:46.145Z</time></trkpt><trkpt lat="44.3637482" lon="10.6876421"><ele>985.0</ele><time>2026-05-02T09:17:47.171Z</time></trkpt><trkpt lat="44.3636767" lon="10.6876759"><ele>985.0</ele><time>2026-05-02T09:17:48.233Z</time></trkpt><trkpt lat="44.3636087" lon="10.6877073"><ele>984.9999999999999</ele><time>2026-05-02T09:17:49.202Z</time></trkpt><trkpt lat="44.3635423" lon="10.6877351"><ele>985.0</ele><time>2026-05-02T09:17:50.194Z</time></trkpt><trkpt lat="44.363468" lon="10.6877596"><ele>985.0</ele><time>2026-05-02T09:17:51.224Z</time></trkpt><trkpt lat="44.3633812" lon="10.6877768"><ele>985.0</ele><time>2026-05-02T09:17:52.213Z</time></trkpt><trkpt lat="44.3632958" lon="10.6877868"><ele>984.9999999999999</ele><time>2026-05-02T09:17:53.158Z</time></trkpt><trkpt lat="44.3632151" lon="10.6877918"><ele>985.0</ele><time>2026-05-02T09:17:54.153Z</time></trkpt><trkpt lat="44.3631402" lon="10.6877947"><ele>984.9999999999999</ele><time>2026-05-02T09:17:55.223Z</time></trkpt><trkpt lat="44.3630684" lon="10.6877978"><ele>985.0</ele><time>2026-05-02T09:17:56.195Z</time></trkpt><trkpt lat="44.3629955" lon="10.6877999"><ele>985.0</ele><time>2026-05-02T09:17:57.212Z</time></trkpt><trkpt lat="44.3629229" lon="10.687808"><ele>985.0</ele><time>2026-05-02T09:17:58.194Z</time></trkpt><trkpt lat="44.3628495" lon="10.6878284"><ele>984.9999999999999</ele><time>2026-05-02T09:17:59.199Z</time></trkpt><trkpt lat="44.3627708" lon="10.6878646"><ele>985.0</ele><time>2026-05-02T09:18:00.218Z</time></trkpt><trkpt lat="44.3626863" lon="10.6879097"><ele>984.3333333333333</ele><time>2026-05-02T09:18:01.195Z</time></trkpt><trkpt lat="44.3626072" lon="10.6879529"><ele>983.6666666666666</ele><time>2026-05-02T09:18:02.22Z</time></trkpt><trkpt lat="44.3625333" lon="10.6879891"><ele>983.0</ele><time>2026-05-02T09:18:03.201Z</time></trkpt><trkpt lat="44.3624613" lon="10.6880181"><ele>982.3333333333333</ele><time>2026-05-02T09:18:04.234Z</time></trkpt><trkpt lat="44.3623853" lon="10.6880431"><ele>981.6666666666666</ele><time>2026-05-02T09:18:05.203Z</time></trkpt><trkpt lat="44.3623072" lon="10.6880684"><ele>981.0</ele><time>2026-05-02T09:18:06.218Z</time></trkpt><trkpt lat="44.3622336" lon="10.6880948"><ele>980.4</ele><time>2026-05-02T09:18:07.209Z</time></trkpt><trkpt lat="44.3621693" lon="10.6881198"><ele>979.8</ele><time>2026-05-02T09:18:08.226Z</time></trkpt><trkpt lat="44.3620597" lon="10.6881879"><ele>979.1999999999999</ele><time>2026-05-02T09:18:10.167Z</time></trkpt><trkpt lat="44.3619589" lon="10.6882795"><ele>978.5999999999999</ele><time>2026-05-02T09:18:12.205Z</time></trkpt><trkpt lat="44.3619109" lon="10.6883429"><ele>978.0</ele><time>2026-05-02T09:18:13.207Z</time></trkpt><trkpt lat="44.3618429" lon="10.6884043"><ele>978.0</ele><time>2026-05-02T09:18:14.165Z</time></trkpt><trkpt lat="44.3617699" lon="10.6884581"><ele>978.0</ele><time>2026-05-02T09:18:15.227Z</time></trkpt><trkpt lat="44.3617003" lon="10.6885048"><ele>978.0</ele><time>2026-05-02T09:18:16.195Z</time></trkpt><trkpt lat="44.3616305" lon="10.6885526"><ele>978.0</ele><time>2026-05-02T09:18:17.202Z</time></trkpt><trkpt lat="44.3615576" lon="10.6886058"><ele>978.0</ele><time>2026-05-02T09:18:18.188Z</time></trkpt><trkpt lat="44.3614964" lon="10.688654"><ele>978.0</ele><time>2026-05-02T09:18:19.195Z</time></trkpt><trkpt lat="44.3614432" lon="10.6887086"><ele>978.0</ele><time>2026-05-02T09:18:20.207Z</time></trkpt><trkpt lat="44.3613947" lon="10.6887729"><ele>978.0</ele><time>2026-05-02T09:18:21.261Z</time></trkpt><trkpt lat="44.3613445" lon="10.6888523"><ele>978.0</ele><time>2026-05-02T09:18:22.207Z</time></trkpt><trkpt lat="44.3612922" lon="10.6889437"><ele>978.0</ele><time>2026-05-02T09:18:23.198Z</time></trkpt><trkpt lat="44.3612443" lon="10.6890366"><ele>978.0</ele><time>2026-05-02T09:18:24.186Z</time></trkpt><trkpt lat="44.3612032" lon="10.6891366"><ele>978.0</ele><time>2026-05-02T09:18:25.177Z</time></trkpt><trkpt lat="44.361169" lon="10.6892383"><ele>978.0</ele><time>2026-05-02T09:18:26.182Z</time></trkpt><trkpt lat="44.3611398" lon="10.6893323"><ele>978.0</ele><time>2026-05-02T09:18:27.242Z</time></trkpt><trkpt lat="44.3610977" lon="10.6894707"><ele>978.0</ele><time>2026-05-02T09:18:29.204Z</time></trkpt><trkpt lat="44.3610819" lon="10.6895607"><ele>978.0</ele><time>2026-05-02T09:18:32.172Z</time></trkpt><trkpt lat="44.3611586" lon="10.6895702"><ele>978.0</ele><time>2026-05-02T09:18:35.189Z</time></trkpt><trkpt lat="44.3612006" lon="10.6896587"><ele>978.0</ele><time>2026-05-02T09:18:38.183Z</time></trkpt><trkpt lat="44.3611593" lon="10.6897699"><ele>978.4</ele><time>2026-05-02T09:18:40.179Z</time></trkpt><trkpt lat="44.3611133" lon="10.6898461"><ele>978.8</ele><time>2026-05-02T09:18:41.194Z</time></trkpt><trkpt lat="44.3610016" lon="10.6899414"><ele>979.2</ele><time>2026-05-02T09:18:43.145Z</time></trkpt><trkpt lat="44.3609339" lon="10.69"><ele>979.6</ele><time>2026-05-02T09:18:44.177Z</time></trkpt><trkpt lat="44.3608571" lon="10.6900664"><ele>980.0</ele><time>2026-05-02T09:18:45.239Z</time></trkpt><trkpt lat="44.3607809" lon="10.6901365"><ele>980.0000000000001</ele><time>2026-05-02T09:18:46.194Z</time></trkpt><trkpt lat="44.3607096" lon="10.6902013"><ele>980.0</ele><time>2026-05-02T09:18:47.183Z</time></trkpt><trkpt lat="44.360641" lon="10.6902645"><ele>980.0</ele><time>2026-05-02T09:18:48.193Z</time></trkpt><trkpt lat="44.3605777" lon="10.6903279"><ele>980.0</ele><time>2026-05-02T09:18:49.181Z</time></trkpt><trkpt lat="44.3605207" lon="10.6903986"><ele>980.0000000000001</ele><time>2026-05-02T09:18:50.195Z</time></trkpt><trkpt lat="44.3604703" lon="10.6904814"><ele>980.0</ele><time>2026-05-02T09:18:51.189Z</time></trkpt><trkpt lat="44.36042" lon="10.6905655"><ele>980.2</ele><time>2026-05-02T09:18:52.204Z</time></trkpt><trkpt lat="44.3603788" lon="10.6906579"><ele>980.4</ele><time>2026-05-02T09:18:53.195Z</time></trkpt><trkpt lat="44.3603424" lon="10.6907429"><ele>980.5999999999999</ele><time>2026-05-02T09:18:54.192Z</time></trkpt><trkpt lat="44.3602783" lon="10.6908704"><ele>980.8</ele><time>2026-05-02T09:18:56.2Z</time></trkpt><trkpt lat="44.3602144" lon="10.6909929"><ele>981.0</ele><time>2026-05-02T09:18:58.202Z</time></trkpt><trkpt lat="44.3601277" lon="10.6911041"><ele>979.8</ele><time>2026-05-02T09:19:00.17Z</time></trkpt><trkpt lat="44.3600247" lon="10.6911921"><ele>978.5999999999999</ele><time>2026-05-02T09:19:02.202Z</time></trkpt><trkpt lat="44.3599124" lon="10.6912872"><ele>977.4</ele><time>2026-05-02T09:19:04.201Z</time></trkpt><trkpt lat="44.3598539" lon="10.6913402"><ele>976.2</ele><time>2026-05-02T09:19:05.196Z</time></trkpt><trkpt lat="44.3598028" lon="10.69141"><ele>975.0</ele><time>2026-05-02T09:19:06.194Z</time></trkpt><trkpt lat="44.3597501" lon="10.691484"><ele>975.0</ele><time>2026-05-02T09:19:07.158Z</time></trkpt><trkpt lat="44.3597128" lon="10.6915781"><ele>975.0</ele><time>2026-05-02T09:19:08.196Z</time></trkpt><trkpt lat="44.359683" lon="10.6916612"><ele>975.0</ele><time>2026-05-02T09:19:09.183Z</time></trkpt><trkpt lat="44.3596571" lon="10.6917502"><ele>975.0</ele><time>2026-05-02T09:19:10.212Z</time></trkpt><trkpt lat="44.359629" lon="10.6918388"><ele>975.0</ele><time>2026-05-02T09:19:11.202Z</time></trkpt><trkpt lat="44.359599" lon="10.6919166"><ele>975.0</ele><time>2026-05-02T09:19:12.182Z</time></trkpt><trkpt lat="44.3595515" lon="10.6920652"><ele>977.6</ele><time>2026-05-02T09:19:14.202Z</time></trkpt><trkpt lat="44.3595238" lon="10.6922018"><ele>980.2</ele><time>2026-05-02T09:19:16.198Z</time></trkpt><trkpt lat="44.359528" lon="10.6923351"><ele>982.8</ele><time>2026-05-02T09:19:18.214Z</time></trkpt><trkpt lat="44.3595395" lon="10.6924809"><ele>985.4</ele><time>2026-05-02T09:19:20.202Z</time></trkpt><trkpt lat="44.3595556" lon="10.6926359"><ele>988.0</ele><time>2026-05-02T09:19:22.189Z</time></trkpt><trkpt lat="44.3595676" lon="10.6928049"><ele>987.9999999999999</ele><time>2026-05-02T09:19:24.193Z</time></trkpt><trkpt lat="44.3595676" lon="10.6929012"><ele>988.0</ele><time>2026-05-02T09:19:25.189Z</time></trkpt><trkpt lat="44.3595677" lon="10.6929984"><ele>988.0</ele><time>2026-05-02T09:19:26.204Z</time></trkpt><trkpt lat="44.359565" lon="10.6930899"><ele>988.0</ele><time>2026-05-02T09:19:27.202Z</time></trkpt><trkpt lat="44.3595513" lon="10.6932516"><ele>987.9999999999999</ele><time>2026-05-02T09:19:29.181Z</time></trkpt><trkpt lat="44.3594963" lon="10.6934144"><ele>988.0</ele><time>2026-05-02T09:19:31.191Z</time></trkpt><trkpt lat="44.3594613" lon="10.693499"><ele>987.3333333333333</ele><time>2026-05-02T09:19:32.173Z</time></trkpt><trkpt lat="44.3594106" lon="10.6935969"><ele>986.6666666666666</ele><time>2026-05-02T09:19:33.194Z</time></trkpt><trkpt lat="44.3593421" lon="10.6937174"><ele>986.0</ele><time>2026-05-02T09:19:34.194Z</time></trkpt><trkpt lat="44.3592836" lon="10.6938282"><ele>985.3333333333333</ele><time>2026-05-02T09:19:35.195Z</time></trkpt><trkpt lat="44.3592237" lon="10.693912"><ele>984.6666666666666</ele><time>2026-05-02T09:19:36.19Z</time></trkpt><trkpt lat="44.359175" lon="10.6939769"><ele>984.0</ele><time>2026-05-02T09:19:37.195Z</time></trkpt><trkpt lat="44.3590972" lon="10.6941033"><ele>984.0</ele><time>2026-05-02T09:19:39.197Z</time></trkpt><trkpt lat="44.3590152" lon="10.6942236"><ele>984.0</ele><time>2026-05-02T09:19:41.187Z</time></trkpt><trkpt lat="44.3589833" lon="10.6943126"><ele>984.0</ele><time>2026-05-02T09:19:42.177Z</time></trkpt><trkpt lat="44.3589471" lon="10.6944102"><ele>984.0</ele><time>2026-05-02T09:19:43.198Z</time></trkpt><trkpt lat="44.3589133" lon="10.6945072"><ele>984.0</ele><time>2026-05-02T09:19:44.196Z</time></trkpt><trkpt lat="44.3588668" lon="10.6946011"><ele>984.0</ele><time>2026-05-02T09:19:45.186Z</time></trkpt><trkpt lat="44.3588099" lon="10.694687"><ele>984.0</ele><time>2026-05-02T09:19:46.191Z</time></trkpt><trkpt lat="44.3587519" lon="10.694763"><ele>984.0</ele><time>2026-05-02T09:19:47.192Z</time></trkpt><trkpt lat="44.3586915" lon="10.6948257"><ele>984.0</ele><time>2026-05-02T09:19:48.205Z</time></trkpt><trkpt lat="44.3586235" lon="10.6949085"><ele>984.0</ele><time>2026-05-02T09:19:50.192Z</time></trkpt><trkpt lat="44.3585699" lon="10.6949964"><ele>984.0</ele><time>2026-05-02T09:19:52.186Z</time></trkpt><trkpt lat="44.3584877" lon="10.6950586"><ele>984.0</ele><time>2026-05-02T09:19:54.215Z</time></trkpt><trkpt lat="44.3583733" lon="10.6950935"><ele>984.0000000000001</ele><time>2026-05-02T09:19:56.197Z</time></trkpt><trkpt lat="44.3583058" lon="10.6951035"><ele>984.0</ele><time>2026-05-02T09:19:57.205Z</time></trkpt><trkpt lat="44.3582326" lon="10.6951139"><ele>984.0000000000001</ele><time>2026-05-02T09:19:58.207Z</time></trkpt><trkpt lat="44.3581581" lon="10.6951323"><ele>984.0000000000001</ele><time>2026-05-02T09:19:59.198Z</time></trkpt><trkpt lat="44.3580854" lon="10.6951565"><ele>984.0</ele><time>2026-05-02T09:20:00.184Z</time></trkpt><trkpt lat="44.3580153" lon="10.6951893"><ele>984.0000000000001</ele><time>2026-05-02T09:20:01.27Z</time></trkpt><trkpt lat="44.3579498" lon="10.6952256"><ele>984.0000000000001</ele><time>2026-05-02T09:20:02.215Z</time></trkpt><trkpt lat="44.3578857" lon="10.6952597"><ele>983.5</ele><time>2026-05-02T09:20:03.224Z</time></trkpt><trkpt lat="44.3578256" lon="10.6953058"><ele>983.0</ele><time>2026-05-02T09:20:04.148Z</time></trkpt><trkpt lat="44.3577641" lon="10.6953594"><ele>982.5</ele><time>2026-05-02T09:20:05.166Z</time></trkpt><trkpt lat="44.3576978" lon="10.6954327"><ele>982.0</ele><time>2026-05-02T09:20:06.206Z</time></trkpt><trkpt lat="44.3576333" lon="10.6955132"><ele>981.5</ele><time>2026-05-02T09:20:07.284Z</time></trkpt><trkpt lat="44.3575773" lon="10.6955936"><ele>981.0</ele><time>2026-05-02T09:20:08.198Z</time></trkpt><trkpt lat="44.35752" lon="10.6956726"><ele>981.0</ele><time>2026-05-02T09:20:09.222Z</time></trkpt><trkpt lat="44.3574616" lon="10.695752"><ele>981.0</ele><time>2026-05-02T09:20:10.223Z</time></trkpt><trkpt lat="44.3574101" lon="10.6958232"><ele>981.0</ele><time>2026-05-02T09:20:11.196Z</time></trkpt><trkpt lat="44.3573576" lon="10.695902"><ele>981.0</ele><time>2026-05-02T09:20:12.216Z</time></trkpt><trkpt lat="44.3573145" lon="10.6959806"><ele>981.0</ele><time>2026-05-02T09:20:13.174Z</time></trkpt><trkpt lat="44.3572515" lon="10.6961106"><ele>981.0</ele><time>2026-05-02T09:20:15.224Z</time></trkpt><trkpt lat="44.3571983" lon="10.696218"><ele>983.6666666666666</ele><time>2026-05-02T09:20:17.196Z</time></trkpt><trkpt lat="44.3571662" lon="10.6963233"><ele>986.3333333333333</ele><time>2026-05-02T09:20:19.197Z</time></trkpt><trkpt lat="44.3571524" lon="10.6964277"><ele>989.0</ele><time>2026-05-02T09:20:21.194Z</time></trkpt><trkpt lat="44.3571124" lon="10.69655"><ele>991.6666666666666</ele><time>2026-05-02T09:20:23.19Z</time></trkpt><trkpt lat="44.3570743" lon="10.6966265"><ele>994.3333333333333</ele><time>2026-05-02T09:20:25.214Z</time></trkpt><trkpt lat="44.3570175" lon="10.6966904"><ele>997.0</ele><time>2026-05-02T09:20:42.203Z</time></trkpt><trkpt lat="44.3569368" lon="10.6967075"><ele>996.9999999999999</ele><time>2026-05-02T09:20:45.208Z</time></trkpt><trkpt lat="44.3568853" lon="10.6967669"><ele>997.0</ele><time>2026-05-02T09:20:49.204Z</time></trkpt><trkpt lat="44.3569269" lon="10.6968759"><ele>997.0</ele><time>2026-05-02T09:20:52.187Z</time></trkpt><trkpt lat="44.3569363" lon="10.6969732"><ele>997.0</ele><time>2026-05-02T09:20:56.209Z</time></trkpt><trkpt lat="44.3569648" lon="10.6970866"><ele>996.9999999999999</ele><time>2026-05-02T09:21:03.212Z</time></trkpt><trkpt lat="44.3569746" lon="10.6972059"><ele>997.0</ele><time>2026-05-02T09:21:14.199Z</time></trkpt><trkpt lat="44.3569502" lon="10.6972901"><ele>996.4999999999999</ele><time>2026-05-02T09:21:19.215Z</time></trkpt><trkpt lat="44.3569733" lon="10.6974104"><ele>996.0</ele><time>2026-05-02T09:21:22.26Z</time></trkpt><trkpt lat="44.3570178" lon="10.6975536"><ele>995.5</ele><time>2026-05-02T09:21:24.203Z</time></trkpt><trkpt lat="44.357061" lon="10.6976808"><ele>995.0</ele><time>2026-05-02T09:21:26.194Z</time></trkpt><trkpt lat="44.3570775" lon="10.6977681"><ele>994.4999999999999</ele><time>2026-05-02T09:21:28.198Z</time></trkpt><trkpt lat="44.3570853" lon="10.6978663"><ele>994.0</ele><time>2026-05-02T09:21:32.208Z</time></trkpt><trkpt lat="44.357071" lon="10.6979731"><ele>994.0</ele><time>2026-05-02T09:21:35.207Z</time></trkpt><trkpt lat="44.3570626" lon="10.6980884"><ele>994.0000000000001</ele><time>2026-05-02T09:21:37.184Z</time></trkpt><trkpt lat="44.3570518" lon="10.6982519"><ele>994.0000000000001</ele><time>2026-05-02T09:21:39.201Z</time></trkpt><trkpt lat="44.3570386" lon="10.6983983"><ele>994.0</ele><time>2026-05-02T09:21:41.187Z</time></trkpt><trkpt lat="44.3570364" lon="10.6985216"><ele>994.0</ele><time>2026-05-02T09:21:43.195Z</time></trkpt><trkpt lat="44.3570297" lon="10.6986467"><ele>994.4999999999999</ele><time>2026-05-02T09:21:45.179Z</time></trkpt><trkpt lat="44.3570198" lon="10.698799"><ele>995.0</ele><time>2026-05-02T09:21:47.203Z</time></trkpt><trkpt lat="44.3570133" lon="10.698901"><ele>995.5</ele><time>2026-05-02T09:21:49.2Z</time></trkpt><trkpt lat="44.3570128" lon="10.6990324"><ele>996.0</ele><time>2026-05-02T09:21:51.189Z</time></trkpt><trkpt lat="44.3570119" lon="10.6991235"><ele>996.4999999999999</ele><time>2026-05-02T09:21:52.232Z</time></trkpt><trkpt lat="44.3570102" lon="10.6992174"><ele>997.0</ele><time>2026-05-02T09:21:53.201Z</time></trkpt><trkpt lat="44.3570081" lon="10.699317"><ele>996.9999999999999</ele><time>2026-05-02T09:21:54.143Z</time></trkpt><trkpt lat="44.3569957" lon="10.6994123"><ele>997.0</ele><time>2026-05-02T09:21:55.16Z</time></trkpt><trkpt lat="44.3569845" lon="10.6995072"><ele>997.0</ele><time>2026-05-02T09:21:56.175Z</time></trkpt><trkpt lat="44.3569551" lon="10.699654"><ele>997.0</ele><time>2026-05-02T09:21:58.185Z</time></trkpt><trkpt lat="44.3568923" lon="10.6997287"><ele>996.9999999999999</ele><time>2026-05-02T09:22:00.145Z</time></trkpt><trkpt lat="44.3568135" lon="10.6997999"><ele>997.0</ele><time>2026-05-02T09:22:02.215Z</time></trkpt><trkpt lat="44.3567325" lon="10.6998687"><ele>996.2</ele><time>2026-05-02T09:22:04.218Z</time></trkpt><trkpt lat="44.3566651" lon="10.6999673"><ele>995.4000000000001</ele><time>2026-05-02T09:22:06.205Z</time></trkpt><trkpt lat="44.356594" lon="10.7000655"><ele>994.5999999999999</ele><time>2026-05-02T09:22:08.173Z</time></trkpt><trkpt lat="44.3565384" lon="10.7001818"><ele>993.8</ele><time>2026-05-02T09:22:10.195Z</time></trkpt><trkpt lat="44.3564734" lon="10.7002742"><ele>993.0</ele><time>2026-05-02T09:22:12.217Z</time></trkpt><trkpt lat="44.3564081" lon="10.700308"><ele>988.25</ele><time>2026-05-02T09:22:14.182Z</time></trkpt><trkpt lat="44.3563056" lon="10.7003334"><ele>983.5</ele><time>2026-05-02T09:22:16.149Z</time></trkpt><trkpt lat="44.3561862" lon="10.7003639"><ele>978.75</ele><time>2026-05-02T09:22:18.211Z</time></trkpt><trkpt lat="44.3560658" lon="10.7003996"><ele>974.0</ele><time>2026-05-02T09:22:20.189Z</time></trkpt><trkpt lat="44.3559559" lon="10.7004552"><ele>974.0</ele><time>2026-05-02T09:22:22.236Z</time></trkpt><trkpt lat="44.3558629" lon="10.7004924"><ele>974.0000000000001</ele><time>2026-05-02T09:22:24.157Z</time></trkpt><trkpt lat="44.3557984" lon="10.7005254"><ele>974.0000000000001</ele><time>2026-05-02T09:22:26.181Z</time></trkpt><trkpt lat="44.3557638" lon="10.7006491"><ele>974.0</ele><time>2026-05-02T09:22:28.193Z</time></trkpt><trkpt lat="44.3557668" lon="10.7007949"><ele>974.0</ele><time>2026-05-02T09:22:30.186Z</time></trkpt><trkpt lat="44.3557761" lon="10.7009493"><ele>974.0000000000001</ele><time>2026-05-02T09:22:32.182Z</time></trkpt><trkpt lat="44.3557587" lon="10.7010555"><ele>974.0</ele><time>2026-05-02T09:22:34.209Z</time></trkpt><trkpt lat="44.3556745" lon="10.7011773"><ele>974.0</ele><time>2026-05-02T09:22:36.191Z</time></trkpt><trkpt lat="44.3556266" lon="10.7012562"><ele>974.0</ele><time>2026-05-02T09:22:37.189Z</time></trkpt><trkpt lat="44.3555757" lon="10.7013401"><ele>974.0000000000001</ele><time>2026-05-02T09:22:38.185Z</time></trkpt><trkpt lat="44.3555345" lon="10.7014176"><ele>974.0</ele><time>2026-05-02T09:22:39.192Z</time></trkpt><trkpt lat="44.355471" lon="10.701555"><ele>974.75</ele><time>2026-05-02T09:22:41.2Z</time></trkpt><trkpt lat="44.3554085" lon="10.7017001"><ele>975.5</ele><time>2026-05-02T09:22:43.193Z</time></trkpt><trkpt lat="44.355333" lon="10.7018201"><ele>976.25</ele><time>2026-05-02T09:22:45.197Z</time></trkpt><trkpt lat="44.3552439" lon="10.7018775"><ele>977.0</ele><time>2026-05-02T09:22:47.197Z</time></trkpt><trkpt lat="44.355131" lon="10.701979"><ele>977.0</ele><time>2026-05-02T09:22:49.207Z</time></trkpt><trkpt lat="44.3550593" lon="10.7020603"><ele>977.0</ele><time>2026-05-02T09:22:50.153Z</time></trkpt><trkpt lat="44.3550025" lon="10.7021522"><ele>977.0</ele><time>2026-05-02T09:22:51.15Z</time></trkpt><trkpt lat="44.3549502" lon="10.7022546"><ele>977.0</ele><time>2026-05-02T09:22:52.215Z</time></trkpt><trkpt lat="44.3549009" lon="10.7023658"><ele>977.0</ele><time>2026-05-02T09:22:53.222Z</time></trkpt><trkpt lat="44.3548585" lon="10.7024761"><ele>977.0000000000001</ele><time>2026-05-02T09:22:54.152Z</time></trkpt><trkpt lat="44.3548217" lon="10.7025782"><ele>977.0</ele><time>2026-05-02T09:22:55.202Z</time></trkpt><trkpt lat="44.3547937" lon="10.7026763"><ele>977.0000000000001</ele><time>2026-05-02T09:22:56.201Z</time></trkpt><trkpt lat="44.3547677" lon="10.7027696"><ele>977.0000000000001</ele><time>2026-05-02T09:22:57.192Z</time></trkpt><trkpt lat="44.3547352" lon="10.7028585"><ele>977.0</ele><time>2026-05-02T09:22:58.18Z</time></trkpt><trkpt lat="44.354699" lon="10.702938"><ele>977.0000000000001</ele><time>2026-05-02T09:22:59.211Z</time></trkpt><trkpt lat="44.3546649" lon="10.7030125"><ele>977.0000000000001</ele><time>2026-05-02T09:23:00.16Z</time></trkpt><trkpt lat="44.3546254" lon="10.7031037"><ele>976.8</ele><time>2026-05-02T09:23:02.216Z</time></trkpt><trkpt lat="44.3545476" lon="10.7030936"><ele>976.6</ele><time>2026-05-02T09:23:16.198Z</time></trkpt><trkpt lat="44.3544542" lon="10.7029838"><ele>976.3999999999999</ele><time>2026-05-02T09:23:18.197Z</time></trkpt><trkpt lat="44.3544181" lon="10.7028288"><ele>976.1999999999999</ele><time>2026-05-02T09:23:20.196Z</time></trkpt><trkpt lat="44.3544211" lon="10.7026748"><ele>976.0</ele><time>2026-05-02T09:23:22.177Z</time></trkpt><trkpt lat="44.3543987" lon="10.7025278"><ele>978.8</ele><time>2026-05-02T09:23:24.188Z</time></trkpt><trkpt lat="44.3543462" lon="10.7024527"><ele>981.5999999999999</ele><time>2026-05-02T09:23:25.206Z</time></trkpt><trkpt lat="44.3542818" lon="10.7023628"><ele>984.4</ele><time>2026-05-02T09:23:26.209Z</time></trkpt><trkpt lat="44.3542118" lon="10.702268"><ele>987.2</ele><time>2026-05-02T09:23:27.177Z</time></trkpt><trkpt lat="44.3541372" lon="10.702172"><ele>990.0</ele><time>2026-05-02T09:23:28.2Z</time></trkpt><trkpt lat="44.354062" lon="10.7020746"><ele>990.0</ele><time>2026-05-02T09:23:29.225Z</time></trkpt><trkpt lat="44.3539877" lon="10.7019754"><ele>990.0</ele><time>2026-05-02T09:23:30.18Z</time></trkpt><trkpt lat="44.3539146" lon="10.7018793"><ele>990.0</ele><time>2026-05-02T09:23:31.194Z</time></trkpt><trkpt lat="44.3538388" lon="10.7017873"><ele>990.0</ele><time>2026-05-02T09:23:32.207Z</time></trkpt><trkpt lat="44.3537631" lon="10.7016925"><ele>990.0</ele><time>2026-05-02T09:23:33.209Z</time></trkpt><trkpt lat="44.3536854" lon="10.7015873"><ele>992.2</ele><time>2026-05-02T09:23:34.222Z</time></trkpt><trkpt lat="44.3536174" lon="10.701488"><ele>994.4</ele><time>2026-05-02T09:23:35.189Z</time></trkpt><trkpt lat="44.3535604" lon="10.7013977"><ele>996.5999999999999</ele><time>2026-05-02T09:23:36.199Z</time></trkpt><trkpt lat="44.3535097" lon="10.7013119"><ele>998.8</ele><time>2026-05-02T09:23:37.196Z</time></trkpt><trkpt lat="44.3534646" lon="10.7012325"><ele>1001.0</ele><time>2026-05-02T09:23:38.205Z</time></trkpt><trkpt lat="44.3534099" lon="10.7010928"><ele>1001.6666666666667</ele><time>2026-05-02T09:23:40.231Z</time></trkpt><trkpt lat="44.35343" lon="10.7009508"><ele>1002.3333333333334</ele><time>2026-05-02T09:23:42.206Z</time></trkpt><trkpt lat="44.3534634" lon="10.7008539"><ele>1003.0</ele><time>2026-05-02T09:23:43.204Z</time></trkpt><trkpt lat="44.3534935" lon="10.7007521"><ele>1003.6666666666667</ele><time>2026-05-02T09:23:44.217Z</time></trkpt><trkpt lat="44.3535141" lon="10.700657"><ele>1004.3333333333334</ele><time>2026-05-02T09:23:45.181Z</time></trkpt><trkpt lat="44.3535261" lon="10.7005551"><ele>1005.0</ele><time>2026-05-02T09:23:46.203Z</time></trkpt><trkpt lat="44.353529" lon="10.7004419"><ele>1005.0</ele><time>2026-05-02T09:23:47.18Z</time></trkpt><trkpt lat="44.3535257" lon="10.7003302"><ele>1005.0</ele><time>2026-05-02T09:23:48.209Z</time></trkpt><trkpt lat="44.3535232" lon="10.7002243"><ele>1005.0</ele><time>2026-05-02T09:23:49.22Z</time></trkpt><trkpt lat="44.3535262" lon="10.7001305"><ele>1005.0</ele><time>2026-05-02T09:23:50.199Z</time></trkpt><trkpt lat="44.3535429" lon="10.6999616"><ele>1005.0</ele><time>2026-05-02T09:23:52.256Z</time></trkpt><trkpt lat="44.3535609" lon="10.6998747"><ele>1005.0</ele><time>2026-05-02T09:23:53.188Z</time></trkpt><trkpt lat="44.353589" lon="10.6997879"><ele>1006.3333333333334</ele><time>2026-05-02T09:23:54.207Z</time></trkpt><trkpt lat="44.3536191" lon="10.6996968"><ele>1007.6666666666667</ele><time>2026-05-02T09:23:55.197Z</time></trkpt><trkpt lat="44.3536428" lon="10.699605"><ele>1009.0</ele><time>2026-05-02T09:23:56.198Z</time></trkpt><trkpt lat="44.3536652" lon="10.6995042"><ele>1010.3333333333334</ele><time>2026-05-02T09:23:57.216Z</time></trkpt><trkpt lat="44.3536859" lon="10.6993934"><ele>1011.6666666666667</ele><time>2026-05-02T09:23:58.2Z</time></trkpt><trkpt lat="44.3537038" lon="10.6992928"><ele>1013.0</ele><time>2026-05-02T09:23:59.226Z</time></trkpt><trkpt lat="44.3537384" lon="10.6991263"><ele>1014.6666666666667</ele><time>2026-05-02T09:24:01.186Z</time></trkpt><trkpt lat="44.3537613" lon="10.699043"><ele>1016.3333333333334</ele><time>2026-05-02T09:24:02.218Z</time></trkpt><trkpt lat="44.353787" lon="10.6989579"><ele>1018.0</ele><time>2026-05-02T09:24:03.242Z</time></trkpt><trkpt lat="44.3538152" lon="10.6988754"><ele>1019.6666666666667</ele><time>2026-05-02T09:24:04.214Z</time></trkpt><trkpt lat="44.3538786" lon="10.6987268"><ele>1021.3333333333334</ele><time>2026-05-02T09:24:06.252Z</time></trkpt><trkpt lat="44.3539233" lon="10.6986549"><ele>1023.0</ele><time>2026-05-02T09:24:07.192Z</time></trkpt><trkpt lat="44.3539768" lon="10.6985657"><ele>1025.3333333333333</ele><time>2026-05-02T09:24:08.215Z</time></trkpt><trkpt lat="44.3540325" lon="10.6984675"><ele>1027.6666666666667</ele><time>2026-05-02T09:24:09.274Z</time></trkpt><trkpt lat="44.3540794" lon="10.6983852"><ele>1030.0</ele><time>2026-05-02T09:24:10.211Z</time></trkpt><trkpt lat="44.3541154" lon="10.6982979"><ele>1032.3333333333335</ele><time>2026-05-02T09:24:11.191Z</time></trkpt><trkpt lat="44.3541498" lon="10.6982007"><ele>1034.6666666666667</ele><time>2026-05-02T09:24:12.207Z</time></trkpt><trkpt lat="44.3541863" lon="10.6980922"><ele>1037.0</ele><time>2026-05-02T09:24:13.175Z</time></trkpt><trkpt lat="44.3542213" lon="10.6979973"><ele>1037.0</ele><time>2026-05-02T09:24:14.202Z</time></trkpt><trkpt lat="44.3542503" lon="10.6979083"><ele>1037.0</ele><time>2026-05-02T09:24:15.201Z</time></trkpt><trkpt lat="44.3542759" lon="10.6978115"><ele>1037.0</ele><time>2026-05-02T09:24:16.211Z</time></trkpt><trkpt lat="44.354295" lon="10.6977194"><ele>1037.0</ele><time>2026-05-02T09:24:17.18Z</time></trkpt><trkpt lat="44.3543074" lon="10.6976277"><ele>1037.0</ele><time>2026-05-02T09:24:18.213Z</time></trkpt><trkpt lat="44.3543133" lon="10.6975331"><ele>1037.0</ele><time>2026-05-02T09:24:19.181Z</time></trkpt><trkpt lat="44.3543141" lon="10.6974364"><ele>1037.0</ele><time>2026-05-02T09:24:20.202Z</time></trkpt><trkpt lat="44.3543133" lon="10.697331"><ele>1037.7142857142858</ele><time>2026-05-02T09:24:21.198Z</time></trkpt><trkpt lat="44.3543095" lon="10.6972236"><ele>1038.4285714285713</ele><time>2026-05-02T09:24:22.193Z</time></trkpt><trkpt lat="44.3543033" lon="10.6971189"><ele>1039.142857142857</ele><time>2026-05-02T09:24:23.192Z</time></trkpt><trkpt lat="44.3542958" lon="10.6970196"><ele>1039.857142857143</ele><time>2026-05-02T09:24:24.223Z</time></trkpt><trkpt lat="44.3542905" lon="10.6969231"><ele>1040.5714285714287</ele><time>2026-05-02T09:24:25.178Z</time></trkpt><trkpt lat="44.3542853" lon="10.6968261"><ele>1041.2857142857142</ele><time>2026-05-02T09:24:26.197Z</time></trkpt><trkpt lat="44.3542813" lon="10.6967091"><ele>1042.0</ele><time>2026-05-02T09:24:27.229Z</time></trkpt><trkpt lat="44.354286" lon="10.6965907"><ele>1042.0</ele><time>2026-05-02T09:24:28.214Z</time></trkpt><trkpt lat="44.3542895" lon="10.6964688"><ele>1042.0</ele><time>2026-05-02T09:24:29.202Z</time></trkpt><trkpt lat="44.3542952" lon="10.6963584"><ele>1042.0</ele><time>2026-05-02T09:24:30.219Z</time></trkpt><trkpt lat="44.3543027" lon="10.6962538"><ele>1042.0</ele><time>2026-05-02T09:24:31.18Z</time></trkpt><trkpt lat="44.3543095" lon="10.6961526"><ele>1042.0</ele><time>2026-05-02T09:24:32.217Z</time></trkpt><trkpt lat="44.3543129" lon="10.6960519"><ele>1042.0</ele><time>2026-05-02T09:24:33.278Z</time></trkpt><trkpt lat="44.3543158" lon="10.6959521"><ele>1041.6666666666665</ele><time>2026-05-02T09:24:34.199Z</time></trkpt><trkpt lat="44.3543179" lon="10.6958455"><ele>1041.3333333333333</ele><time>2026-05-02T09:24:35.222Z</time></trkpt><trkpt lat="44.3543164" lon="10.6957446"><ele>1041.0</ele><time>2026-05-02T09:24:36.219Z</time></trkpt><trkpt lat="44.3543151" lon="10.695643"><ele>1040.6666666666667</ele><time>2026-05-02T09:24:37.193Z</time></trkpt><trkpt lat="44.3543117" lon="10.6955547"><ele>1040.3333333333335</ele><time>2026-05-02T09:24:38.218Z</time></trkpt><trkpt lat="44.3542919" lon="10.6954266"><ele>1040.0</ele><time>2026-05-02T09:24:40.218Z</time></trkpt><trkpt lat="44.3542531" lon="10.6953159"><ele>1038.2</ele><time>2026-05-02T09:24:42.186Z</time></trkpt><trkpt lat="44.3542068" lon="10.6951963"><ele>1036.4</ele><time>2026-05-02T09:24:44.195Z</time></trkpt><trkpt lat="44.3541557" lon="10.6950645"><ele>1034.6</ele><time>2026-05-02T09:24:46.224Z</time></trkpt><trkpt lat="44.354089" lon="10.6949298"><ele>1032.8</ele><time>2026-05-02T09:24:48.206Z</time></trkpt><trkpt lat="44.3540188" lon="10.694801"><ele>1031.0</ele><time>2026-05-02T09:24:50.217Z</time></trkpt><trkpt lat="44.3539455" lon="10.6946779"><ele>1030.8</ele><time>2026-05-02T09:24:52.186Z</time></trkpt><trkpt lat="44.3538658" lon="10.6945577"><ele>1030.6</ele><time>2026-05-02T09:24:54.179Z</time></trkpt><trkpt lat="44.3537805" lon="10.6944339"><ele>1030.4</ele><time>2026-05-02T09:24:56.215Z</time></trkpt><trkpt lat="44.3537377" lon="10.6943683"><ele>1030.2</ele><time>2026-05-02T09:24:57.181Z</time></trkpt><trkpt lat="44.3536604" lon="10.694236"><ele>1030.0</ele><time>2026-05-02T09:24:59.184Z</time></trkpt><trkpt lat="44.3535951" lon="10.6940938"><ele>1028.7142857142858</ele><time>2026-05-02T09:25:01.206Z</time></trkpt><trkpt lat="44.3535635" lon="10.6940131"><ele>1027.4285714285713</ele><time>2026-05-02T09:25:02.213Z</time></trkpt><trkpt lat="44.3535318" lon="10.6939234"><ele>1026.142857142857</ele><time>2026-05-02T09:25:03.206Z</time></trkpt><trkpt lat="44.3535052" lon="10.6938254"><ele>1024.857142857143</ele><time>2026-05-02T09:25:04.195Z</time></trkpt><trkpt lat="44.3534815" lon="10.6937264"><ele>1023.5714285714287</ele><time>2026-05-02T09:25:05.214Z</time></trkpt><trkpt lat="44.3534566" lon="10.6936316"><ele>1022.2857142857142</ele><time>2026-05-02T09:25:06.197Z</time></trkpt><trkpt lat="44.3534224" lon="10.6935485"><ele>1021.0</ele><time>2026-05-02T09:25:07.176Z</time></trkpt><trkpt lat="44.3533697" lon="10.6934742"><ele>1020.6666666666666</ele><time>2026-05-02T09:25:08.216Z</time></trkpt><trkpt lat="44.3533046" lon="10.6934011"><ele>1020.3333333333333</ele><time>2026-05-02T09:25:09.178Z</time></trkpt><trkpt lat="44.3532345" lon="10.6933189"><ele>1020.0</ele><time>2026-05-02T09:25:10.17Z</time></trkpt><trkpt lat="44.3531695" lon="10.6932361"><ele>1019.6666666666667</ele><time>2026-05-02T09:25:11.221Z</time></trkpt><trkpt lat="44.3531136" lon="10.6931487"><ele>1019.3333333333334</ele><time>2026-05-02T09:25:12.202Z</time></trkpt><trkpt lat="44.3530647" lon="10.6930501"><ele>1019.0</ele><time>2026-05-02T09:25:13.207Z</time></trkpt><trkpt lat="44.3530164" lon="10.6929516"><ele>1017.1428571428573</ele><time>2026-05-02T09:25:14.222Z</time></trkpt><trkpt lat="44.3529782" lon="10.6928525"><ele>1015.2857142857143</ele><time>2026-05-02T09:25:15.188Z</time></trkpt><trkpt lat="44.352943" lon="10.6927598"><ele>1013.4285714285716</ele><time>2026-05-02T09:25:16.193Z</time></trkpt><trkpt lat="44.3529177" lon="10.6926701"><ele>1011.5714285714287</ele><time>2026-05-02T09:25:17.161Z</time></trkpt><trkpt lat="44.3528999" lon="10.6925759"><ele>1009.7142857142858</ele><time>2026-05-02T09:25:18.214Z</time></trkpt><trkpt lat="44.3528876" lon="10.6924723"><ele>1007.8571428571429</ele><time>2026-05-02T09:25:19.191Z</time></trkpt><trkpt lat="44.352874" lon="10.6923689"><ele>1006.0</ele><time>2026-05-02T09:25:20.171Z</time></trkpt><trkpt lat="44.3528614" lon="10.6922713"><ele>1005.4</ele><time>2026-05-02T09:25:21.196Z</time></trkpt><trkpt lat="44.3528495" lon="10.6921785"><ele>1004.8</ele><time>2026-05-02T09:25:22.224Z</time></trkpt><trkpt lat="44.3528306" lon="10.6920254"><ele>1004.1999999999999</ele><time>2026-05-02T09:25:24.192Z</time></trkpt><trkpt lat="44.3528383" lon="10.6918794"><ele>1003.5999999999999</ele><time>2026-05-02T09:25:26.185Z</time></trkpt><trkpt lat="44.352873" lon="10.6917164"><ele>1003.0</ele><time>2026-05-02T09:25:28.184Z</time></trkpt><trkpt lat="44.352839" lon="10.6915859"><ele>1002.8</ele><time>2026-05-02T09:25:30.211Z</time></trkpt><trkpt lat="44.3527275" lon="10.6915264"><ele>1002.5999999999999</ele><time>2026-05-02T09:25:32.22Z</time></trkpt><trkpt lat="44.3526154" lon="10.6915171"><ele>1002.4000000000001</ele><time>2026-05-02T09:25:34.224Z</time></trkpt><trkpt lat="44.3524938" lon="10.6914793"><ele>1002.2</ele><time>2026-05-02T09:25:36.211Z</time></trkpt><trkpt lat="44.3524279" lon="10.6914356"><ele>1002.0</ele><time>2026-05-02T09:25:37.204Z</time></trkpt><trkpt lat="44.3523625" lon="10.6913739"><ele>1002.0</ele><time>2026-05-02T09:25:38.2Z</time></trkpt><trkpt lat="44.3522954" lon="10.6913036"><ele>1002.0</ele><time>2026-05-02T09:25:39.19Z</time></trkpt><trkpt lat="44.3522266" lon="10.6912327"><ele>1002.0</ele><time>2026-05-02T09:25:40.223Z</time></trkpt><trkpt lat="44.3521599" lon="10.6911631"><ele>1002.0</ele><time>2026-05-02T09:25:41.203Z</time></trkpt><trkpt lat="44.3520952" lon="10.6910927"><ele>1002.0</ele><time>2026-05-02T09:25:42.192Z</time></trkpt><trkpt lat="44.3520326" lon="10.6910266"><ele>1002.0</ele><time>2026-05-02T09:25:43.201Z</time></trkpt><trkpt lat="44.3519753" lon="10.6909677"><ele>998.5</ele><time>2026-05-02T09:25:44.191Z</time></trkpt><trkpt lat="44.351921" lon="10.6909203"><ele>995.0</ele><time>2026-05-02T09:25:45.18Z</time></trkpt><trkpt lat="44.3518629" lon="10.6908827"><ele>991.5</ele><time>2026-05-02T09:25:46.187Z</time></trkpt><trkpt lat="44.3517982" lon="10.6908364"><ele>988.0</ele><time>2026-05-02T09:25:47.237Z</time></trkpt><trkpt lat="44.351728" lon="10.690783"><ele>984.5</ele><time>2026-05-02T09:25:48.215Z</time></trkpt><trkpt lat="44.3516459" lon="10.690712"><ele>981.0</ele><time>2026-05-02T09:25:49.22Z</time></trkpt><trkpt lat="44.3515614" lon="10.6906382"><ele>981.0</ele><time>2026-05-02T09:25:50.202Z</time></trkpt><trkpt lat="44.3514704" lon="10.6905566"><ele>980.9999999999999</ele><time>2026-05-02T09:25:51.195Z</time></trkpt><trkpt lat="44.3513822" lon="10.6904799"><ele>980.9999999999999</ele><time>2026-05-02T09:25:52.209Z</time></trkpt><trkpt lat="44.3512962" lon="10.6904039"><ele>981.0</ele><time>2026-05-02T09:25:53.183Z</time></trkpt><trkpt lat="44.3512159" lon="10.6903319"><ele>981.0</ele><time>2026-05-02T09:25:54.212Z</time></trkpt><trkpt lat="44.3511484" lon="10.6902634"><ele>979.3333333333334</ele><time>2026-05-02T09:25:55.185Z</time></trkpt><trkpt lat="44.3510903" lon="10.6901854"><ele>977.6666666666667</ele><time>2026-05-02T09:25:56.19Z</time></trkpt><trkpt lat="44.3510388" lon="10.6900937"><ele>976.0</ele><time>2026-05-02T09:25:57.181Z</time></trkpt><trkpt lat="44.3509971" lon="10.6899933"><ele>974.3333333333334</ele><time>2026-05-02T09:25:58.244Z</time></trkpt><trkpt lat="44.350963" lon="10.6898853"><ele>972.6666666666667</ele><time>2026-05-02T09:25:59.189Z</time></trkpt><trkpt lat="44.3509337" lon="10.6897757"><ele>971.0</ele><time>2026-05-02T09:26:00.2Z</time></trkpt><trkpt lat="44.350906" lon="10.6896636"><ele>971.0000000000001</ele><time>2026-05-02T09:26:01.208Z</time></trkpt><trkpt lat="44.3508766" lon="10.689547"><ele>971.0</ele><time>2026-05-02T09:26:02.21Z</time></trkpt><trkpt lat="44.3508487" lon="10.6894213"><ele>971.0</ele><time>2026-05-02T09:26:03.172Z</time></trkpt><trkpt lat="44.3508262" lon="10.6892914"><ele>971.0</ele><time>2026-05-02T09:26:04.187Z</time></trkpt><trkpt lat="44.3508096" lon="10.6891759"><ele>971.0000000000001</ele><time>2026-05-02T09:26:05.205Z</time></trkpt><trkpt lat="44.3507956" lon="10.6890735"><ele>971.0</ele><time>2026-05-02T09:26:06.202Z</time></trkpt><trkpt lat="44.350788" lon="10.6889851"><ele>969.1999999999999</ele><time>2026-05-02T09:26:07.172Z</time></trkpt><trkpt lat="44.3507783" lon="10.6888529"><ele>967.3999999999999</ele><time>2026-05-02T09:26:09.267Z</time></trkpt><trkpt lat="44.3507776" lon="10.6887346"><ele>965.6</ele><time>2026-05-02T09:26:12.199Z</time></trkpt><trkpt lat="44.3507704" lon="10.688628"><ele>963.8</ele><time>2026-05-02T09:26:15.226Z</time></trkpt><trkpt lat="44.3507327" lon="10.688473"><ele>962.0</ele><time>2026-05-02T09:26:17.19Z</time></trkpt><trkpt lat="44.3507185" lon="10.6883654"><ele>961.0000000000001</ele><time>2026-05-02T09:26:18.215Z</time></trkpt><trkpt lat="44.3507031" lon="10.6882542"><ele>960.0</ele><time>2026-05-02T09:26:19.202Z</time></trkpt><trkpt lat="44.3507027" lon="10.6881436"><ele>959.0</ele><time>2026-05-02T09:26:20.19Z</time></trkpt><trkpt lat="44.3506901" lon="10.688047"><ele>958.0</ele><time>2026-05-02T09:26:21.208Z</time></trkpt><trkpt lat="44.3506625" lon="10.687955"><ele>957.0000000000001</ele><time>2026-05-02T09:26:22.217Z</time></trkpt><trkpt lat="44.3506158" lon="10.6878589"><ele>956.0</ele><time>2026-05-02T09:26:23.203Z</time></trkpt><trkpt lat="44.3505633" lon="10.6877593"><ele>957.0000000000001</ele><time>2026-05-02T09:26:24.186Z</time></trkpt><trkpt lat="44.3505172" lon="10.6876513"><ele>958.0</ele><time>2026-05-02T09:26:25.191Z</time></trkpt><trkpt lat="44.3504733" lon="10.6875405"><ele>959.0</ele><time>2026-05-02T09:26:26.186Z</time></trkpt><trkpt lat="44.350434" lon="10.6874358"><ele>960.0</ele><time>2026-05-02T09:26:27.169Z</time></trkpt><trkpt lat="44.3503828" lon="10.6873374"><ele>961.0000000000001</ele><time>2026-05-02T09:26:28.191Z</time></trkpt><trkpt lat="44.3503192" lon="10.6872553"><ele>962.0</ele><time>2026-05-02T09:26:29.191Z</time></trkpt><trkpt lat="44.3502589" lon="10.6871744"><ele>962.0</ele><time>2026-05-02T09:26:30.178Z</time></trkpt><trkpt lat="44.3501775" lon="10.6871058"><ele>962.0</ele><time>2026-05-02T09:26:31.167Z</time></trkpt><trkpt lat="44.3500924" lon="10.687045"><ele>962.0</ele><time>2026-05-02T09:26:32.229Z</time></trkpt><trkpt lat="44.3500105" lon="10.6869947"><ele>962.0</ele><time>2026-05-02T09:26:33.21Z</time></trkpt><trkpt lat="44.3499197" lon="10.6869485"><ele>962.0</ele><time>2026-05-02T09:26:34.211Z</time></trkpt><trkpt lat="44.3498266" lon="10.6868931"><ele>961.0</ele><time>2026-05-02T09:26:35.195Z</time></trkpt><trkpt lat="44.3497447" lon="10.6868342"><ele>960.0</ele><time>2026-05-02T09:26:36.2Z</time></trkpt><trkpt lat="44.3496566" lon="10.6867655"><ele>959.0</ele><time>2026-05-02T09:26:37.197Z</time></trkpt><trkpt lat="44.3495602" lon="10.68668"><ele>958.0</ele><time>2026-05-02T09:26:38.189Z</time></trkpt><trkpt lat="44.3494676" lon="10.6866052"><ele>957.0</ele><time>2026-05-02T09:26:39.192Z</time></trkpt><trkpt lat="44.3493732" lon="10.6865526"><ele>957.0</ele><time>2026-05-02T09:26:40.192Z</time></trkpt><trkpt lat="44.3492828" lon="10.686504"><ele>957.0</ele><time>2026-05-02T09:26:41.188Z</time></trkpt><trkpt lat="44.3492014" lon="10.6864644"><ele>957.0</ele><time>2026-05-02T09:26:42.2Z</time></trkpt><trkpt lat="44.3491195" lon="10.6864215"><ele>957.0</ele><time>2026-05-02T09:26:43.188Z</time></trkpt><trkpt lat="44.3490356" lon="10.6863658"><ele>957.0</ele><time>2026-05-02T09:26:44.188Z</time></trkpt><trkpt lat="44.3489448" lon="10.6863074"><ele>956.8333333333334</ele><time>2026-05-02T09:26:45.187Z</time></trkpt><trkpt lat="44.3488591" lon="10.6862692"><ele>956.6666666666667</ele><time>2026-05-02T09:26:46.152Z</time></trkpt><trkpt lat="44.3487615" lon="10.6862638"><ele>956.5</ele><time>2026-05-02T09:26:47.192Z</time></trkpt><trkpt lat="44.3486636" lon="10.6862611"><ele>956.3333333333334</ele><time>2026-05-02T09:26:48.196Z</time></trkpt><trkpt lat="44.3485881" lon="10.6862858"><ele>956.1666666666667</ele><time>2026-05-02T09:26:49.194Z</time></trkpt><trkpt lat="44.3485223" lon="10.6862969"><ele>956.0</ele><time>2026-05-02T09:26:50.202Z</time></trkpt><trkpt lat="44.3484504" lon="10.6863006"><ele>956.0</ele><time>2026-05-02T09:26:51.177Z</time></trkpt><trkpt lat="44.3483847" lon="10.6863025"><ele>955.9999999999999</ele><time>2026-05-02T09:26:52.208Z</time></trkpt><trkpt lat="44.3482635" lon="10.6863002"><ele>955.9999999999999</ele><time>2026-05-02T09:26:54.183Z</time></trkpt><trkpt lat="44.348163" lon="10.6862518"><ele>956.0</ele><time>2026-05-02T09:26:56.192Z</time></trkpt><trkpt lat="44.34808" lon="10.6861707"><ele>956.0</ele><time>2026-05-02T09:26:58.221Z</time></trkpt><trkpt lat="44.3480008" lon="10.6860455"><ele>958.1666666666667</ele><time>2026-05-02T09:27:00.226Z</time></trkpt><trkpt lat="44.3479602" lon="10.6859676"><ele>960.3333333333334</ele><time>2026-05-02T09:27:01.161Z</time></trkpt><trkpt lat="44.347918" lon="10.6858861"><ele>962.5</ele><time>2026-05-02T09:27:02.225Z</time></trkpt><trkpt lat="44.3478779" lon="10.6858115"><ele>964.6666666666667</ele><time>2026-05-02T09:27:03.203Z</time></trkpt><trkpt lat="44.3478276" lon="10.6857565"><ele>966.8333333333334</ele><time>2026-05-02T09:27:04.189Z</time></trkpt><trkpt lat="44.3477308" lon="10.6856428"><ele>969.0</ele><time>2026-05-02T09:27:06.193Z</time></trkpt><trkpt lat="44.3476817" lon="10.6855846"><ele>969.0</ele><time>2026-05-02T09:27:07.201Z</time></trkpt><trkpt lat="44.3476253" lon="10.6855281"><ele>969.0</ele><time>2026-05-02T09:27:08.202Z</time></trkpt><trkpt lat="44.3475678" lon="10.6854713"><ele>969.0</ele><time>2026-05-02T09:27:09.195Z</time></trkpt><trkpt lat="44.3475115" lon="10.6854146"><ele>969.0</ele><time>2026-05-02T09:27:10.195Z</time></trkpt><trkpt lat="44.3474592" lon="10.6853604"><ele>969.0</ele><time>2026-05-02T09:27:11.227Z</time></trkpt><trkpt lat="44.3473682" lon="10.6852615"><ele>969.0</ele><time>2026-05-02T09:27:13.205Z</time></trkpt><trkpt lat="44.3472796" lon="10.6851358"><ele>973.4000000000001</ele><time>2026-05-02T09:27:15.203Z</time></trkpt><trkpt lat="44.347209" lon="10.685019"><ele>977.8000000000001</ele><time>2026-05-02T09:27:17.227Z</time></trkpt><trkpt lat="44.3471383" lon="10.6848924"><ele>982.1999999999999</ele><time>2026-05-02T09:27:19.182Z</time></trkpt><trkpt lat="44.3470788" lon="10.6848144"><ele>986.5999999999999</ele><time>2026-05-02T09:27:20.195Z</time></trkpt><trkpt lat="44.3470214" lon="10.6847423"><ele>991.0</ele><time>2026-05-02T09:27:21.179Z</time></trkpt><trkpt lat="44.34697" lon="10.684679"><ele>991.0</ele><time>2026-05-02T09:27:22.181Z</time></trkpt><trkpt lat="44.3468655" lon="10.6845795"><ele>991.0</ele><time>2026-05-02T09:27:24.185Z</time></trkpt><trkpt lat="44.3467872" lon="10.6844736"><ele>991.0</ele><time>2026-05-02T09:27:26.178Z</time></trkpt><trkpt lat="44.3467104" lon="10.6843718"><ele>991.0</ele><time>2026-05-02T09:27:28.192Z</time></trkpt><trkpt lat="44.3466124" lon="10.6842812"><ele>991.1999999999999</ele><time>2026-05-02T09:27:30.198Z</time></trkpt><trkpt lat="44.3465309" lon="10.6841905"><ele>991.3999999999999</ele><time>2026-05-02T09:27:32.205Z</time></trkpt><trkpt lat="44.3464532" lon="10.6841012"><ele>991.6</ele><time>2026-05-02T09:27:34.193Z</time></trkpt><trkpt lat="44.346361" lon="10.684038"><ele>991.8</ele><time>2026-05-02T09:27:36.206Z</time></trkpt><trkpt lat="44.3462546" lon="10.6839781"><ele>992.0</ele><time>2026-05-02T09:27:38.187Z</time></trkpt><trkpt lat="44.3461648" lon="10.6838931"><ele>992.0000000000001</ele><time>2026-05-02T09:27:40.218Z</time></trkpt><trkpt lat="44.3460689" lon="10.6838258"><ele>992.0</ele><time>2026-05-02T09:27:42.214Z</time></trkpt><trkpt lat="44.3460093" lon="10.6837915"><ele>992.0</ele><time>2026-05-02T09:27:43.233Z</time></trkpt><trkpt lat="44.3459458" lon="10.6837611"><ele>992.0</ele><time>2026-05-02T09:27:44.193Z</time></trkpt><trkpt lat="44.3458835" lon="10.6837281"><ele>992.0000000000001</ele><time>2026-05-02T09:27:45.203Z</time></trkpt><trkpt lat="44.345778" lon="10.6836458"><ele>992.0</ele><time>2026-05-02T09:27:47.211Z</time></trkpt><trkpt lat="44.3457274" lon="10.6835931"><ele>990.5000000000001</ele><time>2026-05-02T09:27:48.188Z</time></trkpt><trkpt lat="44.3456696" lon="10.6835483"><ele>989.0</ele><time>2026-05-02T09:27:49.253Z</time></trkpt><trkpt lat="44.3456116" lon="10.6835079"><ele>987.5</ele><time>2026-05-02T09:27:50.187Z</time></trkpt><trkpt lat="44.3455129" lon="10.683463"><ele>986.0</ele><time>2026-05-02T09:27:52.223Z</time></trkpt><trkpt lat="44.3454426" lon="10.6834041"><ele>984.5000000000001</ele><time>2026-05-02T09:27:54.167Z</time></trkpt><trkpt lat="44.3453904" lon="10.6833184"><ele>983.0</ele><time>2026-05-02T09:27:56.186Z</time></trkpt><trkpt lat="44.3453685" lon="10.6832247"><ele>982.1666666666667</ele><time>2026-05-02T09:27:58.181Z</time></trkpt><trkpt lat="44.3453556" lon="10.6831258"><ele>981.3333333333334</ele><time>2026-05-02T09:28:00.211Z</time></trkpt><trkpt lat="44.3453289" lon="10.6830348"><ele>980.5</ele><time>2026-05-02T09:28:02.229Z</time></trkpt><trkpt lat="44.345288" lon="10.6829294"><ele>979.6666666666667</ele><time>2026-05-02T09:28:04.192Z</time></trkpt><trkpt lat="44.3452564" lon="10.6827837"><ele>978.8333333333334</ele><time>2026-05-02T09:28:06.213Z</time></trkpt><trkpt lat="44.3452196" lon="10.6826355"><ele>978.0</ele><time>2026-05-02T09:28:08.209Z</time></trkpt><trkpt lat="44.3451363" lon="10.6825138"><ele>977.5</ele><time>2026-05-02T09:28:10.218Z</time></trkpt><trkpt lat="44.3450842" lon="10.682457"><ele>977.0</ele><time>2026-05-02T09:28:11.212Z</time></trkpt><trkpt lat="44.3450316" lon="10.6823981"><ele>976.5</ele><time>2026-05-02T09:28:12.211Z</time></trkpt><trkpt lat="44.3449541" lon="10.6822672"><ele>976.0</ele><time>2026-05-02T09:28:14.196Z</time></trkpt><trkpt lat="44.3449298" lon="10.6821746"><ele>975.5</ele><time>2026-05-02T09:28:15.204Z</time></trkpt><trkpt lat="44.3449042" lon="10.6820816"><ele>975.0</ele><time>2026-05-02T09:28:16.195Z</time></trkpt><trkpt lat="44.3448667" lon="10.6819857"><ele>974.3333333333334</ele><time>2026-05-02T09:28:17.201Z</time></trkpt><trkpt lat="44.34482" lon="10.6819009"><ele>973.6666666666667</ele><time>2026-05-02T09:28:18.221Z</time></trkpt><trkpt lat="44.3447658" lon="10.6818189"><ele>973.0</ele><time>2026-05-02T09:28:19.211Z</time></trkpt><trkpt lat="44.3447117" lon="10.6817405"><ele>972.3333333333334</ele><time>2026-05-02T09:28:20.2Z</time></trkpt><trkpt lat="44.3446502" lon="10.6816763"><ele>971.6666666666667</ele><time>2026-05-02T09:28:21.207Z</time></trkpt><trkpt lat="44.3445967" lon="10.6816167"><ele>971.0</ele><time>2026-05-02T09:28:22.211Z</time></trkpt><trkpt lat="44.3445355" lon="10.6814852"><ele>971.0000000000001</ele><time>2026-05-02T09:28:24.224Z</time></trkpt><trkpt lat="44.3445163" lon="10.6813161"><ele>971.0</ele><time>2026-05-02T09:28:26.191Z</time></trkpt><trkpt lat="44.3445058" lon="10.6812216"><ele>971.0</ele><time>2026-05-02T09:28:27.193Z</time></trkpt><trkpt lat="44.344488" lon="10.6811337"><ele>971.0</ele><time>2026-05-02T09:28:28.209Z</time></trkpt><trkpt lat="44.3444559" lon="10.681014"><ele>971.0000000000001</ele><time>2026-05-02T09:28:30.188Z</time></trkpt><trkpt lat="44.3443902" lon="10.6809178"><ele>971.0</ele><time>2026-05-02T09:28:32.198Z</time></trkpt><trkpt lat="44.3443164" lon="10.6808123"><ele>972.0</ele><time>2026-05-02T09:28:34.204Z</time></trkpt><trkpt lat="44.3442424" lon="10.6807003"><ele>972.9999999999999</ele><time>2026-05-02T09:28:36.204Z</time></trkpt><trkpt lat="44.3441627" lon="10.680598"><ele>973.9999999999999</ele><time>2026-05-02T09:28:38.217Z</time></trkpt><trkpt lat="44.3440763" lon="10.6805104"><ele>975.0</ele><time>2026-05-02T09:28:40.195Z</time></trkpt><trkpt lat="44.343991" lon="10.6804262"><ele>976.0</ele><time>2026-05-02T09:28:42.22Z</time></trkpt><trkpt lat="44.3438855" lon="10.6803799"><ele>977.4999999999999</ele><time>2026-05-02T09:28:44.24Z</time></trkpt><trkpt lat="44.3437798" lon="10.6803613"><ele>979.0</ele><time>2026-05-02T09:28:46.167Z</time></trkpt><trkpt lat="44.3436678" lon="10.6803392"><ele>980.5</ele><time>2026-05-02T09:28:48.204Z</time></trkpt><trkpt lat="44.3435989" lon="10.680313"><ele>982.0</ele><time>2026-05-02T09:28:49.213Z</time></trkpt><trkpt lat="44.3435365" lon="10.6802777"><ele>983.4999999999999</ele><time>2026-05-02T09:28:50.221Z</time></trkpt><trkpt lat="44.3434709" lon="10.6802545"><ele>985.0</ele><time>2026-05-02T09:28:51.188Z</time></trkpt><trkpt lat="44.343407" lon="10.680251"><ele>984.9999999999999</ele><time>2026-05-02T09:28:52.203Z</time></trkpt><trkpt lat="44.3433402" lon="10.6802429"><ele>985.0</ele><time>2026-05-02T09:28:53.172Z</time></trkpt><trkpt lat="44.3432708" lon="10.6802193"><ele>985.0</ele><time>2026-05-02T09:28:54.189Z</time></trkpt><trkpt lat="44.3432015" lon="10.6801752"><ele>985.0</ele><time>2026-05-02T09:28:55.206Z</time></trkpt><trkpt lat="44.3431248" lon="10.6801352"><ele>984.9999999999999</ele><time>2026-05-02T09:28:56.176Z</time></trkpt><trkpt lat="44.3430437" lon="10.6800993"><ele>985.0</ele><time>2026-05-02T09:28:57.191Z</time></trkpt><trkpt lat="44.3429654" lon="10.6800645"><ele>983.4</ele><time>2026-05-02T09:28:58.216Z</time></trkpt><trkpt lat="44.3428947" lon="10.6800471"><ele>981.8</ele><time>2026-05-02T09:28:59.189Z</time></trkpt><trkpt lat="44.3428321" lon="10.6800321"><ele>980.2</ele><time>2026-05-02T09:29:00.201Z</time></trkpt><trkpt lat="44.3427202" lon="10.6799954"><ele>978.6</ele><time>2026-05-02T09:29:02.19Z</time></trkpt><trkpt lat="44.3426267" lon="10.6799195"><ele>977.0</ele><time>2026-05-02T09:29:04.22Z</time></trkpt><trkpt lat="44.3425565" lon="10.6797957"><ele>977.0</ele><time>2026-05-02T09:29:06.217Z</time></trkpt><trkpt lat="44.3425114" lon="10.6796894"><ele>977.0</ele><time>2026-05-02T09:29:08.205Z</time></trkpt><trkpt lat="44.3424718" lon="10.6795668"><ele>977.0</ele><time>2026-05-02T09:29:10.172Z</time></trkpt><trkpt lat="44.3424355" lon="10.6794076"><ele>977.0</ele><time>2026-05-02T09:29:12.212Z</time></trkpt><trkpt lat="44.3423887" lon="10.6792556"><ele>977.0</ele><time>2026-05-02T09:29:14.188Z</time></trkpt><trkpt lat="44.3423338" lon="10.6790914"><ele>977.857142857143</ele><time>2026-05-02T09:29:16.221Z</time></trkpt><trkpt lat="44.3423074" lon="10.6790017"><ele>978.7142857142858</ele><time>2026-05-02T09:29:17.28Z</time></trkpt><trkpt lat="44.3422915" lon="10.6789056"><ele>979.5714285714286</ele><time>2026-05-02T09:29:18.199Z</time></trkpt><trkpt lat="44.3422759" lon="10.6788095"><ele>980.4285714285714</ele><time>2026-05-02T09:29:19.215Z</time></trkpt><trkpt lat="44.3422561" lon="10.6787162"><ele>981.2857142857142</ele><time>2026-05-02T09:29:20.206Z</time></trkpt><trkpt lat="44.3422171" lon="10.6786378"><ele>982.142857142857</ele><time>2026-05-02T09:29:21.194Z</time></trkpt><trkpt lat="44.3421606" lon="10.6785891"><ele>982.9999999999999</ele><time>2026-05-02T09:29:22.21Z</time></trkpt><trkpt lat="44.3420987" lon="10.6785691"><ele>983.0000000000001</ele><time>2026-05-02T09:29:23.19Z</time></trkpt><trkpt lat="44.3420351" lon="10.6785646"><ele>983.0</ele><time>2026-05-02T09:29:24.187Z</time></trkpt><trkpt lat="44.3419152" lon="10.6785465"><ele>983.0</ele><time>2026-05-02T09:29:26.197Z</time></trkpt><trkpt lat="44.3418577" lon="10.6785105"><ele>983.0</ele><time>2026-05-02T09:29:27.219Z</time></trkpt><trkpt lat="44.3417955" lon="10.6784529"><ele>983.0000000000001</ele><time>2026-05-02T09:29:28.192Z</time></trkpt><trkpt lat="44.3417353" lon="10.678391"><ele>983.0</ele><time>2026-05-02T09:29:29.228Z</time></trkpt><trkpt lat="44.3416681" lon="10.6783335"><ele>983.0000000000001</ele><time>2026-05-02T09:29:30.17Z</time></trkpt><trkpt lat="44.3415962" lon="10.6782828"><ele>983.0</ele><time>2026-05-02T09:29:31.169Z</time></trkpt><trkpt lat="44.3415269" lon="10.6782336"><ele>983.0</ele><time>2026-05-02T09:29:32.214Z</time></trkpt><trkpt lat="44.3414533" lon="10.6782014"><ele>983.0</ele><time>2026-05-02T09:29:33.203Z</time></trkpt><trkpt lat="44.3413724" lon="10.6781656"><ele>983.0000000000001</ele><time>2026-05-02T09:29:34.2Z</time></trkpt><trkpt lat="44.3412837" lon="10.6781531"><ele>983.0</ele><time>2026-05-02T09:29:35.194Z</time></trkpt><trkpt lat="44.3412006" lon="10.6781429"><ele>982.5000000000001</ele><time>2026-05-02T09:29:36.194Z</time></trkpt><trkpt lat="44.3411247" lon="10.6781116"><ele>982.0</ele><time>2026-05-02T09:29:37.212Z</time></trkpt><trkpt lat="44.3410447" lon="10.678078"><ele>981.5</ele><time>2026-05-02T09:29:38.196Z</time></trkpt><trkpt lat="44.3409764" lon="10.6780205"><ele>981.0</ele><time>2026-05-02T09:29:39.215Z</time></trkpt><trkpt lat="44.3409254" lon="10.6779648"><ele>980.5000000000001</ele><time>2026-05-02T09:29:40.19Z</time></trkpt><trkpt lat="44.3408638" lon="10.6778406"><ele>980.0</ele><time>2026-05-02T09:29:42.144Z</time></trkpt><trkpt lat="44.3408609" lon="10.6777024"><ele>980.0</ele><time>2026-05-02T09:29:44.167Z</time></trkpt><trkpt lat="44.3408647" lon="10.6776134"><ele>980.0</ele><time>2026-05-02T09:29:45.22Z</time></trkpt><trkpt lat="44.340864" lon="10.6775148"><ele>980.0</ele><time>2026-05-02T09:29:46.194Z</time></trkpt><trkpt lat="44.3408631" lon="10.6774133"><ele>980.0</ele><time>2026-05-02T09:29:47.204Z</time></trkpt><trkpt lat="44.3408605" lon="10.6773101"><ele>980.0</ele><time>2026-05-02T09:29:48.177Z</time></trkpt><trkpt lat="44.3408595" lon="10.6772151"><ele>980.0</ele><time>2026-05-02T09:29:49.21Z</time></trkpt><trkpt lat="44.3408557" lon="10.6771117"><ele>980.0</ele><time>2026-05-02T09:29:50.208Z</time></trkpt><trkpt lat="44.3408449" lon="10.6769986"><ele>980.5000000000001</ele><time>2026-05-02T09:29:51.214Z</time></trkpt><trkpt lat="44.3408292" lon="10.6768833"><ele>981.0</ele><time>2026-05-02T09:29:52.194Z</time></trkpt><trkpt lat="44.3408137" lon="10.676769"><ele>981.5</ele><time>2026-05-02T09:29:53.194Z</time></trkpt><trkpt lat="44.340804" lon="10.6766497"><ele>982.0</ele><time>2026-05-02T09:29:54.188Z</time></trkpt><trkpt lat="44.3408006" lon="10.6765349"><ele>982.5000000000001</ele><time>2026-05-02T09:29:55.225Z</time></trkpt><trkpt lat="44.3408057" lon="10.6764312"><ele>983.0</ele><time>2026-05-02T09:29:56.184Z</time></trkpt><trkpt lat="44.3408268" lon="10.676334"><ele>982.9999999999999</ele><time>2026-05-02T09:29:57.176Z</time></trkpt><trkpt lat="44.3408491" lon="10.6762355"><ele>983.0</ele><time>2026-05-02T09:29:58.21Z</time></trkpt><trkpt lat="44.3408789" lon="10.6761423"><ele>982.9999999999999</ele><time>2026-05-02T09:29:59.167Z</time></trkpt><trkpt lat="44.3409037" lon="10.6760336"><ele>982.9999999999999</ele><time>2026-05-02T09:30:00.251Z</time></trkpt><trkpt lat="44.3409173" lon="10.6759292"><ele>983.0</ele><time>2026-05-02T09:30:01.199Z</time></trkpt><trkpt lat="44.3409309" lon="10.675829"><ele>982.9999999999999</ele><time>2026-05-02T09:30:02.19Z</time></trkpt><trkpt lat="44.3409352" lon="10.6757331"><ele>982.9999999999999</ele><time>2026-05-02T09:30:03.182Z</time></trkpt><trkpt lat="44.3409312" lon="10.6756313"><ele>983.2</ele><time>2026-05-02T09:30:04.223Z</time></trkpt><trkpt lat="44.3409354" lon="10.6754591"><ele>983.4</ele><time>2026-05-02T09:30:06.201Z</time></trkpt><trkpt lat="44.3409409" lon="10.6753693"><ele>983.6000000000001</ele><time>2026-05-02T09:30:07.202Z</time></trkpt><trkpt lat="44.3409415" lon="10.6752033"><ele>983.8000000000001</ele><time>2026-05-02T09:30:09.202Z</time></trkpt><trkpt lat="44.3409388" lon="10.6750529"><ele>984.0</ele><time>2026-05-02T09:30:11.143Z</time></trkpt><trkpt lat="44.3408891" lon="10.6749356"><ele>982.6</ele><time>2026-05-02T09:30:13.215Z</time></trkpt><trkpt lat="44.3407922" lon="10.6748644"><ele>981.2</ele><time>2026-05-02T09:30:15.195Z</time></trkpt><trkpt lat="44.3406952" lon="10.6748394"><ele>979.8000000000001</ele><time>2026-05-02T09:30:17.178Z</time></trkpt><trkpt lat="44.3406066" lon="10.6748043"><ele>978.4000000000001</ele><time>2026-05-02T09:30:19.198Z</time></trkpt><trkpt lat="44.3405318" lon="10.6747284"><ele>977.0</ele><time>2026-05-02T09:30:21.204Z</time></trkpt><trkpt lat="44.340463" lon="10.674658"><ele>975.5000000000001</ele><time>2026-05-02T09:30:23.179Z</time></trkpt><trkpt lat="44.3403602" lon="10.6745938"><ele>974.0</ele><time>2026-05-02T09:30:25.222Z</time></trkpt><trkpt lat="44.3402984" lon="10.6745686"><ele>972.5</ele><time>2026-05-02T09:30:26.174Z</time></trkpt><trkpt lat="44.3401787" lon="10.6745236"><ele>971.0</ele><time>2026-05-02T09:30:28.21Z</time></trkpt><trkpt lat="44.3401165" lon="10.6745062"><ele>969.5000000000001</ele><time>2026-05-02T09:30:29.201Z</time></trkpt><trkpt lat="44.3400511" lon="10.6744833"><ele>968.0</ele><time>2026-05-02T09:30:30.203Z</time></trkpt><trkpt lat="44.3399335" lon="10.6744977"><ele>968.0000000000001</ele><time>2026-05-02T09:30:32.244Z</time></trkpt><trkpt lat="44.3398783" lon="10.674549"><ele>968.0</ele><time>2026-05-02T09:30:33.202Z</time></trkpt><trkpt lat="44.3398134" lon="10.674601"><ele>968.0</ele><time>2026-05-02T09:30:34.212Z</time></trkpt><trkpt lat="44.3397414" lon="10.6746536"><ele>968.0</ele><time>2026-05-02T09:30:35.194Z</time></trkpt><trkpt lat="44.3396713" lon="10.6747049"><ele>968.0000000000001</ele><time>2026-05-02T09:30:36.18Z</time></trkpt><trkpt lat="44.3395975" lon="10.6747683"><ele>968.0</ele><time>2026-05-02T09:30:38.209Z</time></trkpt><trkpt lat="44.3395229" lon="10.6748116"><ele>970.0</ele><time>2026-05-02T09:31:13.181Z</time></trkpt><trkpt lat="44.3394072" lon="10.6748021"><ele>972.0</ele><time>2026-05-02T09:31:15.22Z</time></trkpt><trkpt lat="44.3393375" lon="10.6747986"><ele>974.0</ele><time>2026-05-02T09:31:16.201Z</time></trkpt><trkpt lat="44.3392286" lon="10.6748137"><ele>976.0</ele><time>2026-05-02T09:31:18.21Z</time></trkpt><trkpt lat="44.3391316" lon="10.6747402"><ele>978.0</ele><time>2026-05-02T09:31:20.176Z</time></trkpt><trkpt lat="44.3390848" lon="10.6746635"><ele>978.0</ele><time>2026-05-02T09:31:21.186Z</time></trkpt><trkpt lat="44.3390476" lon="10.6745702"><ele>978.0</ele><time>2026-05-02T09:31:22.18Z</time></trkpt><trkpt lat="44.3390087" lon="10.67447"><ele>978.0</ele><time>2026-05-02T09:31:23.187Z</time></trkpt><trkpt lat="44.3389826" lon="10.6743795"><ele>978.0</ele><time>2026-05-02T09:31:24.215Z</time></trkpt><trkpt lat="44.3389554" lon="10.6742779"><ele>978.0</ele><time>2026-05-02T09:31:25.202Z</time></trkpt><trkpt lat="44.3389321" lon="10.6741751"><ele>978.0</ele><time>2026-05-02T09:31:26.2Z</time></trkpt><trkpt lat="44.3388981" lon="10.6740439"><ele>979.5714285714287</ele><time>2026-05-02T09:31:28.194Z</time></trkpt><trkpt lat="44.3388907" lon="10.673927"><ele>981.1428571428572</ele><time>2026-05-02T09:31:30.209Z</time></trkpt><trkpt lat="44.3388944" lon="10.6738265"><ele>982.7142857142858</ele><time>2026-05-02T09:31:32.204Z</time></trkpt><trkpt lat="44.3388764" lon="10.673737"><ele>984.2857142857142</ele><time>2026-05-02T09:31:34.181Z</time></trkpt><trkpt lat="44.3388216" lon="10.6736615"><ele>985.8571428571428</ele><time>2026-05-02T09:31:36.209Z</time></trkpt><trkpt lat="44.3387539" lon="10.6736476"><ele>987.4285714285713</ele><time>2026-05-02T09:31:38.198Z</time></trkpt><trkpt lat="44.3387171" lon="10.6737223"><ele>989.0</ele><time>2026-05-02T09:31:41.226Z</time></trkpt><trkpt lat="44.3387871" lon="10.6736633"><ele>989.0000000000001</ele><time>2026-05-02T09:31:46.159Z</time></trkpt><trkpt lat="44.338848" lon="10.6736875"><ele>989.0</ele><time>2026-05-02T09:31:48.195Z</time></trkpt><trkpt lat="44.3389022" lon="10.6737408"><ele>989.0</ele><time>2026-05-02T09:31:50.252Z</time></trkpt><trkpt lat="44.3389222" lon="10.6738632"><ele>989.0</ele><time>2026-05-02T09:31:53.213Z</time></trkpt><trkpt lat="44.3388973" lon="10.6739886"><ele>989.0000000000001</ele><time>2026-05-02T09:31:55.18Z</time></trkpt><trkpt lat="44.3389272" lon="10.6741346"><ele>989.0</ele><time>2026-05-02T09:31:57.179Z</time></trkpt><trkpt lat="44.3389719" lon="10.6742928"><ele>989.0</ele><time>2026-05-02T09:31:59.183Z</time></trkpt><trkpt lat="44.3390003" lon="10.6743803"><ele>989.0000000000001</ele><time>2026-05-02T09:32:00.197Z</time></trkpt><trkpt lat="44.3390274" lon="10.6744613"><ele>989.0000000000001</ele><time>2026-05-02T09:32:01.167Z</time></trkpt><trkpt lat="44.3390833" lon="10.6746036"><ele>989.0</ele><time>2026-05-02T09:32:03.146Z</time></trkpt><trkpt lat="44.3391572" lon="10.6747224"><ele>989.0</ele><time>2026-05-02T09:32:05.185Z</time></trkpt><trkpt lat="44.3392414" lon="10.674803"><ele>986.8000000000001</ele><time>2026-05-02T09:32:07.206Z</time></trkpt><trkpt lat="44.339338" lon="10.6748028"><ele>984.6000000000001</ele><time>2026-05-02T09:32:09.182Z</time></trkpt><trkpt lat="44.3394391" lon="10.6747906"><ele>982.4</ele><time>2026-05-02T09:32:11.186Z</time></trkpt><trkpt lat="44.3394978" lon="10.6748429"><ele>980.2</ele><time>2026-05-02T09:32:14.222Z</time></trkpt><trkpt lat="44.3394583" lon="10.6749369"><ele>978.0</ele><time>2026-05-02T09:32:21.19Z</time></trkpt><trkpt lat="44.3393676" lon="10.6750199"><ele>978.0</ele><time>2026-05-02T09:32:23.179Z</time></trkpt><trkpt lat="44.3392412" lon="10.6751113"><ele>978.0</ele><time>2026-05-02T09:32:25.171Z</time></trkpt><trkpt lat="44.3391759" lon="10.6751753"><ele>978.0</ele><time>2026-05-02T09:32:26.176Z</time></trkpt><trkpt lat="44.3391188" lon="10.6752318"><ele>978.0</ele><time>2026-05-02T09:32:27.162Z</time></trkpt><trkpt lat="44.3390774" lon="10.6753039"><ele>978.0</ele><time>2026-05-02T09:32:28.178Z</time></trkpt><trkpt lat="44.3390405" lon="10.6753851"><ele>978.0</ele><time>2026-05-02T09:32:29.178Z</time></trkpt><trkpt lat="44.3390022" lon="10.6754652"><ele>975.0</ele><time>2026-05-02T09:32:30.174Z</time></trkpt><trkpt lat="44.3389231" lon="10.6755908"><ele>972.0</ele><time>2026-05-02T09:32:32.182Z</time></trkpt><trkpt lat="44.3388325" lon="10.6756482"><ele>969.0</ele><time>2026-05-02T09:32:34.23Z</time></trkpt><trkpt lat="44.3386947" lon="10.6756217"><ele>966.0</ele><time>2026-05-02T09:32:36.218Z</time></trkpt><trkpt lat="44.3386162" lon="10.6755843"><ele>963.0</ele><time>2026-05-02T09:32:37.186Z</time></trkpt><trkpt lat="44.3385426" lon="10.6755405"><ele>962.2</ele><time>2026-05-02T09:32:38.207Z</time></trkpt><trkpt lat="44.3384702" lon="10.6755029"><ele>961.4</ele><time>2026-05-02T09:32:39.189Z</time></trkpt><trkpt lat="44.3384102" lon="10.6754662"><ele>960.6000000000001</ele><time>2026-05-02T09:32:40.189Z</time></trkpt><trkpt lat="44.3383007" lon="10.6753766"><ele>959.8000000000001</ele><time>2026-05-02T09:32:42.201Z</time></trkpt><trkpt lat="44.3382051" lon="10.6752649"><ele>959.0</ele><time>2026-05-02T09:32:44.189Z</time></trkpt><trkpt lat="44.338158" lon="10.6752"><ele>959.3333333333334</ele><time>2026-05-02T09:32:45.188Z</time></trkpt><trkpt lat="44.3381089" lon="10.6751387"><ele>959.6666666666667</ele><time>2026-05-02T09:32:46.196Z</time></trkpt><trkpt lat="44.3380608" lon="10.675081"><ele>960.0</ele><time>2026-05-02T09:32:47.215Z</time></trkpt><trkpt lat="44.3379686" lon="10.6749724"><ele>960.3333333333333</ele><time>2026-05-02T09:32:49.191Z</time></trkpt><trkpt lat="44.3379212" lon="10.6749143"><ele>960.6666666666666</ele><time>2026-05-02T09:32:50.187Z</time></trkpt><trkpt lat="44.3378435" lon="10.6747929"><ele>961.0</ele><time>2026-05-02T09:32:52.189Z</time></trkpt><trkpt lat="44.3377802" lon="10.6746778"><ele>960.9999999999999</ele><time>2026-05-02T09:32:54.213Z</time></trkpt><trkpt lat="44.3377146" lon="10.6745518"><ele>961.0</ele><time>2026-05-02T09:32:56.21Z</time></trkpt><trkpt lat="44.3376399" lon="10.6744222"><ele>961.0</ele><time>2026-05-02T09:32:58.168Z</time></trkpt><trkpt lat="44.3375911" lon="10.6743632"><ele>961.0</ele><time>2026-05-02T09:32:59.164Z</time></trkpt><trkpt lat="44.3375377" lon="10.674307"><ele>960.9999999999999</ele><time>2026-05-02T09:33:00.169Z</time></trkpt><trkpt lat="44.3374842" lon="10.6742481"><ele>961.0</ele><time>2026-05-02T09:33:01.178Z</time></trkpt><trkpt lat="44.3374184" lon="10.6741781"><ele>959.8</ele><time>2026-05-02T09:33:02.173Z</time></trkpt><trkpt lat="44.3373523" lon="10.6741086"><ele>958.5999999999999</ele><time>2026-05-02T09:33:03.157Z</time></trkpt><trkpt lat="44.3372883" lon="10.6740564"><ele>957.4</ele><time>2026-05-02T09:33:04.148Z</time></trkpt><trkpt lat="44.3371915" lon="10.6739843"><ele>956.2</ele><time>2026-05-02T09:33:06.201Z</time></trkpt><trkpt lat="44.3370875" lon="10.673927"><ele>955.0</ele><time>2026-05-02T09:33:08.196Z</time></trkpt><trkpt lat="44.3369897" lon="10.6738679"><ele>955.0</ele><time>2026-05-02T09:33:10.169Z</time></trkpt><trkpt lat="44.3369265" lon="10.6737675"><ele>955.0</ele><time>2026-05-02T09:33:12.193Z</time></trkpt><trkpt lat="44.336862" lon="10.6736458"><ele>955.0</ele><time>2026-05-02T09:33:14.18Z</time></trkpt><trkpt lat="44.3367777" lon="10.6735124"><ele>955.0</ele><time>2026-05-02T09:33:16.178Z</time></trkpt><trkpt lat="44.3367333" lon="10.6734413"><ele>955.0</ele><time>2026-05-02T09:33:17.184Z</time></trkpt><trkpt lat="44.3366862" lon="10.6733791"><ele>954.9999999999999</ele><time>2026-05-02T09:33:18.204Z</time></trkpt><trkpt lat="44.3366363" lon="10.6733161"><ele>955.0</ele><time>2026-05-02T09:33:19.169Z</time></trkpt><trkpt lat="44.3365671" lon="10.6732665"><ele>954.9999999999999</ele><time>2026-05-02T09:33:20.165Z</time></trkpt><trkpt lat="44.3364921" lon="10.6732189"><ele>954.9999999999999</ele><time>2026-05-02T09:33:21.19Z</time></trkpt><trkpt lat="44.336424" lon="10.6731738"><ele>955.0</ele><time>2026-05-02T09:33:22.198Z</time></trkpt><trkpt lat="44.3363638" lon="10.6731307"><ele>954.9999999999999</ele><time>2026-05-02T09:33:23.184Z</time></trkpt><trkpt lat="44.3363087" lon="10.673079"><ele>954.9999999999999</ele><time>2026-05-02T09:33:24.186Z</time></trkpt><trkpt lat="44.3362576" lon="10.6730266"><ele>954.9999999999999</ele><time>2026-05-02T09:33:25.183Z</time></trkpt><trkpt lat="44.3362037" lon="10.6729802"><ele>955.0</ele><time>2026-05-02T09:33:26.169Z</time></trkpt><trkpt lat="44.3361396" lon="10.6729408"><ele>955.0</ele><time>2026-05-02T09:33:27.172Z</time></trkpt><trkpt lat="44.336073" lon="10.6729051"><ele>955.0</ele><time>2026-05-02T09:33:28.178Z</time></trkpt><trkpt lat="44.3360079" lon="10.6728683"><ele>954.9999999999999</ele><time>2026-05-02T09:33:29.179Z</time></trkpt><trkpt lat="44.3358859" lon="10.6728044"><ele>955.0</ele><time>2026-05-02T09:33:31.174Z</time></trkpt><trkpt lat="44.3358179" lon="10.6727748"><ele>956.6</ele><time>2026-05-02T09:33:32.207Z</time></trkpt><trkpt lat="44.3357516" lon="10.672743"><ele>958.2</ele><time>2026-05-02T09:33:33.189Z</time></trkpt><trkpt lat="44.3356858" lon="10.6727121"><ele>959.8</ele><time>2026-05-02T09:33:34.184Z</time></trkpt><trkpt lat="44.3355685" lon="10.6726724"><ele>961.4</ele><time>2026-05-02T09:33:36.175Z</time></trkpt><trkpt lat="44.3354386" lon="10.6726618"><ele>963.0</ele><time>2026-05-02T09:33:38.175Z</time></trkpt><trkpt lat="44.3353683" lon="10.6726705"><ele>963.0000000000001</ele><time>2026-05-02T09:33:39.163Z</time></trkpt><trkpt lat="44.3353035" lon="10.6726775"><ele>963.0</ele><time>2026-05-02T09:33:40.18Z</time></trkpt><trkpt lat="44.335229" lon="10.672686"><ele>963.0000000000001</ele><time>2026-05-02T09:33:42.182Z</time></trkpt><trkpt lat="44.3351409" lon="10.6727362"><ele>963.0000000000001</ele><time>2026-05-02T09:33:45.19Z</time></trkpt><trkpt lat="44.3350906" lon="10.6727901"><ele>963.0</ele><time>2026-05-02T09:33:46.223Z</time></trkpt><trkpt lat="44.3350368" lon="10.6728536"><ele>963.0000000000001</ele><time>2026-05-02T09:33:47.17Z</time></trkpt><trkpt lat="44.3349825" lon="10.6729066"><ele>963.0000000000001</ele><time>2026-05-02T09:33:48.198Z</time></trkpt><trkpt lat="44.3348922" lon="10.6729442"><ele>962.8</ele><time>2026-05-02T09:33:50.199Z</time></trkpt><trkpt lat="44.3347763" lon="10.6729178"><ele>962.5999999999999</ele><time>2026-05-02T09:33:52.197Z</time></trkpt><trkpt lat="44.3347111" lon="10.6728892"><ele>962.4000000000001</ele><time>2026-05-02T09:33:53.182Z</time></trkpt><trkpt lat="44.3346225" lon="10.6728435"><ele>962.2</ele><time>2026-05-02T09:33:55.228Z</time></trkpt><trkpt lat="44.3345366" lon="10.6727951"><ele>962.0</ele><time>2026-05-02T09:33:57.193Z</time></trkpt><trkpt lat="44.3344521" lon="10.6727532"><ele>962.0</ele><time>2026-05-02T09:33:59.2Z</time></trkpt><trkpt lat="44.3343556" lon="10.6726758"><ele>962.0</ele><time>2026-05-02T09:34:01.197Z</time></trkpt><trkpt lat="44.3342751" lon="10.6725998"><ele>962.0</ele><time>2026-05-02T09:34:03.195Z</time></trkpt><trkpt lat="44.3341812" lon="10.6725573"><ele>962.0</ele><time>2026-05-02T09:34:05.182Z</time></trkpt><trkpt lat="44.3340868" lon="10.6725316"><ele>962.0</ele><time>2026-05-02T09:34:07.196Z</time></trkpt><trkpt lat="44.3340101" lon="10.672502"><ele>962.0</ele><time>2026-05-02T09:34:09.18Z</time></trkpt><trkpt lat="44.3339307" lon="10.6725349"><ele>962.0</ele><time>2026-05-02T09:34:11.178Z</time></trkpt><trkpt lat="44.3338316" lon="10.6725348"><ele>962.0</ele><time>2026-05-02T09:34:13.171Z</time></trkpt><trkpt lat="44.3337285" lon="10.6724506"><ele>962.0</ele><time>2026-05-02T09:34:15.171Z</time></trkpt><trkpt lat="44.3336341" lon="10.6723851"><ele>962.0</ele><time>2026-05-02T09:34:17.197Z</time></trkpt><trkpt lat="44.3335604" lon="10.6723808"><ele>961.8</ele><time>2026-05-02T09:34:19.173Z</time></trkpt><trkpt lat="44.3334858" lon="10.6723839"><ele>961.6</ele><time>2026-05-02T09:34:21.193Z</time></trkpt><trkpt lat="44.3333918" lon="10.672343"><ele>961.3999999999999</ele><time>2026-05-02T09:34:23.186Z</time></trkpt><trkpt lat="44.333299" lon="10.6722862"><ele>961.1999999999999</ele><time>2026-05-02T09:34:25.195Z</time></trkpt><trkpt lat="44.3331923" lon="10.6722802"><ele>961.0</ele><time>2026-05-02T09:34:27.195Z</time></trkpt><trkpt lat="44.3330905" lon="10.6722675"><ele>958.8</ele><time>2026-05-02T09:34:29.198Z</time></trkpt><trkpt lat="44.3329801" lon="10.6721982"><ele>956.5999999999999</ele><time>2026-05-02T09:34:31.161Z</time></trkpt><trkpt lat="44.3329227" lon="10.6721573"><ele>954.4</ele><time>2026-05-02T09:34:32.206Z</time></trkpt><trkpt lat="44.3328565" lon="10.6721137"><ele>952.2</ele><time>2026-05-02T09:34:33.214Z</time></trkpt><trkpt lat="44.3327477" lon="10.6720173"><ele>950.0</ele><time>2026-05-02T09:34:35.188Z</time></trkpt><trkpt lat="44.3326921" lon="10.6719623"><ele>952.1666666666667</ele><time>2026-05-02T09:34:36.157Z</time></trkpt><trkpt lat="44.3326377" lon="10.6718928"><ele>954.3333333333334</ele><time>2026-05-02T09:34:37.198Z</time></trkpt><trkpt lat="44.3325793" lon="10.6718306"><ele>956.5</ele><time>2026-05-02T09:34:38.216Z</time></trkpt><trkpt lat="44.3325206" lon="10.6717718"><ele>958.6666666666667</ele><time>2026-05-02T09:34:39.208Z</time></trkpt><trkpt lat="44.3324652" lon="10.6717192"><ele>960.8333333333334</ele><time>2026-05-02T09:34:40.154Z</time></trkpt><trkpt lat="44.3324078" lon="10.6716776"><ele>963.0</ele><time>2026-05-02T09:34:41.155Z</time></trkpt><trkpt lat="44.3323097" lon="10.6715964"><ele>960.75</ele><time>2026-05-02T09:34:43.196Z</time></trkpt><trkpt lat="44.3322154" lon="10.6715071"><ele>958.5</ele><time>2026-05-02T09:34:45.219Z</time></trkpt><trkpt lat="44.3321268" lon="10.6714039"><ele>956.25</ele><time>2026-05-02T09:34:47.208Z</time></trkpt><trkpt lat="44.3320449" lon="10.6712804"><ele>954.0</ele><time>2026-05-02T09:34:49.19Z</time></trkpt><trkpt lat="44.331974" lon="10.6711761"><ele>956.6</ele><time>2026-05-02T09:34:51.201Z</time></trkpt><trkpt lat="44.3318962" lon="10.6710702"><ele>959.2</ele><time>2026-05-02T09:34:53.178Z</time></trkpt><trkpt lat="44.3318043" lon="10.6709949"><ele>961.8000000000001</ele><time>2026-05-02T09:34:55.205Z</time></trkpt><trkpt lat="44.3317266" lon="10.6709418"><ele>964.4000000000001</ele><time>2026-05-02T09:34:57.196Z</time></trkpt><trkpt lat="44.3316212" lon="10.6708652"><ele>967.0</ele><time>2026-05-02T09:34:59.213Z</time></trkpt><trkpt lat="44.3315444" lon="10.6707935"><ele>967.0</ele><time>2026-05-02T09:35:01.178Z</time></trkpt><trkpt lat="44.331446" lon="10.6707481"><ele>967.0</ele><time>2026-05-02T09:35:03.198Z</time></trkpt><trkpt lat="44.3313547" lon="10.6707043"><ele>967.0</ele><time>2026-05-02T09:35:05.195Z</time></trkpt><trkpt lat="44.3312519" lon="10.670641"><ele>967.0</ele><time>2026-05-02T09:35:07.198Z</time></trkpt><trkpt lat="44.3311403" lon="10.670562"><ele>967.0</ele><time>2026-05-02T09:35:09.222Z</time></trkpt><trkpt lat="44.331059" lon="10.670508"><ele>967.4999999999999</ele><time>2026-05-02T09:35:11.199Z</time></trkpt><trkpt lat="44.3309859" lon="10.6704663"><ele>968.0</ele><time>2026-05-02T09:35:13.204Z</time></trkpt><trkpt lat="44.3309051" lon="10.6704397"><ele>968.5</ele><time>2026-05-02T09:35:15.236Z</time></trkpt><trkpt lat="44.3308379" lon="10.6704231"><ele>969.0</ele><time>2026-05-02T09:35:18.206Z</time></trkpt><trkpt lat="44.3307836" lon="10.6703633"><ele>969.4999999999999</ele><time>2026-05-02T09:35:29.204Z</time></trkpt><trkpt lat="44.3307329" lon="10.6702887"><ele>970.0</ele><time>2026-05-02T09:35:31.21Z</time></trkpt><trkpt lat="44.330671" lon="10.6702171"><ele>972.2</ele><time>2026-05-02T09:35:34.186Z</time></trkpt><trkpt lat="44.3306128" lon="10.6702584"><ele>974.4</ele><time>2026-05-02T09:35:37.191Z</time></trkpt><trkpt lat="44.3305385" lon="10.6702189"><ele>976.5999999999999</ele><time>2026-05-02T09:35:39.209Z</time></trkpt><trkpt lat="44.3304694" lon="10.6701053"><ele>978.8</ele><time>2026-05-02T09:35:41.214Z</time></trkpt><trkpt lat="44.3303933" lon="10.6700111"><ele>981.0</ele><time>2026-05-02T09:35:43.21Z</time></trkpt><trkpt lat="44.3303198" lon="10.6699135"><ele>982.6666666666666</ele><time>2026-05-02T09:35:45.188Z</time></trkpt><trkpt lat="44.3302586" lon="10.6697895"><ele>984.3333333333333</ele><time>2026-05-02T09:35:47.188Z</time></trkpt><trkpt lat="44.3302057" lon="10.6697085"><ele>986.0</ele><time>2026-05-02T09:35:49.197Z</time></trkpt><trkpt lat="44.3301554" lon="10.6695993"><ele>987.6666666666666</ele><time>2026-05-02T09:36:03.2Z</time></trkpt><trkpt lat="44.3301222" lon="10.6695167"><ele>989.3333333333333</ele><time>2026-05-02T09:36:05.192Z</time></trkpt><trkpt lat="44.3300786" lon="10.6694327"><ele>991.0</ele><time>2026-05-02T09:36:07.21Z</time></trkpt><trkpt lat="44.3300048" lon="10.6693381"><ele>992.6666666666666</ele><time>2026-05-02T09:36:19.219Z</time></trkpt><trkpt lat="44.3299456" lon="10.6692763"><ele>994.3333333333333</ele><time>2026-05-02T09:36:20.191Z</time></trkpt><trkpt lat="44.3298756" lon="10.6692079"><ele>996.0</ele><time>2026-05-02T09:36:21.217Z</time></trkpt><trkpt lat="44.3298121" lon="10.6691441"><ele>997.6666666666667</ele><time>2026-05-02T09:36:22.194Z</time></trkpt><trkpt lat="44.3297299" lon="10.6690271"><ele>999.3333333333334</ele><time>2026-05-02T09:36:24.169Z</time></trkpt><trkpt lat="44.3296627" lon="10.6689515"><ele>1001.0</ele><time>2026-05-02T09:36:26.19Z</time></trkpt><trkpt lat="44.329598" lon="10.6689088"><ele>1001.0000000000001</ele><time>2026-05-02T09:36:44.216Z</time></trkpt><trkpt lat="44.3294626" lon="10.6688971"><ele>1001.0</ele><time>2026-05-02T09:36:46.174Z</time></trkpt><trkpt lat="44.3293939" lon="10.6688944"><ele>1001.0</ele><time>2026-05-02T09:36:47.171Z</time></trkpt><trkpt lat="44.3293351" lon="10.6688545"><ele>1001.0</ele><time>2026-05-02T09:36:48.21Z</time></trkpt><trkpt lat="44.3292833" lon="10.6687785"><ele>1001.0000000000001</ele><time>2026-05-02T09:36:49.212Z</time></trkpt><trkpt lat="44.3292221" lon="10.6687072"><ele>1001.0</ele><time>2026-05-02T09:36:50.155Z</time></trkpt><trkpt lat="44.3291623" lon="10.6686301"><ele>1003.8</ele><time>2026-05-02T09:36:51.246Z</time></trkpt><trkpt lat="44.3291047" lon="10.6685514"><ele>1006.5999999999999</ele><time>2026-05-02T09:36:52.189Z</time></trkpt><trkpt lat="44.3290522" lon="10.6684845"><ele>1009.4</ele><time>2026-05-02T09:36:53.194Z</time></trkpt><trkpt lat="44.3289652" lon="10.6683644"><ele>1012.2</ele><time>2026-05-02T09:36:55.187Z</time></trkpt><trkpt lat="44.3288794" lon="10.6682752"><ele>1015.0</ele><time>2026-05-02T09:36:57.148Z</time></trkpt><trkpt lat="44.3287843" lon="10.6681806"><ele>1017.2</ele><time>2026-05-02T09:36:59.19Z</time></trkpt><trkpt lat="44.3286998" lon="10.668124"><ele>1019.4</ele><time>2026-05-02T09:37:01.181Z</time></trkpt><trkpt lat="44.3286164" lon="10.668059"><ele>1021.5999999999999</ele><time>2026-05-02T09:37:03.181Z</time></trkpt><trkpt lat="44.3285368" lon="10.6679758"><ele>1023.8</ele><time>2026-05-02T09:37:05.171Z</time></trkpt><trkpt lat="44.3284516" lon="10.6679421"><ele>1026.0</ele><time>2026-05-02T09:37:07.181Z</time></trkpt><trkpt lat="44.3283722" lon="10.6678091"><ele>1024.3999999999999</ele><time>2026-05-02T09:37:09.185Z</time></trkpt><trkpt lat="44.3283117" lon="10.6677364"><ele>1022.8</ele><time>2026-05-02T09:37:11.182Z</time></trkpt><trkpt lat="44.3282385" lon="10.6677374"><ele>1021.1999999999999</ele><time>2026-05-02T09:37:13.205Z</time></trkpt><trkpt lat="44.3281437" lon="10.6677734"><ele>1019.5999999999999</ele><time>2026-05-02T09:37:15.161Z</time></trkpt><trkpt lat="44.3280488" lon="10.6677866"><ele>1018.0</ele><time>2026-05-02T09:37:17.218Z</time></trkpt><trkpt lat="44.3279476" lon="10.6676993"><ele>1025.0</ele><time>2026-05-02T09:37:19.193Z</time></trkpt><trkpt lat="44.3278667" lon="10.66758"><ele>1032.0</ele><time>2026-05-02T09:37:21.187Z</time></trkpt><trkpt lat="44.3277977" lon="10.6674719"><ele>1039.0</ele><time>2026-05-02T09:37:23.197Z</time></trkpt><trkpt lat="44.3277365" lon="10.6673957"><ele>1046.0</ele><time>2026-05-02T09:37:25.189Z</time></trkpt><trkpt lat="44.3276784" lon="10.6673303"><ele>1053.0</ele><time>2026-05-02T09:37:43.149Z</time></trkpt><trkpt lat="44.3276091" lon="10.6672386"><ele>1053.0</ele><time>2026-05-02T09:37:45.195Z</time></trkpt><trkpt lat="44.327545" lon="10.6671531"><ele>1053.0</ele><time>2026-05-02T09:37:47.23Z</time></trkpt><trkpt lat="44.3274797" lon="10.6670629"><ele>1053.0</ele><time>2026-05-02T09:37:49.186Z</time></trkpt><trkpt lat="44.3274324" lon="10.6669547"><ele>1053.0</ele><time>2026-05-02T09:37:51.184Z</time></trkpt><trkpt lat="44.3274023" lon="10.6668113"><ele>1053.0</ele><time>2026-05-02T09:37:53.185Z</time></trkpt><trkpt lat="44.3273742" lon="10.6667272"><ele>1053.0</ele><time>2026-05-02T09:37:54.198Z</time></trkpt><trkpt lat="44.3273428" lon="10.6666431"><ele>1052.7142857142856</ele><time>2026-05-02T09:37:55.197Z</time></trkpt><trkpt lat="44.3273101" lon="10.6665571"><ele>1052.4285714285713</ele><time>2026-05-02T09:37:56.184Z</time></trkpt><trkpt lat="44.327279" lon="10.6664692"><ele>1052.142857142857</ele><time>2026-05-02T09:37:57.189Z</time></trkpt><trkpt lat="44.3272454" lon="10.6663779"><ele>1051.8571428571427</ele><time>2026-05-02T09:37:58.196Z</time></trkpt><trkpt lat="44.3272101" lon="10.6662924"><ele>1051.5714285714284</ele><time>2026-05-02T09:37:59.239Z</time></trkpt><trkpt lat="44.3271698" lon="10.6662119"><ele>1051.2857142857142</ele><time>2026-05-02T09:38:00.179Z</time></trkpt><trkpt lat="44.3271322" lon="10.6661361"><ele>1051.0</ele><time>2026-05-02T09:38:01.183Z</time></trkpt><trkpt lat="44.3270666" lon="10.6660226"><ele>1052.3333333333333</ele><time>2026-05-02T09:38:03.166Z</time></trkpt><trkpt lat="44.3269908" lon="10.6658996"><ele>1053.6666666666665</ele><time>2026-05-02T09:38:05.162Z</time></trkpt><trkpt lat="44.3269141" lon="10.6658095"><ele>1055.0</ele><time>2026-05-02T09:38:07.191Z</time></trkpt><trkpt lat="44.3268544" lon="10.6657487"><ele>1056.3333333333333</ele><time>2026-05-02T09:38:09.157Z</time></trkpt><trkpt lat="44.3267911" lon="10.6656998"><ele>1057.6666666666667</ele><time>2026-05-02T09:38:11.168Z</time></trkpt><trkpt lat="44.3267152" lon="10.6656534"><ele>1059.0</ele><time>2026-05-02T09:38:13.212Z</time></trkpt><trkpt lat="44.3266246" lon="10.6656153"><ele>1059.0</ele><time>2026-05-02T09:38:15.188Z</time></trkpt><trkpt lat="44.3265291" lon="10.6655958"><ele>1059.0</ele><time>2026-05-02T09:38:17.191Z</time></trkpt><trkpt lat="44.3264362" lon="10.6655815"><ele>1059.0</ele><time>2026-05-02T09:38:19.19Z</time></trkpt><trkpt lat="44.326325" lon="10.6656123"><ele>1059.0</ele><time>2026-05-02T09:38:21.19Z</time></trkpt><trkpt lat="44.3262129" lon="10.6656614"><ele>1059.0</ele><time>2026-05-02T09:38:23.183Z</time></trkpt><trkpt lat="44.3261188" lon="10.6657279"><ele>1057.25</ele><time>2026-05-02T09:38:25.177Z</time></trkpt><trkpt lat="44.3260263" lon="10.6658134"><ele>1055.5</ele><time>2026-05-02T09:38:27.22Z</time></trkpt><trkpt lat="44.3259184" lon="10.6659035"><ele>1053.75</ele><time>2026-05-02T09:38:29.199Z</time></trkpt><trkpt lat="44.3258054" lon="10.6659434"><ele>1052.0</ele><time>2026-05-02T09:38:31.204Z</time></trkpt><trkpt lat="44.3257059" lon="10.6659516"><ele>1052.0</ele><time>2026-05-02T09:38:33.178Z</time></trkpt><trkpt lat="44.3256111" lon="10.6658777"><ele>1052.0</ele><time>2026-05-02T09:38:35.2Z</time></trkpt><trkpt lat="44.3255672" lon="10.6658089"><ele>1052.0</ele><time>2026-05-02T09:38:36.186Z</time></trkpt><trkpt lat="44.3255238" lon="10.6657145"><ele>1052.0</ele><time>2026-05-02T09:38:37.191Z</time></trkpt><trkpt lat="44.3254758" lon="10.6656278"><ele>1052.0</ele><time>2026-05-02T09:38:38.233Z</time></trkpt><trkpt lat="44.3254319" lon="10.6655278"><ele>1052.0</ele><time>2026-05-02T09:38:39.189Z</time></trkpt><trkpt lat="44.3253849" lon="10.6654305"><ele>1048.6</ele><time>2026-05-02T09:38:40.2Z</time></trkpt><trkpt lat="44.3253408" lon="10.6653529"><ele>1045.2</ele><time>2026-05-02T09:38:41.189Z</time></trkpt><trkpt lat="44.3252913" lon="10.6652911"><ele>1041.8</ele><time>2026-05-02T09:38:42.189Z</time></trkpt><trkpt lat="44.325211" lon="10.6652092"><ele>1038.4</ele><time>2026-05-02T09:38:44.171Z</time></trkpt><trkpt lat="44.3251108" lon="10.6651295"><ele>1035.0</ele><time>2026-05-02T09:38:46.166Z</time></trkpt><trkpt lat="44.3250024" lon="10.6650575"><ele>1035.0</ele><time>2026-05-02T09:38:48.176Z</time></trkpt><trkpt lat="44.3249426" lon="10.6650199"><ele>1035.0</ele><time>2026-05-02T09:38:49.188Z</time></trkpt><trkpt lat="44.324837" lon="10.6649447"><ele>1035.0</ele><time>2026-05-02T09:38:51.203Z</time></trkpt><trkpt lat="44.3247417" lon="10.664857"><ele>1035.0</ele><time>2026-05-02T09:38:53.197Z</time></trkpt><trkpt lat="44.3246535" lon="10.6647651"><ele>1035.0</ele><time>2026-05-02T09:38:55.199Z</time></trkpt><trkpt lat="44.3245541" lon="10.6647299"><ele>1031.6</ele><time>2026-05-02T09:38:57.147Z</time></trkpt><trkpt lat="44.3244603" lon="10.6647851"><ele>1028.2</ele><time>2026-05-02T09:38:59.186Z</time></trkpt><trkpt lat="44.3243934" lon="10.6648744"><ele>1024.8</ele><time>2026-05-02T09:39:01.198Z</time></trkpt><trkpt lat="44.3243363" lon="10.6649795"><ele>1021.4</ele><time>2026-05-02T09:39:03.185Z</time></trkpt><trkpt lat="44.3242634" lon="10.6650613"><ele>1018.0</ele><time>2026-05-02T09:39:05.193Z</time></trkpt><trkpt lat="44.3241707" lon="10.6650948"><ele>1018.0</ele><time>2026-05-02T09:39:07.196Z</time></trkpt><trkpt lat="44.3240627" lon="10.6650794"><ele>1018.0</ele><time>2026-05-02T09:39:09.173Z</time></trkpt><trkpt lat="44.3239595" lon="10.6650557"><ele>1018.0</ele><time>2026-05-02T09:39:11.2Z</time></trkpt><trkpt lat="44.323856" lon="10.6650264"><ele>1018.0</ele><time>2026-05-02T09:39:13.209Z</time></trkpt><trkpt lat="44.3237947" lon="10.6650061"><ele>1018.0</ele><time>2026-05-02T09:39:14.195Z</time></trkpt><trkpt lat="44.3237266" lon="10.6649856"><ele>1015.3333333333333</ele><time>2026-05-02T09:39:15.199Z</time></trkpt><trkpt lat="44.3236586" lon="10.6649611"><ele>1012.6666666666666</ele><time>2026-05-02T09:39:16.191Z</time></trkpt><trkpt lat="44.3235962" lon="10.6649259"><ele>1010.0</ele><time>2026-05-02T09:39:17.185Z</time></trkpt><trkpt lat="44.3235372" lon="10.664878"><ele>1007.3333333333333</ele><time>2026-05-02T09:39:18.195Z</time></trkpt><trkpt lat="44.323482" lon="10.6648306"><ele>1004.6666666666666</ele><time>2026-05-02T09:39:19.191Z</time></trkpt><trkpt lat="44.3233868" lon="10.6647562"><ele>1002.0</ele><time>2026-05-02T09:39:21.211Z</time></trkpt><trkpt lat="44.3233108" lon="10.6647143"><ele>1002.0</ele><time>2026-05-02T09:39:23.2Z</time></trkpt><trkpt lat="44.3232449" lon="10.6647537"><ele>1002.0</ele><time>2026-05-02T09:39:25.194Z</time></trkpt><trkpt lat="44.3232047" lon="10.664858"><ele>1002.0</ele><time>2026-05-02T09:39:27.216Z</time></trkpt><trkpt lat="44.3231741" lon="10.6649831"><ele>1002.0</ele><time>2026-05-02T09:39:29.2Z</time></trkpt><trkpt lat="44.3230876" lon="10.6650295"><ele>1002.0</ele><time>2026-05-02T09:39:31.159Z</time></trkpt><trkpt lat="44.3230212" lon="10.6649902"><ele>1002.0</ele><time>2026-05-02T09:39:32.186Z</time></trkpt><trkpt lat="44.3229564" lon="10.664931"><ele>998.6666666666666</ele><time>2026-05-02T09:39:33.194Z</time></trkpt><trkpt lat="44.322906" lon="10.6648627"><ele>995.3333333333333</ele><time>2026-05-02T09:39:34.182Z</time></trkpt><trkpt lat="44.3228803" lon="10.6647763"><ele>992.0</ele><time>2026-05-02T09:39:35.19Z</time></trkpt><trkpt lat="44.3228861" lon="10.664677"><ele>988.6666666666666</ele><time>2026-05-02T09:39:36.186Z</time></trkpt><trkpt lat="44.3228949" lon="10.6645714"><ele>985.3333333333333</ele><time>2026-05-02T09:39:37.216Z</time></trkpt><trkpt lat="44.3229449" lon="10.6644731"><ele>982.0</ele><time>2026-05-02T09:39:38.224Z</time></trkpt><trkpt lat="44.3229862" lon="10.6643788"><ele>981.6</ele><time>2026-05-02T09:39:39.191Z</time></trkpt><trkpt lat="44.3230047" lon="10.6642926"><ele>981.2</ele><time>2026-05-02T09:39:40.167Z</time></trkpt><trkpt lat="44.322958" lon="10.6641702"><ele>980.8</ele><time>2026-05-02T09:39:42.196Z</time></trkpt><trkpt lat="44.3228275" lon="10.6641547"><ele>980.4</ele><time>2026-05-02T09:39:44.204Z</time></trkpt><trkpt lat="44.3227486" lon="10.6641699"><ele>980.0</ele><time>2026-05-02T09:39:45.186Z</time></trkpt><trkpt lat="44.3226654" lon="10.6641834"><ele>980.0000000000001</ele><time>2026-05-02T09:39:46.181Z</time></trkpt><trkpt lat="44.3225862" lon="10.6641858"><ele>980.0</ele><time>2026-05-02T09:39:47.245Z</time></trkpt><trkpt lat="44.3225081" lon="10.6641761"><ele>980.0</ele><time>2026-05-02T09:39:48.172Z</time></trkpt><trkpt lat="44.3224309" lon="10.6641654"><ele>980.0</ele><time>2026-05-02T09:39:49.182Z</time></trkpt><trkpt lat="44.3223518" lon="10.6641254"><ele>980.0000000000001</ele><time>2026-05-02T09:39:50.2Z</time></trkpt><trkpt lat="44.3222779" lon="10.6640802"><ele>980.0</ele><time>2026-05-02T09:39:51.185Z</time></trkpt><trkpt lat="44.3222115" lon="10.6640318"><ele>977.5714285714286</ele><time>2026-05-02T09:39:52.151Z</time></trkpt><trkpt lat="44.3221512" lon="10.6639824"><ele>975.1428571428571</ele><time>2026-05-02T09:39:53.195Z</time></trkpt><trkpt lat="44.3220904" lon="10.6639461"><ele>972.7142857142858</ele><time>2026-05-02T09:39:54.189Z</time></trkpt><trkpt lat="44.3220247" lon="10.6639425"><ele>970.2857142857143</ele><time>2026-05-02T09:39:55.162Z</time></trkpt><trkpt lat="44.3219571" lon="10.6639747"><ele>967.8571428571429</ele><time>2026-05-02T09:39:56.177Z</time></trkpt><trkpt lat="44.3218948" lon="10.6640264"><ele>965.4285714285716</ele><time>2026-05-02T09:39:57.19Z</time></trkpt><trkpt lat="44.3218361" lon="10.6640723"><ele>963.0000000000001</ele><time>2026-05-02T09:39:58.247Z</time></trkpt><trkpt lat="44.3217173" lon="10.6640741"><ele>963.0</ele><time>2026-05-02T09:40:00.19Z</time></trkpt><trkpt lat="44.3216563" lon="10.6640504"><ele>963.0</ele><time>2026-05-02T09:40:01.206Z</time></trkpt><trkpt lat="44.3216134" lon="10.6639549"><ele>963.0</ele><time>2026-05-02T09:40:02.186Z</time></trkpt><trkpt lat="44.321561" lon="10.6638554"><ele>963.0</ele><time>2026-05-02T09:40:03.189Z</time></trkpt><trkpt lat="44.3214942" lon="10.663775"><ele>963.0</ele><time>2026-05-02T09:40:04.248Z</time></trkpt><trkpt lat="44.3214246" lon="10.6637157"><ele>963.0</ele><time>2026-05-02T09:40:05.177Z</time></trkpt><trkpt lat="44.3213488" lon="10.6636804"><ele>961.4</ele><time>2026-05-02T09:40:06.192Z</time></trkpt><trkpt lat="44.3212748" lon="10.6636697"><ele>959.8</ele><time>2026-05-02T09:40:07.192Z</time></trkpt><trkpt lat="44.3212052" lon="10.6636742"><ele>958.2</ele><time>2026-05-02T09:40:08.183Z</time></trkpt><trkpt lat="44.3210905" lon="10.663665"><ele>956.6</ele><time>2026-05-02T09:40:10.153Z</time></trkpt><trkpt lat="44.3210298" lon="10.6636381"><ele>955.0</ele><time>2026-05-02T09:40:11.16Z</time></trkpt><trkpt lat="44.3209035" lon="10.6636088"><ele>954.9999999999999</ele><time>2026-05-02T09:40:13.188Z</time></trkpt><trkpt lat="44.3208371" lon="10.663608"><ele>955.0</ele><time>2026-05-02T09:40:14.202Z</time></trkpt><trkpt lat="44.3207205" lon="10.6635777"><ele>955.0</ele><time>2026-05-02T09:40:16.199Z</time></trkpt><trkpt lat="44.3206301" lon="10.6634854"><ele>955.0</ele><time>2026-05-02T09:40:18.191Z</time></trkpt><trkpt lat="44.320587" lon="10.6634022"><ele>954.9999999999999</ele><time>2026-05-02T09:40:20.197Z</time></trkpt><trkpt lat="44.3205315" lon="10.6633569"><ele>955.0</ele><time>2026-05-02T09:40:22.208Z</time></trkpt><trkpt lat="44.3204287" lon="10.6633315"><ele>954.9999999999999</ele><time>2026-05-02T09:40:24.159Z</time></trkpt><trkpt lat="44.3203645" lon="10.6633072"><ele>955.0</ele><time>2026-05-02T09:40:25.184Z</time></trkpt><trkpt lat="44.3202946" lon="10.6632723"><ele>955.0</ele><time>2026-05-02T09:40:26.202Z</time></trkpt><trkpt lat="44.3202272" lon="10.6632289"><ele>955.0</ele><time>2026-05-02T09:40:27.18Z</time></trkpt><trkpt lat="44.3201611" lon="10.6631711"><ele>954.9999999999999</ele><time>2026-05-02T09:40:28.171Z</time></trkpt><trkpt lat="44.3200974" lon="10.6630938"><ele>955.0</ele><time>2026-05-02T09:40:29.167Z</time></trkpt><trkpt lat="44.3200279" lon="10.6630094"><ele>955.0</ele><time>2026-05-02T09:40:30.175Z</time></trkpt><trkpt lat="44.3199522" lon="10.6629285"><ele>955.0</ele><time>2026-05-02T09:40:31.19Z</time></trkpt><trkpt lat="44.3198694" lon="10.6628417"><ele>955.0</ele><time>2026-05-02T09:40:32.238Z</time></trkpt><trkpt lat="44.3197818" lon="10.6627473"><ele>955.0</ele><time>2026-05-02T09:40:33.214Z</time></trkpt><trkpt lat="44.3196934" lon="10.6626446"><ele>955.0</ele><time>2026-05-02T09:40:34.182Z</time></trkpt><trkpt lat="44.3196095" lon="10.6625419"><ele>954.8</ele><time>2026-05-02T09:40:35.191Z</time></trkpt><trkpt lat="44.3195299" lon="10.6624482"><ele>954.6</ele><time>2026-05-02T09:40:36.189Z</time></trkpt><trkpt lat="44.3194516" lon="10.6623672"><ele>954.4000000000001</ele><time>2026-05-02T09:40:37.179Z</time></trkpt><trkpt lat="44.3193705" lon="10.6622924"><ele>954.2</ele><time>2026-05-02T09:40:38.178Z</time></trkpt><trkpt lat="44.3192878" lon="10.6622175"><ele>954.0</ele><time>2026-05-02T09:40:39.192Z</time></trkpt><trkpt lat="44.3192129" lon="10.6621343"><ele>954.0</ele><time>2026-05-02T09:40:40.185Z</time></trkpt><trkpt lat="44.31915" lon="10.6620368"><ele>954.0000000000001</ele><time>2026-05-02T09:40:41.194Z</time></trkpt><trkpt lat="44.3190984" lon="10.6619269"><ele>954.0000000000001</ele><time>2026-05-02T09:40:42.188Z</time></trkpt><trkpt lat="44.3190487" lon="10.6618181"><ele>954.0</ele><time>2026-05-02T09:40:43.178Z</time></trkpt><trkpt lat="44.3190081" lon="10.6616908"><ele>954.0</ele><time>2026-05-02T09:40:44.177Z</time></trkpt><trkpt lat="44.3189719" lon="10.6615628"><ele>953.8333333333334</ele><time>2026-05-02T09:40:45.163Z</time></trkpt><trkpt lat="44.318943" lon="10.6614412"><ele>953.6666666666667</ele><time>2026-05-02T09:40:46.204Z</time></trkpt><trkpt lat="44.3189178" lon="10.6613308"><ele>953.5</ele><time>2026-05-02T09:40:47.203Z</time></trkpt><trkpt lat="44.3188832" lon="10.6612311"><ele>953.3333333333334</ele><time>2026-05-02T09:40:48.213Z</time></trkpt><trkpt lat="44.3188338" lon="10.6611416"><ele>953.1666666666667</ele><time>2026-05-02T09:40:49.168Z</time></trkpt><trkpt lat="44.3187743" lon="10.6610603"><ele>953.0</ele><time>2026-05-02T09:40:50.184Z</time></trkpt><trkpt lat="44.3187092" lon="10.660981"><ele>950.3333333333334</ele><time>2026-05-02T09:40:51.185Z</time></trkpt><trkpt lat="44.3186386" lon="10.66091"><ele>947.6666666666667</ele><time>2026-05-02T09:40:52.171Z</time></trkpt><trkpt lat="44.318565" lon="10.6608577"><ele>945.0</ele><time>2026-05-02T09:40:53.162Z</time></trkpt><trkpt lat="44.318489" lon="10.6608211"><ele>942.3333333333333</ele><time>2026-05-02T09:40:54.216Z</time></trkpt><trkpt lat="44.318411" lon="10.6607958"><ele>939.6666666666666</ele><time>2026-05-02T09:40:55.202Z</time></trkpt><trkpt lat="44.3183354" lon="10.6607724"><ele>937.0</ele><time>2026-05-02T09:40:56.191Z</time></trkpt><trkpt lat="44.3182705" lon="10.6607522"><ele>936.9999999999999</ele><time>2026-05-02T09:40:57.182Z</time></trkpt><trkpt lat="44.3181492" lon="10.6607199"><ele>937.0</ele><time>2026-05-02T09:40:59.209Z</time></trkpt><trkpt lat="44.3180807" lon="10.660711"><ele>937.0</ele><time>2026-05-02T09:41:00.233Z</time></trkpt><trkpt lat="44.3180014" lon="10.6607113"><ele>937.0</ele><time>2026-05-02T09:41:01.197Z</time></trkpt><trkpt lat="44.3179123" lon="10.6607162"><ele>936.9999999999999</ele><time>2026-05-02T09:41:02.194Z</time></trkpt><trkpt lat="44.3178238" lon="10.6607217"><ele>937.0</ele><time>2026-05-02T09:41:03.2Z</time></trkpt><trkpt lat="44.3177383" lon="10.6607242"><ele>937.3333333333333</ele><time>2026-05-02T09:41:04.158Z</time></trkpt><trkpt lat="44.3176541" lon="10.6607254"><ele>937.6666666666666</ele><time>2026-05-02T09:41:05.145Z</time></trkpt><trkpt lat="44.3175621" lon="10.6606983"><ele>938.0</ele><time>2026-05-02T09:41:06.187Z</time></trkpt><trkpt lat="44.3174767" lon="10.6606704"><ele>938.3333333333333</ele><time>2026-05-02T09:41:07.185Z</time></trkpt><trkpt lat="44.3173969" lon="10.6606553"><ele>938.6666666666666</ele><time>2026-05-02T09:41:08.192Z</time></trkpt><trkpt lat="44.3173271" lon="10.6606573"><ele>939.0</ele><time>2026-05-02T09:41:09.186Z</time></trkpt><trkpt lat="44.3172652" lon="10.6606814"><ele>938.1428571428571</ele><time>2026-05-02T09:41:10.167Z</time></trkpt><trkpt lat="44.3172052" lon="10.6607241"><ele>937.2857142857142</ele><time>2026-05-02T09:41:11.198Z</time></trkpt><trkpt lat="44.3171426" lon="10.6607678"><ele>936.4285714285713</ele><time>2026-05-02T09:41:12.259Z</time></trkpt><trkpt lat="44.317074" lon="10.6608099"><ele>935.5714285714286</ele><time>2026-05-02T09:41:13.185Z</time></trkpt><trkpt lat="44.3170058" lon="10.6608532"><ele>934.7142857142856</ele><time>2026-05-02T09:41:14.192Z</time></trkpt><trkpt lat="44.3169402" lon="10.6608974"><ele>933.8571428571428</ele><time>2026-05-02T09:41:15.174Z</time></trkpt><trkpt lat="44.3168785" lon="10.6609388"><ele>933.0</ele><time>2026-05-02T09:41:16.187Z</time></trkpt><trkpt lat="44.316817" lon="10.6609794"><ele>933.0</ele><time>2026-05-02T09:41:17.171Z</time></trkpt><trkpt lat="44.3167197" lon="10.6610428"><ele>933.0</ele><time>2026-05-02T09:41:19.2Z</time></trkpt><trkpt lat="44.3166603" lon="10.6610896"><ele>933.0</ele><time>2026-05-02T09:41:22.178Z</time></trkpt><trkpt lat="44.3166202" lon="10.6611826"><ele>933.0</ele><time>2026-05-02T09:41:28.208Z</time></trkpt><trkpt lat="44.3166448" lon="10.6612807"><ele>933.0</ele><time>2026-05-02T09:41:31.217Z</time></trkpt><trkpt lat="44.316602" lon="10.6612144"><ele>933.0</ele><time>2026-05-02T09:42:54.167Z</time></trkpt><trkpt lat="44.3165179" lon="10.6612231"><ele>933.0</ele><time>2026-05-02T09:51:49.212Z</time></trkpt><trkpt lat="44.3164185" lon="10.6613272"><ele>933.0</ele><time>2026-05-02T09:51:51.217Z</time></trkpt><trkpt lat="44.3163583" lon="10.6613884"><ele>933.0</ele><time>2026-05-02T09:51:52.183Z</time></trkpt><trkpt lat="44.3162881" lon="10.6614501"><ele>933.0</ele><time>2026-05-02T09:51:53.205Z</time></trkpt><trkpt lat="44.3162166" lon="10.6615126"><ele>933.0</ele><time>2026-05-02T09:51:54.193Z</time></trkpt><trkpt lat="44.3161412" lon="10.6615751"><ele>933.0</ele><time>2026-05-02T09:51:55.19Z</time></trkpt><trkpt lat="44.3160644" lon="10.6616418"><ele>933.0</ele><time>2026-05-02T09:51:56.189Z</time></trkpt><trkpt lat="44.3159913" lon="10.6617079"><ele>933.0</ele><time>2026-05-02T09:51:57.218Z</time></trkpt><trkpt lat="44.3159158" lon="10.6617771"><ele>933.0</ele><time>2026-05-02T09:51:58.182Z</time></trkpt><trkpt lat="44.3158383" lon="10.6618492"><ele>933.0</ele><time>2026-05-02T09:51:59.183Z</time></trkpt><trkpt lat="44.3157625" lon="10.661923"><ele>931.0</ele><time>2026-05-02T09:52:00.185Z</time></trkpt><trkpt lat="44.3156904" lon="10.6619968"><ele>929.0</ele><time>2026-05-02T09:52:01.171Z</time></trkpt><trkpt lat="44.3156189" lon="10.662069"><ele>927.0</ele><time>2026-05-02T09:52:02.18Z</time></trkpt><trkpt lat="44.3155475" lon="10.6621421"><ele>925.0</ele><time>2026-05-02T09:52:03.177Z</time></trkpt><trkpt lat="44.3154789" lon="10.662202"><ele>923.0</ele><time>2026-05-02T09:52:04.188Z</time></trkpt><trkpt lat="44.3154089" lon="10.6622548"><ele>921.0</ele><time>2026-05-02T09:52:05.163Z</time></trkpt><trkpt lat="44.3153524" lon="10.6623031"><ele>921.0</ele><time>2026-05-02T09:52:06.175Z</time></trkpt><trkpt lat="44.315275" lon="10.6624247"><ele>920.9999999999999</ele><time>2026-05-02T09:52:08.248Z</time></trkpt><trkpt lat="44.3152242" lon="10.6625371"><ele>920.9999999999999</ele><time>2026-05-02T09:52:10.192Z</time></trkpt><trkpt lat="44.3151394" lon="10.662589"><ele>921.0</ele><time>2026-05-02T09:52:12.197Z</time></trkpt><trkpt lat="44.315034" lon="10.6625726"><ele>921.0</ele><time>2026-05-02T09:52:14.171Z</time></trkpt><trkpt lat="44.314973" lon="10.6625396"><ele>921.0</ele><time>2026-05-02T09:52:15.195Z</time></trkpt><trkpt lat="44.3149035" lon="10.6625125"><ele>921.0</ele><time>2026-05-02T09:52:16.174Z</time></trkpt><trkpt lat="44.3148291" lon="10.6625036"><ele>921.0</ele><time>2026-05-02T09:52:17.189Z</time></trkpt><trkpt lat="44.3147581" lon="10.6624943"><ele>921.0</ele><time>2026-05-02T09:52:18.183Z</time></trkpt><trkpt lat="44.3146832" lon="10.6625276"><ele>921.0</ele><time>2026-05-02T09:52:19.256Z</time></trkpt><trkpt lat="44.3146104" lon="10.6625764"><ele>921.0</ele><time>2026-05-02T09:52:20.184Z</time></trkpt><trkpt lat="44.3145418" lon="10.6626225"><ele>922.3333333333334</ele><time>2026-05-02T09:52:21.195Z</time></trkpt><trkpt lat="44.3144773" lon="10.6626593"><ele>923.6666666666667</ele><time>2026-05-02T09:52:22.188Z</time></trkpt><trkpt lat="44.3144077" lon="10.6626676"><ele>925.0</ele><time>2026-05-02T09:52:23.164Z</time></trkpt><trkpt lat="44.314286" lon="10.6626671"><ele>926.3333333333334</ele><time>2026-05-02T09:52:25.233Z</time></trkpt><trkpt lat="44.3142148" lon="10.6626751"><ele>927.6666666666667</ele><time>2026-05-02T09:52:26.164Z</time></trkpt><trkpt lat="44.3141277" lon="10.6626729"><ele>929.0</ele><time>2026-05-02T09:52:27.181Z</time></trkpt><trkpt lat="44.3140404" lon="10.6626618"><ele>929.0</ele><time>2026-05-02T09:52:28.194Z</time></trkpt><trkpt lat="44.3139702" lon="10.6626596"><ele>929.0000000000001</ele><time>2026-05-02T09:52:29.176Z</time></trkpt><trkpt lat="44.3138889" lon="10.6626686"><ele>929.0</ele><time>2026-05-02T09:52:30.177Z</time></trkpt><trkpt lat="44.3138237" lon="10.6626957"><ele>929.0</ele><time>2026-05-02T09:52:31.185Z</time></trkpt><trkpt lat="44.313763" lon="10.6627267"><ele>929.0000000000001</ele><time>2026-05-02T09:52:32.183Z</time></trkpt><trkpt lat="44.3137036" lon="10.6627627"><ele>929.0</ele><time>2026-05-02T09:52:33.191Z</time></trkpt><trkpt lat="44.3136402" lon="10.6628033"><ele>929.0</ele><time>2026-05-02T09:52:34.189Z</time></trkpt><trkpt lat="44.3135806" lon="10.6628513"><ele>933.2857142857143</ele><time>2026-05-02T09:52:35.167Z</time></trkpt><trkpt lat="44.3135247" lon="10.6629048"><ele>937.5714285714287</ele><time>2026-05-02T09:52:36.186Z</time></trkpt><trkpt lat="44.3134739" lon="10.6629624"><ele>941.8571428571429</ele><time>2026-05-02T09:52:37.188Z</time></trkpt><trkpt lat="44.3134231" lon="10.663019"><ele>946.1428571428571</ele><time>2026-05-02T09:52:38.206Z</time></trkpt><trkpt lat="44.3133762" lon="10.6630896"><ele>950.4285714285714</ele><time>2026-05-02T09:52:39.191Z</time></trkpt><trkpt lat="44.3133425" lon="10.66317"><ele>954.7142857142858</ele><time>2026-05-02T09:52:40.189Z</time></trkpt><trkpt lat="44.313309" lon="10.6632497"><ele>959.0</ele><time>2026-05-02T09:52:41.173Z</time></trkpt><trkpt lat="44.3132863" lon="10.6633383"><ele>959.0</ele><time>2026-05-02T09:52:42.161Z</time></trkpt><trkpt lat="44.3132386" lon="10.663491"><ele>959.0000000000001</ele><time>2026-05-02T09:52:44.185Z</time></trkpt><trkpt lat="44.3132102" lon="10.6636584"><ele>959.0000000000001</ele><time>2026-05-02T09:52:46.215Z</time></trkpt><trkpt lat="44.3131777" lon="10.6637814"><ele>959.0</ele><time>2026-05-02T09:52:48.155Z</time></trkpt><trkpt lat="44.313145" lon="10.6638897"><ele>959.0</ele><time>2026-05-02T09:52:50.176Z</time></trkpt><trkpt lat="44.3131297" lon="10.6640181"><ele>961.5714285714286</ele><time>2026-05-02T09:52:52.196Z</time></trkpt><trkpt lat="44.3131159" lon="10.6641265"><ele>964.1428571428571</ele><time>2026-05-02T09:52:54.18Z</time></trkpt><trkpt lat="44.3130987" lon="10.6642245"><ele>966.7142857142858</ele><time>2026-05-02T09:52:56.203Z</time></trkpt><trkpt lat="44.3130844" lon="10.6643199"><ele>969.2857142857143</ele><time>2026-05-02T09:52:58.177Z</time></trkpt><trkpt lat="44.3130482" lon="10.6644011"><ele>971.8571428571429</ele><time>2026-05-02T09:53:38.237Z</time></trkpt><trkpt lat="44.3130474" lon="10.6645024"><ele>974.4285714285716</ele><time>2026-05-02T09:53:49.183Z</time></trkpt><trkpt lat="44.3131176" lon="10.6645627"><ele>977.0000000000001</ele><time>2026-05-02T09:53:52.196Z</time></trkpt><trkpt lat="44.3131356" lon="10.6646478"><ele>979.6666666666667</ele><time>2026-05-02T09:53:54.182Z</time></trkpt><trkpt lat="44.3131805" lon="10.6647516"><ele>982.3333333333334</ele><time>2026-05-02T09:53:56.183Z</time></trkpt><trkpt lat="44.3132458" lon="10.6648735"><ele>985.0</ele><time>2026-05-02T09:53:58.17Z</time></trkpt><trkpt lat="44.3132905" lon="10.6649463"><ele>987.6666666666667</ele><time>2026-05-02T09:53:59.162Z</time></trkpt><trkpt lat="44.3133319" lon="10.6650235"><ele>990.3333333333334</ele><time>2026-05-02T09:54:00.193Z</time></trkpt><trkpt lat="44.3133666" lon="10.6651089"><ele>993.0</ele><time>2026-05-02T09:54:01.193Z</time></trkpt><trkpt lat="44.3133622" lon="10.6652189"><ele>995.5</ele><time>2026-05-02T09:54:02.187Z</time></trkpt><trkpt lat="44.3133474" lon="10.665318"><ele>998.0</ele><time>2026-05-02T09:54:03.182Z</time></trkpt><trkpt lat="44.3133267" lon="10.6654436"><ele>1000.5</ele><time>2026-05-02T09:54:05.185Z</time></trkpt><trkpt lat="44.3133296" lon="10.6655859"><ele>1003.0</ele><time>2026-05-02T09:54:07.189Z</time></trkpt><trkpt lat="44.313352" lon="10.6657151"><ele>1005.5</ele><time>2026-05-02T09:54:09.193Z</time></trkpt><trkpt lat="44.3133864" lon="10.6658136"><ele>1008.0</ele><time>2026-05-02T09:54:11.184Z</time></trkpt><trkpt lat="44.3134406" lon="10.6658801"><ele>1008.0</ele><time>2026-05-02T09:54:13.176Z</time></trkpt><trkpt lat="44.3135085" lon="10.6659081"><ele>1008.0</ele><time>2026-05-02T09:54:15.205Z</time></trkpt><trkpt lat="44.3135674" lon="10.6659637"><ele>1008.0</ele><time>2026-05-02T09:54:17.219Z</time></trkpt><trkpt lat="44.313627" lon="10.6660752"><ele>1008.0</ele><time>2026-05-02T09:54:19.217Z</time></trkpt><trkpt lat="44.3136659" lon="10.6662142"><ele>1008.0</ele><time>2026-05-02T09:54:21.199Z</time></trkpt><trkpt lat="44.3136945" lon="10.6663347"><ele>1008.0</ele><time>2026-05-02T09:54:23.188Z</time></trkpt><trkpt lat="44.313715" lon="10.6664593"><ele>1010.8333333333334</ele><time>2026-05-02T09:54:25.196Z</time></trkpt><trkpt lat="44.3137207" lon="10.6665754"><ele>1013.6666666666667</ele><time>2026-05-02T09:54:27.169Z</time></trkpt><trkpt lat="44.3136916" lon="10.666666"><ele>1016.5</ele><time>2026-05-02T09:54:29.194Z</time></trkpt><trkpt lat="44.3135939" lon="10.6667808"><ele>1019.3333333333334</ele><time>2026-05-02T09:54:31.194Z</time></trkpt><trkpt lat="44.3135437" lon="10.6668473"><ele>1022.1666666666667</ele><time>2026-05-02T09:54:32.229Z</time></trkpt><trkpt lat="44.3134953" lon="10.6669616"><ele>1025.0</ele><time>2026-05-02T09:54:34.194Z</time></trkpt><trkpt lat="44.3134494" lon="10.6670757"><ele>1026.6</ele><time>2026-05-02T09:54:36.2Z</time></trkpt><trkpt lat="44.3133638" lon="10.6671057"><ele>1028.2</ele><time>2026-05-02T09:54:38.246Z</time></trkpt><trkpt lat="44.3132968" lon="10.6671093"><ele>1029.8</ele><time>2026-05-02T09:54:40.228Z</time></trkpt><trkpt lat="44.3132083" lon="10.6671962"><ele>1031.4</ele><time>2026-05-02T09:54:42.175Z</time></trkpt><trkpt lat="44.3131348" lon="10.6672945"><ele>1033.0</ele><time>2026-05-02T09:54:44.184Z</time></trkpt><trkpt lat="44.3130479" lon="10.6673866"><ele>1036.1666666666665</ele><time>2026-05-02T09:54:46.171Z</time></trkpt><trkpt lat="44.3129912" lon="10.6674329"><ele>1039.3333333333333</ele><time>2026-05-02T09:54:47.17Z</time></trkpt><trkpt lat="44.3129373" lon="10.6674956"><ele>1042.5</ele><time>2026-05-02T09:54:48.167Z</time></trkpt><trkpt lat="44.3128854" lon="10.6675517"><ele>1045.6666666666667</ele><time>2026-05-02T09:54:49.205Z</time></trkpt><trkpt lat="44.3127949" lon="10.6675945"><ele>1048.8333333333335</ele><time>2026-05-02T09:54:51.177Z</time></trkpt><trkpt lat="44.3126871" lon="10.6676338"><ele>1052.0</ele><time>2026-05-02T09:54:53.171Z</time></trkpt><trkpt lat="44.3125636" lon="10.6676897"><ele>1052.0</ele><time>2026-05-02T09:54:55.182Z</time></trkpt><trkpt lat="44.3125039" lon="10.6677243"><ele>1052.0</ele><time>2026-05-02T09:54:56.194Z</time></trkpt><trkpt lat="44.3124465" lon="10.6677607"><ele>1052.0</ele><time>2026-05-02T09:54:57.19Z</time></trkpt><trkpt lat="44.3123809" lon="10.6678202"><ele>1052.0</ele><time>2026-05-02T09:54:59.218Z</time></trkpt><trkpt lat="44.3123412" lon="10.6679257"><ele>1052.0</ele><time>2026-05-02T09:55:01.185Z</time></trkpt><trkpt lat="44.3123182" lon="10.6680615"><ele>1052.0</ele><time>2026-05-02T09:55:03.191Z</time></trkpt><trkpt lat="44.3122437" lon="10.6681582"><ele>1056.0</ele><time>2026-05-02T09:55:05.218Z</time></trkpt><trkpt lat="44.3121612" lon="10.6682586"><ele>1060.0</ele><time>2026-05-02T09:55:07.168Z</time></trkpt><trkpt lat="44.3121393" lon="10.6683476"><ele>1064.0</ele><time>2026-05-02T09:55:08.203Z</time></trkpt><trkpt lat="44.3121315" lon="10.6684931"><ele>1068.0</ele><time>2026-05-02T09:55:10.19Z</time></trkpt><trkpt lat="44.3121013" lon="10.6686477"><ele>1072.0</ele><time>2026-05-02T09:55:12.157Z</time></trkpt><trkpt lat="44.312074" lon="10.6687654"><ele>1079.6666666666665</ele><time>2026-05-02T09:55:14.177Z</time></trkpt><trkpt lat="44.3120868" lon="10.6688657"><ele>1087.3333333333333</ele><time>2026-05-02T09:55:16.154Z</time></trkpt><trkpt lat="44.3121223" lon="10.6689514"><ele>1095.0</ele><time>2026-05-02T09:55:59.164Z</time></trkpt><trkpt lat="44.3121634" lon="10.6695342"><ele>1093.3333333333333</ele><time>2026-05-02T09:56:04.195Z</time></trkpt><trkpt lat="44.3121808" lon="10.6696293"><ele>1091.6666666666667</ele><time>2026-05-02T09:56:05.171Z</time></trkpt><trkpt lat="44.3121987" lon="10.6697149"><ele>1090.0</ele><time>2026-05-02T09:56:06.176Z</time></trkpt><trkpt lat="44.3122209" lon="10.6698024"><ele>1088.3333333333335</ele><time>2026-05-02T09:56:07.173Z</time></trkpt><trkpt lat="44.3122519" lon="10.6699594"><ele>1086.6666666666667</ele><time>2026-05-02T09:56:09.145Z</time></trkpt><trkpt lat="44.3122611" lon="10.6700966"><ele>1085.0</ele><time>2026-05-02T09:56:11.217Z</time></trkpt><trkpt lat="44.3122594" lon="10.6702028"><ele>1090.3333333333335</ele><time>2026-05-02T09:56:13.208Z</time></trkpt><trkpt lat="44.3122251" lon="10.6703178"><ele>1095.6666666666667</ele><time>2026-05-02T09:56:18.172Z</time></trkpt><trkpt lat="44.3121524" lon="10.6704052"><ele>1101.0</ele><time>2026-05-02T09:57:56.194Z</time></trkpt><trkpt lat="44.3120644" lon="10.6704882"><ele>1106.3333333333333</ele><time>2026-05-02T09:58:30.278Z</time></trkpt><trkpt lat="44.3120135" lon="10.6705549"><ele>1111.6666666666665</ele><time>2026-05-02T09:58:36.172Z</time></trkpt><trkpt lat="44.3119542" lon="10.6706119"><ele>1117.0</ele><time>2026-05-02T09:58:40.193Z</time></trkpt><trkpt lat="44.3118394" lon="10.670655"><ele>1117.0</ele><time>2026-05-02T09:58:43.184Z</time></trkpt><trkpt lat="44.3117768" lon="10.6706661"><ele>1117.0</ele><time>2026-05-02T09:58:45.174Z</time></trkpt><trkpt lat="44.3117401" lon="10.6707549"><ele>1117.0</ele><time>2026-05-02T09:58:48.21Z</time></trkpt><trkpt lat="44.3116757" lon="10.670849"><ele>1117.0</ele><time>2026-05-02T10:01:23.165Z</time></trkpt><trkpt lat="44.3116071" lon="10.6709484"><ele>1117.0</ele><time>2026-05-02T10:01:26.183Z</time></trkpt><trkpt lat="44.3115313" lon="10.6710064"><ele>1117.0</ele><time>2026-05-02T10:01:28.184Z</time></trkpt><trkpt lat="44.3114711" lon="10.6710807"><ele>1117.3333333333333</ele><time>2026-05-02T10:01:30.175Z</time></trkpt><trkpt lat="44.3114191" lon="10.6711722"><ele>1117.6666666666665</ele><time>2026-05-02T10:01:32.192Z</time></trkpt><trkpt lat="44.3113571" lon="10.6712883"><ele>1118.0</ele><time>2026-05-02T10:01:34.203Z</time></trkpt><trkpt lat="44.3113067" lon="10.6714082"><ele>1118.3333333333333</ele><time>2026-05-02T10:01:36.165Z</time></trkpt><trkpt lat="44.3112674" lon="10.6714822"><ele>1118.6666666666667</ele><time>2026-05-02T10:01:38.182Z</time></trkpt><trkpt lat="44.311241" lon="10.6715852"><ele>1119.0</ele><time>2026-05-02T10:02:05.159Z</time></trkpt><trkpt lat="44.3111986" lon="10.6716847"><ele>1121.6666666666667</ele><time>2026-05-02T10:02:07.202Z</time></trkpt><trkpt lat="44.3111329" lon="10.6717694"><ele>1124.3333333333333</ele><time>2026-05-02T10:02:10.198Z</time></trkpt><trkpt lat="44.3110651" lon="10.6718329"><ele>1127.0</ele><time>2026-05-02T10:02:12.196Z</time></trkpt><trkpt lat="44.3109942" lon="10.6718994"><ele>1129.6666666666665</ele><time>2026-05-02T10:02:14.174Z</time></trkpt><trkpt lat="44.3109169" lon="10.6719707"><ele>1132.3333333333333</ele><time>2026-05-02T10:02:16.22Z</time></trkpt><trkpt lat="44.310844" lon="10.6720366"><ele>1135.0</ele><time>2026-05-02T10:02:18.153Z</time></trkpt><trkpt lat="44.3107765" lon="10.6721573"><ele>1136.3333333333333</ele><time>2026-05-02T10:02:20.16Z</time></trkpt><trkpt lat="44.3107412" lon="10.6722882"><ele>1137.6666666666665</ele><time>2026-05-02T10:02:22.172Z</time></trkpt><trkpt lat="44.3107336" lon="10.6723773"><ele>1139.0</ele><time>2026-05-02T10:02:23.205Z</time></trkpt><trkpt lat="44.3107313" lon="10.6725011"><ele>1140.3333333333333</ele><time>2026-05-02T10:02:25.217Z</time></trkpt><trkpt lat="44.3107287" lon="10.6725951"><ele>1141.6666666666667</ele><time>2026-05-02T10:02:27.19Z</time></trkpt><trkpt lat="44.3106477" lon="10.6727122"><ele>1143.0</ele><time>2026-05-02T10:02:30.186Z</time></trkpt><trkpt lat="44.3105765" lon="10.6727766"><ele>1145.1666666666667</ele><time>2026-05-02T10:02:32.158Z</time></trkpt><trkpt lat="44.3104793" lon="10.6729007"><ele>1147.3333333333333</ele><time>2026-05-02T10:02:34.186Z</time></trkpt><trkpt lat="44.310434" lon="10.6729712"><ele>1149.5</ele><time>2026-05-02T10:02:35.247Z</time></trkpt><trkpt lat="44.3103852" lon="10.673046"><ele>1151.6666666666665</ele><time>2026-05-02T10:02:36.179Z</time></trkpt><trkpt lat="44.3103242" lon="10.6731306"><ele>1153.8333333333333</ele><time>2026-05-02T10:02:37.153Z</time></trkpt><trkpt lat="44.3102693" lon="10.6731992"><ele>1156.0</ele><time>2026-05-02T10:02:38.197Z</time></trkpt><trkpt lat="44.3102162" lon="10.6732603"><ele>1156.0</ele><time>2026-05-02T10:02:39.159Z</time></trkpt><trkpt lat="44.3101534" lon="10.6733559"><ele>1156.0</ele><time>2026-05-02T10:02:41.248Z</time></trkpt><trkpt lat="44.3101182" lon="10.6734842"><ele>1156.0</ele><time>2026-05-02T10:02:43.181Z</time></trkpt><trkpt lat="44.3100971" lon="10.6736488"><ele>1156.0</ele><time>2026-05-02T10:02:45.203Z</time></trkpt><trkpt lat="44.3100971" lon="10.6738025"><ele>1156.0</ele><time>2026-05-02T10:02:47.152Z</time></trkpt><trkpt lat="44.3100515" lon="10.6739482"><ele>1157.3999999999999</ele><time>2026-05-02T10:02:49.187Z</time></trkpt><trkpt lat="44.3099593" lon="10.6740566"><ele>1158.8</ele><time>2026-05-02T10:02:51.19Z</time></trkpt><trkpt lat="44.3099186" lon="10.674125"><ele>1160.1999999999998</ele><time>2026-05-02T10:02:52.226Z</time></trkpt><trkpt lat="44.3098589" lon="10.6742604"><ele>1161.6</ele><time>2026-05-02T10:02:54.131Z</time></trkpt><trkpt lat="44.30984" lon="10.6743905"><ele>1163.0</ele><time>2026-05-02T10:02:56.179Z</time></trkpt><trkpt lat="44.3097904" lon="10.6745272"><ele>1164.3333333333335</ele><time>2026-05-02T10:02:58.226Z</time></trkpt><trkpt lat="44.309744" lon="10.6745915"><ele>1165.6666666666667</ele><time>2026-05-02T10:02:59.174Z</time></trkpt><trkpt lat="44.3096721" lon="10.6746408"><ele>1167.0</ele><time>2026-05-02T10:03:00.183Z</time></trkpt><trkpt lat="44.3095944" lon="10.6746974"><ele>1168.3333333333333</ele><time>2026-05-02T10:03:01.19Z</time></trkpt><trkpt lat="44.3095185" lon="10.6747483"><ele>1169.6666666666665</ele><time>2026-05-02T10:03:02.19Z</time></trkpt><trkpt lat="44.3094388" lon="10.674804"><ele>1171.0</ele><time>2026-05-02T10:03:03.202Z</time></trkpt><trkpt lat="44.3093717" lon="10.6748427"><ele>1173.0</ele><time>2026-05-02T10:03:04.212Z</time></trkpt><trkpt lat="44.3093098" lon="10.6748738"><ele>1175.0</ele><time>2026-05-02T10:03:05.185Z</time></trkpt><trkpt lat="44.309207" lon="10.6749342"><ele>1177.0</ele><time>2026-05-02T10:03:07.175Z</time></trkpt><trkpt lat="44.3091145" lon="10.6750066"><ele>1179.0</ele><time>2026-05-02T10:03:09.199Z</time></trkpt><trkpt lat="44.3090466" lon="10.6750766"><ele>1181.0</ele><time>2026-05-02T10:03:12.201Z</time></trkpt><trkpt lat="44.3090705" lon="10.6751626"><ele>1183.0</ele><time>2026-05-02T10:03:14.179Z</time></trkpt><trkpt lat="44.3091627" lon="10.675265"><ele>1186.0</ele><time>2026-05-02T10:03:16.191Z</time></trkpt><trkpt lat="44.3092402" lon="10.6753564"><ele>1189.0</ele><time>2026-05-02T10:03:18.178Z</time></trkpt><trkpt lat="44.3092909" lon="10.6754766"><ele>1192.0</ele><time>2026-05-02T10:03:20.169Z</time></trkpt><trkpt lat="44.3093187" lon="10.6756183"><ele>1195.0</ele><time>2026-05-02T10:03:22.19Z</time></trkpt><trkpt lat="44.3092977" lon="10.6757625"><ele>1198.0</ele><time>2026-05-02T10:03:24.176Z</time></trkpt><trkpt lat="44.3092398" lon="10.6759381"><ele>1198.0</ele><time>2026-05-02T10:03:26.179Z</time></trkpt><trkpt lat="44.3092032" lon="10.6760155"><ele>1198.0</ele><time>2026-05-02T10:03:27.187Z</time></trkpt><trkpt lat="44.3091203" lon="10.676098"><ele>1198.0</ele><time>2026-05-02T10:03:29.19Z</time></trkpt><trkpt lat="44.3090825" lon="10.6761894"><ele>1198.0</ele><time>2026-05-02T10:03:31.144Z</time></trkpt><trkpt lat="44.3091034" lon="10.6763443"><ele>1198.0</ele><time>2026-05-02T10:03:33.143Z</time></trkpt><trkpt lat="44.3091438" lon="10.6764336"><ele>1198.0</ele><time>2026-05-02T10:03:35.184Z</time></trkpt><trkpt lat="44.3091668" lon="10.6765912"><ele>1200.8</ele><time>2026-05-02T10:03:37.171Z</time></trkpt><trkpt lat="44.3091151" lon="10.676709"><ele>1203.6</ele><time>2026-05-02T10:03:39.203Z</time></trkpt><trkpt lat="44.3090337" lon="10.6768135"><ele>1206.4</ele><time>2026-05-02T10:03:41.183Z</time></trkpt><trkpt lat="44.3089446" lon="10.6769071"><ele>1209.2</ele><time>2026-05-02T10:03:43.169Z</time></trkpt><trkpt lat="44.3088875" lon="10.6769544"><ele>1212.0</ele><time>2026-05-02T10:03:44.162Z</time></trkpt><trkpt lat="44.3088077" lon="10.6770269"><ele>1212.5</ele><time>2026-05-02T10:03:46.178Z</time></trkpt><trkpt lat="44.3087443" lon="10.6770993"><ele>1213.0</ele><time>2026-05-02T10:03:48.18Z</time></trkpt><trkpt lat="44.3086799" lon="10.6771765"><ele>1213.5</ele><time>2026-05-02T10:03:50.183Z</time></trkpt><trkpt lat="44.3086202" lon="10.6772188"><ele>1214.0</ele><time>2026-05-02T10:03:52.177Z</time></trkpt><trkpt lat="44.3085346" lon="10.6772011"><ele>1214.5</ele><time>2026-05-02T10:03:55.195Z</time></trkpt><trkpt lat="44.3084792" lon="10.6771193"><ele>1215.0</ele><time>2026-05-02T10:03:57.197Z</time></trkpt><trkpt lat="44.3084199" lon="10.677022"><ele>1214.5</ele><time>2026-05-02T10:03:59.163Z</time></trkpt><trkpt lat="44.3083585" lon="10.6769177"><ele>1214.0</ele><time>2026-05-02T10:04:01.245Z</time></trkpt><trkpt lat="44.3083024" lon="10.6768057"><ele>1213.5</ele><time>2026-05-02T10:04:03.151Z</time></trkpt><trkpt lat="44.3082365" lon="10.6767049"><ele>1213.0</ele><time>2026-05-02T10:04:05.178Z</time></trkpt><trkpt lat="44.3081791" lon="10.6766331"><ele>1212.5</ele><time>2026-05-02T10:04:07.149Z</time></trkpt><trkpt lat="44.3081174" lon="10.6765737"><ele>1212.0</ele><time>2026-05-02T10:04:09.191Z</time></trkpt><trkpt lat="44.3080419" lon="10.676481"><ele>1211.0</ele><time>2026-05-02T10:04:11.199Z</time></trkpt><trkpt lat="44.3079651" lon="10.6763891"><ele>1210.0</ele><time>2026-05-02T10:04:13.19Z</time></trkpt><trkpt lat="44.3078686" lon="10.6762856"><ele>1209.0</ele><time>2026-05-02T10:04:15.173Z</time></trkpt><trkpt lat="44.3077758" lon="10.6761923"><ele>1208.0</ele><time>2026-05-02T10:04:17.179Z</time></trkpt><trkpt lat="44.3076698" lon="10.6761047"><ele>1206.6</ele><time>2026-05-02T10:04:19.178Z</time></trkpt><trkpt lat="44.3075848" lon="10.6760413"><ele>1205.1999999999998</ele><time>2026-05-02T10:04:21.198Z</time></trkpt><trkpt lat="44.3074957" lon="10.6759353"><ele>1203.8</ele><time>2026-05-02T10:04:23.177Z</time></trkpt><trkpt lat="44.3073949" lon="10.6758244"><ele>1202.3999999999999</ele><time>2026-05-02T10:04:25.178Z</time></trkpt><trkpt lat="44.3073138" lon="10.6757532"><ele>1201.0</ele><time>2026-05-02T10:04:27.183Z</time></trkpt><trkpt lat="44.3072224" lon="10.6757066"><ele>1198.2</ele><time>2026-05-02T10:04:29.216Z</time></trkpt><trkpt lat="44.3071186" lon="10.6756959"><ele>1195.3999999999999</ele><time>2026-05-02T10:04:31.175Z</time></trkpt><trkpt lat="44.3070002" lon="10.6756749"><ele>1192.6</ele><time>2026-05-02T10:04:33.181Z</time></trkpt><trkpt lat="44.3068732" lon="10.6756733"><ele>1189.8</ele><time>2026-05-02T10:04:35.229Z</time></trkpt><trkpt lat="44.3068082" lon="10.6756836"><ele>1187.0</ele><time>2026-05-02T10:04:36.175Z</time></trkpt><trkpt lat="44.306704" lon="10.6757691"><ele>1187.0</ele><time>2026-05-02T10:04:38.168Z</time></trkpt><trkpt lat="44.3066538" lon="10.6758292"><ele>1187.0</ele><time>2026-05-02T10:04:39.17Z</time></trkpt><trkpt lat="44.3065681" lon="10.675934"><ele>1187.0</ele><time>2026-05-02T10:04:41.213Z</time></trkpt><trkpt lat="44.3064811" lon="10.6760152"><ele>1187.0</ele><time>2026-05-02T10:04:43.178Z</time></trkpt><trkpt lat="44.3064029" lon="10.6760673"><ele>1187.0</ele><time>2026-05-02T10:04:45.18Z</time></trkpt><trkpt lat="44.3063107" lon="10.6761023"><ele>1184.6</ele><time>2026-05-02T10:04:47.196Z</time></trkpt><trkpt lat="44.3061969" lon="10.6760995"><ele>1182.2</ele><time>2026-05-02T10:04:49.17Z</time></trkpt><trkpt lat="44.3060723" lon="10.676074"><ele>1179.8</ele><time>2026-05-02T10:04:51.172Z</time></trkpt><trkpt lat="44.3060103" lon="10.6760581"><ele>1177.4</ele><time>2026-05-02T10:04:52.192Z</time></trkpt><trkpt lat="44.3058869" lon="10.6760345"><ele>1175.0</ele><time>2026-05-02T10:04:54.187Z</time></trkpt><trkpt lat="44.3057719" lon="10.6760286"><ele>1175.0</ele><time>2026-05-02T10:04:56.184Z</time></trkpt><trkpt lat="44.3056753" lon="10.6760255"><ele>1175.0</ele><time>2026-05-02T10:04:58.228Z</time></trkpt><trkpt lat="44.3055944" lon="10.6759889"><ele>1175.0</ele><time>2026-05-02T10:05:00.151Z</time></trkpt><trkpt lat="44.3055079" lon="10.6759208"><ele>1175.0</ele><time>2026-05-02T10:05:02.161Z</time></trkpt><trkpt lat="44.3054134" lon="10.6758581"><ele>1175.0</ele><time>2026-05-02T10:05:04.197Z</time></trkpt><trkpt lat="44.3053212" lon="10.6757899"><ele>1173.0</ele><time>2026-05-02T10:05:06.2Z</time></trkpt><trkpt lat="44.3052522" lon="10.675659"><ele>1171.0</ele><time>2026-05-02T10:05:08.177Z</time></trkpt><trkpt lat="44.3052142" lon="10.6755831"><ele>1169.0</ele><time>2026-05-02T10:05:09.268Z</time></trkpt><trkpt lat="44.3051551" lon="10.6754508"><ele>1167.0</ele><time>2026-05-02T10:05:11.19Z</time></trkpt><trkpt lat="44.3050965" lon="10.6753421"><ele>1165.0</ele><time>2026-05-02T10:05:13.176Z</time></trkpt><trkpt lat="44.3049799" lon="10.6752972"><ele>1164.9999999999998</ele><time>2026-05-02T10:05:15.253Z</time></trkpt><trkpt lat="44.3049141" lon="10.6752752"><ele>1165.0</ele><time>2026-05-02T10:05:16.176Z</time></trkpt><trkpt lat="44.3048507" lon="10.6752532"><ele>1165.0</ele><time>2026-05-02T10:05:17.189Z</time></trkpt><trkpt lat="44.3047892" lon="10.6752324"><ele>1165.0</ele><time>2026-05-02T10:05:18.177Z</time></trkpt><trkpt lat="44.3046907" lon="10.6751839"><ele>1165.0</ele><time>2026-05-02T10:05:20.198Z</time></trkpt><trkpt lat="44.3046286" lon="10.6751504"><ele>1164.9999999999998</ele><time>2026-05-02T10:05:22.194Z</time></trkpt><trkpt lat="44.3045632" lon="10.6751176"><ele>1165.0</ele><time>2026-05-02T10:05:34.196Z</time></trkpt><trkpt lat="44.3044995" lon="10.6750916"><ele>1165.5</ele><time>2026-05-02T10:05:38.165Z</time></trkpt><trkpt lat="44.3044209" lon="10.6750391"><ele>1166.0</ele><time>2026-05-02T10:05:45.212Z</time></trkpt><trkpt lat="44.3043603" lon="10.6750027"><ele>1166.5</ele><time>2026-05-02T10:05:46.22Z</time></trkpt><trkpt lat="44.3043013" lon="10.6749623"><ele>1167.0</ele><time>2026-05-02T10:05:47.169Z</time></trkpt><trkpt lat="44.3042326" lon="10.6749205"><ele>1167.5</ele><time>2026-05-02T10:05:48.243Z</time></trkpt><trkpt lat="44.3041579" lon="10.6748738"><ele>1168.0</ele><time>2026-05-02T10:05:49.177Z</time></trkpt><trkpt lat="44.3040809" lon="10.6748256"><ele>1168.0</ele><time>2026-05-02T10:05:50.196Z</time></trkpt><trkpt lat="44.3040017" lon="10.6747787"><ele>1168.0</ele><time>2026-05-02T10:05:51.174Z</time></trkpt><trkpt lat="44.3039217" lon="10.6747346"><ele>1168.0</ele><time>2026-05-02T10:05:52.17Z</time></trkpt><trkpt lat="44.3038452" lon="10.674695"><ele>1168.0</ele><time>2026-05-02T10:05:53.166Z</time></trkpt><trkpt lat="44.303772" lon="10.6746598"><ele>1168.0</ele><time>2026-05-02T10:05:54.155Z</time></trkpt><trkpt lat="44.3037028" lon="10.6746305"><ele>1168.0</ele><time>2026-05-02T10:05:55.192Z</time></trkpt><trkpt lat="44.3036369" lon="10.6746014"><ele>1167.5</ele><time>2026-05-02T10:05:56.188Z</time></trkpt><trkpt lat="44.303569" lon="10.6745751"><ele>1167.0</ele><time>2026-05-02T10:05:57.196Z</time></trkpt><trkpt lat="44.3035013" lon="10.6745498"><ele>1166.5</ele><time>2026-05-02T10:05:58.208Z</time></trkpt><trkpt lat="44.3034333" lon="10.6745231"><ele>1166.0</ele><time>2026-05-02T10:05:59.218Z</time></trkpt><trkpt lat="44.3033581" lon="10.6744943"><ele>1165.5</ele><time>2026-05-02T10:06:00.183Z</time></trkpt><trkpt lat="44.3032808" lon="10.6744468"><ele>1165.0</ele><time>2026-05-02T10:06:01.181Z</time></trkpt><trkpt lat="44.303197" lon="10.6743766"><ele>1165.0</ele><time>2026-05-02T10:06:02.2Z</time></trkpt><trkpt lat="44.303112" lon="10.6742952"><ele>1165.0</ele><time>2026-05-02T10:06:03.141Z</time></trkpt><trkpt lat="44.3030266" lon="10.6742087"><ele>1165.0</ele><time>2026-05-02T10:06:04.164Z</time></trkpt><trkpt lat="44.3029413" lon="10.6741158"><ele>1165.0</ele><time>2026-05-02T10:06:05.174Z</time></trkpt><trkpt lat="44.3028621" lon="10.6740176"><ele>1165.0</ele><time>2026-05-02T10:06:06.177Z</time></trkpt><trkpt lat="44.3027897" lon="10.6739252"><ele>1165.0</ele><time>2026-05-02T10:06:07.168Z</time></trkpt><trkpt lat="44.3027121" lon="10.6738101"><ele>1165.0</ele><time>2026-05-02T10:06:08.187Z</time></trkpt><trkpt lat="44.3026422" lon="10.6736986"><ele>1165.0</ele><time>2026-05-02T10:06:09.17Z</time></trkpt><trkpt lat="44.3025766" lon="10.673583"><ele>1165.0</ele><time>2026-05-02T10:06:10.181Z</time></trkpt><trkpt lat="44.3025093" lon="10.6734711"><ele>1165.0</ele><time>2026-05-02T10:06:11.141Z</time></trkpt><trkpt lat="44.3024475" lon="10.6733663"><ele>1165.0</ele><time>2026-05-02T10:06:12.186Z</time></trkpt><trkpt lat="44.3023937" lon="10.6732664"><ele>1165.0</ele><time>2026-05-02T10:06:13.178Z</time></trkpt><trkpt lat="44.3023342" lon="10.6731633"><ele>1165.0</ele><time>2026-05-02T10:06:14.183Z</time></trkpt><trkpt lat="44.3022777" lon="10.6730697"><ele>1165.0</ele><time>2026-05-02T10:06:15.187Z</time></trkpt><trkpt lat="44.3022213" lon="10.6729731"><ele>1165.0</ele><time>2026-05-02T10:06:16.165Z</time></trkpt><trkpt lat="44.3021674" lon="10.6728825"><ele>1165.0</ele><time>2026-05-02T10:06:17.17Z</time></trkpt><trkpt lat="44.3021157" lon="10.6727918"><ele>1166.8</ele><time>2026-05-02T10:06:18.176Z</time></trkpt><trkpt lat="44.3020658" lon="10.6726979"><ele>1168.6</ele><time>2026-05-02T10:06:19.137Z</time></trkpt><trkpt lat="44.3020139" lon="10.6726024"><ele>1170.4</ele><time>2026-05-02T10:06:20.174Z</time></trkpt><trkpt lat="44.3019634" lon="10.6725014"><ele>1172.2</ele><time>2026-05-02T10:06:21.2Z</time></trkpt><trkpt lat="44.3019198" lon="10.67239"><ele>1174.0</ele><time>2026-05-02T10:06:22.192Z</time></trkpt><trkpt lat="44.3018727" lon="10.6722616"><ele>1174.0</ele><time>2026-05-02T10:06:23.149Z</time></trkpt><trkpt lat="44.3018273" lon="10.6721376"><ele>1174.0</ele><time>2026-05-02T10:06:24.169Z</time></trkpt><trkpt lat="44.3017831" lon="10.6720317"><ele>1174.0</ele><time>2026-05-02T10:06:25.17Z</time></trkpt><trkpt lat="44.3017382" lon="10.6719347"><ele>1174.0</ele><time>2026-05-02T10:06:26.167Z</time></trkpt><trkpt lat="44.3016838" lon="10.6718366"><ele>1174.0</ele><time>2026-05-02T10:06:27.183Z</time></trkpt><trkpt lat="44.301624" lon="10.6717481"><ele>1174.0</ele><time>2026-05-02T10:06:28.164Z</time></trkpt><trkpt lat="44.3015665" lon="10.6716499"><ele>1174.6000000000001</ele><time>2026-05-02T10:06:29.187Z</time></trkpt><trkpt lat="44.301516" lon="10.6715568"><ele>1175.2</ele><time>2026-05-02T10:06:30.172Z</time></trkpt><trkpt lat="44.3014548" lon="10.6714604"><ele>1175.8000000000002</ele><time>2026-05-02T10:06:31.177Z</time></trkpt><trkpt lat="44.3013919" lon="10.6713666"><ele>1176.4</ele><time>2026-05-02T10:06:32.163Z</time></trkpt><trkpt lat="44.3013313" lon="10.6712606"><ele>1177.0</ele><time>2026-05-02T10:06:33.167Z</time></trkpt><trkpt lat="44.3012681" lon="10.6711637"><ele>1179.4</ele><time>2026-05-02T10:06:34.153Z</time></trkpt><trkpt lat="44.3012049" lon="10.6710607"><ele>1181.8000000000002</ele><time>2026-05-02T10:06:35.182Z</time></trkpt><trkpt lat="44.301134" lon="10.6709638"><ele>1184.2</ele><time>2026-05-02T10:06:36.195Z</time></trkpt><trkpt lat="44.301066" lon="10.6708784"><ele>1186.6000000000001</ele><time>2026-05-02T10:06:37.186Z</time></trkpt><trkpt lat="44.3010025" lon="10.6707839"><ele>1189.0</ele><time>2026-05-02T10:06:38.181Z</time></trkpt><trkpt lat="44.3009435" lon="10.6706892"><ele>1189.0</ele><time>2026-05-02T10:06:39.186Z</time></trkpt><trkpt lat="44.3008994" lon="10.6705825"><ele>1189.0</ele><time>2026-05-02T10:06:40.207Z</time></trkpt><trkpt lat="44.3008653" lon="10.6704763"><ele>1189.0</ele><time>2026-05-02T10:06:41.193Z</time></trkpt><trkpt lat="44.30083" lon="10.6703704"><ele>1189.0</ele><time>2026-05-02T10:06:42.154Z</time></trkpt><trkpt lat="44.3007886" lon="10.6702653"><ele>1189.0</ele><time>2026-05-02T10:06:43.16Z</time></trkpt><trkpt lat="44.3007378" lon="10.6701753"><ele>1189.0</ele><time>2026-05-02T10:06:44.176Z</time></trkpt><trkpt lat="44.300681" lon="10.6700923"><ele>1189.6666666666665</ele><time>2026-05-02T10:06:45.188Z</time></trkpt><trkpt lat="44.300625" lon="10.6700127"><ele>1190.3333333333333</ele><time>2026-05-02T10:06:46.169Z</time></trkpt><trkpt lat="44.3005553" lon="10.6699434"><ele>1191.0</ele><time>2026-05-02T10:06:47.17Z</time></trkpt><trkpt lat="44.3004817" lon="10.6698754"><ele>1191.6666666666667</ele><time>2026-05-02T10:06:48.169Z</time></trkpt><trkpt lat="44.3004036" lon="10.6698031"><ele>1192.3333333333335</ele><time>2026-05-02T10:06:49.183Z</time></trkpt><trkpt lat="44.3003308" lon="10.6697227"><ele>1193.0</ele><time>2026-05-02T10:06:50.178Z</time></trkpt><trkpt lat="44.3002586" lon="10.6696526"><ele>1194.0</ele><time>2026-05-02T10:06:51.141Z</time></trkpt><trkpt lat="44.3001828" lon="10.6695884"><ele>1195.0</ele><time>2026-05-02T10:06:52.192Z</time></trkpt><trkpt lat="44.3001049" lon="10.6695316"><ele>1196.0</ele><time>2026-05-02T10:06:53.217Z</time></trkpt><trkpt lat="44.3000329" lon="10.6694753"><ele>1197.0</ele><time>2026-05-02T10:06:54.148Z</time></trkpt><trkpt lat="44.2999551" lon="10.6694266"><ele>1198.0</ele><time>2026-05-02T10:06:55.16Z</time></trkpt><trkpt lat="44.2998802" lon="10.6693768"><ele>1199.0</ele><time>2026-05-02T10:06:56.22Z</time></trkpt><trkpt lat="44.299802" lon="10.6693166"><ele>1200.8333333333335</ele><time>2026-05-02T10:06:57.19Z</time></trkpt><trkpt lat="44.2997304" lon="10.6692511"><ele>1202.6666666666667</ele><time>2026-05-02T10:06:58.203Z</time></trkpt><trkpt lat="44.2996583" lon="10.6691796"><ele>1204.5</ele><time>2026-05-02T10:06:59.197Z</time></trkpt><trkpt lat="44.2995887" lon="10.669099"><ele>1206.3333333333333</ele><time>2026-05-02T10:07:00.196Z</time></trkpt><trkpt lat="44.2995183" lon="10.6690256"><ele>1208.1666666666665</ele><time>2026-05-02T10:07:01.156Z</time></trkpt><trkpt lat="44.2994523" lon="10.6689659"><ele>1210.0</ele><time>2026-05-02T10:07:02.207Z</time></trkpt><trkpt lat="44.2993819" lon="10.6689054"><ele>1210.0</ele><time>2026-05-02T10:07:03.202Z</time></trkpt><trkpt lat="44.2993142" lon="10.6688419"><ele>1210.0</ele><time>2026-05-02T10:07:04.268Z</time></trkpt><trkpt lat="44.2992375" lon="10.6687851"><ele>1210.0</ele><time>2026-05-02T10:07:05.194Z</time></trkpt><trkpt lat="44.2991651" lon="10.6687304"><ele>1210.0</ele><time>2026-05-02T10:07:06.193Z</time></trkpt><trkpt lat="44.2990949" lon="10.6686845"><ele>1210.0</ele><time>2026-05-02T10:07:07.188Z</time></trkpt><trkpt lat="44.2990247" lon="10.6686299"><ele>1210.0</ele><time>2026-05-02T10:07:08.192Z</time></trkpt><trkpt lat="44.2989452" lon="10.6685716"><ele>1210.6</ele><time>2026-05-02T10:07:09.197Z</time></trkpt><trkpt lat="44.298864" lon="10.6685117"><ele>1211.2</ele><time>2026-05-02T10:07:10.236Z</time></trkpt><trkpt lat="44.2987783" lon="10.6684475"><ele>1211.8</ele><time>2026-05-02T10:07:11.201Z</time></trkpt><trkpt lat="44.2986937" lon="10.668392"><ele>1212.4</ele><time>2026-05-02T10:07:12.192Z</time></trkpt><trkpt lat="44.2986197" lon="10.6683385"><ele>1213.0</ele><time>2026-05-02T10:07:13.186Z</time></trkpt><trkpt lat="44.29854" lon="10.6682951"><ele>1213.0</ele><time>2026-05-02T10:07:14.202Z</time></trkpt><trkpt lat="44.2984707" lon="10.6682527"><ele>1213.0</ele><time>2026-05-02T10:07:15.169Z</time></trkpt><trkpt lat="44.2983912" lon="10.6682092"><ele>1213.0</ele><time>2026-05-02T10:07:16.185Z</time></trkpt><trkpt lat="44.2983146" lon="10.6681667"><ele>1213.0</ele><time>2026-05-02T10:07:17.186Z</time></trkpt><trkpt lat="44.2982402" lon="10.6681212"><ele>1213.0</ele><time>2026-05-02T10:07:18.204Z</time></trkpt><trkpt lat="44.2981648" lon="10.6680778"><ele>1213.0</ele><time>2026-05-02T10:07:19.209Z</time></trkpt><trkpt lat="44.2980892" lon="10.6680321"><ele>1214.6</ele><time>2026-05-02T10:07:20.166Z</time></trkpt><trkpt lat="44.2980135" lon="10.6679913"><ele>1216.1999999999998</ele><time>2026-05-02T10:07:21.158Z</time></trkpt><trkpt lat="44.2979448" lon="10.6679626"><ele>1217.8</ele><time>2026-05-02T10:07:22.191Z</time></trkpt><trkpt lat="44.2978755" lon="10.6679361"><ele>1219.3999999999999</ele><time>2026-05-02T10:07:23.217Z</time></trkpt><trkpt lat="44.2977643" lon="10.6678852"><ele>1221.0</ele><time>2026-05-02T10:07:25.172Z</time></trkpt><trkpt lat="44.2976577" lon="10.6677991"><ele>1221.2857142857142</ele><time>2026-05-02T10:07:27.251Z</time></trkpt><trkpt lat="44.2976138" lon="10.6677274"><ele>1221.5714285714284</ele><time>2026-05-02T10:07:28.2Z</time></trkpt><trkpt lat="44.2975704" lon="10.6676585"><ele>1221.8571428571427</ele><time>2026-05-02T10:07:29.187Z</time></trkpt><trkpt lat="44.2975354" lon="10.667559"><ele>1222.142857142857</ele><time>2026-05-02T10:07:30.188Z</time></trkpt><trkpt lat="44.2974936" lon="10.667462"><ele>1222.4285714285716</ele><time>2026-05-02T10:07:31.197Z</time></trkpt><trkpt lat="44.2974473" lon="10.6673766"><ele>1222.7142857142856</ele><time>2026-05-02T10:07:32.201Z</time></trkpt><trkpt lat="44.2974029" lon="10.6673079"><ele>1223.0</ele><time>2026-05-02T10:07:33.188Z</time></trkpt><trkpt lat="44.2973127" lon="10.6671992"><ele>1223.0</ele><time>2026-05-02T10:07:35.205Z</time></trkpt><trkpt lat="44.2972599" lon="10.6671375"><ele>1223.0</ele><time>2026-05-02T10:07:36.194Z</time></trkpt><trkpt lat="44.2972061" lon="10.6670717"><ele>1223.0</ele><time>2026-05-02T10:07:37.192Z</time></trkpt><trkpt lat="44.2971483" lon="10.6670047"><ele>1223.0</ele><time>2026-05-02T10:07:38.19Z</time></trkpt><trkpt lat="44.2970874" lon="10.6669348"><ele>1223.0</ele><time>2026-05-02T10:07:39.246Z</time></trkpt><trkpt lat="44.2970127" lon="10.6668615"><ele>1223.0</ele><time>2026-05-02T10:07:40.188Z</time></trkpt><trkpt lat="44.2969423" lon="10.6667854"><ele>1225.3333333333335</ele><time>2026-05-02T10:07:41.227Z</time></trkpt><trkpt lat="44.2968784" lon="10.6667016"><ele>1227.6666666666667</ele><time>2026-05-02T10:07:42.19Z</time></trkpt><trkpt lat="44.2968182" lon="10.6666162"><ele>1230.0</ele><time>2026-05-02T10:07:43.177Z</time></trkpt><trkpt lat="44.2967639" lon="10.6665387"><ele>1232.3333333333333</ele><time>2026-05-02T10:07:44.176Z</time></trkpt><trkpt lat="44.2967129" lon="10.6664647"><ele>1234.6666666666665</ele><time>2026-05-02T10:07:45.184Z</time></trkpt><trkpt lat="44.2966612" lon="10.6663852"><ele>1237.0</ele><time>2026-05-02T10:07:46.154Z</time></trkpt><trkpt lat="44.2966" lon="10.6662841"><ele>1237.0</ele><time>2026-05-02T10:07:47.192Z</time></trkpt><trkpt lat="44.2965466" lon="10.6662002"><ele>1237.0</ele><time>2026-05-02T10:07:48.165Z</time></trkpt><trkpt lat="44.2964876" lon="10.6661091"><ele>1237.0</ele><time>2026-05-02T10:07:49.165Z</time></trkpt><trkpt lat="44.2964324" lon="10.6660266"><ele>1237.0</ele><time>2026-05-02T10:07:50.173Z</time></trkpt><trkpt lat="44.2963903" lon="10.6659496"><ele>1237.0</ele><time>2026-05-02T10:07:51.208Z</time></trkpt><trkpt lat="44.2963495" lon="10.665872"><ele>1237.0</ele><time>2026-05-02T10:07:52.144Z</time></trkpt><trkpt lat="44.2963065" lon="10.665786"><ele>1237.8333333333333</ele><time>2026-05-02T10:07:53.134Z</time></trkpt><trkpt lat="44.2962662" lon="10.6657055"><ele>1238.6666666666665</ele><time>2026-05-02T10:07:54.135Z</time></trkpt><trkpt lat="44.2962201" lon="10.6656122"><ele>1239.5</ele><time>2026-05-02T10:07:55.164Z</time></trkpt><trkpt lat="44.2961775" lon="10.6655199"><ele>1240.3333333333333</ele><time>2026-05-02T10:07:56.171Z</time></trkpt><trkpt lat="44.2961211" lon="10.665445"><ele>1241.1666666666667</ele><time>2026-05-02T10:07:57.147Z</time></trkpt><trkpt lat="44.2960567" lon="10.665393"><ele>1242.0</ele><time>2026-05-02T10:07:58.185Z</time></trkpt><trkpt lat="44.2959854" lon="10.6653442"><ele>1242.0</ele><time>2026-05-02T10:07:59.206Z</time></trkpt><trkpt lat="44.2959198" lon="10.665311"><ele>1242.0</ele><time>2026-05-02T10:08:00.194Z</time></trkpt><trkpt lat="44.2958473" lon="10.665306"><ele>1242.0</ele><time>2026-05-02T10:08:01.205Z</time></trkpt><trkpt lat="44.295777" lon="10.6653185"><ele>1242.0</ele><time>2026-05-02T10:08:02.178Z</time></trkpt><trkpt lat="44.2957135" lon="10.6653333"><ele>1242.0</ele><time>2026-05-02T10:08:03.182Z</time></trkpt><trkpt lat="44.2956212" lon="10.6654241"><ele>1242.0</ele><time>2026-05-02T10:08:05.164Z</time></trkpt><trkpt lat="44.2955814" lon="10.6655744"><ele>1242.0</ele><time>2026-05-02T10:08:07.236Z</time></trkpt><trkpt lat="44.2955955" lon="10.66567"><ele>1242.0</ele><time>2026-05-02T10:08:08.18Z</time></trkpt><trkpt lat="44.2956229" lon="10.6657866"><ele>1242.0</ele><time>2026-05-02T10:08:09.176Z</time></trkpt><trkpt lat="44.2956505" lon="10.6659106"><ele>1242.0</ele><time>2026-05-02T10:08:10.198Z</time></trkpt><trkpt lat="44.2956829" lon="10.6660536"><ele>1242.0</ele><time>2026-05-02T10:08:11.198Z</time></trkpt><trkpt lat="44.2957061" lon="10.6661868"><ele>1243.5</ele><time>2026-05-02T10:08:12.179Z</time></trkpt><trkpt lat="44.2957276" lon="10.6663031"><ele>1245.0</ele><time>2026-05-02T10:08:13.235Z</time></trkpt><trkpt lat="44.2957509" lon="10.6664064"><ele>1246.5</ele><time>2026-05-02T10:08:14.198Z</time></trkpt><trkpt lat="44.2957681" lon="10.6665042"><ele>1248.0</ele><time>2026-05-02T10:08:15.182Z</time></trkpt><trkpt lat="44.2957787" lon="10.6665998"><ele>1249.5</ele><time>2026-05-02T10:08:16.196Z</time></trkpt><trkpt lat="44.295784" lon="10.6667757"><ele>1251.0</ele><time>2026-05-02T10:08:18.205Z</time></trkpt><trkpt lat="44.2957658" lon="10.6668646"><ele>1251.0</ele><time>2026-05-02T10:08:19.239Z</time></trkpt><trkpt lat="44.2957238" lon="10.6669369"><ele>1251.0</ele><time>2026-05-02T10:08:20.154Z</time></trkpt><trkpt lat="44.2956695" lon="10.6669846"><ele>1251.0</ele><time>2026-05-02T10:08:21.18Z</time></trkpt><trkpt lat="44.2955998" lon="10.6670022"><ele>1251.0</ele><time>2026-05-02T10:08:22.15Z</time></trkpt><trkpt lat="44.2955322" lon="10.6670147"><ele>1251.0</ele><time>2026-05-02T10:08:23.185Z</time></trkpt><trkpt lat="44.2954619" lon="10.667025"><ele>1251.0</ele><time>2026-05-02T10:08:24.193Z</time></trkpt><trkpt lat="44.2953945" lon="10.6670196"><ele>1251.0</ele><time>2026-05-02T10:08:25.192Z</time></trkpt><trkpt lat="44.2953245" lon="10.6669961"><ele>1251.5</ele><time>2026-05-02T10:08:26.188Z</time></trkpt><trkpt lat="44.2952489" lon="10.666969"><ele>1252.0</ele><time>2026-05-02T10:08:27.217Z</time></trkpt><trkpt lat="44.2951676" lon="10.6669524"><ele>1252.5</ele><time>2026-05-02T10:08:28.197Z</time></trkpt><trkpt lat="44.2950828" lon="10.6669304"><ele>1253.0</ele><time>2026-05-02T10:08:29.199Z</time></trkpt><trkpt lat="44.2950019" lon="10.6669109"><ele>1253.5</ele><time>2026-05-02T10:08:30.19Z</time></trkpt><trkpt lat="44.29493" lon="10.6668984"><ele>1254.0</ele><time>2026-05-02T10:08:31.172Z</time></trkpt><trkpt lat="44.2948621" lon="10.6668982"><ele>1254.0</ele><time>2026-05-02T10:08:32.191Z</time></trkpt><trkpt lat="44.2947957" lon="10.6669149"><ele>1254.0</ele><time>2026-05-02T10:08:33.185Z</time></trkpt><trkpt lat="44.2947346" lon="10.6669476"><ele>1254.0</ele><time>2026-05-02T10:08:34.201Z</time></trkpt><trkpt lat="44.2946711" lon="10.6669839"><ele>1254.0</ele><time>2026-05-02T10:08:35.168Z</time></trkpt><trkpt lat="44.2946063" lon="10.6670585"><ele>1254.0</ele><time>2026-05-02T10:08:36.172Z</time></trkpt><trkpt lat="44.2945425" lon="10.6671364"><ele>1254.0</ele><time>2026-05-02T10:08:37.187Z</time></trkpt><trkpt lat="44.2944645" lon="10.6672216"><ele>1255.0</ele><time>2026-05-02T10:08:38.208Z</time></trkpt><trkpt lat="44.2943905" lon="10.6672958"><ele>1256.0</ele><time>2026-05-02T10:08:39.191Z</time></trkpt><trkpt lat="44.2943207" lon="10.6673683"><ele>1257.0</ele><time>2026-05-02T10:08:40.198Z</time></trkpt><trkpt lat="44.2942507" lon="10.6674328"><ele>1258.0</ele><time>2026-05-02T10:08:41.226Z</time></trkpt><trkpt lat="44.2941895" lon="10.6674904"><ele>1259.0</ele><time>2026-05-02T10:08:42.194Z</time></trkpt><trkpt lat="44.2941336" lon="10.6675429"><ele>1260.0</ele><time>2026-05-02T10:08:43.189Z</time></trkpt><trkpt lat="44.294076" lon="10.6675915"><ele>1260.0</ele><time>2026-05-02T10:08:44.146Z</time></trkpt><trkpt lat="44.294018" lon="10.6676362"><ele>1260.0</ele><time>2026-05-02T10:08:45.194Z</time></trkpt><trkpt lat="44.2939547" lon="10.6676782"><ele>1260.0</ele><time>2026-05-02T10:08:46.192Z</time></trkpt><trkpt lat="44.2938839" lon="10.6677132"><ele>1260.0</ele><time>2026-05-02T10:08:47.187Z</time></trkpt><trkpt lat="44.2938083" lon="10.6677496"><ele>1260.0</ele><time>2026-05-02T10:08:48.188Z</time></trkpt><trkpt lat="44.2937244" lon="10.66778"><ele>1260.0</ele><time>2026-05-02T10:08:49.187Z</time></trkpt><trkpt lat="44.2936393" lon="10.6678073"><ele>1260.8333333333333</ele><time>2026-05-02T10:08:50.179Z</time></trkpt><trkpt lat="44.293554" lon="10.6678338"><ele>1261.6666666666667</ele><time>2026-05-02T10:08:51.188Z</time></trkpt><trkpt lat="44.2934667" lon="10.667869"><ele>1262.5</ele><time>2026-05-02T10:08:52.17Z</time></trkpt><trkpt lat="44.2933918" lon="10.667904"><ele>1263.3333333333335</ele><time>2026-05-02T10:08:53.181Z</time></trkpt><trkpt lat="44.2933292" lon="10.6679415"><ele>1264.1666666666667</ele><time>2026-05-02T10:08:54.197Z</time></trkpt><trkpt lat="44.2932571" lon="10.6679937"><ele>1265.0</ele><time>2026-05-02T10:08:55.206Z</time></trkpt><trkpt lat="44.2931889" lon="10.6680527"><ele>1265.0</ele><time>2026-05-02T10:08:56.188Z</time></trkpt><trkpt lat="44.2931225" lon="10.6681095"><ele>1265.0</ele><time>2026-05-02T10:08:57.16Z</time></trkpt><trkpt lat="44.2930463" lon="10.668178"><ele>1265.0</ele><time>2026-05-02T10:08:58.166Z</time></trkpt><trkpt lat="44.2929722" lon="10.6682496"><ele>1265.0</ele><time>2026-05-02T10:08:59.208Z</time></trkpt><trkpt lat="44.2929037" lon="10.668318"><ele>1265.0</ele><time>2026-05-02T10:09:00.199Z</time></trkpt><trkpt lat="44.2928399" lon="10.6683859"><ele>1265.0</ele><time>2026-05-02T10:09:01.186Z</time></trkpt><trkpt lat="44.2927745" lon="10.6684562"><ele>1265.0</ele><time>2026-05-02T10:09:02.235Z</time></trkpt><trkpt lat="44.2927086" lon="10.6685227"><ele>1265.0</ele><time>2026-05-02T10:09:03.237Z</time></trkpt><trkpt lat="44.2926418" lon="10.6685903"><ele>1265.0</ele><time>2026-05-02T10:09:04.183Z</time></trkpt><trkpt lat="44.292578" lon="10.6686615"><ele>1265.0</ele><time>2026-05-02T10:09:05.187Z</time></trkpt><trkpt lat="44.2925145" lon="10.6687291"><ele>1265.0</ele><time>2026-05-02T10:09:06.181Z</time></trkpt><trkpt lat="44.2924475" lon="10.6688052"><ele>1265.0</ele><time>2026-05-02T10:09:07.196Z</time></trkpt><trkpt lat="44.2923819" lon="10.6688767"><ele>1265.5</ele><time>2026-05-02T10:09:08.195Z</time></trkpt><trkpt lat="44.2923208" lon="10.6689487"><ele>1266.0</ele><time>2026-05-02T10:09:09.168Z</time></trkpt><trkpt lat="44.2922616" lon="10.6690209"><ele>1266.5</ele><time>2026-05-02T10:09:10.196Z</time></trkpt><trkpt lat="44.2922068" lon="10.6690972"><ele>1267.0</ele><time>2026-05-02T10:09:11.181Z</time></trkpt><trkpt lat="44.2921467" lon="10.669188"><ele>1267.5</ele><time>2026-05-02T10:09:12.202Z</time></trkpt><trkpt lat="44.292087" lon="10.6692759"><ele>1268.0</ele><time>2026-05-02T10:09:13.186Z</time></trkpt><trkpt lat="44.2920214" lon="10.6693696"><ele>1269.4</ele><time>2026-05-02T10:09:14.185Z</time></trkpt><trkpt lat="44.2919442" lon="10.6694461"><ele>1270.8</ele><time>2026-05-02T10:09:15.199Z</time></trkpt><trkpt lat="44.2918486" lon="10.669515"><ele>1272.2</ele><time>2026-05-02T10:09:16.191Z</time></trkpt><trkpt lat="44.2917554" lon="10.6695805"><ele>1273.6</ele><time>2026-05-02T10:09:17.198Z</time></trkpt><trkpt lat="44.2916579" lon="10.6696384"><ele>1275.0</ele><time>2026-05-02T10:09:18.195Z</time></trkpt><trkpt lat="44.2915619" lon="10.6696972"><ele>1275.0</ele><time>2026-05-02T10:09:19.181Z</time></trkpt><trkpt lat="44.2914694" lon="10.6697533"><ele>1275.0</ele><time>2026-05-02T10:09:20.179Z</time></trkpt><trkpt lat="44.29138" lon="10.669809"><ele>1275.0</ele><time>2026-05-02T10:09:21.192Z</time></trkpt><trkpt lat="44.2912923" lon="10.6698645"><ele>1275.0</ele><time>2026-05-02T10:09:22.167Z</time></trkpt><trkpt lat="44.2912093" lon="10.6699261"><ele>1275.0</ele><time>2026-05-02T10:09:23.179Z</time></trkpt><trkpt lat="44.2911373" lon="10.6700184"><ele>1275.8333333333333</ele><time>2026-05-02T10:09:24.19Z</time></trkpt><trkpt lat="44.2910704" lon="10.6701061"><ele>1276.6666666666667</ele><time>2026-05-02T10:09:25.193Z</time></trkpt><trkpt lat="44.2910043" lon="10.6702014"><ele>1277.5</ele><time>2026-05-02T10:09:26.198Z</time></trkpt><trkpt lat="44.2909403" lon="10.6702888"><ele>1278.3333333333335</ele><time>2026-05-02T10:09:27.214Z</time></trkpt><trkpt lat="44.2908799" lon="10.670377"><ele>1279.1666666666667</ele><time>2026-05-02T10:09:28.198Z</time></trkpt><trkpt lat="44.2908264" lon="10.6704581"><ele>1280.0</ele><time>2026-05-02T10:09:29.211Z</time></trkpt><trkpt lat="44.2907737" lon="10.6705337"><ele>1281.0</ele><time>2026-05-02T10:09:30.214Z</time></trkpt><trkpt lat="44.2907157" lon="10.6706215"><ele>1282.0</ele><time>2026-05-02T10:09:31.169Z</time></trkpt><trkpt lat="44.2906468" lon="10.6707199"><ele>1283.0</ele><time>2026-05-02T10:09:32.175Z</time></trkpt><trkpt lat="44.2905755" lon="10.6708225"><ele>1284.0</ele><time>2026-05-02T10:09:33.199Z</time></trkpt><trkpt lat="44.2905008" lon="10.6709382"><ele>1285.0</ele><time>2026-05-02T10:09:34.192Z</time></trkpt><trkpt lat="44.2904289" lon="10.6710574"><ele>1285.8</ele><time>2026-05-02T10:09:35.182Z</time></trkpt><trkpt lat="44.2903599" lon="10.6711737"><ele>1286.6</ele><time>2026-05-02T10:09:36.21Z</time></trkpt><trkpt lat="44.2903006" lon="10.6712722"><ele>1287.4</ele><time>2026-05-02T10:09:37.18Z</time></trkpt><trkpt lat="44.2902348" lon="10.6713657"><ele>1288.2</ele><time>2026-05-02T10:09:38.202Z</time></trkpt><trkpt lat="44.2901754" lon="10.6714559"><ele>1289.0</ele><time>2026-05-02T10:09:39.2Z</time></trkpt><trkpt lat="44.2901151" lon="10.6715207"><ele>1289.0</ele><time>2026-05-02T10:09:40.135Z</time></trkpt><trkpt lat="44.2900556" lon="10.6715552"><ele>1289.0</ele><time>2026-05-02T10:09:41.18Z</time></trkpt><trkpt lat="44.2899443" lon="10.6715621"><ele>1289.0</ele><time>2026-05-02T10:09:43.175Z</time></trkpt><trkpt lat="44.2898721" lon="10.6714519"><ele>1289.0</ele><time>2026-05-02T10:09:45.209Z</time></trkpt><trkpt lat="44.2897915" lon="10.6713148"><ele>1289.0</ele><time>2026-05-02T10:09:47.177Z</time></trkpt><trkpt lat="44.2897464" lon="10.6712375"><ele>1289.8333333333335</ele><time>2026-05-02T10:09:48.189Z</time></trkpt><trkpt lat="44.2896831" lon="10.6711599"><ele>1290.6666666666667</ele><time>2026-05-02T10:09:49.191Z</time></trkpt><trkpt lat="44.2896236" lon="10.6710833"><ele>1291.5</ele><time>2026-05-02T10:09:50.173Z</time></trkpt><trkpt lat="44.28956" lon="10.67101"><ele>1292.3333333333333</ele><time>2026-05-02T10:09:51.192Z</time></trkpt><trkpt lat="44.2894887" lon="10.6709169"><ele>1293.1666666666665</ele><time>2026-05-02T10:09:52.174Z</time></trkpt><trkpt lat="44.2894188" lon="10.6708317"><ele>1294.0</ele><time>2026-05-02T10:09:53.141Z</time></trkpt><trkpt lat="44.2893492" lon="10.6707555"><ele>1294.0</ele><time>2026-05-02T10:09:54.2Z</time></trkpt><trkpt lat="44.2892853" lon="10.6706797"><ele>1294.0</ele><time>2026-05-02T10:09:55.169Z</time></trkpt><trkpt lat="44.2892201" lon="10.670599"><ele>1294.0</ele><time>2026-05-02T10:09:56.222Z</time></trkpt><trkpt lat="44.2891565" lon="10.6705237"><ele>1294.0</ele><time>2026-05-02T10:09:57.158Z</time></trkpt><trkpt lat="44.2890892" lon="10.6704419"><ele>1294.0</ele><time>2026-05-02T10:09:58.185Z</time></trkpt><trkpt lat="44.289033" lon="10.6703725"><ele>1294.0</ele><time>2026-05-02T10:09:59.192Z</time></trkpt><trkpt lat="44.2889842" lon="10.6702931"><ele>1294.1666666666665</ele><time>2026-05-02T10:10:00.182Z</time></trkpt><trkpt lat="44.2889418" lon="10.6702123"><ele>1294.3333333333333</ele><time>2026-05-02T10:10:01.188Z</time></trkpt><trkpt lat="44.2889001" lon="10.6701119"><ele>1294.5</ele><time>2026-05-02T10:10:02.133Z</time></trkpt><trkpt lat="44.2888615" lon="10.6700053"><ele>1294.6666666666667</ele><time>2026-05-02T10:10:03.174Z</time></trkpt><trkpt lat="44.2888228" lon="10.6699048"><ele>1294.8333333333335</ele><time>2026-05-02T10:10:04.184Z</time></trkpt><trkpt lat="44.288788" lon="10.669807"><ele>1295.0</ele><time>2026-05-02T10:10:05.161Z</time></trkpt><trkpt lat="44.2887552" lon="10.6697113"><ele>1295.0</ele><time>2026-05-02T10:10:06.181Z</time></trkpt><trkpt lat="44.288729" lon="10.6696118"><ele>1295.0</ele><time>2026-05-02T10:10:07.205Z</time></trkpt><trkpt lat="44.2887062" lon="10.6695147"><ele>1295.0</ele><time>2026-05-02T10:10:08.182Z</time></trkpt><trkpt lat="44.2886771" lon="10.6694366"><ele>1295.0</ele><time>2026-05-02T10:10:09.175Z</time></trkpt><trkpt lat="44.2886159" lon="10.669378"><ele>1295.0</ele><time>2026-05-02T10:10:10.176Z</time></trkpt><trkpt lat="44.2885463" lon="10.6693316"><ele>1295.0</ele><time>2026-05-02T10:10:11.184Z</time></trkpt><trkpt lat="44.2884818" lon="10.6692826"><ele>1295.0</ele><time>2026-05-02T10:10:12.207Z</time></trkpt><trkpt lat="44.2884144" lon="10.6692347"><ele>1294.8333333333335</ele><time>2026-05-02T10:10:13.169Z</time></trkpt><trkpt lat="44.2883348" lon="10.6691775"><ele>1294.6666666666667</ele><time>2026-05-02T10:10:14.184Z</time></trkpt><trkpt lat="44.2882789" lon="10.6691104"><ele>1294.5</ele><time>2026-05-02T10:10:15.208Z</time></trkpt><trkpt lat="44.2882564" lon="10.6690126"><ele>1294.3333333333333</ele><time>2026-05-02T10:10:16.201Z</time></trkpt><trkpt lat="44.2882352" lon="10.6689131"><ele>1294.1666666666665</ele><time>2026-05-02T10:10:17.172Z</time></trkpt><trkpt lat="44.288224" lon="10.6688034"><ele>1294.0</ele><time>2026-05-02T10:10:18.184Z</time></trkpt><trkpt lat="44.2882028" lon="10.6686759"><ele>1295.0</ele><time>2026-05-02T10:10:19.176Z</time></trkpt><trkpt lat="44.2881666" lon="10.6685372"><ele>1296.0</ele><time>2026-05-02T10:10:20.167Z</time></trkpt><trkpt lat="44.2881194" lon="10.6684068"><ele>1297.0</ele><time>2026-05-02T10:10:21.195Z</time></trkpt><trkpt lat="44.2880639" lon="10.6682894"><ele>1298.0</ele><time>2026-05-02T10:10:22.19Z</time></trkpt><trkpt lat="44.2880123" lon="10.6681815"><ele>1299.0</ele><time>2026-05-02T10:10:23.197Z</time></trkpt><trkpt lat="44.2879613" lon="10.6680834"><ele>1300.0</ele><time>2026-05-02T10:10:24.184Z</time></trkpt><trkpt lat="44.2879149" lon="10.6679911"><ele>1301.0</ele><time>2026-05-02T10:10:25.182Z</time></trkpt><trkpt lat="44.2878655" lon="10.667913"><ele>1302.0</ele><time>2026-05-02T10:10:26.152Z</time></trkpt><trkpt lat="44.287822" lon="10.6678476"><ele>1303.0</ele><time>2026-05-02T10:10:27.184Z</time></trkpt><trkpt lat="44.2877245" lon="10.6677541"><ele>1304.0</ele><time>2026-05-02T10:10:29.213Z</time></trkpt><trkpt lat="44.287669" lon="10.6676955"><ele>1305.0</ele><time>2026-05-02T10:10:30.215Z</time></trkpt><trkpt lat="44.2876174" lon="10.6676235"><ele>1305.1666666666667</ele><time>2026-05-02T10:10:31.185Z</time></trkpt><trkpt lat="44.2875675" lon="10.6675417"><ele>1305.3333333333333</ele><time>2026-05-02T10:10:32.18Z</time></trkpt><trkpt lat="44.2875261" lon="10.6674603"><ele>1305.5</ele><time>2026-05-02T10:10:33.19Z</time></trkpt><trkpt lat="44.2874954" lon="10.6673808"><ele>1305.6666666666665</ele><time>2026-05-02T10:10:34.193Z</time></trkpt><trkpt lat="44.2874594" lon="10.6672491"><ele>1305.8333333333333</ele><time>2026-05-02T10:10:36.186Z</time></trkpt><trkpt lat="44.2874191" lon="10.6671272"><ele>1306.0</ele><time>2026-05-02T10:10:38.177Z</time></trkpt><trkpt lat="44.2873908" lon="10.6670086"><ele>1305.6</ele><time>2026-05-02T10:10:40.186Z</time></trkpt><trkpt lat="44.2873579" lon="10.6668934"><ele>1305.1999999999998</ele><time>2026-05-02T10:10:42.204Z</time></trkpt><trkpt lat="44.2873246" lon="10.6667948"><ele>1304.8000000000002</ele><time>2026-05-02T10:10:44.222Z</time></trkpt><trkpt lat="44.2872866" lon="10.6666805"><ele>1304.4</ele><time>2026-05-02T10:10:46.177Z</time></trkpt><trkpt lat="44.2872365" lon="10.6665475"><ele>1304.0</ele><time>2026-05-02T10:10:48.19Z</time></trkpt><trkpt lat="44.2871842" lon="10.6663964"><ele>1304.0</ele><time>2026-05-02T10:10:50.19Z</time></trkpt><trkpt lat="44.2871353" lon="10.6662489"><ele>1304.0</ele><time>2026-05-02T10:10:52.211Z</time></trkpt><trkpt lat="44.2870863" lon="10.6660979"><ele>1304.0</ele><time>2026-05-02T10:10:54.205Z</time></trkpt><trkpt lat="44.2870575" lon="10.6660148"><ele>1304.0</ele><time>2026-05-02T10:10:55.183Z</time></trkpt><trkpt lat="44.287029" lon="10.6659331"><ele>1304.0</ele><time>2026-05-02T10:10:56.179Z</time></trkpt><trkpt lat="44.2870041" lon="10.6658456"><ele>1304.0</ele><time>2026-05-02T10:10:57.17Z</time></trkpt><trkpt lat="44.2869777" lon="10.6657542"><ele>1303.8333333333335</ele><time>2026-05-02T10:10:58.2Z</time></trkpt><trkpt lat="44.2869549" lon="10.665661"><ele>1303.6666666666667</ele><time>2026-05-02T10:10:59.191Z</time></trkpt><trkpt lat="44.2869409" lon="10.6655641"><ele>1303.5</ele><time>2026-05-02T10:11:00.19Z</time></trkpt><trkpt lat="44.2869356" lon="10.6654585"><ele>1303.3333333333333</ele><time>2026-05-02T10:11:01.22Z</time></trkpt><trkpt lat="44.2869382" lon="10.6653485"><ele>1303.1666666666665</ele><time>2026-05-02T10:11:02.2Z</time></trkpt><trkpt lat="44.2869463" lon="10.6652178"><ele>1303.0</ele><time>2026-05-02T10:11:03.175Z</time></trkpt><trkpt lat="44.2869563" lon="10.6650892"><ele>1302.8333333333333</ele><time>2026-05-02T10:11:04.156Z</time></trkpt><trkpt lat="44.2869658" lon="10.6649664"><ele>1302.6666666666665</ele><time>2026-05-02T10:11:05.195Z</time></trkpt><trkpt lat="44.2869694" lon="10.664847"><ele>1302.5</ele><time>2026-05-02T10:11:06.176Z</time></trkpt><trkpt lat="44.2869678" lon="10.6647289"><ele>1302.3333333333333</ele><time>2026-05-02T10:11:07.201Z</time></trkpt><trkpt lat="44.2869659" lon="10.6646125"><ele>1302.1666666666667</ele><time>2026-05-02T10:11:08.177Z</time></trkpt><trkpt lat="44.2869636" lon="10.6645004"><ele>1302.0</ele><time>2026-05-02T10:11:09.199Z</time></trkpt><trkpt lat="44.2869592" lon="10.6643939"><ele>1302.0</ele><time>2026-05-02T10:11:10.174Z</time></trkpt><trkpt lat="44.286955" lon="10.6642887"><ele>1302.0</ele><time>2026-05-02T10:11:11.176Z</time></trkpt><trkpt lat="44.2869492" lon="10.6641717"><ele>1302.0</ele><time>2026-05-02T10:11:12.201Z</time></trkpt><trkpt lat="44.286943" lon="10.6640508"><ele>1302.0</ele><time>2026-05-02T10:11:13.184Z</time></trkpt><trkpt lat="44.2869375" lon="10.6639332"><ele>1302.0</ele><time>2026-05-02T10:11:14.195Z</time></trkpt><trkpt lat="44.286932" lon="10.6638193"><ele>1302.0</ele><time>2026-05-02T10:11:15.197Z</time></trkpt><trkpt lat="44.2869229" lon="10.6637046"><ele>1302.3333333333333</ele><time>2026-05-02T10:11:16.222Z</time></trkpt><trkpt lat="44.2869145" lon="10.6635889"><ele>1302.6666666666667</ele><time>2026-05-02T10:11:17.168Z</time></trkpt><trkpt lat="44.2869071" lon="10.6634689"><ele>1303.0</ele><time>2026-05-02T10:11:18.208Z</time></trkpt><trkpt lat="44.2869001" lon="10.6633442"><ele>1303.3333333333335</ele><time>2026-05-02T10:11:19.217Z</time></trkpt><trkpt lat="44.2868925" lon="10.6632152"><ele>1303.6666666666667</ele><time>2026-05-02T10:11:20.212Z</time></trkpt><trkpt lat="44.2868849" lon="10.663084"><ele>1304.0</ele><time>2026-05-02T10:11:21.184Z</time></trkpt><trkpt lat="44.2868748" lon="10.6629497"><ele>1304.0</ele><time>2026-05-02T10:11:22.161Z</time></trkpt><trkpt lat="44.2868611" lon="10.6628137"><ele>1304.0</ele><time>2026-05-02T10:11:23.206Z</time></trkpt><trkpt lat="44.2868456" lon="10.6626788"><ele>1304.0</ele><time>2026-05-02T10:11:24.193Z</time></trkpt><trkpt lat="44.2868263" lon="10.6625455"><ele>1304.0</ele><time>2026-05-02T10:11:25.195Z</time></trkpt><trkpt lat="44.2868015" lon="10.662404"><ele>1304.0</ele><time>2026-05-02T10:11:26.194Z</time></trkpt><trkpt lat="44.2867741" lon="10.6622498"><ele>1304.0</ele><time>2026-05-02T10:11:27.227Z</time></trkpt><trkpt lat="44.2867469" lon="10.6620907"><ele>1304.0</ele><time>2026-05-02T10:11:28.189Z</time></trkpt><trkpt lat="44.2867228" lon="10.6619351"><ele>1304.0</ele><time>2026-05-02T10:11:29.198Z</time></trkpt><trkpt lat="44.2867023" lon="10.6617843"><ele>1304.0</ele><time>2026-05-02T10:11:30.2Z</time></trkpt><trkpt lat="44.286685" lon="10.6616347"><ele>1304.0</ele><time>2026-05-02T10:11:31.198Z</time></trkpt><trkpt lat="44.2866705" lon="10.6614873"><ele>1304.2</ele><time>2026-05-02T10:11:32.209Z</time></trkpt><trkpt lat="44.2866565" lon="10.661341"><ele>1304.4</ele><time>2026-05-02T10:11:33.17Z</time></trkpt><trkpt lat="44.2866458" lon="10.6611957"><ele>1304.6</ele><time>2026-05-02T10:11:34.195Z</time></trkpt><trkpt lat="44.2866318" lon="10.6610544"><ele>1304.8</ele><time>2026-05-02T10:11:35.13Z</time></trkpt><trkpt lat="44.2866157" lon="10.6609199"><ele>1305.0</ele><time>2026-05-02T10:11:36.17Z</time></trkpt><trkpt lat="44.2866004" lon="10.6607925"><ele>1304.8</ele><time>2026-05-02T10:11:37.183Z</time></trkpt><trkpt lat="44.2865838" lon="10.6606693"><ele>1304.6</ele><time>2026-05-02T10:11:38.191Z</time></trkpt><trkpt lat="44.2865701" lon="10.6605484"><ele>1304.4</ele><time>2026-05-02T10:11:39.247Z</time></trkpt><trkpt lat="44.2865521" lon="10.6604194"><ele>1304.2</ele><time>2026-05-02T10:11:40.21Z</time></trkpt><trkpt lat="44.2865341" lon="10.6602858"><ele>1304.0</ele><time>2026-05-02T10:11:41.194Z</time></trkpt><trkpt lat="44.2865189" lon="10.6601464"><ele>1304.0</ele><time>2026-05-02T10:11:42.2Z</time></trkpt><trkpt lat="44.2865033" lon="10.6600119"><ele>1304.0</ele><time>2026-05-02T10:11:43.203Z</time></trkpt><trkpt lat="44.286488" lon="10.6598901"><ele>1304.0</ele><time>2026-05-02T10:11:44.165Z</time></trkpt><trkpt lat="44.2864632" lon="10.6597747"><ele>1304.0</ele><time>2026-05-02T10:11:45.188Z</time></trkpt><trkpt lat="44.2864253" lon="10.6596648"><ele>1304.0</ele><time>2026-05-02T10:11:46.14Z</time></trkpt><trkpt lat="44.2863629" lon="10.6595416"><ele>1306.2</ele><time>2026-05-02T10:11:47.196Z</time></trkpt><trkpt lat="44.2862902" lon="10.6594227"><ele>1308.4</ele><time>2026-05-02T10:11:48.193Z</time></trkpt><trkpt lat="44.2862183" lon="10.6593119"><ele>1310.6</ele><time>2026-05-02T10:11:49.172Z</time></trkpt><trkpt lat="44.2861554" lon="10.6592042"><ele>1312.8</ele><time>2026-05-02T10:11:50.206Z</time></trkpt><trkpt lat="44.2860925" lon="10.6591044"><ele>1315.0</ele><time>2026-05-02T10:11:51.201Z</time></trkpt><trkpt lat="44.2860351" lon="10.6590049"><ele>1315.0</ele><time>2026-05-02T10:11:52.175Z</time></trkpt><trkpt lat="44.2859731" lon="10.658895"><ele>1315.0</ele><time>2026-05-02T10:11:53.195Z</time></trkpt><trkpt lat="44.2859178" lon="10.6587751"><ele>1315.0</ele><time>2026-05-02T10:11:54.173Z</time></trkpt><trkpt lat="44.2858787" lon="10.6586573"><ele>1315.0</ele><time>2026-05-02T10:11:55.192Z</time></trkpt><trkpt lat="44.2858427" lon="10.658549"><ele>1315.0</ele><time>2026-05-02T10:11:56.195Z</time></trkpt><trkpt lat="44.2858074" lon="10.6584526"><ele>1314.1666666666665</ele><time>2026-05-02T10:11:57.165Z</time></trkpt><trkpt lat="44.2857722" lon="10.6583573"><ele>1313.3333333333333</ele><time>2026-05-02T10:11:58.197Z</time></trkpt><trkpt lat="44.2857384" lon="10.6582477"><ele>1312.5</ele><time>2026-05-02T10:11:59.193Z</time></trkpt><trkpt lat="44.2856972" lon="10.6581359"><ele>1311.6666666666667</ele><time>2026-05-02T10:12:00.204Z</time></trkpt><trkpt lat="44.2856448" lon="10.6580317"><ele>1310.8333333333335</ele><time>2026-05-02T10:12:01.19Z</time></trkpt><trkpt lat="44.2855909" lon="10.6579315"><ele>1310.0</ele><time>2026-05-02T10:12:02.215Z</time></trkpt><trkpt lat="44.2855253" lon="10.6578495"><ele>1313.0</ele><time>2026-05-02T10:12:03.167Z</time></trkpt><trkpt lat="44.285462" lon="10.6577575"><ele>1316.0</ele><time>2026-05-02T10:12:04.197Z</time></trkpt><trkpt lat="44.2853982" lon="10.6576489"><ele>1319.0</ele><time>2026-05-02T10:12:05.175Z</time></trkpt><trkpt lat="44.2853522" lon="10.6575346"><ele>1322.0</ele><time>2026-05-02T10:12:06.192Z</time></trkpt><trkpt lat="44.2853189" lon="10.6574122"><ele>1325.0</ele><time>2026-05-02T10:12:07.149Z</time></trkpt><trkpt lat="44.2852905" lon="10.6572864"><ele>1325.0</ele><time>2026-05-02T10:12:08.184Z</time></trkpt><trkpt lat="44.2852646" lon="10.6571589"><ele>1325.0</ele><time>2026-05-02T10:12:09.18Z</time></trkpt><trkpt lat="44.2852592" lon="10.6570186"><ele>1325.0</ele><time>2026-05-02T10:12:10.183Z</time></trkpt><trkpt lat="44.2852592" lon="10.6568848"><ele>1325.0</ele><time>2026-05-02T10:12:11.15Z</time></trkpt><trkpt lat="44.2852546" lon="10.6567544"><ele>1325.0</ele><time>2026-05-02T10:12:12.193Z</time></trkpt><trkpt lat="44.2852451" lon="10.6566305"><ele>1324.5714285714287</ele><time>2026-05-02T10:12:13.249Z</time></trkpt><trkpt lat="44.2852298" lon="10.6565158"><ele>1324.142857142857</ele><time>2026-05-02T10:12:14.208Z</time></trkpt><trkpt lat="44.2852172" lon="10.6564048"><ele>1323.7142857142858</ele><time>2026-05-02T10:12:15.19Z</time></trkpt><trkpt lat="44.2852047" lon="10.6563027"><ele>1323.2857142857142</ele><time>2026-05-02T10:12:16.182Z</time></trkpt><trkpt lat="44.2851936" lon="10.6562051"><ele>1322.857142857143</ele><time>2026-05-02T10:12:17.161Z</time></trkpt><trkpt lat="44.2851755" lon="10.6561124"><ele>1322.4285714285713</ele><time>2026-05-02T10:12:18.204Z</time></trkpt><trkpt lat="44.2851514" lon="10.6560236"><ele>1322.0</ele><time>2026-05-02T10:12:19.199Z</time></trkpt><trkpt lat="44.2851219" lon="10.6559256"><ele>1321.0</ele><time>2026-05-02T10:12:20.207Z</time></trkpt><trkpt lat="44.2850926" lon="10.6558304"><ele>1320.0</ele><time>2026-05-02T10:12:21.155Z</time></trkpt><trkpt lat="44.2850671" lon="10.6557471"><ele>1319.0</ele><time>2026-05-02T10:12:22.171Z</time></trkpt><trkpt lat="44.2850243" lon="10.6556167"><ele>1318.0</ele><time>2026-05-02T10:12:24.18Z</time></trkpt><trkpt lat="44.2850079" lon="10.6554811"><ele>1317.0</ele><time>2026-05-02T10:12:27.148Z</time></trkpt><trkpt lat="44.2850446" lon="10.6553686"><ele>1316.0</ele><time>2026-05-02T10:12:29.187Z</time></trkpt><trkpt lat="44.285071" lon="10.6552652"><ele>1312.0</ele><time>2026-05-02T10:12:31.178Z</time></trkpt><trkpt lat="44.2850579" lon="10.6551682"><ele>1312.0</ele><time>2026-05-02T10:12:34.177Z</time></trkpt><trkpt lat="44.2849875" lon="10.6551851"><ele>1312.0</ele><time>2026-05-02T10:13:11.171Z</time></trkpt><trkpt lat="44.2849157" lon="10.6551854"><ele>1312.0</ele><time>2026-05-02T10:13:20.198Z</time></trkpt><trkpt lat="44.2848405" lon="10.6552234"><ele>1312.0</ele><time>2026-05-02T10:18:42.191Z</time></trkpt><trkpt lat="44.2848799" lon="10.655144"><ele>1312.0</ele><time>2026-05-02T10:19:34.228Z</time></trkpt><trkpt lat="44.2848819" lon="10.6550531"><ele>1312.0</ele><time>2026-05-02T10:19:40.268Z</time></trkpt></trkseg><trkseg><trkpt lat="44.2848886" lon="10.6550584"><ele>1311.9999999999998</ele><time>2026-05-02T11:37:47.033Z</time></trkpt><trkpt lat="44.2849215" lon="10.6551399"><ele>1312.0</ele><time>2026-05-02T11:37:54.35Z</time></trkpt><trkpt lat="44.2849106" lon="10.6550523"><ele>1312.0</ele><time>2026-05-02T11:44:00.223Z</time></trkpt><trkpt lat="44.2848946" lon="10.6549626"><ele>1312.0</ele><time>2026-05-02T11:44:09.24Z</time></trkpt><trkpt lat="44.2848715" lon="10.6550609"><ele>1312.0</ele><time>2026-05-02T11:47:21.379Z</time></trkpt><trkpt lat="44.2849247" lon="10.6551201"><ele>1311.9999999999998</ele><time>2026-05-02T11:47:29.345Z</time></trkpt><trkpt lat="44.2849799" lon="10.6551736"><ele>1312.0</ele><time>2026-05-02T11:47:40.266Z</time></trkpt><trkpt lat="44.2850427" lon="10.6551997"><ele>1312.0</ele><time>2026-05-02T11:47:46.025Z</time></trkpt><trkpt lat="44.2851101" lon="10.6551624"><ele>1312.0</ele><time>2026-05-02T11:48:20.261Z</time></trkpt><trkpt lat="44.2850758" lon="10.655262"><ele>1312.0</ele><time>2026-05-02T11:48:36.332Z</time></trkpt><trkpt lat="44.2850012" lon="10.65531"><ele>1312.0</ele><time>2026-05-02T11:48:38.26Z</time></trkpt><trkpt lat="44.2849647" lon="10.6554202"><ele>1312.0</ele><time>2026-05-02T11:48:40.32Z</time></trkpt><trkpt lat="44.2849752" lon="10.6555233"><ele>1312.0</ele><time>2026-05-02T11:48:42.321Z</time></trkpt><trkpt lat="44.284999" lon="10.6556265"><ele>1312.6666666666665</ele><time>2026-05-02T11:54:04.255Z</time></trkpt><trkpt lat="44.28503" lon="10.655706"><ele>1313.3333333333333</ele><time>2026-05-02T11:54:05.291Z</time></trkpt><trkpt lat="44.2850572" lon="10.6557924"><ele>1314.0</ele><time>2026-05-02T11:54:06.248Z</time></trkpt><trkpt lat="44.2850855" lon="10.6558739"><ele>1314.6666666666667</ele><time>2026-05-02T11:54:07.248Z</time></trkpt><trkpt lat="44.2851439" lon="10.6560359"><ele>1315.3333333333335</ele><time>2026-05-02T11:54:09.256Z</time></trkpt><trkpt lat="44.285165" lon="10.6561262"><ele>1316.0</ele><time>2026-05-02T11:54:10.284Z</time></trkpt><trkpt lat="44.2851791" lon="10.6562169"><ele>1316.857142857143</ele><time>2026-05-02T11:54:11.303Z</time></trkpt><trkpt lat="44.2851907" lon="10.6563102"><ele>1317.7142857142858</ele><time>2026-05-02T11:54:12.274Z</time></trkpt><trkpt lat="44.2852033" lon="10.6563989"><ele>1318.5714285714284</ele><time>2026-05-02T11:54:13.232Z</time></trkpt><trkpt lat="44.2852142" lon="10.6564938"><ele>1319.4285714285716</ele><time>2026-05-02T11:54:14.256Z</time></trkpt><trkpt lat="44.2852241" lon="10.656601"><ele>1320.2857142857142</ele><time>2026-05-02T11:54:15.23Z</time></trkpt><trkpt lat="44.2852342" lon="10.6567128"><ele>1321.142857142857</ele><time>2026-05-02T11:54:16.244Z</time></trkpt><trkpt lat="44.2852433" lon="10.6568258"><ele>1322.0</ele><time>2026-05-02T11:54:17.282Z</time></trkpt><trkpt lat="44.2852506" lon="10.656941"><ele>1322.5</ele><time>2026-05-02T11:54:18.246Z</time></trkpt><trkpt lat="44.2852608" lon="10.657053"><ele>1323.0</ele><time>2026-05-02T11:54:19.218Z</time></trkpt><trkpt lat="44.2852687" lon="10.6571591"><ele>1323.5</ele><time>2026-05-02T11:54:20.258Z</time></trkpt><trkpt lat="44.285276" lon="10.6572573"><ele>1324.0</ele><time>2026-05-02T11:54:21.233Z</time></trkpt><trkpt lat="44.2852826" lon="10.6573513"><ele>1324.5</ele><time>2026-05-02T11:54:22.217Z</time></trkpt><trkpt lat="44.2852938" lon="10.6574423"><ele>1325.0</ele><time>2026-05-02T11:54:23.267Z</time></trkpt><trkpt lat="44.2853436" lon="10.6576114"><ele>1325.0</ele><time>2026-05-02T11:54:25.249Z</time></trkpt><trkpt lat="44.2853995" lon="10.6576885"><ele>1325.0</ele><time>2026-05-02T11:54:26.264Z</time></trkpt><trkpt lat="44.2854586" lon="10.6577775"><ele>1325.0</ele><time>2026-05-02T11:54:27.263Z</time></trkpt><trkpt lat="44.2855089" lon="10.6578543"><ele>1325.0</ele><time>2026-05-02T11:54:28.234Z</time></trkpt><trkpt lat="44.2855554" lon="10.6579164"><ele>1325.0</ele><time>2026-05-02T11:54:29.254Z</time></trkpt><trkpt lat="44.2856093" lon="10.657986"><ele>1325.0</ele><time>2026-05-02T11:54:30.236Z</time></trkpt><trkpt lat="44.2856607" lon="10.6580555"><ele>1325.0</ele><time>2026-05-02T11:54:31.243Z</time></trkpt><trkpt lat="44.2857103" lon="10.658145"><ele>1323.0</ele><time>2026-05-02T11:54:32.251Z</time></trkpt><trkpt lat="44.2857522" lon="10.658252"><ele>1321.0</ele><time>2026-05-02T11:54:33.28Z</time></trkpt><trkpt lat="44.2857953" lon="10.6583763"><ele>1319.0</ele><time>2026-05-02T11:54:34.245Z</time></trkpt><trkpt lat="44.2858546" lon="10.6585368"><ele>1317.0</ele><time>2026-05-02T11:54:35.256Z</time></trkpt><trkpt lat="44.2859047" lon="10.6586897"><ele>1315.0</ele><time>2026-05-02T11:54:36.247Z</time></trkpt><trkpt lat="44.2859432" lon="10.6588169"><ele>1315.0</ele><time>2026-05-02T11:54:37.289Z</time></trkpt><trkpt lat="44.2859778" lon="10.6589408"><ele>1315.0</ele><time>2026-05-02T11:54:38.262Z</time></trkpt><trkpt lat="44.286029" lon="10.6590678"><ele>1315.0</ele><time>2026-05-02T11:54:39.289Z</time></trkpt><trkpt lat="44.2860893" lon="10.6591938"><ele>1315.0</ele><time>2026-05-02T11:54:40.245Z</time></trkpt><trkpt lat="44.2861539" lon="10.6593061"><ele>1315.0</ele><time>2026-05-02T11:54:41.252Z</time></trkpt><trkpt lat="44.2862074" lon="10.6593978"><ele>1315.3333333333333</ele><time>2026-05-02T11:54:42.252Z</time></trkpt><trkpt lat="44.2862592" lon="10.6594866"><ele>1315.6666666666665</ele><time>2026-05-02T11:54:43.298Z</time></trkpt><trkpt lat="44.286309" lon="10.6595737"><ele>1316.0</ele><time>2026-05-02T11:54:44.235Z</time></trkpt><trkpt lat="44.2863589" lon="10.65967"><ele>1316.3333333333333</ele><time>2026-05-02T11:54:45.23Z</time></trkpt><trkpt lat="44.2863959" lon="10.6597682"><ele>1316.6666666666667</ele><time>2026-05-02T11:54:46.229Z</time></trkpt><trkpt lat="44.2864358" lon="10.6598623"><ele>1317.0</ele><time>2026-05-02T11:54:47.233Z</time></trkpt><trkpt lat="44.2864651" lon="10.659961"><ele>1314.3999999999999</ele><time>2026-05-02T11:54:48.254Z</time></trkpt><trkpt lat="44.2864951" lon="10.6600842"><ele>1311.8</ele><time>2026-05-02T11:54:49.232Z</time></trkpt><trkpt lat="44.2865121" lon="10.6602179"><ele>1309.2</ele><time>2026-05-02T11:54:50.252Z</time></trkpt><trkpt lat="44.2865308" lon="10.6603497"><ele>1306.6</ele><time>2026-05-02T11:54:51.261Z</time></trkpt><trkpt lat="44.2865495" lon="10.6604877"><ele>1304.0</ele><time>2026-05-02T11:54:52.252Z</time></trkpt><trkpt lat="44.2865701" lon="10.6606224"><ele>1303.8000000000002</ele><time>2026-05-02T11:54:53.244Z</time></trkpt><trkpt lat="44.2865888" lon="10.6607622"><ele>1303.6000000000001</ele><time>2026-05-02T11:54:54.24Z</time></trkpt><trkpt lat="44.2866033" lon="10.6609052"><ele>1303.4</ele><time>2026-05-02T11:54:55.2Z</time></trkpt><trkpt lat="44.2866147" lon="10.6610531"><ele>1303.2</ele><time>2026-05-02T11:54:56.234Z</time></trkpt><trkpt lat="44.2866246" lon="10.6612035"><ele>1303.0</ele><time>2026-05-02T11:54:57.246Z</time></trkpt><trkpt lat="44.2866349" lon="10.6613538"><ele>1303.2</ele><time>2026-05-02T11:54:58.265Z</time></trkpt><trkpt lat="44.2866455" lon="10.6615048"><ele>1303.4</ele><time>2026-05-02T11:54:59.259Z</time></trkpt><trkpt lat="44.2866606" lon="10.6616549"><ele>1303.6000000000001</ele><time>2026-05-02T11:55:00.257Z</time></trkpt><trkpt lat="44.2866772" lon="10.6617986"><ele>1303.8000000000002</ele><time>2026-05-02T11:55:01.272Z</time></trkpt><trkpt lat="44.2866941" lon="10.6619355"><ele>1304.0</ele><time>2026-05-02T11:55:02.287Z</time></trkpt><trkpt lat="44.286713" lon="10.6620717"><ele>1304.0</ele><time>2026-05-02T11:55:03.25Z</time></trkpt><trkpt lat="44.2867386" lon="10.6622055"><ele>1304.0</ele><time>2026-05-02T11:55:04.267Z</time></trkpt><trkpt lat="44.2867652" lon="10.6623417"><ele>1304.0</ele><time>2026-05-02T11:55:05.248Z</time></trkpt><trkpt lat="44.2867911" lon="10.6624825"><ele>1304.0</ele><time>2026-05-02T11:55:06.273Z</time></trkpt><trkpt lat="44.2868117" lon="10.6626291"><ele>1304.0</ele><time>2026-05-02T11:55:07.285Z</time></trkpt><trkpt lat="44.2868267" lon="10.6627835"><ele>1304.0</ele><time>2026-05-02T11:55:08.239Z</time></trkpt><trkpt lat="44.2868379" lon="10.6629464"><ele>1304.0</ele><time>2026-05-02T11:55:09.246Z</time></trkpt><trkpt lat="44.2868496" lon="10.6631097"><ele>1304.0</ele><time>2026-05-02T11:55:10.266Z</time></trkpt><trkpt lat="44.2868634" lon="10.6632752"><ele>1304.0</ele><time>2026-05-02T11:55:11.28Z</time></trkpt><trkpt lat="44.2868771" lon="10.6634456"><ele>1303.5</ele><time>2026-05-02T11:55:12.278Z</time></trkpt><trkpt lat="44.2868899" lon="10.6636181"><ele>1303.0</ele><time>2026-05-02T11:55:13.277Z</time></trkpt><trkpt lat="44.2869016" lon="10.6637837"><ele>1302.5</ele><time>2026-05-02T11:55:14.265Z</time></trkpt><trkpt lat="44.2869129" lon="10.6639454"><ele>1302.0</ele><time>2026-05-02T11:55:15.23Z</time></trkpt><trkpt lat="44.2869236" lon="10.6641015"><ele>1302.0</ele><time>2026-05-02T11:55:16.243Z</time></trkpt><trkpt lat="44.2869324" lon="10.6642517"><ele>1302.0</ele><time>2026-05-02T11:55:17.268Z</time></trkpt><trkpt lat="44.2869378" lon="10.6643988"><ele>1302.0</ele><time>2026-05-02T11:55:18.261Z</time></trkpt><trkpt lat="44.28694" lon="10.6645416"><ele>1302.0</ele><time>2026-05-02T11:55:19.212Z</time></trkpt><trkpt lat="44.2869396" lon="10.6646792"><ele>1302.0</ele><time>2026-05-02T11:55:20.256Z</time></trkpt><trkpt lat="44.2869398" lon="10.6648059"><ele>1301.857142857143</ele><time>2026-05-02T11:55:21.249Z</time></trkpt><trkpt lat="44.2869399" lon="10.6649226"><ele>1301.7142857142858</ele><time>2026-05-02T11:55:22.258Z</time></trkpt><trkpt lat="44.2869341" lon="10.6650293"><ele>1301.5714285714284</ele><time>2026-05-02T11:55:23.264Z</time></trkpt><trkpt lat="44.2869241" lon="10.6651291"><ele>1301.4285714285716</ele><time>2026-05-02T11:55:24.269Z</time></trkpt><trkpt lat="44.286913" lon="10.6652271"><ele>1301.2857142857142</ele><time>2026-05-02T11:55:25.224Z</time></trkpt><trkpt lat="44.2869057" lon="10.6653213"><ele>1301.142857142857</ele><time>2026-05-02T11:55:26.278Z</time></trkpt><trkpt lat="44.2869035" lon="10.665411"><ele>1301.0</ele><time>2026-05-02T11:55:27.268Z</time></trkpt><trkpt lat="44.2869084" lon="10.665499"><ele>1301.4</ele><time>2026-05-02T11:55:28.251Z</time></trkpt><trkpt lat="44.2869374" lon="10.6656607"><ele>1301.8</ele><time>2026-05-02T11:55:30.234Z</time></trkpt><trkpt lat="44.2869666" lon="10.6657406"><ele>1302.2</ele><time>2026-05-02T11:55:31.234Z</time></trkpt><trkpt lat="44.2870207" lon="10.6658795"><ele>1302.6000000000001</ele><time>2026-05-02T11:55:33.245Z</time></trkpt><trkpt lat="44.2870489" lon="10.6659761"><ele>1303.0</ele><time>2026-05-02T11:55:35.267Z</time></trkpt><trkpt lat="44.2870805" lon="10.6661067"><ele>1303.2</ele><time>2026-05-02T11:55:37.246Z</time></trkpt><trkpt lat="44.287124" lon="10.6662543"><ele>1303.4</ele><time>2026-05-02T11:55:39.271Z</time></trkpt><trkpt lat="44.2871943" lon="10.6664074"><ele>1303.6000000000001</ele><time>2026-05-02T11:55:41.248Z</time></trkpt><trkpt lat="44.2872327" lon="10.6664981"><ele>1303.8000000000002</ele><time>2026-05-02T11:55:42.275Z</time></trkpt><trkpt lat="44.2872723" lon="10.6665999"><ele>1304.0</ele><time>2026-05-02T11:55:43.255Z</time></trkpt><trkpt lat="44.2873091" lon="10.6667045"><ele>1304.0</ele><time>2026-05-02T11:55:44.27Z</time></trkpt><trkpt lat="44.2873457" lon="10.6668245"><ele>1304.0</ele><time>2026-05-02T11:55:45.252Z</time></trkpt><trkpt lat="44.2873841" lon="10.6669609"><ele>1304.0</ele><time>2026-05-02T11:55:46.265Z</time></trkpt><trkpt lat="44.2874217" lon="10.6670929"><ele>1304.0</ele><time>2026-05-02T11:55:47.257Z</time></trkpt><trkpt lat="44.2874568" lon="10.667215"><ele>1304.0</ele><time>2026-05-02T11:55:48.276Z</time></trkpt><trkpt lat="44.2874975" lon="10.6673254"><ele>1304.2</ele><time>2026-05-02T11:55:49.252Z</time></trkpt><trkpt lat="44.2875405" lon="10.6674301"><ele>1304.4</ele><time>2026-05-02T11:55:50.265Z</time></trkpt><trkpt lat="44.2875908" lon="10.6675378"><ele>1304.6</ele><time>2026-05-02T11:55:51.296Z</time></trkpt><trkpt lat="44.2876577" lon="10.6676617"><ele>1304.8</ele><time>2026-05-02T11:55:52.206Z</time></trkpt><trkpt lat="44.2877344" lon="10.6677797"><ele>1305.0</ele><time>2026-05-02T11:55:53.195Z</time></trkpt><trkpt lat="44.2878146" lon="10.6678873"><ele>1305.0</ele><time>2026-05-02T11:55:54.222Z</time></trkpt><trkpt lat="44.2878949" lon="10.6679939"><ele>1305.0</ele><time>2026-05-02T11:55:55.255Z</time></trkpt><trkpt lat="44.2879715" lon="10.6681005"><ele>1305.0</ele><time>2026-05-02T11:55:56.25Z</time></trkpt><trkpt lat="44.2880304" lon="10.6682067"><ele>1305.0</ele><time>2026-05-02T11:55:57.227Z</time></trkpt><trkpt lat="44.2880892" lon="10.6683207"><ele>1305.0</ele><time>2026-05-02T11:55:58.254Z</time></trkpt><trkpt lat="44.2881456" lon="10.6684394"><ele>1303.8</ele><time>2026-05-02T11:55:59.235Z</time></trkpt><trkpt lat="44.2881966" lon="10.6685551"><ele>1302.6</ele><time>2026-05-02T11:56:00.231Z</time></trkpt><trkpt lat="44.2882373" lon="10.6686784"><ele>1301.4</ele><time>2026-05-02T11:56:01.245Z</time></trkpt><trkpt lat="44.2882573" lon="10.6688216"><ele>1300.2</ele><time>2026-05-02T11:56:02.246Z</time></trkpt><trkpt lat="44.2882791" lon="10.6689585"><ele>1299.0</ele><time>2026-05-02T11:56:03.225Z</time></trkpt><trkpt lat="44.2883069" lon="10.669066"><ele>1298.3333333333333</ele><time>2026-05-02T11:56:04.244Z</time></trkpt><trkpt lat="44.2883561" lon="10.6691676"><ele>1297.6666666666667</ele><time>2026-05-02T11:56:05.231Z</time></trkpt><trkpt lat="44.2884222" lon="10.6692489"><ele>1297.0</ele><time>2026-05-02T11:56:06.244Z</time></trkpt><trkpt lat="44.2884971" lon="10.6693259"><ele>1296.3333333333335</ele><time>2026-05-02T11:56:07.257Z</time></trkpt><trkpt lat="44.2885736" lon="10.669388"><ele>1295.6666666666667</ele><time>2026-05-02T11:56:08.277Z</time></trkpt><trkpt lat="44.2886483" lon="10.669454"><ele>1295.0</ele><time>2026-05-02T11:56:09.297Z</time></trkpt><trkpt lat="44.2887139" lon="10.6695285"><ele>1295.0</ele><time>2026-05-02T11:56:10.264Z</time></trkpt><trkpt lat="44.2887736" lon="10.6696363"><ele>1295.0</ele><time>2026-05-02T11:56:11.241Z</time></trkpt><trkpt lat="44.2888095" lon="10.6697579"><ele>1295.0</ele><time>2026-05-02T11:56:12.231Z</time></trkpt><trkpt lat="44.2888377" lon="10.66986"><ele>1295.0</ele><time>2026-05-02T11:56:13.263Z</time></trkpt><trkpt lat="44.28887" lon="10.6699664"><ele>1295.0</ele><time>2026-05-02T11:56:14.235Z</time></trkpt><trkpt lat="44.2889058" lon="10.6700836"><ele>1295.0</ele><time>2026-05-02T11:56:15.242Z</time></trkpt><trkpt lat="44.2889512" lon="10.6701866"><ele>1294.8</ele><time>2026-05-02T11:56:16.254Z</time></trkpt><trkpt lat="44.2890113" lon="10.6703099"><ele>1294.6</ele><time>2026-05-02T11:56:17.252Z</time></trkpt><trkpt lat="44.2890765" lon="10.6704268"><ele>1294.4</ele><time>2026-05-02T11:56:18.261Z</time></trkpt><trkpt lat="44.2891442" lon="10.670514"><ele>1294.2</ele><time>2026-05-02T11:56:19.261Z</time></trkpt><trkpt lat="44.2892301" lon="10.6705999"><ele>1294.0</ele><time>2026-05-02T11:56:20.263Z</time></trkpt><trkpt lat="44.2893264" lon="10.6706966"><ele>1294.0</ele><time>2026-05-02T11:56:21.308Z</time></trkpt><trkpt lat="44.2894105" lon="10.6707962"><ele>1294.0</ele><time>2026-05-02T11:56:22.246Z</time></trkpt><trkpt lat="44.289504" lon="10.6709037"><ele>1294.0</ele><time>2026-05-02T11:56:23.252Z</time></trkpt><trkpt lat="44.2895981" lon="10.6710265"><ele>1294.0</ele><time>2026-05-02T11:56:24.235Z</time></trkpt><trkpt lat="44.2896864" lon="10.6711384"><ele>1293.0</ele><time>2026-05-02T11:56:25.232Z</time></trkpt><trkpt lat="44.2897693" lon="10.6712486"><ele>1292.0</ele><time>2026-05-02T11:56:26.268Z</time></trkpt><trkpt lat="44.2898407" lon="10.6713405"><ele>1291.0</ele><time>2026-05-02T11:56:27.282Z</time></trkpt><trkpt lat="44.2898966" lon="10.6714418"><ele>1290.0</ele><time>2026-05-02T11:56:28.258Z</time></trkpt><trkpt lat="44.2899476" lon="10.6715247"><ele>1289.0</ele><time>2026-05-02T11:56:29.246Z</time></trkpt><trkpt lat="44.2900518" lon="10.6716138"><ele>1289.0</ele><time>2026-05-02T11:56:31.244Z</time></trkpt><trkpt lat="44.2901186" lon="10.6715626"><ele>1289.0</ele><time>2026-05-02T11:56:32.253Z</time></trkpt><trkpt lat="44.2901905" lon="10.6714773"><ele>1289.0</ele><time>2026-05-02T11:56:33.252Z</time></trkpt><trkpt lat="44.2902523" lon="10.6713888"><ele>1289.0</ele><time>2026-05-02T11:56:34.238Z</time></trkpt><trkpt lat="44.2903154" lon="10.6712848"><ele>1289.0</ele><time>2026-05-02T11:56:35.256Z</time></trkpt><trkpt lat="44.2903794" lon="10.6711798"><ele>1289.0</ele><time>2026-05-02T11:56:36.259Z</time></trkpt><trkpt lat="44.2904333" lon="10.6710723"><ele>1289.0</ele><time>2026-05-02T11:56:37.285Z</time></trkpt><trkpt lat="44.29049" lon="10.6709717"><ele>1289.0</ele><time>2026-05-02T11:56:38.258Z</time></trkpt><trkpt lat="44.2905515" lon="10.6708816"><ele>1289.0</ele><time>2026-05-02T11:56:39.253Z</time></trkpt><trkpt lat="44.2906084" lon="10.6707969"><ele>1289.0</ele><time>2026-05-02T11:56:40.266Z</time></trkpt><trkpt lat="44.2906684" lon="10.6707187"><ele>1289.0</ele><time>2026-05-02T11:56:41.261Z</time></trkpt><trkpt lat="44.2907251" lon="10.6706393"><ele>1288.3333333333335</ele><time>2026-05-02T11:56:42.266Z</time></trkpt><trkpt lat="44.2907769" lon="10.6705646"><ele>1287.6666666666667</ele><time>2026-05-02T11:56:43.231Z</time></trkpt><trkpt lat="44.2908265" lon="10.6704879"><ele>1287.0</ele><time>2026-05-02T11:56:44.219Z</time></trkpt><trkpt lat="44.2908817" lon="10.6703965"><ele>1286.3333333333333</ele><time>2026-05-02T11:56:45.228Z</time></trkpt><trkpt lat="44.2909415" lon="10.6703102"><ele>1285.6666666666665</ele><time>2026-05-02T11:56:46.243Z</time></trkpt><trkpt lat="44.2910047" lon="10.6702188"><ele>1285.0</ele><time>2026-05-02T11:56:47.258Z</time></trkpt><trkpt lat="44.2910671" lon="10.6701345"><ele>1284.0</ele><time>2026-05-02T11:56:48.258Z</time></trkpt><trkpt lat="44.2911293" lon="10.6700486"><ele>1283.0</ele><time>2026-05-02T11:56:49.243Z</time></trkpt><trkpt lat="44.2911911" lon="10.6699651"><ele>1282.0</ele><time>2026-05-02T11:56:50.286Z</time></trkpt><trkpt lat="44.2912557" lon="10.6698847"><ele>1281.0</ele><time>2026-05-02T11:56:51.236Z</time></trkpt><trkpt lat="44.2913347" lon="10.6698212"><ele>1280.0</ele><time>2026-05-02T11:56:52.241Z</time></trkpt><trkpt lat="44.2914259" lon="10.6697525"><ele>1279.0</ele><time>2026-05-02T11:56:53.256Z</time></trkpt><trkpt lat="44.2915189" lon="10.6696939"><ele>1278.0</ele><time>2026-05-02T11:56:54.252Z</time></trkpt><trkpt lat="44.2916129" lon="10.6696319"><ele>1277.0</ele><time>2026-05-02T11:56:55.255Z</time></trkpt><trkpt lat="44.2917083" lon="10.6695716"><ele>1276.0</ele><time>2026-05-02T11:56:56.291Z</time></trkpt><trkpt lat="44.2917964" lon="10.669514"><ele>1275.0</ele><time>2026-05-02T11:56:57.267Z</time></trkpt><trkpt lat="44.2918763" lon="10.6694606"><ele>1275.2</ele><time>2026-05-02T11:56:58.227Z</time></trkpt><trkpt lat="44.2919593" lon="10.6693855"><ele>1275.4</ele><time>2026-05-02T11:56:59.235Z</time></trkpt><trkpt lat="44.2920379" lon="10.6693194"><ele>1275.6</ele><time>2026-05-02T11:57:00.259Z</time></trkpt><trkpt lat="44.2921192" lon="10.6692129"><ele>1275.8</ele><time>2026-05-02T11:57:01.267Z</time></trkpt><trkpt lat="44.2921923" lon="10.6691107"><ele>1276.0</ele><time>2026-05-02T11:57:02.231Z</time></trkpt><trkpt lat="44.2922663" lon="10.6690093"><ele>1274.3999999999999</ele><time>2026-05-02T11:57:03.24Z</time></trkpt><trkpt lat="44.2923461" lon="10.6689136"><ele>1272.8</ele><time>2026-05-02T11:57:04.24Z</time></trkpt><trkpt lat="44.2924276" lon="10.6688268"><ele>1271.1999999999998</ele><time>2026-05-02T11:57:05.239Z</time></trkpt><trkpt lat="44.2925117" lon="10.668727"><ele>1269.6</ele><time>2026-05-02T11:57:06.218Z</time></trkpt><trkpt lat="44.2925968" lon="10.6686323"><ele>1268.0</ele><time>2026-05-02T11:57:07.26Z</time></trkpt><trkpt lat="44.2926765" lon="10.6685419"><ele>1267.4</ele><time>2026-05-02T11:57:08.248Z</time></trkpt><trkpt lat="44.2927544" lon="10.6684603"><ele>1266.8</ele><time>2026-05-02T11:57:09.27Z</time></trkpt><trkpt lat="44.2928272" lon="10.6683764"><ele>1266.2</ele><time>2026-05-02T11:57:10.246Z</time></trkpt><trkpt lat="44.2929011" lon="10.668294"><ele>1265.6</ele><time>2026-05-02T11:57:11.267Z</time></trkpt><trkpt lat="44.2929834" lon="10.668214"><ele>1265.0</ele><time>2026-05-02T11:57:12.261Z</time></trkpt><trkpt lat="44.2930665" lon="10.668129"><ele>1265.0</ele><time>2026-05-02T11:57:13.254Z</time></trkpt><trkpt lat="44.2931549" lon="10.668054"><ele>1265.0</ele><time>2026-05-02T11:57:14.247Z</time></trkpt><trkpt lat="44.2932339" lon="10.6679705"><ele>1265.0</ele><time>2026-05-02T11:57:15.257Z</time></trkpt><trkpt lat="44.2933224" lon="10.667908"><ele>1265.0</ele><time>2026-05-02T11:57:16.279Z</time></trkpt><trkpt lat="44.2934138" lon="10.6678521"><ele>1265.0</ele><time>2026-05-02T11:57:17.256Z</time></trkpt><trkpt lat="44.2934987" lon="10.6677942"><ele>1264.8</ele><time>2026-05-02T11:57:18.249Z</time></trkpt><trkpt lat="44.2935919" lon="10.6677585"><ele>1264.6</ele><time>2026-05-02T11:57:19.245Z</time></trkpt><trkpt lat="44.2937014" lon="10.6677337"><ele>1264.4</ele><time>2026-05-02T11:57:20.256Z</time></trkpt><trkpt lat="44.2938045" lon="10.6676883"><ele>1264.2</ele><time>2026-05-02T11:57:21.251Z</time></trkpt><trkpt lat="44.2939064" lon="10.6676385"><ele>1264.0</ele><time>2026-05-02T11:57:22.24Z</time></trkpt><trkpt lat="44.2940021" lon="10.667583"><ele>1263.2</ele><time>2026-05-02T11:57:23.244Z</time></trkpt><trkpt lat="44.2941062" lon="10.6675225"><ele>1262.4</ele><time>2026-05-02T11:57:24.261Z</time></trkpt><trkpt lat="44.2941933" lon="10.66745"><ele>1261.6</ele><time>2026-05-02T11:57:25.261Z</time></trkpt><trkpt lat="44.2942913" lon="10.667382"><ele>1260.8</ele><time>2026-05-02T11:57:26.239Z</time></trkpt><trkpt lat="44.2943712" lon="10.6673114"><ele>1260.0</ele><time>2026-05-02T11:57:27.268Z</time></trkpt><trkpt lat="44.2944416" lon="10.6672366"><ele>1260.0</ele><time>2026-05-02T11:57:28.261Z</time></trkpt><trkpt lat="44.294514" lon="10.6671554"><ele>1260.0</ele><time>2026-05-02T11:57:29.269Z</time></trkpt><trkpt lat="44.2945777" lon="10.6670758"><ele>1260.0</ele><time>2026-05-02T11:57:30.233Z</time></trkpt><trkpt lat="44.2946364" lon="10.667006"><ele>1260.0</ele><time>2026-05-02T11:57:31.271Z</time></trkpt><trkpt lat="44.2946879" lon="10.6669478"><ele>1260.0</ele><time>2026-05-02T11:57:32.233Z</time></trkpt><trkpt lat="44.2948102" lon="10.6668888"><ele>1259.5</ele><time>2026-05-02T11:57:34.263Z</time></trkpt><trkpt lat="44.2948848" lon="10.6668826"><ele>1259.0</ele><time>2026-05-02T11:57:35.29Z</time></trkpt><trkpt lat="44.2949567" lon="10.666883"><ele>1258.5</ele><time>2026-05-02T11:57:36.246Z</time></trkpt><trkpt lat="44.2950304" lon="10.6668985"><ele>1258.0</ele><time>2026-05-02T11:57:37.26Z</time></trkpt><trkpt lat="44.2950988" lon="10.6669199"><ele>1257.5</ele><time>2026-05-02T11:57:38.268Z</time></trkpt><trkpt lat="44.2951737" lon="10.6669476"><ele>1257.0</ele><time>2026-05-02T11:57:39.27Z</time></trkpt><trkpt lat="44.2953088" lon="10.6669767"><ele>1257.0000000000002</ele><time>2026-05-02T11:57:41.262Z</time></trkpt><trkpt lat="44.2953868" lon="10.6669835"><ele>1257.0</ele><time>2026-05-02T11:57:42.3Z</time></trkpt><trkpt lat="44.2954601" lon="10.6669914"><ele>1257.0</ele><time>2026-05-02T11:57:43.264Z</time></trkpt><trkpt lat="44.2955244" lon="10.6669774"><ele>1257.0</ele><time>2026-05-02T11:57:44.266Z</time></trkpt><trkpt lat="44.2955989" lon="10.6669592"><ele>1257.0</ele><time>2026-05-02T11:57:45.264Z</time></trkpt><trkpt lat="44.2956519" lon="10.6669087"><ele>1257.0000000000002</ele><time>2026-05-02T11:57:46.235Z</time></trkpt><trkpt lat="44.2957074" lon="10.6668527"><ele>1257.0</ele><time>2026-05-02T11:57:47.258Z</time></trkpt><trkpt lat="44.2957491" lon="10.6667636"><ele>1256.0</ele><time>2026-05-02T11:57:48.29Z</time></trkpt><trkpt lat="44.2957762" lon="10.6666509"><ele>1255.0</ele><time>2026-05-02T11:57:49.256Z</time></trkpt><trkpt lat="44.2957827" lon="10.6665379"><ele>1254.0</ele><time>2026-05-02T11:57:50.254Z</time></trkpt><trkpt lat="44.2957716" lon="10.6664256"><ele>1253.0</ele><time>2026-05-02T11:57:51.233Z</time></trkpt><trkpt lat="44.2957528" lon="10.666316"><ele>1252.0</ele><time>2026-05-02T11:57:52.264Z</time></trkpt><trkpt lat="44.2957356" lon="10.666204"><ele>1251.0</ele><time>2026-05-02T11:57:53.249Z</time></trkpt><trkpt lat="44.2957257" lon="10.6660805"><ele>1249.5</ele><time>2026-05-02T11:57:54.248Z</time></trkpt><trkpt lat="44.2957126" lon="10.6659644"><ele>1248.0</ele><time>2026-05-02T11:57:55.242Z</time></trkpt><trkpt lat="44.2956991" lon="10.6658625"><ele>1246.5</ele><time>2026-05-02T11:57:56.244Z</time></trkpt><trkpt lat="44.2956675" lon="10.6657709"><ele>1245.0</ele><time>2026-05-02T11:57:57.238Z</time></trkpt><trkpt lat="44.2956414" lon="10.6656763"><ele>1243.5</ele><time>2026-05-02T11:57:58.24Z</time></trkpt><trkpt lat="44.2956294" lon="10.6655813"><ele>1242.0</ele><time>2026-05-02T11:57:59.267Z</time></trkpt><trkpt lat="44.2956457" lon="10.6654167"><ele>1242.0</ele><time>2026-05-02T11:58:01.232Z</time></trkpt><trkpt lat="44.2957191" lon="10.6653178"><ele>1242.0</ele><time>2026-05-02T11:58:03.271Z</time></trkpt><trkpt lat="44.2958219" lon="10.6652732"><ele>1242.0</ele><time>2026-05-02T11:58:05.291Z</time></trkpt><trkpt lat="44.2958854" lon="10.6652641"><ele>1242.0</ele><time>2026-05-02T11:58:06.269Z</time></trkpt><trkpt lat="44.2959489" lon="10.6652829"><ele>1242.0</ele><time>2026-05-02T11:58:07.263Z</time></trkpt><trkpt lat="44.2960198" lon="10.6653334"><ele>1242.0</ele><time>2026-05-02T11:58:08.23Z</time></trkpt><trkpt lat="44.2961371" lon="10.6654285"><ele>1242.0</ele><time>2026-05-02T11:58:10.234Z</time></trkpt><trkpt lat="44.2961829" lon="10.6654936"><ele>1242.0</ele><time>2026-05-02T11:58:11.241Z</time></trkpt><trkpt lat="44.2962423" lon="10.665583"><ele>1242.0</ele><time>2026-05-02T11:58:12.233Z</time></trkpt><trkpt lat="44.2962955" lon="10.6656878"><ele>1242.0</ele><time>2026-05-02T11:58:13.241Z</time></trkpt><trkpt lat="44.2963447" lon="10.6658045"><ele>1242.0</ele><time>2026-05-02T11:58:14.226Z</time></trkpt><trkpt lat="44.296391" lon="10.6659095"><ele>1242.0</ele><time>2026-05-02T11:58:15.229Z</time></trkpt><trkpt lat="44.2964338" lon="10.6660078"><ele>1241.0</ele><time>2026-05-02T11:58:16.246Z</time></trkpt><trkpt lat="44.2964918" lon="10.6660919"><ele>1240.0</ele><time>2026-05-02T11:58:17.301Z</time></trkpt><trkpt lat="44.2965534" lon="10.6661792"><ele>1239.0</ele><time>2026-05-02T11:58:18.254Z</time></trkpt><trkpt lat="44.2966031" lon="10.6662486"><ele>1238.0</ele><time>2026-05-02T11:58:19.219Z</time></trkpt><trkpt lat="44.2966379" lon="10.6663232"><ele>1237.0</ele><time>2026-05-02T11:58:20.234Z</time></trkpt><trkpt lat="44.2967286" lon="10.666494"><ele>1237.0</ele><time>2026-05-02T11:58:22.242Z</time></trkpt><trkpt lat="44.2967873" lon="10.6665853"><ele>1237.0</ele><time>2026-05-02T11:58:23.289Z</time></trkpt><trkpt lat="44.2968608" lon="10.6667077"><ele>1237.0</ele><time>2026-05-02T11:58:24.25Z</time></trkpt><trkpt lat="44.2969378" lon="10.6668052"><ele>1237.0</ele><time>2026-05-02T11:58:25.25Z</time></trkpt><trkpt lat="44.297006" lon="10.6668941"><ele>1237.0</ele><time>2026-05-02T11:58:26.219Z</time></trkpt><trkpt lat="44.2970728" lon="10.6669816"><ele>1237.2</ele><time>2026-05-02T11:58:27.256Z</time></trkpt><trkpt lat="44.2971588" lon="10.6670771"><ele>1237.4</ele><time>2026-05-02T11:58:28.265Z</time></trkpt><trkpt lat="44.2972299" lon="10.667158"><ele>1237.6</ele><time>2026-05-02T11:58:29.306Z</time></trkpt><trkpt lat="44.2972963" lon="10.6672332"><ele>1237.8</ele><time>2026-05-02T11:58:30.233Z</time></trkpt><trkpt lat="44.2973712" lon="10.6673095"><ele>1238.0</ele><time>2026-05-02T11:58:31.238Z</time></trkpt><trkpt lat="44.2974331" lon="10.6673729"><ele>1235.5</ele><time>2026-05-02T11:58:32.249Z</time></trkpt><trkpt lat="44.2974831" lon="10.6674556"><ele>1233.0</ele><time>2026-05-02T11:58:33.268Z</time></trkpt><trkpt lat="44.2975271" lon="10.6675601"><ele>1230.5</ele><time>2026-05-02T11:58:34.244Z</time></trkpt><trkpt lat="44.2975612" lon="10.6676571"><ele>1228.0</ele><time>2026-05-02T11:58:35.275Z</time></trkpt><trkpt lat="44.2975928" lon="10.6677478"><ele>1225.5</ele><time>2026-05-02T11:58:36.253Z</time></trkpt><trkpt lat="44.297648" lon="10.6678107"><ele>1223.0</ele><time>2026-05-02T11:58:37.255Z</time></trkpt><trkpt lat="44.2977147" lon="10.6678583"><ele>1222.6666666666667</ele><time>2026-05-02T11:58:38.26Z</time></trkpt><trkpt lat="44.2977871" lon="10.6678933"><ele>1222.3333333333335</ele><time>2026-05-02T11:58:39.241Z</time></trkpt><trkpt lat="44.2978658" lon="10.6679246"><ele>1222.0</ele><time>2026-05-02T11:58:40.211Z</time></trkpt><trkpt lat="44.2979489" lon="10.667965"><ele>1221.6666666666667</ele><time>2026-05-02T11:58:41.217Z</time></trkpt><trkpt lat="44.298024" lon="10.6680056"><ele>1221.3333333333333</ele><time>2026-05-02T11:58:42.22Z</time></trkpt><trkpt lat="44.2981067" lon="10.668052"><ele>1221.0</ele><time>2026-05-02T11:58:43.262Z</time></trkpt><trkpt lat="44.2981921" lon="10.6680978"><ele>1219.3999999999999</ele><time>2026-05-02T11:58:44.272Z</time></trkpt><trkpt lat="44.2982818" lon="10.6681413"><ele>1217.8</ele><time>2026-05-02T11:58:45.258Z</time></trkpt><trkpt lat="44.298369" lon="10.6681814"><ele>1216.1999999999998</ele><time>2026-05-02T11:58:46.261Z</time></trkpt><trkpt lat="44.298453" lon="10.668229"><ele>1214.6</ele><time>2026-05-02T11:58:47.218Z</time></trkpt><trkpt lat="44.2985374" lon="10.6682784"><ele>1213.0</ele><time>2026-05-02T11:58:48.258Z</time></trkpt><trkpt lat="44.2986146" lon="10.6683254"><ele>1213.0</ele><time>2026-05-02T11:58:49.25Z</time></trkpt><trkpt lat="44.2986909" lon="10.6683715"><ele>1213.0</ele><time>2026-05-02T11:58:50.214Z</time></trkpt><trkpt lat="44.2987597" lon="10.6684165"><ele>1213.0</ele><time>2026-05-02T11:58:51.247Z</time></trkpt><trkpt lat="44.2988316" lon="10.6684653"><ele>1213.0</ele><time>2026-05-02T11:58:52.278Z</time></trkpt><trkpt lat="44.2988988" lon="10.6685127"><ele>1213.0</ele><time>2026-05-02T11:58:53.208Z</time></trkpt><trkpt lat="44.2989647" lon="10.6685682"><ele>1213.0</ele><time>2026-05-02T11:58:54.254Z</time></trkpt><trkpt lat="44.2990214" lon="10.6686167"><ele>1212.4</ele><time>2026-05-02T11:58:55.266Z</time></trkpt><trkpt lat="44.2991314" lon="10.668686"><ele>1211.8</ele><time>2026-05-02T11:58:57.247Z</time></trkpt><trkpt lat="44.2991962" lon="10.6687281"><ele>1211.2</ele><time>2026-05-02T11:58:58.267Z</time></trkpt><trkpt lat="44.299268" lon="10.668783"><ele>1210.6</ele><time>2026-05-02T11:58:59.252Z</time></trkpt><trkpt lat="44.2993561" lon="10.6688544"><ele>1210.0</ele><time>2026-05-02T11:59:00.216Z</time></trkpt><trkpt lat="44.2994276" lon="10.6689074"><ele>1210.0</ele><time>2026-05-02T11:59:01.229Z</time></trkpt><trkpt lat="44.2995171" lon="10.6690145"><ele>1210.0</ele><time>2026-05-02T11:59:02.258Z</time></trkpt><trkpt lat="44.2995762" lon="10.669088"><ele>1210.0</ele><time>2026-05-02T11:59:03.228Z</time></trkpt><trkpt lat="44.2996418" lon="10.669156"><ele>1210.0</ele><time>2026-05-02T11:59:04.233Z</time></trkpt><trkpt lat="44.2997146" lon="10.6692213"><ele>1210.0</ele><time>2026-05-02T11:59:05.23Z</time></trkpt><trkpt lat="44.2997833" lon="10.6692818"><ele>1210.0</ele><time>2026-05-02T11:59:06.236Z</time></trkpt><trkpt lat="44.2998536" lon="10.6693293"><ele>1208.4</ele><time>2026-05-02T11:59:07.217Z</time></trkpt><trkpt lat="44.2999182" lon="10.6693647"><ele>1206.8</ele><time>2026-05-02T11:59:08.223Z</time></trkpt><trkpt lat="44.2999963" lon="10.6694159"><ele>1205.2</ele><time>2026-05-02T11:59:09.223Z</time></trkpt><trkpt lat="44.3000635" lon="10.6694779"><ele>1203.6</ele><time>2026-05-02T11:59:10.199Z</time></trkpt><trkpt lat="44.3001796" lon="10.6695874"><ele>1202.0</ele><time>2026-05-02T11:59:11.227Z</time></trkpt><trkpt lat="44.3002599" lon="10.6696671"><ele>1202.0</ele><time>2026-05-02T11:59:12.221Z</time></trkpt><trkpt lat="44.3003448" lon="10.6697493"><ele>1202.0</ele><time>2026-05-02T11:59:13.222Z</time></trkpt><trkpt lat="44.3004061" lon="10.6698238"><ele>1202.0</ele><time>2026-05-02T11:59:14.262Z</time></trkpt><trkpt lat="44.3004843" lon="10.6699126"><ele>1202.0</ele><time>2026-05-02T11:59:15.226Z</time></trkpt><trkpt lat="44.3005531" lon="10.669987"><ele>1202.0</ele><time>2026-05-02T11:59:16.212Z</time></trkpt><trkpt lat="44.3006212" lon="10.6700687"><ele>1199.75</ele><time>2026-05-02T11:59:17.223Z</time></trkpt><trkpt lat="44.3007079" lon="10.6701954"><ele>1197.5</ele><time>2026-05-02T11:59:18.226Z</time></trkpt><trkpt lat="44.3007691" lon="10.6703334"><ele>1195.25</ele><time>2026-05-02T11:59:19.233Z</time></trkpt><trkpt lat="44.3008204" lon="10.6704674"><ele>1193.0</ele><time>2026-05-02T11:59:20.234Z</time></trkpt><trkpt lat="44.300869" lon="10.6705893"><ele>1192.2</ele><time>2026-05-02T11:59:21.258Z</time></trkpt><trkpt lat="44.3009304" lon="10.6707011"><ele>1191.4</ele><time>2026-05-02T11:59:22.22Z</time></trkpt><trkpt lat="44.3009882" lon="10.6708133"><ele>1190.6000000000001</ele><time>2026-05-02T11:59:23.242Z</time></trkpt><trkpt lat="44.3010621" lon="10.6709116"><ele>1189.8</ele><time>2026-05-02T11:59:24.224Z</time></trkpt><trkpt lat="44.3011427" lon="10.6710156"><ele>1189.0</ele><time>2026-05-02T11:59:25.229Z</time></trkpt><trkpt lat="44.3012205" lon="10.6711209"><ele>1186.8</ele><time>2026-05-02T11:59:26.24Z</time></trkpt><trkpt lat="44.301291" lon="10.6712356"><ele>1184.6000000000001</ele><time>2026-05-02T11:59:27.279Z</time></trkpt><trkpt lat="44.3013589" lon="10.6713476"><ele>1182.4</ele><time>2026-05-02T11:59:28.221Z</time></trkpt><trkpt lat="44.3014228" lon="10.671462"><ele>1180.2</ele><time>2026-05-02T11:59:29.23Z</time></trkpt><trkpt lat="44.3014826" lon="10.671568"><ele>1178.0</ele><time>2026-05-02T11:59:30.227Z</time></trkpt><trkpt lat="44.301545" lon="10.6716614"><ele>1178.0</ele><time>2026-05-02T11:59:31.205Z</time></trkpt><trkpt lat="44.3016006" lon="10.671744"><ele>1178.0</ele><time>2026-05-02T11:59:32.208Z</time></trkpt><trkpt lat="44.3016627" lon="10.6718401"><ele>1178.0</ele><time>2026-05-02T11:59:33.219Z</time></trkpt><trkpt lat="44.3017168" lon="10.6719204"><ele>1178.0</ele><time>2026-05-02T11:59:34.226Z</time></trkpt><trkpt lat="44.3017608" lon="10.6720068"><ele>1178.0</ele><time>2026-05-02T11:59:35.232Z</time></trkpt><trkpt lat="44.3018175" lon="10.6721302"><ele>1178.0</ele><time>2026-05-02T11:59:36.226Z</time></trkpt><trkpt lat="44.3018668" lon="10.6722251"><ele>1177.2</ele><time>2026-05-02T11:59:37.205Z</time></trkpt><trkpt lat="44.3019101" lon="10.6723214"><ele>1176.4</ele><time>2026-05-02T11:59:38.226Z</time></trkpt><trkpt lat="44.3019562" lon="10.6724276"><ele>1175.6000000000001</ele><time>2026-05-02T11:59:39.21Z</time></trkpt><trkpt lat="44.3020203" lon="10.6725675"><ele>1174.8</ele><time>2026-05-02T11:59:40.231Z</time></trkpt><trkpt lat="44.3020807" lon="10.6726797"><ele>1174.0</ele><time>2026-05-02T11:59:41.219Z</time></trkpt><trkpt lat="44.3021339" lon="10.6727843"><ele>1172.4</ele><time>2026-05-02T11:59:42.215Z</time></trkpt><trkpt lat="44.3022073" lon="10.672917"><ele>1170.8000000000002</ele><time>2026-05-02T11:59:43.225Z</time></trkpt><trkpt lat="44.3022807" lon="10.6730437"><ele>1169.1999999999998</ele><time>2026-05-02T11:59:44.215Z</time></trkpt><trkpt lat="44.3023327" lon="10.6731385"><ele>1167.6</ele><time>2026-05-02T11:59:45.22Z</time></trkpt><trkpt lat="44.3023954" lon="10.6732557"><ele>1166.0</ele><time>2026-05-02T11:59:46.217Z</time></trkpt><trkpt lat="44.3024543" lon="10.6733574"><ele>1165.8</ele><time>2026-05-02T11:59:47.23Z</time></trkpt><trkpt lat="44.3025096" lon="10.6734597"><ele>1165.6</ele><time>2026-05-02T11:59:48.234Z</time></trkpt><trkpt lat="44.3025788" lon="10.6735741"><ele>1165.4</ele><time>2026-05-02T11:59:49.237Z</time></trkpt><trkpt lat="44.3026491" lon="10.6736853"><ele>1165.2</ele><time>2026-05-02T11:59:50.29Z</time></trkpt><trkpt lat="44.3027224" lon="10.6738104"><ele>1165.0</ele><time>2026-05-02T11:59:51.238Z</time></trkpt><trkpt lat="44.3027989" lon="10.6739117"><ele>1165.0</ele><time>2026-05-02T11:59:52.232Z</time></trkpt><trkpt lat="44.302881" lon="10.6740051"><ele>1165.0</ele><time>2026-05-02T11:59:53.24Z</time></trkpt><trkpt lat="44.302963" lon="10.6740955"><ele>1165.0</ele><time>2026-05-02T11:59:54.228Z</time></trkpt><trkpt lat="44.3030463" lon="10.6741827"><ele>1165.0</ele><time>2026-05-02T11:59:55.243Z</time></trkpt><trkpt lat="44.3031285" lon="10.6742677"><ele>1165.0</ele><time>2026-05-02T11:59:56.28Z</time></trkpt><trkpt lat="44.3032042" lon="10.6743438"><ele>1165.0</ele><time>2026-05-02T11:59:57.242Z</time></trkpt><trkpt lat="44.3032867" lon="10.6744112"><ele>1165.0</ele><time>2026-05-02T11:59:58.21Z</time></trkpt><trkpt lat="44.3033578" lon="10.6744719"><ele>1165.0</ele><time>2026-05-02T11:59:59.221Z</time></trkpt><trkpt lat="44.3034552" lon="10.6745174"><ele>1165.0</ele><time>2026-05-02T12:00:01.231Z</time></trkpt><trkpt lat="44.3035317" lon="10.6745577"><ele>1165.0</ele><time>2026-05-02T12:00:04.228Z</time></trkpt><trkpt lat="44.3035928" lon="10.6745794"><ele>1165.0</ele><time>2026-05-02T12:00:15.265Z</time></trkpt><trkpt lat="44.30368" lon="10.6746145"><ele>1165.6</ele><time>2026-05-02T12:00:17.245Z</time></trkpt><trkpt lat="44.3038037" lon="10.6746769"><ele>1166.2</ele><time>2026-05-02T12:00:19.244Z</time></trkpt><trkpt lat="44.3038878" lon="10.6747256"><ele>1166.8</ele><time>2026-05-02T12:00:20.242Z</time></trkpt><trkpt lat="44.303976" lon="10.6747788"><ele>1167.4</ele><time>2026-05-02T12:00:21.235Z</time></trkpt><trkpt lat="44.304066" lon="10.6748335"><ele>1168.0</ele><time>2026-05-02T12:00:22.251Z</time></trkpt><trkpt lat="44.3041492" lon="10.6748886"><ele>1168.0</ele><time>2026-05-02T12:00:23.237Z</time></trkpt><trkpt lat="44.3042434" lon="10.6749462"><ele>1168.0</ele><time>2026-05-02T12:00:24.229Z</time></trkpt><trkpt lat="44.3043343" lon="10.6749984"><ele>1168.0</ele><time>2026-05-02T12:00:25.258Z</time></trkpt><trkpt lat="44.3044118" lon="10.6750426"><ele>1168.0</ele><time>2026-05-02T12:00:26.222Z</time></trkpt><trkpt lat="44.3044779" lon="10.6750868"><ele>1168.0</ele><time>2026-05-02T12:00:27.215Z</time></trkpt><trkpt lat="44.3045488" lon="10.6751286"><ele>1168.0</ele><time>2026-05-02T12:00:28.251Z</time></trkpt><trkpt lat="44.3046164" lon="10.6751586"><ele>1168.0</ele><time>2026-05-02T12:00:29.188Z</time></trkpt><trkpt lat="44.3046927" lon="10.6751882"><ele>1168.0</ele><time>2026-05-02T12:00:30.235Z</time></trkpt><trkpt lat="44.3047635" lon="10.6752114"><ele>1168.0</ele><time>2026-05-02T12:00:31.23Z</time></trkpt><trkpt lat="44.3048432" lon="10.6752447"><ele>1168.0</ele><time>2026-05-02T12:00:32.235Z</time></trkpt><trkpt lat="44.3049502" lon="10.6752761"><ele>1168.0</ele><time>2026-05-02T12:00:34.238Z</time></trkpt><trkpt lat="44.305041" lon="10.6753016"><ele>1168.0</ele><time>2026-05-02T12:00:36.201Z</time></trkpt><trkpt lat="44.3051155" lon="10.6754317"><ele>1167.5</ele><time>2026-05-02T12:00:38.221Z</time></trkpt><trkpt lat="44.3051905" lon="10.6755364"><ele>1167.0</ele><time>2026-05-02T12:00:40.22Z</time></trkpt><trkpt lat="44.3052373" lon="10.6756343"><ele>1166.5</ele><time>2026-05-02T12:00:42.262Z</time></trkpt><trkpt lat="44.3052804" lon="10.675737"><ele>1166.0</ele><time>2026-05-02T12:01:11.24Z</time></trkpt><trkpt lat="44.305338" lon="10.6757782"><ele>1165.5</ele><time>2026-05-02T12:01:15.283Z</time></trkpt><trkpt lat="44.3054396" lon="10.6758007"><ele>1165.0</ele><time>2026-05-02T12:01:17.223Z</time></trkpt><trkpt lat="44.3055033" lon="10.6758458"><ele>1165.0</ele><time>2026-05-02T12:01:18.24Z</time></trkpt><trkpt lat="44.3055635" lon="10.6759075"><ele>1165.0</ele><time>2026-05-02T12:01:19.222Z</time></trkpt><trkpt lat="44.3056274" lon="10.6759476"><ele>1165.0</ele><time>2026-05-02T12:01:20.217Z</time></trkpt><trkpt lat="44.3056904" lon="10.6759537"><ele>1165.0</ele><time>2026-05-02T12:01:21.299Z</time></trkpt><trkpt lat="44.3057604" lon="10.6759503"><ele>1165.0</ele><time>2026-05-02T12:01:22.24Z</time></trkpt><trkpt lat="44.3058546" lon="10.6759658"><ele>1165.0</ele><time>2026-05-02T12:01:23.252Z</time></trkpt><trkpt lat="44.3059613" lon="10.6760127"><ele>1167.0</ele><time>2026-05-02T12:01:24.26Z</time></trkpt><trkpt lat="44.3060455" lon="10.676042"><ele>1169.0</ele><time>2026-05-02T12:01:25.245Z</time></trkpt><trkpt lat="44.3061267" lon="10.6760693"><ele>1171.0</ele><time>2026-05-02T12:01:26.234Z</time></trkpt><trkpt lat="44.3061977" lon="10.6760821"><ele>1173.0</ele><time>2026-05-02T12:01:27.285Z</time></trkpt><trkpt lat="44.3063153" lon="10.6760728"><ele>1175.0</ele><time>2026-05-02T12:01:29.255Z</time></trkpt><trkpt lat="44.3064241" lon="10.6760096"><ele>1177.0</ele><time>2026-05-02T12:01:31.229Z</time></trkpt><trkpt lat="44.3064856" lon="10.6759576"><ele>1179.0</ele><time>2026-05-02T12:01:32.265Z</time></trkpt><trkpt lat="44.3065527" lon="10.6758964"><ele>1181.0</ele><time>2026-05-02T12:01:33.214Z</time></trkpt><trkpt lat="44.3066147" lon="10.6758386"><ele>1183.0</ele><time>2026-05-02T12:01:34.246Z</time></trkpt><trkpt lat="44.3066657" lon="10.6757816"><ele>1185.0</ele><time>2026-05-02T12:01:35.236Z</time></trkpt><trkpt lat="44.306756" lon="10.6756771"><ele>1187.0</ele><time>2026-05-02T12:01:37.256Z</time></trkpt><trkpt lat="44.3068147" lon="10.6756338"><ele>1187.0</ele><time>2026-05-02T12:01:38.23Z</time></trkpt><trkpt lat="44.3068805" lon="10.6756292"><ele>1187.0</ele><time>2026-05-02T12:01:39.223Z</time></trkpt><trkpt lat="44.3069626" lon="10.6756286"><ele>1187.0</ele><time>2026-05-02T12:01:40.21Z</time></trkpt><trkpt lat="44.3070417" lon="10.6756237"><ele>1187.0</ele><time>2026-05-02T12:01:41.237Z</time></trkpt><trkpt lat="44.3071099" lon="10.6756293"><ele>1187.0</ele><time>2026-05-02T12:01:42.257Z</time></trkpt><trkpt lat="44.3072274" lon="10.6756655"><ele>1187.0</ele><time>2026-05-02T12:01:44.284Z</time></trkpt><trkpt lat="44.3072943" lon="10.6757108"><ele>1189.8</ele><time>2026-05-02T12:01:45.256Z</time></trkpt><trkpt lat="44.3073652" lon="10.6757552"><ele>1192.6</ele><time>2026-05-02T12:01:46.229Z</time></trkpt><trkpt lat="44.3074393" lon="10.6758247"><ele>1195.3999999999999</ele><time>2026-05-02T12:01:47.254Z</time></trkpt><trkpt lat="44.3075013" lon="10.6758917"><ele>1198.2</ele><time>2026-05-02T12:01:48.231Z</time></trkpt><trkpt lat="44.307602" lon="10.6759845"><ele>1201.0</ele><time>2026-05-02T12:01:50.228Z</time></trkpt><trkpt lat="44.3077247" lon="10.6760948"><ele>1202.3999999999999</ele><time>2026-05-02T12:01:52.239Z</time></trkpt><trkpt lat="44.3078038" lon="10.6761747"><ele>1203.8</ele><time>2026-05-02T12:01:53.221Z</time></trkpt><trkpt lat="44.3078655" lon="10.6762297"><ele>1205.1999999999998</ele><time>2026-05-02T12:01:54.233Z</time></trkpt><trkpt lat="44.3079254" lon="10.6762877"><ele>1206.6</ele><time>2026-05-02T12:01:55.238Z</time></trkpt><trkpt lat="44.3079929" lon="10.6763979"><ele>1208.0</ele><time>2026-05-02T12:01:57.229Z</time></trkpt><trkpt lat="44.3081013" lon="10.6765118"><ele>1208.6666666666667</ele><time>2026-05-02T12:01:59.223Z</time></trkpt><trkpt lat="44.3081568" lon="10.6765798"><ele>1209.3333333333335</ele><time>2026-05-02T12:02:00.245Z</time></trkpt><trkpt lat="44.3082034" lon="10.6766476"><ele>1210.0</ele><time>2026-05-02T12:02:01.232Z</time></trkpt><trkpt lat="44.3082795" lon="10.6767757"><ele>1210.6666666666667</ele><time>2026-05-02T12:02:03.244Z</time></trkpt><trkpt lat="44.308337" lon="10.6769085"><ele>1211.3333333333333</ele><time>2026-05-02T12:02:05.23Z</time></trkpt><trkpt lat="44.3083666" lon="10.6769956"><ele>1212.0</ele><time>2026-05-02T12:02:06.24Z</time></trkpt><trkpt lat="44.3084076" lon="10.6770814"><ele>1212.6</ele><time>2026-05-02T12:02:07.232Z</time></trkpt><trkpt lat="44.3084683" lon="10.6771817"><ele>1213.2</ele><time>2026-05-02T12:02:09.255Z</time></trkpt><trkpt lat="44.3085559" lon="10.6772695"><ele>1213.8</ele><time>2026-05-02T12:02:11.229Z</time></trkpt><trkpt lat="44.3086318" lon="10.6773911"><ele>1214.4</ele><time>2026-05-02T12:02:13.234Z</time></trkpt><trkpt lat="44.3086831" lon="10.6774541"><ele>1215.0</ele><time>2026-05-02T12:02:14.228Z</time></trkpt><trkpt lat="44.308746" lon="10.6775288"><ele>1215.0</ele><time>2026-05-02T12:02:15.224Z</time></trkpt><trkpt lat="44.308838" lon="10.6776444"><ele>1215.0</ele><time>2026-05-02T12:02:19.241Z</time></trkpt><trkpt lat="44.3088887" lon="10.6777186"><ele>1215.0</ele><time>2026-05-02T12:02:36.273Z</time></trkpt><trkpt lat="44.3089643" lon="10.6777792"><ele>1215.0</ele><time>2026-05-02T12:02:51.193Z</time></trkpt><trkpt lat="44.3090468" lon="10.6778386"><ele>1215.0</ele><time>2026-05-02T12:02:53.25Z</time></trkpt><trkpt lat="44.3091367" lon="10.677918"><ele>1216.1666666666667</ele><time>2026-05-02T12:02:55.235Z</time></trkpt><trkpt lat="44.3092186" lon="10.6779859"><ele>1217.3333333333333</ele><time>2026-05-02T12:02:57.235Z</time></trkpt><trkpt lat="44.3093033" lon="10.6779529"><ele>1218.5</ele><time>2026-05-02T12:03:00.23Z</time></trkpt><trkpt lat="44.3093692" lon="10.6779871"><ele>1219.6666666666665</ele><time>2026-05-02T12:03:04.251Z</time></trkpt><trkpt lat="44.3094543" lon="10.6780667"><ele>1220.8333333333333</ele><time>2026-05-02T12:03:07.238Z</time></trkpt><trkpt lat="44.3095262" lon="10.6781386"><ele>1222.0</ele><time>2026-05-02T12:03:09.23Z</time></trkpt><trkpt lat="44.3096466" lon="10.6782481"><ele>1222.0</ele><time>2026-05-02T12:03:11.253Z</time></trkpt><trkpt lat="44.3097325" lon="10.6783278"><ele>1222.0</ele><time>2026-05-02T12:03:12.232Z</time></trkpt><trkpt lat="44.3098046" lon="10.6784062"><ele>1222.0</ele><time>2026-05-02T12:03:13.232Z</time></trkpt><trkpt lat="44.3098589" lon="10.678483"><ele>1222.0</ele><time>2026-05-02T12:03:14.249Z</time></trkpt><trkpt lat="44.3099028" lon="10.678554"><ele>1222.0</ele><time>2026-05-02T12:03:15.223Z</time></trkpt><trkpt lat="44.3099773" lon="10.6786797"><ele>1222.25</ele><time>2026-05-02T12:03:17.233Z</time></trkpt><trkpt lat="44.3100387" lon="10.6788211"><ele>1222.5</ele><time>2026-05-02T12:03:19.24Z</time></trkpt><trkpt lat="44.3101115" lon="10.6789811"><ele>1222.75</ele><time>2026-05-02T12:03:21.232Z</time></trkpt><trkpt lat="44.3101848" lon="10.679067"><ele>1223.0</ele><time>2026-05-02T12:03:22.282Z</time></trkpt><trkpt lat="44.3102692" lon="10.6791967"><ele>1223.0</ele><time>2026-05-02T12:03:23.22Z</time></trkpt><trkpt lat="44.3103262" lon="10.679272"><ele>1223.0</ele><time>2026-05-02T12:03:24.223Z</time></trkpt><trkpt lat="44.3103886" lon="10.6793754"><ele>1223.0</ele><time>2026-05-02T12:03:25.232Z</time></trkpt><trkpt lat="44.3104478" lon="10.6794561"><ele>1223.0</ele><time>2026-05-02T12:03:26.229Z</time></trkpt><trkpt lat="44.3105012" lon="10.6795267"><ele>1223.0</ele><time>2026-05-02T12:03:27.233Z</time></trkpt><trkpt lat="44.3105584" lon="10.6795859"><ele>1223.0</ele><time>2026-05-02T12:03:28.231Z</time></trkpt><trkpt lat="44.3106168" lon="10.6796425"><ele>1223.8</ele><time>2026-05-02T12:03:29.231Z</time></trkpt><trkpt lat="44.3106914" lon="10.6797656"><ele>1224.6</ele><time>2026-05-02T12:03:31.243Z</time></trkpt><trkpt lat="44.3107509" lon="10.6799201"><ele>1225.4</ele><time>2026-05-02T12:03:33.221Z</time></trkpt><trkpt lat="44.3107897" lon="10.6800081"><ele>1226.2</ele><time>2026-05-02T12:03:34.227Z</time></trkpt><trkpt lat="44.3108323" lon="10.6800953"><ele>1227.0</ele><time>2026-05-02T12:03:35.224Z</time></trkpt><trkpt lat="44.3108652" lon="10.6801949"><ele>1226.0</ele><time>2026-05-02T12:03:36.23Z</time></trkpt><trkpt lat="44.3109345" lon="10.6803446"><ele>1225.0</ele><time>2026-05-02T12:03:37.241Z</time></trkpt><trkpt lat="44.3109853" lon="10.6804664"><ele>1224.0</ele><time>2026-05-02T12:03:38.232Z</time></trkpt><trkpt lat="44.3110296" lon="10.6805749"><ele>1223.0</ele><time>2026-05-02T12:03:39.259Z</time></trkpt><trkpt lat="44.3110715" lon="10.6806878"><ele>1222.0</ele><time>2026-05-02T12:03:40.231Z</time></trkpt><trkpt lat="44.3111175" lon="10.6807985"><ele>1222.0</ele><time>2026-05-02T12:03:41.242Z</time></trkpt><trkpt lat="44.3111592" lon="10.6808896"><ele>1222.0</ele><time>2026-05-02T12:03:42.237Z</time></trkpt><trkpt lat="44.3112101" lon="10.6809928"><ele>1222.0</ele><time>2026-05-02T12:03:43.225Z</time></trkpt><trkpt lat="44.3112501" lon="10.6810802"><ele>1222.0</ele><time>2026-05-02T12:03:44.233Z</time></trkpt><trkpt lat="44.3112934" lon="10.6811762"><ele>1222.0</ele><time>2026-05-02T12:03:45.232Z</time></trkpt><trkpt lat="44.3113276" lon="10.6812522"><ele>1222.0</ele><time>2026-05-02T12:03:46.23Z</time></trkpt><trkpt lat="44.3113873" lon="10.6814286"><ele>1220.8</ele><time>2026-05-02T12:03:48.238Z</time></trkpt><trkpt lat="44.311419" lon="10.6815214"><ele>1219.6</ele><time>2026-05-02T12:03:49.228Z</time></trkpt><trkpt lat="44.3114496" lon="10.681602"><ele>1218.3999999999999</ele><time>2026-05-02T12:03:50.223Z</time></trkpt><trkpt lat="44.3114757" lon="10.6817493"><ele>1217.2</ele><time>2026-05-02T12:03:52.232Z</time></trkpt><trkpt lat="44.3115014" lon="10.6818842"><ele>1216.0</ele><time>2026-05-02T12:03:54.228Z</time></trkpt><trkpt lat="44.3115418" lon="10.6820262"><ele>1214.2</ele><time>2026-05-02T12:03:56.223Z</time></trkpt><trkpt lat="44.3115752" lon="10.6821259"><ele>1212.3999999999999</ele><time>2026-05-02T12:03:57.222Z</time></trkpt><trkpt lat="44.311593" lon="10.6822606"><ele>1210.6</ele><time>2026-05-02T12:03:59.22Z</time></trkpt><trkpt lat="44.3116204" lon="10.6824093"><ele>1208.8</ele><time>2026-05-02T12:04:01.215Z</time></trkpt><trkpt lat="44.3116638" lon="10.6825546"><ele>1207.0</ele><time>2026-05-02T12:04:03.227Z</time></trkpt><trkpt lat="44.3117092" lon="10.6826589"><ele>1205.6</ele><time>2026-05-02T12:04:05.236Z</time></trkpt><trkpt lat="44.3117838" lon="10.6827712"><ele>1204.2</ele><time>2026-05-02T12:04:07.224Z</time></trkpt><trkpt lat="44.31186" lon="10.6829039"><ele>1202.8</ele><time>2026-05-02T12:04:09.214Z</time></trkpt><trkpt lat="44.311889" lon="10.6829857"><ele>1201.4</ele><time>2026-05-02T12:04:10.225Z</time></trkpt><trkpt lat="44.3119521" lon="10.6831632"><ele>1200.0</ele><time>2026-05-02T12:04:11.242Z</time></trkpt><trkpt lat="44.3119895" lon="10.6832756"><ele>1200.0</ele><time>2026-05-02T12:04:12.245Z</time></trkpt><trkpt lat="44.3120283" lon="10.6833671"><ele>1200.0</ele><time>2026-05-02T12:04:13.289Z</time></trkpt><trkpt lat="44.3120837" lon="10.683508"><ele>1200.0</ele><time>2026-05-02T12:04:16.218Z</time></trkpt><trkpt lat="44.3121314" lon="10.6836669"><ele>1200.0</ele><time>2026-05-02T12:04:18.208Z</time></trkpt><trkpt lat="44.3121578" lon="10.6837538"><ele>1200.0</ele><time>2026-05-02T12:04:19.214Z</time></trkpt><trkpt lat="44.3121843" lon="10.6838344"><ele>1200.0</ele><time>2026-05-02T12:04:20.227Z</time></trkpt><trkpt lat="44.3122382" lon="10.683942"><ele>1201.1666666666667</ele><time>2026-05-02T12:04:22.248Z</time></trkpt><trkpt lat="44.3123072" lon="10.684003"><ele>1202.3333333333333</ele><time>2026-05-02T12:04:24.272Z</time></trkpt><trkpt lat="44.312357" lon="10.6841258"><ele>1203.5</ele><time>2026-05-02T12:04:26.228Z</time></trkpt><trkpt lat="44.3124076" lon="10.6842318"><ele>1204.6666666666665</ele><time>2026-05-02T12:04:28.23Z</time></trkpt><trkpt lat="44.3124626" lon="10.6842939"><ele>1205.8333333333333</ele><time>2026-05-02T12:04:31.253Z</time></trkpt><trkpt lat="44.3125386" lon="10.6843387"><ele>1207.0</ele><time>2026-05-02T12:04:34.255Z</time></trkpt><trkpt lat="44.3126266" lon="10.6844621"><ele>1208.6</ele><time>2026-05-02T12:04:36.244Z</time></trkpt><trkpt lat="44.3126812" lon="10.6845436"><ele>1210.2</ele><time>2026-05-02T12:04:37.236Z</time></trkpt><trkpt lat="44.3127607" lon="10.6846667"><ele>1211.8</ele><time>2026-05-02T12:04:39.25Z</time></trkpt><trkpt lat="44.3128516" lon="10.6847895"><ele>1213.4</ele><time>2026-05-02T12:04:41.236Z</time></trkpt><trkpt lat="44.3129071" lon="10.684889"><ele>1215.0</ele><time>2026-05-02T12:04:43.23Z</time></trkpt><trkpt lat="44.312956" lon="10.6849727"><ele>1215.0</ele><time>2026-05-02T12:04:46.233Z</time></trkpt><trkpt lat="44.3130326" lon="10.6850517"><ele>1215.0</ele><time>2026-05-02T12:04:48.2Z</time></trkpt><trkpt lat="44.3131337" lon="10.685159"><ele>1215.0</ele><time>2026-05-02T12:04:50.268Z</time></trkpt><trkpt lat="44.3131863" lon="10.6852276"><ele>1215.0</ele><time>2026-05-02T12:04:51.233Z</time></trkpt><trkpt lat="44.313279" lon="10.6853447"><ele>1215.0</ele><time>2026-05-02T12:04:53.203Z</time></trkpt><trkpt lat="44.3133382" lon="10.6854227"><ele>1217.0</ele><time>2026-05-02T12:04:55.202Z</time></trkpt><trkpt lat="44.3134057" lon="10.6855065"><ele>1219.0</ele><time>2026-05-02T12:04:57.245Z</time></trkpt><trkpt lat="44.3134947" lon="10.685563"><ele>1221.0</ele><time>2026-05-02T12:04:59.225Z</time></trkpt><trkpt lat="44.3136029" lon="10.685598"><ele>1223.0</ele><time>2026-05-02T12:05:01.229Z</time></trkpt><trkpt lat="44.3136664" lon="10.6856404"><ele>1225.0</ele><time>2026-05-02T12:05:02.227Z</time></trkpt><trkpt lat="44.3137356" lon="10.68568"><ele>1227.0</ele><time>2026-05-02T12:05:03.248Z</time></trkpt><trkpt lat="44.3138064" lon="10.685708"><ele>1227.0</ele><time>2026-05-02T12:05:04.214Z</time></trkpt><trkpt lat="44.3138723" lon="10.6857215"><ele>1227.0</ele><time>2026-05-02T12:05:05.223Z</time></trkpt><trkpt lat="44.3139795" lon="10.6857172"><ele>1227.0</ele><time>2026-05-02T12:05:07.197Z</time></trkpt><trkpt lat="44.3140905" lon="10.6856815"><ele>1227.0</ele><time>2026-05-02T12:05:09.219Z</time></trkpt><trkpt lat="44.3141512" lon="10.6856411"><ele>1227.0</ele><time>2026-05-02T12:05:10.278Z</time></trkpt><trkpt lat="44.3142238" lon="10.6855986"><ele>1227.0</ele><time>2026-05-02T12:05:11.23Z</time></trkpt><trkpt lat="44.3142875" lon="10.6855517"><ele>1227.0</ele><time>2026-05-02T12:05:12.235Z</time></trkpt><trkpt lat="44.3143561" lon="10.685494"><ele>1227.0</ele><time>2026-05-02T12:05:13.228Z</time></trkpt><trkpt lat="44.3144187" lon="10.6854421"><ele>1227.0</ele><time>2026-05-02T12:05:14.234Z</time></trkpt><trkpt lat="44.3144833" lon="10.6853851"><ele>1227.0</ele><time>2026-05-02T12:05:15.225Z</time></trkpt><trkpt lat="44.3145684" lon="10.6853275"><ele>1227.0</ele><time>2026-05-02T12:05:16.27Z</time></trkpt><trkpt lat="44.3146479" lon="10.6852569"><ele>1227.0</ele><time>2026-05-02T12:05:17.22Z</time></trkpt><trkpt lat="44.3147295" lon="10.6851921"><ele>1226.0</ele><time>2026-05-02T12:05:18.242Z</time></trkpt><trkpt lat="44.3148005" lon="10.6851478"><ele>1225.0</ele><time>2026-05-02T12:05:19.239Z</time></trkpt><trkpt lat="44.3148654" lon="10.6851207"><ele>1224.0</ele><time>2026-05-02T12:05:20.231Z</time></trkpt><trkpt lat="44.314927" lon="10.6851019"><ele>1223.0</ele><time>2026-05-02T12:05:21.228Z</time></trkpt><trkpt lat="44.3149906" lon="10.6850973"><ele>1222.0</ele><time>2026-05-02T12:05:22.278Z</time></trkpt><trkpt lat="44.3151053" lon="10.6850976"><ele>1221.0</ele><time>2026-05-02T12:05:24.241Z</time></trkpt><trkpt lat="44.3151676" lon="10.6851133"><ele>1221.0</ele><time>2026-05-02T12:05:25.268Z</time></trkpt><trkpt lat="44.3152557" lon="10.6851554"><ele>1221.0</ele><time>2026-05-02T12:05:27.224Z</time></trkpt><trkpt lat="44.3153285" lon="10.6851751"><ele>1221.0</ele><time>2026-05-02T12:05:29.24Z</time></trkpt><trkpt lat="44.3153941" lon="10.6852219"><ele>1221.0</ele><time>2026-05-02T12:05:32.24Z</time></trkpt><trkpt lat="44.3154829" lon="10.6852388"><ele>1221.0</ele><time>2026-05-02T12:05:35.23Z</time></trkpt><trkpt lat="44.3155892" lon="10.6852645"><ele>1221.0</ele><time>2026-05-02T12:05:37.257Z</time></trkpt><trkpt lat="44.3156538" lon="10.6853033"><ele>1222.6</ele><time>2026-05-02T12:05:38.207Z</time></trkpt><trkpt lat="44.3157588" lon="10.6853843"><ele>1224.1999999999998</ele><time>2026-05-02T12:05:40.246Z</time></trkpt><trkpt lat="44.315819" lon="10.6854215"><ele>1225.8000000000002</ele><time>2026-05-02T12:05:41.238Z</time></trkpt><trkpt lat="44.3159336" lon="10.6854721"><ele>1227.4</ele><time>2026-05-02T12:05:43.24Z</time></trkpt><trkpt lat="44.3160143" lon="10.6854923"><ele>1229.0</ele><time>2026-05-02T12:05:44.248Z</time></trkpt><trkpt lat="44.3160936" lon="10.6855137"><ele>1229.0</ele><time>2026-05-02T12:05:45.249Z</time></trkpt><trkpt lat="44.3161991" lon="10.6855567"><ele>1229.0</ele><time>2026-05-02T12:05:47.26Z</time></trkpt><trkpt lat="44.3162903" lon="10.6856035"><ele>1229.0</ele><time>2026-05-02T12:05:49.215Z</time></trkpt><trkpt lat="44.31637" lon="10.6856412"><ele>1229.0</ele><time>2026-05-02T12:05:51.205Z</time></trkpt><trkpt lat="44.3164636" lon="10.6856659"><ele>1229.0</ele><time>2026-05-02T12:05:53.249Z</time></trkpt><trkpt lat="44.3165427" lon="10.685711"><ele>1228.4</ele><time>2026-05-02T12:05:55.207Z</time></trkpt><trkpt lat="44.3166322" lon="10.6857142"><ele>1227.8000000000002</ele><time>2026-05-02T12:05:57.233Z</time></trkpt><trkpt lat="44.3167491" lon="10.6856935"><ele>1227.1999999999998</ele><time>2026-05-02T12:05:59.233Z</time></trkpt><trkpt lat="44.3168777" lon="10.685685"><ele>1226.6</ele><time>2026-05-02T12:06:01.243Z</time></trkpt><trkpt lat="44.3169715" lon="10.6857007"><ele>1226.0</ele><time>2026-05-02T12:06:02.224Z</time></trkpt><trkpt lat="44.3170501" lon="10.6857216"><ele>1226.0</ele><time>2026-05-02T12:06:03.223Z</time></trkpt><trkpt lat="44.3171192" lon="10.6857231"><ele>1226.0</ele><time>2026-05-02T12:06:04.229Z</time></trkpt><trkpt lat="44.3172071" lon="10.6856961"><ele>1226.0</ele><time>2026-05-02T12:06:05.223Z</time></trkpt><trkpt lat="44.3172827" lon="10.685678"><ele>1226.0</ele><time>2026-05-02T12:06:06.227Z</time></trkpt><trkpt lat="44.3173493" lon="10.6856654"><ele>1226.0</ele><time>2026-05-02T12:06:07.231Z</time></trkpt><trkpt lat="44.3174573" lon="10.6856468"><ele>1226.0</ele><time>2026-05-02T12:06:09.225Z</time></trkpt><trkpt lat="44.3175604" lon="10.685626"><ele>1226.0</ele><time>2026-05-02T12:06:11.223Z</time></trkpt><trkpt lat="44.3176257" lon="10.6856168"><ele>1226.0</ele><time>2026-05-02T12:06:12.226Z</time></trkpt><trkpt lat="44.3176928" lon="10.6856107"><ele>1226.0</ele><time>2026-05-02T12:06:13.23Z</time></trkpt><trkpt lat="44.3177625" lon="10.6855921"><ele>1226.0</ele><time>2026-05-02T12:06:14.228Z</time></trkpt><trkpt lat="44.3178875" lon="10.6855739"><ele>1226.0</ele><time>2026-05-02T12:06:16.253Z</time></trkpt><trkpt lat="44.3179873" lon="10.6855612"><ele>1226.0</ele><time>2026-05-02T12:06:18.245Z</time></trkpt><trkpt lat="44.318076" lon="10.6855367"><ele>1226.0</ele><time>2026-05-02T12:06:20.249Z</time></trkpt><trkpt lat="44.3181729" lon="10.6855318"><ele>1226.0</ele><time>2026-05-02T12:06:22.239Z</time></trkpt><trkpt lat="44.3182658" lon="10.6855215"><ele>1226.0</ele><time>2026-05-02T12:06:24.24Z</time></trkpt><trkpt lat="44.3183289" lon="10.6855091"><ele>1226.0</ele><time>2026-05-02T12:06:25.262Z</time></trkpt><trkpt lat="44.3184222" lon="10.6854542"><ele>1226.0</ele><time>2026-05-02T12:06:27.239Z</time></trkpt><trkpt lat="44.3185321" lon="10.685468"><ele>1226.0</ele><time>2026-05-02T12:06:29.222Z</time></trkpt><trkpt lat="44.3186444" lon="10.6854767"><ele>1226.0</ele><time>2026-05-02T12:06:31.226Z</time></trkpt><trkpt lat="44.3187355" lon="10.6854898"><ele>1226.0</ele><time>2026-05-02T12:06:33.242Z</time></trkpt><trkpt lat="44.3188302" lon="10.6855253"><ele>1226.0</ele><time>2026-05-02T12:06:35.227Z</time></trkpt><trkpt lat="44.3189145" lon="10.6855828"><ele>1226.0</ele><time>2026-05-02T12:06:37.239Z</time></trkpt><trkpt lat="44.3189877" lon="10.6856253"><ele>1226.8</ele><time>2026-05-02T12:06:39.213Z</time></trkpt><trkpt lat="44.3190941" lon="10.6856448"><ele>1227.6</ele><time>2026-05-02T12:06:41.246Z</time></trkpt><trkpt lat="44.3191597" lon="10.6856315"><ele>1228.4</ele><time>2026-05-02T12:06:43.235Z</time></trkpt><trkpt lat="44.3192567" lon="10.6856439"><ele>1229.2</ele><time>2026-05-02T12:06:46.232Z</time></trkpt><trkpt lat="44.3193494" lon="10.6857121"><ele>1230.0</ele><time>2026-05-02T12:06:48.196Z</time></trkpt><trkpt lat="44.3194558" lon="10.6857597"><ele>1230.0</ele><time>2026-05-02T12:06:50.241Z</time></trkpt><trkpt lat="44.3195315" lon="10.6858042"><ele>1230.0</ele><time>2026-05-02T12:06:52.256Z</time></trkpt><trkpt lat="44.31961" lon="10.6858787"><ele>1230.0</ele><time>2026-05-02T12:06:55.242Z</time></trkpt><trkpt lat="44.3196638" lon="10.6859448"><ele>1230.0</ele><time>2026-05-02T12:06:57.232Z</time></trkpt><trkpt lat="44.3197468" lon="10.6859664"><ele>1230.0</ele><time>2026-05-02T12:06:59.254Z</time></trkpt><trkpt lat="44.3198054" lon="10.6860062"><ele>1230.0</ele><time>2026-05-02T12:07:01.236Z</time></trkpt><trkpt lat="44.3198644" lon="10.6860484"><ele>1228.6</ele><time>2026-05-02T12:07:02.239Z</time></trkpt><trkpt lat="44.3199642" lon="10.6860901"><ele>1227.2</ele><time>2026-05-02T12:07:04.213Z</time></trkpt><trkpt lat="44.3200405" lon="10.6861208"><ele>1225.8</ele><time>2026-05-02T12:07:06.258Z</time></trkpt><trkpt lat="44.320117" lon="10.686149"><ele>1224.4</ele><time>2026-05-02T12:07:08.197Z</time></trkpt><trkpt lat="44.3202294" lon="10.6861863"><ele>1223.0</ele><time>2026-05-02T12:07:16.235Z</time></trkpt><trkpt lat="44.3203005" lon="10.6862137"><ele>1222.6666666666667</ele><time>2026-05-02T12:07:20.241Z</time></trkpt><trkpt lat="44.3203865" lon="10.6862726"><ele>1222.3333333333335</ele><time>2026-05-02T12:07:24.279Z</time></trkpt><trkpt lat="44.3204252" lon="10.6863782"><ele>1222.0</ele><time>2026-05-02T12:07:26.221Z</time></trkpt><trkpt lat="44.3204452" lon="10.6865064"><ele>1221.6666666666667</ele><time>2026-05-02T12:07:28.242Z</time></trkpt><trkpt lat="44.3204527" lon="10.6866094"><ele>1221.3333333333333</ele><time>2026-05-02T12:07:30.254Z</time></trkpt><trkpt lat="44.3204652" lon="10.6867043"><ele>1221.0</ele><time>2026-05-02T12:07:32.253Z</time></trkpt><trkpt lat="44.3204668" lon="10.6868378"><ele>1219.1666666666667</ele><time>2026-05-02T12:07:35.291Z</time></trkpt><trkpt lat="44.3204682" lon="10.6869286"><ele>1217.3333333333333</ele><time>2026-05-02T12:07:37.233Z</time></trkpt><trkpt lat="44.3204794" lon="10.6870177"><ele>1215.5</ele><time>2026-05-02T12:07:39.249Z</time></trkpt><trkpt lat="44.3204826" lon="10.6871064"><ele>1213.6666666666665</ele><time>2026-05-02T12:07:41.236Z</time></trkpt><trkpt lat="44.3204864" lon="10.6871948"><ele>1211.8333333333333</ele><time>2026-05-02T12:07:44.229Z</time></trkpt><trkpt lat="44.3205275" lon="10.6873371"><ele>1210.0</ele><time>2026-05-02T12:07:47.255Z</time></trkpt><trkpt lat="44.3205743" lon="10.6874476"><ele>1206.8333333333333</ele><time>2026-05-02T12:07:49.273Z</time></trkpt><trkpt lat="44.3206194" lon="10.6875235"><ele>1203.6666666666665</ele><time>2026-05-02T12:07:50.245Z</time></trkpt><trkpt lat="44.3206664" lon="10.6876547"><ele>1200.5</ele><time>2026-05-02T12:07:52.246Z</time></trkpt><trkpt lat="44.3206936" lon="10.68774"><ele>1197.3333333333333</ele><time>2026-05-02T12:07:54.208Z</time></trkpt><trkpt lat="44.3207238" lon="10.6878278"><ele>1194.1666666666667</ele><time>2026-05-02T12:07:56.212Z</time></trkpt><trkpt lat="44.3207473" lon="10.6879431"><ele>1191.0</ele><time>2026-05-02T12:07:59.196Z</time></trkpt><trkpt lat="44.3207646" lon="10.6880402"><ele>1189.1666666666667</ele><time>2026-05-02T12:08:01.253Z</time></trkpt><trkpt lat="44.3207817" lon="10.6881407"><ele>1187.3333333333333</ele><time>2026-05-02T12:08:03.216Z</time></trkpt><trkpt lat="44.3208037" lon="10.6882352"><ele>1185.5</ele><time>2026-05-02T12:08:05.247Z</time></trkpt><trkpt lat="44.3208213" lon="10.6883461"><ele>1183.6666666666665</ele><time>2026-05-02T12:08:08.222Z</time></trkpt><trkpt lat="44.3208496" lon="10.6884644"><ele>1181.8333333333333</ele><time>2026-05-02T12:08:11.263Z</time></trkpt><trkpt lat="44.3208731" lon="10.6885756"><ele>1180.0</ele><time>2026-05-02T12:08:14.252Z</time></trkpt><trkpt lat="44.3208435" lon="10.6887288"><ele>1177.4</ele><time>2026-05-02T12:08:17.24Z</time></trkpt><trkpt lat="44.3208158" lon="10.6888423"><ele>1174.8</ele><time>2026-05-02T12:08:20.238Z</time></trkpt><trkpt lat="44.3208132" lon="10.6889411"><ele>1172.2</ele><time>2026-05-02T12:08:31.23Z</time></trkpt><trkpt lat="44.3208797" lon="10.6890308"><ele>1169.6</ele><time>2026-05-02T12:08:36.244Z</time></trkpt><trkpt lat="44.3209404" lon="10.6891972"><ele>1167.0</ele><time>2026-05-02T12:08:58.249Z</time></trkpt><trkpt lat="44.3209553" lon="10.6893338"><ele>1167.0</ele><time>2026-05-02T12:09:24.244Z</time></trkpt><trkpt lat="44.3209932" lon="10.6894206"><ele>1167.0</ele><time>2026-05-02T12:09:56.243Z</time></trkpt><trkpt lat="44.3210226" lon="10.6895372"><ele>1167.0</ele><time>2026-05-02T12:10:04.246Z</time></trkpt><trkpt lat="44.3210562" lon="10.6896421"><ele>1167.0</ele><time>2026-05-02T12:10:08.266Z</time></trkpt><trkpt lat="44.3210947" lon="10.6897379"><ele>1167.0</ele><time>2026-05-02T12:10:12.276Z</time></trkpt><trkpt lat="44.3211249" lon="10.6898179"><ele>1167.0</ele><time>2026-05-02T12:10:16.238Z</time></trkpt><trkpt lat="44.3211476" lon="10.6899155"><ele>1164.1666666666667</ele><time>2026-05-02T12:10:19.252Z</time></trkpt><trkpt lat="44.3211618" lon="10.6900205"><ele>1161.3333333333333</ele><time>2026-05-02T12:10:22.24Z</time></trkpt><trkpt lat="44.3211921" lon="10.6901129"><ele>1158.5</ele><time>2026-05-02T12:10:48.2Z</time></trkpt><trkpt lat="44.32125" lon="10.690202"><ele>1155.6666666666665</ele><time>2026-05-02T12:10:52.245Z</time></trkpt><trkpt lat="44.3212973" lon="10.6903045"><ele>1152.8333333333333</ele><time>2026-05-02T12:10:55.263Z</time></trkpt><trkpt lat="44.321352" lon="10.6903987"><ele>1150.0</ele><time>2026-05-02T12:10:58.23Z</time></trkpt><trkpt lat="44.3214216" lon="10.6904569"><ele>1148.0</ele><time>2026-05-02T12:11:01.246Z</time></trkpt><trkpt lat="44.3214919" lon="10.6905166"><ele>1146.0</ele><time>2026-05-02T12:11:03.217Z</time></trkpt><trkpt lat="44.3215469" lon="10.6905705"><ele>1144.0</ele><time>2026-05-02T12:11:05.226Z</time></trkpt><trkpt lat="44.321573" lon="10.6906538"><ele>1142.0</ele><time>2026-05-02T12:11:07.24Z</time></trkpt><trkpt lat="44.3215907" lon="10.6907462"><ele>1140.0</ele><time>2026-05-02T12:11:09.263Z</time></trkpt><trkpt lat="44.3216214" lon="10.6908539"><ele>1138.0</ele><time>2026-05-02T12:11:11.254Z</time></trkpt><trkpt lat="44.3216533" lon="10.6909318"><ele>1136.0</ele><time>2026-05-02T12:11:15.225Z</time></trkpt><trkpt lat="44.3217001" lon="10.6910124"><ele>1133.1666666666667</ele><time>2026-05-02T12:11:19.245Z</time></trkpt><trkpt lat="44.32173" lon="10.6911043"><ele>1130.3333333333335</ele><time>2026-05-02T12:11:24.245Z</time></trkpt><trkpt lat="44.3217712" lon="10.6911813"><ele>1127.5</ele><time>2026-05-02T12:11:27.241Z</time></trkpt><trkpt lat="44.3218308" lon="10.6912487"><ele>1124.6666666666667</ele><time>2026-05-02T12:11:29.213Z</time></trkpt><trkpt lat="44.3218894" lon="10.6913116"><ele>1121.8333333333333</ele><time>2026-05-02T12:11:32.243Z</time></trkpt><trkpt lat="44.3219298" lon="10.6913995"><ele>1119.0</ele><time>2026-05-02T12:11:34.233Z</time></trkpt><trkpt lat="44.3219621" lon="10.6915289"><ele>1119.0</ele><time>2026-05-02T12:11:37.26Z</time></trkpt><trkpt lat="44.3219861" lon="10.6916136"><ele>1119.0</ele><time>2026-05-02T12:11:39.25Z</time></trkpt><trkpt lat="44.3220115" lon="10.6917117"><ele>1119.0</ele><time>2026-05-02T12:11:42.268Z</time></trkpt><trkpt lat="44.3220054" lon="10.6918019"><ele>1119.0</ele><time>2026-05-02T12:11:46.251Z</time></trkpt><trkpt lat="44.3220044" lon="10.691908"><ele>1119.0</ele><time>2026-05-02T12:11:50.25Z</time></trkpt><trkpt lat="44.3220183" lon="10.6919996"><ele>1119.0</ele><time>2026-05-02T12:11:56.214Z</time></trkpt><trkpt lat="44.3220419" lon="10.6920864"><ele>1119.0</ele><time>2026-05-02T12:12:44.243Z</time></trkpt><trkpt lat="44.3220554" lon="10.692179"><ele>1116.1666666666667</ele><time>2026-05-02T12:12:50.312Z</time></trkpt><trkpt lat="44.3220708" lon="10.6923262"><ele>1113.3333333333333</ele><time>2026-05-02T12:14:16.268Z</time></trkpt><trkpt lat="44.3220796" lon="10.6924263"><ele>1110.5</ele><time>2026-05-02T12:14:21.26Z</time></trkpt><trkpt lat="44.3221044" lon="10.6925153"><ele>1107.6666666666665</ele><time>2026-05-02T12:14:27.244Z</time></trkpt><trkpt lat="44.3221245" lon="10.692601"><ele>1104.8333333333333</ele><time>2026-05-02T12:14:30.242Z</time></trkpt><trkpt lat="44.3221329" lon="10.6926933"><ele>1102.0</ele><time>2026-05-02T12:14:33.278Z</time></trkpt><trkpt lat="44.3221511" lon="10.6927944"><ele>1099.9999999999998</ele><time>2026-05-02T12:14:38.213Z</time></trkpt><trkpt lat="44.322195" lon="10.6928673"><ele>1098.0</ele><time>2026-05-02T12:14:40.238Z</time></trkpt><trkpt lat="44.3222476" lon="10.6929479"><ele>1096.0</ele><time>2026-05-02T12:14:42.245Z</time></trkpt><trkpt lat="44.3222971" lon="10.6930043"><ele>1094.0</ele><time>2026-05-02T12:14:44.308Z</time></trkpt><trkpt lat="44.3223345" lon="10.6931147"><ele>1092.0</ele><time>2026-05-02T12:14:48.255Z</time></trkpt><trkpt lat="44.3223421" lon="10.6932148"><ele>1089.9999999999998</ele><time>2026-05-02T12:14:50.243Z</time></trkpt><trkpt lat="44.3223761" lon="10.6933134"><ele>1088.0</ele><time>2026-05-02T12:14:53.27Z</time></trkpt><trkpt lat="44.322383" lon="10.6934347"><ele>1087.9999999999998</ele><time>2026-05-02T12:14:56.294Z</time></trkpt><trkpt lat="44.3223711" lon="10.6935222"><ele>1088.0</ele><time>2026-05-02T12:14:58.199Z</time></trkpt><trkpt lat="44.3223466" lon="10.6936146"><ele>1088.0</ele><time>2026-05-02T12:15:00.203Z</time></trkpt><trkpt lat="44.3223655" lon="10.6937296"><ele>1088.0</ele><time>2026-05-02T12:15:03.208Z</time></trkpt><trkpt lat="44.3223927" lon="10.6938251"><ele>1088.0</ele><time>2026-05-02T12:15:08.232Z</time></trkpt><trkpt lat="44.3224643" lon="10.6938546"><ele>1087.9999999999998</ele><time>2026-05-02T12:15:11.275Z</time></trkpt><trkpt lat="44.3225306" lon="10.6938838"><ele>1088.0</ele><time>2026-05-02T12:15:13.281Z</time></trkpt><trkpt lat="44.3226116" lon="10.6939315"><ele>1086.5</ele><time>2026-05-02T12:15:16.225Z</time></trkpt><trkpt lat="44.3226644" lon="10.6939866"><ele>1085.0</ele><time>2026-05-02T12:15:18.253Z</time></trkpt><trkpt lat="44.3227119" lon="10.6940486"><ele>1083.5</ele><time>2026-05-02T12:15:20.246Z</time></trkpt><trkpt lat="44.3227668" lon="10.6941522"><ele>1082.0</ele><time>2026-05-02T12:15:23.235Z</time></trkpt><trkpt lat="44.3227989" lon="10.6942809"><ele>1080.5</ele><time>2026-05-02T12:15:25.259Z</time></trkpt><trkpt lat="44.3228205" lon="10.6943722"><ele>1079.0</ele><time>2026-05-02T12:15:27.253Z</time></trkpt><trkpt lat="44.3228571" lon="10.6944498"><ele>1076.4285714285716</ele><time>2026-05-02T12:15:29.271Z</time></trkpt><trkpt lat="44.3229018" lon="10.6945392"><ele>1073.857142857143</ele><time>2026-05-02T12:15:31.254Z</time></trkpt><trkpt lat="44.3229405" lon="10.6946224"><ele>1071.2857142857142</ele><time>2026-05-02T12:15:34.255Z</time></trkpt><trkpt lat="44.3229844" lon="10.6946919"><ele>1068.7142857142858</ele><time>2026-05-02T12:15:38.249Z</time></trkpt><trkpt lat="44.3230145" lon="10.6947763"><ele>1066.142857142857</ele><time>2026-05-02T12:15:42.27Z</time></trkpt><trkpt lat="44.3230603" lon="10.6948646"><ele>1063.5714285714287</ele><time>2026-05-02T12:15:47.248Z</time></trkpt><trkpt lat="44.3231073" lon="10.6949583"><ele>1061.0</ele><time>2026-05-02T12:15:51.241Z</time></trkpt><trkpt lat="44.32314" lon="10.695038"><ele>1060.7142857142858</ele><time>2026-05-02T12:15:55.241Z</time></trkpt><trkpt lat="44.3231594" lon="10.6951325"><ele>1060.4285714285716</ele><time>2026-05-02T12:15:59.231Z</time></trkpt><trkpt lat="44.323195" lon="10.69522"><ele>1060.142857142857</ele><time>2026-05-02T12:16:02.244Z</time></trkpt><trkpt lat="44.3232322" lon="10.6953103"><ele>1059.857142857143</ele><time>2026-05-02T12:16:04.278Z</time></trkpt><trkpt lat="44.323268" lon="10.69541"><ele>1059.5714285714284</ele><time>2026-05-02T12:16:07.217Z</time></trkpt><trkpt lat="44.3233022" lon="10.6954947"><ele>1059.2857142857142</ele><time>2026-05-02T12:16:09.289Z</time></trkpt><trkpt lat="44.3233212" lon="10.6955872"><ele>1059.0</ele><time>2026-05-02T12:16:11.254Z</time></trkpt><trkpt lat="44.3233488" lon="10.6956924"><ele>1056.8333333333333</ele><time>2026-05-02T12:16:15.268Z</time></trkpt><trkpt lat="44.3233877" lon="10.6958045"><ele>1054.6666666666667</ele><time>2026-05-02T12:16:18.242Z</time></trkpt><trkpt lat="44.3234136" lon="10.6958909"><ele>1052.5</ele><time>2026-05-02T12:16:20.243Z</time></trkpt><trkpt lat="44.3234577" lon="10.6959963"><ele>1050.3333333333335</ele><time>2026-05-02T12:16:22.241Z</time></trkpt><trkpt lat="44.3234882" lon="10.6960824"><ele>1048.1666666666667</ele><time>2026-05-02T12:16:24.227Z</time></trkpt><trkpt lat="44.3235438" lon="10.6961733"><ele>1046.0</ele><time>2026-05-02T12:16:27.246Z</time></trkpt><trkpt lat="44.3236165" lon="10.6962374"><ele>1043.6666666666667</ele><time>2026-05-02T12:16:29.259Z</time></trkpt><trkpt lat="44.3236762" lon="10.6962844"><ele>1041.3333333333335</ele><time>2026-05-02T12:16:31.26Z</time></trkpt><trkpt lat="44.323743" lon="10.6963867"><ele>1039.0</ele><time>2026-05-02T12:16:33.274Z</time></trkpt><trkpt lat="44.3237956" lon="10.6964616"><ele>1036.6666666666667</ele><time>2026-05-02T12:16:35.234Z</time></trkpt><trkpt lat="44.3238484" lon="10.6965645"><ele>1034.3333333333333</ele><time>2026-05-02T12:16:37.254Z</time></trkpt><trkpt lat="44.3238845" lon="10.6966781"><ele>1032.0</ele><time>2026-05-02T12:16:39.241Z</time></trkpt><trkpt lat="44.3239177" lon="10.6967832"><ele>1031.9999999999998</ele><time>2026-05-02T12:16:41.252Z</time></trkpt><trkpt lat="44.3239488" lon="10.6968612"><ele>1032.0</ele><time>2026-05-02T12:16:43.279Z</time></trkpt><trkpt lat="44.3239695" lon="10.6969644"><ele>1032.0</ele><time>2026-05-02T12:16:45.255Z</time></trkpt><trkpt lat="44.3239819" lon="10.6970588"><ele>1032.0</ele><time>2026-05-02T12:16:48.27Z</time></trkpt><trkpt lat="44.3239997" lon="10.6971697"><ele>1032.0</ele><time>2026-05-02T12:16:52.278Z</time></trkpt><trkpt lat="44.3240292" lon="10.6972842"><ele>1031.9999999999998</ele><time>2026-05-02T12:16:55.279Z</time></trkpt><trkpt lat="44.3240448" lon="10.6973759"><ele>1032.0</ele><time>2026-05-02T12:17:00.269Z</time></trkpt><trkpt lat="44.3240658" lon="10.6974725"><ele>1030.5</ele><time>2026-05-02T12:17:03.253Z</time></trkpt><trkpt lat="44.3240853" lon="10.6975632"><ele>1029.0</ele><time>2026-05-02T12:17:05.234Z</time></trkpt><trkpt lat="44.3241074" lon="10.697664"><ele>1027.5</ele><time>2026-05-02T12:17:07.248Z</time></trkpt><trkpt lat="44.3241617" lon="10.6977629"><ele>1026.0</ele><time>2026-05-02T12:17:10.216Z</time></trkpt><trkpt lat="44.3242023" lon="10.6978533"><ele>1024.5</ele><time>2026-05-02T12:17:12.246Z</time></trkpt><trkpt lat="44.3242378" lon="10.6979646"><ele>1023.0</ele><time>2026-05-02T12:17:14.207Z</time></trkpt><trkpt lat="44.3242708" lon="10.6980689"><ele>1021.5999999999999</ele><time>2026-05-02T12:17:16.249Z</time></trkpt><trkpt lat="44.3243009" lon="10.6981824"><ele>1020.1999999999999</ele><time>2026-05-02T12:17:18.242Z</time></trkpt><trkpt lat="44.3243267" lon="10.6982714"><ele>1018.8</ele><time>2026-05-02T12:17:19.252Z</time></trkpt><trkpt lat="44.3243464" lon="10.6984191"><ele>1017.4</ele><time>2026-05-02T12:17:21.234Z</time></trkpt><trkpt lat="44.3243569" lon="10.6985549"><ele>1016.0</ele><time>2026-05-02T12:17:23.258Z</time></trkpt><trkpt lat="44.3243319" lon="10.6986795"><ele>1014.5</ele><time>2026-05-02T12:17:25.239Z</time></trkpt><trkpt lat="44.3243231" lon="10.6988355"><ele>1013.0</ele><time>2026-05-02T12:17:27.279Z</time></trkpt><trkpt lat="44.3243292" lon="10.6989822"><ele>1011.5</ele><time>2026-05-02T12:17:29.232Z</time></trkpt><trkpt lat="44.3243621" lon="10.6991413"><ele>1010.0</ele><time>2026-05-02T12:17:31.25Z</time></trkpt><trkpt lat="44.3244028" lon="10.6992916"><ele>1010.0</ele><time>2026-05-02T12:17:33.264Z</time></trkpt><trkpt lat="44.3244376" lon="10.6994135"><ele>1010.0</ele><time>2026-05-02T12:17:35.251Z</time></trkpt><trkpt lat="44.3244748" lon="10.6995291"><ele>1010.0</ele><time>2026-05-02T12:17:37.275Z</time></trkpt><trkpt lat="44.3245141" lon="10.6996559"><ele>1010.0</ele><time>2026-05-02T12:17:39.255Z</time></trkpt><trkpt lat="44.3245708" lon="10.6997892"><ele>1010.0</ele><time>2026-05-02T12:17:41.245Z</time></trkpt><trkpt lat="44.324647" lon="10.6999007"><ele>1008.5000000000001</ele><time>2026-05-02T12:17:43.257Z</time></trkpt><trkpt lat="44.324687" lon="10.6999702"><ele>1007.0</ele><time>2026-05-02T12:17:44.251Z</time></trkpt><trkpt lat="44.3247359" lon="10.7000896"><ele>1005.5</ele><time>2026-05-02T12:17:46.236Z</time></trkpt><trkpt lat="44.3247758" lon="10.7002626"><ele>1004.0</ele><time>2026-05-02T12:17:48.246Z</time></trkpt><trkpt lat="44.3247844" lon="10.700357"><ele>1002.5000000000001</ele><time>2026-05-02T12:17:49.227Z</time></trkpt><trkpt lat="44.3247979" lon="10.7004759"><ele>1001.0</ele><time>2026-05-02T12:17:51.264Z</time></trkpt><trkpt lat="44.3247959" lon="10.7006264"><ele>1000.5999999999999</ele><time>2026-05-02T12:17:53.25Z</time></trkpt><trkpt lat="44.3248002" lon="10.7007643"><ele>1000.1999999999999</ele><time>2026-05-02T12:17:55.256Z</time></trkpt><trkpt lat="44.3247958" lon="10.7008994"><ele>999.8000000000001</ele><time>2026-05-02T12:17:57.231Z</time></trkpt><trkpt lat="44.324819" lon="10.7010132"><ele>999.4000000000001</ele><time>2026-05-02T12:17:59.243Z</time></trkpt><trkpt lat="44.3248336" lon="10.701112"><ele>999.0</ele><time>2026-05-02T12:18:00.226Z</time></trkpt><trkpt lat="44.324858" lon="10.7012543"><ele>998.2</ele><time>2026-05-02T12:18:02.244Z</time></trkpt><trkpt lat="44.3248922" lon="10.7014079"><ele>997.4000000000001</ele><time>2026-05-02T12:18:04.265Z</time></trkpt><trkpt lat="44.3249264" lon="10.7014976"><ele>996.6</ele><time>2026-05-02T12:18:05.252Z</time></trkpt><trkpt lat="44.3249861" lon="10.7016357"><ele>995.8</ele><time>2026-05-02T12:18:07.251Z</time></trkpt><trkpt lat="44.3250455" lon="10.7017655"><ele>995.0</ele><time>2026-05-02T12:18:09.238Z</time></trkpt><trkpt lat="44.3250919" lon="10.7018586"><ele>994.0</ele><time>2026-05-02T12:18:11.259Z</time></trkpt><trkpt lat="44.3251273" lon="10.7019362"><ele>993.0</ele><time>2026-05-02T12:18:12.271Z</time></trkpt><trkpt lat="44.3251834" lon="10.7020562"><ele>992.0</ele><time>2026-05-02T12:18:14.216Z</time></trkpt><trkpt lat="44.3252323" lon="10.7021951"><ele>991.0</ele><time>2026-05-02T12:18:16.263Z</time></trkpt><trkpt lat="44.325303" lon="10.7023388"><ele>990.0</ele><time>2026-05-02T12:18:18.273Z</time></trkpt><trkpt lat="44.3253433" lon="10.7024173"><ele>990.0</ele><time>2026-05-02T12:18:19.25Z</time></trkpt><trkpt lat="44.3254088" lon="10.7025523"><ele>990.0</ele><time>2026-05-02T12:18:21.251Z</time></trkpt><trkpt lat="44.3254483" lon="10.702687"><ele>990.0</ele><time>2026-05-02T12:18:23.245Z</time></trkpt><trkpt lat="44.32549" lon="10.702826"><ele>990.0</ele><time>2026-05-02T12:18:25.251Z</time></trkpt><trkpt lat="44.3255295" lon="10.7029826"><ele>990.0</ele><time>2026-05-02T12:18:27.227Z</time></trkpt><trkpt lat="44.3255545" lon="10.7030835"><ele>990.6666666666666</ele><time>2026-05-02T12:18:29.241Z</time></trkpt><trkpt lat="44.3255793" lon="10.7031726"><ele>991.3333333333333</ele><time>2026-05-02T12:18:31.261Z</time></trkpt><trkpt lat="44.3256247" lon="10.7032339"><ele>992.0</ele><time>2026-05-02T12:18:34.24Z</time></trkpt><trkpt lat="44.3256948" lon="10.7033271"><ele>992.6666666666666</ele><time>2026-05-02T12:18:37.252Z</time></trkpt><trkpt lat="44.3257559" lon="10.7034061"><ele>993.3333333333333</ele><time>2026-05-02T12:18:40.249Z</time></trkpt><trkpt lat="44.325817" lon="10.7034899"><ele>994.0</ele><time>2026-05-02T12:18:43.248Z</time></trkpt><trkpt lat="44.3258765" lon="10.7035795"><ele>993.8333333333333</ele><time>2026-05-02T12:18:45.232Z</time></trkpt><trkpt lat="44.3259254" lon="10.7036993"><ele>993.6666666666666</ele><time>2026-05-02T12:18:47.244Z</time></trkpt><trkpt lat="44.3259826" lon="10.703805"><ele>993.5</ele><time>2026-05-02T12:18:49.235Z</time></trkpt><trkpt lat="44.3260343" lon="10.7038769"><ele>993.3333333333333</ele><time>2026-05-02T12:18:51.256Z</time></trkpt><trkpt lat="44.3260858" lon="10.7039301"><ele>993.1666666666666</ele><time>2026-05-02T12:18:53.231Z</time></trkpt><trkpt lat="44.3261593" lon="10.7039963"><ele>993.0</ele><time>2026-05-02T12:18:55.211Z</time></trkpt><trkpt lat="44.326225" lon="10.7040642"><ele>993.0</ele><time>2026-05-02T12:18:57.252Z</time></trkpt><trkpt lat="44.3262933" lon="10.7041382"><ele>993.0</ele><time>2026-05-02T12:18:59.251Z</time></trkpt><trkpt lat="44.3263456" lon="10.7042046"><ele>993.0</ele><time>2026-05-02T12:19:01.243Z</time></trkpt><trkpt lat="44.3264056" lon="10.7042968"><ele>993.0</ele><time>2026-05-02T12:19:04.232Z</time></trkpt><trkpt lat="44.3264575" lon="10.7043609"><ele>993.0</ele><time>2026-05-02T12:19:06.222Z</time></trkpt><trkpt lat="44.3265202" lon="10.7044332"><ele>993.0</ele><time>2026-05-02T12:19:08.284Z</time></trkpt><trkpt lat="44.3265788" lon="10.7045153"><ele>989.3333333333334</ele><time>2026-05-02T12:19:10.25Z</time></trkpt><trkpt lat="44.3266269" lon="10.7046481"><ele>985.6666666666667</ele><time>2026-05-02T12:19:12.257Z</time></trkpt><trkpt lat="44.3266229" lon="10.7047578"><ele>982.0</ele><time>2026-05-02T12:19:14.226Z</time></trkpt><trkpt lat="44.3266147" lon="10.704878"><ele>978.3333333333334</ele><time>2026-05-02T12:19:17.267Z</time></trkpt><trkpt lat="44.3266152" lon="10.7049734"><ele>974.6666666666667</ele><time>2026-05-02T12:19:20.288Z</time></trkpt><trkpt lat="44.3266067" lon="10.7050887"><ele>971.0</ele><time>2026-05-02T12:19:23.254Z</time></trkpt><trkpt lat="44.3265934" lon="10.7051948"><ele>968.5000000000001</ele><time>2026-05-02T12:19:26.215Z</time></trkpt><trkpt lat="44.326584" lon="10.7052974"><ele>966.0</ele><time>2026-05-02T12:19:28.254Z</time></trkpt><trkpt lat="44.3265692" lon="10.7053909"><ele>963.5</ele><time>2026-05-02T12:19:30.243Z</time></trkpt><trkpt lat="44.3265433" lon="10.7054857"><ele>961.0</ele><time>2026-05-02T12:19:32.241Z</time></trkpt><trkpt lat="44.3265157" lon="10.7055734"><ele>958.5000000000001</ele><time>2026-05-02T12:19:34.257Z</time></trkpt><trkpt lat="44.3264859" lon="10.7056859"><ele>956.0</ele><time>2026-05-02T12:19:36.211Z</time></trkpt><trkpt lat="44.3264694" lon="10.7058116"><ele>956.0000000000001</ele><time>2026-05-02T12:19:38.259Z</time></trkpt><trkpt lat="44.326447" lon="10.7059135"><ele>956.0</ele><time>2026-05-02T12:19:40.243Z</time></trkpt><trkpt lat="44.3264066" lon="10.7060013"><ele>956.0</ele><time>2026-05-02T12:19:46.237Z</time></trkpt><trkpt lat="44.326388" lon="10.7061247"><ele>956.0</ele><time>2026-05-02T12:19:49.242Z</time></trkpt><trkpt lat="44.3263649" lon="10.7062365"><ele>956.0000000000001</ele><time>2026-05-02T12:19:51.234Z</time></trkpt><trkpt lat="44.3263374" lon="10.7063691"><ele>956.0</ele><time>2026-05-02T12:19:53.221Z</time></trkpt><trkpt lat="44.3262996" lon="10.7065073"><ele>953.5999999999999</ele><time>2026-05-02T12:19:55.266Z</time></trkpt><trkpt lat="44.326258" lon="10.7066378"><ele>951.1999999999999</ele><time>2026-05-02T12:19:57.247Z</time></trkpt><trkpt lat="44.3262355" lon="10.706752"><ele>948.8000000000001</ele><time>2026-05-02T12:19:59.233Z</time></trkpt><trkpt lat="44.3262232" lon="10.7068592"><ele>946.4000000000001</ele><time>2026-05-02T12:20:01.256Z</time></trkpt><trkpt lat="44.3262132" lon="10.70699"><ele>944.0</ele><time>2026-05-02T12:20:04.255Z</time></trkpt><trkpt lat="44.326212" lon="10.7071292"><ele>942.1666666666667</ele><time>2026-05-02T12:20:07.24Z</time></trkpt><trkpt lat="44.3261919" lon="10.7072648"><ele>940.3333333333334</ele><time>2026-05-02T12:20:10.241Z</time></trkpt><trkpt lat="44.3261738" lon="10.7073511"><ele>938.5</ele><time>2026-05-02T12:20:12.227Z</time></trkpt><trkpt lat="44.3261743" lon="10.7074511"><ele>936.6666666666667</ele><time>2026-05-02T12:20:14.272Z</time></trkpt><trkpt lat="44.3262099" lon="10.7075726"><ele>934.8333333333334</ele><time>2026-05-02T12:20:17.257Z</time></trkpt><trkpt lat="44.3262484" lon="10.7076504"><ele>933.0</ele><time>2026-05-02T12:20:19.27Z</time></trkpt><trkpt lat="44.326284" lon="10.7077403"><ele>930.4</ele><time>2026-05-02T12:20:21.274Z</time></trkpt><trkpt lat="44.3263135" lon="10.7078327"><ele>927.8</ele><time>2026-05-02T12:20:23.26Z</time></trkpt><trkpt lat="44.3263547" lon="10.7079528"><ele>925.2</ele><time>2026-05-02T12:20:25.244Z</time></trkpt><trkpt lat="44.3264178" lon="10.7080921"><ele>922.6</ele><time>2026-05-02T12:20:27.25Z</time></trkpt><trkpt lat="44.3264644" lon="10.7082271"><ele>920.0</ele><time>2026-05-02T12:20:29.245Z</time></trkpt><trkpt lat="44.3265022" lon="10.7083472"><ele>920.0000000000001</ele><time>2026-05-02T12:20:31.246Z</time></trkpt><trkpt lat="44.3265658" lon="10.7084896"><ele>920.0</ele><time>2026-05-02T12:20:33.23Z</time></trkpt><trkpt lat="44.3266082" lon="10.70857"><ele>920.0</ele><time>2026-05-02T12:20:34.256Z</time></trkpt><trkpt lat="44.3266421" lon="10.7086522"><ele>920.0</ele><time>2026-05-02T12:20:35.27Z</time></trkpt><trkpt lat="44.3266855" lon="10.7087262"><ele>920.0000000000001</ele><time>2026-05-02T12:20:36.249Z</time></trkpt><trkpt lat="44.3267297" lon="10.708793"><ele>920.0</ele><time>2026-05-02T12:20:37.294Z</time></trkpt><trkpt lat="44.3267964" lon="10.7089236"><ele>918.5000000000001</ele><time>2026-05-02T12:20:39.262Z</time></trkpt><trkpt lat="44.3268464" lon="10.7090752"><ele>917.0</ele><time>2026-05-02T12:20:41.261Z</time></trkpt><trkpt lat="44.3268789" lon="10.7091919"><ele>915.5</ele><time>2026-05-02T12:20:43.251Z</time></trkpt><trkpt lat="44.3269023" lon="10.7092835"><ele>914.0</ele><time>2026-05-02T12:20:45.259Z</time></trkpt><trkpt lat="44.3269259" lon="10.7094062"><ele>912.5000000000001</ele><time>2026-05-02T12:20:48.238Z</time></trkpt><trkpt lat="44.3269621" lon="10.7094947"><ele>911.0</ele><time>2026-05-02T12:20:50.211Z</time></trkpt><trkpt lat="44.3269933" lon="10.7095793"><ele>908.3333333333334</ele><time>2026-05-02T12:20:52.206Z</time></trkpt><trkpt lat="44.3270308" lon="10.7096966"><ele>905.6666666666667</ele><time>2026-05-02T12:20:55.205Z</time></trkpt><trkpt lat="44.3270605" lon="10.7097761"><ele>903.0</ele><time>2026-05-02T12:20:57.195Z</time></trkpt><trkpt lat="44.3270934" lon="10.7099028"><ele>900.3333333333333</ele><time>2026-05-02T12:21:00.207Z</time></trkpt><trkpt lat="44.3271214" lon="10.7099899"><ele>897.6666666666666</ele><time>2026-05-02T12:21:02.205Z</time></trkpt><trkpt lat="44.327167" lon="10.7101128"><ele>895.0</ele><time>2026-05-02T12:21:04.211Z</time></trkpt><trkpt lat="44.3272047" lon="10.7102497"><ele>892.8333333333333</ele><time>2026-05-02T12:21:06.267Z</time></trkpt><trkpt lat="44.3272301" lon="10.7104006"><ele>890.6666666666666</ele><time>2026-05-02T12:21:08.242Z</time></trkpt><trkpt lat="44.3272541" lon="10.7104928"><ele>888.5</ele><time>2026-05-02T12:21:10.249Z</time></trkpt><trkpt lat="44.3272919" lon="10.7105916"><ele>886.3333333333333</ele><time>2026-05-02T12:21:12.242Z</time></trkpt><trkpt lat="44.327326" lon="10.7106954"><ele>884.1666666666666</ele><time>2026-05-02T12:21:14.251Z</time></trkpt><trkpt lat="44.3273391" lon="10.7107853"><ele>882.0</ele><time>2026-05-02T12:21:16.252Z</time></trkpt><trkpt lat="44.3273127" lon="10.7109072"><ele>882.0</ele><time>2026-05-02T12:21:18.231Z</time></trkpt><trkpt lat="44.3273" lon="10.7110173"><ele>882.0</ele><time>2026-05-02T12:21:20.283Z</time></trkpt><trkpt lat="44.3273148" lon="10.7111264"><ele>882.0</ele><time>2026-05-02T12:21:22.238Z</time></trkpt><trkpt lat="44.3273324" lon="10.7112142"><ele>882.0</ele><time>2026-05-02T12:21:24.22Z</time></trkpt><trkpt lat="44.3273672" lon="10.7113222"><ele>882.0</ele><time>2026-05-02T12:21:27.229Z</time></trkpt><trkpt lat="44.3274099" lon="10.7114206"><ele>882.0</ele><time>2026-05-02T12:21:30.257Z</time></trkpt><trkpt lat="44.327448" lon="10.7115087"><ele>880.0</ele><time>2026-05-02T12:21:32.208Z</time></trkpt><trkpt lat="44.3274829" lon="10.7116145"><ele>878.0</ele><time>2026-05-02T12:21:34.239Z</time></trkpt><trkpt lat="44.3274926" lon="10.7117604"><ele>876.0</ele><time>2026-05-02T12:21:42.301Z</time></trkpt><trkpt lat="44.3275053" lon="10.7118846"><ele>874.0</ele><time>2026-05-02T12:21:44.244Z</time></trkpt><trkpt lat="44.3275284" lon="10.712032"><ele>872.0</ele><time>2026-05-02T12:21:46.278Z</time></trkpt><trkpt lat="44.3275178" lon="10.7122062"><ele>870.0000000000001</ele><time>2026-05-02T12:21:48.246Z</time></trkpt><trkpt lat="44.3275061" lon="10.7123326"><ele>868.0</ele><time>2026-05-02T12:21:49.244Z</time></trkpt><trkpt lat="44.3275019" lon="10.7124361"><ele>866.0</ele><time>2026-05-02T12:21:50.243Z</time></trkpt><trkpt lat="44.3274964" lon="10.7125238"><ele>864.0</ele><time>2026-05-02T12:21:51.25Z</time></trkpt><trkpt lat="44.327485" lon="10.7126146"><ele>862.0000000000001</ele><time>2026-05-02T12:21:52.244Z</time></trkpt><trkpt lat="44.3274563" lon="10.7127475"><ele>860.0</ele><time>2026-05-02T12:21:54.213Z</time></trkpt><trkpt lat="44.327412" lon="10.7128967"><ele>858.3333333333334</ele><time>2026-05-02T12:21:56.252Z</time></trkpt><trkpt lat="44.3273995" lon="10.7130251"><ele>856.6666666666667</ele><time>2026-05-02T12:21:58.216Z</time></trkpt><trkpt lat="44.3273888" lon="10.7131456"><ele>855.0</ele><time>2026-05-02T12:22:00.253Z</time></trkpt><trkpt lat="44.3274119" lon="10.7132877"><ele>853.3333333333333</ele><time>2026-05-02T12:22:02.252Z</time></trkpt><trkpt lat="44.3274414" lon="10.7133878"><ele>851.6666666666666</ele><time>2026-05-02T12:22:04.235Z</time></trkpt><trkpt lat="44.3274857" lon="10.7134523"><ele>850.0</ele><time>2026-05-02T12:22:06.237Z</time></trkpt><trkpt lat="44.3275544" lon="10.7135395"><ele>846.0</ele><time>2026-05-02T12:22:08.273Z</time></trkpt><trkpt lat="44.3276106" lon="10.7136099"><ele>842.0</ele><time>2026-05-02T12:22:10.22Z</time></trkpt><trkpt lat="44.3276803" lon="10.7136964"><ele>838.0</ele><time>2026-05-02T12:22:12.21Z</time></trkpt><trkpt lat="44.3277569" lon="10.713775"><ele>834.0</ele><time>2026-05-02T12:22:14.259Z</time></trkpt><trkpt lat="44.3278491" lon="10.7138658"><ele>830.0</ele><time>2026-05-02T12:22:16.289Z</time></trkpt><trkpt lat="44.3279374" lon="10.7139347"><ele>830.0000000000001</ele><time>2026-05-02T12:22:18.262Z</time></trkpt><trkpt lat="44.3279944" lon="10.713974"><ele>830.0</ele><time>2026-05-02T12:22:19.269Z</time></trkpt><trkpt lat="44.3280872" lon="10.7140283"><ele>830.0</ele><time>2026-05-02T12:22:21.268Z</time></trkpt><trkpt lat="44.3281234" lon="10.7141011"><ele>830.0</ele><time>2026-05-02T12:22:23.234Z</time></trkpt><trkpt lat="44.3281224" lon="10.7142781"><ele>830.0000000000001</ele><time>2026-05-02T12:22:25.255Z</time></trkpt><trkpt lat="44.3281181" lon="10.7143746"><ele>830.0</ele><time>2026-05-02T12:22:26.237Z</time></trkpt><trkpt lat="44.3281196" lon="10.714469"><ele>829.4</ele><time>2026-05-02T12:22:27.234Z</time></trkpt><trkpt lat="44.3281297" lon="10.7145607"><ele>828.8</ele><time>2026-05-02T12:22:28.206Z</time></trkpt><trkpt lat="44.3281387" lon="10.7146497"><ele>828.2</ele><time>2026-05-02T12:22:29.245Z</time></trkpt><trkpt lat="44.3281468" lon="10.7148376"><ele>827.6</ele><time>2026-05-02T12:22:31.227Z</time></trkpt><trkpt lat="44.3281517" lon="10.7149296"><ele>827.0</ele><time>2026-05-02T12:22:32.232Z</time></trkpt><trkpt lat="44.3281651" lon="10.7150992"><ele>827.0000000000001</ele><time>2026-05-02T12:22:34.246Z</time></trkpt><trkpt lat="44.3281723" lon="10.7152251"><ele>827.0</ele><time>2026-05-02T12:22:36.272Z</time></trkpt><trkpt lat="44.3281993" lon="10.7153101"><ele>827.0</ele><time>2026-05-02T12:24:22.307Z</time></trkpt><trkpt lat="44.3282842" lon="10.7153304"><ele>827.0</ele><time>2026-05-02T12:24:26.25Z</time></trkpt><trkpt lat="44.328322" lon="10.7154657"><ele>827.0000000000001</ele><time>2026-05-02T12:24:28.294Z</time></trkpt><trkpt lat="44.3283395" lon="10.715552"><ele>827.0</ele><time>2026-05-02T12:24:29.257Z</time></trkpt><trkpt lat="44.3283557" lon="10.7156433"><ele>826.8</ele><time>2026-05-02T12:24:30.245Z</time></trkpt><trkpt lat="44.3283735" lon="10.7157704"><ele>826.6</ele><time>2026-05-02T12:24:31.278Z</time></trkpt><trkpt lat="44.3283826" lon="10.715889"><ele>826.4</ele><time>2026-05-02T12:24:32.269Z</time></trkpt><trkpt lat="44.3283706" lon="10.7159882"><ele>826.1999999999999</ele><time>2026-05-02T12:24:33.259Z</time></trkpt><trkpt lat="44.32831" lon="10.7161071"><ele>826.0</ele><time>2026-05-02T12:24:35.26Z</time></trkpt><trkpt lat="44.3281859" lon="10.7160738"><ele>826.0</ele><time>2026-05-02T12:24:37.239Z</time></trkpt><trkpt lat="44.3281261" lon="10.7159977"><ele>826.0</ele><time>2026-05-02T12:24:38.264Z</time></trkpt><trkpt lat="44.3280709" lon="10.7158986"><ele>826.0</ele><time>2026-05-02T12:24:39.247Z</time></trkpt><trkpt lat="44.3280071" lon="10.7157741"><ele>826.0</ele><time>2026-05-02T12:24:40.249Z</time></trkpt><trkpt lat="44.3279475" lon="10.7156545"><ele>826.0</ele><time>2026-05-02T12:24:41.251Z</time></trkpt><trkpt lat="44.3278848" lon="10.7155394"><ele>825.0</ele><time>2026-05-02T12:24:42.245Z</time></trkpt><trkpt lat="44.3278281" lon="10.7154246"><ele>824.0</ele><time>2026-05-02T12:24:43.269Z</time></trkpt><trkpt lat="44.3277805" lon="10.7152994"><ele>823.0</ele><time>2026-05-02T12:24:44.276Z</time></trkpt><trkpt lat="44.3277455" lon="10.7151561"><ele>822.0</ele><time>2026-05-02T12:24:45.322Z</time></trkpt><trkpt lat="44.3277158" lon="10.7149973"><ele>821.0</ele><time>2026-05-02T12:24:46.254Z</time></trkpt><trkpt lat="44.3276866" lon="10.7148434"><ele>821.0</ele><time>2026-05-02T12:24:47.264Z</time></trkpt><trkpt lat="44.3276518" lon="10.714697"><ele>821.0</ele><time>2026-05-02T12:24:48.267Z</time></trkpt><trkpt lat="44.3276059" lon="10.7145644"><ele>821.0</ele><time>2026-05-02T12:24:49.264Z</time></trkpt><trkpt lat="44.3275456" lon="10.7144517"><ele>821.0</ele><time>2026-05-02T12:24:50.273Z</time></trkpt><trkpt lat="44.3274707" lon="10.7143609"><ele>821.0</ele><time>2026-05-02T12:24:51.282Z</time></trkpt><trkpt lat="44.3273815" lon="10.7142849"><ele>819.5999999999999</ele><time>2026-05-02T12:24:52.267Z</time></trkpt><trkpt lat="44.3272866" lon="10.7142159"><ele>818.2</ele><time>2026-05-02T12:24:53.264Z</time></trkpt><trkpt lat="44.3271925" lon="10.7141463"><ele>816.8</ele><time>2026-05-02T12:24:54.26Z</time></trkpt><trkpt lat="44.3270974" lon="10.714073"><ele>815.4000000000001</ele><time>2026-05-02T12:24:55.269Z</time></trkpt><trkpt lat="44.3270005" lon="10.7139986"><ele>814.0</ele><time>2026-05-02T12:24:56.268Z</time></trkpt><trkpt lat="44.3269017" lon="10.7139264"><ele>814.0</ele><time>2026-05-02T12:24:57.223Z</time></trkpt><trkpt lat="44.3268011" lon="10.7138489"><ele>814.0</ele><time>2026-05-02T12:24:58.259Z</time></trkpt><trkpt lat="44.3267018" lon="10.7137703"><ele>814.0</ele><time>2026-05-02T12:24:59.253Z</time></trkpt><trkpt lat="44.3266063" lon="10.7136764"><ele>814.0</ele><time>2026-05-02T12:25:00.224Z</time></trkpt><trkpt lat="44.3265158" lon="10.7135783"><ele>813.8000000000001</ele><time>2026-05-02T12:25:01.256Z</time></trkpt><trkpt lat="44.3264246" lon="10.7134806"><ele>813.6</ele><time>2026-05-02T12:25:02.251Z</time></trkpt><trkpt lat="44.3263366" lon="10.7133801"><ele>813.4</ele><time>2026-05-02T12:25:03.291Z</time></trkpt><trkpt lat="44.3262521" lon="10.7132749"><ele>813.2</ele><time>2026-05-02T12:25:04.259Z</time></trkpt><trkpt lat="44.326174" lon="10.713173"><ele>813.0</ele><time>2026-05-02T12:25:05.252Z</time></trkpt><trkpt lat="44.3260967" lon="10.7130792"><ele>813.0</ele><time>2026-05-02T12:25:06.242Z</time></trkpt><trkpt lat="44.3260167" lon="10.713011"><ele>813.0</ele><time>2026-05-02T12:25:07.26Z</time></trkpt><trkpt lat="44.3259255" lon="10.7129717"><ele>813.0</ele><time>2026-05-02T12:25:08.258Z</time></trkpt><trkpt lat="44.3258329" lon="10.7129704"><ele>813.0</ele><time>2026-05-02T12:25:09.266Z</time></trkpt><trkpt lat="44.3257403" lon="10.7129738"><ele>813.0</ele><time>2026-05-02T12:25:10.258Z</time></trkpt><trkpt lat="44.3256422" lon="10.7130495"><ele>812.8</ele><time>2026-05-02T12:25:11.246Z</time></trkpt><trkpt lat="44.3255414" lon="10.7131292"><ele>812.5999999999999</ele><time>2026-05-02T12:25:12.25Z</time></trkpt><trkpt lat="44.3254397" lon="10.7131985"><ele>812.4000000000001</ele><time>2026-05-02T12:25:13.235Z</time></trkpt><trkpt lat="44.3253386" lon="10.7132597"><ele>812.2</ele><time>2026-05-02T12:25:14.234Z</time></trkpt><trkpt lat="44.3252359" lon="10.713307"><ele>812.0</ele><time>2026-05-02T12:25:15.247Z</time></trkpt><trkpt lat="44.3251347" lon="10.7133293"><ele>812.0</ele><time>2026-05-02T12:25:16.241Z</time></trkpt><trkpt lat="44.3250404" lon="10.713321"><ele>812.0</ele><time>2026-05-02T12:25:17.26Z</time></trkpt><trkpt lat="44.3249513" lon="10.7132744"><ele>812.0</ele><time>2026-05-02T12:25:18.261Z</time></trkpt><trkpt lat="44.3248645" lon="10.7131902"><ele>812.0</ele><time>2026-05-02T12:25:19.252Z</time></trkpt><trkpt lat="44.3247751" lon="10.7130899"><ele>812.0</ele><time>2026-05-02T12:25:20.245Z</time></trkpt><trkpt lat="44.3246815" lon="10.7129945"><ele>810.25</ele><time>2026-05-02T12:25:21.253Z</time></trkpt><trkpt lat="44.3245793" lon="10.7129247"><ele>808.5</ele><time>2026-05-02T12:25:22.239Z</time></trkpt><trkpt lat="44.3244727" lon="10.7128584"><ele>806.75</ele><time>2026-05-02T12:25:23.251Z</time></trkpt><trkpt lat="44.3243484" lon="10.7128309"><ele>805.0</ele><time>2026-05-02T12:25:24.252Z</time></trkpt><trkpt lat="44.3242089" lon="10.7128227"><ele>805.0</ele><time>2026-05-02T12:25:25.24Z</time></trkpt><trkpt lat="44.3240719" lon="10.7128166"><ele>805.0</ele><time>2026-05-02T12:25:26.249Z</time></trkpt><trkpt lat="44.3239408" lon="10.7128105"><ele>805.0</ele><time>2026-05-02T12:25:27.23Z</time></trkpt><trkpt lat="44.32382" lon="10.7128084"><ele>805.0</ele><time>2026-05-02T12:25:28.242Z</time></trkpt><trkpt lat="44.3237117" lon="10.7128195"><ele>804.4</ele><time>2026-05-02T12:25:29.238Z</time></trkpt><trkpt lat="44.3236143" lon="10.7128575"><ele>803.8</ele><time>2026-05-02T12:25:30.225Z</time></trkpt><trkpt lat="44.3235208" lon="10.7129211"><ele>803.2</ele><time>2026-05-02T12:25:31.236Z</time></trkpt><trkpt lat="44.3234299" lon="10.7130108"><ele>802.6</ele><time>2026-05-02T12:25:32.225Z</time></trkpt><trkpt lat="44.323343" lon="10.71312"><ele>802.0</ele><time>2026-05-02T12:25:33.254Z</time></trkpt><trkpt lat="44.3232597" lon="10.7132332"><ele>802.0</ele><time>2026-05-02T12:25:34.268Z</time></trkpt><trkpt lat="44.3231794" lon="10.7133432"><ele>802.0</ele><time>2026-05-02T12:25:35.24Z</time></trkpt><trkpt lat="44.3231003" lon="10.7134528"><ele>802.0</ele><time>2026-05-02T12:25:36.244Z</time></trkpt><trkpt lat="44.3230203" lon="10.7135596"><ele>802.0</ele><time>2026-05-02T12:25:37.287Z</time></trkpt><trkpt lat="44.322943" lon="10.713665"><ele>802.0</ele><time>2026-05-02T12:25:38.24Z</time></trkpt><trkpt lat="44.3228657" lon="10.7137716"><ele>800.5</ele><time>2026-05-02T12:25:39.245Z</time></trkpt><trkpt lat="44.3227818" lon="10.7138702"><ele>799.0</ele><time>2026-05-02T12:25:40.24Z</time></trkpt><trkpt lat="44.3226882" lon="10.7139542"><ele>797.5</ele><time>2026-05-02T12:25:41.264Z</time></trkpt><trkpt lat="44.3225851" lon="10.7140184"><ele>796.0</ele><time>2026-05-02T12:25:42.26Z</time></trkpt><trkpt lat="44.3224727" lon="10.7140593"><ele>796.0</ele><time>2026-05-02T12:25:43.25Z</time></trkpt><trkpt lat="44.3223588" lon="10.7140803"><ele>796.0</ele><time>2026-05-02T12:25:44.263Z</time></trkpt><trkpt lat="44.3222479" lon="10.714085"><ele>796.0</ele><time>2026-05-02T12:25:45.245Z</time></trkpt><trkpt lat="44.3221355" lon="10.7140881"><ele>796.0</ele><time>2026-05-02T12:25:46.269Z</time></trkpt><trkpt lat="44.3220298" lon="10.7140615"><ele>796.0</ele><time>2026-05-02T12:25:47.249Z</time></trkpt><trkpt lat="44.3219205" lon="10.7140263"><ele>795.0</ele><time>2026-05-02T12:25:48.292Z</time></trkpt><trkpt lat="44.3218076" lon="10.713985"><ele>794.0</ele><time>2026-05-02T12:25:49.251Z</time></trkpt><trkpt lat="44.3216934" lon="10.7139448"><ele>793.0</ele><time>2026-05-02T12:25:50.283Z</time></trkpt><trkpt lat="44.3215778" lon="10.7139039"><ele>792.0</ele><time>2026-05-02T12:25:51.262Z</time></trkpt><trkpt lat="44.3214607" lon="10.7138614"><ele>791.25</ele><time>2026-05-02T12:25:52.272Z</time></trkpt><trkpt lat="44.3213445" lon="10.7138181"><ele>790.5</ele><time>2026-05-02T12:25:53.236Z</time></trkpt><trkpt lat="44.3212278" lon="10.7137731"><ele>789.75</ele><time>2026-05-02T12:25:54.299Z</time></trkpt><trkpt lat="44.3211023" lon="10.7137254"><ele>789.0</ele><time>2026-05-02T12:25:55.243Z</time></trkpt><trkpt lat="44.3209775" lon="10.713688"><ele>789.0</ele><time>2026-05-02T12:25:56.246Z</time></trkpt><trkpt lat="44.3208562" lon="10.7136719"><ele>789.0</ele><time>2026-05-02T12:25:57.238Z</time></trkpt><trkpt lat="44.3207396" lon="10.7136755"><ele>789.0</ele><time>2026-05-02T12:25:58.21Z</time></trkpt><trkpt lat="44.3206288" lon="10.7136879"><ele>789.0</ele><time>2026-05-02T12:25:59.249Z</time></trkpt><trkpt lat="44.3205229" lon="10.713693"><ele>788.0</ele><time>2026-05-02T12:26:00.241Z</time></trkpt><trkpt lat="44.3204219" lon="10.7136771"><ele>787.0</ele><time>2026-05-02T12:26:01.221Z</time></trkpt><trkpt lat="44.3203284" lon="10.7136603"><ele>786.0</ele><time>2026-05-02T12:26:02.235Z</time></trkpt><trkpt lat="44.3202317" lon="10.7136045"><ele>785.0</ele><time>2026-05-02T12:26:03.229Z</time></trkpt><trkpt lat="44.3201428" lon="10.7135321"><ele>784.0</ele><time>2026-05-02T12:26:04.284Z</time></trkpt><trkpt lat="44.3200693" lon="10.7134474"><ele>785.4000000000001</ele><time>2026-05-02T12:26:05.246Z</time></trkpt><trkpt lat="44.3200077" lon="10.7133533"><ele>786.8</ele><time>2026-05-02T12:26:06.247Z</time></trkpt><trkpt lat="44.3199434" lon="10.7132643"><ele>788.2</ele><time>2026-05-02T12:26:07.271Z</time></trkpt><trkpt lat="44.3198711" lon="10.7131965"><ele>789.5999999999999</ele><time>2026-05-02T12:26:08.252Z</time></trkpt><trkpt lat="44.3197834" lon="10.7131607"><ele>791.0</ele><time>2026-05-02T12:26:09.261Z</time></trkpt><trkpt lat="44.3196849" lon="10.7131576"><ele>791.0</ele><time>2026-05-02T12:26:10.223Z</time></trkpt><trkpt lat="44.3195793" lon="10.7131752"><ele>791.0</ele><time>2026-05-02T12:26:11.238Z</time></trkpt><trkpt lat="44.3194732" lon="10.7131916"><ele>791.0</ele><time>2026-05-02T12:26:12.248Z</time></trkpt><trkpt lat="44.3193546" lon="10.7132201"><ele>791.0</ele><time>2026-05-02T12:26:13.26Z</time></trkpt><trkpt lat="44.3192408" lon="10.7132479"><ele>791.0</ele><time>2026-05-02T12:26:14.266Z</time></trkpt><trkpt lat="44.3191275" lon="10.7132762"><ele>791.0</ele><time>2026-05-02T12:26:15.244Z</time></trkpt><trkpt lat="44.3190134" lon="10.7133103"><ele>791.0</ele><time>2026-05-02T12:26:16.253Z</time></trkpt><trkpt lat="44.3189042" lon="10.7133631"><ele>791.0</ele><time>2026-05-02T12:26:17.243Z</time></trkpt><trkpt lat="44.3188062" lon="10.7134458"><ele>791.0</ele><time>2026-05-02T12:26:18.255Z</time></trkpt><trkpt lat="44.3187245" lon="10.7135607"><ele>791.5</ele><time>2026-05-02T12:26:19.206Z</time></trkpt><trkpt lat="44.3186513" lon="10.7137028"><ele>792.0</ele><time>2026-05-02T12:26:20.2Z</time></trkpt><trkpt lat="44.3185829" lon="10.713851"><ele>792.5</ele><time>2026-05-02T12:26:21.246Z</time></trkpt><trkpt lat="44.3185116" lon="10.7139897"><ele>793.0</ele><time>2026-05-02T12:26:22.243Z</time></trkpt><trkpt lat="44.3184353" lon="10.7141212"><ele>793.0</ele><time>2026-05-02T12:26:23.238Z</time></trkpt><trkpt lat="44.3183505" lon="10.7142458"><ele>793.0</ele><time>2026-05-02T12:26:24.243Z</time></trkpt><trkpt lat="44.3182547" lon="10.7143649"><ele>793.0</ele><time>2026-05-02T12:26:25.237Z</time></trkpt><trkpt lat="44.3181582" lon="10.7144772"><ele>793.0</ele><time>2026-05-02T12:26:26.249Z</time></trkpt><trkpt lat="44.3180682" lon="10.7145867"><ele>791.5</ele><time>2026-05-02T12:26:27.243Z</time></trkpt><trkpt lat="44.3179851" lon="10.7147035"><ele>790.0</ele><time>2026-05-02T12:26:28.223Z</time></trkpt><trkpt lat="44.3179043" lon="10.71483"><ele>788.5</ele><time>2026-05-02T12:26:29.228Z</time></trkpt><trkpt lat="44.3178301" lon="10.7149574"><ele>787.0</ele><time>2026-05-02T12:26:30.228Z</time></trkpt><trkpt lat="44.3177585" lon="10.7150856"><ele>787.0</ele><time>2026-05-02T12:26:31.247Z</time></trkpt><trkpt lat="44.3176899" lon="10.7152129"><ele>787.0</ele><time>2026-05-02T12:26:32.233Z</time></trkpt><trkpt lat="44.3176239" lon="10.7153341"><ele>787.0</ele><time>2026-05-02T12:26:33.243Z</time></trkpt><trkpt lat="44.3175587" lon="10.7154354"><ele>787.0</ele><time>2026-05-02T12:26:34.275Z</time></trkpt><trkpt lat="44.3174862" lon="10.7155179"><ele>787.0</ele><time>2026-05-02T12:26:35.25Z</time></trkpt><trkpt lat="44.3174089" lon="10.7155629"><ele>785.0</ele><time>2026-05-02T12:26:36.249Z</time></trkpt><trkpt lat="44.3173309" lon="10.7155569"><ele>783.0</ele><time>2026-05-02T12:26:37.242Z</time></trkpt><trkpt lat="44.317249" lon="10.7155385"><ele>781.0</ele><time>2026-05-02T12:26:38.243Z</time></trkpt><trkpt lat="44.3171745" lon="10.7154423"><ele>779.0</ele><time>2026-05-02T12:26:39.238Z</time></trkpt><trkpt lat="44.3171008" lon="10.7153112"><ele>777.0</ele><time>2026-05-02T12:26:40.246Z</time></trkpt><trkpt lat="44.3170158" lon="10.7151749"><ele>777.0</ele><time>2026-05-02T12:26:41.222Z</time></trkpt><trkpt lat="44.3169199" lon="10.7150376"><ele>777.0</ele><time>2026-05-02T12:26:42.273Z</time></trkpt><trkpt lat="44.3168218" lon="10.7149176"><ele>777.0</ele><time>2026-05-02T12:26:43.242Z</time></trkpt><trkpt lat="44.3167163" lon="10.7147994"><ele>777.0</ele><time>2026-05-02T12:26:44.248Z</time></trkpt><trkpt lat="44.3166134" lon="10.7146813"><ele>777.0</ele><time>2026-05-02T12:26:45.299Z</time></trkpt><trkpt lat="44.3165163" lon="10.7145666"><ele>777.0</ele><time>2026-05-02T12:26:46.24Z</time></trkpt><trkpt lat="44.3164163" lon="10.7144398"><ele>777.0</ele><time>2026-05-02T12:26:47.231Z</time></trkpt><trkpt lat="44.3163181" lon="10.7143019"><ele>777.0</ele><time>2026-05-02T12:26:48.243Z</time></trkpt><trkpt lat="44.3162143" lon="10.7141596"><ele>776.25</ele><time>2026-05-02T12:26:49.233Z</time></trkpt><trkpt lat="44.31611" lon="10.714019"><ele>775.5</ele><time>2026-05-02T12:26:50.242Z</time></trkpt><trkpt lat="44.3160102" lon="10.7138898"><ele>774.75</ele><time>2026-05-02T12:26:51.234Z</time></trkpt><trkpt lat="44.3159111" lon="10.7137602"><ele>774.0</ele><time>2026-05-02T12:26:52.226Z</time></trkpt><trkpt lat="44.3158175" lon="10.7136383"><ele>774.0</ele><time>2026-05-02T12:26:53.227Z</time></trkpt><trkpt lat="44.3157141" lon="10.7134908"><ele>774.0</ele><time>2026-05-02T12:26:54.221Z</time></trkpt><trkpt lat="44.3156098" lon="10.7133454"><ele>774.0</ele><time>2026-05-02T12:26:55.225Z</time></trkpt><trkpt lat="44.31551" lon="10.7132085"><ele>774.0</ele><time>2026-05-02T12:26:56.244Z</time></trkpt><trkpt lat="44.3154167" lon="10.7130812"><ele>774.0</ele><time>2026-05-02T12:26:57.283Z</time></trkpt><trkpt lat="44.3153237" lon="10.7129618"><ele>774.0</ele><time>2026-05-02T12:26:58.22Z</time></trkpt><trkpt lat="44.3152453" lon="10.7128276"><ele>774.0</ele><time>2026-05-02T12:26:59.256Z</time></trkpt><trkpt lat="44.315171" lon="10.7126813"><ele>774.0</ele><time>2026-05-02T12:27:00.301Z</time></trkpt><trkpt lat="44.3150908" lon="10.7125444"><ele>775.5</ele><time>2026-05-02T12:27:01.242Z</time></trkpt><trkpt lat="44.315001" lon="10.7124356"><ele>777.0</ele><time>2026-05-02T12:27:02.268Z</time></trkpt><trkpt lat="44.3148995" lon="10.7123543"><ele>778.5</ele><time>2026-05-02T12:27:03.266Z</time></trkpt><trkpt lat="44.3147792" lon="10.7122902"><ele>780.0</ele><time>2026-05-02T12:27:04.249Z</time></trkpt><trkpt lat="44.3146483" lon="10.7122337"><ele>780.0</ele><time>2026-05-02T12:27:05.238Z</time></trkpt><trkpt lat="44.3145151" lon="10.7121784"><ele>780.0</ele><time>2026-05-02T12:27:06.25Z</time></trkpt><trkpt lat="44.3143857" lon="10.7121213"><ele>780.0</ele><time>2026-05-02T12:27:07.244Z</time></trkpt><trkpt lat="44.3142629" lon="10.7120718"><ele>780.0</ele><time>2026-05-02T12:27:08.237Z</time></trkpt><trkpt lat="44.3141455" lon="10.712039"><ele>780.0</ele><time>2026-05-02T12:27:09.296Z</time></trkpt><trkpt lat="44.3140355" lon="10.7120255"><ele>780.0</ele><time>2026-05-02T12:27:10.235Z</time></trkpt><trkpt lat="44.3139273" lon="10.7120376"><ele>780.0</ele><time>2026-05-02T12:27:11.251Z</time></trkpt><trkpt lat="44.3138219" lon="10.7120856"><ele>780.0</ele><time>2026-05-02T12:27:12.225Z</time></trkpt><trkpt lat="44.3137245" lon="10.7121696"><ele>780.0</ele><time>2026-05-02T12:27:13.236Z</time></trkpt><trkpt lat="44.3136357" lon="10.7122831"><ele>779.75</ele><time>2026-05-02T12:27:14.289Z</time></trkpt><trkpt lat="44.3135494" lon="10.7123951"><ele>779.5</ele><time>2026-05-02T12:27:15.264Z</time></trkpt><trkpt lat="44.3134538" lon="10.7124819"><ele>779.25</ele><time>2026-05-02T12:27:16.249Z</time></trkpt><trkpt lat="44.31334" lon="10.7125417"><ele>779.0</ele><time>2026-05-02T12:27:17.267Z</time></trkpt><trkpt lat="44.3132278" lon="10.7125974"><ele>779.0</ele><time>2026-05-02T12:27:18.25Z</time></trkpt><trkpt lat="44.3131017" lon="10.712617"><ele>779.0</ele><time>2026-05-02T12:27:19.255Z</time></trkpt><trkpt lat="44.3129767" lon="10.712623"><ele>779.0</ele><time>2026-05-02T12:27:20.235Z</time></trkpt><trkpt lat="44.3128556" lon="10.7126183"><ele>779.0</ele><time>2026-05-02T12:27:21.257Z</time></trkpt><trkpt lat="44.312742" lon="10.7126003"><ele>779.75</ele><time>2026-05-02T12:27:22.269Z</time></trkpt><trkpt lat="44.3126319" lon="10.7125699"><ele>780.5</ele><time>2026-05-02T12:27:23.245Z</time></trkpt><trkpt lat="44.3125187" lon="10.7125216"><ele>781.25</ele><time>2026-05-02T12:27:24.252Z</time></trkpt><trkpt lat="44.3124005" lon="10.7124634"><ele>782.0</ele><time>2026-05-02T12:27:25.261Z</time></trkpt><trkpt lat="44.3122869" lon="10.7124102"><ele>782.6</ele><time>2026-05-02T12:27:26.257Z</time></trkpt><trkpt lat="44.312174" lon="10.7123704"><ele>783.2</ele><time>2026-05-02T12:27:27.254Z</time></trkpt><trkpt lat="44.3120609" lon="10.7123479"><ele>783.8</ele><time>2026-05-02T12:27:28.238Z</time></trkpt><trkpt lat="44.3119513" lon="10.7123537"><ele>784.4</ele><time>2026-05-02T12:27:29.236Z</time></trkpt><trkpt lat="44.3118522" lon="10.7124"><ele>785.0</ele><time>2026-05-02T12:27:30.261Z</time></trkpt><trkpt lat="44.3117619" lon="10.712477"><ele>785.0</ele><time>2026-05-02T12:27:31.265Z</time></trkpt><trkpt lat="44.3116745" lon="10.7125716"><ele>785.0</ele><time>2026-05-02T12:27:32.224Z</time></trkpt><trkpt lat="44.3115818" lon="10.7126645"><ele>785.0</ele><time>2026-05-02T12:27:33.233Z</time></trkpt><trkpt lat="44.3114845" lon="10.7127502"><ele>785.0</ele><time>2026-05-02T12:27:34.259Z</time></trkpt><trkpt lat="44.311391" lon="10.7128336"><ele>783.8</ele><time>2026-05-02T12:27:35.231Z</time></trkpt><trkpt lat="44.3113057" lon="10.7129229"><ele>782.6</ele><time>2026-05-02T12:27:36.261Z</time></trkpt><trkpt lat="44.3112307" lon="10.7130203"><ele>781.4000000000001</ele><time>2026-05-02T12:27:37.238Z</time></trkpt><trkpt lat="44.311165" lon="10.7131269"><ele>780.2</ele><time>2026-05-02T12:27:38.28Z</time></trkpt><trkpt lat="44.3111009" lon="10.7132462"><ele>779.0</ele><time>2026-05-02T12:27:39.257Z</time></trkpt><trkpt lat="44.31104" lon="10.7133682"><ele>779.0</ele><time>2026-05-02T12:27:40.238Z</time></trkpt><trkpt lat="44.3109885" lon="10.71349"><ele>779.0</ele><time>2026-05-02T12:27:41.247Z</time></trkpt><trkpt lat="44.3109525" lon="10.7136151"><ele>779.0</ele><time>2026-05-02T12:27:42.251Z</time></trkpt><trkpt lat="44.3109296" lon="10.7137465"><ele>779.0</ele><time>2026-05-02T12:27:43.236Z</time></trkpt><trkpt lat="44.3109133" lon="10.713882"><ele>779.0</ele><time>2026-05-02T12:27:44.243Z</time></trkpt><trkpt lat="44.3108971" lon="10.7140118"><ele>778.2</ele><time>2026-05-02T12:27:45.255Z</time></trkpt><trkpt lat="44.3108817" lon="10.7141403"><ele>777.4000000000001</ele><time>2026-05-02T12:27:46.229Z</time></trkpt><trkpt lat="44.3108676" lon="10.7142779"><ele>776.6</ele><time>2026-05-02T12:27:47.238Z</time></trkpt><trkpt lat="44.3108529" lon="10.7144189"><ele>775.8</ele><time>2026-05-02T12:27:48.278Z</time></trkpt><trkpt lat="44.3108353" lon="10.7145504"><ele>775.0</ele><time>2026-05-02T12:27:49.276Z</time></trkpt><trkpt lat="44.3108142" lon="10.7146633"><ele>773.6666666666666</ele><time>2026-05-02T12:27:50.244Z</time></trkpt><trkpt lat="44.3107861" lon="10.7147495"><ele>772.3333333333333</ele><time>2026-05-02T12:27:51.263Z</time></trkpt><trkpt lat="44.310698" lon="10.714861"><ele>771.0</ele><time>2026-05-02T12:27:53.262Z</time></trkpt><trkpt lat="44.3106255" lon="10.7148344"><ele>769.6666666666666</ele><time>2026-05-02T12:27:54.26Z</time></trkpt><trkpt lat="44.3105476" lon="10.7147764"><ele>768.3333333333333</ele><time>2026-05-02T12:27:55.285Z</time></trkpt><trkpt lat="44.3104769" lon="10.714707"><ele>767.0</ele><time>2026-05-02T12:27:56.253Z</time></trkpt><trkpt lat="44.3104255" lon="10.714613"><ele>766.8</ele><time>2026-05-02T12:27:57.195Z</time></trkpt><trkpt lat="44.3103734" lon="10.7144953"><ele>766.6</ele><time>2026-05-02T12:27:58.248Z</time></trkpt><trkpt lat="44.3103243" lon="10.7143676"><ele>766.4</ele><time>2026-05-02T12:27:59.266Z</time></trkpt><trkpt lat="44.3102912" lon="10.7142332"><ele>766.1999999999999</ele><time>2026-05-02T12:28:00.261Z</time></trkpt><trkpt lat="44.3102742" lon="10.7140801"><ele>766.0</ele><time>2026-05-02T12:28:01.21Z</time></trkpt><trkpt lat="44.3102808" lon="10.713925"><ele>766.0</ele><time>2026-05-02T12:28:02.265Z</time></trkpt><trkpt lat="44.3102885" lon="10.7137591"><ele>766.0</ele><time>2026-05-02T12:28:03.26Z</time></trkpt><trkpt lat="44.310308" lon="10.7135897"><ele>766.0</ele><time>2026-05-02T12:28:04.246Z</time></trkpt><trkpt lat="44.3103307" lon="10.7134292"><ele>766.0</ele><time>2026-05-02T12:28:05.277Z</time></trkpt><trkpt lat="44.3103507" lon="10.7132785"><ele>766.0</ele><time>2026-05-02T12:28:06.28Z</time></trkpt><trkpt lat="44.3103578" lon="10.7131268"><ele>766.0</ele><time>2026-05-02T12:28:07.244Z</time></trkpt><trkpt lat="44.3103352" lon="10.7129815"><ele>766.0</ele><time>2026-05-02T12:28:08.246Z</time></trkpt><trkpt lat="44.3102893" lon="10.7128546"><ele>766.0</ele><time>2026-05-02T12:28:09.243Z</time></trkpt><trkpt lat="44.3102226" lon="10.7127479"><ele>766.0</ele><time>2026-05-02T12:28:10.255Z</time></trkpt><trkpt lat="44.310136" lon="10.7126553"><ele>765.4</ele><time>2026-05-02T12:28:11.244Z</time></trkpt><trkpt lat="44.3100444" lon="10.712585"><ele>764.8</ele><time>2026-05-02T12:28:12.238Z</time></trkpt><trkpt lat="44.3099512" lon="10.712528"><ele>764.1999999999999</ele><time>2026-05-02T12:28:13.286Z</time></trkpt><trkpt lat="44.3098697" lon="10.7124938"><ele>763.5999999999999</ele><time>2026-05-02T12:28:14.254Z</time></trkpt><trkpt lat="44.3097535" lon="10.7124808"><ele>763.0</ele><time>2026-05-02T12:28:16.251Z</time></trkpt><trkpt lat="44.3096762" lon="10.7125121"><ele>763.0</ele><time>2026-05-02T12:28:18.249Z</time></trkpt><trkpt lat="44.3096063" lon="10.7125824"><ele>763.0</ele><time>2026-05-02T12:28:21.214Z</time></trkpt><trkpt lat="44.3095104" lon="10.7125722"><ele>763.0</ele><time>2026-05-02T12:30:26.249Z</time></trkpt><trkpt lat="44.3094035" lon="10.7125604"><ele>763.0</ele><time>2026-05-02T12:30:28.239Z</time></trkpt><trkpt lat="44.3093286" lon="10.7125472"><ele>763.0</ele><time>2026-05-02T12:30:29.262Z</time></trkpt><trkpt lat="44.3092455" lon="10.7125427"><ele>763.0</ele><time>2026-05-02T12:30:30.234Z</time></trkpt><trkpt lat="44.3091535" lon="10.7125324"><ele>763.0</ele><time>2026-05-02T12:30:31.245Z</time></trkpt><trkpt lat="44.3090626" lon="10.712521"><ele>763.0</ele><time>2026-05-02T12:30:32.25Z</time></trkpt><trkpt lat="44.3089636" lon="10.7124852"><ele>763.0</ele><time>2026-05-02T12:30:33.231Z</time></trkpt><trkpt lat="44.3088682" lon="10.7124355"><ele>763.0</ele><time>2026-05-02T12:30:34.25Z</time></trkpt><trkpt lat="44.308775" lon="10.7123839"><ele>763.0</ele><time>2026-05-02T12:30:35.26Z</time></trkpt><trkpt lat="44.3086828" lon="10.7123356"><ele>761.2</ele><time>2026-05-02T12:30:36.255Z</time></trkpt><trkpt lat="44.3085893" lon="10.7122961"><ele>759.4</ele><time>2026-05-02T12:30:37.244Z</time></trkpt><trkpt lat="44.3084942" lon="10.7122666"><ele>757.6</ele><time>2026-05-02T12:30:38.288Z</time></trkpt><trkpt lat="44.3083935" lon="10.712244"><ele>755.8000000000001</ele><time>2026-05-02T12:30:39.214Z</time></trkpt><trkpt lat="44.3082927" lon="10.7122222"><ele>754.0</ele><time>2026-05-02T12:30:40.25Z</time></trkpt><trkpt lat="44.3081961" lon="10.7121921"><ele>754.0</ele><time>2026-05-02T12:30:41.255Z</time></trkpt><trkpt lat="44.3081013" lon="10.7121504"><ele>754.0</ele><time>2026-05-02T12:30:42.224Z</time></trkpt><trkpt lat="44.3080074" lon="10.7120995"><ele>754.0</ele><time>2026-05-02T12:30:43.242Z</time></trkpt><trkpt lat="44.3079183" lon="10.7120404"><ele>754.0</ele><time>2026-05-02T12:30:44.252Z</time></trkpt><trkpt lat="44.3078323" lon="10.7119673"><ele>754.0</ele><time>2026-05-02T12:30:45.232Z</time></trkpt><trkpt lat="44.3077457" lon="10.7118768"><ele>753.25</ele><time>2026-05-02T12:30:46.25Z</time></trkpt><trkpt lat="44.3076544" lon="10.7117747"><ele>752.5</ele><time>2026-05-02T12:30:47.218Z</time></trkpt><trkpt lat="44.3075651" lon="10.7116673"><ele>751.75</ele><time>2026-05-02T12:30:48.228Z</time></trkpt><trkpt lat="44.3074797" lon="10.7115557"><ele>751.0</ele><time>2026-05-02T12:30:49.235Z</time></trkpt><trkpt lat="44.3074" lon="10.7114406"><ele>751.0</ele><time>2026-05-02T12:30:50.264Z</time></trkpt><trkpt lat="44.3073237" lon="10.711324"><ele>751.0</ele><time>2026-05-02T12:30:51.258Z</time></trkpt><trkpt lat="44.3072457" lon="10.7112102"><ele>751.0</ele><time>2026-05-02T12:30:52.227Z</time></trkpt><trkpt lat="44.307166" lon="10.7111029"><ele>751.0</ele><time>2026-05-02T12:30:53.251Z</time></trkpt><trkpt lat="44.3070806" lon="10.7110086"><ele>751.0</ele><time>2026-05-02T12:30:54.256Z</time></trkpt><trkpt lat="44.3069878" lon="10.7109361"><ele>750.8</ele><time>2026-05-02T12:30:55.235Z</time></trkpt><trkpt lat="44.3068872" lon="10.7108974"><ele>750.5999999999999</ele><time>2026-05-02T12:30:56.248Z</time></trkpt><trkpt lat="44.3067824" lon="10.7108929"><ele>750.4</ele><time>2026-05-02T12:30:57.232Z</time></trkpt><trkpt lat="44.3066822" lon="10.7109112"><ele>750.2</ele><time>2026-05-02T12:30:58.252Z</time></trkpt><trkpt lat="44.3065783" lon="10.7109442"><ele>750.0</ele><time>2026-05-02T12:30:59.239Z</time></trkpt><trkpt lat="44.3064733" lon="10.7109767"><ele>748.6</ele><time>2026-05-02T12:31:00.302Z</time></trkpt><trkpt lat="44.3063655" lon="10.7109989"><ele>747.2</ele><time>2026-05-02T12:31:01.249Z</time></trkpt><trkpt lat="44.3062563" lon="10.7110054"><ele>745.8</ele><time>2026-05-02T12:31:02.239Z</time></trkpt><trkpt lat="44.3061485" lon="10.7109888"><ele>744.4</ele><time>2026-05-02T12:31:03.243Z</time></trkpt><trkpt lat="44.3060433" lon="10.7109518"><ele>743.0</ele><time>2026-05-02T12:31:04.262Z</time></trkpt><trkpt lat="44.3059414" lon="10.710892"><ele>743.0</ele><time>2026-05-02T12:31:05.245Z</time></trkpt><trkpt lat="44.3058453" lon="10.7108073"><ele>743.0</ele><time>2026-05-02T12:31:06.199Z</time></trkpt><trkpt lat="44.30575" lon="10.7106988"><ele>743.0</ele><time>2026-05-02T12:31:07.234Z</time></trkpt><trkpt lat="44.3056579" lon="10.7105846"><ele>743.0</ele><time>2026-05-02T12:31:08.223Z</time></trkpt><trkpt lat="44.3055675" lon="10.7104738"><ele>743.5</ele><time>2026-05-02T12:31:09.21Z</time></trkpt><trkpt lat="44.3054785" lon="10.7103665"><ele>744.0</ele><time>2026-05-02T12:31:10.203Z</time></trkpt><trkpt lat="44.3053914" lon="10.7102614"><ele>744.5</ele><time>2026-05-02T12:31:11.195Z</time></trkpt><trkpt lat="44.3053054" lon="10.7101595"><ele>745.0</ele><time>2026-05-02T12:31:12.204Z</time></trkpt><trkpt lat="44.3052157" lon="10.710074"><ele>745.0</ele><time>2026-05-02T12:31:13.188Z</time></trkpt><trkpt lat="44.30512" lon="10.7100126"><ele>745.0</ele><time>2026-05-02T12:31:14.192Z</time></trkpt><trkpt lat="44.3050221" lon="10.7099738"><ele>745.0</ele><time>2026-05-02T12:31:15.217Z</time></trkpt><trkpt lat="44.3049277" lon="10.7099411"><ele>745.0</ele><time>2026-05-02T12:31:16.188Z</time></trkpt><trkpt lat="44.3048289" lon="10.7099629"><ele>745.0</ele><time>2026-05-02T12:31:17.193Z</time></trkpt><trkpt lat="44.3047323" lon="10.7100155"><ele>744.5</ele><time>2026-05-02T12:31:18.206Z</time></trkpt><trkpt lat="44.3046421" lon="10.7101024"><ele>744.0</ele><time>2026-05-02T12:31:19.209Z</time></trkpt><trkpt lat="44.304563" lon="10.710221"><ele>743.5</ele><time>2026-05-02T12:31:20.205Z</time></trkpt><trkpt lat="44.3044889" lon="10.7103627"><ele>743.0</ele><time>2026-05-02T12:31:21.208Z</time></trkpt><trkpt lat="44.3044145" lon="10.7105009"><ele>742.0</ele><time>2026-05-02T12:31:22.323Z</time></trkpt><trkpt lat="44.3042811" lon="10.7107766"><ele>741.0</ele><time>2026-05-02T12:31:24.22Z</time></trkpt><trkpt lat="44.3042437" lon="10.7108927"><ele>740.0</ele><time>2026-05-02T12:31:25.21Z</time></trkpt><trkpt lat="44.3042388" lon="10.710997"><ele>739.0</ele><time>2026-05-02T12:31:26.232Z</time></trkpt><trkpt lat="44.3042651" lon="10.7111004"><ele>741.2</ele><time>2026-05-02T12:31:27.198Z</time></trkpt><trkpt lat="44.30432" lon="10.7111997"><ele>743.4000000000001</ele><time>2026-05-02T12:31:28.215Z</time></trkpt><trkpt lat="44.3044054" lon="10.711286"><ele>745.6</ele><time>2026-05-02T12:31:29.214Z</time></trkpt><trkpt lat="44.3045068" lon="10.71136"><ele>747.8</ele><time>2026-05-02T12:31:30.247Z</time></trkpt><trkpt lat="44.3046075" lon="10.7114299"><ele>750.0</ele><time>2026-05-02T12:31:31.23Z</time></trkpt><trkpt lat="44.3046914" lon="10.7115104"><ele>749.25</ele><time>2026-05-02T12:31:32.223Z</time></trkpt><trkpt lat="44.3047551" lon="10.7116168"><ele>748.5</ele><time>2026-05-02T12:31:33.253Z</time></trkpt><trkpt lat="44.3048038" lon="10.7117527"><ele>747.75</ele><time>2026-05-02T12:31:34.225Z</time></trkpt><trkpt lat="44.3048553" lon="10.7119077"><ele>747.0</ele><time>2026-05-02T12:31:35.23Z</time></trkpt><trkpt lat="44.304919" lon="10.7120731"><ele>747.0</ele><time>2026-05-02T12:31:36.27Z</time></trkpt><trkpt lat="44.305003" lon="10.7122418"><ele>747.0</ele><time>2026-05-02T12:31:37.262Z</time></trkpt><trkpt lat="44.3050956" lon="10.7123993"><ele>747.0</ele><time>2026-05-02T12:31:38.254Z</time></trkpt><trkpt lat="44.3051925" lon="10.712545"><ele>747.0</ele><time>2026-05-02T12:31:39.253Z</time></trkpt><trkpt lat="44.3052844" lon="10.7126804"><ele>747.6</ele><time>2026-05-02T12:31:40.259Z</time></trkpt><trkpt lat="44.3053665" lon="10.7128096"><ele>748.2</ele><time>2026-05-02T12:31:41.251Z</time></trkpt><trkpt lat="44.3054349" lon="10.712934"><ele>748.8</ele><time>2026-05-02T12:31:42.233Z</time></trkpt><trkpt lat="44.3054816" lon="10.7130595"><ele>749.4</ele><time>2026-05-02T12:31:43.228Z</time></trkpt><trkpt lat="44.3055056" lon="10.7131902"><ele>750.0</ele><time>2026-05-02T12:31:44.227Z</time></trkpt><trkpt lat="44.3055049" lon="10.7133318"><ele>750.0</ele><time>2026-05-02T12:31:45.238Z</time></trkpt><trkpt lat="44.3054808" lon="10.7134882"><ele>750.0</ele><time>2026-05-02T12:31:46.216Z</time></trkpt><trkpt lat="44.3054411" lon="10.7136571"><ele>750.0</ele><time>2026-05-02T12:31:47.266Z</time></trkpt><trkpt lat="44.305402" lon="10.7138402"><ele>750.0</ele><time>2026-05-02T12:31:48.28Z</time></trkpt><trkpt lat="44.305378" lon="10.7140225"><ele>750.75</ele><time>2026-05-02T12:31:49.249Z</time></trkpt><trkpt lat="44.3053727" lon="10.7142062"><ele>751.5</ele><time>2026-05-02T12:31:50.254Z</time></trkpt><trkpt lat="44.3053832" lon="10.7143933"><ele>752.25</ele><time>2026-05-02T12:31:51.256Z</time></trkpt><trkpt lat="44.3054075" lon="10.7145824"><ele>753.0</ele><time>2026-05-02T12:31:52.266Z</time></trkpt><trkpt lat="44.3054478" lon="10.7147725"><ele>753.25</ele><time>2026-05-02T12:31:53.246Z</time></trkpt><trkpt lat="44.3054889" lon="10.7149656"><ele>753.5</ele><time>2026-05-02T12:31:54.249Z</time></trkpt><trkpt lat="44.305545" lon="10.7151613"><ele>753.75</ele><time>2026-05-02T12:31:55.227Z</time></trkpt><trkpt lat="44.3056013" lon="10.7153564"><ele>754.0</ele><time>2026-05-02T12:31:56.253Z</time></trkpt><trkpt lat="44.3056641" lon="10.7155369"><ele>754.0</ele><time>2026-05-02T12:31:57.252Z</time></trkpt><trkpt lat="44.30574" lon="10.7157003"><ele>754.0</ele><time>2026-05-02T12:31:58.251Z</time></trkpt><trkpt lat="44.305829" lon="10.7158504"><ele>754.0</ele><time>2026-05-02T12:31:59.255Z</time></trkpt><trkpt lat="44.3059158" lon="10.7159819"><ele>754.0</ele><time>2026-05-02T12:32:00.22Z</time></trkpt><trkpt lat="44.3059973" lon="10.716104"><ele>756.8000000000001</ele><time>2026-05-02T12:32:01.251Z</time></trkpt><trkpt lat="44.3060734" lon="10.7162181"><ele>759.6</ele><time>2026-05-02T12:32:02.251Z</time></trkpt><trkpt lat="44.3061441" lon="10.7163222"><ele>762.4</ele><time>2026-05-02T12:32:03.246Z</time></trkpt><trkpt lat="44.3062093" lon="10.7164281"><ele>765.2</ele><time>2026-05-02T12:32:04.224Z</time></trkpt><trkpt lat="44.3062625" lon="10.7165422"><ele>768.0</ele><time>2026-05-02T12:32:05.245Z</time></trkpt><trkpt lat="44.3062989" lon="10.7166702"><ele>768.0</ele><time>2026-05-02T12:32:06.236Z</time></trkpt><trkpt lat="44.3063087" lon="10.7168056"><ele>768.0</ele><time>2026-05-02T12:32:07.259Z</time></trkpt><trkpt lat="44.3062901" lon="10.7169352"><ele>768.0</ele><time>2026-05-02T12:32:08.245Z</time></trkpt><trkpt lat="44.3062425" lon="10.7170633"><ele>768.0</ele><time>2026-05-02T12:32:09.234Z</time></trkpt><trkpt lat="44.3061761" lon="10.717188"><ele>768.0</ele><time>2026-05-02T12:32:10.21Z</time></trkpt><trkpt lat="44.306105" lon="10.7173162"><ele>768.75</ele><time>2026-05-02T12:32:11.215Z</time></trkpt><trkpt lat="44.3060404" lon="10.7174507"><ele>769.5</ele><time>2026-05-02T12:32:12.235Z</time></trkpt><trkpt lat="44.3059885" lon="10.7175921"><ele>770.25</ele><time>2026-05-02T12:32:13.226Z</time></trkpt><trkpt lat="44.305948" lon="10.7177459"><ele>771.0</ele><time>2026-05-02T12:32:14.242Z</time></trkpt><trkpt lat="44.3059071" lon="10.7179055"><ele>771.0</ele><time>2026-05-02T12:32:15.251Z</time></trkpt><trkpt lat="44.3058892" lon="10.7180817"><ele>771.0</ele><time>2026-05-02T12:32:16.239Z</time></trkpt><trkpt lat="44.3058829" lon="10.7182591"><ele>771.0</ele><time>2026-05-02T12:32:17.26Z</time></trkpt><trkpt lat="44.3058898" lon="10.7184241"><ele>771.0</ele><time>2026-05-02T12:32:18.244Z</time></trkpt><trkpt lat="44.3059061" lon="10.7185777"><ele>773.0</ele><time>2026-05-02T12:32:19.257Z</time></trkpt><trkpt lat="44.3059366" lon="10.718739"><ele>775.0</ele><time>2026-05-02T12:32:20.247Z</time></trkpt><trkpt lat="44.3059884" lon="10.7189041"><ele>777.0</ele><time>2026-05-02T12:32:21.248Z</time></trkpt><trkpt lat="44.3060493" lon="10.7190698"><ele>779.0</ele><time>2026-05-02T12:32:22.231Z</time></trkpt><trkpt lat="44.3061061" lon="10.7192245"><ele>779.0</ele><time>2026-05-02T12:32:23.221Z</time></trkpt><trkpt lat="44.3061666" lon="10.7193622"><ele>779.0</ele><time>2026-05-02T12:32:24.248Z</time></trkpt><trkpt lat="44.3062396" lon="10.7194723"><ele>779.0</ele><time>2026-05-02T12:32:25.218Z</time></trkpt><trkpt lat="44.3063284" lon="10.7195562"><ele>779.0</ele><time>2026-05-02T12:32:26.227Z</time></trkpt><trkpt lat="44.3064176" lon="10.7196237"><ele>779.0</ele><time>2026-05-02T12:32:27.254Z</time></trkpt><trkpt lat="44.3064972" lon="10.7196989"><ele>779.6</ele><time>2026-05-02T12:32:28.25Z</time></trkpt><trkpt lat="44.3065538" lon="10.7197925"><ele>780.2</ele><time>2026-05-02T12:32:29.236Z</time></trkpt><trkpt lat="44.3065794" lon="10.7199074"><ele>780.8000000000001</ele><time>2026-05-02T12:32:30.253Z</time></trkpt><trkpt lat="44.3065735" lon="10.7200437"><ele>781.4000000000001</ele><time>2026-05-02T12:32:31.241Z</time></trkpt><trkpt lat="44.306545" lon="10.7201936"><ele>782.0</ele><time>2026-05-02T12:32:32.263Z</time></trkpt><trkpt lat="44.3065077" lon="10.7203541"><ele>782.0</ele><time>2026-05-02T12:32:33.258Z</time></trkpt><trkpt lat="44.3064788" lon="10.7205103"><ele>782.0</ele><time>2026-05-02T12:32:34.251Z</time></trkpt><trkpt lat="44.3064684" lon="10.7206577"><ele>782.0</ele><time>2026-05-02T12:32:35.284Z</time></trkpt><trkpt lat="44.3064602" lon="10.720788"><ele>782.0</ele><time>2026-05-02T12:32:36.241Z</time></trkpt><trkpt lat="44.3065066" lon="10.7208854"><ele>782.0</ele><time>2026-05-02T12:32:37.231Z</time></trkpt><trkpt lat="44.3065485" lon="10.7209692"><ele>782.0</ele><time>2026-05-02T12:32:38.244Z</time></trkpt><trkpt lat="44.3066301" lon="10.7210122"><ele>782.0</ele><time>2026-05-02T12:32:39.249Z</time></trkpt><trkpt lat="44.3067305" lon="10.7210285"><ele>782.0</ele><time>2026-05-02T12:32:40.234Z</time></trkpt><trkpt lat="44.3068295" lon="10.7210755"><ele>782.0</ele><time>2026-05-02T12:32:41.232Z</time></trkpt><trkpt lat="44.3069093" lon="10.7211438"><ele>782.0</ele><time>2026-05-02T12:32:42.24Z</time></trkpt><trkpt lat="44.3069617" lon="10.7212613"><ele>784.4000000000001</ele><time>2026-05-02T12:32:43.262Z</time></trkpt><trkpt lat="44.3069889" lon="10.7213824"><ele>786.8000000000001</ele><time>2026-05-02T12:32:44.265Z</time></trkpt><trkpt lat="44.3070101" lon="10.7215216"><ele>789.2</ele><time>2026-05-02T12:32:45.239Z</time></trkpt><trkpt lat="44.3070468" lon="10.721662"><ele>791.6</ele><time>2026-05-02T12:32:46.251Z</time></trkpt><trkpt lat="44.307107" lon="10.7217843"><ele>794.0</ele><time>2026-05-02T12:32:47.239Z</time></trkpt><trkpt lat="44.3071865" lon="10.7218997"><ele>791.25</ele><time>2026-05-02T12:32:48.236Z</time></trkpt><trkpt lat="44.307274" lon="10.7220187"><ele>788.5</ele><time>2026-05-02T12:32:49.233Z</time></trkpt><trkpt lat="44.3073451" lon="10.7221468"><ele>785.75</ele><time>2026-05-02T12:32:50.208Z</time></trkpt><trkpt lat="44.3073979" lon="10.7222866"><ele>783.0</ele><time>2026-05-02T12:32:51.229Z</time></trkpt><trkpt lat="44.3074529" lon="10.7224249"><ele>783.0</ele><time>2026-05-02T12:32:52.225Z</time></trkpt><trkpt lat="44.3074803" lon="10.7225864"><ele>783.0</ele><time>2026-05-02T12:32:53.234Z</time></trkpt><trkpt lat="44.307503" lon="10.7227651"><ele>783.0</ele><time>2026-05-02T12:32:54.233Z</time></trkpt><trkpt lat="44.3075196" lon="10.7229514"><ele>783.0</ele><time>2026-05-02T12:32:55.244Z</time></trkpt><trkpt lat="44.3075325" lon="10.7231512"><ele>784.5</ele><time>2026-05-02T12:32:56.233Z</time></trkpt><trkpt lat="44.3075471" lon="10.7233678"><ele>786.0</ele><time>2026-05-02T12:32:57.255Z</time></trkpt><trkpt lat="44.3075651" lon="10.7235701"><ele>787.5</ele><time>2026-05-02T12:32:58.293Z</time></trkpt><trkpt lat="44.3075891" lon="10.7237616"><ele>789.0</ele><time>2026-05-02T12:32:59.249Z</time></trkpt><trkpt lat="44.3076208" lon="10.7239461"><ele>792.5</ele><time>2026-05-02T12:33:00.276Z</time></trkpt><trkpt lat="44.3076622" lon="10.724123"><ele>796.0</ele><time>2026-05-02T12:33:01.263Z</time></trkpt><trkpt lat="44.3077079" lon="10.7242888"><ele>799.5</ele><time>2026-05-02T12:33:02.228Z</time></trkpt><trkpt lat="44.3077536" lon="10.7244479"><ele>803.0</ele><time>2026-05-02T12:33:03.258Z</time></trkpt><trkpt lat="44.3077952" lon="10.7245993"><ele>804.0</ele><time>2026-05-02T12:33:04.233Z</time></trkpt><trkpt lat="44.3078219" lon="10.7247449"><ele>805.0</ele><time>2026-05-02T12:33:05.248Z</time></trkpt><trkpt lat="44.3078268" lon="10.7248851"><ele>806.0</ele><time>2026-05-02T12:33:06.243Z</time></trkpt><trkpt lat="44.3078054" lon="10.7250182"><ele>807.0</ele><time>2026-05-02T12:33:07.252Z</time></trkpt><trkpt lat="44.307758" lon="10.7251447"><ele>808.0</ele><time>2026-05-02T12:33:08.248Z</time></trkpt><trkpt lat="44.3076945" lon="10.7252739"><ele>805.25</ele><time>2026-05-02T12:33:09.255Z</time></trkpt><trkpt lat="44.3076233" lon="10.7254114"><ele>802.5</ele><time>2026-05-02T12:33:10.243Z</time></trkpt><trkpt lat="44.3075535" lon="10.7255553"><ele>799.75</ele><time>2026-05-02T12:33:11.206Z</time></trkpt><trkpt lat="44.3074907" lon="10.7256978"><ele>797.0</ele><time>2026-05-02T12:33:12.261Z</time></trkpt><trkpt lat="44.3074297" lon="10.7258385"><ele>797.0</ele><time>2026-05-02T12:33:13.255Z</time></trkpt><trkpt lat="44.3073749" lon="10.72598"><ele>797.0</ele><time>2026-05-02T12:33:14.242Z</time></trkpt><trkpt lat="44.3073347" lon="10.7261269"><ele>797.0</ele><time>2026-05-02T12:33:15.263Z</time></trkpt><trkpt lat="44.3073122" lon="10.7262827"><ele>797.0</ele><time>2026-05-02T12:33:16.256Z</time></trkpt><trkpt lat="44.3073021" lon="10.7264478"><ele>796.0</ele><time>2026-05-02T12:33:17.225Z</time></trkpt><trkpt lat="44.3072961" lon="10.7266161"><ele>795.0</ele><time>2026-05-02T12:33:18.261Z</time></trkpt><trkpt lat="44.3072949" lon="10.7267829"><ele>794.0</ele><time>2026-05-02T12:33:19.246Z</time></trkpt><trkpt lat="44.307303" lon="10.726945"><ele>793.0</ele><time>2026-05-02T12:33:20.252Z</time></trkpt><trkpt lat="44.3073285" lon="10.7271031"><ele>795.25</ele><time>2026-05-02T12:33:21.223Z</time></trkpt><trkpt lat="44.3073772" lon="10.7272653"><ele>797.5</ele><time>2026-05-02T12:33:22.231Z</time></trkpt><trkpt lat="44.3074447" lon="10.7274355"><ele>799.75</ele><time>2026-05-02T12:33:23.25Z</time></trkpt><trkpt lat="44.3075188" lon="10.7276071"><ele>802.0</ele><time>2026-05-02T12:33:24.231Z</time></trkpt><trkpt lat="44.3075946" lon="10.7277619"><ele>805.25</ele><time>2026-05-02T12:33:25.255Z</time></trkpt><trkpt lat="44.3076723" lon="10.7278983"><ele>808.5</ele><time>2026-05-02T12:33:26.242Z</time></trkpt><trkpt lat="44.3077426" lon="10.7280264"><ele>811.75</ele><time>2026-05-02T12:33:27.298Z</time></trkpt><trkpt lat="44.3077923" lon="10.7281578"><ele>815.0</ele><time>2026-05-02T12:33:28.246Z</time></trkpt><trkpt lat="44.3078173" lon="10.7282974"><ele>815.0</ele><time>2026-05-02T12:33:29.265Z</time></trkpt><trkpt lat="44.3078305" lon="10.7284513"><ele>815.0</ele><time>2026-05-02T12:33:30.247Z</time></trkpt><trkpt lat="44.307841" lon="10.728615"><ele>815.0</ele><time>2026-05-02T12:33:31.224Z</time></trkpt><trkpt lat="44.3078534" lon="10.7287881"><ele>815.0</ele><time>2026-05-02T12:33:32.189Z</time></trkpt><trkpt lat="44.3078705" lon="10.7289573"><ele>813.8</ele><time>2026-05-02T12:33:33.229Z</time></trkpt><trkpt lat="44.3078925" lon="10.7291152"><ele>812.6</ele><time>2026-05-02T12:33:34.183Z</time></trkpt><trkpt lat="44.3079234" lon="10.7292594"><ele>811.4000000000001</ele><time>2026-05-02T12:33:35.195Z</time></trkpt><trkpt lat="44.307968" lon="10.7293861"><ele>810.2</ele><time>2026-05-02T12:33:36.203Z</time></trkpt><trkpt lat="44.3080265" lon="10.7294998"><ele>809.0</ele><time>2026-05-02T12:33:37.203Z</time></trkpt><trkpt lat="44.3080942" lon="10.7296044"><ele>809.0</ele><time>2026-05-02T12:33:38.234Z</time></trkpt><trkpt lat="44.3081579" lon="10.7297044"><ele>809.0</ele><time>2026-05-02T12:33:39.245Z</time></trkpt><trkpt lat="44.3082108" lon="10.729816"><ele>809.0</ele><time>2026-05-02T12:33:40.243Z</time></trkpt><trkpt lat="44.3082573" lon="10.7299412"><ele>809.0</ele><time>2026-05-02T12:33:41.208Z</time></trkpt><trkpt lat="44.3083002" lon="10.7300673"><ele>809.0</ele><time>2026-05-02T12:33:42.242Z</time></trkpt><trkpt lat="44.3083464" lon="10.7301863"><ele>810.4000000000001</ele><time>2026-05-02T12:33:43.227Z</time></trkpt><trkpt lat="44.3083985" lon="10.7302991"><ele>811.8</ele><time>2026-05-02T12:33:44.233Z</time></trkpt><trkpt lat="44.3084509" lon="10.7304139"><ele>813.2</ele><time>2026-05-02T12:33:45.225Z</time></trkpt><trkpt lat="44.3085042" lon="10.7305373"><ele>814.5999999999999</ele><time>2026-05-02T12:33:46.257Z</time></trkpt><trkpt lat="44.3085594" lon="10.7306622"><ele>816.0</ele><time>2026-05-02T12:33:47.262Z</time></trkpt><trkpt lat="44.308615" lon="10.7307915"><ele>816.0</ele><time>2026-05-02T12:33:48.237Z</time></trkpt><trkpt lat="44.3086694" lon="10.7309213"><ele>816.0</ele><time>2026-05-02T12:33:49.242Z</time></trkpt><trkpt lat="44.3087208" lon="10.7310395"><ele>816.0</ele><time>2026-05-02T12:33:50.231Z</time></trkpt><trkpt lat="44.3087674" lon="10.731143"><ele>816.0</ele><time>2026-05-02T12:33:51.243Z</time></trkpt><trkpt lat="44.3088137" lon="10.7312207"><ele>816.0</ele><time>2026-05-02T12:33:52.241Z</time></trkpt><trkpt lat="44.3088795" lon="10.7312679"><ele>816.0</ele><time>2026-05-02T12:33:53.236Z</time></trkpt><trkpt lat="44.3089477" lon="10.7313047"><ele>814.5999999999999</ele><time>2026-05-02T12:33:54.257Z</time></trkpt><trkpt lat="44.3090089" lon="10.7313341"><ele>813.2</ele><time>2026-05-02T12:33:55.246Z</time></trkpt><trkpt lat="44.3091232" lon="10.731391"><ele>811.8</ele><time>2026-05-02T12:33:57.286Z</time></trkpt><trkpt lat="44.3092072" lon="10.731521"><ele>810.4000000000001</ele><time>2026-05-02T12:33:59.248Z</time></trkpt><trkpt lat="44.309217" lon="10.7316183"><ele>809.0</ele><time>2026-05-02T12:34:00.228Z</time></trkpt><trkpt lat="44.3092009" lon="10.7317227"><ele>809.0000000000001</ele><time>2026-05-02T12:34:01.25Z</time></trkpt><trkpt lat="44.3091649" lon="10.7318248"><ele>809.0</ele><time>2026-05-02T12:34:02.233Z</time></trkpt><trkpt lat="44.30912" lon="10.7319344"><ele>809.0</ele><time>2026-05-02T12:34:03.299Z</time></trkpt><trkpt lat="44.3090736" lon="10.7320465"><ele>809.0</ele><time>2026-05-02T12:34:04.244Z</time></trkpt><trkpt lat="44.3090231" lon="10.7321485"><ele>809.0000000000001</ele><time>2026-05-02T12:34:05.241Z</time></trkpt><trkpt lat="44.3089744" lon="10.7322499"><ele>809.0</ele><time>2026-05-02T12:34:06.245Z</time></trkpt><trkpt lat="44.3089318" lon="10.7323524"><ele>815.75</ele><time>2026-05-02T12:34:07.255Z</time></trkpt><trkpt lat="44.3088952" lon="10.732475"><ele>822.5</ele><time>2026-05-02T12:34:08.243Z</time></trkpt><trkpt lat="44.3088619" lon="10.7326294"><ele>829.25</ele><time>2026-05-02T12:34:09.224Z</time></trkpt><trkpt lat="44.3088383" lon="10.732818"><ele>836.0</ele><time>2026-05-02T12:34:10.249Z</time></trkpt><trkpt lat="44.3088307" lon="10.7330121"><ele>836.0</ele><time>2026-05-02T12:34:11.225Z</time></trkpt><trkpt lat="44.3088308" lon="10.7332014"><ele>836.0</ele><time>2026-05-02T12:34:12.222Z</time></trkpt><trkpt lat="44.3088345" lon="10.7333761"><ele>836.0</ele><time>2026-05-02T12:34:13.252Z</time></trkpt><trkpt lat="44.3088373" lon="10.7335505"><ele>836.0</ele><time>2026-05-02T12:34:14.285Z</time></trkpt><trkpt lat="44.3088394" lon="10.7337195"><ele>836.0</ele><time>2026-05-02T12:34:15.261Z</time></trkpt><trkpt lat="44.3088426" lon="10.7338878"><ele>836.0</ele><time>2026-05-02T12:34:16.249Z</time></trkpt><trkpt lat="44.3088274" lon="10.7340424"><ele>836.0</ele><time>2026-05-02T12:34:17.25Z</time></trkpt><trkpt lat="44.3087976" lon="10.734194"><ele>836.0</ele><time>2026-05-02T12:34:18.226Z</time></trkpt><trkpt lat="44.308757" lon="10.7343487"><ele>836.5999999999999</ele><time>2026-05-02T12:34:19.235Z</time></trkpt><trkpt lat="44.3087099" lon="10.7345025"><ele>837.2</ele><time>2026-05-02T12:34:20.245Z</time></trkpt><trkpt lat="44.3086633" lon="10.7346479"><ele>837.8</ele><time>2026-05-02T12:34:21.217Z</time></trkpt><trkpt lat="44.3086293" lon="10.7347859"><ele>838.4000000000001</ele><time>2026-05-02T12:34:22.22Z</time></trkpt><trkpt lat="44.3086172" lon="10.7349316"><ele>839.0</ele><time>2026-05-02T12:34:23.247Z</time></trkpt><trkpt lat="44.3086219" lon="10.7350924"><ele>839.6</ele><time>2026-05-02T12:34:24.279Z</time></trkpt><trkpt lat="44.3086411" lon="10.7352558"><ele>840.2</ele><time>2026-05-02T12:34:25.233Z</time></trkpt><trkpt lat="44.308667" lon="10.7354146"><ele>840.8000000000001</ele><time>2026-05-02T12:34:26.272Z</time></trkpt><trkpt lat="44.3086908" lon="10.7355605"><ele>841.4000000000001</ele><time>2026-05-02T12:34:27.237Z</time></trkpt><trkpt lat="44.3087135" lon="10.7356987"><ele>842.0</ele><time>2026-05-02T12:34:28.264Z</time></trkpt><trkpt lat="44.3087361" lon="10.7358367"><ele>842.0000000000001</ele><time>2026-05-02T12:34:29.262Z</time></trkpt><trkpt lat="44.3087576" lon="10.7359645"><ele>842.0</ele><time>2026-05-02T12:34:30.244Z</time></trkpt><trkpt lat="44.308777" lon="10.7360809"><ele>842.0</ele><time>2026-05-02T12:34:31.259Z</time></trkpt><trkpt lat="44.3087899" lon="10.7361884"><ele>842.0</ele><time>2026-05-02T12:34:32.22Z</time></trkpt><trkpt lat="44.3087842" lon="10.7362873"><ele>842.0000000000001</ele><time>2026-05-02T12:34:33.228Z</time></trkpt><trkpt lat="44.3087268" lon="10.7364131"><ele>842.0</ele><time>2026-05-02T12:34:35.24Z</time></trkpt><trkpt lat="44.3086224" lon="10.7363445"><ele>842.0</ele><time>2026-05-02T12:34:37.263Z</time></trkpt><trkpt lat="44.308591" lon="10.7362465"><ele>842.0</ele><time>2026-05-02T12:34:38.246Z</time></trkpt><trkpt lat="44.3085645" lon="10.7361147"><ele>842.0</ele><time>2026-05-02T12:34:39.255Z</time></trkpt><trkpt lat="44.3085407" lon="10.7359771"><ele>842.0</ele><time>2026-05-02T12:34:40.255Z</time></trkpt><trkpt lat="44.3085149" lon="10.7358254"><ele>842.0</ele><time>2026-05-02T12:34:41.25Z</time></trkpt><trkpt lat="44.3084882" lon="10.735673"><ele>842.0</ele><time>2026-05-02T12:34:42.255Z</time></trkpt><trkpt lat="44.3084525" lon="10.7355014"><ele>842.0</ele><time>2026-05-02T12:34:43.311Z</time></trkpt><trkpt lat="44.3084156" lon="10.7353322"><ele>842.0</ele><time>2026-05-02T12:34:44.213Z</time></trkpt><trkpt lat="44.3083767" lon="10.7351653"><ele>842.0</ele><time>2026-05-02T12:34:45.25Z</time></trkpt><trkpt lat="44.3083368" lon="10.7349994"><ele>841.25</ele><time>2026-05-02T12:34:46.228Z</time></trkpt><trkpt lat="44.308289" lon="10.7348439"><ele>840.5</ele><time>2026-05-02T12:34:47.222Z</time></trkpt><trkpt lat="44.3082385" lon="10.7346847"><ele>839.75</ele><time>2026-05-02T12:34:48.24Z</time></trkpt><trkpt lat="44.3081937" lon="10.734534"><ele>839.0</ele><time>2026-05-02T12:34:49.222Z</time></trkpt><trkpt lat="44.3081492" lon="10.7343809"><ele>838.25</ele><time>2026-05-02T12:34:50.271Z</time></trkpt><trkpt lat="44.3081224" lon="10.7342263"><ele>837.5</ele><time>2026-05-02T12:34:51.255Z</time></trkpt><trkpt lat="44.3081081" lon="10.7340678"><ele>836.75</ele><time>2026-05-02T12:34:52.253Z</time></trkpt><trkpt lat="44.3081117" lon="10.7339012"><ele>836.0</ele><time>2026-05-02T12:34:53.252Z</time></trkpt><trkpt lat="44.3081222" lon="10.7337285"><ele>836.0</ele><time>2026-05-02T12:34:54.242Z</time></trkpt><trkpt lat="44.3081366" lon="10.7335722"><ele>836.0</ele><time>2026-05-02T12:34:55.226Z</time></trkpt><trkpt lat="44.3081373" lon="10.7334036"><ele>836.0</ele><time>2026-05-02T12:34:56.237Z</time></trkpt><trkpt lat="44.3081364" lon="10.733244"><ele>836.0</ele><time>2026-05-02T12:34:57.26Z</time></trkpt><trkpt lat="44.3081368" lon="10.7330919"><ele>836.0</ele><time>2026-05-02T12:34:58.235Z</time></trkpt><trkpt lat="44.3081685" lon="10.7329496"><ele>836.0</ele><time>2026-05-02T12:34:59.234Z</time></trkpt><trkpt lat="44.3082078" lon="10.7328094"><ele>836.0</ele><time>2026-05-02T12:35:00.287Z</time></trkpt><trkpt lat="44.3082332" lon="10.7326758"><ele>836.0</ele><time>2026-05-02T12:35:01.25Z</time></trkpt><trkpt lat="44.3082308" lon="10.7325529"><ele>836.0</ele><time>2026-05-02T12:35:02.281Z</time></trkpt><trkpt lat="44.3081955" lon="10.7324372"><ele>836.0</ele><time>2026-05-02T12:35:03.248Z</time></trkpt><trkpt lat="44.3081331" lon="10.7323383"><ele>836.0</ele><time>2026-05-02T12:35:04.216Z</time></trkpt><trkpt lat="44.3080489" lon="10.7322567"><ele>836.0</ele><time>2026-05-02T12:35:05.26Z</time></trkpt><trkpt lat="44.3079581" lon="10.7321836"><ele>836.0</ele><time>2026-05-02T12:35:06.293Z</time></trkpt><trkpt lat="44.3078699" lon="10.7321139"><ele>836.0</ele><time>2026-05-02T12:35:07.245Z</time></trkpt><trkpt lat="44.3077879" lon="10.7320495"><ele>837.1666666666667</ele><time>2026-05-02T12:35:08.267Z</time></trkpt><trkpt lat="44.3077111" lon="10.731996"><ele>838.3333333333334</ele><time>2026-05-02T12:35:09.282Z</time></trkpt><trkpt lat="44.3076384" lon="10.7319466"><ele>839.5</ele><time>2026-05-02T12:35:10.269Z</time></trkpt><trkpt lat="44.3075743" lon="10.7319047"><ele>840.6666666666667</ele><time>2026-05-02T12:35:11.242Z</time></trkpt><trkpt lat="44.3075144" lon="10.7318751"><ele>841.8333333333334</ele><time>2026-05-02T12:35:12.273Z</time></trkpt><trkpt lat="44.3074097" lon="10.7318465"><ele>843.0</ele><time>2026-05-02T12:35:14.253Z</time></trkpt><trkpt lat="44.307338" lon="10.7318653"><ele>844.0</ele><time>2026-05-02T12:35:22.27Z</time></trkpt><trkpt lat="44.3072844" lon="10.7319303"><ele>845.0</ele><time>2026-05-02T12:35:29.254Z</time></trkpt><trkpt lat="44.3073047" lon="10.7320703"><ele>846.0</ele><time>2026-05-02T12:35:31.242Z</time></trkpt><trkpt lat="44.3073497" lon="10.7322303"><ele>847.0</ele><time>2026-05-02T12:35:33.239Z</time></trkpt><trkpt lat="44.3073947" lon="10.7323776"><ele>848.0</ele><time>2026-05-02T12:35:35.267Z</time></trkpt><trkpt lat="44.3074314" lon="10.7324953"><ele>848.0</ele><time>2026-05-02T12:35:37.255Z</time></trkpt><trkpt lat="44.307449" lon="10.7325877"><ele>848.0</ele><time>2026-05-02T12:35:40.291Z</time></trkpt><trkpt lat="44.3075021" lon="10.732648"><ele>848.0</ele><time>2026-05-02T12:36:13.265Z</time></trkpt><trkpt lat="44.3075006" lon="10.7327395"><ele>848.0</ele><time>2026-05-02T12:44:11.275Z</time></trkpt><trkpt lat="44.3075166" lon="10.7326406"><ele>848.0</ele><time>2026-05-02T12:47:03.265Z</time></trkpt><trkpt lat="44.3074832" lon="10.7325318"><ele>848.0</ele><time>2026-05-02T12:47:04.257Z</time></trkpt><trkpt lat="44.3074452" lon="10.7324398"><ele>848.0</ele><time>2026-05-02T12:47:05.253Z</time></trkpt><trkpt lat="44.3073901" lon="10.7323085"><ele>848.0</ele><time>2026-05-02T12:47:07.216Z</time></trkpt><trkpt lat="44.3073626" lon="10.7322114"><ele>848.0</ele><time>2026-05-02T12:47:10.26Z</time></trkpt><trkpt lat="44.3073261" lon="10.7321357"><ele>848.0</ele><time>2026-05-02T12:47:20.251Z</time></trkpt><trkpt lat="44.3072623" lon="10.7320902"><ele>848.0</ele><time>2026-05-02T12:48:32.207Z</time></trkpt><trkpt lat="44.3072372" lon="10.731998"><ele>848.0</ele><time>2026-05-02T12:49:05.237Z</time></trkpt><trkpt lat="44.3072002" lon="10.7319041"><ele>848.0</ele><time>2026-05-02T12:49:11.263Z</time></trkpt><trkpt lat="44.3071676" lon="10.7318147"><ele>848.0</ele><time>2026-05-02T12:49:17.269Z</time></trkpt><trkpt lat="44.3071459" lon="10.7317311"><ele>848.0</ele><time>2026-05-02T12:49:27.267Z</time></trkpt><trkpt lat="44.3071386" lon="10.7316409"><ele>848.0</ele><time>2026-05-02T12:49:43.275Z</time></trkpt><trkpt lat="44.3070986" lon="10.7315463"><ele>848.0</ele><time>2026-05-02T12:49:57.243Z</time></trkpt><trkpt lat="44.3071141" lon="10.7316324"><ele>848.0</ele><time>2026-05-02T12:50:15.254Z</time></trkpt><trkpt lat="44.3071661" lon="10.7317001"><ele>848.0</ele><time>2026-05-02T12:51:57.348Z</time></trkpt><trkpt lat="44.3072049" lon="10.7317858"><ele>848.0</ele><time>2026-05-02T12:52:04.306Z</time></trkpt><trkpt lat="44.3072338" lon="10.731872"><ele>848.0</ele><time>2026-05-02T12:52:11.233Z</time></trkpt><trkpt lat="44.3072517" lon="10.7319591"><ele>848.0</ele><time>2026-05-02T12:52:18.279Z</time></trkpt><trkpt lat="44.3072146" lon="10.732031"><ele>848.0</ele><time>2026-05-02T12:54:33.332Z</time></trkpt><trkpt lat="44.3072673" lon="10.7320822"><ele>848.0</ele><time>2026-05-02T12:55:15.332Z</time></trkpt><trkpt lat="44.3073461" lon="10.7322725"><ele>848.0</ele><time>2026-05-02T12:55:17.247Z</time></trkpt><trkpt lat="44.3074098" lon="10.7324178"><ele>848.0</ele><time>2026-05-02T12:55:18.264Z</time></trkpt><trkpt lat="44.307468" lon="10.7325455"><ele>848.0000000000001</ele><time>2026-05-02T12:55:19.235Z</time></trkpt><trkpt lat="44.3075191" lon="10.7326571"><ele>848.0</ele><time>2026-05-02T12:55:20.244Z</time></trkpt><trkpt lat="44.3075648" lon="10.7327603"><ele>848.0</ele><time>2026-05-02T12:55:21.248Z</time></trkpt><trkpt lat="44.3076058" lon="10.7328568"><ele>848.0</ele><time>2026-05-02T12:55:22.229Z</time></trkpt><trkpt lat="44.3076465" lon="10.7329586"><ele>848.0000000000001</ele><time>2026-05-02T12:55:23.254Z</time></trkpt><trkpt lat="44.3076854" lon="10.7330639"><ele>848.0</ele><time>2026-05-02T12:55:24.26Z</time></trkpt><trkpt lat="44.3077189" lon="10.7331721"><ele>847.5000000000001</ele><time>2026-05-02T12:55:25.23Z</time></trkpt><trkpt lat="44.3077446" lon="10.7332818"><ele>847.0</ele><time>2026-05-02T12:55:26.248Z</time></trkpt><trkpt lat="44.3077619" lon="10.733389"><ele>846.5</ele><time>2026-05-02T12:55:27.231Z</time></trkpt><trkpt lat="44.3077727" lon="10.7335015"><ele>846.0</ele><time>2026-05-02T12:55:28.247Z</time></trkpt><trkpt lat="44.3077782" lon="10.7336219"><ele>845.5000000000001</ele><time>2026-05-02T12:55:29.232Z</time></trkpt><trkpt lat="44.3077808" lon="10.7337527"><ele>845.0</ele><time>2026-05-02T12:55:30.23Z</time></trkpt><trkpt lat="44.3077833" lon="10.7338804"><ele>844.8</ele><time>2026-05-02T12:55:31.237Z</time></trkpt><trkpt lat="44.3077869" lon="10.7340043"><ele>844.6</ele><time>2026-05-02T12:55:32.27Z</time></trkpt><trkpt lat="44.307792" lon="10.7341337"><ele>844.4000000000001</ele><time>2026-05-02T12:55:33.274Z</time></trkpt><trkpt lat="44.3077992" lon="10.7342692"><ele>844.2</ele><time>2026-05-02T12:55:34.248Z</time></trkpt><trkpt lat="44.3078086" lon="10.7344144"><ele>844.0</ele><time>2026-05-02T12:55:35.264Z</time></trkpt><trkpt lat="44.3078167" lon="10.7345695"><ele>844.6</ele><time>2026-05-02T12:55:36.294Z</time></trkpt><trkpt lat="44.3078228" lon="10.7347238"><ele>845.2</ele><time>2026-05-02T12:55:37.285Z</time></trkpt><trkpt lat="44.3078278" lon="10.7348707"><ele>845.8000000000001</ele><time>2026-05-02T12:55:38.267Z</time></trkpt><trkpt lat="44.3078321" lon="10.7350137"><ele>846.4000000000001</ele><time>2026-05-02T12:55:39.26Z</time></trkpt><trkpt lat="44.3078368" lon="10.73516"><ele>847.0</ele><time>2026-05-02T12:55:40.243Z</time></trkpt><trkpt lat="44.3078425" lon="10.7353121"><ele>847.4000000000001</ele><time>2026-05-02T12:55:41.251Z</time></trkpt><trkpt lat="44.307851" lon="10.73546"><ele>847.8000000000001</ele><time>2026-05-02T12:55:42.228Z</time></trkpt><trkpt lat="44.3078616" lon="10.7356042"><ele>848.2</ele><time>2026-05-02T12:55:43.248Z</time></trkpt><trkpt lat="44.3078736" lon="10.7357455"><ele>848.6</ele><time>2026-05-02T12:55:44.237Z</time></trkpt><trkpt lat="44.3078867" lon="10.7358935"><ele>849.0</ele><time>2026-05-02T12:55:45.242Z</time></trkpt><trkpt lat="44.3079067" lon="10.736049"><ele>848.0</ele><time>2026-05-02T12:55:46.27Z</time></trkpt><trkpt lat="44.3079305" lon="10.7362068"><ele>847.0</ele><time>2026-05-02T12:55:47.322Z</time></trkpt><trkpt lat="44.3079568" lon="10.7363613"><ele>846.0</ele><time>2026-05-02T12:55:48.261Z</time></trkpt><trkpt lat="44.3079845" lon="10.7365206"><ele>845.0</ele><time>2026-05-02T12:55:49.224Z</time></trkpt><trkpt lat="44.3080128" lon="10.7366796"><ele>845.0</ele><time>2026-05-02T12:55:50.252Z</time></trkpt><trkpt lat="44.3080421" lon="10.7368308"><ele>845.0</ele><time>2026-05-02T12:55:51.266Z</time></trkpt><trkpt lat="44.3080709" lon="10.7369773"><ele>845.0</ele><time>2026-05-02T12:55:52.249Z</time></trkpt><trkpt lat="44.3081012" lon="10.7371223"><ele>845.0</ele><time>2026-05-02T12:55:53.305Z</time></trkpt><trkpt lat="44.30813" lon="10.7372631"><ele>845.0</ele><time>2026-05-02T12:55:54.263Z</time></trkpt><trkpt lat="44.3081623" lon="10.7374162"><ele>846.25</ele><time>2026-05-02T12:55:55.229Z</time></trkpt><trkpt lat="44.3081985" lon="10.7375801"><ele>847.5</ele><time>2026-05-02T12:55:56.267Z</time></trkpt><trkpt lat="44.3082363" lon="10.7377354"><ele>848.75</ele><time>2026-05-02T12:55:57.215Z</time></trkpt><trkpt lat="44.3082777" lon="10.7378908"><ele>850.0</ele><time>2026-05-02T12:55:58.216Z</time></trkpt><trkpt lat="44.3083254" lon="10.7380402"><ele>851.25</ele><time>2026-05-02T12:55:59.242Z</time></trkpt><trkpt lat="44.3083828" lon="10.7381831"><ele>852.5</ele><time>2026-05-02T12:56:00.258Z</time></trkpt><trkpt lat="44.3084528" lon="10.7383163"><ele>853.75</ele><time>2026-05-02T12:56:01.253Z</time></trkpt><trkpt lat="44.3085299" lon="10.7384597"><ele>855.0</ele><time>2026-05-02T12:56:02.266Z</time></trkpt><trkpt lat="44.3086114" lon="10.7386039"><ele>855.75</ele><time>2026-05-02T12:56:03.258Z</time></trkpt><trkpt lat="44.3086861" lon="10.7387391"><ele>856.5</ele><time>2026-05-02T12:56:04.264Z</time></trkpt><trkpt lat="44.3087583" lon="10.738871"><ele>857.25</ele><time>2026-05-02T12:56:05.258Z</time></trkpt><trkpt lat="44.3088179" lon="10.7389987"><ele>858.0</ele><time>2026-05-02T12:56:06.242Z</time></trkpt><trkpt lat="44.308872" lon="10.7391272"><ele>858.5999999999999</ele><time>2026-05-02T12:56:07.214Z</time></trkpt><trkpt lat="44.30892" lon="10.7392554"><ele>859.1999999999999</ele><time>2026-05-02T12:56:08.249Z</time></trkpt><trkpt lat="44.3089607" lon="10.7393778"><ele>859.8</ele><time>2026-05-02T12:56:09.266Z</time></trkpt><trkpt lat="44.3089934" lon="10.7394985"><ele>860.4</ele><time>2026-05-02T12:56:10.239Z</time></trkpt><trkpt lat="44.3090235" lon="10.7396167"><ele>861.0</ele><time>2026-05-02T12:56:11.229Z</time></trkpt><trkpt lat="44.3090494" lon="10.7397273"><ele>861.6666666666666</ele><time>2026-05-02T12:56:12.256Z</time></trkpt><trkpt lat="44.3090758" lon="10.7398382"><ele>862.3333333333333</ele><time>2026-05-02T12:56:13.265Z</time></trkpt><trkpt lat="44.3091029" lon="10.7399563"><ele>863.0</ele><time>2026-05-02T12:56:14.246Z</time></trkpt><trkpt lat="44.3091307" lon="10.7400745"><ele>863.6666666666666</ele><time>2026-05-02T12:56:15.239Z</time></trkpt><trkpt lat="44.3091575" lon="10.7401941"><ele>864.3333333333333</ele><time>2026-05-02T12:56:16.222Z</time></trkpt><trkpt lat="44.3091823" lon="10.7403151"><ele>865.0</ele><time>2026-05-02T12:56:17.221Z</time></trkpt><trkpt lat="44.3092062" lon="10.7404441"><ele>865.0</ele><time>2026-05-02T12:56:18.226Z</time></trkpt><trkpt lat="44.30923" lon="10.740578"><ele>865.0</ele><time>2026-05-02T12:56:19.241Z</time></trkpt><trkpt lat="44.3092641" lon="10.7406998"><ele>865.0</ele><time>2026-05-02T12:56:20.203Z</time></trkpt><trkpt lat="44.3093142" lon="10.7407978"><ele>865.0</ele><time>2026-05-02T12:56:21.245Z</time></trkpt><trkpt lat="44.3093811" lon="10.7408794"><ele>865.0</ele><time>2026-05-02T12:56:22.214Z</time></trkpt><trkpt lat="44.3094673" lon="10.7409407"><ele>865.0</ele><time>2026-05-02T12:56:23.222Z</time></trkpt><trkpt lat="44.3095713" lon="10.7409849"><ele>865.0</ele><time>2026-05-02T12:56:24.225Z</time></trkpt><trkpt lat="44.3096844" lon="10.7410139"><ele>865.0</ele><time>2026-05-02T12:56:25.246Z</time></trkpt><trkpt lat="44.3097971" lon="10.7410348"><ele>865.0</ele><time>2026-05-02T12:56:26.238Z</time></trkpt><trkpt lat="44.3099072" lon="10.7410549"><ele>865.0</ele><time>2026-05-02T12:56:27.244Z</time></trkpt><trkpt lat="44.3100121" lon="10.7410797"><ele>864.0</ele><time>2026-05-02T12:56:28.244Z</time></trkpt><trkpt lat="44.3101175" lon="10.7411106"><ele>863.0</ele><time>2026-05-02T12:56:29.23Z</time></trkpt><trkpt lat="44.3102195" lon="10.7411535"><ele>862.0</ele><time>2026-05-02T12:56:30.241Z</time></trkpt><trkpt lat="44.3103106" lon="10.741213"><ele>861.0</ele><time>2026-05-02T12:56:31.24Z</time></trkpt><trkpt lat="44.3103926" lon="10.7412961"><ele>860.0</ele><time>2026-05-02T12:56:32.216Z</time></trkpt><trkpt lat="44.3104701" lon="10.7414056"><ele>860.0</ele><time>2026-05-02T12:56:33.227Z</time></trkpt><trkpt lat="44.3105432" lon="10.7415357"><ele>860.0</ele><time>2026-05-02T12:56:34.288Z</time></trkpt><trkpt lat="44.3106095" lon="10.7416832"><ele>860.0</ele><time>2026-05-02T12:56:35.24Z</time></trkpt><trkpt lat="44.3106659" lon="10.741835"><ele>860.0</ele><time>2026-05-02T12:56:36.229Z</time></trkpt><trkpt lat="44.3107173" lon="10.7419845"><ele>863.0</ele><time>2026-05-02T12:56:37.225Z</time></trkpt><trkpt lat="44.3107686" lon="10.7421368"><ele>866.0</ele><time>2026-05-02T12:56:38.22Z</time></trkpt><trkpt lat="44.3108127" lon="10.7423046"><ele>869.0</ele><time>2026-05-02T12:56:39.21Z</time></trkpt><trkpt lat="44.31085" lon="10.7424735"><ele>872.0</ele><time>2026-05-02T12:56:40.233Z</time></trkpt><trkpt lat="44.3108831" lon="10.7426473"><ele>871.25</ele><time>2026-05-02T12:56:41.235Z</time></trkpt><trkpt lat="44.3109107" lon="10.7428121"><ele>870.5</ele><time>2026-05-02T12:56:42.226Z</time></trkpt><trkpt lat="44.3109347" lon="10.7429718"><ele>869.75</ele><time>2026-05-02T12:56:43.24Z</time></trkpt><trkpt lat="44.3109472" lon="10.7431344"><ele>869.0</ele><time>2026-05-02T12:56:44.223Z</time></trkpt><trkpt lat="44.3109424" lon="10.7433004"><ele>869.0</ele><time>2026-05-02T12:56:45.215Z</time></trkpt><trkpt lat="44.3109222" lon="10.7434703"><ele>869.0</ele><time>2026-05-02T12:56:46.223Z</time></trkpt><trkpt lat="44.3108949" lon="10.7436405"><ele>869.0</ele><time>2026-05-02T12:56:47.232Z</time></trkpt><trkpt lat="44.310868" lon="10.7438027"><ele>869.0</ele><time>2026-05-02T12:56:48.253Z</time></trkpt><trkpt lat="44.3108421" lon="10.7439549"><ele>869.0</ele><time>2026-05-02T12:56:49.185Z</time></trkpt><trkpt lat="44.3108145" lon="10.7441043"><ele>869.0</ele><time>2026-05-02T12:56:50.264Z</time></trkpt><trkpt lat="44.3107879" lon="10.7442576"><ele>869.0</ele><time>2026-05-02T12:56:51.282Z</time></trkpt><trkpt lat="44.3107689" lon="10.7444225"><ele>869.0</ele><time>2026-05-02T12:56:52.226Z</time></trkpt><trkpt lat="44.3107607" lon="10.7446"><ele>869.75</ele><time>2026-05-02T12:56:53.24Z</time></trkpt><trkpt lat="44.3107658" lon="10.7447857"><ele>870.5</ele><time>2026-05-02T12:56:54.255Z</time></trkpt><trkpt lat="44.3107739" lon="10.744973"><ele>871.25</ele><time>2026-05-02T12:56:55.234Z</time></trkpt><trkpt lat="44.3107755" lon="10.7451523"><ele>872.0</ele><time>2026-05-02T12:56:56.23Z</time></trkpt><trkpt lat="44.3107686" lon="10.7453222"><ele>873.0</ele><time>2026-05-02T12:56:57.229Z</time></trkpt><trkpt lat="44.3107522" lon="10.7454894"><ele>874.0</ele><time>2026-05-02T12:56:58.257Z</time></trkpt><trkpt lat="44.3107286" lon="10.7456635"><ele>875.0</ele><time>2026-05-02T12:56:59.243Z</time></trkpt><trkpt lat="44.3107013" lon="10.7458451"><ele>876.0</ele><time>2026-05-02T12:57:00.231Z</time></trkpt><trkpt lat="44.3106764" lon="10.7460284"><ele>875.25</ele><time>2026-05-02T12:57:01.197Z</time></trkpt><trkpt lat="44.3106552" lon="10.746205"><ele>874.5</ele><time>2026-05-02T12:57:02.282Z</time></trkpt><trkpt lat="44.3106363" lon="10.7463738"><ele>873.75</ele><time>2026-05-02T12:57:03.243Z</time></trkpt><trkpt lat="44.3106205" lon="10.7465373"><ele>873.0</ele><time>2026-05-02T12:57:04.202Z</time></trkpt><trkpt lat="44.3106146" lon="10.7466963"><ele>873.0</ele><time>2026-05-02T12:57:05.206Z</time></trkpt><trkpt lat="44.3106182" lon="10.7468555"><ele>873.0</ele><time>2026-05-02T12:57:06.179Z</time></trkpt><trkpt lat="44.3106232" lon="10.7470194"><ele>873.0</ele><time>2026-05-02T12:57:07.206Z</time></trkpt><trkpt lat="44.3106178" lon="10.7471851"><ele>873.0</ele><time>2026-05-02T12:57:08.201Z</time></trkpt><trkpt lat="44.3105988" lon="10.7473507"><ele>866.25</ele><time>2026-05-02T12:57:09.198Z</time></trkpt><trkpt lat="44.3105626" lon="10.7475125"><ele>859.5</ele><time>2026-05-02T12:57:10.213Z</time></trkpt><trkpt lat="44.3105088" lon="10.7476644"><ele>852.75</ele><time>2026-05-02T12:57:11.21Z</time></trkpt><trkpt lat="44.310441" lon="10.7478021"><ele>846.0</ele><time>2026-05-02T12:57:12.21Z</time></trkpt><trkpt lat="44.3103713" lon="10.7479368"><ele>845.8</ele><time>2026-05-02T12:57:13.187Z</time></trkpt><trkpt lat="44.3103121" lon="10.7480707"><ele>845.5999999999999</ele><time>2026-05-02T12:57:14.216Z</time></trkpt><trkpt lat="44.3102761" lon="10.7482034"><ele>845.4</ele><time>2026-05-02T12:57:15.243Z</time></trkpt><trkpt lat="44.3102728" lon="10.7483381"><ele>845.2</ele><time>2026-05-02T12:57:16.256Z</time></trkpt><trkpt lat="44.3102706" lon="10.7484702"><ele>845.0</ele><time>2026-05-02T12:57:17.249Z</time></trkpt><trkpt lat="44.3103306" lon="10.748588"><ele>845.8</ele><time>2026-05-02T12:57:18.25Z</time></trkpt><trkpt lat="44.3104052" lon="10.7486977"><ele>846.6</ele><time>2026-05-02T12:57:19.26Z</time></trkpt><trkpt lat="44.3104895" lon="10.7487953"><ele>847.4000000000001</ele><time>2026-05-02T12:57:20.254Z</time></trkpt><trkpt lat="44.3105829" lon="10.7488686"><ele>848.2</ele><time>2026-05-02T12:57:21.234Z</time></trkpt><trkpt lat="44.3106856" lon="10.7489078"><ele>849.0</ele><time>2026-05-02T12:57:22.246Z</time></trkpt><trkpt lat="44.3107972" lon="10.7489112"><ele>849.0</ele><time>2026-05-02T12:57:23.256Z</time></trkpt><trkpt lat="44.310911" lon="10.7488896"><ele>849.0</ele><time>2026-05-02T12:57:24.249Z</time></trkpt><trkpt lat="44.3110229" lon="10.74886"><ele>849.0</ele><time>2026-05-02T12:57:25.228Z</time></trkpt><trkpt lat="44.3111339" lon="10.7488315"><ele>849.0</ele><time>2026-05-02T12:57:26.269Z</time></trkpt><trkpt lat="44.3112363" lon="10.7488122"><ele>849.0</ele><time>2026-05-02T12:57:27.235Z</time></trkpt><trkpt lat="44.3113275" lon="10.7487987"><ele>849.0</ele><time>2026-05-02T12:57:28.234Z</time></trkpt><trkpt lat="44.3113939" lon="10.7488225"><ele>849.0</ele><time>2026-05-02T12:57:29.258Z</time></trkpt><trkpt lat="44.3114401" lon="10.7488836"><ele>849.0</ele><time>2026-05-02T12:57:30.289Z</time></trkpt><trkpt lat="44.3114251" lon="10.74906"><ele>849.0</ele><time>2026-05-02T12:57:32.237Z</time></trkpt><trkpt lat="44.3113667" lon="10.7491543"><ele>849.0</ele><time>2026-05-02T12:57:33.26Z</time></trkpt><trkpt lat="44.3112942" lon="10.7492575"><ele>847.75</ele><time>2026-05-02T12:57:34.261Z</time></trkpt><trkpt lat="44.3112156" lon="10.7493823"><ele>846.5</ele><time>2026-05-02T12:57:35.235Z</time></trkpt><trkpt lat="44.3111355" lon="10.7495224"><ele>845.25</ele><time>2026-05-02T12:57:36.237Z</time></trkpt><trkpt lat="44.3110677" lon="10.7496714"><ele>844.0</ele><time>2026-05-02T12:57:37.249Z</time></trkpt><trkpt lat="44.3110189" lon="10.7498307"><ele>844.0</ele><time>2026-05-02T12:57:38.246Z</time></trkpt><trkpt lat="44.3109896" lon="10.7499976"><ele>844.0</ele><time>2026-05-02T12:57:39.247Z</time></trkpt><trkpt lat="44.310974" lon="10.7501634"><ele>844.0</ele><time>2026-05-02T12:57:40.252Z</time></trkpt><trkpt lat="44.3109616" lon="10.7503208"><ele>844.0</ele><time>2026-05-02T12:57:41.251Z</time></trkpt><trkpt lat="44.3109337" lon="10.7504679"><ele>842.4000000000001</ele><time>2026-05-02T12:57:42.246Z</time></trkpt><trkpt lat="44.3108804" lon="10.7505994"><ele>840.8</ele><time>2026-05-02T12:57:43.228Z</time></trkpt><trkpt lat="44.3108003" lon="10.7507024"><ele>839.2</ele><time>2026-05-02T12:57:44.21Z</time></trkpt><trkpt lat="44.3107148" lon="10.750798"><ele>837.5999999999999</ele><time>2026-05-02T12:57:45.243Z</time></trkpt><trkpt lat="44.310644" lon="10.7509133"><ele>836.0</ele><time>2026-05-02T12:57:46.234Z</time></trkpt><trkpt lat="44.3105999" lon="10.7510492"><ele>835.0</ele><time>2026-05-02T12:57:47.221Z</time></trkpt><trkpt lat="44.3105822" lon="10.7511963"><ele>834.0</ele><time>2026-05-02T12:57:48.237Z</time></trkpt><trkpt lat="44.3105829" lon="10.7513446"><ele>833.0</ele><time>2026-05-02T12:57:49.215Z</time></trkpt><trkpt lat="44.3106043" lon="10.7514898"><ele>832.0</ele><time>2026-05-02T12:57:50.233Z</time></trkpt><trkpt lat="44.3106474" lon="10.7516273"><ele>831.0</ele><time>2026-05-02T12:57:51.237Z</time></trkpt><trkpt lat="44.3107118" lon="10.7517532"><ele>831.0</ele><time>2026-05-02T12:57:52.256Z</time></trkpt><trkpt lat="44.3107834" lon="10.7518701"><ele>831.0</ele><time>2026-05-02T12:57:53.225Z</time></trkpt><trkpt lat="44.3108541" lon="10.7519879"><ele>831.0</ele><time>2026-05-02T12:57:54.245Z</time></trkpt><trkpt lat="44.3109172" lon="10.752108"><ele>831.0</ele><time>2026-05-02T12:57:55.263Z</time></trkpt><trkpt lat="44.31097" lon="10.7522396"><ele>831.0</ele><time>2026-05-02T12:57:56.288Z</time></trkpt><trkpt lat="44.3110115" lon="10.7523836"><ele>831.25</ele><time>2026-05-02T12:57:57.243Z</time></trkpt><trkpt lat="44.3110383" lon="10.7525372"><ele>831.5</ele><time>2026-05-02T12:57:58.237Z</time></trkpt><trkpt lat="44.3110522" lon="10.7526978"><ele>831.75</ele><time>2026-05-02T12:57:59.238Z</time></trkpt><trkpt lat="44.3110619" lon="10.7528611"><ele>832.0</ele><time>2026-05-02T12:58:00.248Z</time></trkpt><trkpt lat="44.3110861" lon="10.7530193"><ele>832.0</ele><time>2026-05-02T12:58:01.22Z</time></trkpt><trkpt lat="44.3111334" lon="10.7531635"><ele>832.0</ele><time>2026-05-02T12:58:02.247Z</time></trkpt><trkpt lat="44.311207" lon="10.7532865"><ele>832.0</ele><time>2026-05-02T12:58:03.255Z</time></trkpt><trkpt lat="44.311298" lon="10.7533798"><ele>832.0</ele><time>2026-05-02T12:58:04.255Z</time></trkpt><trkpt lat="44.3113981" lon="10.7534469"><ele>829.0</ele><time>2026-05-02T12:58:05.26Z</time></trkpt><trkpt lat="44.3114977" lon="10.7535127"><ele>826.0</ele><time>2026-05-02T12:58:06.247Z</time></trkpt><trkpt lat="44.3115913" lon="10.7536"><ele>823.0</ele><time>2026-05-02T12:58:07.303Z</time></trkpt><trkpt lat="44.3116778" lon="10.753716"><ele>820.0</ele><time>2026-05-02T12:58:08.256Z</time></trkpt><trkpt lat="44.3117595" lon="10.7538559"><ele>820.0</ele><time>2026-05-02T12:58:09.268Z</time></trkpt><trkpt lat="44.3118459" lon="10.7540044"><ele>820.0</ele><time>2026-05-02T12:58:10.254Z</time></trkpt><trkpt lat="44.311944" lon="10.7541483"><ele>820.0</ele><time>2026-05-02T12:58:11.264Z</time></trkpt><trkpt lat="44.3120497" lon="10.7542821"><ele>820.0</ele><time>2026-05-02T12:58:12.27Z</time></trkpt><trkpt lat="44.3121559" lon="10.7544025"><ele>818.75</ele><time>2026-05-02T12:58:13.24Z</time></trkpt><trkpt lat="44.312259" lon="10.7545197"><ele>817.5</ele><time>2026-05-02T12:58:14.253Z</time></trkpt><trkpt lat="44.3123567" lon="10.7546467"><ele>816.25</ele><time>2026-05-02T12:58:15.243Z</time></trkpt><trkpt lat="44.3124455" lon="10.7547924"><ele>815.0</ele><time>2026-05-02T12:58:16.265Z</time></trkpt><trkpt lat="44.312528" lon="10.7549556"><ele>815.0</ele><time>2026-05-02T12:58:17.247Z</time></trkpt><trkpt lat="44.3126069" lon="10.7551255"><ele>815.0</ele><time>2026-05-02T12:58:18.226Z</time></trkpt><trkpt lat="44.3126849" lon="10.7552892"><ele>815.0</ele><time>2026-05-02T12:58:19.227Z</time></trkpt><trkpt lat="44.3127579" lon="10.7554466"><ele>815.0</ele><time>2026-05-02T12:58:20.263Z</time></trkpt><trkpt lat="44.3128195" lon="10.7555979"><ele>815.0</ele><time>2026-05-02T12:58:21.279Z</time></trkpt><trkpt lat="44.3128581" lon="10.7557496"><ele>815.0</ele><time>2026-05-02T12:58:22.226Z</time></trkpt><trkpt lat="44.3128652" lon="10.7559019"><ele>815.0</ele><time>2026-05-02T12:58:23.273Z</time></trkpt><trkpt lat="44.3128428" lon="10.756052"><ele>815.0</ele><time>2026-05-02T12:58:24.254Z</time></trkpt><trkpt lat="44.3127982" lon="10.7561979"><ele>815.0</ele><time>2026-05-02T12:58:25.215Z</time></trkpt><trkpt lat="44.3127364" lon="10.7563397"><ele>814.5</ele><time>2026-05-02T12:58:26.207Z</time></trkpt><trkpt lat="44.3126672" lon="10.7564838"><ele>814.0</ele><time>2026-05-02T12:58:27.243Z</time></trkpt><trkpt lat="44.3126032" lon="10.7566283"><ele>813.5</ele><time>2026-05-02T12:58:28.25Z</time></trkpt><trkpt lat="44.3125505" lon="10.7567776"><ele>813.0</ele><time>2026-05-02T12:58:29.255Z</time></trkpt><trkpt lat="44.3125155" lon="10.7569351"><ele>812.25</ele><time>2026-05-02T12:58:30.229Z</time></trkpt><trkpt lat="44.312504" lon="10.7570971"><ele>811.5</ele><time>2026-05-02T12:58:31.242Z</time></trkpt><trkpt lat="44.3125199" lon="10.7572545"><ele>810.75</ele><time>2026-05-02T12:58:32.245Z</time></trkpt><trkpt lat="44.3125613" lon="10.7573998"><ele>810.0</ele><time>2026-05-02T12:58:33.236Z</time></trkpt><trkpt lat="44.312622" lon="10.7575284"><ele>810.0</ele><time>2026-05-02T12:58:34.258Z</time></trkpt><trkpt lat="44.3126965" lon="10.7576461"><ele>810.0</ele><time>2026-05-02T12:58:35.221Z</time></trkpt><trkpt lat="44.3127761" lon="10.7577649"><ele>810.0</ele><time>2026-05-02T12:58:36.223Z</time></trkpt><trkpt lat="44.3128543" lon="10.7578811"><ele>810.0</ele><time>2026-05-02T12:58:37.238Z</time></trkpt><trkpt lat="44.3129294" lon="10.7580031"><ele>809.25</ele><time>2026-05-02T12:58:38.233Z</time></trkpt><trkpt lat="44.3130044" lon="10.7581253"><ele>808.5</ele><time>2026-05-02T12:58:39.241Z</time></trkpt><trkpt lat="44.3130805" lon="10.758247"><ele>807.75</ele><time>2026-05-02T12:58:40.236Z</time></trkpt><trkpt lat="44.3131514" lon="10.7583697"><ele>807.0</ele><time>2026-05-02T12:58:41.238Z</time></trkpt><trkpt lat="44.3132165" lon="10.758493"><ele>805.2</ele><time>2026-05-02T12:58:42.238Z</time></trkpt><trkpt lat="44.3132667" lon="10.7586135"><ele>803.4000000000001</ele><time>2026-05-02T12:58:43.204Z</time></trkpt><trkpt lat="44.3132925" lon="10.7587313"><ele>801.5999999999999</ele><time>2026-05-02T12:58:44.213Z</time></trkpt><trkpt lat="44.3132806" lon="10.7588505"><ele>799.8</ele><time>2026-05-02T12:58:45.25Z</time></trkpt><trkpt lat="44.3132312" lon="10.7589546"><ele>798.0</ele><time>2026-05-02T12:58:46.202Z</time></trkpt><trkpt lat="44.3131575" lon="10.759039"><ele>798.0</ele><time>2026-05-02T12:58:47.232Z</time></trkpt><trkpt lat="44.3130809" lon="10.7591203"><ele>798.0</ele><time>2026-05-02T12:58:48.266Z</time></trkpt><trkpt lat="44.3130174" lon="10.7592213"><ele>798.0</ele><time>2026-05-02T12:58:49.209Z</time></trkpt><trkpt lat="44.3129728" lon="10.7593475"><ele>798.0</ele><time>2026-05-02T12:58:50.244Z</time></trkpt><trkpt lat="44.3129487" lon="10.7594898"><ele>798.0</ele><time>2026-05-02T12:58:51.272Z</time></trkpt><trkpt lat="44.3129469" lon="10.7596378"><ele>797.0</ele><time>2026-05-02T12:58:52.242Z</time></trkpt><trkpt lat="44.3129648" lon="10.7597825"><ele>796.0</ele><time>2026-05-02T12:58:53.245Z</time></trkpt><trkpt lat="44.3130003" lon="10.7599196"><ele>795.0</ele><time>2026-05-02T12:58:54.198Z</time></trkpt><trkpt lat="44.3130513" lon="10.7600521"><ele>794.0</ele><time>2026-05-02T12:58:55.261Z</time></trkpt><trkpt lat="44.3131128" lon="10.7601794"><ele>793.0</ele><time>2026-05-02T12:58:56.271Z</time></trkpt><trkpt lat="44.3131814" lon="10.7602954"><ele>792.8</ele><time>2026-05-02T12:58:57.233Z</time></trkpt><trkpt lat="44.3132527" lon="10.7604042"><ele>792.5999999999999</ele><time>2026-05-02T12:58:58.258Z</time></trkpt><trkpt lat="44.3133097" lon="10.7605127"><ele>792.4000000000001</ele><time>2026-05-02T12:58:59.215Z</time></trkpt><trkpt lat="44.3133392" lon="10.7606226"><ele>792.2</ele><time>2026-05-02T12:59:00.237Z</time></trkpt><trkpt lat="44.3133344" lon="10.7607372"><ele>792.0</ele><time>2026-05-02T12:59:01.243Z</time></trkpt><trkpt lat="44.3132907" lon="10.7608385"><ele>792.0</ele><time>2026-05-02T12:59:02.219Z</time></trkpt><trkpt lat="44.3132187" lon="10.760924"><ele>792.0</ele><time>2026-05-02T12:59:03.241Z</time></trkpt><trkpt lat="44.3131362" lon="10.761012"><ele>792.0</ele><time>2026-05-02T12:59:04.243Z</time></trkpt><trkpt lat="44.3130594" lon="10.7611218"><ele>792.0</ele><time>2026-05-02T12:59:05.222Z</time></trkpt><trkpt lat="44.3129934" lon="10.7612491"><ele>792.0</ele><time>2026-05-02T12:59:06.239Z</time></trkpt><trkpt lat="44.3129291" lon="10.7613758"><ele>791.6</ele><time>2026-05-02T12:59:07.212Z</time></trkpt><trkpt lat="44.3128573" lon="10.7614908"><ele>791.2</ele><time>2026-05-02T12:59:08.249Z</time></trkpt><trkpt lat="44.3127727" lon="10.7615844"><ele>790.8</ele><time>2026-05-02T12:59:09.254Z</time></trkpt><trkpt lat="44.312679" lon="10.7616527"><ele>790.4</ele><time>2026-05-02T12:59:10.262Z</time></trkpt><trkpt lat="44.3125823" lon="10.7617075"><ele>790.0</ele><time>2026-05-02T12:59:11.227Z</time></trkpt><trkpt lat="44.3124901" lon="10.7617709"><ele>790.0</ele><time>2026-05-02T12:59:12.24Z</time></trkpt><trkpt lat="44.3124085" lon="10.7618563"><ele>790.0</ele><time>2026-05-02T12:59:13.224Z</time></trkpt><trkpt lat="44.3123423" lon="10.7619678"><ele>790.0</ele><time>2026-05-02T12:59:14.249Z</time></trkpt><trkpt lat="44.3122965" lon="10.7621"><ele>790.0</ele><time>2026-05-02T12:59:15.24Z</time></trkpt><trkpt lat="44.3122758" lon="10.762243"><ele>790.0</ele><time>2026-05-02T12:59:16.256Z</time></trkpt><trkpt lat="44.3122856" lon="10.762395"><ele>787.0</ele><time>2026-05-02T12:59:17.189Z</time></trkpt><trkpt lat="44.3123206" lon="10.7625501"><ele>784.0</ele><time>2026-05-02T12:59:18.234Z</time></trkpt><trkpt lat="44.3123739" lon="10.7626998"><ele>781.0</ele><time>2026-05-02T12:59:19.261Z</time></trkpt><trkpt lat="44.3124344" lon="10.7628427"><ele>778.0</ele><time>2026-05-02T12:59:20.273Z</time></trkpt><trkpt lat="44.3124894" lon="10.7629811"><ele>777.5999999999999</ele><time>2026-05-02T12:59:21.264Z</time></trkpt><trkpt lat="44.3125278" lon="10.7631208"><ele>777.1999999999999</ele><time>2026-05-02T12:59:22.228Z</time></trkpt><trkpt lat="44.3125343" lon="10.7632654"><ele>776.8</ele><time>2026-05-02T12:59:23.234Z</time></trkpt><trkpt lat="44.3125039" lon="10.7634071"><ele>776.4</ele><time>2026-05-02T12:59:24.268Z</time></trkpt><trkpt lat="44.3124727" lon="10.7635454"><ele>776.0</ele><time>2026-05-02T12:59:25.229Z</time></trkpt><trkpt lat="44.3124004" lon="10.7636791"><ele>776.0</ele><time>2026-05-02T12:59:26.223Z</time></trkpt><trkpt lat="44.3123311" lon="10.7638239"><ele>776.0</ele><time>2026-05-02T12:59:27.274Z</time></trkpt><trkpt lat="44.3122779" lon="10.7639892"><ele>776.0</ele><time>2026-05-02T12:59:28.252Z</time></trkpt><trkpt lat="44.3122407" lon="10.764161"><ele>776.0</ele><time>2026-05-02T12:59:29.315Z</time></trkpt><trkpt lat="44.3122177" lon="10.7643367"><ele>774.25</ele><time>2026-05-02T12:59:30.253Z</time></trkpt><trkpt lat="44.3122052" lon="10.7645189"><ele>772.5</ele><time>2026-05-02T12:59:31.248Z</time></trkpt><trkpt lat="44.3121934" lon="10.7646985"><ele>770.75</ele><time>2026-05-02T12:59:32.282Z</time></trkpt><trkpt lat="44.3121841" lon="10.7648779"><ele>769.0</ele><time>2026-05-02T12:59:33.234Z</time></trkpt><trkpt lat="44.3121739" lon="10.7650588"><ele>767.5</ele><time>2026-05-02T12:59:34.241Z</time></trkpt><trkpt lat="44.3121652" lon="10.7652386"><ele>766.0</ele><time>2026-05-02T12:59:35.243Z</time></trkpt><trkpt lat="44.3121571" lon="10.7654124"><ele>764.5</ele><time>2026-05-02T12:59:36.251Z</time></trkpt><trkpt lat="44.3121481" lon="10.765571"><ele>763.0</ele><time>2026-05-02T12:59:37.231Z</time></trkpt><trkpt lat="44.3121366" lon="10.7657174"><ele>763.0</ele><time>2026-05-02T12:59:38.229Z</time></trkpt><trkpt lat="44.3121132" lon="10.7658482"><ele>763.0</ele><time>2026-05-02T12:59:39.241Z</time></trkpt><trkpt lat="44.3120788" lon="10.7659583"><ele>763.0</ele><time>2026-05-02T12:59:40.24Z</time></trkpt><trkpt lat="44.3120301" lon="10.7660459"><ele>763.0</ele><time>2026-05-02T12:59:41.22Z</time></trkpt><trkpt lat="44.3119633" lon="10.7661058"><ele>763.0</ele><time>2026-05-02T12:59:42.256Z</time></trkpt><trkpt lat="44.3118821" lon="10.7661457"><ele>763.0</ele><time>2026-05-02T12:59:43.267Z</time></trkpt><trkpt lat="44.3117999" lon="10.7661918"><ele>762.5999999999999</ele><time>2026-05-02T12:59:44.19Z</time></trkpt><trkpt lat="44.3117249" lon="10.7662554"><ele>762.1999999999999</ele><time>2026-05-02T12:59:45.232Z</time></trkpt><trkpt lat="44.3116581" lon="10.7663368"><ele>761.8</ele><time>2026-05-02T12:59:46.23Z</time></trkpt><trkpt lat="44.3116037" lon="10.7664359"><ele>761.4</ele><time>2026-05-02T12:59:47.241Z</time></trkpt><trkpt lat="44.3115589" lon="10.7665558"><ele>761.0</ele><time>2026-05-02T12:59:48.233Z</time></trkpt><trkpt lat="44.3115289" lon="10.7666966"><ele>761.0</ele><time>2026-05-02T12:59:49.235Z</time></trkpt><trkpt lat="44.3115122" lon="10.7668572"><ele>761.0</ele><time>2026-05-02T12:59:50.235Z</time></trkpt><trkpt lat="44.3115072" lon="10.7670213"><ele>761.0</ele><time>2026-05-02T12:59:51.28Z</time></trkpt><trkpt lat="44.3115094" lon="10.767181"><ele>761.0</ele><time>2026-05-02T12:59:52.24Z</time></trkpt><trkpt lat="44.3115205" lon="10.767334"><ele>760.5999999999999</ele><time>2026-05-02T12:59:53.248Z</time></trkpt><trkpt lat="44.3115407" lon="10.7674794"><ele>760.2</ele><time>2026-05-02T12:59:54.235Z</time></trkpt><trkpt lat="44.3115714" lon="10.7676243"><ele>759.8</ele><time>2026-05-02T12:59:55.266Z</time></trkpt><trkpt lat="44.3116089" lon="10.7677611"><ele>759.4000000000001</ele><time>2026-05-02T12:59:56.218Z</time></trkpt><trkpt lat="44.3116524" lon="10.7678983"><ele>759.0</ele><time>2026-05-02T12:59:57.227Z</time></trkpt><trkpt lat="44.3116978" lon="10.7680363"><ele>759.0</ele><time>2026-05-02T12:59:58.235Z</time></trkpt><trkpt lat="44.311753" lon="10.7681788"><ele>759.0</ele><time>2026-05-02T12:59:59.25Z</time></trkpt><trkpt lat="44.3118033" lon="10.7683178"><ele>759.0</ele><time>2026-05-02T13:00:00.239Z</time></trkpt><trkpt lat="44.3118479" lon="10.7684579"><ele>759.0</ele><time>2026-05-02T13:00:01.225Z</time></trkpt><trkpt lat="44.3118837" lon="10.7686232"><ele>759.0</ele><time>2026-05-02T13:00:02.203Z</time></trkpt><trkpt lat="44.3119196" lon="10.7687776"><ele>759.0</ele><time>2026-05-02T13:00:03.233Z</time></trkpt><trkpt lat="44.3119492" lon="10.7689458"><ele>759.0</ele><time>2026-05-02T13:00:04.219Z</time></trkpt><trkpt lat="44.3119826" lon="10.7691187"><ele>759.0</ele><time>2026-05-02T13:00:05.241Z</time></trkpt><trkpt lat="44.3120154" lon="10.7692804"><ele>757.5</ele><time>2026-05-02T13:00:06.245Z</time></trkpt><trkpt lat="44.3120426" lon="10.7694438"><ele>756.0</ele><time>2026-05-02T13:00:07.233Z</time></trkpt><trkpt lat="44.3120708" lon="10.7696098"><ele>754.5</ele><time>2026-05-02T13:00:08.285Z</time></trkpt><trkpt lat="44.3120925" lon="10.7697726"><ele>753.0</ele><time>2026-05-02T13:00:09.232Z</time></trkpt><trkpt lat="44.3121102" lon="10.7699331"><ele>753.0</ele><time>2026-05-02T13:00:10.244Z</time></trkpt><trkpt lat="44.3121234" lon="10.7700968"><ele>753.0</ele><time>2026-05-02T13:00:11.253Z</time></trkpt><trkpt lat="44.3121313" lon="10.7702639"><ele>753.0</ele><time>2026-05-02T13:00:12.24Z</time></trkpt><trkpt lat="44.3121323" lon="10.7704288"><ele>753.0</ele><time>2026-05-02T13:00:13.241Z</time></trkpt><trkpt lat="44.3121345" lon="10.7705934"><ele>751.25</ele><time>2026-05-02T13:00:14.271Z</time></trkpt><trkpt lat="44.3121303" lon="10.7707547"><ele>749.5</ele><time>2026-05-02T13:00:15.224Z</time></trkpt><trkpt lat="44.3121171" lon="10.7709167"><ele>747.75</ele><time>2026-05-02T13:00:16.25Z</time></trkpt><trkpt lat="44.3120819" lon="10.7710723"><ele>746.0</ele><time>2026-05-02T13:00:17.236Z</time></trkpt><trkpt lat="44.3120272" lon="10.7712195"><ele>744.75</ele><time>2026-05-02T13:00:18.251Z</time></trkpt><trkpt lat="44.3119577" lon="10.7713625"><ele>743.5</ele><time>2026-05-02T13:00:19.224Z</time></trkpt><trkpt lat="44.3118799" lon="10.7715082"><ele>742.25</ele><time>2026-05-02T13:00:20.266Z</time></trkpt><trkpt lat="44.3118046" lon="10.7716556"><ele>741.0</ele><time>2026-05-02T13:00:21.218Z</time></trkpt><trkpt lat="44.3117349" lon="10.7718069"><ele>739.0</ele><time>2026-05-02T13:00:22.229Z</time></trkpt><trkpt lat="44.3116762" lon="10.771965"><ele>737.0</ele><time>2026-05-02T13:00:23.232Z</time></trkpt><trkpt lat="44.3116311" lon="10.7721298"><ele>735.0</ele><time>2026-05-02T13:00:24.233Z</time></trkpt><trkpt lat="44.3115943" lon="10.7722965"><ele>733.0</ele><time>2026-05-02T13:00:25.233Z</time></trkpt><trkpt lat="44.3115618" lon="10.7724702"><ele>733.0</ele><time>2026-05-02T13:00:26.234Z</time></trkpt><trkpt lat="44.3115347" lon="10.772655"><ele>733.0</ele><time>2026-05-02T13:00:27.244Z</time></trkpt><trkpt lat="44.3115136" lon="10.7728466"><ele>733.0</ele><time>2026-05-02T13:00:28.24Z</time></trkpt><trkpt lat="44.3115033" lon="10.7730471"><ele>733.0</ele><time>2026-05-02T13:00:29.229Z</time></trkpt><trkpt lat="44.3115017" lon="10.7732569"><ele>732.5</ele><time>2026-05-02T13:00:30.254Z</time></trkpt><trkpt lat="44.3115017" lon="10.7734625"><ele>732.0</ele><time>2026-05-02T13:00:31.272Z</time></trkpt><trkpt lat="44.3115002" lon="10.7736578"><ele>731.5</ele><time>2026-05-02T13:00:32.223Z</time></trkpt><trkpt lat="44.3114988" lon="10.7738421"><ele>731.0</ele><time>2026-05-02T13:00:33.226Z</time></trkpt><trkpt lat="44.311502" lon="10.7740175"><ele>731.25</ele><time>2026-05-02T13:00:34.236Z</time></trkpt><trkpt lat="44.3115135" lon="10.7741827"><ele>731.5</ele><time>2026-05-02T13:00:35.238Z</time></trkpt><trkpt lat="44.3115404" lon="10.7743551"><ele>731.75</ele><time>2026-05-02T13:00:36.257Z</time></trkpt><trkpt lat="44.3115795" lon="10.7745333"><ele>732.0</ele><time>2026-05-02T13:00:37.237Z</time></trkpt><trkpt lat="44.3116253" lon="10.7747147"><ele>732.0</ele><time>2026-05-02T13:00:38.242Z</time></trkpt><trkpt lat="44.3116667" lon="10.7749007"><ele>732.0</ele><time>2026-05-02T13:00:39.227Z</time></trkpt><trkpt lat="44.3116982" lon="10.7750805"><ele>732.0</ele><time>2026-05-02T13:00:40.218Z</time></trkpt><trkpt lat="44.3117219" lon="10.7752559"><ele>732.0</ele><time>2026-05-02T13:00:41.262Z</time></trkpt><trkpt lat="44.3117393" lon="10.7754258"><ele>733.75</ele><time>2026-05-02T13:00:42.237Z</time></trkpt><trkpt lat="44.3117492" lon="10.7755901"><ele>735.5</ele><time>2026-05-02T13:00:43.232Z</time></trkpt><trkpt lat="44.3117532" lon="10.7757616"><ele>737.25</ele><time>2026-05-02T13:00:44.248Z</time></trkpt><trkpt lat="44.3117516" lon="10.7759438"><ele>739.0</ele><time>2026-05-02T13:00:45.196Z</time></trkpt><trkpt lat="44.3117381" lon="10.7761312"><ele>740.25</ele><time>2026-05-02T13:00:46.207Z</time></trkpt><trkpt lat="44.3117102" lon="10.7763024"><ele>741.5</ele><time>2026-05-02T13:00:47.233Z</time></trkpt><trkpt lat="44.3116649" lon="10.776454"><ele>742.75</ele><time>2026-05-02T13:00:48.224Z</time></trkpt><trkpt lat="44.3115991" lon="10.7765879"><ele>744.0</ele><time>2026-05-02T13:00:49.225Z</time></trkpt><trkpt lat="44.3115103" lon="10.7766958"><ele>743.75</ele><time>2026-05-02T13:00:50.249Z</time></trkpt><trkpt lat="44.311403" lon="10.7767848"><ele>743.5</ele><time>2026-05-02T13:00:51.232Z</time></trkpt><trkpt lat="44.3112979" lon="10.7768662"><ele>743.25</ele><time>2026-05-02T13:00:52.245Z</time></trkpt><trkpt lat="44.3112087" lon="10.7769585"><ele>743.0</ele><time>2026-05-02T13:00:53.241Z</time></trkpt><trkpt lat="44.3111398" lon="10.7770667"><ele>743.5</ele><time>2026-05-02T13:00:54.268Z</time></trkpt><trkpt lat="44.3110893" lon="10.7771926"><ele>744.0</ele><time>2026-05-02T13:00:55.251Z</time></trkpt><trkpt lat="44.3110561" lon="10.7773475"><ele>744.5</ele><time>2026-05-02T13:00:56.228Z</time></trkpt><trkpt lat="44.3110436" lon="10.7775157"><ele>745.0</ele><time>2026-05-02T13:00:57.221Z</time></trkpt><trkpt lat="44.311047" lon="10.7776852"><ele>745.0</ele><time>2026-05-02T13:00:58.242Z</time></trkpt><trkpt lat="44.3110547" lon="10.7778681"><ele>745.0</ele><time>2026-05-02T13:00:59.239Z</time></trkpt><trkpt lat="44.3110619" lon="10.7780608"><ele>745.0</ele><time>2026-05-02T13:01:00.214Z</time></trkpt><trkpt lat="44.3110694" lon="10.7782467"><ele>745.0</ele><time>2026-05-02T13:01:01.213Z</time></trkpt><trkpt lat="44.3110767" lon="10.7784217"><ele>745.5</ele><time>2026-05-02T13:01:02.242Z</time></trkpt><trkpt lat="44.3110816" lon="10.778588"><ele>746.0</ele><time>2026-05-02T13:01:03.2Z</time></trkpt><trkpt lat="44.3110781" lon="10.778747"><ele>746.5</ele><time>2026-05-02T13:01:04.242Z</time></trkpt><trkpt lat="44.3110554" lon="10.7789049"><ele>747.0</ele><time>2026-05-02T13:01:05.246Z</time></trkpt><trkpt lat="44.3110117" lon="10.7790605"><ele>747.0</ele><time>2026-05-02T13:01:06.23Z</time></trkpt><trkpt lat="44.3109625" lon="10.7792069"><ele>747.0</ele><time>2026-05-02T13:01:07.239Z</time></trkpt><trkpt lat="44.3109216" lon="10.7793503"><ele>747.0</ele><time>2026-05-02T13:01:08.278Z</time></trkpt><trkpt lat="44.3109022" lon="10.779493"><ele>747.0</ele><time>2026-05-02T13:01:09.259Z</time></trkpt><trkpt lat="44.3109119" lon="10.7796328"><ele>747.0</ele><time>2026-05-02T13:01:10.239Z</time></trkpt><trkpt lat="44.3109503" lon="10.779762"><ele>747.0</ele><time>2026-05-02T13:01:11.234Z</time></trkpt><trkpt lat="44.311014" lon="10.779868"><ele>747.0</ele><time>2026-05-02T13:01:12.217Z</time></trkpt><trkpt lat="44.3111011" lon="10.779952"><ele>747.0</ele><time>2026-05-02T13:01:13.235Z</time></trkpt><trkpt lat="44.3112053" lon="10.7800243"><ele>747.0</ele><time>2026-05-02T13:01:14.214Z</time></trkpt><trkpt lat="44.3113107" lon="10.7801045"><ele>747.0</ele><time>2026-05-02T13:01:15.216Z</time></trkpt><trkpt lat="44.3114139" lon="10.7801856"><ele>746.75</ele><time>2026-05-02T13:01:16.243Z</time></trkpt><trkpt lat="44.3114963" lon="10.7803105"><ele>746.5</ele><time>2026-05-02T13:01:17.247Z</time></trkpt><trkpt lat="44.3115673" lon="10.7804631"><ele>746.25</ele><time>2026-05-02T13:01:18.261Z</time></trkpt><trkpt lat="44.3116293" lon="10.7806331"><ele>746.0</ele><time>2026-05-02T13:01:19.236Z</time></trkpt><trkpt lat="44.3116793" lon="10.7808164"><ele>746.0</ele><time>2026-05-02T13:01:20.285Z</time></trkpt><trkpt lat="44.311719" lon="10.7810102"><ele>746.0</ele><time>2026-05-02T13:01:21.238Z</time></trkpt><trkpt lat="44.3117492" lon="10.7812016"><ele>746.0</ele><time>2026-05-02T13:01:22.25Z</time></trkpt><trkpt lat="44.3117711" lon="10.7813869"><ele>746.0</ele><time>2026-05-02T13:01:23.233Z</time></trkpt><trkpt lat="44.3117854" lon="10.7815689"><ele>744.75</ele><time>2026-05-02T13:01:24.227Z</time></trkpt><trkpt lat="44.3117931" lon="10.781747"><ele>743.5</ele><time>2026-05-02T13:01:25.243Z</time></trkpt><trkpt lat="44.3118006" lon="10.781923"><ele>742.25</ele><time>2026-05-02T13:01:26.215Z</time></trkpt><trkpt lat="44.3117903" lon="10.7821102"><ele>741.0</ele><time>2026-05-02T13:01:27.208Z</time></trkpt><trkpt lat="44.3117774" lon="10.7823084"><ele>740.5</ele><time>2026-05-02T13:01:28.237Z</time></trkpt><trkpt lat="44.3117642" lon="10.7825008"><ele>740.0</ele><time>2026-05-02T13:01:29.245Z</time></trkpt><trkpt lat="44.3117518" lon="10.7826916"><ele>739.5</ele><time>2026-05-02T13:01:30.281Z</time></trkpt><trkpt lat="44.3117405" lon="10.7828793"><ele>739.0</ele><time>2026-05-02T13:01:31.276Z</time></trkpt><trkpt lat="44.3117305" lon="10.7830632"><ele>739.0</ele><time>2026-05-02T13:01:32.244Z</time></trkpt><trkpt lat="44.311724" lon="10.78324"><ele>739.0</ele><time>2026-05-02T13:01:33.218Z</time></trkpt><trkpt lat="44.3117201" lon="10.7834126"><ele>739.0</ele><time>2026-05-02T13:01:34.239Z</time></trkpt><trkpt lat="44.3117232" lon="10.7835775"><ele>739.0</ele><time>2026-05-02T13:01:35.214Z</time></trkpt><trkpt lat="44.3117372" lon="10.783739"><ele>739.5</ele><time>2026-05-02T13:01:36.24Z</time></trkpt><trkpt lat="44.3117594" lon="10.7839044"><ele>740.0</ele><time>2026-05-02T13:01:37.208Z</time></trkpt><trkpt lat="44.3117864" lon="10.7840735"><ele>740.5</ele><time>2026-05-02T13:01:38.197Z</time></trkpt><trkpt lat="44.3118146" lon="10.7842458"><ele>741.0</ele><time>2026-05-02T13:01:39.184Z</time></trkpt><trkpt lat="44.3118514" lon="10.7844235"><ele>740.0</ele><time>2026-05-02T13:01:40.192Z</time></trkpt><trkpt lat="44.311892" lon="10.7846084"><ele>739.0</ele><time>2026-05-02T13:01:41.209Z</time></trkpt><trkpt lat="44.3119275" lon="10.784793"><ele>738.0</ele><time>2026-05-02T13:01:42.235Z</time></trkpt><trkpt lat="44.3119542" lon="10.7849732"><ele>737.0</ele><time>2026-05-02T13:01:43.254Z</time></trkpt><trkpt lat="44.3119677" lon="10.7851476"><ele>737.25</ele><time>2026-05-02T13:01:44.234Z</time></trkpt><trkpt lat="44.3119653" lon="10.7853169"><ele>737.5</ele><time>2026-05-02T13:01:45.253Z</time></trkpt><trkpt lat="44.3119419" lon="10.7854848"><ele>737.75</ele><time>2026-05-02T13:01:46.231Z</time></trkpt><trkpt lat="44.3118959" lon="10.7856409"><ele>738.0</ele><time>2026-05-02T13:01:47.22Z</time></trkpt><trkpt lat="44.3118315" lon="10.7857924"><ele>738.0</ele><time>2026-05-02T13:01:48.24Z</time></trkpt><trkpt lat="44.3117649" lon="10.7859477"><ele>738.0</ele><time>2026-05-02T13:01:49.179Z</time></trkpt><trkpt lat="44.311696" lon="10.7861083"><ele>738.0</ele><time>2026-05-02T13:01:50.237Z</time></trkpt><trkpt lat="44.3116523" lon="10.7862879"><ele>738.0</ele><time>2026-05-02T13:01:51.226Z</time></trkpt><trkpt lat="44.3116224" lon="10.7864792"><ele>739.6666666666666</ele><time>2026-05-02T13:01:52.213Z</time></trkpt><trkpt lat="44.3115957" lon="10.7866886"><ele>741.3333333333333</ele><time>2026-05-02T13:01:53.23Z</time></trkpt><trkpt lat="44.3115623" lon="10.7869077"><ele>743.0</ele><time>2026-05-02T13:01:54.265Z</time></trkpt><trkpt lat="44.3115246" lon="10.7871209"><ele>743.25</ele><time>2026-05-02T13:01:55.218Z</time></trkpt><trkpt lat="44.3114864" lon="10.787322"><ele>743.5</ele><time>2026-05-02T13:01:56.221Z</time></trkpt><trkpt lat="44.3114551" lon="10.7875151"><ele>743.75</ele><time>2026-05-02T13:01:57.232Z</time></trkpt><trkpt lat="44.3114042" lon="10.7876791"><ele>744.0</ele><time>2026-05-02T13:01:58.243Z</time></trkpt><trkpt lat="44.3113372" lon="10.7878187"><ele>742.0</ele><time>2026-05-02T13:01:59.201Z</time></trkpt><trkpt lat="44.3112646" lon="10.7879304"><ele>740.0</ele><time>2026-05-02T13:02:00.227Z</time></trkpt><trkpt lat="44.3111984" lon="10.788038"><ele>738.0</ele><time>2026-05-02T13:02:01.218Z</time></trkpt><trkpt lat="44.3111573" lon="10.7881466"><ele>736.0</ele><time>2026-05-02T13:02:02.237Z</time></trkpt><trkpt lat="44.3111522" lon="10.7882677"><ele>734.0</ele><time>2026-05-02T13:02:03.192Z</time></trkpt><trkpt lat="44.3111822" lon="10.7883801"><ele>734.0</ele><time>2026-05-02T13:02:04.231Z</time></trkpt><trkpt lat="44.3112424" lon="10.7884837"><ele>734.0</ele><time>2026-05-02T13:02:05.273Z</time></trkpt><trkpt lat="44.3113216" lon="10.7885887"><ele>734.0</ele><time>2026-05-02T13:02:06.245Z</time></trkpt><trkpt lat="44.3113961" lon="10.7886933"><ele>734.0</ele><time>2026-05-02T13:02:07.212Z</time></trkpt><trkpt lat="44.3114581" lon="10.788815"><ele>734.0</ele><time>2026-05-02T13:02:08.226Z</time></trkpt><trkpt lat="44.3114958" lon="10.7889529"><ele>735.2</ele><time>2026-05-02T13:02:09.258Z</time></trkpt><trkpt lat="44.3115058" lon="10.7890977"><ele>736.4000000000001</ele><time>2026-05-02T13:02:10.223Z</time></trkpt><trkpt lat="44.3114945" lon="10.78925"><ele>737.6</ele><time>2026-05-02T13:02:11.217Z</time></trkpt><trkpt lat="44.3114656" lon="10.7894056"><ele>738.8</ele><time>2026-05-02T13:02:12.27Z</time></trkpt><trkpt lat="44.3114221" lon="10.7895491"><ele>740.0</ele><time>2026-05-02T13:02:13.237Z</time></trkpt><trkpt lat="44.3113766" lon="10.7896819"><ele>737.0</ele><time>2026-05-02T13:02:14.255Z</time></trkpt><trkpt lat="44.311339" lon="10.7898029"><ele>734.0</ele><time>2026-05-02T13:02:15.258Z</time></trkpt><trkpt lat="44.3112991" lon="10.7899098"><ele>731.0</ele><time>2026-05-02T13:02:16.195Z</time></trkpt><trkpt lat="44.3112822" lon="10.7900329"><ele>728.0</ele><time>2026-05-02T13:02:17.234Z</time></trkpt><trkpt lat="44.3112935" lon="10.7901543"><ele>725.0</ele><time>2026-05-02T13:02:18.222Z</time></trkpt><trkpt lat="44.3113165" lon="10.7902772"><ele>722.0</ele><time>2026-05-02T13:02:19.2Z</time></trkpt><trkpt lat="44.3113688" lon="10.7904148"><ele>723.0</ele><time>2026-05-02T13:02:20.25Z</time></trkpt><trkpt lat="44.3114154" lon="10.7905609"><ele>724.0</ele><time>2026-05-02T13:02:21.228Z</time></trkpt><trkpt lat="44.3114664" lon="10.7907152"><ele>725.0</ele><time>2026-05-02T13:02:22.223Z</time></trkpt><trkpt lat="44.3115035" lon="10.7908575"><ele>726.0</ele><time>2026-05-02T13:02:23.249Z</time></trkpt><trkpt lat="44.311555" lon="10.7910249"><ele>726.0</ele><time>2026-05-02T13:02:24.27Z</time></trkpt><trkpt lat="44.3115999" lon="10.7911816"><ele>726.0</ele><time>2026-05-02T13:02:25.205Z</time></trkpt><trkpt lat="44.3116476" lon="10.7913639"><ele>726.0</ele><time>2026-05-02T13:02:26.246Z</time></trkpt><trkpt lat="44.3116833" lon="10.7915496"><ele>726.0</ele><time>2026-05-02T13:02:27.231Z</time></trkpt><trkpt lat="44.3117118" lon="10.7917322"><ele>724.5</ele><time>2026-05-02T13:02:28.226Z</time></trkpt><trkpt lat="44.311746" lon="10.791908"><ele>723.0</ele><time>2026-05-02T13:02:29.235Z</time></trkpt><trkpt lat="44.3117845" lon="10.7920841"><ele>721.5</ele><time>2026-05-02T13:02:30.221Z</time></trkpt><trkpt lat="44.3118217" lon="10.7922552"><ele>720.0</ele><time>2026-05-02T13:02:31.231Z</time></trkpt><trkpt lat="44.3118558" lon="10.7924256"><ele>720.0</ele><time>2026-05-02T13:02:32.257Z</time></trkpt><trkpt lat="44.3118913" lon="10.7925956"><ele>720.0</ele><time>2026-05-02T13:02:33.176Z</time></trkpt><trkpt lat="44.3119266" lon="10.7927619"><ele>720.0</ele><time>2026-05-02T13:02:34.215Z</time></trkpt><trkpt lat="44.3119572" lon="10.7929232"><ele>720.0</ele><time>2026-05-02T13:02:35.221Z</time></trkpt><trkpt lat="44.3119897" lon="10.7930816"><ele>718.25</ele><time>2026-05-02T13:02:36.226Z</time></trkpt><trkpt lat="44.3120375" lon="10.7932234"><ele>716.5</ele><time>2026-05-02T13:02:37.231Z</time></trkpt><trkpt lat="44.3120746" lon="10.7933908"><ele>714.75</ele><time>2026-05-02T13:02:38.224Z</time></trkpt><trkpt lat="44.3121127" lon="10.7935614"><ele>713.0</ele><time>2026-05-02T13:02:39.222Z</time></trkpt><trkpt lat="44.3121501" lon="10.793736"><ele>712.75</ele><time>2026-05-02T13:02:40.222Z</time></trkpt><trkpt lat="44.3121933" lon="10.7939051"><ele>712.5</ele><time>2026-05-02T13:02:41.221Z</time></trkpt><trkpt lat="44.3122345" lon="10.7940786"><ele>712.25</ele><time>2026-05-02T13:02:42.212Z</time></trkpt><trkpt lat="44.3122791" lon="10.7942535"><ele>712.0</ele><time>2026-05-02T13:02:43.261Z</time></trkpt><trkpt lat="44.3123295" lon="10.7944261"><ele>713.75</ele><time>2026-05-02T13:02:44.225Z</time></trkpt><trkpt lat="44.3123913" lon="10.7945945"><ele>715.5</ele><time>2026-05-02T13:02:45.238Z</time></trkpt><trkpt lat="44.3124609" lon="10.7947549"><ele>717.25</ele><time>2026-05-02T13:02:46.286Z</time></trkpt><trkpt lat="44.3125428" lon="10.7949101"><ele>719.0</ele><time>2026-05-02T13:02:47.223Z</time></trkpt><trkpt lat="44.3126263" lon="10.7950655"><ele>717.5</ele><time>2026-05-02T13:02:48.264Z</time></trkpt><trkpt lat="44.3127106" lon="10.7952233"><ele>716.0</ele><time>2026-05-02T13:02:49.217Z</time></trkpt><trkpt lat="44.3127903" lon="10.7953775"><ele>714.5</ele><time>2026-05-02T13:02:50.251Z</time></trkpt><trkpt lat="44.3128701" lon="10.7955265"><ele>713.0</ele><time>2026-05-02T13:02:51.231Z</time></trkpt><trkpt lat="44.3129463" lon="10.7956672"><ele>713.0</ele><time>2026-05-02T13:02:52.23Z</time></trkpt><trkpt lat="44.3130227" lon="10.7958128"><ele>713.0</ele><time>2026-05-02T13:02:53.219Z</time></trkpt><trkpt lat="44.3131006" lon="10.7959592"><ele>713.0</ele><time>2026-05-02T13:02:54.223Z</time></trkpt><trkpt lat="44.3131807" lon="10.7961041"><ele>713.0</ele><time>2026-05-02T13:02:55.219Z</time></trkpt><trkpt lat="44.3132675" lon="10.7962575"><ele>714.0</ele><time>2026-05-02T13:02:56.222Z</time></trkpt><trkpt lat="44.3133558" lon="10.7963943"><ele>715.0</ele><time>2026-05-02T13:02:57.214Z</time></trkpt><trkpt lat="44.3134419" lon="10.7965257"><ele>716.0</ele><time>2026-05-02T13:02:58.22Z</time></trkpt><trkpt lat="44.3135157" lon="10.7966516"><ele>717.0</ele><time>2026-05-02T13:02:59.223Z</time></trkpt><trkpt lat="44.3135941" lon="10.796779"><ele>717.0</ele><time>2026-05-02T13:03:00.219Z</time></trkpt><trkpt lat="44.313673" lon="10.7969118"><ele>717.0</ele><time>2026-05-02T13:03:01.229Z</time></trkpt><trkpt lat="44.3137554" lon="10.7970437"><ele>717.0</ele><time>2026-05-02T13:03:02.229Z</time></trkpt><trkpt lat="44.3138427" lon="10.7971746"><ele>717.0</ele><time>2026-05-02T13:03:03.215Z</time></trkpt><trkpt lat="44.3139311" lon="10.7973044"><ele>717.0</ele><time>2026-05-02T13:03:04.218Z</time></trkpt><trkpt lat="44.314022" lon="10.797432"><ele>717.0</ele><time>2026-05-02T13:03:05.232Z</time></trkpt><trkpt lat="44.314117" lon="10.797556"><ele>717.0</ele><time>2026-05-02T13:03:06.244Z</time></trkpt><trkpt lat="44.3142142" lon="10.7976761"><ele>717.0</ele><time>2026-05-02T13:03:07.218Z</time></trkpt><trkpt lat="44.3143115" lon="10.7977933"><ele>714.75</ele><time>2026-05-02T13:03:08.243Z</time></trkpt><trkpt lat="44.3144102" lon="10.7979108"><ele>712.5</ele><time>2026-05-02T13:03:09.235Z</time></trkpt><trkpt lat="44.3145072" lon="10.7980288"><ele>710.25</ele><time>2026-05-02T13:03:10.225Z</time></trkpt><trkpt lat="44.3146024" lon="10.7981432"><ele>708.0</ele><time>2026-05-02T13:03:11.222Z</time></trkpt><trkpt lat="44.3146957" lon="10.7982557"><ele>708.5</ele><time>2026-05-02T13:03:12.222Z</time></trkpt><trkpt lat="44.3147849" lon="10.7983679"><ele>709.0</ele><time>2026-05-02T13:03:13.232Z</time></trkpt><trkpt lat="44.3148662" lon="10.7984819"><ele>709.5</ele><time>2026-05-02T13:03:14.229Z</time></trkpt><trkpt lat="44.3149374" lon="10.7986043"><ele>710.0</ele><time>2026-05-02T13:03:15.23Z</time></trkpt><trkpt lat="44.3149927" lon="10.7987408"><ele>710.0</ele><time>2026-05-02T13:03:16.219Z</time></trkpt><trkpt lat="44.3150358" lon="10.7988912"><ele>710.0</ele><time>2026-05-02T13:03:17.231Z</time></trkpt><trkpt lat="44.3150744" lon="10.7990424"><ele>710.0</ele><time>2026-05-02T13:03:18.239Z</time></trkpt><trkpt lat="44.315118" lon="10.799188"><ele>710.0</ele><time>2026-05-02T13:03:19.213Z</time></trkpt><trkpt lat="44.3151611" lon="10.7993312"><ele>709.0</ele><time>2026-05-02T13:03:20.219Z</time></trkpt><trkpt lat="44.3151929" lon="10.7994738"><ele>708.0</ele><time>2026-05-02T13:03:21.245Z</time></trkpt><trkpt lat="44.3151984" lon="10.7996145"><ele>707.0</ele><time>2026-05-02T13:03:22.234Z</time></trkpt><trkpt lat="44.3151771" lon="10.7997542"><ele>706.0</ele><time>2026-05-02T13:03:23.244Z</time></trkpt><trkpt lat="44.3151354" lon="10.7999012"><ele>705.0</ele><time>2026-05-02T13:03:24.242Z</time></trkpt><trkpt lat="44.3150884" lon="10.8000567"><ele>705.75</ele><time>2026-05-02T13:03:25.257Z</time></trkpt><trkpt lat="44.3150433" lon="10.8002233"><ele>706.5</ele><time>2026-05-02T13:03:26.246Z</time></trkpt><trkpt lat="44.3149996" lon="10.8003923"><ele>707.25</ele><time>2026-05-02T13:03:27.236Z</time></trkpt><trkpt lat="44.3149564" lon="10.8005597"><ele>708.0</ele><time>2026-05-02T13:03:28.223Z</time></trkpt><trkpt lat="44.3149135" lon="10.8007248"><ele>708.0</ele><time>2026-05-02T13:03:29.231Z</time></trkpt><trkpt lat="44.3148709" lon="10.8008878"><ele>708.0</ele><time>2026-05-02T13:03:30.239Z</time></trkpt><trkpt lat="44.3148261" lon="10.8010507"><ele>708.0</ele><time>2026-05-02T13:03:31.187Z</time></trkpt><trkpt lat="44.3147787" lon="10.8012129"><ele>708.0</ele><time>2026-05-02T13:03:32.236Z</time></trkpt><trkpt lat="44.314738" lon="10.80137"><ele>709.75</ele><time>2026-05-02T13:03:33.229Z</time></trkpt><trkpt lat="44.3147123" lon="10.8015308"><ele>711.5</ele><time>2026-05-02T13:03:34.234Z</time></trkpt><trkpt lat="44.3147079" lon="10.8016997"><ele>713.25</ele><time>2026-05-02T13:03:35.218Z</time></trkpt><trkpt lat="44.3147286" lon="10.8018758"><ele>715.0</ele><time>2026-05-02T13:03:36.223Z</time></trkpt><trkpt lat="44.3147651" lon="10.8020568"><ele>715.0</ele><time>2026-05-02T13:03:37.217Z</time></trkpt><trkpt lat="44.3148093" lon="10.8022431"><ele>715.0</ele><time>2026-05-02T13:03:38.242Z</time></trkpt><trkpt lat="44.3148565" lon="10.802435"><ele>715.0</ele><time>2026-05-02T13:03:39.235Z</time></trkpt><trkpt lat="44.3149077" lon="10.8026365"><ele>715.0</ele><time>2026-05-02T13:03:40.235Z</time></trkpt><trkpt lat="44.3149586" lon="10.8028415"><ele>714.5</ele><time>2026-05-02T13:03:41.235Z</time></trkpt><trkpt lat="44.3149998" lon="10.8030365"><ele>714.0</ele><time>2026-05-02T13:03:42.211Z</time></trkpt><trkpt lat="44.315028" lon="10.8032279"><ele>713.5</ele><time>2026-05-02T13:03:43.224Z</time></trkpt><trkpt lat="44.3150405" lon="10.8034191"><ele>713.0</ele><time>2026-05-02T13:03:44.215Z</time></trkpt><trkpt lat="44.3150428" lon="10.8036129"><ele>713.0</ele><time>2026-05-02T13:03:45.233Z</time></trkpt><trkpt lat="44.315044" lon="10.8037975"><ele>713.0</ele><time>2026-05-02T13:03:46.199Z</time></trkpt><trkpt lat="44.315055" lon="10.8039778"><ele>713.0</ele><time>2026-05-02T13:03:47.249Z</time></trkpt><trkpt lat="44.315083" lon="10.8041505"><ele>713.0</ele><time>2026-05-02T13:03:48.196Z</time></trkpt><trkpt lat="44.3151254" lon="10.804309"><ele>712.0</ele><time>2026-05-02T13:03:49.243Z</time></trkpt><trkpt lat="44.3151817" lon="10.8044428"><ele>711.0</ele><time>2026-05-02T13:03:50.255Z</time></trkpt><trkpt lat="44.315239" lon="10.8045367"><ele>710.0</ele><time>2026-05-02T13:03:51.231Z</time></trkpt><trkpt lat="44.3153345" lon="10.8046109"><ele>709.0</ele><time>2026-05-02T13:03:52.24Z</time></trkpt><trkpt lat="44.3154414" lon="10.8046802"><ele>708.0</ele><time>2026-05-02T13:03:53.228Z</time></trkpt><trkpt lat="44.3155517" lon="10.8047447"><ele>711.25</ele><time>2026-05-02T13:03:54.232Z</time></trkpt><trkpt lat="44.3156659" lon="10.804811"><ele>714.5</ele><time>2026-05-02T13:03:55.233Z</time></trkpt><trkpt lat="44.3157837" lon="10.8048739"><ele>717.75</ele><time>2026-05-02T13:03:56.241Z</time></trkpt><trkpt lat="44.3158922" lon="10.8049466"><ele>721.0</ele><time>2026-05-02T13:03:57.233Z</time></trkpt><trkpt lat="44.3160001" lon="10.8050151"><ele>721.0</ele><time>2026-05-02T13:03:58.236Z</time></trkpt><trkpt lat="44.3161123" lon="10.8050857"><ele>721.0</ele><time>2026-05-02T13:03:59.236Z</time></trkpt><trkpt lat="44.3162276" lon="10.8051588"><ele>721.0</ele><time>2026-05-02T13:04:00.222Z</time></trkpt><trkpt lat="44.3163375" lon="10.8052292"><ele>721.0</ele><time>2026-05-02T13:04:01.247Z</time></trkpt><trkpt lat="44.3164411" lon="10.8053081"><ele>721.0</ele><time>2026-05-02T13:04:02.213Z</time></trkpt><trkpt lat="44.3165363" lon="10.8053994"><ele>721.0</ele><time>2026-05-02T13:04:03.221Z</time></trkpt><trkpt lat="44.3166266" lon="10.8055072"><ele>721.0</ele><time>2026-05-02T13:04:04.215Z</time></trkpt><trkpt lat="44.3167025" lon="10.8056573"><ele>721.0</ele><time>2026-05-02T13:04:05.23Z</time></trkpt><trkpt lat="44.3167616" lon="10.8058375"><ele>718.75</ele><time>2026-05-02T13:04:06.237Z</time></trkpt><trkpt lat="44.3168186" lon="10.8060125"><ele>716.5</ele><time>2026-05-02T13:04:07.21Z</time></trkpt><trkpt lat="44.3168731" lon="10.8061882"><ele>714.25</ele><time>2026-05-02T13:04:08.213Z</time></trkpt><trkpt lat="44.3169237" lon="10.8063597"><ele>712.0</ele><time>2026-05-02T13:04:09.231Z</time></trkpt><trkpt lat="44.3169811" lon="10.8065375"><ele>712.0</ele><time>2026-05-02T13:04:10.237Z</time></trkpt><trkpt lat="44.3170411" lon="10.8067213"><ele>712.0</ele><time>2026-05-02T13:04:11.218Z</time></trkpt><trkpt lat="44.3170993" lon="10.806905"><ele>712.0</ele><time>2026-05-02T13:04:12.221Z</time></trkpt><trkpt lat="44.3171535" lon="10.807085"><ele>712.0</ele><time>2026-05-02T13:04:13.223Z</time></trkpt><trkpt lat="44.3172022" lon="10.8072605"><ele>712.75</ele><time>2026-05-02T13:04:14.222Z</time></trkpt><trkpt lat="44.3172389" lon="10.8074364"><ele>713.5</ele><time>2026-05-02T13:04:15.225Z</time></trkpt><trkpt lat="44.3172702" lon="10.807614"><ele>714.25</ele><time>2026-05-02T13:04:16.224Z</time></trkpt><trkpt lat="44.3172884" lon="10.8077914"><ele>715.0</ele><time>2026-05-02T13:04:17.207Z</time></trkpt><trkpt lat="44.3172891" lon="10.8079685"><ele>714.25</ele><time>2026-05-02T13:04:18.207Z</time></trkpt><trkpt lat="44.3172669" lon="10.8081393"><ele>713.5</ele><time>2026-05-02T13:04:19.227Z</time></trkpt><trkpt lat="44.3172261" lon="10.8083003"><ele>712.75</ele><time>2026-05-02T13:04:20.233Z</time></trkpt><trkpt lat="44.3171717" lon="10.808452"><ele>712.0</ele><time>2026-05-02T13:04:21.221Z</time></trkpt><trkpt lat="44.3171117" lon="10.808604"><ele>711.75</ele><time>2026-05-02T13:04:22.206Z</time></trkpt><trkpt lat="44.3170541" lon="10.8087562"><ele>711.5</ele><time>2026-05-02T13:04:23.22Z</time></trkpt><trkpt lat="44.3170027" lon="10.8089109"><ele>711.25</ele><time>2026-05-02T13:04:24.212Z</time></trkpt><trkpt lat="44.3169632" lon="10.8090733"><ele>711.0</ele><time>2026-05-02T13:04:25.216Z</time></trkpt><trkpt lat="44.3169425" lon="10.8092446"><ele>710.75</ele><time>2026-05-02T13:04:26.214Z</time></trkpt><trkpt lat="44.3169416" lon="10.8094215"><ele>710.5</ele><time>2026-05-02T13:04:27.218Z</time></trkpt><trkpt lat="44.316958" lon="10.8095888"><ele>710.25</ele><time>2026-05-02T13:04:28.223Z</time></trkpt><trkpt lat="44.3169836" lon="10.8097499"><ele>710.0</ele><time>2026-05-02T13:04:29.207Z</time></trkpt><trkpt lat="44.3170079" lon="10.8099041"><ele>710.0</ele><time>2026-05-02T13:04:30.226Z</time></trkpt><trkpt lat="44.3170306" lon="10.8100509"><ele>710.0</ele><time>2026-05-02T13:04:31.244Z</time></trkpt><trkpt lat="44.3170505" lon="10.8101883"><ele>710.0</ele><time>2026-05-02T13:04:32.229Z</time></trkpt><trkpt lat="44.3170665" lon="10.8103158"><ele>710.0</ele><time>2026-05-02T13:04:33.254Z</time></trkpt><trkpt lat="44.3170768" lon="10.8104245"><ele>710.0</ele><time>2026-05-02T13:04:34.238Z</time></trkpt><trkpt lat="44.3170827" lon="10.810568"><ele>710.6</ele><time>2026-05-02T13:04:36.232Z</time></trkpt><trkpt lat="44.3171084" lon="10.8107066"><ele>711.2</ele><time>2026-05-02T13:04:44.213Z</time></trkpt><trkpt lat="44.3171972" lon="10.8107313"><ele>711.8</ele><time>2026-05-02T13:04:46.234Z</time></trkpt><trkpt lat="44.3173361" lon="10.8107488"><ele>712.4</ele><time>2026-05-02T13:04:48.245Z</time></trkpt><trkpt lat="44.3174164" lon="10.8107932"><ele>713.0</ele><time>2026-05-02T13:04:49.281Z</time></trkpt><trkpt lat="44.3174989" lon="10.8108628"><ele>714.2</ele><time>2026-05-02T13:04:50.233Z</time></trkpt><trkpt lat="44.3175892" lon="10.810946"><ele>715.4</ele><time>2026-05-02T13:04:51.186Z</time></trkpt><trkpt lat="44.3176857" lon="10.8110339"><ele>716.6</ele><time>2026-05-02T13:04:52.182Z</time></trkpt><trkpt lat="44.3177843" lon="10.8111127"><ele>717.8000000000001</ele><time>2026-05-02T13:04:53.19Z</time></trkpt><trkpt lat="44.317882" lon="10.8111766"><ele>719.0</ele><time>2026-05-02T13:04:54.199Z</time></trkpt><trkpt lat="44.3179843" lon="10.8112293"><ele>722.2</ele><time>2026-05-02T13:04:55.222Z</time></trkpt><trkpt lat="44.3180914" lon="10.8112661"><ele>725.4000000000001</ele><time>2026-05-02T13:04:56.224Z</time></trkpt><trkpt lat="44.3181876" lon="10.8112795"><ele>728.6</ele><time>2026-05-02T13:04:57.204Z</time></trkpt><trkpt lat="44.318304" lon="10.8112768"><ele>731.8</ele><time>2026-05-02T13:04:58.211Z</time></trkpt><trkpt lat="44.3184189" lon="10.8112756"><ele>735.0</ele><time>2026-05-02T13:04:59.216Z</time></trkpt><trkpt lat="44.3185163" lon="10.8112799"><ele>735.0</ele><time>2026-05-02T13:05:00.211Z</time></trkpt><trkpt lat="44.3186061" lon="10.8112948"><ele>735.0</ele><time>2026-05-02T13:05:01.272Z</time></trkpt><trkpt lat="44.3186878" lon="10.81133"><ele>735.0</ele><time>2026-05-02T13:05:02.198Z</time></trkpt><trkpt lat="44.3187621" lon="10.8113888"><ele>735.0</ele><time>2026-05-02T13:05:03.207Z</time></trkpt><trkpt lat="44.3188337" lon="10.811477"><ele>735.0</ele><time>2026-05-02T13:05:04.21Z</time></trkpt><trkpt lat="44.3189116" lon="10.8115652"><ele>732.75</ele><time>2026-05-02T13:05:05.214Z</time></trkpt><trkpt lat="44.3190022" lon="10.8116331"><ele>730.5</ele><time>2026-05-02T13:05:06.207Z</time></trkpt><trkpt lat="44.3191061" lon="10.8116724"><ele>728.25</ele><time>2026-05-02T13:05:07.221Z</time></trkpt><trkpt lat="44.3192257" lon="10.8116873"><ele>726.0</ele><time>2026-05-02T13:05:08.207Z</time></trkpt><trkpt lat="44.3193551" lon="10.8116923"><ele>726.0</ele><time>2026-05-02T13:05:09.178Z</time></trkpt><trkpt lat="44.3194878" lon="10.8116973"><ele>726.0</ele><time>2026-05-02T13:05:10.225Z</time></trkpt><trkpt lat="44.3196168" lon="10.8116978"><ele>726.0</ele><time>2026-05-02T13:05:11.218Z</time></trkpt><trkpt lat="44.3197327" lon="10.8116855"><ele>726.0</ele><time>2026-05-02T13:05:12.224Z</time></trkpt><trkpt lat="44.3198329" lon="10.8116463"><ele>725.0</ele><time>2026-05-02T13:05:13.232Z</time></trkpt><trkpt lat="44.3199195" lon="10.8115826"><ele>724.0</ele><time>2026-05-02T13:05:14.211Z</time></trkpt><trkpt lat="44.3200049" lon="10.8115064"><ele>723.0</ele><time>2026-05-02T13:05:15.229Z</time></trkpt><trkpt lat="44.3200774" lon="10.8114083"><ele>722.0</ele><time>2026-05-02T13:05:16.217Z</time></trkpt><trkpt lat="44.3201575" lon="10.811334"><ele>721.0</ele><time>2026-05-02T13:05:17.23Z</time></trkpt><trkpt lat="44.3202358" lon="10.8112747"><ele>721.0</ele><time>2026-05-02T13:05:18.218Z</time></trkpt><trkpt lat="44.3203172" lon="10.8112324"><ele>721.0</ele><time>2026-05-02T13:05:19.224Z</time></trkpt><trkpt lat="44.3203997" lon="10.81121"><ele>721.0</ele><time>2026-05-02T13:05:20.244Z</time></trkpt><trkpt lat="44.3204894" lon="10.8112257"><ele>721.0</ele><time>2026-05-02T13:05:21.212Z</time></trkpt><trkpt lat="44.3205766" lon="10.8112777"><ele>721.0</ele><time>2026-05-02T13:05:22.231Z</time></trkpt><trkpt lat="44.3206622" lon="10.8113551"><ele>721.0</ele><time>2026-05-02T13:05:23.231Z</time></trkpt><trkpt lat="44.3207529" lon="10.8114422"><ele>721.0</ele><time>2026-05-02T13:05:24.212Z</time></trkpt><trkpt lat="44.3208458" lon="10.8115195"><ele>721.0</ele><time>2026-05-02T13:05:25.244Z</time></trkpt><trkpt lat="44.3209406" lon="10.8115852"><ele>721.0</ele><time>2026-05-02T13:05:26.192Z</time></trkpt><trkpt lat="44.3210406" lon="10.8116401"><ele>721.0</ele><time>2026-05-02T13:05:27.22Z</time></trkpt><trkpt lat="44.3211453" lon="10.8116819"><ele>721.0</ele><time>2026-05-02T13:05:28.236Z</time></trkpt><trkpt lat="44.3212498" lon="10.8117199"><ele>721.0</ele><time>2026-05-02T13:05:29.234Z</time></trkpt><trkpt lat="44.3213553" lon="10.8117567"><ele>721.0</ele><time>2026-05-02T13:05:30.225Z</time></trkpt><trkpt lat="44.3214532" lon="10.8117939"><ele>721.0</ele><time>2026-05-02T13:05:31.234Z</time></trkpt><trkpt lat="44.3215405" lon="10.811838"><ele>721.0</ele><time>2026-05-02T13:05:32.249Z</time></trkpt><trkpt lat="44.3216227" lon="10.8118977"><ele>722.1999999999999</ele><time>2026-05-02T13:05:33.232Z</time></trkpt><trkpt lat="44.3216978" lon="10.8119766"><ele>723.4</ele><time>2026-05-02T13:05:34.239Z</time></trkpt><trkpt lat="44.321768" lon="10.8120706"><ele>724.6</ele><time>2026-05-02T13:05:35.246Z</time></trkpt><trkpt lat="44.3218383" lon="10.8121776"><ele>725.8</ele><time>2026-05-02T13:05:36.281Z</time></trkpt><trkpt lat="44.3219118" lon="10.8122889"><ele>727.0</ele><time>2026-05-02T13:05:37.229Z</time></trkpt><trkpt lat="44.3219813" lon="10.8123965"><ele>727.0</ele><time>2026-05-02T13:05:38.259Z</time></trkpt><trkpt lat="44.3220528" lon="10.8124959"><ele>727.0</ele><time>2026-05-02T13:05:39.257Z</time></trkpt><trkpt lat="44.3221305" lon="10.8125781"><ele>727.0</ele><time>2026-05-02T13:05:40.234Z</time></trkpt><trkpt lat="44.3222174" lon="10.8126354"><ele>727.0</ele><time>2026-05-02T13:05:41.244Z</time></trkpt><trkpt lat="44.3223102" lon="10.8126681"><ele>727.0</ele><time>2026-05-02T13:05:42.243Z</time></trkpt><trkpt lat="44.3224052" lon="10.8126823"><ele>728.4000000000001</ele><time>2026-05-02T13:05:43.216Z</time></trkpt><trkpt lat="44.3225048" lon="10.8126859"><ele>729.8000000000001</ele><time>2026-05-02T13:05:44.22Z</time></trkpt><trkpt lat="44.322608" lon="10.8126801"><ele>731.2</ele><time>2026-05-02T13:05:45.244Z</time></trkpt><trkpt lat="44.3227106" lon="10.8126804"><ele>732.6</ele><time>2026-05-02T13:05:46.231Z</time></trkpt><trkpt lat="44.3228122" lon="10.8127004"><ele>734.0</ele><time>2026-05-02T13:05:47.208Z</time></trkpt><trkpt lat="44.3229118" lon="10.8127408"><ele>734.0</ele><time>2026-05-02T13:05:48.271Z</time></trkpt><trkpt lat="44.32301" lon="10.8127984"><ele>734.0</ele><time>2026-05-02T13:05:49.22Z</time></trkpt><trkpt lat="44.32311" lon="10.812869"><ele>734.0</ele><time>2026-05-02T13:05:50.221Z</time></trkpt><trkpt lat="44.3232088" lon="10.8129405"><ele>734.0</ele><time>2026-05-02T13:05:51.231Z</time></trkpt><trkpt lat="44.3233079" lon="10.8130029"><ele>734.0</ele><time>2026-05-02T13:05:52.236Z</time></trkpt><trkpt lat="44.3234103" lon="10.8130532"><ele>734.2</ele><time>2026-05-02T13:05:53.218Z</time></trkpt><trkpt lat="44.3235168" lon="10.813094"><ele>734.4000000000001</ele><time>2026-05-02T13:05:54.271Z</time></trkpt><trkpt lat="44.3236206" lon="10.8131289"><ele>734.6</ele><time>2026-05-02T13:05:55.225Z</time></trkpt><trkpt lat="44.3237187" lon="10.8131568"><ele>734.8</ele><time>2026-05-02T13:05:56.235Z</time></trkpt><trkpt lat="44.3238147" lon="10.8131825"><ele>735.0</ele><time>2026-05-02T13:05:57.254Z</time></trkpt><trkpt lat="44.3239117" lon="10.8132085"><ele>736.0</ele><time>2026-05-02T13:05:58.234Z</time></trkpt><trkpt lat="44.3240033" lon="10.8132312"><ele>737.0</ele><time>2026-05-02T13:05:59.219Z</time></trkpt><trkpt lat="44.3240903" lon="10.8132455"><ele>738.0</ele><time>2026-05-02T13:06:00.25Z</time></trkpt><trkpt lat="44.3241757" lon="10.8132575"><ele>739.0</ele><time>2026-05-02T13:06:01.217Z</time></trkpt><trkpt lat="44.324266" lon="10.8132477"><ele>740.0</ele><time>2026-05-02T13:06:02.255Z</time></trkpt><trkpt lat="44.3243621" lon="10.8132316"><ele>740.0</ele><time>2026-05-02T13:06:03.207Z</time></trkpt><trkpt lat="44.3244659" lon="10.8132153"><ele>740.0</ele><time>2026-05-02T13:06:04.239Z</time></trkpt><trkpt lat="44.3245741" lon="10.8131956"><ele>740.0</ele><time>2026-05-02T13:06:05.248Z</time></trkpt><trkpt lat="44.3246754" lon="10.8131823"><ele>740.0</ele><time>2026-05-02T13:06:06.262Z</time></trkpt><trkpt lat="44.3247732" lon="10.8131734"><ele>740.0</ele><time>2026-05-02T13:06:07.229Z</time></trkpt><trkpt lat="44.3248646" lon="10.8131788"><ele>741.0</ele><time>2026-05-02T13:06:08.23Z</time></trkpt><trkpt lat="44.3249433" lon="10.8131844"><ele>742.0</ele><time>2026-05-02T13:06:09.254Z</time></trkpt><trkpt lat="44.3250533" lon="10.8132019"><ele>743.0</ele><time>2026-05-02T13:06:11.246Z</time></trkpt><trkpt lat="44.3251243" lon="10.8132078"><ele>744.0</ele><time>2026-05-02T13:06:13.211Z</time></trkpt><trkpt lat="44.3251917" lon="10.8132228"><ele>745.0</ele><time>2026-05-02T13:06:15.228Z</time></trkpt><trkpt lat="44.3252336" lon="10.813298"><ele>746.0</ele><time>2026-05-02T13:06:17.232Z</time></trkpt><trkpt lat="44.3252618" lon="10.8134449"><ele>749.0</ele><time>2026-05-02T13:06:19.231Z</time></trkpt><trkpt lat="44.3253006" lon="10.8135868"><ele>752.0</ele><time>2026-05-02T13:06:21.233Z</time></trkpt><trkpt lat="44.3253486" lon="10.8136894"><ele>755.0</ele><time>2026-05-02T13:06:23.254Z</time></trkpt><trkpt lat="44.3254012" lon="10.8137786"><ele>758.0</ele><time>2026-05-02T13:06:25.23Z</time></trkpt><trkpt lat="44.3254666" lon="10.8138401"><ele>761.0</ele><time>2026-05-02T13:06:27.229Z</time></trkpt><trkpt lat="44.3255469" lon="10.8138955"><ele>764.0</ele><time>2026-05-02T13:06:29.193Z</time></trkpt><trkpt lat="44.3256085" lon="10.8139799"><ele>764.0</ele><time>2026-05-02T13:06:31.214Z</time></trkpt><trkpt lat="44.3256133" lon="10.8140914"><ele>764.0</ele><time>2026-05-02T13:06:33.227Z</time></trkpt><trkpt lat="44.3255401" lon="10.8142335"><ele>764.0</ele><time>2026-05-02T13:06:35.236Z</time></trkpt><trkpt lat="44.3254695" lon="10.8143047"><ele>764.0</ele><time>2026-05-02T13:06:36.232Z</time></trkpt><trkpt lat="44.3253986" lon="10.814364"><ele>764.0</ele><time>2026-05-02T13:06:37.243Z</time></trkpt><trkpt lat="44.3253388" lon="10.8144031"><ele>764.0</ele><time>2026-05-02T13:06:38.244Z</time></trkpt><trkpt lat="44.3252298" lon="10.8144111"><ele>764.0</ele><time>2026-05-02T13:06:40.239Z</time></trkpt><trkpt lat="44.325165" lon="10.8143762"><ele>764.0</ele><time>2026-05-02T13:06:41.221Z</time></trkpt><trkpt lat="44.3250946" lon="10.8143325"><ele>764.0</ele><time>2026-05-02T13:06:42.214Z</time></trkpt><trkpt lat="44.3250313" lon="10.8142936"><ele>764.0</ele><time>2026-05-02T13:06:43.21Z</time></trkpt><trkpt lat="44.3249629" lon="10.8142651"><ele>764.0</ele><time>2026-05-02T13:06:44.222Z</time></trkpt><trkpt lat="44.3249015" lon="10.8142377"><ele>764.0</ele><time>2026-05-02T13:06:45.243Z</time></trkpt><trkpt lat="44.3248131" lon="10.8142158"><ele>764.0</ele><time>2026-05-02T13:06:47.24Z</time></trkpt><trkpt lat="44.3247033" lon="10.8142091"><ele>763.4000000000001</ele><time>2026-05-02T13:06:49.284Z</time></trkpt><trkpt lat="44.3246365" lon="10.8142235"><ele>762.8</ele><time>2026-05-02T13:06:50.228Z</time></trkpt><trkpt lat="44.3245021" lon="10.8142802"><ele>762.2</ele><time>2026-05-02T13:06:52.222Z</time></trkpt><trkpt lat="44.3244296" lon="10.8143127"><ele>761.5999999999999</ele><time>2026-05-02T13:06:53.233Z</time></trkpt><trkpt lat="44.3243542" lon="10.8144006"><ele>761.0</ele><time>2026-05-02T13:06:55.263Z</time></trkpt><trkpt lat="44.3243216" lon="10.8145466"><ele>765.0</ele><time>2026-05-02T13:06:57.232Z</time></trkpt><trkpt lat="44.3243322" lon="10.8147104"><ele>769.0</ele><time>2026-05-02T13:06:59.252Z</time></trkpt><trkpt lat="44.3243503" lon="10.8148655"><ele>773.0</ele><time>2026-05-02T13:07:01.221Z</time></trkpt><trkpt lat="44.3243626" lon="10.8150372"><ele>777.0</ele><time>2026-05-02T13:07:03.205Z</time></trkpt><trkpt lat="44.3243972" lon="10.8151761"><ele>779.6666666666666</ele><time>2026-05-02T13:07:05.233Z</time></trkpt><trkpt lat="44.3244843" lon="10.8152461"><ele>782.3333333333333</ele><time>2026-05-02T13:07:07.235Z</time></trkpt><trkpt lat="44.3245547" lon="10.8153599"><ele>785.0</ele><time>2026-05-02T13:07:09.241Z</time></trkpt><trkpt lat="44.3245808" lon="10.815449"><ele>787.6666666666666</ele><time>2026-05-02T13:07:10.257Z</time></trkpt><trkpt lat="44.3246053" lon="10.8155474"><ele>790.3333333333333</ele><time>2026-05-02T13:07:11.25Z</time></trkpt><trkpt lat="44.3246331" lon="10.81565"><ele>793.0</ele><time>2026-05-02T13:07:12.236Z</time></trkpt><trkpt lat="44.3246608" lon="10.8157517"><ele>792.9999999999999</ele><time>2026-05-02T13:07:13.228Z</time></trkpt><trkpt lat="44.3246857" lon="10.8158413"><ele>793.0</ele><time>2026-05-02T13:07:14.21Z</time></trkpt><trkpt lat="44.3247084" lon="10.8159274"><ele>793.0</ele><time>2026-05-02T13:07:15.224Z</time></trkpt><trkpt lat="44.3247378" lon="10.8160734"><ele>793.0</ele><time>2026-05-02T13:07:17.23Z</time></trkpt><trkpt lat="44.3247547" lon="10.8161662"><ele>792.9999999999999</ele><time>2026-05-02T13:07:20.227Z</time></trkpt><trkpt lat="44.3248277" lon="10.8161769"><ele>793.0</ele><time>2026-05-02T13:07:22.202Z</time></trkpt><trkpt lat="44.3249404" lon="10.8162149"><ele>798.9999999999999</ele><time>2026-05-02T13:07:24.247Z</time></trkpt><trkpt lat="44.3250566" lon="10.8162971"><ele>805.0</ele><time>2026-05-02T13:07:26.211Z</time></trkpt><trkpt lat="44.3251197" lon="10.816344"><ele>811.0</ele><time>2026-05-02T13:07:27.232Z</time></trkpt><trkpt lat="44.3251855" lon="10.8163891"><ele>817.0</ele><time>2026-05-02T13:07:28.243Z</time></trkpt><trkpt lat="44.3252512" lon="10.8164367"><ele>822.9999999999999</ele><time>2026-05-02T13:07:29.234Z</time></trkpt><trkpt lat="44.3253165" lon="10.8164733"><ele>829.0</ele><time>2026-05-02T13:07:30.264Z</time></trkpt><trkpt lat="44.3253897" lon="10.816513"><ele>828.9999999999999</ele><time>2026-05-02T13:07:31.244Z</time></trkpt><trkpt lat="44.3254614" lon="10.8165469"><ele>829.0</ele><time>2026-05-02T13:07:32.226Z</time></trkpt><trkpt lat="44.3255285" lon="10.8165801"><ele>829.0</ele><time>2026-05-02T13:07:33.172Z</time></trkpt><trkpt lat="44.325644" lon="10.8166173"><ele>829.0</ele><time>2026-05-02T13:07:35.205Z</time></trkpt><trkpt lat="44.3257202" lon="10.8166263"><ele>828.9999999999999</ele><time>2026-05-02T13:07:36.245Z</time></trkpt><trkpt lat="44.3257866" lon="10.8166409"><ele>829.0</ele><time>2026-05-02T13:07:37.229Z</time></trkpt><trkpt lat="44.3258529" lon="10.816648"><ele>828.2</ele><time>2026-05-02T13:07:38.228Z</time></trkpt><trkpt lat="44.3259185" lon="10.8166535"><ele>827.4000000000001</ele><time>2026-05-02T13:07:39.246Z</time></trkpt><trkpt lat="44.3260396" lon="10.8166767"><ele>826.6</ele><time>2026-05-02T13:07:41.225Z</time></trkpt><trkpt lat="44.3261576" lon="10.8167194"><ele>825.8</ele><time>2026-05-02T13:07:43.238Z</time></trkpt><trkpt lat="44.3262682" lon="10.81676"><ele>825.0</ele><time>2026-05-02T13:07:45.223Z</time></trkpt><trkpt lat="44.3263738" lon="10.8167802"><ele>824.1666666666666</ele><time>2026-05-02T13:07:47.264Z</time></trkpt><trkpt lat="44.3264764" lon="10.8168017"><ele>823.3333333333333</ele><time>2026-05-02T13:07:49.223Z</time></trkpt><trkpt lat="44.3265444" lon="10.8168319"><ele>822.5</ele><time>2026-05-02T13:07:51.217Z</time></trkpt><trkpt lat="44.3266066" lon="10.8168486"><ele>821.6666666666666</ele><time>2026-05-02T13:07:53.232Z</time></trkpt><trkpt lat="44.3266882" lon="10.8168497"><ele>820.8333333333333</ele><time>2026-05-02T13:07:56.254Z</time></trkpt><trkpt lat="44.3267758" lon="10.8168655"><ele>820.0</ele><time>2026-05-02T13:07:58.216Z</time></trkpt><trkpt lat="44.3268517" lon="10.8169026"><ele>822.8333333333333</ele><time>2026-05-02T13:08:00.265Z</time></trkpt><trkpt lat="44.3269254" lon="10.8169558"><ele>825.6666666666666</ele><time>2026-05-02T13:08:02.217Z</time></trkpt><trkpt lat="44.3270321" lon="10.8169808"><ele>828.5</ele><time>2026-05-02T13:08:04.245Z</time></trkpt><trkpt lat="44.3270929" lon="10.8170049"><ele>831.3333333333333</ele><time>2026-05-02T13:08:05.244Z</time></trkpt><trkpt lat="44.3271532" lon="10.8170302"><ele>834.1666666666666</ele><time>2026-05-02T13:08:06.25Z</time></trkpt><trkpt lat="44.327218" lon="10.8170522"><ele>837.0</ele><time>2026-05-02T13:08:07.233Z</time></trkpt><trkpt lat="44.3272849" lon="10.8170891"><ele>837.0</ele><time>2026-05-02T13:08:08.245Z</time></trkpt><trkpt lat="44.3273503" lon="10.8171294"><ele>837.0</ele><time>2026-05-02T13:08:09.242Z</time></trkpt><trkpt lat="44.3274447" lon="10.8172125"><ele>837.0</ele><time>2026-05-02T13:08:11.228Z</time></trkpt><trkpt lat="44.3275244" lon="10.8173169"><ele>837.0</ele><time>2026-05-02T13:08:13.204Z</time></trkpt><trkpt lat="44.327596" lon="10.8174376"><ele>837.0</ele><time>2026-05-02T13:08:15.283Z</time></trkpt><trkpt lat="44.3276529" lon="10.8175295"><ele>837.0</ele><time>2026-05-02T13:08:17.225Z</time></trkpt><trkpt lat="44.3277245" lon="10.8174929"><ele>837.0</ele><time>2026-05-02T13:08:20.239Z</time></trkpt><trkpt lat="44.3277952" lon="10.8174868"><ele>837.0</ele><time>2026-05-02T13:08:22.193Z</time></trkpt><trkpt lat="44.3278707" lon="10.8174899"><ele>837.0</ele><time>2026-05-02T13:08:25.236Z</time></trkpt><trkpt lat="44.3279359" lon="10.8174825"><ele>837.0</ele><time>2026-05-02T13:08:27.244Z</time></trkpt><trkpt lat="44.3280054" lon="10.8174801"><ele>837.0</ele><time>2026-05-02T13:08:29.211Z</time></trkpt><trkpt lat="44.3281009" lon="10.8174749"><ele>836.5</ele><time>2026-05-02T13:08:31.184Z</time></trkpt><trkpt lat="44.3282252" lon="10.8174642"><ele>836.0</ele><time>2026-05-02T13:08:33.237Z</time></trkpt><trkpt lat="44.3283399" lon="10.8174568"><ele>835.5</ele><time>2026-05-02T13:08:35.241Z</time></trkpt><trkpt lat="44.3284568" lon="10.8174495"><ele>835.0</ele><time>2026-05-02T13:08:37.23Z</time></trkpt><trkpt lat="44.3285721" lon="10.8174377"><ele>835.0</ele><time>2026-05-02T13:08:39.22Z</time></trkpt><trkpt lat="44.328685" lon="10.81743"><ele>835.0</ele><time>2026-05-02T13:08:41.253Z</time></trkpt><trkpt lat="44.3287924" lon="10.8174443"><ele>835.0</ele><time>2026-05-02T13:08:43.297Z</time></trkpt><trkpt lat="44.3289055" lon="10.8174804"><ele>835.0</ele><time>2026-05-02T13:08:45.246Z</time></trkpt><trkpt lat="44.3290119" lon="10.8175341"><ele>834.8333333333333</ele><time>2026-05-02T13:08:47.218Z</time></trkpt><trkpt lat="44.3290696" lon="10.8175718"><ele>834.6666666666666</ele><time>2026-05-02T13:08:48.236Z</time></trkpt><trkpt lat="44.32913" lon="10.8176029"><ele>834.5</ele><time>2026-05-02T13:08:49.259Z</time></trkpt><trkpt lat="44.3292284" lon="10.8176846"><ele>834.3333333333333</ele><time>2026-05-02T13:08:51.235Z</time></trkpt><trkpt lat="44.3293052" lon="10.8177929"><ele>834.1666666666666</ele><time>2026-05-02T13:08:53.228Z</time></trkpt><trkpt lat="44.3293538" lon="10.8178788"><ele>834.0</ele><time>2026-05-02T13:08:55.268Z</time></trkpt><trkpt lat="44.3294274" lon="10.8179029"><ele>835.5</ele><time>2026-05-02T13:08:56.254Z</time></trkpt><trkpt lat="44.3294978" lon="10.8179356"><ele>837.0</ele><time>2026-05-02T13:08:57.239Z</time></trkpt><trkpt lat="44.3295601" lon="10.8179639"><ele>838.5</ele><time>2026-05-02T13:08:58.236Z</time></trkpt><trkpt lat="44.329679" lon="10.8179429"><ele>840.0</ele><time>2026-05-02T13:09:00.225Z</time></trkpt><trkpt lat="44.3297592" lon="10.8179192"><ele>841.5</ele><time>2026-05-02T13:09:02.233Z</time></trkpt><trkpt lat="44.3298641" lon="10.8179419"><ele>843.0</ele><time>2026-05-02T13:09:05.253Z</time></trkpt><trkpt lat="44.3299669" lon="10.8179586"><ele>843.1666666666666</ele><time>2026-05-02T13:09:07.231Z</time></trkpt><trkpt lat="44.3300515" lon="10.8179583"><ele>843.3333333333333</ele><time>2026-05-02T13:09:10.264Z</time></trkpt><trkpt lat="44.3301341" lon="10.8179928"><ele>843.5</ele><time>2026-05-02T13:09:13.202Z</time></trkpt><trkpt lat="44.3302055" lon="10.8180246"><ele>843.6666666666666</ele><time>2026-05-02T13:09:15.226Z</time></trkpt><trkpt lat="44.3302721" lon="10.8180465"><ele>843.8333333333333</ele><time>2026-05-02T13:09:18.236Z</time></trkpt><trkpt lat="44.3303503" lon="10.8180729"><ele>844.0</ele><time>2026-05-02T13:09:22.235Z</time></trkpt><trkpt lat="44.3304181" lon="10.8180621"><ele>843.9999999999999</ele><time>2026-05-02T13:09:25.224Z</time></trkpt><trkpt lat="44.3304862" lon="10.8180606"><ele>844.0</ele><time>2026-05-02T13:09:30.23Z</time></trkpt><trkpt lat="44.3305563" lon="10.8180461"><ele>844.0</ele><time>2026-05-02T13:09:35.27Z</time></trkpt><trkpt lat="44.3306246" lon="10.8179934"><ele>844.0</ele><time>2026-05-02T13:09:38.269Z</time></trkpt><trkpt lat="44.3307065" lon="10.8179689"><ele>843.9999999999999</ele><time>2026-05-02T13:09:40.243Z</time></trkpt><trkpt lat="44.3307748" lon="10.8179461"><ele>844.0</ele><time>2026-05-02T13:09:42.254Z</time></trkpt><trkpt lat="44.3308567" lon="10.8179492"><ele>841.8333333333333</ele><time>2026-05-02T13:09:45.259Z</time></trkpt><trkpt lat="44.3309332" lon="10.8179581"><ele>839.6666666666666</ele><time>2026-05-02T13:10:34.241Z</time></trkpt><trkpt lat="44.3309998" lon="10.817965"><ele>837.5</ele><time>2026-05-02T13:10:37.237Z</time></trkpt><trkpt lat="44.3310761" lon="10.8179361"><ele>835.3333333333333</ele><time>2026-05-02T13:10:41.239Z</time></trkpt><trkpt lat="44.3311343" lon="10.8178753"><ele>833.1666666666666</ele><time>2026-05-02T13:10:44.21Z</time></trkpt><trkpt lat="44.3312431" lon="10.8178635"><ele>831.0</ele><time>2026-05-02T13:10:47.242Z</time></trkpt><trkpt lat="44.3313345" lon="10.8178559"><ele>826.75</ele><time>2026-05-02T13:10:49.275Z</time></trkpt><trkpt lat="44.3314459" lon="10.8178222"><ele>822.5</ele><time>2026-05-02T13:10:51.259Z</time></trkpt><trkpt lat="44.3315695" lon="10.8178107"><ele>818.25</ele><time>2026-05-02T13:10:53.244Z</time></trkpt><trkpt lat="44.3316958" lon="10.81778"><ele>814.0</ele><time>2026-05-02T13:10:55.279Z</time></trkpt><trkpt lat="44.3318065" lon="10.8177459"><ele>814.0</ele><time>2026-05-02T13:10:57.249Z</time></trkpt><trkpt lat="44.3318997" lon="10.8177374"><ele>814.0</ele><time>2026-05-02T13:10:59.237Z</time></trkpt><trkpt lat="44.331978" lon="10.8177363"><ele>814.0</ele><time>2026-05-02T13:11:01.245Z</time></trkpt><trkpt lat="44.3320744" lon="10.817704"><ele>814.0</ele><time>2026-05-02T13:11:03.246Z</time></trkpt><trkpt lat="44.3321926" lon="10.8176573"><ele>814.0</ele><time>2026-05-02T13:11:05.231Z</time></trkpt><trkpt lat="44.3323015" lon="10.8176199"><ele>816.0</ele><time>2026-05-02T13:11:07.228Z</time></trkpt><trkpt lat="44.3324214" lon="10.817607"><ele>818.0</ele><time>2026-05-02T13:11:09.237Z</time></trkpt><trkpt lat="44.3325355" lon="10.8175811"><ele>820.0</ele><time>2026-05-02T13:11:11.212Z</time></trkpt><trkpt lat="44.3326491" lon="10.8175609"><ele>822.0</ele><time>2026-05-02T13:11:13.233Z</time></trkpt><trkpt lat="44.332735" lon="10.8175408"><ele>824.0</ele><time>2026-05-02T13:11:14.246Z</time></trkpt><trkpt lat="44.3328072" lon="10.8175347"><ele>824.0000000000001</ele><time>2026-05-02T13:11:15.233Z</time></trkpt><trkpt lat="44.3329203" lon="10.8175666"><ele>824.0</ele><time>2026-05-02T13:11:17.222Z</time></trkpt><trkpt lat="44.3330075" lon="10.8176038"><ele>824.0</ele><time>2026-05-02T13:11:19.22Z</time></trkpt><trkpt lat="44.3330871" lon="10.8175814"><ele>824.0</ele><time>2026-05-02T13:11:21.229Z</time></trkpt><trkpt lat="44.3331339" lon="10.8175133"><ele>824.0000000000001</ele><time>2026-05-02T13:11:23.248Z</time></trkpt><trkpt lat="44.3331525" lon="10.817411"><ele>824.0</ele><time>2026-05-02T13:11:25.224Z</time></trkpt><trkpt lat="44.3332164" lon="10.8173391"><ele>824.6</ele><time>2026-05-02T13:11:27.269Z</time></trkpt><trkpt lat="44.3332806" lon="10.8172935"><ele>825.2</ele><time>2026-05-02T13:11:29.217Z</time></trkpt><trkpt lat="44.3333595" lon="10.8172036"><ele>825.8000000000001</ele><time>2026-05-02T13:11:31.242Z</time></trkpt><trkpt lat="44.3334322" lon="10.8170788"><ele>826.4000000000001</ele><time>2026-05-02T13:11:33.251Z</time></trkpt><trkpt lat="44.333513" lon="10.8169737"><ele>827.0</ele><time>2026-05-02T13:11:35.243Z</time></trkpt><trkpt lat="44.3335672" lon="10.816923"><ele>827.0</ele><time>2026-05-02T13:11:36.214Z</time></trkpt><trkpt lat="44.3336634" lon="10.8168714"><ele>827.0</ele><time>2026-05-02T13:11:38.224Z</time></trkpt><trkpt lat="44.3337505" lon="10.8168667"><ele>827.0</ele><time>2026-05-02T13:11:40.262Z</time></trkpt><trkpt lat="44.3338252" lon="10.8168901"><ele>827.0</ele><time>2026-05-02T13:11:42.238Z</time></trkpt><trkpt lat="44.3339246" lon="10.8169788"><ele>827.0</ele><time>2026-05-02T13:11:44.233Z</time></trkpt><trkpt lat="44.3340021" lon="10.8170647"><ele>825.6666666666667</ele><time>2026-05-02T13:11:46.242Z</time></trkpt><trkpt lat="44.3340845" lon="10.8171498"><ele>824.3333333333334</ele><time>2026-05-02T13:11:48.187Z</time></trkpt><trkpt lat="44.334169" lon="10.8172307"><ele>823.0</ele><time>2026-05-02T13:11:50.19Z</time></trkpt><trkpt lat="44.3342412" lon="10.8173104"><ele>821.6666666666667</ele><time>2026-05-02T13:11:52.211Z</time></trkpt><trkpt lat="44.334299" lon="10.8173714"><ele>820.3333333333334</ele><time>2026-05-02T13:11:54.196Z</time></trkpt><trkpt lat="44.3343528" lon="10.8174433"><ele>819.0</ele><time>2026-05-02T13:11:55.253Z</time></trkpt><trkpt lat="44.3344258" lon="10.8175462"><ele>819.0</ele><time>2026-05-02T13:11:57.217Z</time></trkpt><trkpt lat="44.334482" lon="10.8175955"><ele>819.0</ele><time>2026-05-02T13:11:59.239Z</time></trkpt><trkpt lat="44.3345665" lon="10.8175926"><ele>819.0</ele><time>2026-05-02T13:12:02.221Z</time></trkpt><trkpt lat="44.3346372" lon="10.817582"><ele>819.0</ele><time>2026-05-02T13:12:04.236Z</time></trkpt><trkpt lat="44.3347117" lon="10.8175719"><ele>819.0</ele><time>2026-05-02T13:12:06.193Z</time></trkpt><trkpt lat="44.3348089" lon="10.8175326"><ele>819.0</ele><time>2026-05-02T13:12:09.226Z</time></trkpt><trkpt lat="44.3348561" lon="10.8174689"><ele>817.4000000000001</ele><time>2026-05-02T13:12:10.264Z</time></trkpt><trkpt lat="44.3349224" lon="10.8173655"><ele>815.8</ele><time>2026-05-02T13:12:12.226Z</time></trkpt><trkpt lat="44.3350137" lon="10.8173198"><ele>814.2</ele><time>2026-05-02T13:12:14.241Z</time></trkpt><trkpt lat="44.3350921" lon="10.8173274"><ele>812.5999999999999</ele><time>2026-05-02T13:12:16.206Z</time></trkpt><trkpt lat="44.3351791" lon="10.8173142"><ele>811.0</ele><time>2026-05-02T13:12:18.24Z</time></trkpt><trkpt lat="44.3352541" lon="10.8172395"><ele>811.0</ele><time>2026-05-02T13:12:20.211Z</time></trkpt><trkpt lat="44.3353791" lon="10.8171762"><ele>811.0</ele><time>2026-05-02T13:12:22.29Z</time></trkpt><trkpt lat="44.335493" lon="10.8171114"><ele>811.0</ele><time>2026-05-02T13:12:23.221Z</time></trkpt><trkpt lat="44.335551" lon="10.8170691"><ele>811.0</ele><time>2026-05-02T13:12:24.227Z</time></trkpt><trkpt lat="44.3356118" lon="10.8170343"><ele>811.0</ele><time>2026-05-02T13:12:25.27Z</time></trkpt><trkpt lat="44.3357098" lon="10.817006"><ele>808.4999999999999</ele><time>2026-05-02T13:12:26.25Z</time></trkpt><trkpt lat="44.3357741" lon="10.8169946"><ele>806.0</ele><time>2026-05-02T13:12:27.242Z</time></trkpt><trkpt lat="44.3358376" lon="10.816975"><ele>803.5</ele><time>2026-05-02T13:12:28.231Z</time></trkpt><trkpt lat="44.335919" lon="10.8169313"><ele>801.0</ele><time>2026-05-02T13:12:30.245Z</time></trkpt><trkpt lat="44.3360069" lon="10.8168288"><ele>798.4999999999999</ele><time>2026-05-02T13:12:32.229Z</time></trkpt><trkpt lat="44.3360573" lon="10.8167751"><ele>796.0</ele><time>2026-05-02T13:12:33.232Z</time></trkpt><trkpt lat="44.3361313" lon="10.8167379"><ele>794.8333333333333</ele><time>2026-05-02T13:12:35.231Z</time></trkpt><trkpt lat="44.3362064" lon="10.8167631"><ele>793.6666666666666</ele><time>2026-05-02T13:12:37.259Z</time></trkpt><trkpt lat="44.3362833" lon="10.8167533"><ele>792.5</ele><time>2026-05-02T13:12:39.224Z</time></trkpt><trkpt lat="44.3363391" lon="10.8167085"><ele>791.3333333333333</ele><time>2026-05-02T13:12:41.249Z</time></trkpt><trkpt lat="44.336406" lon="10.8166505"><ele>790.1666666666666</ele><time>2026-05-02T13:12:44.202Z</time></trkpt><trkpt lat="44.336463" lon="10.8165876"><ele>789.0</ele><time>2026-05-02T13:12:46.226Z</time></trkpt><trkpt lat="44.3365418" lon="10.8165353"><ele>788.6</ele><time>2026-05-02T13:12:48.238Z</time></trkpt><trkpt lat="44.3366362" lon="10.8165019"><ele>788.2</ele><time>2026-05-02T13:12:50.241Z</time></trkpt><trkpt lat="44.3367156" lon="10.8164805"><ele>787.8000000000001</ele><time>2026-05-02T13:12:52.221Z</time></trkpt><trkpt lat="44.3368128" lon="10.8164817"><ele>787.4000000000001</ele><time>2026-05-02T13:12:54.225Z</time></trkpt><trkpt lat="44.3369239" lon="10.8164943"><ele>787.0</ele><time>2026-05-02T13:12:56.224Z</time></trkpt><trkpt lat="44.3370331" lon="10.816505"><ele>786.9999999999999</ele><time>2026-05-02T13:12:58.231Z</time></trkpt><trkpt lat="44.3371037" lon="10.8165252"><ele>787.0</ele><time>2026-05-02T13:12:59.253Z</time></trkpt><trkpt lat="44.337186" lon="10.816546"><ele>787.0</ele><time>2026-05-02T13:13:00.24Z</time></trkpt><trkpt lat="44.3372578" lon="10.8165556"><ele>787.0</ele><time>2026-05-02T13:13:01.323Z</time></trkpt><trkpt lat="44.3373246" lon="10.8165628"><ele>786.9999999999999</ele><time>2026-05-02T13:13:02.252Z</time></trkpt><trkpt lat="44.3374492" lon="10.8165532"><ele>787.0</ele><time>2026-05-02T13:13:04.243Z</time></trkpt><trkpt lat="44.3375448" lon="10.8165423"><ele>787.2</ele><time>2026-05-02T13:13:06.228Z</time></trkpt><trkpt lat="44.3376287" lon="10.8165505"><ele>787.4000000000001</ele><time>2026-05-02T13:13:08.205Z</time></trkpt><trkpt lat="44.337702" lon="10.8165387"><ele>787.5999999999999</ele><time>2026-05-02T13:13:10.229Z</time></trkpt><trkpt lat="44.3378072" lon="10.8165598"><ele>787.8</ele><time>2026-05-02T13:13:12.302Z</time></trkpt><trkpt lat="44.3379078" lon="10.8165823"><ele>788.0</ele><time>2026-05-02T13:13:14.237Z</time></trkpt><trkpt lat="44.3380014" lon="10.8166028"><ele>787.8</ele><time>2026-05-02T13:13:16.255Z</time></trkpt><trkpt lat="44.3381116" lon="10.8165965"><ele>787.5999999999999</ele><time>2026-05-02T13:13:18.186Z</time></trkpt><trkpt lat="44.3382045" lon="10.8165721"><ele>787.4000000000001</ele><time>2026-05-02T13:13:20.187Z</time></trkpt><trkpt lat="44.3382756" lon="10.8165562"><ele>787.2</ele><time>2026-05-02T13:13:22.216Z</time></trkpt><trkpt lat="44.3383731" lon="10.8165813"><ele>787.0</ele><time>2026-05-02T13:13:24.238Z</time></trkpt><trkpt lat="44.3384824" lon="10.8165904"><ele>786.9999999999999</ele><time>2026-05-02T13:13:26.264Z</time></trkpt><trkpt lat="44.3385818" lon="10.8165942"><ele>787.0</ele><time>2026-05-02T13:13:28.297Z</time></trkpt><trkpt lat="44.3386893" lon="10.816584"><ele>787.0</ele><time>2026-05-02T13:13:30.223Z</time></trkpt><trkpt lat="44.3387758" lon="10.8165748"><ele>787.0</ele><time>2026-05-02T13:13:32.241Z</time></trkpt><trkpt lat="44.3388387" lon="10.8165835"><ele>786.9999999999999</ele><time>2026-05-02T13:13:34.247Z</time></trkpt><trkpt lat="44.3389023" lon="10.8166274"><ele>787.0</ele><time>2026-05-02T13:13:42.258Z</time></trkpt><trkpt lat="44.3388635" lon="10.8167046"><ele>786.9999999999999</ele><time>2026-05-02T13:13:44.242Z</time></trkpt><trkpt lat="44.3388002" lon="10.8167789"><ele>787.0</ele><time>2026-05-02T13:13:46.227Z</time></trkpt><trkpt lat="44.3387396" lon="10.8168323"><ele>787.0</ele><time>2026-05-02T13:13:48.27Z</time></trkpt><trkpt lat="44.3386678" lon="10.8168679"><ele>787.0</ele><time>2026-05-02T13:13:50.247Z</time></trkpt><trkpt lat="44.3385842" lon="10.8169128"><ele>786.9999999999999</ele><time>2026-05-02T13:13:52.247Z</time></trkpt><trkpt lat="44.338518" lon="10.8169631"><ele>787.0</ele><time>2026-05-02T13:13:54.213Z</time></trkpt><trkpt lat="44.3384527" lon="10.8170344"><ele>784.0</ele><time>2026-05-02T13:13:56.253Z</time></trkpt><trkpt lat="44.3383886" lon="10.8171392"><ele>781.0</ele><time>2026-05-02T13:13:58.249Z</time></trkpt><trkpt lat="44.338306" lon="10.8172251"><ele>778.0</ele><time>2026-05-02T13:14:00.23Z</time></trkpt><trkpt lat="44.3382127" lon="10.8172954"><ele>775.0</ele><time>2026-05-02T13:14:02.248Z</time></trkpt><trkpt lat="44.3381229" lon="10.8173809"><ele>772.0</ele><time>2026-05-02T13:14:04.224Z</time></trkpt><trkpt lat="44.3380335" lon="10.8174362"><ele>772.0000000000001</ele><time>2026-05-02T13:14:06.199Z</time></trkpt><trkpt lat="44.3379534" lon="10.8174799"><ele>772.0</ele><time>2026-05-02T13:14:08.226Z</time></trkpt><trkpt lat="44.3378758" lon="10.8174993"><ele>772.0</ele><time>2026-05-02T13:14:10.235Z</time></trkpt><trkpt lat="44.3378174" lon="10.8175442"><ele>772.0</ele><time>2026-05-02T13:14:12.262Z</time></trkpt><trkpt lat="44.3377637" lon="10.8175966"><ele>772.0</ele><time>2026-05-02T13:14:14.228Z</time></trkpt><trkpt lat="44.3376912" lon="10.8176457"><ele>772.0000000000001</ele><time>2026-05-02T13:14:16.262Z</time></trkpt><trkpt lat="44.3376403" lon="10.8177092"><ele>772.0</ele><time>2026-05-02T13:14:18.208Z</time></trkpt><trkpt lat="44.3375755" lon="10.8178252"><ele>769.4285714285714</ele><time>2026-05-02T13:14:21.192Z</time></trkpt><trkpt lat="44.3375359" lon="10.8178969"><ele>766.8571428571429</ele><time>2026-05-02T13:14:23.206Z</time></trkpt><trkpt lat="44.3375086" lon="10.8179874"><ele>764.2857142857142</ele><time>2026-05-02T13:14:26.233Z</time></trkpt><trkpt lat="44.3375068" lon="10.8180792"><ele>761.7142857142858</ele><time>2026-05-02T13:14:29.236Z</time></trkpt><trkpt lat="44.3374797" lon="10.8181835"><ele>759.1428571428571</ele><time>2026-05-02T13:14:32.251Z</time></trkpt><trkpt lat="44.3374726" lon="10.8182946"><ele>756.5714285714286</ele><time>2026-05-02T13:14:35.229Z</time></trkpt><trkpt lat="44.3374676" lon="10.8183974"><ele>754.0</ele><time>2026-05-02T13:14:37.221Z</time></trkpt><trkpt lat="44.3374701" lon="10.818523"><ele>754.3333333333334</ele><time>2026-05-02T13:14:40.257Z</time></trkpt><trkpt lat="44.3374653" lon="10.8186559"><ele>754.6666666666667</ele><time>2026-05-02T13:14:43.213Z</time></trkpt><trkpt lat="44.3374435" lon="10.8187502"><ele>755.0</ele><time>2026-05-02T13:14:45.31Z</time></trkpt><trkpt lat="44.3374184" lon="10.8188524"><ele>755.3333333333334</ele><time>2026-05-02T13:14:57.243Z</time></trkpt><trkpt lat="44.3373577" lon="10.8189283"><ele>755.6666666666666</ele><time>2026-05-02T13:15:00.256Z</time></trkpt><trkpt lat="44.3372852" lon="10.8189947"><ele>756.0</ele><time>2026-05-02T13:15:02.215Z</time></trkpt><trkpt lat="44.3372044" lon="10.8190384"><ele>756.0</ele><time>2026-05-02T13:15:04.243Z</time></trkpt><trkpt lat="44.3371079" lon="10.8191292"><ele>756.0</ele><time>2026-05-02T13:15:06.244Z</time></trkpt><trkpt lat="44.3370632" lon="10.819262"><ele>756.0</ele><time>2026-05-02T13:15:08.248Z</time></trkpt><trkpt lat="44.3370472" lon="10.8194036"><ele>756.0</ele><time>2026-05-02T13:15:10.233Z</time></trkpt><trkpt lat="44.3370195" lon="10.8195323"><ele>756.0</ele><time>2026-05-02T13:15:12.249Z</time></trkpt><trkpt lat="44.3369455" lon="10.8196456"><ele>753.4285714285714</ele><time>2026-05-02T13:15:14.25Z</time></trkpt><trkpt lat="44.3369019" lon="10.8197158"><ele>750.8571428571429</ele><time>2026-05-02T13:15:15.237Z</time></trkpt><trkpt lat="44.3368515" lon="10.8197829"><ele>748.2857142857142</ele><time>2026-05-02T13:15:16.241Z</time></trkpt><trkpt lat="44.3368011" lon="10.81985"><ele>745.7142857142858</ele><time>2026-05-02T13:15:17.222Z</time></trkpt><trkpt lat="44.3367485" lon="10.8199047"><ele>743.1428571428571</ele><time>2026-05-02T13:15:18.225Z</time></trkpt><trkpt lat="44.3366907" lon="10.8199464"><ele>740.5714285714286</ele><time>2026-05-02T13:15:19.21Z</time></trkpt><trkpt lat="44.3366206" lon="10.8199816"><ele>738.0</ele><time>2026-05-02T13:15:20.199Z</time></trkpt><trkpt lat="44.3365536" lon="10.8200041"><ele>738.0</ele><time>2026-05-02T13:15:21.215Z</time></trkpt><trkpt lat="44.3364857" lon="10.8200155"><ele>738.0</ele><time>2026-05-02T13:15:22.211Z</time></trkpt><trkpt lat="44.3363655" lon="10.8200133"><ele>738.0</ele><time>2026-05-02T13:15:24.336Z</time></trkpt><trkpt lat="44.3362724" lon="10.8200138"><ele>738.0</ele><time>2026-05-02T13:15:26.256Z</time></trkpt><trkpt lat="44.3361964" lon="10.8201036"><ele>738.0</ele><time>2026-05-02T13:15:28.221Z</time></trkpt><trkpt lat="44.3361209" lon="10.8202167"><ele>736.5</ele><time>2026-05-02T13:15:30.292Z</time></trkpt><trkpt lat="44.3360264" lon="10.820315"><ele>735.0</ele><time>2026-05-02T13:15:32.212Z</time></trkpt><trkpt lat="44.3359617" lon="10.8203775"><ele>733.5</ele><time>2026-05-02T13:15:33.265Z</time></trkpt><trkpt lat="44.3359031" lon="10.8204325"><ele>732.0</ele><time>2026-05-02T13:15:34.219Z</time></trkpt><trkpt lat="44.3358483" lon="10.8204837"><ele>730.5</ele><time>2026-05-02T13:15:35.256Z</time></trkpt><trkpt lat="44.3357873" lon="10.8205896"><ele>729.0</ele><time>2026-05-02T13:15:37.237Z</time></trkpt><trkpt lat="44.3357843" lon="10.8207226"><ele>729.0</ele><time>2026-05-02T13:15:39.247Z</time></trkpt><trkpt lat="44.335838" lon="10.8208763"><ele>729.0</ele><time>2026-05-02T13:15:41.195Z</time></trkpt><trkpt lat="44.3358585" lon="10.8209722"><ele>729.0</ele><time>2026-05-02T13:15:42.242Z</time></trkpt><trkpt lat="44.3358821" lon="10.8210646"><ele>729.0</ele><time>2026-05-02T13:15:43.235Z</time></trkpt><trkpt lat="44.3359134" lon="10.8211459"><ele>729.0</ele><time>2026-05-02T13:15:44.221Z</time></trkpt><trkpt lat="44.3359574" lon="10.8212228"><ele>729.0</ele><time>2026-05-02T13:15:45.243Z</time></trkpt><trkpt lat="44.3360045" lon="10.8212956"><ele>727.8333333333334</ele><time>2026-05-02T13:15:46.242Z</time></trkpt><trkpt lat="44.3360645" lon="10.8213706"><ele>726.6666666666666</ele><time>2026-05-02T13:15:47.307Z</time></trkpt><trkpt lat="44.3361202" lon="10.8214365"><ele>725.5</ele><time>2026-05-02T13:15:48.238Z</time></trkpt><trkpt lat="44.3361711" lon="10.8215129"><ele>724.3333333333333</ele><time>2026-05-02T13:15:49.228Z</time></trkpt><trkpt lat="44.3362312" lon="10.8216409"><ele>723.1666666666666</ele><time>2026-05-02T13:15:51.244Z</time></trkpt><trkpt lat="44.3362921" lon="10.821712"><ele>722.0</ele><time>2026-05-02T13:15:53.257Z</time></trkpt><trkpt lat="44.3363619" lon="10.821753"><ele>720.8333333333333</ele><time>2026-05-02T13:15:55.223Z</time></trkpt><trkpt lat="44.3364628" lon="10.8218126"><ele>719.6666666666666</ele><time>2026-05-02T13:15:57.229Z</time></trkpt><trkpt lat="44.3365277" lon="10.8218476"><ele>718.5</ele><time>2026-05-02T13:15:58.238Z</time></trkpt><trkpt lat="44.336591" lon="10.8218809"><ele>717.3333333333334</ele><time>2026-05-02T13:15:59.244Z</time></trkpt><trkpt lat="44.3366539" lon="10.8219132"><ele>716.1666666666667</ele><time>2026-05-02T13:16:00.254Z</time></trkpt><trkpt lat="44.3367236" lon="10.8219568"><ele>715.0</ele><time>2026-05-02T13:16:01.242Z</time></trkpt><trkpt lat="44.3367935" lon="10.822003"><ele>715.0</ele><time>2026-05-02T13:16:02.252Z</time></trkpt><trkpt lat="44.3368625" lon="10.8220543"><ele>715.0</ele><time>2026-05-02T13:16:03.263Z</time></trkpt><trkpt lat="44.3369303" lon="10.8221054"><ele>715.0</ele><time>2026-05-02T13:16:04.285Z</time></trkpt><trkpt lat="44.3369955" lon="10.82215"><ele>715.0</ele><time>2026-05-02T13:16:05.247Z</time></trkpt><trkpt lat="44.3370632" lon="10.8221993"><ele>715.0</ele><time>2026-05-02T13:16:06.253Z</time></trkpt><trkpt lat="44.3371305" lon="10.8222464"><ele>715.0</ele><time>2026-05-02T13:16:07.191Z</time></trkpt><trkpt lat="44.3371971" lon="10.82229"><ele>714.3333333333334</ele><time>2026-05-02T13:16:08.224Z</time></trkpt><trkpt lat="44.3372774" lon="10.8223078"><ele>713.6666666666667</ele><time>2026-05-02T13:16:09.246Z</time></trkpt><trkpt lat="44.3373572" lon="10.8223161"><ele>713.0</ele><time>2026-05-02T13:16:10.222Z</time></trkpt><trkpt lat="44.3374429" lon="10.8223179"><ele>712.3333333333334</ele><time>2026-05-02T13:16:11.231Z</time></trkpt><trkpt lat="44.3375333" lon="10.8223109"><ele>711.6666666666666</ele><time>2026-05-02T13:16:12.239Z</time></trkpt><trkpt lat="44.3376269" lon="10.8222982"><ele>711.0</ele><time>2026-05-02T13:16:13.252Z</time></trkpt><trkpt lat="44.3377211" lon="10.8222879"><ele>711.0</ele><time>2026-05-02T13:16:14.248Z</time></trkpt><trkpt lat="44.3378075" lon="10.8222768"><ele>711.0</ele><time>2026-05-02T13:16:15.267Z</time></trkpt><trkpt lat="44.3378903" lon="10.8222675"><ele>711.0</ele><time>2026-05-02T13:16:16.226Z</time></trkpt><trkpt lat="44.3379716" lon="10.8222556"><ele>711.0</ele><time>2026-05-02T13:16:17.236Z</time></trkpt><trkpt lat="44.3380542" lon="10.8222359"><ele>711.0</ele><time>2026-05-02T13:16:18.223Z</time></trkpt><trkpt lat="44.3381334" lon="10.8222087"><ele>711.0</ele><time>2026-05-02T13:16:19.241Z</time></trkpt><trkpt lat="44.3382074" lon="10.8221727"><ele>710.5999999999999</ele><time>2026-05-02T13:16:20.257Z</time></trkpt><trkpt lat="44.3382773" lon="10.8221308"><ele>710.2</ele><time>2026-05-02T13:16:21.216Z</time></trkpt><trkpt lat="44.3383376" lon="10.8220919"><ele>709.8</ele><time>2026-05-02T13:16:22.258Z</time></trkpt><trkpt lat="44.3384372" lon="10.8220193"><ele>709.4000000000001</ele><time>2026-05-02T13:16:24.214Z</time></trkpt><trkpt lat="44.3385251" lon="10.8219308"><ele>709.0</ele><time>2026-05-02T13:16:26.268Z</time></trkpt><trkpt lat="44.3386315" lon="10.8218709"><ele>709.0000000000001</ele><time>2026-05-02T13:16:28.225Z</time></trkpt><trkpt lat="44.3386961" lon="10.8218671"><ele>709.0</ele><time>2026-05-02T13:16:29.216Z</time></trkpt><trkpt lat="44.3387605" lon="10.8218697"><ele>709.0</ele><time>2026-05-02T13:16:30.238Z</time></trkpt><trkpt lat="44.3388292" lon="10.8218606"><ele>709.0</ele><time>2026-05-02T13:16:31.234Z</time></trkpt><trkpt lat="44.3388966" lon="10.8218474"><ele>709.0</ele><time>2026-05-02T13:16:32.206Z</time></trkpt><trkpt lat="44.3389671" lon="10.8218228"><ele>709.0000000000001</ele><time>2026-05-02T13:16:33.235Z</time></trkpt><trkpt lat="44.3390457" lon="10.8218035"><ele>709.0</ele><time>2026-05-02T13:16:34.22Z</time></trkpt><trkpt lat="44.3391254" lon="10.821809"><ele>707.5</ele><time>2026-05-02T13:16:35.222Z</time></trkpt><trkpt lat="44.3392112" lon="10.821832"><ele>706.0</ele><time>2026-05-02T13:16:36.237Z</time></trkpt><trkpt lat="44.3393048" lon="10.8218662"><ele>704.5</ele><time>2026-05-02T13:16:37.2Z</time></trkpt><trkpt lat="44.3393959" lon="10.8218937"><ele>703.0</ele><time>2026-05-02T13:16:38.208Z</time></trkpt><trkpt lat="44.3394807" lon="10.8219183"><ele>701.5</ele><time>2026-05-02T13:16:39.231Z</time></trkpt><trkpt lat="44.339556" lon="10.8219363"><ele>700.0</ele><time>2026-05-02T13:16:40.227Z</time></trkpt><trkpt lat="44.3396269" lon="10.8219566"><ele>700.0</ele><time>2026-05-02T13:16:41.259Z</time></trkpt><trkpt lat="44.3396902" lon="10.8219738"><ele>700.0</ele><time>2026-05-02T13:16:42.246Z</time></trkpt><trkpt lat="44.339773" lon="10.8219928"><ele>700.0</ele><time>2026-05-02T13:16:44.233Z</time></trkpt><trkpt lat="44.3398425" lon="10.8219945"><ele>700.0</ele><time>2026-05-02T13:16:46.224Z</time></trkpt><trkpt lat="44.3399504" lon="10.821878"><ele>700.0</ele><time>2026-05-02T13:16:48.196Z</time></trkpt><trkpt lat="44.3400249" lon="10.8217923"><ele>698.6</ele><time>2026-05-02T13:16:49.23Z</time></trkpt><trkpt lat="44.3401028" lon="10.821718"><ele>697.2</ele><time>2026-05-02T13:16:50.202Z</time></trkpt><trkpt lat="44.3401919" lon="10.8216554"><ele>695.8</ele><time>2026-05-02T13:16:51.242Z</time></trkpt><trkpt lat="44.3402811" lon="10.821605"><ele>694.4</ele><time>2026-05-02T13:16:52.25Z</time></trkpt><trkpt lat="44.3403713" lon="10.8215597"><ele>693.0</ele><time>2026-05-02T13:16:53.261Z</time></trkpt><trkpt lat="44.3404485" lon="10.8215158"><ele>693.0</ele><time>2026-05-02T13:16:54.25Z</time></trkpt><trkpt lat="44.3405189" lon="10.8214777"><ele>693.0</ele><time>2026-05-02T13:16:55.245Z</time></trkpt><trkpt lat="44.3406302" lon="10.8214402"><ele>693.0</ele><time>2026-05-02T13:16:57.233Z</time></trkpt><trkpt lat="44.3407206" lon="10.8214938"><ele>693.0</ele><time>2026-05-02T13:16:59.23Z</time></trkpt><trkpt lat="44.3407578" lon="10.8215759"><ele>693.0</ele><time>2026-05-02T13:17:00.24Z</time></trkpt><trkpt lat="44.3407939" lon="10.8216856"><ele>693.0</ele><time>2026-05-02T13:17:01.204Z</time></trkpt><trkpt lat="44.3408391" lon="10.8218136"><ele>694.25</ele><time>2026-05-02T13:17:02.236Z</time></trkpt><trkpt lat="44.3408926" lon="10.8219649"><ele>695.5</ele><time>2026-05-02T13:17:03.222Z</time></trkpt><trkpt lat="44.3409515" lon="10.8221295"><ele>696.75</ele><time>2026-05-02T13:17:04.269Z</time></trkpt><trkpt lat="44.3410067" lon="10.822271"><ele>698.0</ele><time>2026-05-02T13:17:05.228Z</time></trkpt><trkpt lat="44.341057" lon="10.822388"><ele>698.0</ele><time>2026-05-02T13:17:06.236Z</time></trkpt><trkpt lat="44.3410984" lon="10.8224916"><ele>698.0</ele><time>2026-05-02T13:17:07.253Z</time></trkpt><trkpt lat="44.3411231" lon="10.8225943"><ele>698.0</ele><time>2026-05-02T13:17:08.214Z</time></trkpt><trkpt lat="44.341135" lon="10.8227089"><ele>698.0</ele><time>2026-05-02T13:17:09.24Z</time></trkpt><trkpt lat="44.3411401" lon="10.8228356"><ele>698.0</ele><time>2026-05-02T13:17:10.236Z</time></trkpt><trkpt lat="44.3411417" lon="10.8229638"><ele>698.0</ele><time>2026-05-02T13:17:11.283Z</time></trkpt><trkpt lat="44.3411436" lon="10.8230803"><ele>700.3333333333333</ele><time>2026-05-02T13:17:12.244Z</time></trkpt><trkpt lat="44.3411194" lon="10.8231906"><ele>702.6666666666666</ele><time>2026-05-02T13:17:13.221Z</time></trkpt><trkpt lat="44.3410984" lon="10.8233061"><ele>705.0</ele><time>2026-05-02T13:17:14.244Z</time></trkpt><trkpt lat="44.3410939" lon="10.8234232"><ele>707.3333333333334</ele><time>2026-05-02T13:17:15.239Z</time></trkpt><trkpt lat="44.3411025" lon="10.8235442"><ele>709.6666666666667</ele><time>2026-05-02T13:17:16.229Z</time></trkpt><trkpt lat="44.3411192" lon="10.8236691"><ele>712.0</ele><time>2026-05-02T13:17:17.224Z</time></trkpt><trkpt lat="44.3411474" lon="10.8237889"><ele>713.3333333333334</ele><time>2026-05-02T13:17:18.231Z</time></trkpt><trkpt lat="44.341186" lon="10.8239033"><ele>714.6666666666667</ele><time>2026-05-02T13:17:19.249Z</time></trkpt><trkpt lat="44.3412224" lon="10.8240131"><ele>716.0</ele><time>2026-05-02T13:17:20.241Z</time></trkpt><trkpt lat="44.3412793" lon="10.8240973"><ele>717.3333333333334</ele><time>2026-05-02T13:17:21.216Z</time></trkpt><trkpt lat="44.3413437" lon="10.8241704"><ele>718.6666666666666</ele><time>2026-05-02T13:17:22.249Z</time></trkpt><trkpt lat="44.3414127" lon="10.8242149"><ele>720.0</ele><time>2026-05-02T13:17:23.236Z</time></trkpt><trkpt lat="44.3414918" lon="10.8242547"><ele>720.0</ele><time>2026-05-02T13:17:24.246Z</time></trkpt><trkpt lat="44.3415723" lon="10.8242899"><ele>720.0</ele><time>2026-05-02T13:17:25.238Z</time></trkpt><trkpt lat="44.3416574" lon="10.8243219"><ele>720.0</ele><time>2026-05-02T13:17:26.252Z</time></trkpt><trkpt lat="44.3417463" lon="10.8243569"><ele>720.0</ele><time>2026-05-02T13:17:27.26Z</time></trkpt><trkpt lat="44.3418535" lon="10.8244043"><ele>720.0</ele><time>2026-05-02T13:17:28.286Z</time></trkpt><trkpt lat="44.3419573" lon="10.8244547"><ele>721.8</ele><time>2026-05-02T13:17:29.216Z</time></trkpt><trkpt lat="44.3420626" lon="10.8245045"><ele>723.6</ele><time>2026-05-02T13:17:30.233Z</time></trkpt><trkpt lat="44.3421589" lon="10.8245583"><ele>725.4000000000001</ele><time>2026-05-02T13:17:31.237Z</time></trkpt><trkpt lat="44.3422481" lon="10.8246146"><ele>727.2</ele><time>2026-05-02T13:17:32.231Z</time></trkpt><trkpt lat="44.3423301" lon="10.8247059"><ele>729.0</ele><time>2026-05-02T13:17:33.244Z</time></trkpt><trkpt lat="44.3424142" lon="10.8248119"><ele>729.0</ele><time>2026-05-02T13:17:34.273Z</time></trkpt><trkpt lat="44.3424901" lon="10.8249057"><ele>729.0</ele><time>2026-05-02T13:17:35.239Z</time></trkpt><trkpt lat="44.3425752" lon="10.8249972"><ele>729.0</ele><time>2026-05-02T13:17:36.252Z</time></trkpt><trkpt lat="44.3426672" lon="10.8250925"><ele>729.0</ele><time>2026-05-02T13:17:37.256Z</time></trkpt><trkpt lat="44.3427728" lon="10.8251835"><ele>729.0</ele><time>2026-05-02T13:17:38.245Z</time></trkpt><trkpt lat="44.3428779" lon="10.8252739"><ele>729.25</ele><time>2026-05-02T13:17:39.227Z</time></trkpt><trkpt lat="44.3429772" lon="10.8253621"><ele>729.5</ele><time>2026-05-02T13:17:40.245Z</time></trkpt><trkpt lat="44.3430774" lon="10.8254414"><ele>729.75</ele><time>2026-05-02T13:17:41.257Z</time></trkpt><trkpt lat="44.3431799" lon="10.8255077"><ele>730.0</ele><time>2026-05-02T13:17:42.222Z</time></trkpt><trkpt lat="44.3432886" lon="10.8255782"><ele>729.25</ele><time>2026-05-02T13:17:43.246Z</time></trkpt><trkpt lat="44.3434041" lon="10.8256573"><ele>728.5</ele><time>2026-05-02T13:17:44.249Z</time></trkpt><trkpt lat="44.3435122" lon="10.825728"><ele>727.75</ele><time>2026-05-02T13:17:45.25Z</time></trkpt><trkpt lat="44.3436194" lon="10.8257953"><ele>727.0</ele><time>2026-05-02T13:17:46.254Z</time></trkpt><trkpt lat="44.3437212" lon="10.8258601"><ele>727.0</ele><time>2026-05-02T13:17:47.231Z</time></trkpt><trkpt lat="44.343822" lon="10.8259197"><ele>727.0</ele><time>2026-05-02T13:17:48.251Z</time></trkpt><trkpt lat="44.3439189" lon="10.8259732"><ele>727.0</ele><time>2026-05-02T13:17:49.248Z</time></trkpt><trkpt lat="44.3440111" lon="10.8260199"><ele>727.0</ele><time>2026-05-02T13:17:50.258Z</time></trkpt><trkpt lat="44.3441057" lon="10.8260593"><ele>727.0</ele><time>2026-05-02T13:17:51.252Z</time></trkpt><trkpt lat="44.3442068" lon="10.8260924"><ele>727.75</ele><time>2026-05-02T13:17:52.237Z</time></trkpt><trkpt lat="44.3443218" lon="10.8261272"><ele>728.5</ele><time>2026-05-02T13:17:53.269Z</time></trkpt><trkpt lat="44.3444373" lon="10.8261579"><ele>729.25</ele><time>2026-05-02T13:17:54.249Z</time></trkpt><trkpt lat="44.3445709" lon="10.8262087"><ele>730.0</ele><time>2026-05-02T13:17:55.227Z</time></trkpt><trkpt lat="44.344699" lon="10.8262579"><ele>731.0</ele><time>2026-05-02T13:17:56.252Z</time></trkpt><trkpt lat="44.3448139" lon="10.8262937"><ele>732.0</ele><time>2026-05-02T13:17:57.281Z</time></trkpt><trkpt lat="44.3449212" lon="10.8263151"><ele>733.0</ele><time>2026-05-02T13:17:58.226Z</time></trkpt><trkpt lat="44.345032" lon="10.8263333"><ele>734.0</ele><time>2026-05-02T13:17:59.222Z</time></trkpt><trkpt lat="44.3451574" lon="10.8263307"><ele>734.0</ele><time>2026-05-02T13:18:00.246Z</time></trkpt><trkpt lat="44.3452767" lon="10.8263254"><ele>734.0</ele><time>2026-05-02T13:18:01.253Z</time></trkpt><trkpt lat="44.34539" lon="10.8263216"><ele>734.0</ele><time>2026-05-02T13:18:02.259Z</time></trkpt><trkpt lat="44.3455011" lon="10.8263179"><ele>734.0</ele><time>2026-05-02T13:18:03.2Z</time></trkpt><trkpt lat="44.3456069" lon="10.8263128"><ele>733.5</ele><time>2026-05-02T13:18:04.273Z</time></trkpt><trkpt lat="44.345715" lon="10.8263102"><ele>733.0</ele><time>2026-05-02T13:18:05.249Z</time></trkpt><trkpt lat="44.3458309" lon="10.8263049"><ele>732.5</ele><time>2026-05-02T13:18:06.281Z</time></trkpt><trkpt lat="44.3459517" lon="10.826298"><ele>732.0</ele><time>2026-05-02T13:18:07.233Z</time></trkpt><trkpt lat="44.346064" lon="10.826291"><ele>732.0</ele><time>2026-05-02T13:18:08.211Z</time></trkpt><trkpt lat="44.346171" lon="10.8262903"><ele>732.0</ele><time>2026-05-02T13:18:09.253Z</time></trkpt><trkpt lat="44.3462744" lon="10.8262995"><ele>732.0</ele><time>2026-05-02T13:18:10.253Z</time></trkpt><trkpt lat="44.3463734" lon="10.8263209"><ele>732.0</ele><time>2026-05-02T13:18:11.266Z</time></trkpt><trkpt lat="44.3464673" lon="10.8263581"><ele>732.0</ele><time>2026-05-02T13:18:12.261Z</time></trkpt><trkpt lat="44.3465578" lon="10.8263954"><ele>732.2</ele><time>2026-05-02T13:18:13.26Z</time></trkpt><trkpt lat="44.3466455" lon="10.8264538"><ele>732.4000000000001</ele><time>2026-05-02T13:18:14.268Z</time></trkpt><trkpt lat="44.3467432" lon="10.8265231"><ele>732.5999999999999</ele><time>2026-05-02T13:18:15.244Z</time></trkpt><trkpt lat="44.3468425" lon="10.8265953"><ele>732.8</ele><time>2026-05-02T13:18:16.261Z</time></trkpt><trkpt lat="44.3469456" lon="10.8266582"><ele>733.0</ele><time>2026-05-02T13:18:17.224Z</time></trkpt><trkpt lat="44.347048" lon="10.826725"><ele>733.0</ele><time>2026-05-02T13:18:18.205Z</time></trkpt><trkpt lat="44.3471573" lon="10.8267913"><ele>733.0</ele><time>2026-05-02T13:18:19.273Z</time></trkpt><trkpt lat="44.3472725" lon="10.8268556"><ele>733.0</ele><time>2026-05-02T13:18:20.261Z</time></trkpt><trkpt lat="44.3473875" lon="10.8269106"><ele>733.0</ele><time>2026-05-02T13:18:21.261Z</time></trkpt><trkpt lat="44.3475044" lon="10.8269554"><ele>730.8</ele><time>2026-05-02T13:18:22.258Z</time></trkpt><trkpt lat="44.3476145" lon="10.8269821"><ele>728.5999999999999</ele><time>2026-05-02T13:18:23.226Z</time></trkpt><trkpt lat="44.347722" lon="10.826998"><ele>726.4000000000001</ele><time>2026-05-02T13:18:24.257Z</time></trkpt><trkpt lat="44.3478277" lon="10.8270088"><ele>724.2</ele><time>2026-05-02T13:18:25.249Z</time></trkpt><trkpt lat="44.3479311" lon="10.8270288"><ele>722.0</ele><time>2026-05-02T13:18:26.243Z</time></trkpt><trkpt lat="44.3480324" lon="10.8270637"><ele>722.8</ele><time>2026-05-02T13:18:27.243Z</time></trkpt><trkpt lat="44.348126" lon="10.8271156"><ele>723.6</ele><time>2026-05-02T13:18:28.243Z</time></trkpt><trkpt lat="44.3482106" lon="10.8271856"><ele>724.4</ele><time>2026-05-02T13:18:29.193Z</time></trkpt><trkpt lat="44.3482903" lon="10.8272683"><ele>725.1999999999999</ele><time>2026-05-02T13:18:30.239Z</time></trkpt><trkpt lat="44.348371" lon="10.8273562"><ele>726.0</ele><time>2026-05-02T13:18:31.24Z</time></trkpt><trkpt lat="44.3484494" lon="10.8274391"><ele>726.0</ele><time>2026-05-02T13:18:32.271Z</time></trkpt><trkpt lat="44.348524" lon="10.8275221"><ele>726.0</ele><time>2026-05-02T13:18:33.227Z</time></trkpt><trkpt lat="44.3485992" lon="10.827604"><ele>726.0</ele><time>2026-05-02T13:18:34.197Z</time></trkpt><trkpt lat="44.3486609" lon="10.8276806"><ele>726.0</ele><time>2026-05-02T13:18:35.267Z</time></trkpt><trkpt lat="44.3487374" lon="10.8277817"><ele>726.0</ele><time>2026-05-02T13:18:36.231Z</time></trkpt><trkpt lat="44.3488181" lon="10.8278872"><ele>725.4</ele><time>2026-05-02T13:18:37.207Z</time></trkpt><trkpt lat="44.3489012" lon="10.8280039"><ele>724.8</ele><time>2026-05-02T13:18:38.203Z</time></trkpt><trkpt lat="44.3489754" lon="10.8281129"><ele>724.1999999999999</ele><time>2026-05-02T13:18:39.177Z</time></trkpt><trkpt lat="44.3490464" lon="10.8282175"><ele>723.5999999999999</ele><time>2026-05-02T13:18:40.203Z</time></trkpt><trkpt lat="44.3491176" lon="10.8283234"><ele>723.0</ele><time>2026-05-02T13:18:41.202Z</time></trkpt><trkpt lat="44.3491847" lon="10.8284261"><ele>722.2</ele><time>2026-05-02T13:18:42.193Z</time></trkpt><trkpt lat="44.3492476" lon="10.8285267"><ele>721.4</ele><time>2026-05-02T13:18:43.215Z</time></trkpt><trkpt lat="44.3493154" lon="10.8286297"><ele>720.6</ele><time>2026-05-02T13:18:44.201Z</time></trkpt><trkpt lat="44.3493852" lon="10.8287391"><ele>719.8000000000001</ele><time>2026-05-02T13:18:45.22Z</time></trkpt><trkpt lat="44.3494595" lon="10.8288503"><ele>719.0</ele><time>2026-05-02T13:18:46.225Z</time></trkpt><trkpt lat="44.3495346" lon="10.8289604"><ele>719.0</ele><time>2026-05-02T13:18:47.231Z</time></trkpt><trkpt lat="44.3496115" lon="10.8290712"><ele>719.0</ele><time>2026-05-02T13:18:48.274Z</time></trkpt><trkpt lat="44.3496902" lon="10.8291851"><ele>719.0</ele><time>2026-05-02T13:18:49.265Z</time></trkpt><trkpt lat="44.3497665" lon="10.8292923"><ele>719.0</ele><time>2026-05-02T13:18:50.247Z</time></trkpt><trkpt lat="44.3498397" lon="10.8293923"><ele>719.0</ele><time>2026-05-02T13:18:51.253Z</time></trkpt><trkpt lat="44.3499106" lon="10.8294855"><ele>718.8333333333333</ele><time>2026-05-02T13:18:52.255Z</time></trkpt><trkpt lat="44.3499851" lon="10.8295691"><ele>718.6666666666666</ele><time>2026-05-02T13:18:53.241Z</time></trkpt><trkpt lat="44.3500676" lon="10.8296419"><ele>718.5</ele><time>2026-05-02T13:18:54.215Z</time></trkpt><trkpt lat="44.3501502" lon="10.8297031"><ele>718.3333333333334</ele><time>2026-05-02T13:18:55.236Z</time></trkpt><trkpt lat="44.350224" lon="10.8297463"><ele>718.1666666666667</ele><time>2026-05-02T13:18:56.237Z</time></trkpt><trkpt lat="44.3502846" lon="10.8297762"><ele>718.0</ele><time>2026-05-02T13:18:57.254Z</time></trkpt><trkpt lat="44.3503899" lon="10.8298055"><ele>718.0</ele><time>2026-05-02T13:18:59.258Z</time></trkpt><trkpt lat="44.350506" lon="10.8298129"><ele>718.0</ele><time>2026-05-02T13:19:01.264Z</time></trkpt><trkpt lat="44.3505823" lon="10.8298032"><ele>718.0</ele><time>2026-05-02T13:19:02.26Z</time></trkpt><trkpt lat="44.3506559" lon="10.829785"><ele>718.0</ele><time>2026-05-02T13:19:03.233Z</time></trkpt><trkpt lat="44.3507271" lon="10.8297631"><ele>718.0</ele><time>2026-05-02T13:19:04.25Z</time></trkpt><trkpt lat="44.350799" lon="10.8297412"><ele>718.0</ele><time>2026-05-02T13:19:05.253Z</time></trkpt><trkpt lat="44.3508712" lon="10.8297211"><ele>718.0</ele><time>2026-05-02T13:19:06.252Z</time></trkpt><trkpt lat="44.3509486" lon="10.8297044"><ele>718.0</ele><time>2026-05-02T13:19:07.214Z</time></trkpt><trkpt lat="44.3510385" lon="10.8296893"><ele>718.0</ele><time>2026-05-02T13:19:08.211Z</time></trkpt><trkpt lat="44.3511335" lon="10.8296733"><ele>718.0</ele><time>2026-05-02T13:19:09.255Z</time></trkpt><trkpt lat="44.3512239" lon="10.8296571"><ele>718.0</ele><time>2026-05-02T13:19:10.239Z</time></trkpt><trkpt lat="44.3513109" lon="10.8296477"><ele>718.0</ele><time>2026-05-02T13:19:11.265Z</time></trkpt><trkpt lat="44.351394" lon="10.8296425"><ele>716.4</ele><time>2026-05-02T13:19:12.247Z</time></trkpt><trkpt lat="44.3514713" lon="10.8296389"><ele>714.8</ele><time>2026-05-02T13:19:13.266Z</time></trkpt><trkpt lat="44.3515383" lon="10.8296348"><ele>713.2</ele><time>2026-05-02T13:19:14.275Z</time></trkpt><trkpt lat="44.3516471" lon="10.829595"><ele>711.6</ele><time>2026-05-02T13:19:16.25Z</time></trkpt><trkpt lat="44.3517533" lon="10.8294994"><ele>710.0</ele><time>2026-05-02T13:19:18.236Z</time></trkpt><trkpt lat="44.3518102" lon="10.8294385"><ele>710.0</ele><time>2026-05-02T13:19:19.26Z</time></trkpt><trkpt lat="44.3518656" lon="10.8293664"><ele>710.0</ele><time>2026-05-02T13:19:20.209Z</time></trkpt><trkpt lat="44.3519207" lon="10.8292819"><ele>710.0</ele><time>2026-05-02T13:19:21.231Z</time></trkpt><trkpt lat="44.351977" lon="10.8291926"><ele>710.0</ele><time>2026-05-02T13:19:22.285Z</time></trkpt><trkpt lat="44.3520329" lon="10.829106"><ele>710.0</ele><time>2026-05-02T13:19:23.221Z</time></trkpt><trkpt lat="44.3520819" lon="10.8290227"><ele>710.0</ele><time>2026-05-02T13:19:24.261Z</time></trkpt><trkpt lat="44.352125" lon="10.828942"><ele>710.0</ele><time>2026-05-02T13:19:25.218Z</time></trkpt><trkpt lat="44.3521668" lon="10.8288569"><ele>710.0</ele><time>2026-05-02T13:19:26.266Z</time></trkpt><trkpt lat="44.3522118" lon="10.8287663"><ele>710.0</ele><time>2026-05-02T13:19:27.222Z</time></trkpt><trkpt lat="44.3522595" lon="10.8286735"><ele>710.0</ele><time>2026-05-02T13:19:28.216Z</time></trkpt><trkpt lat="44.3523096" lon="10.8285814"><ele>710.0</ele><time>2026-05-02T13:19:29.233Z</time></trkpt><trkpt lat="44.3523637" lon="10.828492"><ele>710.0</ele><time>2026-05-02T13:19:30.24Z</time></trkpt><trkpt lat="44.3524227" lon="10.8284067"><ele>707.0</ele><time>2026-05-02T13:19:31.242Z</time></trkpt><trkpt lat="44.3524817" lon="10.8283198"><ele>704.0</ele><time>2026-05-02T13:19:32.235Z</time></trkpt><trkpt lat="44.3525415" lon="10.8282244"><ele>701.0</ele><time>2026-05-02T13:19:33.237Z</time></trkpt><trkpt lat="44.3526047" lon="10.8281182"><ele>698.0</ele><time>2026-05-02T13:19:34.272Z</time></trkpt><trkpt lat="44.352673" lon="10.8280063"><ele>695.0</ele><time>2026-05-02T13:19:35.231Z</time></trkpt><trkpt lat="44.352747" lon="10.827894"><ele>695.0</ele><time>2026-05-02T13:19:36.245Z</time></trkpt><trkpt lat="44.3528238" lon="10.8277865"><ele>695.0</ele><time>2026-05-02T13:19:37.235Z</time></trkpt><trkpt lat="44.3528979" lon="10.8276925"><ele>695.0</ele><time>2026-05-02T13:19:38.246Z</time></trkpt><trkpt lat="44.3529704" lon="10.8276128"><ele>695.0</ele><time>2026-05-02T13:19:39.231Z</time></trkpt><trkpt lat="44.3530403" lon="10.8275489"><ele>695.0</ele><time>2026-05-02T13:19:40.217Z</time></trkpt><trkpt lat="44.353105" lon="10.8274934"><ele>692.6</ele><time>2026-05-02T13:19:41.224Z</time></trkpt><trkpt lat="44.3531892" lon="10.8273786"><ele>690.2</ele><time>2026-05-02T13:19:43.218Z</time></trkpt><trkpt lat="44.3532203" lon="10.8272124"><ele>687.8</ele><time>2026-05-02T13:19:45.253Z</time></trkpt><trkpt lat="44.3532312" lon="10.8271178"><ele>685.4</ele><time>2026-05-02T13:19:46.249Z</time></trkpt><trkpt lat="44.353244" lon="10.8269533"><ele>683.0</ele><time>2026-05-02T13:19:48.244Z</time></trkpt><trkpt lat="44.3532477" lon="10.8268278"><ele>682.5</ele><time>2026-05-02T13:19:50.239Z</time></trkpt><trkpt lat="44.3532482" lon="10.8267152"><ele>682.0</ele><time>2026-05-02T13:19:52.25Z</time></trkpt><trkpt lat="44.3532494" lon="10.8265995"><ele>681.5</ele><time>2026-05-02T13:19:54.207Z</time></trkpt><trkpt lat="44.3532516" lon="10.8264938"><ele>681.0</ele><time>2026-05-02T13:19:56.208Z</time></trkpt><trkpt lat="44.3532503" lon="10.8263599"><ele>680.5</ele><time>2026-05-02T13:19:59.204Z</time></trkpt><trkpt lat="44.3532558" lon="10.8262554"><ele>680.0</ele><time>2026-05-02T13:20:01.241Z</time></trkpt><trkpt lat="44.3532522" lon="10.8261403"><ele>680.0</ele><time>2026-05-02T13:20:03.255Z</time></trkpt><trkpt lat="44.3532624" lon="10.8260159"><ele>680.0</ele><time>2026-05-02T13:20:05.231Z</time></trkpt><trkpt lat="44.3532776" lon="10.8259038"><ele>680.0</ele><time>2026-05-02T13:20:07.216Z</time></trkpt><trkpt lat="44.3532915" lon="10.8257882"><ele>680.0</ele><time>2026-05-02T13:20:09.201Z</time></trkpt><trkpt lat="44.3533087" lon="10.8256775"><ele>680.0</ele><time>2026-05-02T13:20:11.247Z</time></trkpt><trkpt lat="44.3533201" lon="10.8255683"><ele>680.0</ele><time>2026-05-02T13:20:13.262Z</time></trkpt><trkpt lat="44.3533301" lon="10.8254509"><ele>678.5</ele><time>2026-05-02T13:20:15.265Z</time></trkpt><trkpt lat="44.35335" lon="10.825333"><ele>677.0</ele><time>2026-05-02T13:20:17.274Z</time></trkpt><trkpt lat="44.3533766" lon="10.8252118"><ele>675.5</ele><time>2026-05-02T13:20:19.257Z</time></trkpt><trkpt lat="44.3533848" lon="10.8250909"><ele>674.0</ele><time>2026-05-02T13:20:21.243Z</time></trkpt><trkpt lat="44.3533744" lon="10.8249887"><ele>672.5</ele><time>2026-05-02T13:20:23.211Z</time></trkpt><trkpt lat="44.3533709" lon="10.8248852"><ele>671.0</ele><time>2026-05-02T13:20:25.238Z</time></trkpt><trkpt lat="44.3533744" lon="10.8247926"><ele>668.8333333333333</ele><time>2026-05-02T13:20:27.187Z</time></trkpt><trkpt lat="44.3533806" lon="10.8246752"><ele>666.6666666666666</ele><time>2026-05-02T13:20:29.225Z</time></trkpt><trkpt lat="44.3533988" lon="10.8245675"><ele>664.5</ele><time>2026-05-02T13:20:31.228Z</time></trkpt><trkpt lat="44.3534119" lon="10.8244245"><ele>662.3333333333334</ele><time>2026-05-02T13:20:34.225Z</time></trkpt><trkpt lat="44.3534183" lon="10.8243234"><ele>660.1666666666667</ele><time>2026-05-02T13:20:36.233Z</time></trkpt><trkpt lat="44.3534437" lon="10.8241984"><ele>658.0</ele><time>2026-05-02T13:20:38.238Z</time></trkpt><trkpt lat="44.3534771" lon="10.824093"><ele>656.0</ele><time>2026-05-02T13:20:45.227Z</time></trkpt><trkpt lat="44.3535441" lon="10.8239668"><ele>654.0</ele><time>2026-05-02T13:21:12.255Z</time></trkpt><trkpt lat="44.353627" lon="10.8238463"><ele>652.0</ele><time>2026-05-02T13:21:30.259Z</time></trkpt><trkpt lat="44.3536787" lon="10.8237929"><ele>650.0</ele><time>2026-05-02T13:21:37.237Z</time></trkpt><trkpt lat="44.3537429" lon="10.82374"><ele>648.0</ele><time>2026-05-02T13:21:41.237Z</time></trkpt><trkpt lat="44.3538081" lon="10.8237062"><ele>646.0</ele><time>2026-05-02T13:21:46.237Z</time></trkpt><trkpt lat="44.3538728" lon="10.8236678"><ele>644.8333333333334</ele><time>2026-05-02T13:21:49.227Z</time></trkpt><trkpt lat="44.3539089" lon="10.8235933"><ele>643.6666666666667</ele><time>2026-05-02T13:21:51.247Z</time></trkpt><trkpt lat="44.3539419" lon="10.823487"><ele>642.5</ele><time>2026-05-02T13:22:04.249Z</time></trkpt><trkpt lat="44.3539574" lon="10.8233628"><ele>641.3333333333334</ele><time>2026-05-02T13:22:07.266Z</time></trkpt><trkpt lat="44.3539378" lon="10.8232352"><ele>640.1666666666666</ele><time>2026-05-02T13:22:09.223Z</time></trkpt><trkpt lat="44.3538959" lon="10.8231356"><ele>639.0</ele><time>2026-05-02T13:22:11.26Z</time></trkpt><trkpt lat="44.353816" lon="10.8230027"><ele>637.8</ele><time>2026-05-02T13:22:13.248Z</time></trkpt><trkpt lat="44.3537416" lon="10.8228938"><ele>636.5999999999999</ele><time>2026-05-02T13:22:15.223Z</time></trkpt><trkpt lat="44.3536565" lon="10.8228216"><ele>635.4</ele><time>2026-05-02T13:22:17.24Z</time></trkpt><trkpt lat="44.3535647" lon="10.822754"><ele>634.1999999999999</ele><time>2026-05-02T13:22:19.239Z</time></trkpt><trkpt lat="44.35349" lon="10.8226744"><ele>633.0</ele><time>2026-05-02T13:22:21.248Z</time></trkpt><trkpt lat="44.3533903" lon="10.8226187"><ele>633.8</ele><time>2026-05-02T13:22:23.223Z</time></trkpt><trkpt lat="44.3532959" lon="10.8225837"><ele>634.5999999999999</ele><time>2026-05-02T13:22:25.271Z</time></trkpt><trkpt lat="44.3532257" lon="10.8225285"><ele>635.4000000000001</ele><time>2026-05-02T13:22:27.257Z</time></trkpt><trkpt lat="44.3531513" lon="10.8224685"><ele>636.2</ele><time>2026-05-02T13:22:29.214Z</time></trkpt><trkpt lat="44.3530642" lon="10.8223947"><ele>637.0</ele><time>2026-05-02T13:22:31.257Z</time></trkpt><trkpt lat="44.3530002" lon="10.8223053"><ele>637.0</ele><time>2026-05-02T13:22:33.25Z</time></trkpt><trkpt lat="44.3529873" lon="10.8222014"><ele>637.0</ele><time>2026-05-02T13:22:35.242Z</time></trkpt><trkpt lat="44.3530175" lon="10.8220916"><ele>637.0</ele><time>2026-05-02T13:22:37.252Z</time></trkpt><trkpt lat="44.3530687" lon="10.8219881"><ele>637.0</ele><time>2026-05-02T13:22:39.261Z</time></trkpt><trkpt lat="44.3531568" lon="10.8218938"><ele>637.0</ele><time>2026-05-02T13:22:41.241Z</time></trkpt><trkpt lat="44.3532055" lon="10.8218074"><ele>637.0</ele><time>2026-05-02T13:22:42.254Z</time></trkpt><trkpt lat="44.3532491" lon="10.8217167"><ele>632.6</ele><time>2026-05-02T13:22:43.237Z</time></trkpt><trkpt lat="44.3532933" lon="10.821627"><ele>628.2</ele><time>2026-05-02T13:22:44.248Z</time></trkpt><trkpt lat="44.3533537" lon="10.821526"><ele>623.8</ele><time>2026-05-02T13:22:45.247Z</time></trkpt><trkpt lat="44.3534073" lon="10.8214267"><ele>619.4</ele><time>2026-05-02T13:22:46.236Z</time></trkpt><trkpt lat="44.3534722" lon="10.8213182"><ele>615.0</ele><time>2026-05-02T13:22:47.255Z</time></trkpt><trkpt lat="44.3535379" lon="10.8212162"><ele>615.0</ele><time>2026-05-02T13:22:48.276Z</time></trkpt><trkpt lat="44.3535996" lon="10.8211145"><ele>615.0</ele><time>2026-05-02T13:22:49.25Z</time></trkpt><trkpt lat="44.3536647" lon="10.8210167"><ele>615.0</ele><time>2026-05-02T13:22:50.272Z</time></trkpt><trkpt lat="44.353725" lon="10.8209304"><ele>615.0</ele><time>2026-05-02T13:22:51.223Z</time></trkpt><trkpt lat="44.3537708" lon="10.8208588"><ele>615.0</ele><time>2026-05-02T13:22:52.241Z</time></trkpt><trkpt lat="44.3538161" lon="10.8207461"><ele>615.0</ele><time>2026-05-02T13:22:54.295Z</time></trkpt><trkpt lat="44.3538315" lon="10.8206264"><ele>614.3333333333334</ele><time>2026-05-02T13:22:57.23Z</time></trkpt><trkpt lat="44.3538931" lon="10.8205375"><ele>613.6666666666666</ele><time>2026-05-02T13:23:00.209Z</time></trkpt><trkpt lat="44.3539688" lon="10.8205434"><ele>613.0</ele><time>2026-05-02T13:23:02.245Z</time></trkpt><trkpt lat="44.3540484" lon="10.8205927"><ele>612.3333333333333</ele><time>2026-05-02T13:23:04.237Z</time></trkpt><trkpt lat="44.3541329" lon="10.8206808"><ele>611.6666666666666</ele><time>2026-05-02T13:23:06.187Z</time></trkpt><trkpt lat="44.354204" lon="10.8207389"><ele>611.0</ele><time>2026-05-02T13:23:08.247Z</time></trkpt><trkpt lat="44.3542471" lon="10.8208728"><ele>611.0</ele><time>2026-05-02T13:23:10.224Z</time></trkpt><trkpt lat="44.3542639" lon="10.8209595"><ele>611.0</ele><time>2026-05-02T13:23:11.27Z</time></trkpt><trkpt lat="44.3542837" lon="10.8211277"><ele>611.0</ele><time>2026-05-02T13:23:13.244Z</time></trkpt><trkpt lat="44.3543176" lon="10.8212531"><ele>611.0</ele><time>2026-05-02T13:23:15.229Z</time></trkpt><trkpt lat="44.3543683" lon="10.8213979"><ele>611.0</ele><time>2026-05-02T13:23:17.25Z</time></trkpt><trkpt lat="44.3544045" lon="10.8214873"><ele>611.1428571428572</ele><time>2026-05-02T13:23:18.251Z</time></trkpt><trkpt lat="44.3544409" lon="10.8215864"><ele>611.2857142857143</ele><time>2026-05-02T13:23:19.242Z</time></trkpt><trkpt lat="44.3544764" lon="10.8216797"><ele>611.4285714285714</ele><time>2026-05-02T13:23:20.249Z</time></trkpt><trkpt lat="44.3545072" lon="10.8217657"><ele>611.5714285714287</ele><time>2026-05-02T13:23:21.234Z</time></trkpt><trkpt lat="44.3545369" lon="10.8218478"><ele>611.7142857142858</ele><time>2026-05-02T13:23:22.219Z</time></trkpt><trkpt lat="44.3545697" lon="10.8219339"><ele>611.8571428571429</ele><time>2026-05-02T13:23:23.236Z</time></trkpt><trkpt lat="44.3546018" lon="10.8220156"><ele>612.0</ele><time>2026-05-02T13:23:24.235Z</time></trkpt><trkpt lat="44.3546223" lon="10.8221049"><ele>613.0</ele><time>2026-05-02T13:23:25.236Z</time></trkpt><trkpt lat="44.3546398" lon="10.8222004"><ele>614.0</ele><time>2026-05-02T13:23:26.254Z</time></trkpt><trkpt lat="44.354664" lon="10.8222957"><ele>615.0</ele><time>2026-05-02T13:23:27.212Z</time></trkpt><trkpt lat="44.3547186" lon="10.8224313"><ele>616.0</ele><time>2026-05-02T13:23:29.252Z</time></trkpt><trkpt lat="44.3547644" lon="10.822498"><ele>617.0</ele><time>2026-05-02T13:23:30.248Z</time></trkpt><trkpt lat="44.3548694" lon="10.822606"><ele>617.1666666666666</ele><time>2026-05-02T13:23:32.242Z</time></trkpt><trkpt lat="44.3549361" lon="10.8226681"><ele>617.3333333333333</ele><time>2026-05-02T13:23:33.27Z</time></trkpt><trkpt lat="44.3550048" lon="10.8227324"><ele>617.5</ele><time>2026-05-02T13:23:34.242Z</time></trkpt><trkpt lat="44.3550703" lon="10.8228028"><ele>617.6666666666666</ele><time>2026-05-02T13:23:35.248Z</time></trkpt><trkpt lat="44.3551311" lon="10.8228653"><ele>617.8333333333334</ele><time>2026-05-02T13:23:36.254Z</time></trkpt><trkpt lat="44.3551871" lon="10.822924"><ele>618.0</ele><time>2026-05-02T13:23:37.244Z</time></trkpt><trkpt lat="44.3552371" lon="10.8229915"><ele>618.0</ele><time>2026-05-02T13:23:38.203Z</time></trkpt><trkpt lat="44.3553217" lon="10.8231196"><ele>618.0</ele><time>2026-05-02T13:23:40.263Z</time></trkpt><trkpt lat="44.355367" lon="10.8232"><ele>618.0</ele><time>2026-05-02T13:23:41.198Z</time></trkpt><trkpt lat="44.3554148" lon="10.8232864"><ele>618.0</ele><time>2026-05-02T13:23:42.246Z</time></trkpt><trkpt lat="44.3554559" lon="10.8233635"><ele>618.0</ele><time>2026-05-02T13:23:43.255Z</time></trkpt><trkpt lat="44.3555568" lon="10.8234553"><ele>618.25</ele><time>2026-05-02T13:23:45.244Z</time></trkpt><trkpt lat="44.3556652" lon="10.8235273"><ele>618.5</ele><time>2026-05-02T13:23:47.246Z</time></trkpt><trkpt lat="44.3557621" lon="10.8236415"><ele>618.75</ele><time>2026-05-02T13:23:49.23Z</time></trkpt><trkpt lat="44.35583" lon="10.8237811"><ele>619.0</ele><time>2026-05-02T13:23:51.224Z</time></trkpt><trkpt lat="44.355861" lon="10.8239511"><ele>619.0</ele><time>2026-05-02T13:23:53.226Z</time></trkpt><trkpt lat="44.3558645" lon="10.824042"><ele>619.0</ele><time>2026-05-02T13:23:54.242Z</time></trkpt><trkpt lat="44.3558481" lon="10.8241809"><ele>619.0</ele><time>2026-05-02T13:23:56.235Z</time></trkpt><trkpt lat="44.3558494" lon="10.8242736"><ele>619.0</ele><time>2026-05-02T13:23:57.227Z</time></trkpt><trkpt lat="44.3558695" lon="10.8244067"><ele>619.0</ele><time>2026-05-02T13:23:58.225Z</time></trkpt><trkpt lat="44.3558868" lon="10.8245149"><ele>619.0</ele><time>2026-05-02T13:23:59.205Z</time></trkpt><trkpt lat="44.3558903" lon="10.8246098"><ele>619.2</ele><time>2026-05-02T13:24:00.249Z</time></trkpt><trkpt lat="44.355906" lon="10.8247715"><ele>619.4</ele><time>2026-05-02T13:24:02.218Z</time></trkpt><trkpt lat="44.355921" lon="10.8249277"><ele>619.6</ele><time>2026-05-02T13:24:04.245Z</time></trkpt><trkpt lat="44.3559224" lon="10.8250906"><ele>619.8</ele><time>2026-05-02T13:24:06.237Z</time></trkpt><trkpt lat="44.3559238" lon="10.825179"><ele>620.0</ele><time>2026-05-02T13:24:07.256Z</time></trkpt><trkpt lat="44.3559269" lon="10.825273"><ele>621.4</ele><time>2026-05-02T13:24:08.237Z</time></trkpt><trkpt lat="44.355926" lon="10.825364"><ele>622.8</ele><time>2026-05-02T13:24:09.262Z</time></trkpt><trkpt lat="44.3559428" lon="10.8255068"><ele>624.2</ele><time>2026-05-02T13:24:11.186Z</time></trkpt><trkpt lat="44.3559853" lon="10.8256609"><ele>625.6</ele><time>2026-05-02T13:24:13.241Z</time></trkpt><trkpt lat="44.3560041" lon="10.8257611"><ele>627.0</ele><time>2026-05-02T13:24:14.245Z</time></trkpt><trkpt lat="44.3560368" lon="10.8258975"><ele>627.4</ele><time>2026-05-02T13:24:16.192Z</time></trkpt><trkpt lat="44.3561104" lon="10.8259945"><ele>627.8000000000001</ele><time>2026-05-02T13:24:18.193Z</time></trkpt><trkpt lat="44.356165" lon="10.8260892"><ele>628.2</ele><time>2026-05-02T13:24:19.209Z</time></trkpt><trkpt lat="44.3562518" lon="10.8262224"><ele>628.6</ele><time>2026-05-02T13:24:21.212Z</time></trkpt><trkpt lat="44.3562992" lon="10.826301"><ele>629.0</ele><time>2026-05-02T13:24:22.201Z</time></trkpt><trkpt lat="44.3563443" lon="10.8263767"><ele>628.3333333333333</ele><time>2026-05-02T13:24:23.192Z</time></trkpt><trkpt lat="44.3563891" lon="10.8264503"><ele>627.6666666666666</ele><time>2026-05-02T13:24:24.231Z</time></trkpt><trkpt lat="44.3564594" lon="10.8265799"><ele>627.0</ele><time>2026-05-02T13:24:26.21Z</time></trkpt><trkpt lat="44.3565308" lon="10.8267184"><ele>626.3333333333334</ele><time>2026-05-02T13:24:28.222Z</time></trkpt><trkpt lat="44.3565662" lon="10.8267945"><ele>625.6666666666667</ele><time>2026-05-02T13:24:29.25Z</time></trkpt><trkpt lat="44.3565999" lon="10.8268783"><ele>625.0</ele><time>2026-05-02T13:24:30.251Z</time></trkpt><trkpt lat="44.3566325" lon="10.8269579"><ele>624.6</ele><time>2026-05-02T13:24:31.276Z</time></trkpt><trkpt lat="44.3566733" lon="10.827084"><ele>624.2</ele><time>2026-05-02T13:24:33.23Z</time></trkpt><trkpt lat="44.3566993" lon="10.8271659"><ele>623.8</ele><time>2026-05-02T13:24:36.222Z</time></trkpt><trkpt lat="44.356776" lon="10.827196"><ele>623.4</ele><time>2026-05-02T13:24:44.219Z</time></trkpt><trkpt lat="44.3568498" lon="10.8271082"><ele>623.0</ele><time>2026-05-02T13:24:46.223Z</time></trkpt><trkpt lat="44.3569235" lon="10.8269791"><ele>623.0</ele><time>2026-05-02T13:24:48.254Z</time></trkpt><trkpt lat="44.3569641" lon="10.826897"><ele>623.0</ele><time>2026-05-02T13:24:49.241Z</time></trkpt><trkpt lat="44.3570068" lon="10.826806"><ele>623.0</ele><time>2026-05-02T13:24:50.235Z</time></trkpt><trkpt lat="44.3570376" lon="10.8267007"><ele>623.0</ele><time>2026-05-02T13:24:51.279Z</time></trkpt><trkpt lat="44.3570613" lon="10.8265825"><ele>623.0</ele><time>2026-05-02T13:24:52.239Z</time></trkpt><trkpt lat="44.3570863" lon="10.8264553"><ele>623.0</ele><time>2026-05-02T13:24:53.256Z</time></trkpt><trkpt lat="44.3571013" lon="10.8263267"><ele>623.3333333333333</ele><time>2026-05-02T13:24:54.258Z</time></trkpt><trkpt lat="44.3571074" lon="10.8261983"><ele>623.6666666666666</ele><time>2026-05-02T13:24:55.249Z</time></trkpt><trkpt lat="44.3571145" lon="10.8260766"><ele>624.0</ele><time>2026-05-02T13:24:56.268Z</time></trkpt><trkpt lat="44.3571173" lon="10.8259624"><ele>624.3333333333334</ele><time>2026-05-02T13:24:57.297Z</time></trkpt><trkpt lat="44.3571279" lon="10.8258673"><ele>624.6666666666667</ele><time>2026-05-02T13:24:58.252Z</time></trkpt><trkpt lat="44.3571558" lon="10.8257808"><ele>625.0</ele><time>2026-05-02T13:24:59.26Z</time></trkpt><trkpt lat="44.3572054" lon="10.8257048"><ele>628.4</ele><time>2026-05-02T13:25:00.198Z</time></trkpt><trkpt lat="44.3572734" lon="10.8256292"><ele>631.8</ele><time>2026-05-02T13:25:01.231Z</time></trkpt><trkpt lat="44.3573553" lon="10.8255465"><ele>635.2</ele><time>2026-05-02T13:25:02.256Z</time></trkpt><trkpt lat="44.3574402" lon="10.8254571"><ele>638.6</ele><time>2026-05-02T13:25:03.251Z</time></trkpt><trkpt lat="44.3575229" lon="10.8253722"><ele>642.0</ele><time>2026-05-02T13:25:04.233Z</time></trkpt><trkpt lat="44.3576039" lon="10.825284"><ele>642.0</ele><time>2026-05-02T13:25:05.242Z</time></trkpt><trkpt lat="44.357677" lon="10.8251941"><ele>642.0</ele><time>2026-05-02T13:25:06.241Z</time></trkpt><trkpt lat="44.3577465" lon="10.8250932"><ele>642.0</ele><time>2026-05-02T13:25:07.267Z</time></trkpt><trkpt lat="44.3578073" lon="10.8249955"><ele>642.0</ele><time>2026-05-02T13:25:08.259Z</time></trkpt><trkpt lat="44.3578568" lon="10.8249071"><ele>642.0</ele><time>2026-05-02T13:25:09.207Z</time></trkpt><trkpt lat="44.357922" lon="10.8247873"><ele>643.0</ele><time>2026-05-02T13:25:11.23Z</time></trkpt><trkpt lat="44.3579739" lon="10.8247281"><ele>644.0</ele><time>2026-05-02T13:25:13.253Z</time></trkpt><trkpt lat="44.3580263" lon="10.8246699"><ele>645.0</ele><time>2026-05-02T13:25:15.222Z</time></trkpt><trkpt lat="44.3580757" lon="10.8245768"><ele>646.0</ele><time>2026-05-02T13:25:17.259Z</time></trkpt><trkpt lat="44.3581271" lon="10.8244267"><ele>647.0</ele><time>2026-05-02T13:25:19.256Z</time></trkpt><trkpt lat="44.3581616" lon="10.8242877"><ele>648.0</ele><time>2026-05-02T13:25:21.241Z</time></trkpt><trkpt lat="44.3581831" lon="10.8241342"><ele>651.6666666666666</ele><time>2026-05-02T13:25:23.238Z</time></trkpt><trkpt lat="44.3581929" lon="10.8240422"><ele>655.3333333333334</ele><time>2026-05-02T13:25:24.212Z</time></trkpt><trkpt lat="44.3582104" lon="10.8239496"><ele>659.0</ele><time>2026-05-02T13:25:25.247Z</time></trkpt><trkpt lat="44.358235" lon="10.8238631"><ele>662.6666666666667</ele><time>2026-05-02T13:25:26.246Z</time></trkpt><trkpt lat="44.358301" lon="10.8237164"><ele>666.3333333333334</ele><time>2026-05-02T13:25:28.261Z</time></trkpt><trkpt lat="44.3583399" lon="10.8236414"><ele>670.0</ele><time>2026-05-02T13:25:29.28Z</time></trkpt><trkpt lat="44.3583725" lon="10.8235511"><ele>671.3333333333334</ele><time>2026-05-02T13:25:30.241Z</time></trkpt><trkpt lat="44.3584015" lon="10.8234617"><ele>672.6666666666667</ele><time>2026-05-02T13:25:31.245Z</time></trkpt><trkpt lat="44.3584312" lon="10.8233724"><ele>674.0</ele><time>2026-05-02T13:25:32.255Z</time></trkpt><trkpt lat="44.3584607" lon="10.8232933"><ele>675.3333333333334</ele><time>2026-05-02T13:25:33.212Z</time></trkpt><trkpt lat="44.3584914" lon="10.8232046"><ele>676.6666666666666</ele><time>2026-05-02T13:25:34.23Z</time></trkpt><trkpt lat="44.358546" lon="10.8230642"><ele>678.0</ele><time>2026-05-02T13:25:36.25Z</time></trkpt><trkpt lat="44.3586011" lon="10.8229394"><ele>678.0</ele><time>2026-05-02T13:25:38.232Z</time></trkpt><trkpt lat="44.3586349" lon="10.8228635"><ele>678.0</ele><time>2026-05-02T13:25:39.242Z</time></trkpt><trkpt lat="44.3586771" lon="10.8227925"><ele>678.0</ele><time>2026-05-02T13:25:40.245Z</time></trkpt><trkpt lat="44.3587258" lon="10.8227203"><ele>678.0</ele><time>2026-05-02T13:25:41.248Z</time></trkpt><trkpt lat="44.3588139" lon="10.8226232"><ele>678.0</ele><time>2026-05-02T13:25:43.243Z</time></trkpt><trkpt lat="44.3589354" lon="10.8225526"><ele>678.0</ele><time>2026-05-02T13:25:45.22Z</time></trkpt><trkpt lat="44.3589992" lon="10.8225302"><ele>680.8333333333334</ele><time>2026-05-02T13:25:46.288Z</time></trkpt><trkpt lat="44.3590595" lon="10.8224995"><ele>683.6666666666666</ele><time>2026-05-02T13:25:47.246Z</time></trkpt><trkpt lat="44.3591686" lon="10.8224043"><ele>686.5</ele><time>2026-05-02T13:25:49.221Z</time></trkpt><trkpt lat="44.3592213" lon="10.8223331"><ele>689.3333333333333</ele><time>2026-05-02T13:25:50.238Z</time></trkpt><trkpt lat="44.3592737" lon="10.8222628"><ele>692.1666666666666</ele><time>2026-05-02T13:25:51.23Z</time></trkpt><trkpt lat="44.3593218" lon="10.8222011"><ele>695.0</ele><time>2026-05-02T13:25:52.283Z</time></trkpt><trkpt lat="44.3594027" lon="10.8220807"><ele>695.0</ele><time>2026-05-02T13:25:54.261Z</time></trkpt><trkpt lat="44.3594919" lon="10.8219528"><ele>695.0</ele><time>2026-05-02T13:25:56.252Z</time></trkpt><trkpt lat="44.3595424" lon="10.8218866"><ele>695.0</ele><time>2026-05-02T13:25:57.257Z</time></trkpt><trkpt lat="44.3595983" lon="10.8218349"><ele>695.0</ele><time>2026-05-02T13:25:58.23Z</time></trkpt><trkpt lat="44.3596557" lon="10.8217791"><ele>695.0</ele><time>2026-05-02T13:25:59.249Z</time></trkpt><trkpt lat="44.3597153" lon="10.8217256"><ele>695.0</ele><time>2026-05-02T13:26:00.244Z</time></trkpt><trkpt lat="44.3598308" lon="10.821675"><ele>697.6</ele><time>2026-05-02T13:26:02.237Z</time></trkpt><trkpt lat="44.3599396" lon="10.8216817"><ele>700.2</ele><time>2026-05-02T13:26:04.248Z</time></trkpt><trkpt lat="44.3600171" lon="10.8216953"><ele>702.8</ele><time>2026-05-02T13:26:06.237Z</time></trkpt><trkpt lat="44.3601024" lon="10.8216781"><ele>705.4</ele><time>2026-05-02T13:26:09.209Z</time></trkpt><trkpt lat="44.3601703" lon="10.8216634"><ele>708.0</ele><time>2026-05-02T13:26:22.233Z</time></trkpt><trkpt lat="44.3602655" lon="10.8215901"><ele>708.0</ele><time>2026-05-02T13:26:24.218Z</time></trkpt><trkpt lat="44.3603194" lon="10.8215389"><ele>708.0</ele><time>2026-05-02T13:26:25.264Z</time></trkpt><trkpt lat="44.3603742" lon="10.8214799"><ele>708.0</ele><time>2026-05-02T13:26:26.253Z</time></trkpt><trkpt lat="44.3604253" lon="10.8214188"><ele>708.0</ele><time>2026-05-02T13:26:27.208Z</time></trkpt><trkpt lat="44.3604783" lon="10.8213484"><ele>708.0</ele><time>2026-05-02T13:26:28.259Z</time></trkpt><trkpt lat="44.3605366" lon="10.8212679"><ele>708.0</ele><time>2026-05-02T13:26:29.238Z</time></trkpt><trkpt lat="44.3605963" lon="10.8211866"><ele>708.0</ele><time>2026-05-02T13:26:30.24Z</time></trkpt><trkpt lat="44.36065" lon="10.8211063"><ele>708.8333333333334</ele><time>2026-05-02T13:26:31.236Z</time></trkpt><trkpt lat="44.3607045" lon="10.8210142"><ele>709.6666666666666</ele><time>2026-05-02T13:26:32.263Z</time></trkpt><trkpt lat="44.3607602" lon="10.8209153"><ele>710.5</ele><time>2026-05-02T13:26:33.243Z</time></trkpt><trkpt lat="44.3608155" lon="10.8208235"><ele>711.3333333333333</ele><time>2026-05-02T13:26:34.263Z</time></trkpt><trkpt lat="44.3608673" lon="10.8207411"><ele>712.1666666666666</ele><time>2026-05-02T13:26:35.267Z</time></trkpt><trkpt lat="44.3609106" lon="10.8206665"><ele>713.0</ele><time>2026-05-02T13:26:36.26Z</time></trkpt><trkpt lat="44.3609769" lon="10.8205333"><ele>715.0</ele><time>2026-05-02T13:26:38.31Z</time></trkpt><trkpt lat="44.3610143" lon="10.8204046"><ele>717.0</ele><time>2026-05-02T13:26:40.237Z</time></trkpt><trkpt lat="44.3610154" lon="10.8202456"><ele>719.0</ele><time>2026-05-02T13:26:42.256Z</time></trkpt><trkpt lat="44.3610349" lon="10.8200756"><ele>721.0</ele><time>2026-05-02T13:26:44.244Z</time></trkpt><trkpt lat="44.3610586" lon="10.8199901"><ele>723.0</ele><time>2026-05-02T13:26:45.239Z</time></trkpt><trkpt lat="44.3610829" lon="10.8199054"><ele>724.0</ele><time>2026-05-02T13:26:46.261Z</time></trkpt><trkpt lat="44.3611196" lon="10.8197723"><ele>725.0</ele><time>2026-05-02T13:26:47.25Z</time></trkpt><trkpt lat="44.3611539" lon="10.8196292"><ele>726.0</ele><time>2026-05-02T13:26:48.237Z</time></trkpt><trkpt lat="44.3611849" lon="10.8194675"><ele>727.0</ele><time>2026-05-02T13:26:49.26Z</time></trkpt><trkpt lat="44.3612054" lon="10.8192791"><ele>728.5</ele><time>2026-05-02T13:26:50.282Z</time></trkpt><trkpt lat="44.3612086" lon="10.8191013"><ele>730.0</ele><time>2026-05-02T13:26:51.247Z</time></trkpt><trkpt lat="44.3611973" lon="10.8189246"><ele>731.5</ele><time>2026-05-02T13:26:52.244Z</time></trkpt><trkpt lat="44.3611759" lon="10.818754"><ele>733.0</ele><time>2026-05-02T13:26:53.241Z</time></trkpt><trkpt lat="44.3611554" lon="10.8186009"><ele>733.5999999999999</ele><time>2026-05-02T13:26:54.241Z</time></trkpt><trkpt lat="44.3611427" lon="10.8184565"><ele>734.1999999999999</ele><time>2026-05-02T13:26:55.239Z</time></trkpt><trkpt lat="44.3611377" lon="10.8183191"><ele>734.8</ele><time>2026-05-02T13:26:56.232Z</time></trkpt><trkpt lat="44.3611389" lon="10.8181923"><ele>735.4</ele><time>2026-05-02T13:26:57.284Z</time></trkpt><trkpt lat="44.3611463" lon="10.8180724"><ele>736.0</ele><time>2026-05-02T13:26:58.258Z</time></trkpt><trkpt lat="44.361156" lon="10.8179656"><ele>736.0</ele><time>2026-05-02T13:26:59.236Z</time></trkpt><trkpt lat="44.3611754" lon="10.817819"><ele>736.0</ele><time>2026-05-02T13:27:01.249Z</time></trkpt><trkpt lat="44.3612238" lon="10.8177297"><ele>736.0</ele><time>2026-05-02T13:27:03.232Z</time></trkpt><trkpt lat="44.3613504" lon="10.8176912"><ele>736.0</ele><time>2026-05-02T13:27:05.255Z</time></trkpt><trkpt lat="44.3614312" lon="10.8177035"><ele>736.0</ele><time>2026-05-02T13:27:06.244Z</time></trkpt><trkpt lat="44.3615106" lon="10.8177214"><ele>736.5714285714286</ele><time>2026-05-02T13:27:07.256Z</time></trkpt><trkpt lat="44.3615826" lon="10.8177323"><ele>737.1428571428571</ele><time>2026-05-02T13:27:08.232Z</time></trkpt><trkpt lat="44.3616512" lon="10.8177612"><ele>737.7142857142857</ele><time>2026-05-02T13:27:09.25Z</time></trkpt><trkpt lat="44.3617197" lon="10.8177899"><ele>738.2857142857142</ele><time>2026-05-02T13:27:10.229Z</time></trkpt><trkpt lat="44.3617832" lon="10.8178123"><ele>738.8571428571429</ele><time>2026-05-02T13:27:11.252Z</time></trkpt><trkpt lat="44.3618449" lon="10.8178344"><ele>739.4285714285713</ele><time>2026-05-02T13:27:12.218Z</time></trkpt><trkpt lat="44.3619065" lon="10.8178605"><ele>740.0</ele><time>2026-05-02T13:27:13.232Z</time></trkpt><trkpt lat="44.361968" lon="10.8178867"><ele>740.0</ele><time>2026-05-02T13:27:14.256Z</time></trkpt><trkpt lat="44.3620762" lon="10.8179282"><ele>740.0</ele><time>2026-05-02T13:27:16.238Z</time></trkpt><trkpt lat="44.3621826" lon="10.8178894"><ele>740.0</ele><time>2026-05-02T13:27:18.252Z</time></trkpt><trkpt lat="44.3622841" lon="10.8178361"><ele>740.0</ele><time>2026-05-02T13:27:20.218Z</time></trkpt><trkpt lat="44.3623436" lon="10.8177987"><ele>740.0</ele><time>2026-05-02T13:27:21.221Z</time></trkpt><trkpt lat="44.3624527" lon="10.8177432"><ele>740.2</ele><time>2026-05-02T13:27:23.258Z</time></trkpt><trkpt lat="44.3625688" lon="10.8176875"><ele>740.4</ele><time>2026-05-02T13:27:25.237Z</time></trkpt><trkpt lat="44.3626768" lon="10.8176137"><ele>740.5999999999999</ele><time>2026-05-02T13:27:27.255Z</time></trkpt><trkpt lat="44.3627644" lon="10.8175521"><ele>740.8</ele><time>2026-05-02T13:27:29.213Z</time></trkpt><trkpt lat="44.3628286" lon="10.8175188"><ele>741.0</ele><time>2026-05-02T13:27:30.214Z</time></trkpt><trkpt lat="44.3629557" lon="10.8174352"><ele>741.0</ele><time>2026-05-02T13:27:32.225Z</time></trkpt><trkpt lat="44.3630215" lon="10.8173859"><ele>741.0</ele><time>2026-05-02T13:27:33.229Z</time></trkpt><trkpt lat="44.3630854" lon="10.8173436"><ele>741.0</ele><time>2026-05-02T13:27:34.263Z</time></trkpt><trkpt lat="44.3631984" lon="10.8172671"><ele>741.0</ele><time>2026-05-02T13:27:36.251Z</time></trkpt><trkpt lat="44.3633315" lon="10.8172211"><ele>741.0</ele><time>2026-05-02T13:27:38.234Z</time></trkpt><trkpt lat="44.36346" lon="10.8171883"><ele>741.1666666666666</ele><time>2026-05-02T13:27:40.263Z</time></trkpt><trkpt lat="44.3635777" lon="10.8171489"><ele>741.3333333333334</ele><time>2026-05-02T13:27:42.242Z</time></trkpt><trkpt lat="44.3636416" lon="10.8171257"><ele>741.5</ele><time>2026-05-02T13:27:43.222Z</time></trkpt><trkpt lat="44.3637097" lon="10.8171006"><ele>741.6666666666667</ele><time>2026-05-02T13:27:44.232Z</time></trkpt><trkpt lat="44.3637773" lon="10.8170721"><ele>741.8333333333334</ele><time>2026-05-02T13:27:45.245Z</time></trkpt><trkpt lat="44.3638748" lon="10.8170037"><ele>742.0</ele><time>2026-05-02T13:27:47.285Z</time></trkpt><trkpt lat="44.3639486" lon="10.8169039"><ele>742.25</ele><time>2026-05-02T13:27:49.24Z</time></trkpt><trkpt lat="44.364041" lon="10.8168144"><ele>742.5</ele><time>2026-05-02T13:27:51.242Z</time></trkpt><trkpt lat="44.3641509" lon="10.8167693"><ele>742.75</ele><time>2026-05-02T13:27:53.227Z</time></trkpt><trkpt lat="44.3642606" lon="10.8167034"><ele>743.0</ele><time>2026-05-02T13:27:55.242Z</time></trkpt><trkpt lat="44.364369" lon="10.8166442"><ele>743.0</ele><time>2026-05-02T13:27:57.243Z</time></trkpt><trkpt lat="44.3644776" lon="10.8166057"><ele>743.0</ele><time>2026-05-02T13:27:59.241Z</time></trkpt><trkpt lat="44.3645395" lon="10.8165844"><ele>743.0</ele><time>2026-05-02T13:28:00.245Z</time></trkpt><trkpt lat="44.3646666" lon="10.8165584"><ele>743.0</ele><time>2026-05-02T13:28:02.246Z</time></trkpt><trkpt lat="44.3647822" lon="10.8165324"><ele>743.0</ele><time>2026-05-02T13:28:04.245Z</time></trkpt><trkpt lat="44.3648982" lon="10.8165229"><ele>743.4</ele><time>2026-05-02T13:28:06.253Z</time></trkpt><trkpt lat="44.365004" lon="10.8165333"><ele>743.8</ele><time>2026-05-02T13:28:08.254Z</time></trkpt><trkpt lat="44.3650833" lon="10.8165501"><ele>744.2</ele><time>2026-05-02T13:28:10.261Z</time></trkpt><trkpt lat="44.3651881" lon="10.8165504"><ele>744.6</ele><time>2026-05-02T13:28:17.236Z</time></trkpt><trkpt lat="44.3652182" lon="10.816427"><ele>745.0</ele><time>2026-05-02T13:28:20.226Z</time></trkpt><trkpt lat="44.3652091" lon="10.8162962"><ele>745.0</ele><time>2026-05-02T13:28:22.252Z</time></trkpt><trkpt lat="44.3652116" lon="10.816154"><ele>745.0</ele><time>2026-05-02T13:28:24.201Z</time></trkpt><trkpt lat="44.3652047" lon="10.8160542"><ele>745.0</ele><time>2026-05-02T13:28:26.221Z</time></trkpt><trkpt lat="44.3651695" lon="10.8159271"><ele>745.0</ele><time>2026-05-02T13:28:29.22Z</time></trkpt><trkpt lat="44.3651434" lon="10.8158284"><ele>745.0</ele><time>2026-05-02T13:28:31.264Z</time></trkpt><trkpt lat="44.3651146" lon="10.8156951"><ele>745.0</ele><time>2026-05-02T13:28:33.238Z</time></trkpt><trkpt lat="44.3650644" lon="10.8155508"><ele>743.8333333333334</ele><time>2026-05-02T13:28:35.262Z</time></trkpt><trkpt lat="44.3650454" lon="10.8154304"><ele>742.6666666666667</ele><time>2026-05-02T13:28:37.238Z</time></trkpt><trkpt lat="44.3650228" lon="10.8153235"><ele>741.5</ele><time>2026-05-02T13:28:39.24Z</time></trkpt><trkpt lat="44.3650058" lon="10.8152152"><ele>740.3333333333334</ele><time>2026-05-02T13:28:41.255Z</time></trkpt><trkpt lat="44.3649761" lon="10.8151056"><ele>739.1666666666666</ele><time>2026-05-02T13:28:44.232Z</time></trkpt><trkpt lat="44.3650197" lon="10.8150123"><ele>738.0</ele><time>2026-05-02T13:28:46.214Z</time></trkpt><trkpt lat="44.3650626" lon="10.8148742"><ele>736.5999999999999</ele><time>2026-05-02T13:28:48.222Z</time></trkpt><trkpt lat="44.3650839" lon="10.8147271"><ele>735.1999999999999</ele><time>2026-05-02T13:28:50.234Z</time></trkpt><trkpt lat="44.3651011" lon="10.8145636"><ele>733.8</ele><time>2026-05-02T13:28:52.221Z</time></trkpt><trkpt lat="44.3651166" lon="10.8144703"><ele>732.4</ele><time>2026-05-02T13:28:53.214Z</time></trkpt><trkpt lat="44.3651337" lon="10.8142981"><ele>731.0</ele><time>2026-05-02T13:28:55.265Z</time></trkpt><trkpt lat="44.3651346" lon="10.8142075"><ele>730.1999999999999</ele><time>2026-05-02T13:28:56.248Z</time></trkpt><trkpt lat="44.3651204" lon="10.8140888"><ele>729.4</ele><time>2026-05-02T13:28:57.243Z</time></trkpt><trkpt lat="44.3650991" lon="10.8139774"><ele>728.6</ele><time>2026-05-02T13:28:58.24Z</time></trkpt><trkpt lat="44.3650867" lon="10.8137967"><ele>727.8</ele><time>2026-05-02T13:29:00.249Z</time></trkpt><trkpt lat="44.3650749" lon="10.8136749"><ele>727.0</ele><time>2026-05-02T13:29:01.251Z</time></trkpt><trkpt lat="44.3650483" lon="10.8135704"><ele>726.8333333333334</ele><time>2026-05-02T13:29:02.216Z</time></trkpt><trkpt lat="44.3650175" lon="10.813477"><ele>726.6666666666667</ele><time>2026-05-02T13:29:03.257Z</time></trkpt><trkpt lat="44.3649759" lon="10.8133586"><ele>726.5</ele><time>2026-05-02T13:29:05.271Z</time></trkpt><trkpt lat="44.3649929" lon="10.8132421"><ele>726.3333333333334</ele><time>2026-05-02T13:29:07.256Z</time></trkpt><trkpt lat="44.3650246" lon="10.8131588"><ele>726.1666666666666</ele><time>2026-05-02T13:29:08.24Z</time></trkpt><trkpt lat="44.3650624" lon="10.8130682"><ele>726.0</ele><time>2026-05-02T13:29:09.25Z</time></trkpt><trkpt lat="44.3650959" lon="10.8129796"><ele>726.0</ele><time>2026-05-02T13:29:10.201Z</time></trkpt><trkpt lat="44.3651336" lon="10.8129001"><ele>726.0</ele><time>2026-05-02T13:29:11.203Z</time></trkpt><trkpt lat="44.3652199" lon="10.8127855"><ele>726.0</ele><time>2026-05-02T13:29:13.253Z</time></trkpt><trkpt lat="44.36527" lon="10.812723"><ele>726.0</ele><time>2026-05-02T13:29:14.24Z</time></trkpt><trkpt lat="44.3653298" lon="10.812654"><ele>726.0</ele><time>2026-05-02T13:29:15.251Z</time></trkpt><trkpt lat="44.3653944" lon="10.8125933"><ele>726.0</ele><time>2026-05-02T13:29:16.225Z</time></trkpt><trkpt lat="44.3654662" lon="10.8125202"><ele>728.1666666666666</ele><time>2026-05-02T13:29:17.221Z</time></trkpt><trkpt lat="44.3655362" lon="10.8124614"><ele>730.3333333333334</ele><time>2026-05-02T13:29:18.223Z</time></trkpt><trkpt lat="44.3655975" lon="10.8124054"><ele>732.5</ele><time>2026-05-02T13:29:19.229Z</time></trkpt><trkpt lat="44.3656632" lon="10.8123533"><ele>734.6666666666667</ele><time>2026-05-02T13:29:20.251Z</time></trkpt><trkpt lat="44.3657196" lon="10.8123039"><ele>736.8333333333334</ele><time>2026-05-02T13:29:21.255Z</time></trkpt><trkpt lat="44.3657861" lon="10.8122565"><ele>739.0</ele><time>2026-05-02T13:29:22.275Z</time></trkpt><trkpt lat="44.3658678" lon="10.8122008"><ele>739.0</ele><time>2026-05-02T13:29:23.217Z</time></trkpt><trkpt lat="44.3659434" lon="10.8121505"><ele>739.0</ele><time>2026-05-02T13:29:24.203Z</time></trkpt><trkpt lat="44.3660068" lon="10.8120981"><ele>739.0</ele><time>2026-05-02T13:29:25.215Z</time></trkpt><trkpt lat="44.3660721" lon="10.8120376"><ele>739.0</ele><time>2026-05-02T13:29:26.247Z</time></trkpt><trkpt lat="44.36612" lon="10.8119793"><ele>739.0</ele><time>2026-05-02T13:29:27.22Z</time></trkpt><trkpt lat="44.3661746" lon="10.8119249"><ele>739.0</ele><time>2026-05-02T13:29:28.225Z</time></trkpt><trkpt lat="44.3662436" lon="10.8118515"><ele>739.2</ele><time>2026-05-02T13:29:29.209Z</time></trkpt><trkpt lat="44.3663313" lon="10.811752"><ele>739.4000000000001</ele><time>2026-05-02T13:29:30.21Z</time></trkpt><trkpt lat="44.3664107" lon="10.8116471"><ele>739.6</ele><time>2026-05-02T13:29:31.238Z</time></trkpt><trkpt lat="44.3664701" lon="10.8115616"><ele>739.8</ele><time>2026-05-02T13:29:32.264Z</time></trkpt><trkpt lat="44.3665271" lon="10.81148"><ele>740.0</ele><time>2026-05-02T13:29:33.267Z</time></trkpt><trkpt lat="44.3665915" lon="10.8113884"><ele>740.0</ele><time>2026-05-02T13:29:34.247Z</time></trkpt><trkpt lat="44.3666541" lon="10.8113074"><ele>740.0</ele><time>2026-05-02T13:29:35.248Z</time></trkpt><trkpt lat="44.3667134" lon="10.8112243"><ele>740.0</ele><time>2026-05-02T13:29:36.245Z</time></trkpt><trkpt lat="44.3667657" lon="10.8111487"><ele>740.0</ele><time>2026-05-02T13:29:37.246Z</time></trkpt><trkpt lat="44.3668073" lon="10.8110797"><ele>740.0</ele><time>2026-05-02T13:29:38.253Z</time></trkpt><trkpt lat="44.3668888" lon="10.8109821"><ele>740.0</ele><time>2026-05-02T13:29:40.229Z</time></trkpt><trkpt lat="44.367018" lon="10.8109446"><ele>738.6666666666666</ele><time>2026-05-02T13:29:42.234Z</time></trkpt><trkpt lat="44.3670905" lon="10.8109451"><ele>737.3333333333333</ele><time>2026-05-02T13:29:43.24Z</time></trkpt><trkpt lat="44.3671609" lon="10.8109397"><ele>736.0</ele><time>2026-05-02T13:29:44.248Z</time></trkpt><trkpt lat="44.3672324" lon="10.8109377"><ele>734.6666666666666</ele><time>2026-05-02T13:29:45.249Z</time></trkpt><trkpt lat="44.3672979" lon="10.8109439"><ele>733.3333333333334</ele><time>2026-05-02T13:29:46.25Z</time></trkpt><trkpt lat="44.3673867" lon="10.8109735"><ele>732.0</ele><time>2026-05-02T13:29:47.205Z</time></trkpt><trkpt lat="44.3674615" lon="10.8110134"><ele>736.1666666666666</ele><time>2026-05-02T13:29:48.224Z</time></trkpt><trkpt lat="44.3675353" lon="10.8110717"><ele>740.3333333333334</ele><time>2026-05-02T13:29:49.258Z</time></trkpt><trkpt lat="44.3676076" lon="10.8111318"><ele>744.5</ele><time>2026-05-02T13:29:50.199Z</time></trkpt><trkpt lat="44.3676818" lon="10.8112036"><ele>748.6666666666667</ele><time>2026-05-02T13:29:51.24Z</time></trkpt><trkpt lat="44.3677537" lon="10.8112821"><ele>752.8333333333334</ele><time>2026-05-02T13:29:52.256Z</time></trkpt><trkpt lat="44.3678222" lon="10.8113428"><ele>757.0</ele><time>2026-05-02T13:29:53.223Z</time></trkpt><trkpt lat="44.3678924" lon="10.8113938"><ele>757.0</ele><time>2026-05-02T13:29:54.236Z</time></trkpt><trkpt lat="44.3679549" lon="10.8114229"><ele>757.0</ele><time>2026-05-02T13:29:55.229Z</time></trkpt><trkpt lat="44.3680589" lon="10.8114555"><ele>757.0</ele><time>2026-05-02T13:29:57.24Z</time></trkpt><trkpt lat="44.3681363" lon="10.8114737"><ele>757.0</ele><time>2026-05-02T13:29:59.193Z</time></trkpt><trkpt lat="44.3682076" lon="10.811486"><ele>757.0</ele><time>2026-05-02T13:30:01.247Z</time></trkpt><trkpt lat="44.3682796" lon="10.8114544"><ele>757.0</ele><time>2026-05-02T13:30:03.244Z</time></trkpt><trkpt lat="44.3683538" lon="10.8113652"><ele>754.0</ele><time>2026-05-02T13:30:05.192Z</time></trkpt><trkpt lat="44.3684476" lon="10.8113173"><ele>751.0</ele><time>2026-05-02T13:30:07.231Z</time></trkpt><trkpt lat="44.3685233" lon="10.811327"><ele>748.0</ele><time>2026-05-02T13:30:09.231Z</time></trkpt><trkpt lat="44.3685929" lon="10.8113268"><ele>745.0</ele><time>2026-05-02T13:30:11.224Z</time></trkpt><trkpt lat="44.368693" lon="10.8112453"><ele>742.0</ele><time>2026-05-02T13:30:13.223Z</time></trkpt><trkpt lat="44.3687559" lon="10.8111848"><ele>739.0</ele><time>2026-05-02T13:30:14.229Z</time></trkpt><trkpt lat="44.3688249" lon="10.8111068"><ele>737.0</ele><time>2026-05-02T13:30:15.197Z</time></trkpt><trkpt lat="44.3688945" lon="10.8110199"><ele>735.0</ele><time>2026-05-02T13:30:16.237Z</time></trkpt><trkpt lat="44.3689628" lon="10.8109294"><ele>733.0</ele><time>2026-05-02T13:30:17.223Z</time></trkpt><trkpt lat="44.3690263" lon="10.8108446"><ele>731.0</ele><time>2026-05-02T13:30:18.239Z</time></trkpt><trkpt lat="44.3690858" lon="10.810762"><ele>729.0</ele><time>2026-05-02T13:30:19.256Z</time></trkpt><trkpt lat="44.3691401" lon="10.8106899"><ele>727.0</ele><time>2026-05-02T13:30:20.243Z</time></trkpt><trkpt lat="44.3691865" lon="10.8106196"><ele>725.6666666666667</ele><time>2026-05-02T13:30:21.237Z</time></trkpt><trkpt lat="44.3692284" lon="10.8105468"><ele>724.3333333333334</ele><time>2026-05-02T13:30:22.236Z</time></trkpt><trkpt lat="44.3692901" lon="10.8104206"><ele>723.0</ele><time>2026-05-02T13:30:24.24Z</time></trkpt><trkpt lat="44.3693303" lon="10.8102814"><ele>721.6666666666666</ele><time>2026-05-02T13:30:26.249Z</time></trkpt><trkpt lat="44.3693363" lon="10.8101832"><ele>720.3333333333333</ele><time>2026-05-02T13:30:28.249Z</time></trkpt><trkpt lat="44.3693121" lon="10.8100628"><ele>719.0</ele><time>2026-05-02T13:30:30.237Z</time></trkpt><trkpt lat="44.369295" lon="10.8099445"><ele>718.2</ele><time>2026-05-02T13:30:32.244Z</time></trkpt><trkpt lat="44.3692798" lon="10.8098295"><ele>717.4000000000001</ele><time>2026-05-02T13:30:35.301Z</time></trkpt><trkpt lat="44.3692709" lon="10.8096981"><ele>716.6</ele><time>2026-05-02T13:30:38.248Z</time></trkpt><trkpt lat="44.3692592" lon="10.8095663"><ele>715.8</ele><time>2026-05-02T13:30:40.205Z</time></trkpt><trkpt lat="44.3692379" lon="10.8094335"><ele>715.0</ele><time>2026-05-02T13:30:42.235Z</time></trkpt><trkpt lat="44.3692008" lon="10.8092957"><ele>713.4</ele><time>2026-05-02T13:30:44.252Z</time></trkpt><trkpt lat="44.369147" lon="10.8091546"><ele>711.8</ele><time>2026-05-02T13:30:46.251Z</time></trkpt><trkpt lat="44.369081" lon="10.8090281"><ele>710.2</ele><time>2026-05-02T13:30:48.23Z</time></trkpt><trkpt lat="44.3690019" lon="10.8089311"><ele>708.6</ele><time>2026-05-02T13:30:50.212Z</time></trkpt><trkpt lat="44.3689209" lon="10.8088322"><ele>707.0</ele><time>2026-05-02T13:30:52.242Z</time></trkpt><trkpt lat="44.3688491" lon="10.8087143"><ele>703.75</ele><time>2026-05-02T13:30:54.216Z</time></trkpt><trkpt lat="44.3687869" lon="10.8085731"><ele>700.5</ele><time>2026-05-02T13:30:56.235Z</time></trkpt><trkpt lat="44.3687238" lon="10.8084295"><ele>697.25</ele><time>2026-05-02T13:30:58.227Z</time></trkpt><trkpt lat="44.3686613" lon="10.8082833"><ele>694.0</ele><time>2026-05-02T13:31:00.223Z</time></trkpt><trkpt lat="44.3686187" lon="10.8081513"><ele>692.6666666666667</ele><time>2026-05-02T13:31:02.211Z</time></trkpt><trkpt lat="44.3685998" lon="10.8080345"><ele>691.3333333333334</ele><time>2026-05-02T13:31:04.203Z</time></trkpt><trkpt lat="44.3686063" lon="10.8079315"><ele>690.0</ele><time>2026-05-02T13:31:06.253Z</time></trkpt><trkpt lat="44.3686437" lon="10.8078186"><ele>688.6666666666666</ele><time>2026-05-02T13:31:08.249Z</time></trkpt><trkpt lat="44.3687014" lon="10.8077132"><ele>687.3333333333333</ele><time>2026-05-02T13:31:10.239Z</time></trkpt><trkpt lat="44.3687463" lon="10.8076015"><ele>686.0</ele><time>2026-05-02T13:31:12.222Z</time></trkpt><trkpt lat="44.3687524" lon="10.8075028"><ele>684.5</ele><time>2026-05-02T13:31:14.237Z</time></trkpt><trkpt lat="44.3687249" lon="10.8073887"><ele>683.0</ele><time>2026-05-02T13:31:16.248Z</time></trkpt><trkpt lat="44.3686852" lon="10.8072582"><ele>681.5</ele><time>2026-05-02T13:31:18.252Z</time></trkpt><trkpt lat="44.3686601" lon="10.8071552"><ele>680.0</ele><time>2026-05-02T13:31:20.2Z</time></trkpt><trkpt lat="44.3686471" lon="10.8070453"><ele>678.5</ele><time>2026-05-02T13:31:24.24Z</time></trkpt><trkpt lat="44.3686247" lon="10.8069629"><ele>677.0</ele><time>2026-05-02T13:32:39.245Z</time></trkpt><trkpt lat="44.3685822" lon="10.8068673"><ele>677.0</ele><time>2026-05-02T13:32:41.237Z</time></trkpt><trkpt lat="44.3685524" lon="10.8067671"><ele>677.0</ele><time>2026-05-02T13:32:43.28Z</time></trkpt><trkpt lat="44.368499" lon="10.8066811"><ele>677.0</ele><time>2026-05-02T13:32:45.231Z</time></trkpt><trkpt lat="44.3684327" lon="10.8065672"><ele>677.0</ele><time>2026-05-02T13:32:47.242Z</time></trkpt><trkpt lat="44.3683666" lon="10.8064101"><ele>677.0</ele><time>2026-05-02T13:32:49.25Z</time></trkpt><trkpt lat="44.3683315" lon="10.8063209"><ele>676.9999999999999</ele><time>2026-05-02T13:32:50.24Z</time></trkpt><trkpt lat="44.3682985" lon="10.8062445"><ele>677.0</ele><time>2026-05-02T13:32:51.252Z</time></trkpt><trkpt lat="44.3682447" lon="10.8061185"><ele>677.0</ele><time>2026-05-02T13:32:53.263Z</time></trkpt><trkpt lat="44.3682157" lon="10.8060401"><ele>677.0</ele><time>2026-05-02T13:32:54.244Z</time></trkpt><trkpt lat="44.3681871" lon="10.8059577"><ele>677.0</ele><time>2026-05-02T13:32:55.228Z</time></trkpt><trkpt lat="44.3681543" lon="10.8058811"><ele>676.9999999999999</ele><time>2026-05-02T13:32:56.234Z</time></trkpt><trkpt lat="44.3681029" lon="10.8058075"><ele>677.0</ele><time>2026-05-02T13:32:57.245Z</time></trkpt><trkpt lat="44.3680338" lon="10.805722"><ele>680.0</ele><time>2026-05-02T13:32:58.249Z</time></trkpt><trkpt lat="44.3679589" lon="10.8056284"><ele>683.0</ele><time>2026-05-02T13:32:59.255Z</time></trkpt><trkpt lat="44.3678952" lon="10.8055395"><ele>686.0</ele><time>2026-05-02T13:33:00.208Z</time></trkpt><trkpt lat="44.3678351" lon="10.8054404"><ele>689.0</ele><time>2026-05-02T13:33:01.236Z</time></trkpt><trkpt lat="44.3677784" lon="10.8053249"><ele>692.0</ele><time>2026-05-02T13:33:02.245Z</time></trkpt><trkpt lat="44.367723" lon="10.8052067"><ele>693.1666666666666</ele><time>2026-05-02T13:33:03.26Z</time></trkpt><trkpt lat="44.3676722" lon="10.8051131"><ele>694.3333333333333</ele><time>2026-05-02T13:33:04.205Z</time></trkpt><trkpt lat="44.3676332" lon="10.8050211"><ele>695.5</ele><time>2026-05-02T13:33:05.247Z</time></trkpt><trkpt lat="44.3676006" lon="10.8049081"><ele>696.6666666666666</ele><time>2026-05-02T13:33:06.218Z</time></trkpt><trkpt lat="44.3675667" lon="10.8047812"><ele>697.8333333333334</ele><time>2026-05-02T13:33:07.196Z</time></trkpt><trkpt lat="44.3675378" lon="10.8046526"><ele>699.0</ele><time>2026-05-02T13:33:08.242Z</time></trkpt><trkpt lat="44.3675145" lon="10.8045148"><ele>699.0</ele><time>2026-05-02T13:33:09.222Z</time></trkpt><trkpt lat="44.3675014" lon="10.8043904"><ele>699.0</ele><time>2026-05-02T13:33:10.248Z</time></trkpt><trkpt lat="44.3675022" lon="10.804269"><ele>699.0</ele><time>2026-05-02T13:33:11.271Z</time></trkpt><trkpt lat="44.3675113" lon="10.8041334"><ele>699.0</ele><time>2026-05-02T13:33:12.231Z</time></trkpt><trkpt lat="44.3675231" lon="10.8039903"><ele>699.0</ele><time>2026-05-02T13:33:13.222Z</time></trkpt><trkpt lat="44.3675359" lon="10.8038391"><ele>700.6666666666666</ele><time>2026-05-02T13:33:14.242Z</time></trkpt><trkpt lat="44.3675411" lon="10.8037003"><ele>702.3333333333334</ele><time>2026-05-02T13:33:15.259Z</time></trkpt><trkpt lat="44.3675381" lon="10.8035745"><ele>704.0</ele><time>2026-05-02T13:33:16.211Z</time></trkpt><trkpt lat="44.3675332" lon="10.8034637"><ele>705.6666666666667</ele><time>2026-05-02T13:33:17.221Z</time></trkpt><trkpt lat="44.3675216" lon="10.8033612"><ele>707.3333333333334</ele><time>2026-05-02T13:33:18.237Z</time></trkpt><trkpt lat="44.3675072" lon="10.8032645"><ele>709.0</ele><time>2026-05-02T13:33:19.237Z</time></trkpt><trkpt lat="44.3674839" lon="10.8031419"><ele>710.8000000000001</ele><time>2026-05-02T13:33:21.237Z</time></trkpt><trkpt lat="44.3674639" lon="10.8030544"><ele>712.6</ele><time>2026-05-02T13:33:37.205Z</time></trkpt><trkpt lat="44.3674435" lon="10.8029225"><ele>714.4</ele><time>2026-05-02T13:33:40.236Z</time></trkpt><trkpt lat="44.3674446" lon="10.802756"><ele>716.2</ele><time>2026-05-02T13:33:42.231Z</time></trkpt><trkpt lat="44.3674625" lon="10.8025891"><ele>718.0</ele><time>2026-05-02T13:33:44.243Z</time></trkpt><trkpt lat="44.3674709" lon="10.8024949"><ele>719.3333333333334</ele><time>2026-05-02T13:33:45.189Z</time></trkpt><trkpt lat="44.3674823" lon="10.8023898"><ele>720.6666666666667</ele><time>2026-05-02T13:33:46.219Z</time></trkpt><trkpt lat="44.3674948" lon="10.802295"><ele>722.0</ele><time>2026-05-02T13:33:47.229Z</time></trkpt><trkpt lat="44.3675242" lon="10.802142"><ele>723.3333333333334</ele><time>2026-05-02T13:33:49.241Z</time></trkpt><trkpt lat="44.3675942" lon="10.80207"><ele>724.6666666666666</ele><time>2026-05-02T13:33:51.235Z</time></trkpt><trkpt lat="44.3676631" lon="10.802066"><ele>726.0</ele><time>2026-05-02T13:33:52.23Z</time></trkpt><trkpt lat="44.3677522" lon="10.8020741"><ele>726.0</ele><time>2026-05-02T13:33:53.256Z</time></trkpt><trkpt lat="44.3678535" lon="10.8020818"><ele>726.0</ele><time>2026-05-02T13:33:54.247Z</time></trkpt><trkpt lat="44.3679554" lon="10.8020846"><ele>726.0</ele><time>2026-05-02T13:33:55.214Z</time></trkpt><trkpt lat="44.3680545" lon="10.8020849"><ele>726.0</ele><time>2026-05-02T13:33:56.196Z</time></trkpt><trkpt lat="44.3681519" lon="10.8020849"><ele>726.0</ele><time>2026-05-02T13:33:57.228Z</time></trkpt><trkpt lat="44.3682481" lon="10.8020878"><ele>725.8</ele><time>2026-05-02T13:33:58.191Z</time></trkpt><trkpt lat="44.3683512" lon="10.8020931"><ele>725.5999999999999</ele><time>2026-05-02T13:33:59.238Z</time></trkpt><trkpt lat="44.3684572" lon="10.8020989"><ele>725.4</ele><time>2026-05-02T13:34:00.217Z</time></trkpt><trkpt lat="44.368568" lon="10.802102"><ele>725.2</ele><time>2026-05-02T13:34:01.227Z</time></trkpt><trkpt lat="44.3686885" lon="10.8021016"><ele>725.0</ele><time>2026-05-02T13:34:02.255Z</time></trkpt><trkpt lat="44.3688175" lon="10.8021016"><ele>726.0</ele><time>2026-05-02T13:34:03.218Z</time></trkpt><trkpt lat="44.3689442" lon="10.8021109"><ele>727.0</ele><time>2026-05-02T13:34:04.237Z</time></trkpt><trkpt lat="44.3690721" lon="10.8021344"><ele>728.0</ele><time>2026-05-02T13:34:05.243Z</time></trkpt><trkpt lat="44.3692012" lon="10.8021744"><ele>729.0</ele><time>2026-05-02T13:34:06.255Z</time></trkpt><trkpt lat="44.3693278" lon="10.8022209"><ele>729.0</ele><time>2026-05-02T13:34:07.237Z</time></trkpt><trkpt lat="44.3694595" lon="10.8022679"><ele>729.0</ele><time>2026-05-02T13:34:08.262Z</time></trkpt><trkpt lat="44.3695856" lon="10.8023152"><ele>729.0</ele><time>2026-05-02T13:34:09.221Z</time></trkpt><trkpt lat="44.3697048" lon="10.8023655"><ele>729.0</ele><time>2026-05-02T13:34:10.228Z</time></trkpt><trkpt lat="44.3698233" lon="10.802424"><ele>729.0</ele><time>2026-05-02T13:34:11.234Z</time></trkpt><trkpt lat="44.3699462" lon="10.8024989"><ele>729.0</ele><time>2026-05-02T13:34:12.229Z</time></trkpt><trkpt lat="44.3700728" lon="10.8025859"><ele>729.0</ele><time>2026-05-02T13:34:13.233Z</time></trkpt><trkpt lat="44.3702037" lon="10.8026746"><ele>729.0</ele><time>2026-05-02T13:34:14.221Z</time></trkpt><trkpt lat="44.3703295" lon="10.8027563"><ele>729.0</ele><time>2026-05-02T13:34:15.244Z</time></trkpt><trkpt lat="44.370452" lon="10.8028318"><ele>729.0</ele><time>2026-05-02T13:34:16.242Z</time></trkpt><trkpt lat="44.3705759" lon="10.8029042"><ele>729.0</ele><time>2026-05-02T13:34:17.26Z</time></trkpt><trkpt lat="44.3707032" lon="10.802978"><ele>729.0</ele><time>2026-05-02T13:34:18.223Z</time></trkpt><trkpt lat="44.3708296" lon="10.803052"><ele>729.0</ele><time>2026-05-02T13:34:19.252Z</time></trkpt><trkpt lat="44.3709534" lon="10.8031234"><ele>729.0</ele><time>2026-05-02T13:34:20.233Z</time></trkpt><trkpt lat="44.3710689" lon="10.8031876"><ele>729.0</ele><time>2026-05-02T13:34:21.201Z</time></trkpt><trkpt lat="44.3711783" lon="10.8032446"><ele>729.0</ele><time>2026-05-02T13:34:22.207Z</time></trkpt><trkpt lat="44.3712826" lon="10.8032957"><ele>728.5</ele><time>2026-05-02T13:34:23.227Z</time></trkpt><trkpt lat="44.3713898" lon="10.8033453"><ele>728.0</ele><time>2026-05-02T13:34:24.247Z</time></trkpt><trkpt lat="44.3715028" lon="10.8033978"><ele>727.5</ele><time>2026-05-02T13:34:25.2Z</time></trkpt><trkpt lat="44.3716186" lon="10.8034555"><ele>727.0</ele><time>2026-05-02T13:34:26.174Z</time></trkpt><trkpt lat="44.3717391" lon="10.8035241"><ele>727.0</ele><time>2026-05-02T13:34:27.191Z</time></trkpt><trkpt lat="44.3718647" lon="10.8035943"><ele>727.0</ele><time>2026-05-02T13:34:28.209Z</time></trkpt><trkpt lat="44.371992" lon="10.8036542"><ele>727.0</ele><time>2026-05-02T13:34:29.196Z</time></trkpt><trkpt lat="44.372117" lon="10.803702"><ele>727.0</ele><time>2026-05-02T13:34:30.193Z</time></trkpt><trkpt lat="44.3722407" lon="10.8037418"><ele>727.75</ele><time>2026-05-02T13:34:31.236Z</time></trkpt><trkpt lat="44.3723619" lon="10.803778"><ele>728.5</ele><time>2026-05-02T13:34:32.18Z</time></trkpt><trkpt lat="44.3724811" lon="10.8038136"><ele>729.25</ele><time>2026-05-02T13:34:33.192Z</time></trkpt><trkpt lat="44.3725998" lon="10.8038508"><ele>730.0</ele><time>2026-05-02T13:34:34.192Z</time></trkpt><trkpt lat="44.3727236" lon="10.8038894"><ele>730.0</ele><time>2026-05-02T13:34:35.233Z</time></trkpt><trkpt lat="44.3728444" lon="10.8039244"><ele>730.0</ele><time>2026-05-02T13:34:36.231Z</time></trkpt><trkpt lat="44.3729581" lon="10.8039574"><ele>730.0</ele><time>2026-05-02T13:34:37.241Z</time></trkpt><trkpt lat="44.3730654" lon="10.8039879"><ele>730.0</ele><time>2026-05-02T13:34:38.224Z</time></trkpt><trkpt lat="44.3731665" lon="10.8040107"><ele>730.5</ele><time>2026-05-02T13:34:39.233Z</time></trkpt><trkpt lat="44.37326" lon="10.8040285"><ele>731.0</ele><time>2026-05-02T13:34:40.234Z</time></trkpt><trkpt lat="44.373344" lon="10.8040416"><ele>731.5</ele><time>2026-05-02T13:34:41.231Z</time></trkpt><trkpt lat="44.3734111" lon="10.8040444"><ele>732.0</ele><time>2026-05-02T13:34:42.229Z</time></trkpt><trkpt lat="44.3734882" lon="10.8040339"><ele>732.5</ele><time>2026-05-02T13:34:44.229Z</time></trkpt><trkpt lat="44.3735379" lon="10.8039719"><ele>733.0</ele><time>2026-05-02T13:34:47.283Z</time></trkpt><trkpt lat="44.3735084" lon="10.8038324"><ele>733.0</ele><time>2026-05-02T13:34:49.221Z</time></trkpt><trkpt lat="44.3734735" lon="10.8037402"><ele>733.0</ele><time>2026-05-02T13:34:50.228Z</time></trkpt><trkpt lat="44.3734315" lon="10.8036358"><ele>733.0</ele><time>2026-05-02T13:34:51.222Z</time></trkpt><trkpt lat="44.3733845" lon="10.8035229"><ele>733.0</ele><time>2026-05-02T13:34:52.221Z</time></trkpt><trkpt lat="44.3733386" lon="10.8034083"><ele>733.0</ele><time>2026-05-02T13:34:53.227Z</time></trkpt><trkpt lat="44.3733032" lon="10.8032928"><ele>733.0</ele><time>2026-05-02T13:34:54.233Z</time></trkpt><trkpt lat="44.3732906" lon="10.8031795"><ele>732.8</ele><time>2026-05-02T13:34:55.219Z</time></trkpt><trkpt lat="44.3733069" lon="10.8030739"><ele>732.5999999999999</ele><time>2026-05-02T13:34:56.219Z</time></trkpt><trkpt lat="44.3733516" lon="10.802984"><ele>732.4000000000001</ele><time>2026-05-02T13:34:57.212Z</time></trkpt><trkpt lat="44.3734232" lon="10.8029051"><ele>732.2</ele><time>2026-05-02T13:34:58.214Z</time></trkpt><trkpt lat="44.3735161" lon="10.8028351"><ele>732.0</ele><time>2026-05-02T13:34:59.216Z</time></trkpt><trkpt lat="44.373624" lon="10.8027632"><ele>732.0</ele><time>2026-05-02T13:35:00.227Z</time></trkpt><trkpt lat="44.3737306" lon="10.8026867"><ele>732.0</ele><time>2026-05-02T13:35:01.199Z</time></trkpt><trkpt lat="44.3738286" lon="10.8026073"><ele>732.0</ele><time>2026-05-02T13:35:02.219Z</time></trkpt><trkpt lat="44.3739129" lon="10.8025222"><ele>732.0</ele><time>2026-05-02T13:35:03.26Z</time></trkpt><trkpt lat="44.3739806" lon="10.8024289"><ele>732.0</ele><time>2026-05-02T13:35:04.232Z</time></trkpt><trkpt lat="44.3740316" lon="10.8023256"><ele>731.4000000000001</ele><time>2026-05-02T13:35:05.232Z</time></trkpt><trkpt lat="44.3740654" lon="10.8022103"><ele>730.8000000000001</ele><time>2026-05-02T13:35:06.205Z</time></trkpt><trkpt lat="44.3740825" lon="10.8020882"><ele>730.2</ele><time>2026-05-02T13:35:07.211Z</time></trkpt><trkpt lat="44.3740878" lon="10.8019556"><ele>729.6</ele><time>2026-05-02T13:35:08.228Z</time></trkpt><trkpt lat="44.3740863" lon="10.8018099"><ele>729.0</ele><time>2026-05-02T13:35:09.247Z</time></trkpt><trkpt lat="44.3740836" lon="10.801656"><ele>729.0</ele><time>2026-05-02T13:35:10.253Z</time></trkpt><trkpt lat="44.374085" lon="10.8014961"><ele>729.0</ele><time>2026-05-02T13:35:11.232Z</time></trkpt><trkpt lat="44.3740917" lon="10.8013231"><ele>729.0</ele><time>2026-05-02T13:35:12.222Z</time></trkpt><trkpt lat="44.3740996" lon="10.8011475"><ele>729.0</ele><time>2026-05-02T13:35:13.221Z</time></trkpt><trkpt lat="44.3741047" lon="10.8009844"><ele>729.0</ele><time>2026-05-02T13:35:14.226Z</time></trkpt><trkpt lat="44.3741055" lon="10.8008307"><ele>729.0</ele><time>2026-05-02T13:35:15.255Z</time></trkpt><trkpt lat="44.374104" lon="10.800691"><ele>729.0</ele><time>2026-05-02T13:35:16.242Z</time></trkpt><trkpt lat="44.3741037" lon="10.8005665"><ele>729.0</ele><time>2026-05-02T13:35:17.246Z</time></trkpt><trkpt lat="44.3741039" lon="10.8004547"><ele>729.0</ele><time>2026-05-02T13:35:18.243Z</time></trkpt><trkpt lat="44.3741016" lon="10.8003451"><ele>729.0</ele><time>2026-05-02T13:35:19.233Z</time></trkpt><trkpt lat="44.3740996" lon="10.8002364"><ele>729.0</ele><time>2026-05-02T13:35:20.228Z</time></trkpt><trkpt lat="44.3740965" lon="10.8000919"><ele>729.0</ele><time>2026-05-02T13:35:21.229Z</time></trkpt><trkpt lat="44.3740946" lon="10.7999566"><ele>729.0</ele><time>2026-05-02T13:35:22.229Z</time></trkpt><trkpt lat="44.374095" lon="10.7998348"><ele>729.0</ele><time>2026-05-02T13:35:23.225Z</time></trkpt><trkpt lat="44.374095" lon="10.7997289"><ele>729.0</ele><time>2026-05-02T13:35:24.224Z</time></trkpt><trkpt lat="44.3740884" lon="10.7995852"><ele>730.4000000000001</ele><time>2026-05-02T13:35:26.211Z</time></trkpt><trkpt lat="44.3741185" lon="10.7994795"><ele>731.8</ele><time>2026-05-02T13:35:28.247Z</time></trkpt><trkpt lat="44.3741961" lon="10.7994492"><ele>733.2</ele><time>2026-05-02T13:35:30.242Z</time></trkpt><trkpt lat="44.3743101" lon="10.7994273"><ele>734.5999999999999</ele><time>2026-05-02T13:35:32.242Z</time></trkpt><trkpt lat="44.3743715" lon="10.7994033"><ele>736.0</ele><time>2026-05-02T13:35:33.227Z</time></trkpt><trkpt lat="44.3744847" lon="10.7993569"><ele>735.4</ele><time>2026-05-02T13:35:35.224Z</time></trkpt><trkpt lat="44.37461" lon="10.7993303"><ele>734.8</ele><time>2026-05-02T13:35:37.199Z</time></trkpt><trkpt lat="44.3747258" lon="10.7992691"><ele>734.1999999999999</ele><time>2026-05-02T13:35:39.19Z</time></trkpt><trkpt lat="44.3748226" lon="10.7992016"><ele>733.5999999999999</ele><time>2026-05-02T13:35:41.233Z</time></trkpt><trkpt lat="44.3748925" lon="10.7991345"><ele>733.0</ele><time>2026-05-02T13:35:43.249Z</time></trkpt><trkpt lat="44.3749723" lon="10.799108"><ele>735.0</ele><time>2026-05-02T13:35:46.218Z</time></trkpt><trkpt lat="44.3750251" lon="10.7991578"><ele>737.0</ele><time>2026-05-02T13:35:50.234Z</time></trkpt><trkpt lat="44.3750568" lon="10.7992606"><ele>739.0</ele><time>2026-05-02T13:35:52.229Z</time></trkpt><trkpt lat="44.375087" lon="10.7994"><ele>741.0</ele><time>2026-05-02T13:35:54.235Z</time></trkpt><trkpt lat="44.3751079" lon="10.7994839"><ele>743.0</ele><time>2026-05-02T13:35:55.235Z</time></trkpt><trkpt lat="44.3751324" lon="10.7995909"><ele>745.0</ele><time>2026-05-02T13:35:56.199Z</time></trkpt><trkpt lat="44.3751565" lon="10.7996848"><ele>745.25</ele><time>2026-05-02T13:35:57.244Z</time></trkpt><trkpt lat="44.3752108" lon="10.7998598"><ele>745.5</ele><time>2026-05-02T13:35:59.245Z</time></trkpt><trkpt lat="44.3752558" lon="10.8000102"><ele>745.75</ele><time>2026-05-02T13:36:01.238Z</time></trkpt><trkpt lat="44.3752933" lon="10.800136"><ele>746.0</ele><time>2026-05-02T13:36:03.269Z</time></trkpt><trkpt lat="44.3753676" lon="10.8002328"><ele>745.5</ele><time>2026-05-02T13:36:05.194Z</time></trkpt><trkpt lat="44.3754167" lon="10.8002884"><ele>745.0</ele><time>2026-05-02T13:36:06.239Z</time></trkpt><trkpt lat="44.3754955" lon="10.8003747"><ele>744.5</ele><time>2026-05-02T13:36:08.216Z</time></trkpt><trkpt lat="44.3755596" lon="10.8004193"><ele>744.0</ele><time>2026-05-02T13:36:10.239Z</time></trkpt><trkpt lat="44.375655" lon="10.8004374"><ele>743.5</ele><time>2026-05-02T13:36:12.215Z</time></trkpt><trkpt lat="44.3757511" lon="10.8004063"><ele>743.0</ele><time>2026-05-02T13:36:14.203Z</time></trkpt><trkpt lat="44.3758149" lon="10.8003916"><ele>743.0</ele><time>2026-05-02T13:36:15.227Z</time></trkpt><trkpt lat="44.3758782" lon="10.8003913"><ele>743.0</ele><time>2026-05-02T13:36:16.233Z</time></trkpt><trkpt lat="44.3759903" lon="10.8003866"><ele>743.0</ele><time>2026-05-02T13:36:18.2Z</time></trkpt><trkpt lat="44.3760892" lon="10.8003719"><ele>743.0</ele><time>2026-05-02T13:36:20.223Z</time></trkpt><trkpt lat="44.3761857" lon="10.8003554"><ele>743.0</ele><time>2026-05-02T13:36:22.212Z</time></trkpt><trkpt lat="44.3762766" lon="10.8003303"><ele>744.4</ele><time>2026-05-02T13:36:24.237Z</time></trkpt><trkpt lat="44.3763579" lon="10.8003363"><ele>745.8</ele><time>2026-05-02T13:36:26.23Z</time></trkpt><trkpt lat="44.3764322" lon="10.8004045"><ele>747.2</ele><time>2026-05-02T13:36:28.217Z</time></trkpt><trkpt lat="44.3764988" lon="10.8005003"><ele>748.6</ele><time>2026-05-02T13:36:30.239Z</time></trkpt><trkpt lat="44.376569" lon="10.8006241"><ele>750.0</ele><time>2026-05-02T13:36:32.235Z</time></trkpt><trkpt lat="44.3766359" lon="10.800745"><ele>750.0</ele><time>2026-05-02T13:36:34.237Z</time></trkpt><trkpt lat="44.3766755" lon="10.800815"><ele>750.0</ele><time>2026-05-02T13:36:35.228Z</time></trkpt><trkpt lat="44.3767381" lon="10.8009316"><ele>750.0</ele><time>2026-05-02T13:36:37.256Z</time></trkpt><trkpt lat="44.3767934" lon="10.8009956"><ele>750.0</ele><time>2026-05-02T13:36:38.211Z</time></trkpt><trkpt lat="44.3768455" lon="10.8010521"><ele>750.0</ele><time>2026-05-02T13:36:39.226Z</time></trkpt><trkpt lat="44.3768972" lon="10.8011096"><ele>750.0</ele><time>2026-05-02T13:36:40.226Z</time></trkpt><trkpt lat="44.3769737" lon="10.8012123"><ele>750.0</ele><time>2026-05-02T13:36:42.255Z</time></trkpt><trkpt lat="44.377018" lon="10.801349"><ele>750.0</ele><time>2026-05-02T13:36:44.22Z</time></trkpt><trkpt lat="44.3770809" lon="10.8013118"><ele>750.0</ele><time>2026-05-02T13:36:48.241Z</time></trkpt><trkpt lat="44.3770796" lon="10.8012"><ele>750.0</ele><time>2026-05-02T13:36:50.191Z</time></trkpt><trkpt lat="44.3770688" lon="10.801041"><ele>750.0</ele><time>2026-05-02T13:36:52.184Z</time></trkpt><trkpt lat="44.3770736" lon="10.8008726"><ele>750.0</ele><time>2026-05-02T13:36:54.234Z</time></trkpt><trkpt lat="44.3771091" lon="10.8007634"><ele>750.0</ele><time>2026-05-02T13:36:55.225Z</time></trkpt><trkpt lat="44.3771453" lon="10.8006517"><ele>750.0</ele><time>2026-05-02T13:36:56.222Z</time></trkpt><trkpt lat="44.3771666" lon="10.8005361"><ele>750.0</ele><time>2026-05-02T13:36:57.236Z</time></trkpt><trkpt lat="44.3772147" lon="10.8003907"><ele>750.0</ele><time>2026-05-02T13:36:59.223Z</time></trkpt><trkpt lat="44.3773148" lon="10.8003283"><ele>748.5</ele><time>2026-05-02T13:37:01.248Z</time></trkpt><trkpt lat="44.3773836" lon="10.8003194"><ele>747.0</ele><time>2026-05-02T13:37:02.217Z</time></trkpt><trkpt lat="44.3774607" lon="10.8003076"><ele>745.5</ele><time>2026-05-02T13:37:03.185Z</time></trkpt><trkpt lat="44.3775397" lon="10.8003171"><ele>744.0</ele><time>2026-05-02T13:37:04.225Z</time></trkpt><trkpt lat="44.3776241" lon="10.8003268"><ele>742.5</ele><time>2026-05-02T13:37:05.216Z</time></trkpt><trkpt lat="44.3777071" lon="10.8003476"><ele>741.0</ele><time>2026-05-02T13:37:06.26Z</time></trkpt><trkpt lat="44.3778121" lon="10.8003597"><ele>741.0</ele><time>2026-05-02T13:37:08.229Z</time></trkpt><trkpt lat="44.3778723" lon="10.8003131"><ele>741.0</ele><time>2026-05-02T13:37:11.215Z</time></trkpt><trkpt lat="44.3779485" lon="10.8002712"><ele>741.0</ele><time>2026-05-02T13:37:26.249Z</time></trkpt><trkpt lat="44.3780092" lon="10.8002078"><ele>741.0</ele><time>2026-05-02T13:37:28.26Z</time></trkpt><trkpt lat="44.3780728" lon="10.8001382"><ele>741.0</ele><time>2026-05-02T13:37:30.237Z</time></trkpt><trkpt lat="44.3781395" lon="10.800084"><ele>741.0</ele><time>2026-05-02T13:37:32.212Z</time></trkpt><trkpt lat="44.378218" lon="10.8000083"><ele>738.75</ele><time>2026-05-02T13:37:34.193Z</time></trkpt><trkpt lat="44.3783186" lon="10.7999198"><ele>736.5</ele><time>2026-05-02T13:37:36.245Z</time></trkpt><trkpt lat="44.3784227" lon="10.7998404"><ele>734.25</ele><time>2026-05-02T13:37:38.252Z</time></trkpt><trkpt lat="44.378526" lon="10.7997597"><ele>732.0</ele><time>2026-05-02T13:37:40.248Z</time></trkpt><trkpt lat="44.3786142" lon="10.7996942"><ele>732.0</ele><time>2026-05-02T13:37:42.252Z</time></trkpt><trkpt lat="44.378693" lon="10.7996413"><ele>732.0</ele><time>2026-05-02T13:37:44.268Z</time></trkpt><trkpt lat="44.3787801" lon="10.7996503"><ele>732.0</ele><time>2026-05-02T13:37:46.24Z</time></trkpt><trkpt lat="44.3788341" lon="10.7997095"><ele>732.0</ele><time>2026-05-02T13:37:47.238Z</time></trkpt><trkpt lat="44.3788938" lon="10.7997643"><ele>732.0</ele><time>2026-05-02T13:37:48.238Z</time></trkpt><trkpt lat="44.3789795" lon="10.7998478"><ele>732.0</ele><time>2026-05-02T13:37:50.295Z</time></trkpt><trkpt lat="44.3790821" lon="10.7999459"><ele>731.2</ele><time>2026-05-02T13:37:52.238Z</time></trkpt><trkpt lat="44.3791684" lon="10.8000183"><ele>730.4000000000001</ele><time>2026-05-02T13:37:54.239Z</time></trkpt><trkpt lat="44.3792663" lon="10.8000786"><ele>729.5999999999999</ele><time>2026-05-02T13:37:56.277Z</time></trkpt><trkpt lat="44.3793719" lon="10.8001154"><ele>728.8</ele><time>2026-05-02T13:37:58.208Z</time></trkpt><trkpt lat="44.379465" lon="10.8001382"><ele>728.0</ele><time>2026-05-02T13:38:00.261Z</time></trkpt><trkpt lat="44.3795646" lon="10.800165"><ele>727.5</ele><time>2026-05-02T13:38:02.235Z</time></trkpt><trkpt lat="44.3796422" lon="10.8001779"><ele>727.0</ele><time>2026-05-02T13:38:04.217Z</time></trkpt><trkpt lat="44.3797355" lon="10.8002126"><ele>726.5</ele><time>2026-05-02T13:38:06.237Z</time></trkpt><trkpt lat="44.3798249" lon="10.8003133"><ele>726.0</ele><time>2026-05-02T13:38:08.206Z</time></trkpt><trkpt lat="44.3798743" lon="10.8003759"><ele>725.5</ele><time>2026-05-02T13:38:09.218Z</time></trkpt><trkpt lat="44.3799338" lon="10.800456"><ele>725.0</ele><time>2026-05-02T13:38:11.214Z</time></trkpt><trkpt lat="44.3799976" lon="10.8005084"><ele>722.0</ele><time>2026-05-02T13:38:14.237Z</time></trkpt><trkpt lat="44.3800896" lon="10.8004771"><ele>719.0</ele><time>2026-05-02T13:38:17.218Z</time></trkpt><trkpt lat="44.3801404" lon="10.8004157"><ele>716.0</ele><time>2026-05-02T13:38:19.233Z</time></trkpt><trkpt lat="44.380194" lon="10.8002928"><ele>713.0</ele><time>2026-05-02T13:38:22.205Z</time></trkpt><trkpt lat="44.3802009" lon="10.8001508"><ele>710.0</ele><time>2026-05-02T13:38:24.218Z</time></trkpt><trkpt lat="44.3802104" lon="10.8000505"><ele>707.0</ele><time>2026-05-02T13:38:25.226Z</time></trkpt><trkpt lat="44.3802204" lon="10.7998937"><ele>707.0</ele><time>2026-05-02T13:38:27.216Z</time></trkpt><trkpt lat="44.3802445" lon="10.79976"><ele>707.0</ele><time>2026-05-02T13:38:29.189Z</time></trkpt><trkpt lat="44.3802548" lon="10.7996566"><ele>707.0</ele><time>2026-05-02T13:38:31.187Z</time></trkpt><trkpt lat="44.3802865" lon="10.7995703"><ele>707.0</ele><time>2026-05-02T13:44:01.206Z</time></trkpt><trkpt lat="44.3803542" lon="10.799552"><ele>707.0</ele><time>2026-05-02T13:44:06.225Z</time></trkpt><trkpt lat="44.3804298" lon="10.7995697"><ele>707.0</ele><time>2026-05-02T13:44:09.243Z</time></trkpt><trkpt lat="44.3805142" lon="10.7996193"><ele>703.3333333333333</ele><time>2026-05-02T13:44:12.234Z</time></trkpt><trkpt lat="44.3805724" lon="10.7996773"><ele>699.6666666666666</ele><time>2026-05-02T13:44:14.236Z</time></trkpt><trkpt lat="44.3806192" lon="10.7997425"><ele>696.0</ele><time>2026-05-02T13:44:16.208Z</time></trkpt><trkpt lat="44.3806478" lon="10.7998696"><ele>692.3333333333334</ele><time>2026-05-02T13:44:19.213Z</time></trkpt><trkpt lat="44.3806476" lon="10.7999814"><ele>688.6666666666667</ele><time>2026-05-02T13:44:21.204Z</time></trkpt><trkpt lat="44.3806432" lon="10.8000736"><ele>685.0</ele><time>2026-05-02T13:44:23.215Z</time></trkpt><trkpt lat="44.3806168" lon="10.8001663"><ele>684.1666666666667</ele><time>2026-05-02T13:44:26.266Z</time></trkpt><trkpt lat="44.3805901" lon="10.8002468"><ele>683.3333333333334</ele><time>2026-05-02T13:44:28.252Z</time></trkpt><trkpt lat="44.3805569" lon="10.8004083"><ele>682.5</ele><time>2026-05-02T13:44:30.242Z</time></trkpt><trkpt lat="44.3805481" lon="10.8005054"><ele>681.6666666666666</ele><time>2026-05-02T13:44:31.227Z</time></trkpt><trkpt lat="44.3805404" lon="10.8006193"><ele>680.8333333333333</ele><time>2026-05-02T13:44:32.233Z</time></trkpt><trkpt lat="44.3805317" lon="10.8007128"><ele>680.0</ele><time>2026-05-02T13:44:33.25Z</time></trkpt><trkpt lat="44.3805315" lon="10.8008032"><ele>680.0</ele><time>2026-05-02T13:44:35.244Z</time></trkpt><trkpt lat="44.3805889" lon="10.8008464"><ele>680.0</ele><time>2026-05-02T13:44:39.208Z</time></trkpt><trkpt lat="44.3806605" lon="10.8007774"><ele>680.0</ele><time>2026-05-02T13:44:42.187Z</time></trkpt><trkpt lat="44.3806931" lon="10.8006808"><ele>680.0</ele><time>2026-05-02T13:44:44.237Z</time></trkpt><trkpt lat="44.3807156" lon="10.800575"><ele>680.0</ele><time>2026-05-02T13:44:46.216Z</time></trkpt><trkpt lat="44.380753" lon="10.8004199"><ele>680.0</ele><time>2026-05-02T13:44:48.212Z</time></trkpt><trkpt lat="44.3808136" lon="10.8002871"><ele>680.0</ele><time>2026-05-02T13:44:50.2Z</time></trkpt><trkpt lat="44.3808901" lon="10.8002083"><ele>680.0</ele><time>2026-05-02T13:44:52.233Z</time></trkpt><trkpt lat="44.3809575" lon="10.8001536"><ele>680.0</ele><time>2026-05-02T13:44:54.216Z</time></trkpt><trkpt lat="44.3810327" lon="10.8001287"><ele>680.0</ele><time>2026-05-02T13:44:56.219Z</time></trkpt><trkpt lat="44.3811072" lon="10.8000978"><ele>680.0</ele><time>2026-05-02T13:44:58.21Z</time></trkpt><trkpt lat="44.3811543" lon="10.8000065"><ele>680.0</ele><time>2026-05-02T13:45:02.221Z</time></trkpt><trkpt lat="44.3812276" lon="10.7999827"><ele>680.8333333333333</ele><time>2026-05-02T13:45:06.202Z</time></trkpt><trkpt lat="44.3812902" lon="10.7999597"><ele>681.6666666666666</ele><time>2026-05-02T13:45:08.227Z</time></trkpt><trkpt lat="44.3813707" lon="10.7998863"><ele>682.5</ele><time>2026-05-02T13:45:10.231Z</time></trkpt><trkpt lat="44.3814219" lon="10.7998349"><ele>683.3333333333334</ele><time>2026-05-02T13:45:11.235Z</time></trkpt><trkpt lat="44.3814859" lon="10.7997783"><ele>684.1666666666667</ele><time>2026-05-02T13:45:13.198Z</time></trkpt><trkpt lat="44.3815583" lon="10.7996879"><ele>685.0</ele><time>2026-05-02T13:45:16.222Z</time></trkpt><trkpt lat="44.3816286" lon="10.7996395"><ele>682.1428571428571</ele><time>2026-05-02T13:45:19.2Z</time></trkpt><trkpt lat="44.3817021" lon="10.7996277"><ele>679.2857142857143</ele><time>2026-05-02T13:45:22.259Z</time></trkpt><trkpt lat="44.3817682" lon="10.7996522"><ele>676.4285714285714</ele><time>2026-05-02T13:45:24.253Z</time></trkpt><trkpt lat="44.3818199" lon="10.7997058"><ele>673.5714285714286</ele><time>2026-05-02T13:45:28.237Z</time></trkpt><trkpt lat="44.3818431" lon="10.7996059"><ele>670.7142857142858</ele><time>2026-05-02T13:45:32.226Z</time></trkpt><trkpt lat="44.3818652" lon="10.7994949"><ele>667.8571428571429</ele><time>2026-05-02T13:45:34.212Z</time></trkpt><trkpt lat="44.3818996" lon="10.7994037"><ele>665.0</ele><time>2026-05-02T13:45:36.279Z</time></trkpt><trkpt lat="44.3819592" lon="10.7993372"><ele>664.8</ele><time>2026-05-02T13:45:38.179Z</time></trkpt><trkpt lat="44.382023" lon="10.7992969"><ele>664.6</ele><time>2026-05-02T13:45:40.215Z</time></trkpt><trkpt lat="44.3821178" lon="10.7992573"><ele>664.4000000000001</ele><time>2026-05-02T13:45:43.239Z</time></trkpt><trkpt lat="44.382214" lon="10.7992227"><ele>664.2</ele><time>2026-05-02T13:45:45.221Z</time></trkpt><trkpt lat="44.3823392" lon="10.7991984"><ele>664.0</ele><time>2026-05-02T13:45:47.279Z</time></trkpt><trkpt lat="44.3824299" lon="10.799179"><ele>663.4000000000001</ele><time>2026-05-02T13:45:49.215Z</time></trkpt><trkpt lat="44.3825289" lon="10.7991461"><ele>662.8</ele><time>2026-05-02T13:45:51.185Z</time></trkpt><trkpt lat="44.3826051" lon="10.7991308"><ele>662.2</ele><time>2026-05-02T13:45:52.194Z</time></trkpt><trkpt lat="44.3826731" lon="10.7991151"><ele>661.5999999999999</ele><time>2026-05-02T13:45:53.21Z</time></trkpt><trkpt lat="44.3827808" lon="10.7991188"><ele>661.0</ele><time>2026-05-02T13:45:55.25Z</time></trkpt><trkpt lat="44.3828835" lon="10.7990945"><ele>661.0</ele><time>2026-05-02T13:45:57.224Z</time></trkpt><trkpt lat="44.382975" lon="10.7990763"><ele>661.0</ele><time>2026-05-02T13:45:59.244Z</time></trkpt><trkpt lat="44.3830395" lon="10.7990348"><ele>661.0</ele><time>2026-05-02T13:46:01.21Z</time></trkpt><trkpt lat="44.3831241" lon="10.7988695"><ele>661.0</ele><time>2026-05-02T13:46:04.237Z</time></trkpt><trkpt lat="44.383172" lon="10.7987539"><ele>661.0</ele><time>2026-05-02T13:46:05.229Z</time></trkpt><trkpt lat="44.383206" lon="10.7986728"><ele>661.8</ele><time>2026-05-02T13:46:06.221Z</time></trkpt><trkpt lat="44.3832359" lon="10.7985919"><ele>662.5999999999999</ele><time>2026-05-02T13:46:07.203Z</time></trkpt><trkpt lat="44.3832908" lon="10.798465"><ele>663.4</ele><time>2026-05-02T13:46:09.222Z</time></trkpt><trkpt lat="44.3833528" lon="10.7983112"><ele>664.2</ele><time>2026-05-02T13:46:11.237Z</time></trkpt><trkpt lat="44.3834219" lon="10.798202"><ele>665.0</ele><time>2026-05-02T13:46:13.235Z</time></trkpt><trkpt lat="44.3834974" lon="10.7981057"><ele>665.0</ele><time>2026-05-02T13:46:15.215Z</time></trkpt><trkpt lat="44.3835857" lon="10.7980461"><ele>665.0</ele><time>2026-05-02T13:46:17.229Z</time></trkpt><trkpt lat="44.3836848" lon="10.7980319"><ele>665.0</ele><time>2026-05-02T13:46:19.281Z</time></trkpt><trkpt lat="44.3837842" lon="10.7980566"><ele>665.0</ele><time>2026-05-02T13:46:21.231Z</time></trkpt><trkpt lat="44.383857" lon="10.7980315"><ele>665.0</ele><time>2026-05-02T13:46:24.216Z</time></trkpt><trkpt lat="44.3838527" lon="10.7979065"><ele>666.5</ele><time>2026-05-02T13:46:31.21Z</time></trkpt><trkpt lat="44.3838491" lon="10.7977876"><ele>668.0</ele><time>2026-05-02T13:46:33.245Z</time></trkpt><trkpt lat="44.3838615" lon="10.7976729"><ele>669.5</ele><time>2026-05-02T13:46:35.207Z</time></trkpt><trkpt lat="44.3838761" lon="10.7975557"><ele>671.0</ele><time>2026-05-02T13:46:37.229Z</time></trkpt><trkpt lat="44.3838907" lon="10.7974256"><ele>672.5</ele><time>2026-05-02T13:46:39.21Z</time></trkpt><trkpt lat="44.383952" lon="10.7973288"><ele>674.0</ele><time>2026-05-02T13:46:41.182Z</time></trkpt><trkpt lat="44.3840528" lon="10.7972523"><ele>674.0</ele><time>2026-05-02T13:46:43.229Z</time></trkpt><trkpt lat="44.384161" lon="10.797178"><ele>674.0</ele><time>2026-05-02T13:46:45.225Z</time></trkpt><trkpt lat="44.3842751" lon="10.7971241"><ele>674.0</ele><time>2026-05-02T13:46:47.3Z</time></trkpt><trkpt lat="44.384349" lon="10.7971122"><ele>674.0</ele><time>2026-05-02T13:46:48.245Z</time></trkpt><trkpt lat="44.3844263" lon="10.7971025"><ele>674.0</ele><time>2026-05-02T13:46:49.24Z</time></trkpt><trkpt lat="44.3845502" lon="10.7970979"><ele>674.0</ele><time>2026-05-02T13:46:51.211Z</time></trkpt><trkpt lat="44.3846139" lon="10.7970907"><ele>674.0</ele><time>2026-05-02T13:46:52.198Z</time></trkpt><trkpt lat="44.3847283" lon="10.7970814"><ele>674.0</ele><time>2026-05-02T13:46:54.218Z</time></trkpt><trkpt lat="44.384824" lon="10.7970465"><ele>674.0</ele><time>2026-05-02T13:46:56.218Z</time></trkpt><trkpt lat="44.3848803" lon="10.7969549"><ele>674.0</ele><time>2026-05-02T13:46:58.203Z</time></trkpt><trkpt lat="44.3849192" lon="10.7967948"><ele>674.3333333333333</ele><time>2026-05-02T13:47:00.209Z</time></trkpt><trkpt lat="44.3849521" lon="10.7966893"><ele>674.6666666666666</ele><time>2026-05-02T13:47:01.203Z</time></trkpt><trkpt lat="44.3849832" lon="10.7965782"><ele>675.0</ele><time>2026-05-02T13:47:02.226Z</time></trkpt><trkpt lat="44.3850102" lon="10.7964578"><ele>675.3333333333334</ele><time>2026-05-02T13:47:03.239Z</time></trkpt><trkpt lat="44.3850396" lon="10.7963572"><ele>675.6666666666667</ele><time>2026-05-02T13:47:04.233Z</time></trkpt><trkpt lat="44.3850696" lon="10.7962561"><ele>676.0</ele><time>2026-05-02T13:47:05.221Z</time></trkpt><trkpt lat="44.385095" lon="10.7961649"><ele>676.0</ele><time>2026-05-02T13:47:06.236Z</time></trkpt><trkpt lat="44.3851308" lon="10.796068"><ele>676.0</ele><time>2026-05-02T13:47:07.219Z</time></trkpt><trkpt lat="44.3851795" lon="10.7959889"><ele>676.0</ele><time>2026-05-02T13:47:08.182Z</time></trkpt><trkpt lat="44.385227" lon="10.7959257"><ele>676.0</ele><time>2026-05-02T13:47:09.238Z</time></trkpt><trkpt lat="44.3852972" lon="10.7958911"><ele>676.0</ele><time>2026-05-02T13:47:10.222Z</time></trkpt><trkpt lat="44.3853876" lon="10.7958357"><ele>676.0</ele><time>2026-05-02T13:47:11.23Z</time></trkpt><trkpt lat="44.3854762" lon="10.7957874"><ele>676.5</ele><time>2026-05-02T13:47:12.239Z</time></trkpt><trkpt lat="44.3855741" lon="10.7957314"><ele>677.0</ele><time>2026-05-02T13:47:13.25Z</time></trkpt><trkpt lat="44.385659" lon="10.795679"><ele>677.5</ele><time>2026-05-02T13:47:14.227Z</time></trkpt><trkpt lat="44.3857376" lon="10.7956239"><ele>678.0</ele><time>2026-05-02T13:47:15.204Z</time></trkpt><trkpt lat="44.3858196" lon="10.7955821"><ele>678.5</ele><time>2026-05-02T13:47:16.236Z</time></trkpt><trkpt lat="44.3858914" lon="10.7955503"><ele>679.0</ele><time>2026-05-02T13:47:17.24Z</time></trkpt><trkpt lat="44.3859599" lon="10.7955155"><ele>679.0</ele><time>2026-05-02T13:47:18.243Z</time></trkpt><trkpt lat="44.3860336" lon="10.7954687"><ele>679.0</ele><time>2026-05-02T13:47:19.238Z</time></trkpt><trkpt lat="44.3860999" lon="10.7954316"><ele>679.0</ele><time>2026-05-02T13:47:20.244Z</time></trkpt><trkpt lat="44.386161" lon="10.7953673"><ele>679.0</ele><time>2026-05-02T13:47:21.216Z</time></trkpt><trkpt lat="44.3862223" lon="10.7953036"><ele>679.0</ele><time>2026-05-02T13:47:22.248Z</time></trkpt><trkpt lat="44.3862872" lon="10.7952509"><ele>679.0</ele><time>2026-05-02T13:47:23.229Z</time></trkpt><trkpt lat="44.3863455" lon="10.7951977"><ele>679.4000000000001</ele><time>2026-05-02T13:47:24.223Z</time></trkpt><trkpt lat="44.3864221" lon="10.7951604"><ele>679.8</ele><time>2026-05-02T13:47:25.203Z</time></trkpt><trkpt lat="44.386502" lon="10.7951346"><ele>680.2</ele><time>2026-05-02T13:47:26.219Z</time></trkpt><trkpt lat="44.3866135" lon="10.7950755"><ele>680.5999999999999</ele><time>2026-05-02T13:47:28.242Z</time></trkpt><trkpt lat="44.3866928" lon="10.7950021"><ele>681.0</ele><time>2026-05-02T13:47:30.23Z</time></trkpt><trkpt lat="44.3867642" lon="10.7949157"><ele>681.0</ele><time>2026-05-02T13:47:32.21Z</time></trkpt><trkpt lat="44.3868552" lon="10.7948435"><ele>681.0</ele><time>2026-05-02T13:47:34.233Z</time></trkpt><trkpt lat="44.3869734" lon="10.7947953"><ele>681.0</ele><time>2026-05-02T13:47:36.24Z</time></trkpt><trkpt lat="44.3870899" lon="10.7947625"><ele>681.0</ele><time>2026-05-02T13:47:38.241Z</time></trkpt><trkpt lat="44.3872085" lon="10.7947349"><ele>682.1666666666666</ele><time>2026-05-02T13:47:40.226Z</time></trkpt><trkpt lat="44.3872713" lon="10.794726"><ele>683.3333333333334</ele><time>2026-05-02T13:47:41.181Z</time></trkpt><trkpt lat="44.3873945" lon="10.7947298"><ele>684.5</ele><time>2026-05-02T13:47:43.236Z</time></trkpt><trkpt lat="44.3874773" lon="10.7947407"><ele>685.6666666666667</ele><time>2026-05-02T13:47:44.243Z</time></trkpt><trkpt lat="44.387552" lon="10.7947473"><ele>686.8333333333334</ele><time>2026-05-02T13:47:45.265Z</time></trkpt><trkpt lat="44.3876296" lon="10.794762"><ele>688.0</ele><time>2026-05-02T13:47:46.211Z</time></trkpt><trkpt lat="44.3876929" lon="10.7947753"><ele>688.0000000000001</ele><time>2026-05-02T13:47:47.223Z</time></trkpt><trkpt lat="44.3877609" lon="10.7947842"><ele>688.0</ele><time>2026-05-02T13:47:48.227Z</time></trkpt><trkpt lat="44.3878286" lon="10.7948004"><ele>688.0</ele><time>2026-05-02T13:47:49.199Z</time></trkpt><trkpt lat="44.3879024" lon="10.7948207"><ele>688.0</ele><time>2026-05-02T13:47:50.222Z</time></trkpt><trkpt lat="44.3879792" lon="10.794834"><ele>688.0</ele><time>2026-05-02T13:47:51.225Z</time></trkpt><trkpt lat="44.3880545" lon="10.7948442"><ele>688.0000000000001</ele><time>2026-05-02T13:47:52.246Z</time></trkpt><trkpt lat="44.3881201" lon="10.7948314"><ele>688.0</ele><time>2026-05-02T13:47:53.228Z</time></trkpt><trkpt lat="44.3881862" lon="10.7948246"><ele>687.5999999999999</ele><time>2026-05-02T13:47:54.233Z</time></trkpt><trkpt lat="44.3883104" lon="10.7947957"><ele>687.1999999999999</ele><time>2026-05-02T13:47:56.223Z</time></trkpt><trkpt lat="44.38838" lon="10.7947514"><ele>686.8</ele><time>2026-05-02T13:47:57.25Z</time></trkpt><trkpt lat="44.38846" lon="10.7946931"><ele>686.4</ele><time>2026-05-02T13:47:58.182Z</time></trkpt><trkpt lat="44.3885418" lon="10.7946365"><ele>686.0</ele><time>2026-05-02T13:47:59.221Z</time></trkpt><trkpt lat="44.3886026" lon="10.7945932"><ele>686.0</ele><time>2026-05-02T13:48:00.224Z</time></trkpt><trkpt lat="44.3886779" lon="10.7945547"><ele>686.0</ele><time>2026-05-02T13:48:01.243Z</time></trkpt><trkpt lat="44.3887522" lon="10.7945243"><ele>686.0</ele><time>2026-05-02T13:48:02.19Z</time></trkpt><trkpt lat="44.3888165" lon="10.7945"><ele>686.0</ele><time>2026-05-02T13:48:03.218Z</time></trkpt><trkpt lat="44.3889346" lon="10.7944525"><ele>686.0</ele><time>2026-05-02T13:48:05.209Z</time></trkpt><trkpt lat="44.3890026" lon="10.794436"><ele>686.0</ele><time>2026-05-02T13:48:06.253Z</time></trkpt><trkpt lat="44.3890718" lon="10.7944459"><ele>686.5</ele><time>2026-05-02T13:48:07.214Z</time></trkpt><trkpt lat="44.389137" lon="10.7944893"><ele>687.0</ele><time>2026-05-02T13:48:08.222Z</time></trkpt><trkpt lat="44.3892055" lon="10.7945524"><ele>687.5</ele><time>2026-05-02T13:48:09.225Z</time></trkpt><trkpt lat="44.3892573" lon="10.7946327"><ele>688.0</ele><time>2026-05-02T13:48:10.243Z</time></trkpt><trkpt lat="44.3893123" lon="10.7947079"><ele>688.5</ele><time>2026-05-02T13:48:11.231Z</time></trkpt><trkpt lat="44.3893806" lon="10.7947846"><ele>689.0</ele><time>2026-05-02T13:48:13.213Z</time></trkpt><trkpt lat="44.3894426" lon="10.7948004"><ele>689.0</ele><time>2026-05-02T13:48:14.227Z</time></trkpt><trkpt lat="44.3895035" lon="10.7948298"><ele>689.0</ele><time>2026-05-02T13:48:15.211Z</time></trkpt><trkpt lat="44.3895625" lon="10.794868"><ele>689.0</ele><time>2026-05-02T13:48:16.247Z</time></trkpt><trkpt lat="44.389627" lon="10.7949261"><ele>689.0</ele><time>2026-05-02T13:48:17.227Z</time></trkpt><trkpt lat="44.3897124" lon="10.7949803"><ele>689.0</ele><time>2026-05-02T13:48:19.247Z</time></trkpt><trkpt lat="44.3897949" lon="10.7949071"><ele>689.0</ele><time>2026-05-02T13:48:22.228Z</time></trkpt><trkpt lat="44.3898274" lon="10.7947507"><ele>688.0</ele><time>2026-05-02T13:48:24.22Z</time></trkpt><trkpt lat="44.3898531" lon="10.7946296"><ele>687.0</ele><time>2026-05-02T13:48:25.189Z</time></trkpt><trkpt lat="44.3898761" lon="10.7945361"><ele>686.0</ele><time>2026-05-02T13:48:26.238Z</time></trkpt><trkpt lat="44.3899328" lon="10.794401"><ele>685.0</ele><time>2026-05-02T13:48:28.241Z</time></trkpt><trkpt lat="44.3900297" lon="10.7943542"><ele>684.0</ele><time>2026-05-02T13:48:30.234Z</time></trkpt><trkpt lat="44.3901468" lon="10.7943475"><ele>683.0</ele><time>2026-05-02T13:48:32.271Z</time></trkpt><trkpt lat="44.3902606" lon="10.7943236"><ele>682.0</ele><time>2026-05-02T13:48:34.245Z</time></trkpt><trkpt lat="44.3903611" lon="10.794284"><ele>681.0</ele><time>2026-05-02T13:48:36.242Z</time></trkpt><trkpt lat="44.390443" lon="10.7942464"><ele>680.0</ele><time>2026-05-02T13:48:39.223Z</time></trkpt><trkpt lat="44.3905109" lon="10.7942218"><ele>679.0</ele><time>2026-05-02T13:48:42.253Z</time></trkpt><trkpt lat="44.3905722" lon="10.7941931"><ele>678.0</ele><time>2026-05-02T13:48:44.237Z</time></trkpt><trkpt lat="44.3906331" lon="10.7941508"><ele>678.0</ele><time>2026-05-02T13:48:46.218Z</time></trkpt><trkpt lat="44.3907028" lon="10.7940771"><ele>678.0</ele><time>2026-05-02T13:48:48.21Z</time></trkpt><trkpt lat="44.3907857" lon="10.7940136"><ele>678.0</ele><time>2026-05-02T13:48:50.203Z</time></trkpt><trkpt lat="44.3908785" lon="10.7939877"><ele>678.0</ele><time>2026-05-02T13:48:52.237Z</time></trkpt><trkpt lat="44.39095" lon="10.7939769"><ele>678.0</ele><time>2026-05-02T13:48:53.215Z</time></trkpt><trkpt lat="44.3910615" lon="10.7939577"><ele>678.0</ele><time>2026-05-02T13:48:55.226Z</time></trkpt><trkpt lat="44.391168" lon="10.7939354"><ele>678.0</ele><time>2026-05-02T13:48:57.185Z</time></trkpt><trkpt lat="44.3912338" lon="10.7939243"><ele>678.0</ele><time>2026-05-02T13:48:58.22Z</time></trkpt><trkpt lat="44.3913369" lon="10.793905"><ele>678.0</ele><time>2026-05-02T13:49:00.221Z</time></trkpt><trkpt lat="44.3914386" lon="10.7939259"><ele>678.0</ele><time>2026-05-02T13:49:02.217Z</time></trkpt><trkpt lat="44.3915279" lon="10.7939522"><ele>678.8333333333334</ele><time>2026-05-02T13:49:04.247Z</time></trkpt><trkpt lat="44.3915995" lon="10.7940326"><ele>679.6666666666666</ele><time>2026-05-02T13:49:06.223Z</time></trkpt><trkpt lat="44.3916577" lon="10.7939973"><ele>680.5</ele><time>2026-05-02T13:49:08.208Z</time></trkpt><trkpt lat="44.3917293" lon="10.7938985"><ele>681.3333333333333</ele><time>2026-05-02T13:49:10.22Z</time></trkpt><trkpt lat="44.3917983" lon="10.7937893"><ele>682.1666666666666</ele><time>2026-05-02T13:49:12.224Z</time></trkpt><trkpt lat="44.3918587" lon="10.7937171"><ele>683.0</ele><time>2026-05-02T13:49:13.277Z</time></trkpt><trkpt lat="44.3919112" lon="10.7936478"><ele>683.0</ele><time>2026-05-02T13:49:14.209Z</time></trkpt><trkpt lat="44.3919585" lon="10.7935753"><ele>683.0</ele><time>2026-05-02T13:49:15.179Z</time></trkpt><trkpt lat="44.392027" lon="10.7934966"><ele>683.0</ele><time>2026-05-02T13:49:16.239Z</time></trkpt><trkpt lat="44.3920838" lon="10.7934546"><ele>683.0</ele><time>2026-05-02T13:49:17.229Z</time></trkpt><trkpt lat="44.3921619" lon="10.7934109"><ele>683.0</ele><time>2026-05-02T13:49:24.241Z</time></trkpt><trkpt lat="44.3922402" lon="10.7934042"><ele>683.0</ele><time>2026-05-02T13:49:29.233Z</time></trkpt><trkpt lat="44.3923428" lon="10.7934419"><ele>684.5999999999999</ele><time>2026-05-02T13:49:33.179Z</time></trkpt><trkpt lat="44.3924418" lon="10.7935461"><ele>686.1999999999999</ele><time>2026-05-02T13:49:35.22Z</time></trkpt><trkpt lat="44.3924989" lon="10.7935956"><ele>687.8</ele><time>2026-05-02T13:49:36.276Z</time></trkpt><trkpt lat="44.3925834" lon="10.7936599"><ele>689.4</ele><time>2026-05-02T13:49:37.221Z</time></trkpt><trkpt lat="44.3926734" lon="10.7936993"><ele>691.0</ele><time>2026-05-02T13:49:39.222Z</time></trkpt><trkpt lat="44.3927585" lon="10.7937014"><ele>691.0</ele><time>2026-05-02T13:49:41.253Z</time></trkpt><trkpt lat="44.3928684" lon="10.7937144"><ele>691.0</ele><time>2026-05-02T13:49:43.236Z</time></trkpt><trkpt lat="44.3929472" lon="10.7937091"><ele>691.0</ele><time>2026-05-02T13:49:45.229Z</time></trkpt><trkpt lat="44.3930161" lon="10.7937396"><ele>691.0</ele><time>2026-05-02T13:49:48.198Z</time></trkpt><trkpt lat="44.3930869" lon="10.7938368"><ele>691.0</ele><time>2026-05-02T13:49:50.212Z</time></trkpt><trkpt lat="44.3931567" lon="10.7938831"><ele>691.0</ele><time>2026-05-02T13:49:51.243Z</time></trkpt><trkpt lat="44.3932273" lon="10.7939453"><ele>691.1666666666667</ele><time>2026-05-02T13:49:52.222Z</time></trkpt><trkpt lat="44.393298" lon="10.7939881"><ele>691.3333333333334</ele><time>2026-05-02T13:49:53.203Z</time></trkpt><trkpt lat="44.3933695" lon="10.7940528"><ele>691.5</ele><time>2026-05-02T13:49:54.217Z</time></trkpt><trkpt lat="44.3934427" lon="10.7941312"><ele>691.6666666666666</ele><time>2026-05-02T13:49:55.22Z</time></trkpt><trkpt lat="44.3935105" lon="10.7942024"><ele>691.8333333333333</ele><time>2026-05-02T13:49:56.236Z</time></trkpt><trkpt lat="44.3935535" lon="10.7942795"><ele>692.0</ele><time>2026-05-02T13:49:57.231Z</time></trkpt><trkpt lat="44.3936259" lon="10.7943896"><ele>692.6666666666666</ele><time>2026-05-02T13:49:59.225Z</time></trkpt><trkpt lat="44.3937123" lon="10.7944329"><ele>693.3333333333333</ele><time>2026-05-02T13:50:01.19Z</time></trkpt><trkpt lat="44.393791" lon="10.7944362"><ele>694.0</ele><time>2026-05-02T13:50:04.224Z</time></trkpt><trkpt lat="44.3938789" lon="10.7945098"><ele>694.6666666666666</ele><time>2026-05-02T13:52:01.239Z</time></trkpt><trkpt lat="44.3939465" lon="10.7944999"><ele>695.3333333333334</ele><time>2026-05-02T13:52:03.234Z</time></trkpt><trkpt lat="44.3940345" lon="10.7944894"><ele>696.0</ele><time>2026-05-02T13:52:05.178Z</time></trkpt><trkpt lat="44.3941485" lon="10.7944947"><ele>696.0</ele><time>2026-05-02T13:52:07.229Z</time></trkpt><trkpt lat="44.3942138" lon="10.7945021"><ele>696.0</ele><time>2026-05-02T13:52:08.203Z</time></trkpt><trkpt lat="44.3942782" lon="10.7945119"><ele>696.0</ele><time>2026-05-02T13:52:09.224Z</time></trkpt><trkpt lat="44.3943997" lon="10.7945231"><ele>696.0</ele><time>2026-05-02T13:52:11.252Z</time></trkpt><trkpt lat="44.394502" lon="10.7945385"><ele>696.0</ele><time>2026-05-02T13:52:13.258Z</time></trkpt><trkpt lat="44.3945861" lon="10.7945317"><ele>696.0</ele><time>2026-05-02T13:52:15.217Z</time></trkpt><trkpt lat="44.3946451" lon="10.7944708"><ele>696.0</ele><time>2026-05-02T13:52:17.226Z</time></trkpt><trkpt lat="44.3946602" lon="10.7943321"><ele>696.0</ele><time>2026-05-02T13:52:19.229Z</time></trkpt><trkpt lat="44.3946897" lon="10.7941665"><ele>696.0</ele><time>2026-05-02T13:52:21.175Z</time></trkpt><trkpt lat="44.3947348" lon="10.7940653"><ele>696.0</ele><time>2026-05-02T13:52:22.22Z</time></trkpt><trkpt lat="44.3947964" lon="10.7939552"><ele>696.0</ele><time>2026-05-02T13:52:23.206Z</time></trkpt><trkpt lat="44.3948577" lon="10.793862"><ele>696.0</ele><time>2026-05-02T13:52:24.231Z</time></trkpt><trkpt lat="44.3949157" lon="10.7937789"><ele>696.0</ele><time>2026-05-02T13:52:25.241Z</time></trkpt><trkpt lat="44.3949617" lon="10.7937055"><ele>696.0</ele><time>2026-05-02T13:52:26.251Z</time></trkpt><trkpt lat="44.3949971" lon="10.7936175"><ele>696.0</ele><time>2026-05-02T13:52:27.197Z</time></trkpt><trkpt lat="44.3950271" lon="10.7935301"><ele>696.0</ele><time>2026-05-02T13:52:28.218Z</time></trkpt><trkpt lat="44.3950687" lon="10.7934393"><ele>696.0</ele><time>2026-05-02T13:52:29.197Z</time></trkpt><trkpt lat="44.3951147" lon="10.7933547"><ele>696.0</ele><time>2026-05-02T13:52:30.18Z</time></trkpt><trkpt lat="44.3951614" lon="10.7932792"><ele>696.8333333333334</ele><time>2026-05-02T13:52:31.199Z</time></trkpt><trkpt lat="44.3952332" lon="10.7931747"><ele>697.6666666666666</ele><time>2026-05-02T13:52:33.197Z</time></trkpt><trkpt lat="44.3952737" lon="10.7930847"><ele>698.5</ele><time>2026-05-02T13:52:36.247Z</time></trkpt><trkpt lat="44.3952947" lon="10.7929989"><ele>699.3333333333333</ele><time>2026-05-02T13:52:38.246Z</time></trkpt><trkpt lat="44.3953395" lon="10.7928768"><ele>700.1666666666666</ele><time>2026-05-02T13:52:40.222Z</time></trkpt><trkpt lat="44.395382" lon="10.7927643"><ele>701.0</ele><time>2026-05-02T13:52:42.267Z</time></trkpt><trkpt lat="44.3954242" lon="10.7926902"><ele>701.5</ele><time>2026-05-02T13:52:44.209Z</time></trkpt><trkpt lat="44.3954167" lon="10.7925661"><ele>702.0</ele><time>2026-05-02T13:52:47.236Z</time></trkpt><trkpt lat="44.3953849" lon="10.7924733"><ele>702.5</ele><time>2026-05-02T13:52:49.231Z</time></trkpt><trkpt lat="44.3953759" lon="10.7923654"><ele>703.0</ele><time>2026-05-02T13:52:52.234Z</time></trkpt><trkpt lat="44.3954133" lon="10.792269"><ele>703.5</ele><time>2026-05-02T13:52:55.231Z</time></trkpt><trkpt lat="44.3954747" lon="10.7921727"><ele>704.0</ele><time>2026-05-02T13:52:57.231Z</time></trkpt><trkpt lat="44.3955191" lon="10.7921091"><ele>706.1428571428571</ele><time>2026-05-02T13:52:59.198Z</time></trkpt><trkpt lat="44.3955929" lon="10.7920623"><ele>708.2857142857142</ele><time>2026-05-02T13:53:02.209Z</time></trkpt><trkpt lat="44.3956712" lon="10.7920344"><ele>710.4285714285713</ele><time>2026-05-02T13:53:05.216Z</time></trkpt><trkpt lat="44.3957337" lon="10.7920187"><ele>712.5714285714286</ele><time>2026-05-02T13:53:07.238Z</time></trkpt><trkpt lat="44.3958088" lon="10.7919922"><ele>714.7142857142857</ele><time>2026-05-02T13:53:09.23Z</time></trkpt><trkpt lat="44.3958779" lon="10.7919746"><ele>716.8571428571428</ele><time>2026-05-02T13:53:10.233Z</time></trkpt><trkpt lat="44.3959514" lon="10.7919541"><ele>719.0</ele><time>2026-05-02T13:53:11.232Z</time></trkpt><trkpt lat="44.3960334" lon="10.7919295"><ele>719.0</ele><time>2026-05-02T13:53:12.254Z</time></trkpt><trkpt lat="44.3961236" lon="10.7918944"><ele>719.0</ele><time>2026-05-02T13:53:13.224Z</time></trkpt><trkpt lat="44.3962227" lon="10.7918545"><ele>719.0</ele><time>2026-05-02T13:53:14.251Z</time></trkpt><trkpt lat="44.3963303" lon="10.7918002"><ele>719.0</ele><time>2026-05-02T13:53:15.205Z</time></trkpt><trkpt lat="44.3964443" lon="10.7917374"><ele>719.0</ele><time>2026-05-02T13:53:16.23Z</time></trkpt><trkpt lat="44.3965734" lon="10.7916685"><ele>721.0</ele><time>2026-05-02T13:53:17.225Z</time></trkpt><trkpt lat="44.3967102" lon="10.7915934"><ele>723.0</ele><time>2026-05-02T13:53:18.217Z</time></trkpt><trkpt lat="44.396822" lon="10.79152"><ele>725.0</ele><time>2026-05-02T13:53:19.238Z</time></trkpt><trkpt lat="44.3969126" lon="10.7914506"><ele>727.0</ele><time>2026-05-02T13:53:20.215Z</time></trkpt><trkpt lat="44.3969906" lon="10.7913803"><ele>727.0</ele><time>2026-05-02T13:53:21.229Z</time></trkpt><trkpt lat="44.3970604" lon="10.791309"><ele>727.0</ele><time>2026-05-02T13:53:22.249Z</time></trkpt><trkpt lat="44.3971227" lon="10.7912366"><ele>727.0</ele><time>2026-05-02T13:53:23.206Z</time></trkpt><trkpt lat="44.3971734" lon="10.7911746"><ele>727.0</ele><time>2026-05-02T13:53:24.231Z</time></trkpt><trkpt lat="44.3972447" lon="10.7910905"><ele>727.0</ele><time>2026-05-02T13:53:26.217Z</time></trkpt><trkpt lat="44.3972981" lon="10.791004"><ele>727.0</ele><time>2026-05-02T13:53:28.214Z</time></trkpt><trkpt lat="44.3973421" lon="10.7908543"><ele>729.0</ele><time>2026-05-02T13:53:30.184Z</time></trkpt><trkpt lat="44.39738" lon="10.7907106"><ele>731.0</ele><time>2026-05-02T13:53:32.215Z</time></trkpt><trkpt lat="44.3974132" lon="10.790554"><ele>733.0</ele><time>2026-05-02T13:53:34.233Z</time></trkpt><trkpt lat="44.3974475" lon="10.7904025"><ele>735.0</ele><time>2026-05-02T13:53:36.236Z</time></trkpt><trkpt lat="44.3974794" lon="10.7902585"><ele>737.0</ele><time>2026-05-02T13:53:38.21Z</time></trkpt><trkpt lat="44.3975187" lon="10.7900912"><ele>737.0</ele><time>2026-05-02T13:53:40.25Z</time></trkpt><trkpt lat="44.3975366" lon="10.789923"><ele>737.0</ele><time>2026-05-02T13:53:42.25Z</time></trkpt><trkpt lat="44.3975489" lon="10.7897958"><ele>737.0</ele><time>2026-05-02T13:53:44.242Z</time></trkpt><trkpt lat="44.397564" lon="10.7896513"><ele>737.0</ele><time>2026-05-02T13:53:46.22Z</time></trkpt><trkpt lat="44.3975726" lon="10.7894895"><ele>737.0</ele><time>2026-05-02T13:53:48.223Z</time></trkpt><trkpt lat="44.3975749" lon="10.789326"><ele>738.0</ele><time>2026-05-02T13:53:50.221Z</time></trkpt><trkpt lat="44.3975834" lon="10.7891824"><ele>739.0</ele><time>2026-05-02T13:53:52.226Z</time></trkpt><trkpt lat="44.3976647" lon="10.7890707"><ele>740.0</ele><time>2026-05-02T13:53:54.217Z</time></trkpt><trkpt lat="44.3977221" lon="10.7890317"><ele>741.0</ele><time>2026-05-02T13:53:55.228Z</time></trkpt><trkpt lat="44.3977871" lon="10.7889844"><ele>742.0</ele><time>2026-05-02T13:53:56.248Z</time></trkpt><trkpt lat="44.3978504" lon="10.7889334"><ele>743.0</ele><time>2026-05-02T13:53:57.253Z</time></trkpt><trkpt lat="44.3979057" lon="10.788874"><ele>743.0</ele><time>2026-05-02T13:53:58.207Z</time></trkpt><trkpt lat="44.3980002" lon="10.7887537"><ele>743.0</ele><time>2026-05-02T13:54:00.193Z</time></trkpt><trkpt lat="44.3980454" lon="10.7886832"><ele>743.0</ele><time>2026-05-02T13:54:01.219Z</time></trkpt><trkpt lat="44.3980873" lon="10.7886075"><ele>743.0</ele><time>2026-05-02T13:54:02.215Z</time></trkpt><trkpt lat="44.3981293" lon="10.7885223"><ele>743.0</ele><time>2026-05-02T13:54:03.208Z</time></trkpt><trkpt lat="44.3981741" lon="10.7884221"><ele>743.0</ele><time>2026-05-02T13:54:04.214Z</time></trkpt><trkpt lat="44.3982109" lon="10.7883305"><ele>745.8333333333333</ele><time>2026-05-02T13:54:05.228Z</time></trkpt><trkpt lat="44.3982456" lon="10.78824"><ele>748.6666666666666</ele><time>2026-05-02T13:54:06.243Z</time></trkpt><trkpt lat="44.3982797" lon="10.788147"><ele>751.5</ele><time>2026-05-02T13:54:07.218Z</time></trkpt><trkpt lat="44.3983134" lon="10.7880587"><ele>754.3333333333334</ele><time>2026-05-02T13:54:08.241Z</time></trkpt><trkpt lat="44.3983562" lon="10.7879674"><ele>757.1666666666667</ele><time>2026-05-02T13:54:09.22Z</time></trkpt><trkpt lat="44.3984006" lon="10.7878745"><ele>760.0</ele><time>2026-05-02T13:54:10.222Z</time></trkpt><trkpt lat="44.3984412" lon="10.7877867"><ele>760.0</ele><time>2026-05-02T13:54:11.221Z</time></trkpt><trkpt lat="44.3984799" lon="10.7876988"><ele>760.0</ele><time>2026-05-02T13:54:12.228Z</time></trkpt><trkpt lat="44.3985166" lon="10.7876119"><ele>760.0</ele><time>2026-05-02T13:54:13.235Z</time></trkpt><trkpt lat="44.398554" lon="10.7875258"><ele>760.0</ele><time>2026-05-02T13:54:14.214Z</time></trkpt><trkpt lat="44.3985905" lon="10.7874427"><ele>760.0</ele><time>2026-05-02T13:54:15.215Z</time></trkpt><trkpt lat="44.3986237" lon="10.787362"><ele>760.0</ele><time>2026-05-02T13:54:16.212Z</time></trkpt><trkpt lat="44.3986565" lon="10.787282"><ele>760.0</ele><time>2026-05-02T13:54:17.18Z</time></trkpt><trkpt lat="44.3986916" lon="10.787203"><ele>761.4285714285714</ele><time>2026-05-02T13:54:18.247Z</time></trkpt><trkpt lat="44.3987272" lon="10.7871206"><ele>762.8571428571429</ele><time>2026-05-02T13:54:19.238Z</time></trkpt><trkpt lat="44.3987625" lon="10.7870363"><ele>764.2857142857142</ele><time>2026-05-02T13:54:20.208Z</time></trkpt><trkpt lat="44.3987974" lon="10.7869523"><ele>765.7142857142858</ele><time>2026-05-02T13:54:21.184Z</time></trkpt><trkpt lat="44.3988322" lon="10.7868676"><ele>767.1428571428571</ele><time>2026-05-02T13:54:22.235Z</time></trkpt><trkpt lat="44.3988701" lon="10.7867827"><ele>768.5714285714286</ele><time>2026-05-02T13:54:23.218Z</time></trkpt><trkpt lat="44.3989066" lon="10.7866974"><ele>770.0</ele><time>2026-05-02T13:54:24.221Z</time></trkpt><trkpt lat="44.3989506" lon="10.7866074"><ele>772.3333333333334</ele><time>2026-05-02T13:54:25.234Z</time></trkpt><trkpt lat="44.3989921" lon="10.786518"><ele>774.6666666666667</ele><time>2026-05-02T13:54:26.191Z</time></trkpt><trkpt lat="44.3990366" lon="10.7864244"><ele>777.0</ele><time>2026-05-02T13:54:27.248Z</time></trkpt><trkpt lat="44.3990814" lon="10.7863428"><ele>779.3333333333333</ele><time>2026-05-02T13:54:28.211Z</time></trkpt><trkpt lat="44.3991392" lon="10.7862521"><ele>781.6666666666666</ele><time>2026-05-02T13:54:29.279Z</time></trkpt><trkpt lat="44.3992019" lon="10.7861527"><ele>784.0</ele><time>2026-05-02T13:54:30.232Z</time></trkpt><trkpt lat="44.3992537" lon="10.7860735"><ele>784.8571428571429</ele><time>2026-05-02T13:54:31.244Z</time></trkpt><trkpt lat="44.3993024" lon="10.7859984"><ele>785.7142857142858</ele><time>2026-05-02T13:54:32.235Z</time></trkpt><trkpt lat="44.3993467" lon="10.7859312"><ele>786.5714285714286</ele><time>2026-05-02T13:54:33.243Z</time></trkpt><trkpt lat="44.3993892" lon="10.7858624"><ele>787.4285714285714</ele><time>2026-05-02T13:54:34.223Z</time></trkpt><trkpt lat="44.3994364" lon="10.7857862"><ele>788.2857142857143</ele><time>2026-05-02T13:54:35.239Z</time></trkpt><trkpt lat="44.3994831" lon="10.7857123"><ele>789.1428571428571</ele><time>2026-05-02T13:54:36.217Z</time></trkpt><trkpt lat="44.3995251" lon="10.7856438"><ele>790.0</ele><time>2026-05-02T13:54:37.236Z</time></trkpt><trkpt lat="44.3995773" lon="10.7855779"><ele>789.9999999999999</ele><time>2026-05-02T13:54:38.234Z</time></trkpt><trkpt lat="44.3996325" lon="10.7855206"><ele>790.0</ele><time>2026-05-02T13:54:39.256Z</time></trkpt><trkpt lat="44.3996876" lon="10.7854643"><ele>790.0</ele><time>2026-05-02T13:54:40.21Z</time></trkpt><trkpt lat="44.3997452" lon="10.7853978"><ele>790.0</ele><time>2026-05-02T13:54:41.203Z</time></trkpt><trkpt lat="44.3997973" lon="10.7853274"><ele>789.9999999999999</ele><time>2026-05-02T13:54:42.239Z</time></trkpt><trkpt lat="44.3998722" lon="10.7852052"><ele>790.0</ele><time>2026-05-02T13:54:44.226Z</time></trkpt><trkpt lat="44.3999656" lon="10.7851401"><ele>791.2</ele><time>2026-05-02T13:54:46.225Z</time></trkpt><trkpt lat="44.4001047" lon="10.785145"><ele>792.4</ele><time>2026-05-02T13:54:48.214Z</time></trkpt><trkpt lat="44.4001925" lon="10.7851653"><ele>793.5999999999999</ele><time>2026-05-02T13:54:49.219Z</time></trkpt><trkpt lat="44.4002879" lon="10.7851908"><ele>794.8</ele><time>2026-05-02T13:54:50.263Z</time></trkpt><trkpt lat="44.400386" lon="10.7852194"><ele>796.0</ele><time>2026-05-02T13:54:51.258Z</time></trkpt><trkpt lat="44.4004847" lon="10.7852471"><ele>795.1999999999999</ele><time>2026-05-02T13:54:52.219Z</time></trkpt><trkpt lat="44.4005909" lon="10.7852794"><ele>794.4</ele><time>2026-05-02T13:54:53.186Z</time></trkpt><trkpt lat="44.400681" lon="10.7853072"><ele>793.6</ele><time>2026-05-02T13:54:54.223Z</time></trkpt><trkpt lat="44.4007654" lon="10.7853378"><ele>792.8</ele><time>2026-05-02T13:54:55.236Z</time></trkpt><trkpt lat="44.4008496" lon="10.7853681"><ele>792.0</ele><time>2026-05-02T13:54:56.246Z</time></trkpt><trkpt lat="44.4009343" lon="10.785398"><ele>792.0</ele><time>2026-05-02T13:54:57.248Z</time></trkpt><trkpt lat="44.401024" lon="10.7854289"><ele>792.0</ele><time>2026-05-02T13:54:58.22Z</time></trkpt><trkpt lat="44.4011234" lon="10.7854615"><ele>792.0</ele><time>2026-05-02T13:54:59.245Z</time></trkpt><trkpt lat="44.4012362" lon="10.7854938"><ele>792.0</ele><time>2026-05-02T13:55:00.225Z</time></trkpt><trkpt lat="44.401358" lon="10.7855182"><ele>792.0</ele><time>2026-05-02T13:55:01.243Z</time></trkpt><trkpt lat="44.4014737" lon="10.7855307"><ele>790.75</ele><time>2026-05-02T13:55:02.234Z</time></trkpt><trkpt lat="44.4015856" lon="10.785532"><ele>789.5</ele><time>2026-05-02T13:55:03.232Z</time></trkpt><trkpt lat="44.4017012" lon="10.7855291"><ele>788.25</ele><time>2026-05-02T13:55:04.242Z</time></trkpt><trkpt lat="44.4018245" lon="10.7855248"><ele>787.0</ele><time>2026-05-02T13:55:05.238Z</time></trkpt><trkpt lat="44.4019506" lon="10.7855203"><ele>787.0</ele><time>2026-05-02T13:55:06.234Z</time></trkpt><trkpt lat="44.4020809" lon="10.7855145"><ele>787.0</ele><time>2026-05-02T13:55:07.232Z</time></trkpt><trkpt lat="44.402207" lon="10.7855044"><ele>787.0</ele><time>2026-05-02T13:55:08.266Z</time></trkpt><trkpt lat="44.4023303" lon="10.7854928"><ele>787.0</ele><time>2026-05-02T13:55:09.256Z</time></trkpt><trkpt lat="44.4024528" lon="10.7854792"><ele>787.0</ele><time>2026-05-02T13:55:10.263Z</time></trkpt><trkpt lat="44.4025799" lon="10.7854662"><ele>787.0</ele><time>2026-05-02T13:55:11.225Z</time></trkpt><trkpt lat="44.4027128" lon="10.7854538"><ele>787.0</ele><time>2026-05-02T13:55:12.231Z</time></trkpt><trkpt lat="44.4028415" lon="10.7854405"><ele>787.0</ele><time>2026-05-02T13:55:13.251Z</time></trkpt><trkpt lat="44.4029691" lon="10.7854284"><ele>787.5</ele><time>2026-05-02T13:55:14.195Z</time></trkpt><trkpt lat="44.4031019" lon="10.7854156"><ele>788.0</ele><time>2026-05-02T13:55:15.203Z</time></trkpt><trkpt lat="44.4032412" lon="10.7854005"><ele>788.5</ele><time>2026-05-02T13:55:16.239Z</time></trkpt><trkpt lat="44.403375" lon="10.7853877"><ele>789.0</ele><time>2026-05-02T13:55:17.238Z</time></trkpt><trkpt lat="44.4034992" lon="10.7853801"><ele>789.0</ele><time>2026-05-02T13:55:18.247Z</time></trkpt><trkpt lat="44.4036126" lon="10.7853765"><ele>789.0</ele><time>2026-05-02T13:55:19.212Z</time></trkpt><trkpt lat="44.4037155" lon="10.7853787"><ele>789.0</ele><time>2026-05-02T13:55:20.225Z</time></trkpt><trkpt lat="44.4038142" lon="10.7853882"><ele>789.0</ele><time>2026-05-02T13:55:21.214Z</time></trkpt><trkpt lat="44.4039193" lon="10.7854093"><ele>789.0</ele><time>2026-05-02T13:55:22.24Z</time></trkpt><trkpt lat="44.4040343" lon="10.7854425"><ele>788.4000000000001</ele><time>2026-05-02T13:55:23.242Z</time></trkpt><trkpt lat="44.4041469" lon="10.7854781"><ele>787.8</ele><time>2026-05-02T13:55:24.25Z</time></trkpt><trkpt lat="44.4042577" lon="10.7855125"><ele>787.2</ele><time>2026-05-02T13:55:25.224Z</time></trkpt><trkpt lat="44.4043624" lon="10.7855433"><ele>786.5999999999999</ele><time>2026-05-02T13:55:26.23Z</time></trkpt><trkpt lat="44.4044575" lon="10.785566"><ele>786.0</ele><time>2026-05-02T13:55:27.223Z</time></trkpt><trkpt lat="44.4045402" lon="10.7855733"><ele>786.0</ele><time>2026-05-02T13:55:28.215Z</time></trkpt><trkpt lat="44.4046088" lon="10.7855563"><ele>786.0</ele><time>2026-05-02T13:55:29.223Z</time></trkpt><trkpt lat="44.4047026" lon="10.7854548"><ele>786.0</ele><time>2026-05-02T13:55:31.211Z</time></trkpt><trkpt lat="44.4047288" lon="10.7853346"><ele>786.0</ele><time>2026-05-02T13:55:32.243Z</time></trkpt><trkpt lat="44.4047463" lon="10.7851934"><ele>786.0</ele><time>2026-05-02T13:55:33.247Z</time></trkpt><trkpt lat="44.4047619" lon="10.7850523"><ele>784.8333333333334</ele><time>2026-05-02T13:55:34.209Z</time></trkpt><trkpt lat="44.4047785" lon="10.7849221"><ele>783.6666666666667</ele><time>2026-05-02T13:55:35.3Z</time></trkpt><trkpt lat="44.4047972" lon="10.784803"><ele>782.5</ele><time>2026-05-02T13:55:36.238Z</time></trkpt><trkpt lat="44.4048131" lon="10.7846928"><ele>781.3333333333334</ele><time>2026-05-02T13:55:37.218Z</time></trkpt><trkpt lat="44.4048277" lon="10.7846052"><ele>780.1666666666667</ele><time>2026-05-02T13:55:38.26Z</time></trkpt><trkpt lat="44.4048841" lon="10.7845154"><ele>779.0</ele><time>2026-05-02T13:55:40.212Z</time></trkpt><trkpt lat="44.4050008" lon="10.7845632"><ele>779.0</ele><time>2026-05-02T13:55:42.24Z</time></trkpt><trkpt lat="44.405072" lon="10.7846282"><ele>779.0</ele><time>2026-05-02T13:55:43.234Z</time></trkpt><trkpt lat="44.4051545" lon="10.7847093"><ele>779.0</ele><time>2026-05-02T13:55:44.205Z</time></trkpt><trkpt lat="44.4052331" lon="10.7847992"><ele>779.0</ele><time>2026-05-02T13:55:45.229Z</time></trkpt><trkpt lat="44.4053104" lon="10.7848774"><ele>779.0</ele><time>2026-05-02T13:55:46.236Z</time></trkpt><trkpt lat="44.4053692" lon="10.7849865"><ele>779.0</ele><time>2026-05-02T13:55:47.249Z</time></trkpt><trkpt lat="44.4054176" lon="10.7851199"><ele>779.0</ele><time>2026-05-02T13:55:48.23Z</time></trkpt><trkpt lat="44.4054643" lon="10.7852612"><ele>779.0</ele><time>2026-05-02T13:55:49.215Z</time></trkpt><trkpt lat="44.4055075" lon="10.7854099"><ele>779.0</ele><time>2026-05-02T13:55:50.26Z</time></trkpt><trkpt lat="44.4055826" lon="10.7855371"><ele>778.0</ele><time>2026-05-02T13:55:51.264Z</time></trkpt><trkpt lat="44.4056706" lon="10.7856695"><ele>777.0</ele><time>2026-05-02T13:55:52.252Z</time></trkpt><trkpt lat="44.4057577" lon="10.7858058"><ele>776.0</ele><time>2026-05-02T13:55:53.249Z</time></trkpt><trkpt lat="44.405843" lon="10.7859396"><ele>775.0</ele><time>2026-05-02T13:55:54.221Z</time></trkpt><trkpt lat="44.4059264" lon="10.7860636"><ele>775.0</ele><time>2026-05-02T13:55:55.256Z</time></trkpt><trkpt lat="44.4060061" lon="10.7861689"><ele>775.0</ele><time>2026-05-02T13:55:56.206Z</time></trkpt><trkpt lat="44.4060872" lon="10.7862437"><ele>775.0</ele><time>2026-05-02T13:55:57.236Z</time></trkpt><trkpt lat="44.4061756" lon="10.786296"><ele>775.0</ele><time>2026-05-02T13:55:58.239Z</time></trkpt><trkpt lat="44.4062734" lon="10.7863285"><ele>775.0</ele><time>2026-05-02T13:55:59.186Z</time></trkpt><trkpt lat="44.4063699" lon="10.7863264"><ele>774.0</ele><time>2026-05-02T13:56:00.248Z</time></trkpt><trkpt lat="44.4064686" lon="10.7862983"><ele>773.0</ele><time>2026-05-02T13:56:01.228Z</time></trkpt><trkpt lat="44.4065734" lon="10.7862404"><ele>772.0</ele><time>2026-05-02T13:56:02.249Z</time></trkpt><trkpt lat="44.406685" lon="10.7861838"><ele>771.0</ele><time>2026-05-02T13:56:03.238Z</time></trkpt><trkpt lat="44.406796" lon="10.7861465"><ele>770.0</ele><time>2026-05-02T13:56:04.237Z</time></trkpt><trkpt lat="44.4069126" lon="10.7861408"><ele>770.0</ele><time>2026-05-02T13:56:05.198Z</time></trkpt><trkpt lat="44.4070348" lon="10.7861637"><ele>770.0</ele><time>2026-05-02T13:56:06.242Z</time></trkpt><trkpt lat="44.4071614" lon="10.7862042"><ele>770.0</ele><time>2026-05-02T13:56:07.233Z</time></trkpt><trkpt lat="44.4072933" lon="10.7862528"><ele>770.0</ele><time>2026-05-02T13:56:08.203Z</time></trkpt><trkpt lat="44.4074241" lon="10.7862932"><ele>769.5</ele><time>2026-05-02T13:56:09.229Z</time></trkpt><trkpt lat="44.4075534" lon="10.7863224"><ele>769.0</ele><time>2026-05-02T13:56:10.219Z</time></trkpt><trkpt lat="44.407683" lon="10.7863392"><ele>768.5</ele><time>2026-05-02T13:56:11.203Z</time></trkpt><trkpt lat="44.4078117" lon="10.7863439"><ele>768.0</ele><time>2026-05-02T13:56:12.238Z</time></trkpt><trkpt lat="44.4079388" lon="10.7863429"><ele>767.25</ele><time>2026-05-02T13:56:13.241Z</time></trkpt><trkpt lat="44.408065" lon="10.7863427"><ele>766.5</ele><time>2026-05-02T13:56:14.204Z</time></trkpt><trkpt lat="44.4081903" lon="10.7863435"><ele>765.75</ele><time>2026-05-02T13:56:15.252Z</time></trkpt><trkpt lat="44.4083137" lon="10.7863465"><ele>765.0</ele><time>2026-05-02T13:56:16.218Z</time></trkpt><trkpt lat="44.408432" lon="10.7863454"><ele>765.0</ele><time>2026-05-02T13:56:17.226Z</time></trkpt><trkpt lat="44.4085473" lon="10.786339"><ele>765.0</ele><time>2026-05-02T13:56:18.228Z</time></trkpt><trkpt lat="44.4086611" lon="10.7863246"><ele>765.0</ele><time>2026-05-02T13:56:19.237Z</time></trkpt><trkpt lat="44.4087724" lon="10.7862962"><ele>765.0</ele><time>2026-05-02T13:56:20.239Z</time></trkpt><trkpt lat="44.4088808" lon="10.7862479"><ele>764.2</ele><time>2026-05-02T13:56:21.206Z</time></trkpt><trkpt lat="44.4089833" lon="10.7861829"><ele>763.4</ele><time>2026-05-02T13:56:22.201Z</time></trkpt><trkpt lat="44.4090823" lon="10.7861133"><ele>762.5999999999999</ele><time>2026-05-02T13:56:23.222Z</time></trkpt><trkpt lat="44.4091831" lon="10.7860676"><ele>761.8</ele><time>2026-05-02T13:56:24.214Z</time></trkpt><trkpt lat="44.4092873" lon="10.7860476"><ele>761.0</ele><time>2026-05-02T13:56:25.219Z</time></trkpt><trkpt lat="44.4093908" lon="10.7860479"><ele>761.0</ele><time>2026-05-02T13:56:26.241Z</time></trkpt><trkpt lat="44.4094924" lon="10.7860645"><ele>761.0</ele><time>2026-05-02T13:56:27.237Z</time></trkpt><trkpt lat="44.4095948" lon="10.7860873"><ele>761.0</ele><time>2026-05-02T13:56:28.233Z</time></trkpt><trkpt lat="44.4097019" lon="10.7861053"><ele>761.0</ele><time>2026-05-02T13:56:29.235Z</time></trkpt><trkpt lat="44.4098076" lon="10.786122"><ele>761.0</ele><time>2026-05-02T13:56:30.226Z</time></trkpt><trkpt lat="44.4099086" lon="10.7861484"><ele>759.0</ele><time>2026-05-02T13:56:31.239Z</time></trkpt><trkpt lat="44.4100041" lon="10.7861754"><ele>757.0</ele><time>2026-05-02T13:56:32.217Z</time></trkpt><trkpt lat="44.4100901" lon="10.7862467"><ele>755.0</ele><time>2026-05-02T13:56:33.194Z</time></trkpt><trkpt lat="44.4101662" lon="10.7863418"><ele>753.0</ele><time>2026-05-02T13:56:34.226Z</time></trkpt><trkpt lat="44.4102354" lon="10.7864542"><ele>751.0</ele><time>2026-05-02T13:56:35.245Z</time></trkpt><trkpt lat="44.4103005" lon="10.7865702"><ele>751.0</ele><time>2026-05-02T13:56:36.259Z</time></trkpt><trkpt lat="44.410352" lon="10.7866894"><ele>751.0</ele><time>2026-05-02T13:56:37.268Z</time></trkpt><trkpt lat="44.4103868" lon="10.7868141"><ele>751.0</ele><time>2026-05-02T13:56:38.216Z</time></trkpt><trkpt lat="44.4103946" lon="10.7869457"><ele>751.0</ele><time>2026-05-02T13:56:39.23Z</time></trkpt><trkpt lat="44.4103842" lon="10.7870833"><ele>751.0</ele><time>2026-05-02T13:56:40.241Z</time></trkpt><trkpt lat="44.410359" lon="10.7872283"><ele>749.8</ele><time>2026-05-02T13:56:41.2Z</time></trkpt><trkpt lat="44.4103203" lon="10.7873746"><ele>748.5999999999999</ele><time>2026-05-02T13:56:42.24Z</time></trkpt><trkpt lat="44.4102792" lon="10.7875186"><ele>747.4</ele><time>2026-05-02T13:56:43.255Z</time></trkpt><trkpt lat="44.4102445" lon="10.7876635"><ele>746.2</ele><time>2026-05-02T13:56:44.233Z</time></trkpt><trkpt lat="44.4102117" lon="10.7878072"><ele>745.0</ele><time>2026-05-02T13:56:45.224Z</time></trkpt><trkpt lat="44.4101785" lon="10.7879418"><ele>743.8</ele><time>2026-05-02T13:56:46.222Z</time></trkpt><trkpt lat="44.4101391" lon="10.7880676"><ele>742.6</ele><time>2026-05-02T13:56:47.228Z</time></trkpt><trkpt lat="44.41009" lon="10.7881849"><ele>741.4000000000001</ele><time>2026-05-02T13:56:48.208Z</time></trkpt><trkpt lat="44.4100351" lon="10.7882994"><ele>740.2</ele><time>2026-05-02T13:56:49.221Z</time></trkpt><trkpt lat="44.4099846" lon="10.788419"><ele>739.0</ele><time>2026-05-02T13:56:50.215Z</time></trkpt><trkpt lat="44.4099555" lon="10.7885535"><ele>738.6</ele><time>2026-05-02T13:56:51.236Z</time></trkpt><trkpt lat="44.4099427" lon="10.7886904"><ele>738.2</ele><time>2026-05-02T13:56:52.204Z</time></trkpt><trkpt lat="44.4099496" lon="10.7888336"><ele>737.8000000000001</ele><time>2026-05-02T13:56:53.237Z</time></trkpt><trkpt lat="44.409958" lon="10.7889742"><ele>737.4000000000001</ele><time>2026-05-02T13:56:54.21Z</time></trkpt><trkpt lat="44.409991" lon="10.7891369"><ele>737.0</ele><time>2026-05-02T13:56:55.227Z</time></trkpt><trkpt lat="44.4100209" lon="10.7892922"><ele>735.75</ele><time>2026-05-02T13:56:56.229Z</time></trkpt><trkpt lat="44.4100531" lon="10.7894678"><ele>734.5</ele><time>2026-05-02T13:56:57.214Z</time></trkpt><trkpt lat="44.4100897" lon="10.7896381"><ele>733.25</ele><time>2026-05-02T13:56:58.262Z</time></trkpt><trkpt lat="44.4101243" lon="10.7897959"><ele>732.0</ele><time>2026-05-02T13:56:59.229Z</time></trkpt><trkpt lat="44.4101565" lon="10.7899425"><ele>732.0</ele><time>2026-05-02T13:57:00.282Z</time></trkpt><trkpt lat="44.4101936" lon="10.7900837"><ele>732.0</ele><time>2026-05-02T13:57:01.223Z</time></trkpt><trkpt lat="44.410245" lon="10.7902058"><ele>732.0</ele><time>2026-05-02T13:57:02.216Z</time></trkpt><trkpt lat="44.4103197" lon="10.7903055"><ele>732.0</ele><time>2026-05-02T13:57:03.235Z</time></trkpt><trkpt lat="44.4104163" lon="10.790384"><ele>732.0</ele><time>2026-05-02T13:57:04.218Z</time></trkpt><trkpt lat="44.4105262" lon="10.7904576"><ele>730.0</ele><time>2026-05-02T13:57:05.264Z</time></trkpt><trkpt lat="44.4106435" lon="10.7905282"><ele>728.0</ele><time>2026-05-02T13:57:06.226Z</time></trkpt><trkpt lat="44.4107584" lon="10.7906004"><ele>726.0</ele><time>2026-05-02T13:57:07.229Z</time></trkpt><trkpt lat="44.4108719" lon="10.7906742"><ele>724.0</ele><time>2026-05-02T13:57:08.245Z</time></trkpt><trkpt lat="44.410979" lon="10.7907452"><ele>724.0</ele><time>2026-05-02T13:57:09.223Z</time></trkpt><trkpt lat="44.4110886" lon="10.7908203"><ele>724.0</ele><time>2026-05-02T13:57:10.236Z</time></trkpt><trkpt lat="44.4111742" lon="10.7909062"><ele>724.0</ele><time>2026-05-02T13:57:11.298Z</time></trkpt><trkpt lat="44.4112549" lon="10.7909973"><ele>724.0</ele><time>2026-05-02T13:57:12.232Z</time></trkpt><trkpt lat="44.411322" lon="10.791103"><ele>724.0</ele><time>2026-05-02T13:57:13.226Z</time></trkpt><trkpt lat="44.41136" lon="10.7912203"><ele>721.4000000000001</ele><time>2026-05-02T13:57:14.204Z</time></trkpt><trkpt lat="44.4113724" lon="10.7913456"><ele>718.8</ele><time>2026-05-02T13:57:15.229Z</time></trkpt><trkpt lat="44.4113665" lon="10.7914783"><ele>716.2</ele><time>2026-05-02T13:57:16.22Z</time></trkpt><trkpt lat="44.4113528" lon="10.7916272"><ele>713.5999999999999</ele><time>2026-05-02T13:57:17.226Z</time></trkpt><trkpt lat="44.4113405" lon="10.7917818"><ele>711.0</ele><time>2026-05-02T13:57:18.217Z</time></trkpt><trkpt lat="44.4113352" lon="10.791937"><ele>711.0</ele><time>2026-05-02T13:57:19.236Z</time></trkpt><trkpt lat="44.411345" lon="10.7920875"><ele>711.0</ele><time>2026-05-02T13:57:20.243Z</time></trkpt><trkpt lat="44.4113746" lon="10.792231"><ele>711.0</ele><time>2026-05-02T13:57:21.234Z</time></trkpt><trkpt lat="44.411424" lon="10.792363"><ele>711.0</ele><time>2026-05-02T13:57:22.224Z</time></trkpt><trkpt lat="44.4114862" lon="10.79248"><ele>711.0</ele><time>2026-05-02T13:57:23.207Z</time></trkpt><trkpt lat="44.4115514" lon="10.7925983"><ele>711.0</ele><time>2026-05-02T13:57:24.233Z</time></trkpt><trkpt lat="44.4116121" lon="10.7927127"><ele>711.0</ele><time>2026-05-02T13:57:25.211Z</time></trkpt><trkpt lat="44.4116588" lon="10.792838"><ele>711.0</ele><time>2026-05-02T13:57:26.221Z</time></trkpt><trkpt lat="44.4116861" lon="10.7929783"><ele>711.0</ele><time>2026-05-02T13:57:27.21Z</time></trkpt><trkpt lat="44.4117024" lon="10.7931326"><ele>711.0</ele><time>2026-05-02T13:57:28.279Z</time></trkpt><trkpt lat="44.4117136" lon="10.7932923"><ele>711.0</ele><time>2026-05-02T13:57:29.234Z</time></trkpt><trkpt lat="44.4117242" lon="10.7934493"><ele>711.0</ele><time>2026-05-02T13:57:30.241Z</time></trkpt><trkpt lat="44.4117352" lon="10.7936049"><ele>711.0</ele><time>2026-05-02T13:57:31.225Z</time></trkpt><trkpt lat="44.4117476" lon="10.7937529"><ele>711.0</ele><time>2026-05-02T13:57:32.234Z</time></trkpt><trkpt lat="44.4117584" lon="10.7938861"><ele>711.0</ele><time>2026-05-02T13:57:33.22Z</time></trkpt><trkpt lat="44.4117675" lon="10.7939933"><ele>710.5999999999999</ele><time>2026-05-02T13:57:34.219Z</time></trkpt><trkpt lat="44.4117738" lon="10.7941417"><ele>710.2</ele><time>2026-05-02T13:57:36.221Z</time></trkpt><trkpt lat="44.4117665" lon="10.7942357"><ele>709.8</ele><time>2026-05-02T13:57:38.242Z</time></trkpt><trkpt lat="44.4116954" lon="10.7943155"><ele>709.4000000000001</ele><time>2026-05-02T13:57:41.242Z</time></trkpt><trkpt lat="44.4115706" lon="10.7943291"><ele>709.0</ele><time>2026-05-02T13:57:43.235Z</time></trkpt><trkpt lat="44.4114951" lon="10.7943166"><ele>709.0</ele><time>2026-05-02T13:57:44.244Z</time></trkpt><trkpt lat="44.4114112" lon="10.7943085"><ele>709.0</ele><time>2026-05-02T13:57:45.212Z</time></trkpt><trkpt lat="44.4113229" lon="10.7942946"><ele>709.0</ele><time>2026-05-02T13:57:46.249Z</time></trkpt><trkpt lat="44.411226" lon="10.7942716"><ele>709.0</ele><time>2026-05-02T13:57:47.239Z</time></trkpt><trkpt lat="44.4111215" lon="10.7942459"><ele>709.0</ele><time>2026-05-02T13:57:48.241Z</time></trkpt><trkpt lat="44.41101" lon="10.7942252"><ele>709.75</ele><time>2026-05-02T13:57:49.239Z</time></trkpt><trkpt lat="44.410897" lon="10.7942043"><ele>710.5</ele><time>2026-05-02T13:57:50.233Z</time></trkpt><trkpt lat="44.4107808" lon="10.7941876"><ele>711.25</ele><time>2026-05-02T13:57:51.239Z</time></trkpt><trkpt lat="44.4106679" lon="10.794186"><ele>712.0</ele><time>2026-05-02T13:57:52.23Z</time></trkpt><trkpt lat="44.4105617" lon="10.7942214"><ele>711.25</ele><time>2026-05-02T13:57:53.223Z</time></trkpt><trkpt lat="44.4104582" lon="10.7942937"><ele>710.5</ele><time>2026-05-02T13:57:54.211Z</time></trkpt><trkpt lat="44.410358" lon="10.7943975"><ele>709.75</ele><time>2026-05-02T13:57:55.258Z</time></trkpt><trkpt lat="44.4102552" lon="10.7945297"><ele>709.0</ele><time>2026-05-02T13:57:56.222Z</time></trkpt><trkpt lat="44.4101549" lon="10.7946686"><ele>709.0</ele><time>2026-05-02T13:57:57.247Z</time></trkpt><trkpt lat="44.4100588" lon="10.7948005"><ele>709.0</ele><time>2026-05-02T13:57:58.222Z</time></trkpt><trkpt lat="44.4099632" lon="10.794933"><ele>709.0</ele><time>2026-05-02T13:57:59.228Z</time></trkpt><trkpt lat="44.4098702" lon="10.795066"><ele>709.0</ele><time>2026-05-02T13:58:00.237Z</time></trkpt><trkpt lat="44.4097757" lon="10.7951938"><ele>709.5</ele><time>2026-05-02T13:58:01.233Z</time></trkpt><trkpt lat="44.4096829" lon="10.795322"><ele>710.0</ele><time>2026-05-02T13:58:02.227Z</time></trkpt><trkpt lat="44.4095915" lon="10.7954445"><ele>710.5</ele><time>2026-05-02T13:58:03.247Z</time></trkpt><trkpt lat="44.4094944" lon="10.795551"><ele>711.0</ele><time>2026-05-02T13:58:04.23Z</time></trkpt><trkpt lat="44.4093955" lon="10.7956466"><ele>711.0</ele><time>2026-05-02T13:58:05.224Z</time></trkpt><trkpt lat="44.4092906" lon="10.795731"><ele>711.0</ele><time>2026-05-02T13:58:06.21Z</time></trkpt><trkpt lat="44.4091738" lon="10.7957983"><ele>711.0</ele><time>2026-05-02T13:58:07.236Z</time></trkpt><trkpt lat="44.409049" lon="10.7958466"><ele>711.0</ele><time>2026-05-02T13:58:08.237Z</time></trkpt><trkpt lat="44.4089111" lon="10.7958787"><ele>711.5</ele><time>2026-05-02T13:58:09.227Z</time></trkpt><trkpt lat="44.4087729" lon="10.7959199"><ele>712.0</ele><time>2026-05-02T13:58:10.212Z</time></trkpt><trkpt lat="44.4086437" lon="10.7959747"><ele>712.5</ele><time>2026-05-02T13:58:11.2Z</time></trkpt><trkpt lat="44.4085296" lon="10.7960504"><ele>713.0</ele><time>2026-05-02T13:58:12.203Z</time></trkpt><trkpt lat="44.4084304" lon="10.7961541"><ele>713.0</ele><time>2026-05-02T13:58:13.383Z</time></trkpt><trkpt lat="44.4082754" lon="10.7964167"><ele>713.0</ele><time>2026-05-02T13:58:15.219Z</time></trkpt><trkpt lat="44.4082101" lon="10.7965623"><ele>713.0</ele><time>2026-05-02T13:58:16.242Z</time></trkpt><trkpt lat="44.4081435" lon="10.7966996"><ele>713.0</ele><time>2026-05-02T13:58:17.225Z</time></trkpt><trkpt lat="44.4080711" lon="10.7968348"><ele>713.0</ele><time>2026-05-02T13:58:18.232Z</time></trkpt><trkpt lat="44.4079903" lon="10.7969651"><ele>713.0</ele><time>2026-05-02T13:58:19.201Z</time></trkpt><trkpt lat="44.4079008" lon="10.797088"><ele>713.0</ele><time>2026-05-02T13:58:20.221Z</time></trkpt><trkpt lat="44.4077983" lon="10.7972077"><ele>712.0</ele><time>2026-05-02T13:58:21.228Z</time></trkpt><trkpt lat="44.407683" lon="10.797327"><ele>711.0</ele><time>2026-05-02T13:58:22.226Z</time></trkpt><trkpt lat="44.4075641" lon="10.7974519"><ele>710.0</ele><time>2026-05-02T13:58:23.231Z</time></trkpt><trkpt lat="44.4074465" lon="10.7975757"><ele>709.0</ele><time>2026-05-02T13:58:24.264Z</time></trkpt><trkpt lat="44.4073358" lon="10.7976942"><ele>710.0</ele><time>2026-05-02T13:58:25.227Z</time></trkpt><trkpt lat="44.4072308" lon="10.7978082"><ele>711.0</ele><time>2026-05-02T13:58:26.242Z</time></trkpt><trkpt lat="44.4071323" lon="10.7979226"><ele>712.0</ele><time>2026-05-02T13:58:27.23Z</time></trkpt><trkpt lat="44.4070384" lon="10.7980429"><ele>713.0</ele><time>2026-05-02T13:58:28.248Z</time></trkpt><trkpt lat="44.4069492" lon="10.7981697"><ele>713.0</ele><time>2026-05-02T13:58:29.24Z</time></trkpt><trkpt lat="44.4068685" lon="10.7982982"><ele>713.0</ele><time>2026-05-02T13:58:30.238Z</time></trkpt><trkpt lat="44.4067968" lon="10.7984273"><ele>713.0</ele><time>2026-05-02T13:58:31.234Z</time></trkpt><trkpt lat="44.4067281" lon="10.7985521"><ele>713.0</ele><time>2026-05-02T13:58:32.216Z</time></trkpt><trkpt lat="44.4066516" lon="10.7986705"><ele>712.25</ele><time>2026-05-02T13:58:33.231Z</time></trkpt><trkpt lat="44.4065603" lon="10.7987824"><ele>711.5</ele><time>2026-05-02T13:58:34.242Z</time></trkpt><trkpt lat="44.4064591" lon="10.7988802"><ele>710.75</ele><time>2026-05-02T13:58:35.289Z</time></trkpt><trkpt lat="44.406349" lon="10.7989675"><ele>710.0</ele><time>2026-05-02T13:58:36.209Z</time></trkpt><trkpt lat="44.4062268" lon="10.799048"><ele>710.0</ele><time>2026-05-02T13:58:37.223Z</time></trkpt><trkpt lat="44.4060965" lon="10.7991261"><ele>710.0</ele><time>2026-05-02T13:58:38.2Z</time></trkpt><trkpt lat="44.4059601" lon="10.7992039"><ele>710.0</ele><time>2026-05-02T13:58:39.228Z</time></trkpt><trkpt lat="44.4058159" lon="10.7992834"><ele>710.0</ele><time>2026-05-02T13:58:40.222Z</time></trkpt><trkpt lat="44.4056685" lon="10.7993646"><ele>710.25</ele><time>2026-05-02T13:58:41.238Z</time></trkpt><trkpt lat="44.4055286" lon="10.7994425"><ele>710.5</ele><time>2026-05-02T13:58:42.218Z</time></trkpt><trkpt lat="44.4053945" lon="10.7995223"><ele>710.75</ele><time>2026-05-02T13:58:43.235Z</time></trkpt><trkpt lat="44.4052687" lon="10.7996094"><ele>711.0</ele><time>2026-05-02T13:58:44.196Z</time></trkpt><trkpt lat="44.4051568" lon="10.7997116"><ele>711.0</ele><time>2026-05-02T13:58:45.228Z</time></trkpt><trkpt lat="44.4050611" lon="10.7998376"><ele>711.0</ele><time>2026-05-02T13:58:46.249Z</time></trkpt><trkpt lat="44.4049867" lon="10.799988"><ele>711.0</ele><time>2026-05-02T13:58:47.227Z</time></trkpt><trkpt lat="44.4049311" lon="10.800147"><ele>711.0</ele><time>2026-05-02T13:58:48.234Z</time></trkpt><trkpt lat="44.404878" lon="10.800315"><ele>710.5</ele><time>2026-05-02T13:58:49.227Z</time></trkpt><trkpt lat="44.404821" lon="10.8004855"><ele>710.0</ele><time>2026-05-02T13:58:50.245Z</time></trkpt><trkpt lat="44.4047575" lon="10.8006574"><ele>709.5</ele><time>2026-05-02T13:58:51.214Z</time></trkpt><trkpt lat="44.4046872" lon="10.800828"><ele>709.0</ele><time>2026-05-02T13:58:52.284Z</time></trkpt><trkpt lat="44.4046156" lon="10.8009908"><ele>710.0</ele><time>2026-05-02T13:58:53.258Z</time></trkpt><trkpt lat="44.4045411" lon="10.8011427"><ele>711.0</ele><time>2026-05-02T13:58:54.238Z</time></trkpt><trkpt lat="44.4044605" lon="10.8012881"><ele>712.0</ele><time>2026-05-02T13:58:55.23Z</time></trkpt><trkpt lat="44.4043693" lon="10.8014277"><ele>713.0</ele><time>2026-05-02T13:58:56.238Z</time></trkpt><trkpt lat="44.4042725" lon="10.8015593"><ele>713.0</ele><time>2026-05-02T13:58:57.211Z</time></trkpt><trkpt lat="44.4041763" lon="10.8016832"><ele>713.0</ele><time>2026-05-02T13:58:58.239Z</time></trkpt><trkpt lat="44.4040834" lon="10.8018037"><ele>713.0</ele><time>2026-05-02T13:58:59.23Z</time></trkpt><trkpt lat="44.4039937" lon="10.8019217"><ele>713.0</ele><time>2026-05-02T13:59:00.247Z</time></trkpt><trkpt lat="44.4039047" lon="10.8020353"><ele>711.75</ele><time>2026-05-02T13:59:01.227Z</time></trkpt><trkpt lat="44.4038164" lon="10.8021461"><ele>710.5</ele><time>2026-05-02T13:59:02.231Z</time></trkpt><trkpt lat="44.403729" lon="10.8022542"><ele>709.25</ele><time>2026-05-02T13:59:03.242Z</time></trkpt><trkpt lat="44.4036412" lon="10.8023577"><ele>708.0</ele><time>2026-05-02T13:59:04.271Z</time></trkpt><trkpt lat="44.40355" lon="10.8024513"><ele>708.0</ele><time>2026-05-02T13:59:05.209Z</time></trkpt><trkpt lat="44.4034531" lon="10.8025279"><ele>708.0</ele><time>2026-05-02T13:59:06.209Z</time></trkpt><trkpt lat="44.4033481" lon="10.8025792"><ele>708.0</ele><time>2026-05-02T13:59:07.221Z</time></trkpt><trkpt lat="44.4032393" lon="10.8026015"><ele>708.0</ele><time>2026-05-02T13:59:08.223Z</time></trkpt><trkpt lat="44.4031309" lon="10.8026007"><ele>708.0</ele><time>2026-05-02T13:59:09.255Z</time></trkpt><trkpt lat="44.4030245" lon="10.8025854"><ele>707.8</ele><time>2026-05-02T13:59:10.229Z</time></trkpt><trkpt lat="44.4029204" lon="10.80256"><ele>707.5999999999999</ele><time>2026-05-02T13:59:11.219Z</time></trkpt><trkpt lat="44.4028182" lon="10.8025281"><ele>707.4000000000001</ele><time>2026-05-02T13:59:12.212Z</time></trkpt><trkpt lat="44.4027173" lon="10.8024943"><ele>707.2</ele><time>2026-05-02T13:59:13.22Z</time></trkpt><trkpt lat="44.4026045" lon="10.8024931"><ele>707.0</ele><time>2026-05-02T13:59:14.278Z</time></trkpt><trkpt lat="44.4024982" lon="10.8024933"><ele>707.0</ele><time>2026-05-02T13:59:15.278Z</time></trkpt><trkpt lat="44.4024205" lon="10.8024805"><ele>707.0</ele><time>2026-05-02T13:59:16.219Z</time></trkpt><trkpt lat="44.4023561" lon="10.8024707"><ele>707.0</ele><time>2026-05-02T13:59:17.248Z</time></trkpt><trkpt lat="44.4022626" lon="10.802529"><ele>707.0</ele><time>2026-05-02T13:59:19.228Z</time></trkpt><trkpt lat="44.4022289" lon="10.8026772"><ele>707.0</ele><time>2026-05-02T13:59:21.223Z</time></trkpt><trkpt lat="44.4021957" lon="10.8028418"><ele>707.2</ele><time>2026-05-02T13:59:23.212Z</time></trkpt><trkpt lat="44.4021787" lon="10.8029353"><ele>707.4000000000001</ele><time>2026-05-02T13:59:24.235Z</time></trkpt><trkpt lat="44.4021556" lon="10.8030433"><ele>707.5999999999999</ele><time>2026-05-02T13:59:25.232Z</time></trkpt><trkpt lat="44.4021273" lon="10.8031734"><ele>707.8</ele><time>2026-05-02T13:59:26.236Z</time></trkpt><trkpt lat="44.4020995" lon="10.8033143"><ele>708.0</ele><time>2026-05-02T13:59:27.29Z</time></trkpt><trkpt lat="44.4020711" lon="10.8034563"><ele>708.75</ele><time>2026-05-02T13:59:28.193Z</time></trkpt><trkpt lat="44.4020342" lon="10.8035904"><ele>709.5</ele><time>2026-05-02T13:59:29.23Z</time></trkpt><trkpt lat="44.4019883" lon="10.8037291"><ele>710.25</ele><time>2026-05-02T13:59:30.228Z</time></trkpt><trkpt lat="44.4019307" lon="10.8038747"><ele>711.0</ele><time>2026-05-02T13:59:31.222Z</time></trkpt><trkpt lat="44.4018699" lon="10.8040226"><ele>711.0</ele><time>2026-05-02T13:59:32.24Z</time></trkpt><trkpt lat="44.4018119" lon="10.8041698"><ele>711.0</ele><time>2026-05-02T13:59:33.25Z</time></trkpt><trkpt lat="44.401762" lon="10.8043076"><ele>711.0</ele><time>2026-05-02T13:59:34.231Z</time></trkpt><trkpt lat="44.4017189" lon="10.8044373"><ele>711.0</ele><time>2026-05-02T13:59:35.258Z</time></trkpt><trkpt lat="44.4016873" lon="10.8045583"><ele>711.0</ele><time>2026-05-02T13:59:36.234Z</time></trkpt><trkpt lat="44.4016729" lon="10.8046785"><ele>711.0</ele><time>2026-05-02T13:59:37.228Z</time></trkpt><trkpt lat="44.4016819" lon="10.8047976"><ele>711.0</ele><time>2026-05-02T13:59:38.222Z</time></trkpt><trkpt lat="44.4017176" lon="10.8049059"><ele>711.0</ele><time>2026-05-02T13:59:39.262Z</time></trkpt><trkpt lat="44.4017733" lon="10.8049907"><ele>711.0</ele><time>2026-05-02T13:59:40.245Z</time></trkpt><trkpt lat="44.4018484" lon="10.8050548"><ele>711.0</ele><time>2026-05-02T13:59:41.243Z</time></trkpt><trkpt lat="44.4019375" lon="10.8050898"><ele>711.0</ele><time>2026-05-02T13:59:42.22Z</time></trkpt><trkpt lat="44.4020374" lon="10.8050988"><ele>711.0</ele><time>2026-05-02T13:59:43.23Z</time></trkpt><trkpt lat="44.4021473" lon="10.8050883"><ele>711.0</ele><time>2026-05-02T13:59:44.248Z</time></trkpt><trkpt lat="44.4022549" lon="10.8050755"><ele>711.0</ele><time>2026-05-02T13:59:45.258Z</time></trkpt><trkpt lat="44.4023515" lon="10.8050664"><ele>711.0</ele><time>2026-05-02T13:59:46.231Z</time></trkpt><trkpt lat="44.4024383" lon="10.8050643"><ele>711.0</ele><time>2026-05-02T13:59:47.258Z</time></trkpt><trkpt lat="44.4025135" lon="10.8050698"><ele>710.1999999999999</ele><time>2026-05-02T13:59:48.232Z</time></trkpt><trkpt lat="44.4026269" lon="10.8051023"><ele>709.4</ele><time>2026-05-02T13:59:50.21Z</time></trkpt><trkpt lat="44.4027239" lon="10.8051"><ele>708.6</ele><time>2026-05-02T13:59:52.226Z</time></trkpt><trkpt lat="44.4028107" lon="10.8050315"><ele>707.8</ele><time>2026-05-02T13:59:54.176Z</time></trkpt><trkpt lat="44.402867" lon="10.8049683"><ele>707.0</ele><time>2026-05-02T13:59:55.224Z</time></trkpt><trkpt lat="44.4029466" lon="10.8048991"><ele>706.6</ele><time>2026-05-02T13:59:56.239Z</time></trkpt><trkpt lat="44.4030434" lon="10.8048328"><ele>706.2</ele><time>2026-05-02T13:59:57.244Z</time></trkpt><trkpt lat="44.4031442" lon="10.8047754"><ele>705.8</ele><time>2026-05-02T13:59:58.293Z</time></trkpt><trkpt lat="44.403247" lon="10.8047244"><ele>705.4</ele><time>2026-05-02T13:59:59.242Z</time></trkpt><trkpt lat="44.4033508" lon="10.804682"><ele>705.0</ele><time>2026-05-02T14:00:00.253Z</time></trkpt><trkpt lat="44.4034532" lon="10.8046555"><ele>705.0</ele><time>2026-05-02T14:00:01.216Z</time></trkpt><trkpt lat="44.4035507" lon="10.8046485"><ele>705.0</ele><time>2026-05-02T14:00:02.236Z</time></trkpt><trkpt lat="44.4036482" lon="10.8046683"><ele>705.0</ele><time>2026-05-02T14:00:03.191Z</time></trkpt><trkpt lat="44.4037561" lon="10.8047128"><ele>705.0</ele><time>2026-05-02T14:00:04.224Z</time></trkpt><trkpt lat="44.4038839" lon="10.8047582"><ele>705.0</ele><time>2026-05-02T14:00:05.23Z</time></trkpt><trkpt lat="44.404015" lon="10.804792"><ele>705.6</ele><time>2026-05-02T14:00:06.256Z</time></trkpt><trkpt lat="44.4041366" lon="10.804818"><ele>706.2</ele><time>2026-05-02T14:00:07.279Z</time></trkpt><trkpt lat="44.4042444" lon="10.8048291"><ele>706.8</ele><time>2026-05-02T14:00:08.251Z</time></trkpt><trkpt lat="44.4043316" lon="10.8048235"><ele>707.4</ele><time>2026-05-02T14:00:09.234Z</time></trkpt><trkpt lat="44.4044102" lon="10.8048172"><ele>708.0</ele><time>2026-05-02T14:00:10.238Z</time></trkpt><trkpt lat="44.4044989" lon="10.8047206"><ele>708.0</ele><time>2026-05-02T14:00:12.198Z</time></trkpt><trkpt lat="44.4045676" lon="10.8046713"><ele>708.0</ele><time>2026-05-02T14:00:13.207Z</time></trkpt><trkpt lat="44.4046319" lon="10.8046301"><ele>708.0</ele><time>2026-05-02T14:00:14.177Z</time></trkpt><trkpt lat="44.4046889" lon="10.8045858"><ele>708.0</ele><time>2026-05-02T14:00:15.215Z</time></trkpt><trkpt lat="44.4047524" lon="10.8045568"><ele>708.0</ele><time>2026-05-02T14:00:16.224Z</time></trkpt><trkpt lat="44.4048195" lon="10.8045319"><ele>708.0</ele><time>2026-05-02T14:00:17.219Z</time></trkpt><trkpt lat="44.4048955" lon="10.8045011"><ele>708.0</ele><time>2026-05-02T14:00:18.228Z</time></trkpt><trkpt lat="44.4049855" lon="10.8044432"><ele>708.8333333333334</ele><time>2026-05-02T14:00:20.241Z</time></trkpt><trkpt lat="44.4050417" lon="10.8043947"><ele>709.6666666666666</ele><time>2026-05-02T14:00:21.237Z</time></trkpt><trkpt lat="44.4051203" lon="10.804311"><ele>710.5</ele><time>2026-05-02T14:00:23.231Z</time></trkpt><trkpt lat="44.4052172" lon="10.8043113"><ele>711.3333333333333</ele><time>2026-05-02T14:00:25.243Z</time></trkpt><trkpt lat="44.4052914" lon="10.8043153"><ele>712.1666666666666</ele><time>2026-05-02T14:00:26.245Z</time></trkpt><trkpt lat="44.405366" lon="10.8043121"><ele>713.0</ele><time>2026-05-02T14:00:27.237Z</time></trkpt><trkpt lat="44.4054887" lon="10.8043532"><ele>712.2</ele><time>2026-05-02T14:00:29.246Z</time></trkpt><trkpt lat="44.4055593" lon="10.8043655"><ele>711.4</ele><time>2026-05-02T14:00:30.193Z</time></trkpt><trkpt lat="44.4056813" lon="10.8043591"><ele>710.6</ele><time>2026-05-02T14:00:32.232Z</time></trkpt><trkpt lat="44.4057509" lon="10.8043758"><ele>709.8000000000001</ele><time>2026-05-02T14:00:33.215Z</time></trkpt><trkpt lat="44.4058547" lon="10.8044975"><ele>709.0</ele><time>2026-05-02T14:00:35.219Z</time></trkpt><trkpt lat="44.4059159" lon="10.8045752"><ele>709.0</ele><time>2026-05-02T14:00:37.237Z</time></trkpt><trkpt lat="44.4059947" lon="10.804629"><ele>709.0</ele><time>2026-05-02T14:00:39.234Z</time></trkpt><trkpt lat="44.4060932" lon="10.8046852"><ele>709.0</ele><time>2026-05-02T14:00:41.244Z</time></trkpt><trkpt lat="44.4061688" lon="10.8047317"><ele>709.0</ele><time>2026-05-02T14:00:43.241Z</time></trkpt><trkpt lat="44.4062614" lon="10.8047337"><ele>709.0</ele><time>2026-05-02T14:00:46.232Z</time></trkpt><trkpt lat="44.4063367" lon="10.804685"><ele>706.6</ele><time>2026-05-02T14:00:48.221Z</time></trkpt><trkpt lat="44.4063965" lon="10.804645"><ele>704.2</ele><time>2026-05-02T14:00:49.233Z</time></trkpt><trkpt lat="44.406481" lon="10.8045588"><ele>701.8000000000001</ele><time>2026-05-02T14:00:51.231Z</time></trkpt><trkpt lat="44.4065567" lon="10.8044737"><ele>699.4000000000001</ele><time>2026-05-02T14:00:53.247Z</time></trkpt><trkpt lat="44.4066261" lon="10.8043727"><ele>697.0</ele><time>2026-05-02T14:00:55.249Z</time></trkpt><trkpt lat="44.4066871" lon="10.8042716"><ele>696.3333333333334</ele><time>2026-05-02T14:00:57.227Z</time></trkpt><trkpt lat="44.4066937" lon="10.8041676"><ele>695.6666666666667</ele><time>2026-05-02T14:00:59.187Z</time></trkpt><trkpt lat="44.4067005" lon="10.8040542"><ele>695.0</ele><time>2026-05-02T14:01:01.234Z</time></trkpt><trkpt lat="44.4067884" lon="10.8039555"><ele>694.3333333333334</ele><time>2026-05-02T14:01:03.283Z</time></trkpt><trkpt lat="44.4068446" lon="10.8038864"><ele>693.6666666666666</ele><time>2026-05-02T14:01:04.25Z</time></trkpt><trkpt lat="44.4069035" lon="10.8038269"><ele>693.0</ele><time>2026-05-02T14:01:05.209Z</time></trkpt><trkpt lat="44.4069652" lon="10.8037768"><ele>693.0</ele><time>2026-05-02T14:01:06.232Z</time></trkpt><trkpt lat="44.4070408" lon="10.8037385"><ele>693.0</ele><time>2026-05-02T14:01:08.22Z</time></trkpt><trkpt lat="44.4071357" lon="10.8037508"><ele>693.0</ele><time>2026-05-02T14:01:11.216Z</time></trkpt><trkpt lat="44.4072029" lon="10.8037646"><ele>693.0</ele><time>2026-05-02T14:01:13.211Z</time></trkpt><trkpt lat="44.4072665" lon="10.8037985"><ele>693.0</ele><time>2026-05-02T14:01:15.184Z</time></trkpt><trkpt lat="44.4073599" lon="10.8038531"><ele>693.0</ele><time>2026-05-02T14:01:17.259Z</time></trkpt><trkpt lat="44.4074891" lon="10.8038804"><ele>691.8333333333334</ele><time>2026-05-02T14:01:19.24Z</time></trkpt><trkpt lat="44.4075833" lon="10.8038737"><ele>690.6666666666666</ele><time>2026-05-02T14:01:20.196Z</time></trkpt><trkpt lat="44.4076601" lon="10.8038485"><ele>689.5</ele><time>2026-05-02T14:01:21.197Z</time></trkpt><trkpt lat="44.4077436" lon="10.8038238"><ele>688.3333333333333</ele><time>2026-05-02T14:01:22.226Z</time></trkpt><trkpt lat="44.4078271" lon="10.8037786"><ele>687.1666666666666</ele><time>2026-05-02T14:01:23.237Z</time></trkpt><trkpt lat="44.4079076" lon="10.8037439"><ele>686.0</ele><time>2026-05-02T14:01:24.234Z</time></trkpt><trkpt lat="44.4079734" lon="10.8037125"><ele>686.0</ele><time>2026-05-02T14:01:25.213Z</time></trkpt><trkpt lat="44.4080737" lon="10.8036738"><ele>686.0</ele><time>2026-05-02T14:01:27.255Z</time></trkpt><trkpt lat="44.4081336" lon="10.8036184"><ele>686.0</ele><time>2026-05-02T14:01:30.243Z</time></trkpt><trkpt lat="44.4081509" lon="10.8035308"><ele>686.0</ele><time>2026-05-02T14:01:33.246Z</time></trkpt><trkpt lat="44.4082039" lon="10.8034677"><ele>686.0</ele><time>2026-05-02T14:01:36.225Z</time></trkpt><trkpt lat="44.4083145" lon="10.8034048"><ele>686.0</ele><time>2026-05-02T14:01:38.234Z</time></trkpt><trkpt lat="44.4083794" lon="10.8033653"><ele>686.5</ele><time>2026-05-02T14:01:39.224Z</time></trkpt><trkpt lat="44.4084379" lon="10.8033228"><ele>687.0</ele><time>2026-05-02T14:01:40.226Z</time></trkpt><trkpt lat="44.4085394" lon="10.803256"><ele>687.5</ele><time>2026-05-02T14:01:42.239Z</time></trkpt><trkpt lat="44.4086419" lon="10.8032521"><ele>688.0</ele><time>2026-05-02T14:01:44.248Z</time></trkpt><trkpt lat="44.4087228" lon="10.8032543"><ele>688.5</ele><time>2026-05-02T14:01:45.214Z</time></trkpt><trkpt lat="44.4088053" lon="10.8032726"><ele>689.0</ele><time>2026-05-02T14:01:46.231Z</time></trkpt><trkpt lat="44.4088788" lon="10.8033006"><ele>688.0</ele><time>2026-05-02T14:01:47.23Z</time></trkpt><trkpt lat="44.4089424" lon="10.8033359"><ele>687.0</ele><time>2026-05-02T14:01:48.254Z</time></trkpt><trkpt lat="44.4089884" lon="10.8033966"><ele>686.0</ele><time>2026-05-02T14:01:49.227Z</time></trkpt><trkpt lat="44.4090386" lon="10.8034614"><ele>685.0</ele><time>2026-05-02T14:01:50.229Z</time></trkpt><trkpt lat="44.4091038" lon="10.8035969"><ele>684.0</ele><time>2026-05-02T14:01:52.218Z</time></trkpt><trkpt lat="44.4091867" lon="10.8036926"><ele>683.0</ele><time>2026-05-02T14:01:54.223Z</time></trkpt><trkpt lat="44.4093095" lon="10.8037556"><ele>683.1428571428571</ele><time>2026-05-02T14:01:56.212Z</time></trkpt><trkpt lat="44.4093759" lon="10.8037734"><ele>683.2857142857142</ele><time>2026-05-02T14:01:57.241Z</time></trkpt><trkpt lat="44.409451" lon="10.803787"><ele>683.4285714285713</ele><time>2026-05-02T14:01:58.225Z</time></trkpt><trkpt lat="44.4095213" lon="10.8037915"><ele>683.5714285714286</ele><time>2026-05-02T14:01:59.218Z</time></trkpt><trkpt lat="44.4095879" lon="10.8037863"><ele>683.7142857142857</ele><time>2026-05-02T14:02:00.182Z</time></trkpt><trkpt lat="44.4096508" lon="10.8037707"><ele>683.8571428571428</ele><time>2026-05-02T14:02:01.241Z</time></trkpt><trkpt lat="44.4097169" lon="10.8037544"><ele>684.0</ele><time>2026-05-02T14:02:02.204Z</time></trkpt><trkpt lat="44.4098196" lon="10.8037154"><ele>684.0</ele><time>2026-05-02T14:02:04.239Z</time></trkpt><trkpt lat="44.4099584" lon="10.8037564"><ele>684.0</ele><time>2026-05-02T14:02:06.22Z</time></trkpt><trkpt lat="44.4100512" lon="10.803802"><ele>684.0</ele><time>2026-05-02T14:02:07.24Z</time></trkpt><trkpt lat="44.4101511" lon="10.8038224"><ele>684.0</ele><time>2026-05-02T14:02:08.226Z</time></trkpt><trkpt lat="44.4102487" lon="10.8038792"><ele>684.0</ele><time>2026-05-02T14:02:09.242Z</time></trkpt><trkpt lat="44.4103684" lon="10.8039014"><ele>684.0</ele><time>2026-05-02T14:02:10.219Z</time></trkpt><trkpt lat="44.4104735" lon="10.8039472"><ele>684.0</ele><time>2026-05-02T14:02:11.221Z</time></trkpt><trkpt lat="44.4105448" lon="10.8039635"><ele>684.0</ele><time>2026-05-02T14:02:12.23Z</time></trkpt><trkpt lat="44.410631" lon="10.8039993"><ele>684.0</ele><time>2026-05-02T14:02:13.245Z</time></trkpt><trkpt lat="44.4107073" lon="10.8040413"><ele>684.0</ele><time>2026-05-02T14:02:14.196Z</time></trkpt><trkpt lat="44.4107953" lon="10.8040869"><ele>684.0</ele><time>2026-05-02T14:02:15.262Z</time></trkpt><trkpt lat="44.4108847" lon="10.8041311"><ele>684.8333333333334</ele><time>2026-05-02T14:02:16.205Z</time></trkpt><trkpt lat="44.4109763" lon="10.8041711"><ele>685.6666666666666</ele><time>2026-05-02T14:02:17.223Z</time></trkpt><trkpt lat="44.4110574" lon="10.8042068"><ele>686.5</ele><time>2026-05-02T14:02:18.242Z</time></trkpt><trkpt lat="44.4111338" lon="10.8042436"><ele>687.3333333333333</ele><time>2026-05-02T14:02:19.231Z</time></trkpt><trkpt lat="44.4112189" lon="10.804284"><ele>688.1666666666666</ele><time>2026-05-02T14:02:20.242Z</time></trkpt><trkpt lat="44.4113031" lon="10.8043306"><ele>689.0</ele><time>2026-05-02T14:02:21.211Z</time></trkpt><trkpt lat="44.4113873" lon="10.8043743"><ele>690.1666666666666</ele><time>2026-05-02T14:02:22.217Z</time></trkpt><trkpt lat="44.4114625" lon="10.8044137"><ele>691.3333333333333</ele><time>2026-05-02T14:02:23.228Z</time></trkpt><trkpt lat="44.4115325" lon="10.8044469"><ele>692.5</ele><time>2026-05-02T14:02:24.211Z</time></trkpt><trkpt lat="44.4116069" lon="10.8045373"><ele>693.6666666666666</ele><time>2026-05-02T14:02:26.204Z</time></trkpt><trkpt lat="44.4116297" lon="10.8046371"><ele>694.8333333333334</ele><time>2026-05-02T14:02:28.207Z</time></trkpt><trkpt lat="44.4116549" lon="10.8047427"><ele>696.0</ele><time>2026-05-02T14:02:30.225Z</time></trkpt><trkpt lat="44.4117255" lon="10.8047625"><ele>696.0</ele><time>2026-05-02T14:02:32.252Z</time></trkpt><trkpt lat="44.4118278" lon="10.804753"><ele>696.0</ele><time>2026-05-02T14:02:34.247Z</time></trkpt><trkpt lat="44.4119512" lon="10.8047519"><ele>696.0</ele><time>2026-05-02T14:02:36.24Z</time></trkpt><trkpt lat="44.4120194" lon="10.8047562"><ele>696.0</ele><time>2026-05-02T14:02:37.203Z</time></trkpt><trkpt lat="44.4120848" lon="10.8047628"><ele>696.0</ele><time>2026-05-02T14:02:38.219Z</time></trkpt><trkpt lat="44.4121536" lon="10.8047754"><ele>696.0</ele><time>2026-05-02T14:02:39.205Z</time></trkpt><trkpt lat="44.412218" lon="10.8047839"><ele>698.0</ele><time>2026-05-02T14:02:40.19Z</time></trkpt><trkpt lat="44.412291" lon="10.8047763"><ele>700.0</ele><time>2026-05-02T14:02:41.221Z</time></trkpt><trkpt lat="44.4123592" lon="10.8047612"><ele>702.0</ele><time>2026-05-02T14:02:42.183Z</time></trkpt><trkpt lat="44.4124723" lon="10.8047318"><ele>704.0</ele><time>2026-05-02T14:02:44.254Z</time></trkpt><trkpt lat="44.4125904" lon="10.8046761"><ele>706.0</ele><time>2026-05-02T14:02:46.229Z</time></trkpt><trkpt lat="44.4126582" lon="10.8046795"><ele>706.0</ele><time>2026-05-02T14:02:48.211Z</time></trkpt><trkpt lat="44.412752" lon="10.8047216"><ele>706.0</ele><time>2026-05-02T14:02:50.178Z</time></trkpt><trkpt lat="44.4128517" lon="10.8047334"><ele>706.0</ele><time>2026-05-02T14:02:52.234Z</time></trkpt><trkpt lat="44.4129731" lon="10.804739"><ele>706.0</ele><time>2026-05-02T14:02:54.196Z</time></trkpt><trkpt lat="44.4130378" lon="10.8047402"><ele>706.0</ele><time>2026-05-02T14:02:55.255Z</time></trkpt><trkpt lat="44.4131448" lon="10.8047481"><ele>707.6666666666667</ele><time>2026-05-02T14:02:57.212Z</time></trkpt><trkpt lat="44.4132094" lon="10.8047377"><ele>709.3333333333334</ele><time>2026-05-02T14:02:58.247Z</time></trkpt><trkpt lat="44.4133009" lon="10.8047263"><ele>711.0</ele><time>2026-05-02T14:03:00.257Z</time></trkpt><trkpt lat="44.4133815" lon="10.8046991"><ele>712.6666666666666</ele><time>2026-05-02T14:03:02.268Z</time></trkpt><trkpt lat="44.4134829" lon="10.804654"><ele>714.3333333333333</ele><time>2026-05-02T14:03:04.22Z</time></trkpt><trkpt lat="44.4135451" lon="10.8046268"><ele>716.0</ele><time>2026-05-02T14:03:05.241Z</time></trkpt><trkpt lat="44.4136425" lon="10.804583"><ele>716.0</ele><time>2026-05-02T14:03:07.249Z</time></trkpt><trkpt lat="44.4137395" lon="10.8045252"><ele>716.0</ele><time>2026-05-02T14:03:09.219Z</time></trkpt><trkpt lat="44.4138208" lon="10.8044957"><ele>716.0</ele><time>2026-05-02T14:03:11.231Z</time></trkpt><trkpt lat="44.4139106" lon="10.8044768"><ele>716.0</ele><time>2026-05-02T14:03:13.242Z</time></trkpt><trkpt lat="44.4139979" lon="10.8044616"><ele>716.0</ele><time>2026-05-02T14:03:15.234Z</time></trkpt><trkpt lat="44.4140854" lon="10.8044274"><ele>719.1666666666666</ele><time>2026-05-02T14:03:17.243Z</time></trkpt><trkpt lat="44.4141503" lon="10.8044056"><ele>722.3333333333333</ele><time>2026-05-02T14:03:19.219Z</time></trkpt><trkpt lat="44.4142429" lon="10.8043726"><ele>725.5</ele><time>2026-05-02T14:03:21.268Z</time></trkpt><trkpt lat="44.4143278" lon="10.8043248"><ele>728.6666666666666</ele><time>2026-05-02T14:03:23.206Z</time></trkpt><trkpt lat="44.4144015" lon="10.8043009"><ele>731.8333333333334</ele><time>2026-05-02T14:03:25.242Z</time></trkpt><trkpt lat="44.4144666" lon="10.8042717"><ele>735.0</ele><time>2026-05-02T14:03:26.253Z</time></trkpt><trkpt lat="44.4145303" lon="10.8042459"><ele>735.1666666666666</ele><time>2026-05-02T14:03:27.224Z</time></trkpt><trkpt lat="44.4146103" lon="10.8042102"><ele>735.3333333333334</ele><time>2026-05-02T14:03:28.236Z</time></trkpt><trkpt lat="44.4146871" lon="10.8041764"><ele>735.5</ele><time>2026-05-02T14:03:29.189Z</time></trkpt><trkpt lat="44.4147869" lon="10.8041166"><ele>735.6666666666667</ele><time>2026-05-02T14:03:31.234Z</time></trkpt><trkpt lat="44.4148497" lon="10.8041005"><ele>735.8333333333334</ele><time>2026-05-02T14:03:33.223Z</time></trkpt><trkpt lat="44.4149153" lon="10.8041261"><ele>736.0</ele><time>2026-05-02T14:03:35.231Z</time></trkpt><trkpt lat="44.4150085" lon="10.8040514"><ele>740.0</ele><time>2026-05-02T14:03:38.19Z</time></trkpt><trkpt lat="44.4150872" lon="10.8039435"><ele>744.0</ele><time>2026-05-02T14:03:40.225Z</time></trkpt><trkpt lat="44.4151428" lon="10.8038152"><ele>748.0</ele><time>2026-05-02T14:03:42.259Z</time></trkpt><trkpt lat="44.4151801" lon="10.8036714"><ele>752.0</ele><time>2026-05-02T14:03:44.245Z</time></trkpt><trkpt lat="44.4152069" lon="10.8035393"><ele>756.0</ele><time>2026-05-02T14:03:46.223Z</time></trkpt><trkpt lat="44.4152354" lon="10.8034176"><ele>756.0</ele><time>2026-05-02T14:03:47.249Z</time></trkpt><trkpt lat="44.415281" lon="10.8033085"><ele>756.0</ele><time>2026-05-02T14:03:48.246Z</time></trkpt><trkpt lat="44.4153155" lon="10.8032071"><ele>756.0</ele><time>2026-05-02T14:03:49.242Z</time></trkpt><trkpt lat="44.4153638" lon="10.8030831"><ele>756.0</ele><time>2026-05-02T14:03:50.238Z</time></trkpt><trkpt lat="44.41544" lon="10.8029462"><ele>756.0</ele><time>2026-05-02T14:03:51.261Z</time></trkpt><trkpt lat="44.415514" lon="10.802808"><ele>759.4</ele><time>2026-05-02T14:03:52.23Z</time></trkpt><trkpt lat="44.4155815" lon="10.8027013"><ele>762.8</ele><time>2026-05-02T14:03:53.221Z</time></trkpt><trkpt lat="44.4156485" lon="10.8026133"><ele>766.1999999999999</ele><time>2026-05-02T14:03:54.248Z</time></trkpt><trkpt lat="44.4157188" lon="10.802533"><ele>769.5999999999999</ele><time>2026-05-02T14:03:55.231Z</time></trkpt><trkpt lat="44.4157877" lon="10.8024582"><ele>773.0</ele><time>2026-05-02T14:03:56.254Z</time></trkpt><trkpt lat="44.4158636" lon="10.8024116"><ele>773.5000000000001</ele><time>2026-05-02T14:03:57.231Z</time></trkpt><trkpt lat="44.4159451" lon="10.8023526"><ele>774.0</ele><time>2026-05-02T14:03:58.301Z</time></trkpt><trkpt lat="44.41603" lon="10.8023081"><ele>774.5</ele><time>2026-05-02T14:03:59.206Z</time></trkpt><trkpt lat="44.4161092" lon="10.8022599"><ele>775.0</ele><time>2026-05-02T14:04:00.208Z</time></trkpt><trkpt lat="44.4161881" lon="10.8022208"><ele>775.5000000000001</ele><time>2026-05-02T14:04:01.221Z</time></trkpt><trkpt lat="44.4162689" lon="10.8021788"><ele>776.0</ele><time>2026-05-02T14:04:02.21Z</time></trkpt><trkpt lat="44.4163528" lon="10.802147"><ele>778.4</ele><time>2026-05-02T14:04:03.241Z</time></trkpt><trkpt lat="44.4164434" lon="10.802123"><ele>780.8</ele><time>2026-05-02T14:04:04.236Z</time></trkpt><trkpt lat="44.4165356" lon="10.8021005"><ele>783.1999999999999</ele><time>2026-05-02T14:04:05.229Z</time></trkpt><trkpt lat="44.4166313" lon="10.8020851"><ele>785.5999999999999</ele><time>2026-05-02T14:04:06.23Z</time></trkpt><trkpt lat="44.416722" lon="10.8020486"><ele>788.0</ele><time>2026-05-02T14:04:07.229Z</time></trkpt><trkpt lat="44.4167941" lon="10.8019888"><ele>788.0</ele><time>2026-05-02T14:04:08.238Z</time></trkpt><trkpt lat="44.416854" lon="10.8019121"><ele>788.0</ele><time>2026-05-02T14:04:09.262Z</time></trkpt><trkpt lat="44.4169145" lon="10.8018172"><ele>788.0</ele><time>2026-05-02T14:04:10.292Z</time></trkpt><trkpt lat="44.4169756" lon="10.801706"><ele>788.0</ele><time>2026-05-02T14:04:11.23Z</time></trkpt><trkpt lat="44.4170343" lon="10.8016032"><ele>788.0</ele><time>2026-05-02T14:04:12.202Z</time></trkpt><trkpt lat="44.4170863" lon="10.8015067"><ele>788.4</ele><time>2026-05-02T14:04:13.227Z</time></trkpt><trkpt lat="44.4171459" lon="10.8014007"><ele>788.8</ele><time>2026-05-02T14:04:14.228Z</time></trkpt><trkpt lat="44.4172131" lon="10.8012833"><ele>789.2</ele><time>2026-05-02T14:04:15.219Z</time></trkpt><trkpt lat="44.4172788" lon="10.8011687"><ele>789.6</ele><time>2026-05-02T14:04:16.233Z</time></trkpt><trkpt lat="44.4173442" lon="10.8010589"><ele>790.0</ele><time>2026-05-02T14:04:17.254Z</time></trkpt><trkpt lat="44.4174111" lon="10.8009521"><ele>791.6666666666666</ele><time>2026-05-02T14:04:18.251Z</time></trkpt><trkpt lat="44.4174696" lon="10.8008557"><ele>793.3333333333333</ele><time>2026-05-02T14:04:19.236Z</time></trkpt><trkpt lat="44.4175206" lon="10.8007749"><ele>795.0</ele><time>2026-05-02T14:04:20.252Z</time></trkpt><trkpt lat="44.4175656" lon="10.8007105"><ele>796.6666666666667</ele><time>2026-05-02T14:04:21.236Z</time></trkpt><trkpt lat="44.4176349" lon="10.8006404"><ele>798.3333333333334</ele><time>2026-05-02T14:04:23.254Z</time></trkpt><trkpt lat="44.4177128" lon="10.8006323"><ele>800.0</ele><time>2026-05-02T14:04:26.23Z</time></trkpt><trkpt lat="44.4178139" lon="10.8006245"><ele>800.0</ele><time>2026-05-02T14:04:28.246Z</time></trkpt><trkpt lat="44.4178819" lon="10.8005987"><ele>800.0</ele><time>2026-05-02T14:04:29.245Z</time></trkpt><trkpt lat="44.4179628" lon="10.8005572"><ele>800.0</ele><time>2026-05-02T14:04:30.243Z</time></trkpt><trkpt lat="44.4180496" lon="10.8005113"><ele>800.0</ele><time>2026-05-02T14:04:31.23Z</time></trkpt><trkpt lat="44.4181451" lon="10.8004543"><ele>800.0</ele><time>2026-05-02T14:04:32.232Z</time></trkpt><trkpt lat="44.4182378" lon="10.8003962"><ele>799.6</ele><time>2026-05-02T14:04:33.296Z</time></trkpt><trkpt lat="44.4183249" lon="10.8003366"><ele>799.2</ele><time>2026-05-02T14:04:34.224Z</time></trkpt><trkpt lat="44.4184065" lon="10.8002723"><ele>798.8</ele><time>2026-05-02T14:04:35.211Z</time></trkpt><trkpt lat="44.4184872" lon="10.8002124"><ele>798.4</ele><time>2026-05-02T14:04:36.236Z</time></trkpt><trkpt lat="44.4185649" lon="10.8001574"><ele>798.0</ele><time>2026-05-02T14:04:37.226Z</time></trkpt><trkpt lat="44.4186424" lon="10.8001161"><ele>798.0</ele><time>2026-05-02T14:04:38.245Z</time></trkpt><trkpt lat="44.4187192" lon="10.8000816"><ele>798.0</ele><time>2026-05-02T14:04:39.209Z</time></trkpt><trkpt lat="44.4187863" lon="10.800042"><ele>798.0</ele><time>2026-05-02T14:04:40.244Z</time></trkpt><trkpt lat="44.4188428" lon="10.7999872"><ele>798.0</ele><time>2026-05-02T14:04:41.26Z</time></trkpt><trkpt lat="44.4189354" lon="10.7999084"><ele>798.0</ele><time>2026-05-02T14:04:43.224Z</time></trkpt><trkpt lat="44.4190275" lon="10.7999131"><ele>798.0</ele><time>2026-05-02T14:04:45.236Z</time></trkpt><trkpt lat="44.41912" lon="10.7999609"><ele>798.8571428571429</ele><time>2026-05-02T14:04:47.241Z</time></trkpt><trkpt lat="44.4191921" lon="10.7999983"><ele>799.7142857142858</ele><time>2026-05-02T14:04:49.225Z</time></trkpt><trkpt lat="44.419267" lon="10.8000308"><ele>800.5714285714286</ele><time>2026-05-02T14:04:51.241Z</time></trkpt><trkpt lat="44.4193358" lon="10.8000444"><ele>801.4285714285714</ele><time>2026-05-02T14:04:53.222Z</time></trkpt><trkpt lat="44.419404" lon="10.8000609"><ele>802.2857142857143</ele><time>2026-05-02T14:04:55.235Z</time></trkpt><trkpt lat="44.4194659" lon="10.8000807"><ele>803.1428571428571</ele><time>2026-05-02T14:04:57.27Z</time></trkpt><trkpt lat="44.4195405" lon="10.8000537"><ele>804.0</ele><time>2026-05-02T14:04:59.216Z</time></trkpt><trkpt lat="44.4196371" lon="10.7999737"><ele>801.5</ele><time>2026-05-02T14:05:01.226Z</time></trkpt><trkpt lat="44.419718" lon="10.7999155"><ele>799.0</ele><time>2026-05-02T14:05:03.238Z</time></trkpt><trkpt lat="44.4198101" lon="10.799954"><ele>796.5</ele><time>2026-05-02T14:05:06.214Z</time></trkpt><trkpt lat="44.419857" lon="10.800032"><ele>794.0</ele><time>2026-05-02T14:05:08.268Z</time></trkpt><trkpt lat="44.4198976" lon="10.8001047"><ele>791.5</ele><time>2026-05-02T14:05:10.24Z</time></trkpt><trkpt lat="44.4199657" lon="10.8001772"><ele>789.0</ele><time>2026-05-02T14:05:12.227Z</time></trkpt><trkpt lat="44.4200056" lon="10.8002743"><ele>789.0</ele><time>2026-05-02T14:05:14.253Z</time></trkpt><trkpt lat="44.4200103" lon="10.8003799"><ele>789.0</ele><time>2026-05-02T14:05:16.232Z</time></trkpt><trkpt lat="44.4200345" lon="10.8004944"><ele>789.0</ele><time>2026-05-02T14:05:18.253Z</time></trkpt><trkpt lat="44.420094" lon="10.8005862"><ele>789.0</ele><time>2026-05-02T14:05:20.234Z</time></trkpt><trkpt lat="44.4201576" lon="10.8006418"><ele>789.0</ele><time>2026-05-02T14:05:22.242Z</time></trkpt><trkpt lat="44.4202434" lon="10.8006843"><ele>789.0</ele><time>2026-05-02T14:05:24.22Z</time></trkpt><trkpt lat="44.4203372" lon="10.8007316"><ele>789.0</ele><time>2026-05-02T14:05:26.224Z</time></trkpt><trkpt lat="44.420424" lon="10.8008046"><ele>789.0</ele><time>2026-05-02T14:05:28.242Z</time></trkpt><trkpt lat="44.4204855" lon="10.8008981"><ele>789.0</ele><time>2026-05-02T14:05:30.203Z</time></trkpt><trkpt lat="44.4205049" lon="10.8010264"><ele>789.0</ele><time>2026-05-02T14:05:32.229Z</time></trkpt><trkpt lat="44.42051" lon="10.8011838"><ele>789.0</ele><time>2026-05-02T14:05:34.22Z</time></trkpt><trkpt lat="44.4205192" lon="10.8012721"><ele>783.2</ele><time>2026-05-02T14:05:35.252Z</time></trkpt><trkpt lat="44.4205382" lon="10.8014229"><ele>777.4000000000001</ele><time>2026-05-02T14:05:37.229Z</time></trkpt><trkpt lat="44.4205605" lon="10.8015508"><ele>771.6</ele><time>2026-05-02T14:05:39.214Z</time></trkpt><trkpt lat="44.4205857" lon="10.801695"><ele>765.8</ele><time>2026-05-02T14:05:41.234Z</time></trkpt><trkpt lat="44.4206049" lon="10.8017911"><ele>760.0</ele><time>2026-05-02T14:05:42.193Z</time></trkpt><trkpt lat="44.4206301" lon="10.8019532"><ele>759.2</ele><time>2026-05-02T14:05:44.224Z</time></trkpt><trkpt lat="44.4206505" lon="10.8021583"><ele>758.4</ele><time>2026-05-02T14:05:47.243Z</time></trkpt><trkpt lat="44.4206889" lon="10.8023047"><ele>757.5999999999999</ele><time>2026-05-02T14:05:49.199Z</time></trkpt><trkpt lat="44.4207112" lon="10.8023947"><ele>756.8</ele><time>2026-05-02T14:05:50.179Z</time></trkpt><trkpt lat="44.4207348" lon="10.8025281"><ele>756.0</ele><time>2026-05-02T14:05:52.196Z</time></trkpt><trkpt lat="44.4207364" lon="10.8026666"><ele>755.8</ele><time>2026-05-02T14:05:54.231Z</time></trkpt><trkpt lat="44.4207218" lon="10.8028193"><ele>755.5999999999999</ele><time>2026-05-02T14:05:56.216Z</time></trkpt><trkpt lat="44.4207238" lon="10.8029643"><ele>755.4</ele><time>2026-05-02T14:05:58.233Z</time></trkpt><trkpt lat="44.4207931" lon="10.8030863"><ele>755.2</ele><time>2026-05-02T14:06:00.202Z</time></trkpt><trkpt lat="44.420859" lon="10.8031826"><ele>755.0</ele><time>2026-05-02T14:06:02.218Z</time></trkpt><trkpt lat="44.420952" lon="10.8032875"><ele>755.0</ele><time>2026-05-02T14:06:04.232Z</time></trkpt><trkpt lat="44.421031" lon="10.8033885"><ele>755.0</ele><time>2026-05-02T14:06:06.263Z</time></trkpt><trkpt lat="44.4211056" lon="10.8035063"><ele>755.0</ele><time>2026-05-02T14:06:08.227Z</time></trkpt><trkpt lat="44.4211385" lon="10.8035843"><ele>755.0</ele><time>2026-05-02T14:06:09.246Z</time></trkpt><trkpt lat="44.4211973" lon="10.8037138"><ele>755.0</ele><time>2026-05-02T14:06:11.193Z</time></trkpt><trkpt lat="44.4212473" lon="10.8038162"><ele>754.8</ele><time>2026-05-02T14:06:13.203Z</time></trkpt><trkpt lat="44.4212614" lon="10.8039278"><ele>754.6</ele><time>2026-05-02T14:06:15.195Z</time></trkpt><trkpt lat="44.4212405" lon="10.8040793"><ele>754.4000000000001</ele><time>2026-05-02T14:06:17.19Z</time></trkpt><trkpt lat="44.4212292" lon="10.8042389"><ele>754.2</ele><time>2026-05-02T14:06:19.265Z</time></trkpt><trkpt lat="44.4212473" lon="10.8043791"><ele>754.0</ele><time>2026-05-02T14:06:21.241Z</time></trkpt><trkpt lat="44.421328" lon="10.8044674"><ele>750.5714285714286</ele><time>2026-05-02T14:06:23.254Z</time></trkpt><trkpt lat="44.4213795" lon="10.8045221"><ele>747.1428571428571</ele><time>2026-05-02T14:06:24.213Z</time></trkpt><trkpt lat="44.4214136" lon="10.804603"><ele>743.7142857142858</ele><time>2026-05-02T14:06:25.249Z</time></trkpt><trkpt lat="44.4214538" lon="10.8047261"><ele>740.2857142857142</ele><time>2026-05-02T14:06:27.221Z</time></trkpt><trkpt lat="44.4214753" lon="10.804812"><ele>736.8571428571429</ele><time>2026-05-02T14:06:29.239Z</time></trkpt><trkpt lat="44.4215198" lon="10.804887"><ele>733.4285714285714</ele><time>2026-05-02T14:06:31.26Z</time></trkpt><trkpt lat="44.4215626" lon="10.804966"><ele>730.0</ele><time>2026-05-02T14:06:33.262Z</time></trkpt><trkpt lat="44.4215929" lon="10.8050513"><ele>730.0</ele><time>2026-05-02T14:06:35.238Z</time></trkpt><trkpt lat="44.4216024" lon="10.805159"><ele>730.0</ele><time>2026-05-02T14:06:37.193Z</time></trkpt><trkpt lat="44.4216298" lon="10.8052845"><ele>730.0</ele><time>2026-05-02T14:06:39.236Z</time></trkpt><trkpt lat="44.4216611" lon="10.8053641"><ele>730.0</ele><time>2026-05-02T14:06:43.245Z</time></trkpt><trkpt lat="44.4217403" lon="10.8054057"><ele>730.0</ele><time>2026-05-02T14:07:10.209Z</time></trkpt><trkpt lat="44.4218441" lon="10.8054335"><ele>730.0</ele><time>2026-05-02T14:07:18.21Z</time></trkpt><trkpt lat="44.421894" lon="10.8055176"><ele>730.5</ele><time>2026-05-02T14:07:26.23Z</time></trkpt><trkpt lat="44.4219285" lon="10.8055998"><ele>731.0</ele><time>2026-05-02T14:07:29.233Z</time></trkpt><trkpt lat="44.4219702" lon="10.8056782"><ele>731.5</ele><time>2026-05-02T14:07:34.195Z</time></trkpt><trkpt lat="44.4220318" lon="10.8057048"><ele>732.0</ele><time>2026-05-02T14:07:37.26Z</time></trkpt><trkpt lat="44.4221175" lon="10.8056867"><ele>732.5</ele><time>2026-05-02T14:07:40.233Z</time></trkpt><trkpt lat="44.4221907" lon="10.8056263"><ele>733.0</ele><time>2026-05-02T14:07:43.233Z</time></trkpt><trkpt lat="44.4222425" lon="10.8055471"><ele>728.3333333333334</ele><time>2026-05-02T14:07:46.242Z</time></trkpt><trkpt lat="44.4223059" lon="10.8054749"><ele>723.6666666666667</ele><time>2026-05-02T14:07:49.236Z</time></trkpt><trkpt lat="44.4223951" lon="10.8054335"><ele>719.0</ele><time>2026-05-02T14:07:52.195Z</time></trkpt><trkpt lat="44.4224632" lon="10.8054791"><ele>714.3333333333334</ele><time>2026-05-02T14:07:54.239Z</time></trkpt><trkpt lat="44.422519" lon="10.8055809"><ele>709.6666666666666</ele><time>2026-05-02T14:07:56.25Z</time></trkpt><trkpt lat="44.4225869" lon="10.8056838"><ele>705.0</ele><time>2026-05-02T14:07:58.229Z</time></trkpt><trkpt lat="44.422671" lon="10.8057665"><ele>705.0</ele><time>2026-05-02T14:08:00.202Z</time></trkpt><trkpt lat="44.4227673" lon="10.8058144"><ele>705.0</ele><time>2026-05-02T14:08:02.231Z</time></trkpt><trkpt lat="44.4228359" lon="10.8058896"><ele>705.0</ele><time>2026-05-02T14:08:04.205Z</time></trkpt><trkpt lat="44.4228889" lon="10.8059627"><ele>705.0</ele><time>2026-05-02T14:08:06.25Z</time></trkpt><trkpt lat="44.4229511" lon="10.8059971"><ele>705.0</ele><time>2026-05-02T14:08:08.219Z</time></trkpt><trkpt lat="44.4230103" lon="10.805961"><ele>705.0</ele><time>2026-05-02T14:08:11.229Z</time></trkpt><trkpt lat="44.4231027" lon="10.8059664"><ele>701.6666666666666</ele><time>2026-05-02T14:08:15.228Z</time></trkpt><trkpt lat="44.423168" lon="10.8060418"><ele>698.3333333333334</ele><time>2026-05-02T14:08:17.259Z</time></trkpt><trkpt lat="44.423271" lon="10.8060258"><ele>695.0</ele><time>2026-05-02T14:08:19.232Z</time></trkpt><trkpt lat="44.4233539" lon="10.8059009"><ele>691.6666666666667</ele><time>2026-05-02T14:08:21.235Z</time></trkpt><trkpt lat="44.4233793" lon="10.8058162"><ele>688.3333333333334</ele><time>2026-05-02T14:08:22.247Z</time></trkpt><trkpt lat="44.4233983" lon="10.805725"><ele>685.0</ele><time>2026-05-02T14:08:23.184Z</time></trkpt><trkpt lat="44.4234148" lon="10.8056306"><ele>685.0</ele><time>2026-05-02T14:08:24.234Z</time></trkpt><trkpt lat="44.4234345" lon="10.8055358"><ele>685.0</ele><time>2026-05-02T14:08:25.229Z</time></trkpt><trkpt lat="44.4234616" lon="10.805445"><ele>685.0</ele><time>2026-05-02T14:08:26.229Z</time></trkpt><trkpt lat="44.4234988" lon="10.8053699"><ele>685.0</ele><time>2026-05-02T14:08:27.236Z</time></trkpt><trkpt lat="44.4235964" lon="10.8052945"><ele>685.0</ele><time>2026-05-02T14:08:29.216Z</time></trkpt><trkpt lat="44.4237092" lon="10.8053595"><ele>685.0</ele><time>2026-05-02T14:08:31.261Z</time></trkpt><trkpt lat="44.4237563" lon="10.8054402"><ele>685.0</ele><time>2026-05-02T14:08:32.215Z</time></trkpt><trkpt lat="44.4237949" lon="10.8055417"><ele>685.0</ele><time>2026-05-02T14:08:33.257Z</time></trkpt><trkpt lat="44.4238266" lon="10.8056566"><ele>685.0</ele><time>2026-05-02T14:08:34.232Z</time></trkpt><trkpt lat="44.4238569" lon="10.8057753"><ele>685.0</ele><time>2026-05-02T14:08:35.235Z</time></trkpt><trkpt lat="44.4238861" lon="10.8058971"><ele>685.0</ele><time>2026-05-02T14:08:36.24Z</time></trkpt><trkpt lat="44.4239112" lon="10.8060202"><ele>685.0</ele><time>2026-05-02T14:08:37.244Z</time></trkpt><trkpt lat="44.4239391" lon="10.8061422"><ele>682.1666666666667</ele><time>2026-05-02T14:08:38.245Z</time></trkpt><trkpt lat="44.4239714" lon="10.8062617"><ele>679.3333333333334</ele><time>2026-05-02T14:08:39.276Z</time></trkpt><trkpt lat="44.424007" lon="10.8063738"><ele>676.5</ele><time>2026-05-02T14:08:40.24Z</time></trkpt><trkpt lat="44.4240466" lon="10.8064715"><ele>673.6666666666666</ele><time>2026-05-02T14:08:41.227Z</time></trkpt><trkpt lat="44.424093" lon="10.8065616"><ele>670.8333333333333</ele><time>2026-05-02T14:08:42.237Z</time></trkpt><trkpt lat="44.4241452" lon="10.8066457"><ele>668.0</ele><time>2026-05-02T14:08:43.231Z</time></trkpt><trkpt lat="44.4242015" lon="10.8067254"><ele>668.0</ele><time>2026-05-02T14:08:44.232Z</time></trkpt><trkpt lat="44.4242587" lon="10.8068046"><ele>668.0</ele><time>2026-05-02T14:08:45.283Z</time></trkpt><trkpt lat="44.4243155" lon="10.8068841"><ele>668.0</ele><time>2026-05-02T14:08:46.251Z</time></trkpt><trkpt lat="44.4243748" lon="10.8069628"><ele>668.0</ele><time>2026-05-02T14:08:47.21Z</time></trkpt><trkpt lat="44.4244362" lon="10.8070372"><ele>668.0</ele><time>2026-05-02T14:08:48.245Z</time></trkpt><trkpt lat="44.4245002" lon="10.8071094"><ele>668.0</ele><time>2026-05-02T14:08:49.222Z</time></trkpt><trkpt lat="44.424565" lon="10.8071803"><ele>668.3333333333333</ele><time>2026-05-02T14:08:50.242Z</time></trkpt><trkpt lat="44.4246303" lon="10.807252"><ele>668.6666666666666</ele><time>2026-05-02T14:08:51.236Z</time></trkpt><trkpt lat="44.4246953" lon="10.8073255"><ele>669.0</ele><time>2026-05-02T14:08:52.232Z</time></trkpt><trkpt lat="44.4247605" lon="10.8073996"><ele>669.3333333333334</ele><time>2026-05-02T14:08:53.241Z</time></trkpt><trkpt lat="44.4248273" lon="10.8074741"><ele>669.6666666666667</ele><time>2026-05-02T14:08:54.237Z</time></trkpt><trkpt lat="44.424896" lon="10.8075488"><ele>670.0</ele><time>2026-05-02T14:08:55.224Z</time></trkpt><trkpt lat="44.4249654" lon="10.8076258"><ele>668.0</ele><time>2026-05-02T14:08:56.307Z</time></trkpt><trkpt lat="44.4250357" lon="10.8077068"><ele>666.0</ele><time>2026-05-02T14:08:57.23Z</time></trkpt><trkpt lat="44.4251064" lon="10.8077914"><ele>664.0</ele><time>2026-05-02T14:08:58.225Z</time></trkpt><trkpt lat="44.4251786" lon="10.8078778"><ele>662.0</ele><time>2026-05-02T14:08:59.233Z</time></trkpt><trkpt lat="44.4252516" lon="10.8079667"><ele>660.0</ele><time>2026-05-02T14:09:00.225Z</time></trkpt><trkpt lat="44.4253217" lon="10.8080503"><ele>660.0</ele><time>2026-05-02T14:09:01.227Z</time></trkpt><trkpt lat="44.4253928" lon="10.8081311"><ele>660.0</ele><time>2026-05-02T14:09:02.182Z</time></trkpt><trkpt lat="44.425466" lon="10.8082128"><ele>660.0</ele><time>2026-05-02T14:09:03.221Z</time></trkpt><trkpt lat="44.4255398" lon="10.808297"><ele>660.0</ele><time>2026-05-02T14:09:04.206Z</time></trkpt><trkpt lat="44.4256151" lon="10.8083847"><ele>660.0</ele><time>2026-05-02T14:09:05.228Z</time></trkpt><trkpt lat="44.4256925" lon="10.8084736"><ele>658.0</ele><time>2026-05-02T14:09:06.214Z</time></trkpt><trkpt lat="44.4257707" lon="10.8085643"><ele>656.0</ele><time>2026-05-02T14:09:07.228Z</time></trkpt><trkpt lat="44.4258505" lon="10.8086577"><ele>654.0</ele><time>2026-05-02T14:09:08.201Z</time></trkpt><trkpt lat="44.4259322" lon="10.8087489"><ele>652.0</ele><time>2026-05-02T14:09:09.236Z</time></trkpt><trkpt lat="44.4260141" lon="10.8088397"><ele>650.0</ele><time>2026-05-02T14:09:10.207Z</time></trkpt><trkpt lat="44.4260945" lon="10.8089285"><ele>650.0</ele><time>2026-05-02T14:09:11.241Z</time></trkpt><trkpt lat="44.4261736" lon="10.8090186"><ele>650.0</ele><time>2026-05-02T14:09:12.228Z</time></trkpt><trkpt lat="44.4262502" lon="10.8091065"><ele>650.0</ele><time>2026-05-02T14:09:13.244Z</time></trkpt><trkpt lat="44.4263271" lon="10.8091927"><ele>650.0</ele><time>2026-05-02T14:09:14.245Z</time></trkpt><trkpt lat="44.4264024" lon="10.8092784"><ele>650.0</ele><time>2026-05-02T14:09:15.26Z</time></trkpt><trkpt lat="44.4264765" lon="10.8093648"><ele>649.2</ele><time>2026-05-02T14:09:16.206Z</time></trkpt><trkpt lat="44.4265524" lon="10.8094523"><ele>648.4</ele><time>2026-05-02T14:09:17.221Z</time></trkpt><trkpt lat="44.4266288" lon="10.8095391"><ele>647.5999999999999</ele><time>2026-05-02T14:09:18.232Z</time></trkpt><trkpt lat="44.4267044" lon="10.8096261"><ele>646.8</ele><time>2026-05-02T14:09:19.228Z</time></trkpt><trkpt lat="44.4267783" lon="10.8097133"><ele>646.0</ele><time>2026-05-02T14:09:20.225Z</time></trkpt><trkpt lat="44.4268519" lon="10.8097986"><ele>646.0</ele><time>2026-05-02T14:09:21.222Z</time></trkpt><trkpt lat="44.426926" lon="10.8098823"><ele>646.0</ele><time>2026-05-02T14:09:22.235Z</time></trkpt><trkpt lat="44.4269992" lon="10.8099671"><ele>646.0</ele><time>2026-05-02T14:09:23.227Z</time></trkpt><trkpt lat="44.4270698" lon="10.8100488"><ele>646.0</ele><time>2026-05-02T14:09:24.23Z</time></trkpt><trkpt lat="44.4271385" lon="10.8101281"><ele>646.0</ele><time>2026-05-02T14:09:25.263Z</time></trkpt><trkpt lat="44.4272086" lon="10.8102088"><ele>646.1999999999999</ele><time>2026-05-02T14:09:26.231Z</time></trkpt><trkpt lat="44.4272795" lon="10.8102919"><ele>646.4</ele><time>2026-05-02T14:09:27.252Z</time></trkpt><trkpt lat="44.4273518" lon="10.810377"><ele>646.6</ele><time>2026-05-02T14:09:28.235Z</time></trkpt><trkpt lat="44.4274264" lon="10.8104637"><ele>646.8</ele><time>2026-05-02T14:09:29.254Z</time></trkpt><trkpt lat="44.427502" lon="10.8105513"><ele>647.0</ele><time>2026-05-02T14:09:30.23Z</time></trkpt><trkpt lat="44.4275788" lon="10.8106385"><ele>647.0</ele><time>2026-05-02T14:09:31.243Z</time></trkpt><trkpt lat="44.4276581" lon="10.8107233"><ele>647.0</ele><time>2026-05-02T14:09:32.242Z</time></trkpt><trkpt lat="44.4277422" lon="10.8108047"><ele>647.0</ele><time>2026-05-02T14:09:33.231Z</time></trkpt><trkpt lat="44.4278296" lon="10.8108831"><ele>647.0</ele><time>2026-05-02T14:09:34.241Z</time></trkpt><trkpt lat="44.4279222" lon="10.8109569"><ele>647.0</ele><time>2026-05-02T14:09:35.253Z</time></trkpt><trkpt lat="44.42802" lon="10.8110213"><ele>646.6</ele><time>2026-05-02T14:09:36.232Z</time></trkpt><trkpt lat="44.4281179" lon="10.8110698"><ele>646.2</ele><time>2026-05-02T14:09:37.218Z</time></trkpt><trkpt lat="44.4282143" lon="10.8111052"><ele>645.8</ele><time>2026-05-02T14:09:38.215Z</time></trkpt><trkpt lat="44.4283088" lon="10.8111286"><ele>645.4</ele><time>2026-05-02T14:09:39.213Z</time></trkpt><trkpt lat="44.4283986" lon="10.8111506"><ele>645.0</ele><time>2026-05-02T14:09:40.235Z</time></trkpt><trkpt lat="44.4284819" lon="10.8111569"><ele>645.0</ele><time>2026-05-02T14:09:41.246Z</time></trkpt><trkpt lat="44.4285655" lon="10.8111602"><ele>645.0</ele><time>2026-05-02T14:09:42.276Z</time></trkpt><trkpt lat="44.4286421" lon="10.8111625"><ele>645.0</ele><time>2026-05-02T14:09:43.247Z</time></trkpt><trkpt lat="44.4287258" lon="10.8111621"><ele>645.0</ele><time>2026-05-02T14:09:44.236Z</time></trkpt><trkpt lat="44.4288078" lon="10.8111659"><ele>645.0</ele><time>2026-05-02T14:09:45.233Z</time></trkpt><trkpt lat="44.4288939" lon="10.81118"><ele>645.0</ele><time>2026-05-02T14:09:46.218Z</time></trkpt><trkpt lat="44.4289828" lon="10.8112082"><ele>643.6</ele><time>2026-05-02T14:09:47.253Z</time></trkpt><trkpt lat="44.4290689" lon="10.8112347"><ele>642.2</ele><time>2026-05-02T14:09:48.233Z</time></trkpt><trkpt lat="44.4291539" lon="10.8112919"><ele>640.8</ele><time>2026-05-02T14:09:49.238Z</time></trkpt><trkpt lat="44.4292374" lon="10.8113404"><ele>639.4</ele><time>2026-05-02T14:09:50.239Z</time></trkpt><trkpt lat="44.4293148" lon="10.8114266"><ele>638.0</ele><time>2026-05-02T14:09:51.234Z</time></trkpt><trkpt lat="44.429359" lon="10.8115236"><ele>638.0</ele><time>2026-05-02T14:09:52.25Z</time></trkpt><trkpt lat="44.4293837" lon="10.811634"><ele>638.0</ele><time>2026-05-02T14:09:53.235Z</time></trkpt><trkpt lat="44.4293888" lon="10.8117576"><ele>638.0</ele><time>2026-05-02T14:09:54.246Z</time></trkpt><trkpt lat="44.4293829" lon="10.8118964"><ele>638.0</ele><time>2026-05-02T14:09:55.243Z</time></trkpt><trkpt lat="44.4293759" lon="10.8120385"><ele>638.0</ele><time>2026-05-02T14:09:56.241Z</time></trkpt><trkpt lat="44.4293808" lon="10.8121864"><ele>637.4</ele><time>2026-05-02T14:09:57.23Z</time></trkpt><trkpt lat="44.4294154" lon="10.8123371"><ele>636.8</ele><time>2026-05-02T14:09:58.243Z</time></trkpt><trkpt lat="44.4294537" lon="10.8124759"><ele>636.2</ele><time>2026-05-02T14:09:59.229Z</time></trkpt><trkpt lat="44.429511" lon="10.8126031"><ele>635.6</ele><time>2026-05-02T14:10:00.236Z</time></trkpt><trkpt lat="44.4295829" lon="10.8127226"><ele>635.0</ele><time>2026-05-02T14:10:01.239Z</time></trkpt><trkpt lat="44.4296551" lon="10.8128223"><ele>633.8333333333333</ele><time>2026-05-02T14:10:02.242Z</time></trkpt><trkpt lat="44.4297276" lon="10.8129032"><ele>632.6666666666666</ele><time>2026-05-02T14:10:03.242Z</time></trkpt><trkpt lat="44.4297863" lon="10.8129734"><ele>631.5</ele><time>2026-05-02T14:10:04.228Z</time></trkpt><trkpt lat="44.4298396" lon="10.813029"><ele>630.3333333333334</ele><time>2026-05-02T14:10:05.274Z</time></trkpt><trkpt lat="44.4299132" lon="10.8130821"><ele>629.1666666666667</ele><time>2026-05-02T14:10:07.245Z</time></trkpt><trkpt lat="44.4299799" lon="10.813118"><ele>628.0</ele><time>2026-05-02T14:10:28.272Z</time></trkpt><trkpt lat="44.4299165" lon="10.8131953"><ele>628.0</ele><time>2026-05-02T14:10:37.253Z</time></trkpt><trkpt lat="44.4298158" lon="10.8131823"><ele>628.0</ele><time>2026-05-02T14:10:39.205Z</time></trkpt><trkpt lat="44.4297409" lon="10.8131666"><ele>628.0</ele><time>2026-05-02T14:10:41.211Z</time></trkpt><trkpt lat="44.4297127" lon="10.8132524"><ele>628.0</ele><time>2026-05-02T14:10:44.237Z</time></trkpt><trkpt lat="44.4297548" lon="10.8133465"><ele>628.0</ele><time>2026-05-02T14:10:47.246Z</time></trkpt><trkpt lat="44.4296914" lon="10.8133898"><ele>628.0</ele><time>2026-05-02T14:10:49.21Z</time></trkpt><trkpt lat="44.4295851" lon="10.8134059"><ele>630.5</ele><time>2026-05-02T14:10:51.244Z</time></trkpt><trkpt lat="44.4295175" lon="10.8134438"><ele>633.0</ele><time>2026-05-02T14:10:53.188Z</time></trkpt><trkpt lat="44.4295591" lon="10.813517"><ele>635.5</ele><time>2026-05-02T14:10:55.212Z</time></trkpt><trkpt lat="44.4296623" lon="10.813597"><ele>638.0</ele><time>2026-05-02T14:10:57.225Z</time></trkpt><trkpt lat="44.4297141" lon="10.8136471"><ele>640.5</ele><time>2026-05-02T14:10:58.252Z</time></trkpt><trkpt lat="44.4297928" lon="10.8137302"><ele>643.0</ele><time>2026-05-02T14:11:00.237Z</time></trkpt><trkpt lat="44.4298816" lon="10.8138097"><ele>644.6666666666667</ele><time>2026-05-02T14:11:02.217Z</time></trkpt><trkpt lat="44.4299687" lon="10.8138425"><ele>646.3333333333334</ele><time>2026-05-02T14:11:04.232Z</time></trkpt><trkpt lat="44.4300721" lon="10.8138622"><ele>648.0</ele><time>2026-05-02T14:11:06.212Z</time></trkpt><trkpt lat="44.430173" lon="10.8139009"><ele>649.6666666666666</ele><time>2026-05-02T14:11:08.228Z</time></trkpt><trkpt lat="44.4302296" lon="10.8139552"><ele>651.3333333333333</ele><time>2026-05-02T14:11:10.243Z</time></trkpt><trkpt lat="44.4303033" lon="10.8140008"><ele>653.0</ele><time>2026-05-02T14:11:19.225Z</time></trkpt><trkpt lat="44.430429" lon="10.8140357"><ele>648.8</ele><time>2026-05-02T14:11:31.252Z</time></trkpt><trkpt lat="44.4305234" lon="10.8139917"><ele>644.5999999999999</ele><time>2026-05-02T14:11:34.238Z</time></trkpt><trkpt lat="44.4306038" lon="10.8140031"><ele>640.4000000000001</ele><time>2026-05-02T14:11:36.245Z</time></trkpt><trkpt lat="44.4306889" lon="10.814067"><ele>636.2</ele><time>2026-05-02T14:11:38.202Z</time></trkpt><trkpt lat="44.430756" lon="10.8141575"><ele>632.0</ele><time>2026-05-02T14:11:40.249Z</time></trkpt><trkpt lat="44.4308249" lon="10.8142425"><ele>632.0</ele><time>2026-05-02T14:11:42.288Z</time></trkpt><trkpt lat="44.4308907" lon="10.8143186"><ele>632.0</ele><time>2026-05-02T14:11:45.225Z</time></trkpt><trkpt lat="44.4309815" lon="10.8143124"><ele>632.0</ele><time>2026-05-02T14:11:47.258Z</time></trkpt><trkpt lat="44.4310679" lon="10.8143196"><ele>632.0</ele><time>2026-05-02T14:11:49.222Z</time></trkpt><trkpt lat="44.431168" lon="10.8143769"><ele>632.0</ele><time>2026-05-02T14:11:51.228Z</time></trkpt><trkpt lat="44.4312707" lon="10.8144723"><ele>633.6666666666666</ele><time>2026-05-02T14:11:53.241Z</time></trkpt><trkpt lat="44.4313225" lon="10.8145359"><ele>635.3333333333333</ele><time>2026-05-02T14:11:54.289Z</time></trkpt><trkpt lat="44.4313778" lon="10.8146161"><ele>637.0</ele><time>2026-05-02T14:11:55.213Z</time></trkpt><trkpt lat="44.4314289" lon="10.8146827"><ele>638.6666666666666</ele><time>2026-05-02T14:11:56.234Z</time></trkpt><trkpt lat="44.4314959" lon="10.8147383"><ele>640.3333333333334</ele><time>2026-05-02T14:11:57.224Z</time></trkpt><trkpt lat="44.4315961" lon="10.8148231"><ele>642.0</ele><time>2026-05-02T14:11:59.222Z</time></trkpt><trkpt lat="44.4316902" lon="10.8148904"><ele>642.0</ele><time>2026-05-02T14:12:01.238Z</time></trkpt><trkpt lat="44.4317627" lon="10.81494"><ele>642.0</ele><time>2026-05-02T14:12:03.211Z</time></trkpt><trkpt lat="44.4318282" lon="10.8149882"><ele>642.0</ele><time>2026-05-02T14:12:05.267Z</time></trkpt><trkpt lat="44.4318908" lon="10.8150537"><ele>642.0</ele><time>2026-05-02T14:12:07.248Z</time></trkpt><trkpt lat="44.4319851" lon="10.8151149"><ele>642.0</ele><time>2026-05-02T14:12:09.255Z</time></trkpt><trkpt lat="44.4320565" lon="10.8151682"><ele>642.0</ele><time>2026-05-02T14:12:11.206Z</time></trkpt><trkpt lat="44.4321208" lon="10.8152287"><ele>641.6</ele><time>2026-05-02T14:12:13.217Z</time></trkpt><trkpt lat="44.4322218" lon="10.8152558"><ele>641.2</ele><time>2026-05-02T14:12:15.212Z</time></trkpt><trkpt lat="44.4323179" lon="10.8153253"><ele>640.8</ele><time>2026-05-02T14:12:17.248Z</time></trkpt><trkpt lat="44.4323954" lon="10.8153978"><ele>640.4</ele><time>2026-05-02T14:12:19.264Z</time></trkpt><trkpt lat="44.432477" lon="10.8154845"><ele>640.0</ele><time>2026-05-02T14:12:21.247Z</time></trkpt><trkpt lat="44.4325609" lon="10.8155735"><ele>640.0</ele><time>2026-05-02T14:12:23.234Z</time></trkpt><trkpt lat="44.4326198" lon="10.8157054"><ele>640.0</ele><time>2026-05-02T14:12:25.244Z</time></trkpt><trkpt lat="44.4326268" lon="10.8158403"><ele>640.0</ele><time>2026-05-02T14:12:27.246Z</time></trkpt><trkpt lat="44.4326318" lon="10.815977"><ele>640.0</ele><time>2026-05-02T14:12:29.231Z</time></trkpt><trkpt lat="44.4326797" lon="10.8160793"><ele>640.0</ele><time>2026-05-02T14:12:31.215Z</time></trkpt><trkpt lat="44.4327306" lon="10.8161831"><ele>643.6666666666667</ele><time>2026-05-02T14:12:33.203Z</time></trkpt><trkpt lat="44.4327556" lon="10.8163043"><ele>647.3333333333334</ele><time>2026-05-02T14:12:35.225Z</time></trkpt><trkpt lat="44.4327753" lon="10.8164381"><ele>651.0</ele><time>2026-05-02T14:12:37.264Z</time></trkpt><trkpt lat="44.4327697" lon="10.8165775"><ele>654.6666666666666</ele><time>2026-05-02T14:12:39.244Z</time></trkpt><trkpt lat="44.432805" lon="10.8166744"><ele>658.3333333333333</ele><time>2026-05-02T14:12:41.246Z</time></trkpt><trkpt lat="44.4328445" lon="10.8167517"><ele>662.0</ele><time>2026-05-02T14:12:43.235Z</time></trkpt><trkpt lat="44.4328726" lon="10.8168489"><ele>662.2857142857143</ele><time>2026-05-02T14:12:45.21Z</time></trkpt><trkpt lat="44.4329032" lon="10.8169447"><ele>662.5714285714286</ele><time>2026-05-02T14:12:47.234Z</time></trkpt><trkpt lat="44.4329138" lon="10.8170461"><ele>662.8571428571429</ele><time>2026-05-02T14:12:49.223Z</time></trkpt><trkpt lat="44.4329053" lon="10.8171337"><ele>663.1428571428571</ele><time>2026-05-02T14:12:51.194Z</time></trkpt><trkpt lat="44.4328873" lon="10.8172288"><ele>663.4285714285714</ele><time>2026-05-02T14:12:53.191Z</time></trkpt><trkpt lat="44.4328608" lon="10.8173492"><ele>663.7142857142857</ele><time>2026-05-02T14:12:55.19Z</time></trkpt><trkpt lat="44.4328467" lon="10.8174502"><ele>664.0</ele><time>2026-05-02T14:12:57.276Z</time></trkpt><trkpt lat="44.4328117" lon="10.8175851"><ele>660.75</ele><time>2026-05-02T14:12:59.236Z</time></trkpt><trkpt lat="44.4327782" lon="10.8177189"><ele>657.5</ele><time>2026-05-02T14:13:01.205Z</time></trkpt><trkpt lat="44.432702" lon="10.8178567"><ele>654.25</ele><time>2026-05-02T14:13:03.212Z</time></trkpt><trkpt lat="44.4326378" lon="10.8179981"><ele>651.0</ele><time>2026-05-02T14:13:05.221Z</time></trkpt><trkpt lat="44.4325964" lon="10.8181386"><ele>651.0</ele><time>2026-05-02T14:13:07.251Z</time></trkpt><trkpt lat="44.4325933" lon="10.8182681"><ele>651.0</ele><time>2026-05-02T14:13:09.219Z</time></trkpt><trkpt lat="44.4325992" lon="10.818367"><ele>651.0</ele><time>2026-05-02T14:13:10.244Z</time></trkpt><trkpt lat="44.4325998" lon="10.8185095"><ele>651.0</ele><time>2026-05-02T14:13:12.245Z</time></trkpt><trkpt lat="44.4326168" lon="10.818645"><ele>651.0</ele><time>2026-05-02T14:13:14.213Z</time></trkpt><trkpt lat="44.4326621" lon="10.8187719"><ele>651.4</ele><time>2026-05-02T14:13:16.233Z</time></trkpt><trkpt lat="44.4326779" lon="10.8189017"><ele>651.8</ele><time>2026-05-02T14:13:18.239Z</time></trkpt><trkpt lat="44.4327141" lon="10.8190427"><ele>652.1999999999999</ele><time>2026-05-02T14:13:20.259Z</time></trkpt><trkpt lat="44.4327879" lon="10.8191492"><ele>652.5999999999999</ele><time>2026-05-02T14:13:22.242Z</time></trkpt><trkpt lat="44.432834" lon="10.8192104"><ele>653.0</ele><time>2026-05-02T14:13:23.235Z</time></trkpt><trkpt lat="44.4329087" lon="10.8193185"><ele>653.0</ele><time>2026-05-02T14:13:25.244Z</time></trkpt><trkpt lat="44.4329535" lon="10.8193876"><ele>653.0</ele><time>2026-05-02T14:13:26.205Z</time></trkpt><trkpt lat="44.4330375" lon="10.8195591"><ele>653.0</ele><time>2026-05-02T14:13:28.239Z</time></trkpt><trkpt lat="44.4330809" lon="10.8196534"><ele>653.0</ele><time>2026-05-02T14:13:29.234Z</time></trkpt><trkpt lat="44.4331232" lon="10.8197455"><ele>653.0</ele><time>2026-05-02T14:13:30.242Z</time></trkpt><trkpt lat="44.433177" lon="10.8198618"><ele>647.6666666666666</ele><time>2026-05-02T14:13:32.3Z</time></trkpt><trkpt lat="44.4332557" lon="10.8199025"><ele>642.3333333333333</ele><time>2026-05-02T14:13:34.221Z</time></trkpt><trkpt lat="44.4333226" lon="10.8199573"><ele>637.0</ele><time>2026-05-02T14:13:36.231Z</time></trkpt><trkpt lat="44.4333821" lon="10.8200164"><ele>631.6666666666666</ele><time>2026-05-02T14:13:46.203Z</time></trkpt><trkpt lat="44.4334671" lon="10.820062"><ele>626.3333333333334</ele><time>2026-05-02T14:13:48.242Z</time></trkpt><trkpt lat="44.4335866" lon="10.8200887"><ele>621.0</ele><time>2026-05-02T14:13:50.244Z</time></trkpt><trkpt lat="44.4336996" lon="10.820128"><ele>618.6</ele><time>2026-05-02T14:13:52.25Z</time></trkpt><trkpt lat="44.4338175" lon="10.8202048"><ele>616.2</ele><time>2026-05-02T14:13:54.253Z</time></trkpt><trkpt lat="44.4338867" lon="10.8202535"><ele>613.8</ele><time>2026-05-02T14:13:55.239Z</time></trkpt><trkpt lat="44.4339452" lon="10.8203041"><ele>611.4</ele><time>2026-05-02T14:13:56.253Z</time></trkpt><trkpt lat="44.4340406" lon="10.8204045"><ele>609.0</ele><time>2026-05-02T14:13:58.23Z</time></trkpt><trkpt lat="44.4341135" lon="10.8205541"><ele>609.0</ele><time>2026-05-02T14:14:00.246Z</time></trkpt><trkpt lat="44.43415" lon="10.8206348"><ele>609.0</ele><time>2026-05-02T14:14:01.242Z</time></trkpt><trkpt lat="44.434184" lon="10.820715"><ele>609.0</ele><time>2026-05-02T14:14:02.255Z</time></trkpt><trkpt lat="44.4342139" lon="10.8207962"><ele>609.0</ele><time>2026-05-02T14:14:03.22Z</time></trkpt><trkpt lat="44.4342519" lon="10.820867"><ele>609.0</ele><time>2026-05-02T14:14:04.248Z</time></trkpt><trkpt lat="44.4343442" lon="10.8209788"><ele>609.0</ele><time>2026-05-02T14:14:06.208Z</time></trkpt><trkpt lat="44.4344428" lon="10.8210683"><ele>606.5</ele><time>2026-05-02T14:14:08.216Z</time></trkpt><trkpt lat="44.4345112" lon="10.8211165"><ele>604.0</ele><time>2026-05-02T14:14:09.241Z</time></trkpt><trkpt lat="44.434569" lon="10.8211582"><ele>601.5</ele><time>2026-05-02T14:14:10.246Z</time></trkpt><trkpt lat="44.4346272" lon="10.8212087"><ele>599.0</ele><time>2026-05-02T14:14:11.218Z</time></trkpt><trkpt lat="44.4346839" lon="10.821254"><ele>596.5</ele><time>2026-05-02T14:14:12.232Z</time></trkpt><trkpt lat="44.4347394" lon="10.8212971"><ele>594.0</ele><time>2026-05-02T14:14:13.237Z</time></trkpt><trkpt lat="44.4348433" lon="10.8213705"><ele>594.0</ele><time>2026-05-02T14:14:15.219Z</time></trkpt><trkpt lat="44.4349175" lon="10.8214859"><ele>594.0</ele><time>2026-05-02T14:14:17.217Z</time></trkpt><trkpt lat="44.434987" lon="10.8216012"><ele>594.0</ele><time>2026-05-02T14:14:19.228Z</time></trkpt><trkpt lat="44.4350737" lon="10.8216412"><ele>594.0</ele><time>2026-05-02T14:14:21.256Z</time></trkpt><trkpt lat="44.435161" lon="10.821595"><ele>594.0</ele><time>2026-05-02T14:14:23.237Z</time></trkpt><trkpt lat="44.4352255" lon="10.8216031"><ele>594.0</ele><time>2026-05-02T14:14:25.218Z</time></trkpt><trkpt lat="44.4352828" lon="10.8217212"><ele>594.0</ele><time>2026-05-02T14:14:27.21Z</time></trkpt><trkpt lat="44.4353096" lon="10.8218227"><ele>594.0</ele><time>2026-05-02T14:14:28.198Z</time></trkpt><trkpt lat="44.4353271" lon="10.8219213"><ele>594.0</ele><time>2026-05-02T14:14:29.198Z</time></trkpt><trkpt lat="44.4353358" lon="10.8220104"><ele>594.0</ele><time>2026-05-02T14:14:30.188Z</time></trkpt><trkpt lat="44.4353061" lon="10.8221764"><ele>594.0</ele><time>2026-05-02T14:14:32.185Z</time></trkpt><trkpt lat="44.4352721" lon="10.8222509"><ele>591.0</ele><time>2026-05-02T14:14:33.204Z</time></trkpt><trkpt lat="44.435177" lon="10.8223385"><ele>588.0</ele><time>2026-05-02T14:14:35.216Z</time></trkpt><trkpt lat="44.4350997" lon="10.8223933"><ele>585.0</ele><time>2026-05-02T14:14:37.245Z</time></trkpt><trkpt lat="44.4351145" lon="10.8225279"><ele>582.0</ele><time>2026-05-02T14:14:40.23Z</time></trkpt><trkpt lat="44.4352085" lon="10.8225866"><ele>579.0</ele><time>2026-05-02T14:14:42.249Z</time></trkpt><trkpt lat="44.4353025" lon="10.8226292"><ele>575.8333333333334</ele><time>2026-05-02T14:14:44.204Z</time></trkpt><trkpt lat="44.435371" lon="10.8226507"><ele>572.6666666666666</ele><time>2026-05-02T14:14:47.208Z</time></trkpt><trkpt lat="44.4354709" lon="10.8226292"><ele>569.5</ele><time>2026-05-02T14:14:49.25Z</time></trkpt><trkpt lat="44.4355433" lon="10.8226049"><ele>566.3333333333333</ele><time>2026-05-02T14:14:50.213Z</time></trkpt><trkpt lat="44.4356254" lon="10.8225669"><ele>563.1666666666666</ele><time>2026-05-02T14:14:51.228Z</time></trkpt><trkpt lat="44.4357064" lon="10.8225133"><ele>560.0</ele><time>2026-05-02T14:14:52.221Z</time></trkpt><trkpt lat="44.4357979" lon="10.8224532"><ele>559.6</ele><time>2026-05-02T14:14:53.251Z</time></trkpt><trkpt lat="44.4358936" lon="10.822381"><ele>559.2</ele><time>2026-05-02T14:14:54.24Z</time></trkpt><trkpt lat="44.4359866" lon="10.8223175"><ele>558.8</ele><time>2026-05-02T14:14:55.233Z</time></trkpt><trkpt lat="44.436081" lon="10.8222399"><ele>558.4</ele><time>2026-05-02T14:14:56.214Z</time></trkpt><trkpt lat="44.4361763" lon="10.8221616"><ele>558.0</ele><time>2026-05-02T14:14:57.23Z</time></trkpt><trkpt lat="44.4362716" lon="10.8220809"><ele>556.6666666666666</ele><time>2026-05-02T14:14:58.227Z</time></trkpt><trkpt lat="44.4363586" lon="10.8219982"><ele>555.3333333333334</ele><time>2026-05-02T14:14:59.232Z</time></trkpt><trkpt lat="44.4364427" lon="10.8219147"><ele>554.0</ele><time>2026-05-02T14:15:00.246Z</time></trkpt><trkpt lat="44.4365113" lon="10.8218485"><ele>552.6666666666667</ele><time>2026-05-02T14:15:01.251Z</time></trkpt><trkpt lat="44.4365725" lon="10.8217949"><ele>551.3333333333334</ele><time>2026-05-02T14:15:02.224Z</time></trkpt><trkpt lat="44.4366384" lon="10.8217617"><ele>550.0</ele><time>2026-05-02T14:15:03.233Z</time></trkpt><trkpt lat="44.4367058" lon="10.8217279"><ele>550.0</ele><time>2026-05-02T14:15:04.239Z</time></trkpt><trkpt lat="44.4367835" lon="10.8217333"><ele>550.0</ele><time>2026-05-02T14:15:05.239Z</time></trkpt><trkpt lat="44.4368574" lon="10.821745"><ele>550.0</ele><time>2026-05-02T14:15:06.246Z</time></trkpt><trkpt lat="44.4369318" lon="10.821767"><ele>550.0</ele><time>2026-05-02T14:15:07.234Z</time></trkpt><trkpt lat="44.4369964" lon="10.821795"><ele>550.0</ele><time>2026-05-02T14:15:08.291Z</time></trkpt><trkpt lat="44.4370985" lon="10.8217909"><ele>550.0</ele><time>2026-05-02T14:15:10.206Z</time></trkpt><trkpt lat="44.4372006" lon="10.8217493"><ele>548.2857142857143</ele><time>2026-05-02T14:15:12.226Z</time></trkpt><trkpt lat="44.4373081" lon="10.8217526"><ele>546.5714285714286</ele><time>2026-05-02T14:15:14.271Z</time></trkpt><trkpt lat="44.4373711" lon="10.8217482"><ele>544.8571428571429</ele><time>2026-05-02T14:15:15.238Z</time></trkpt><trkpt lat="44.4374349" lon="10.8217671"><ele>543.1428571428571</ele><time>2026-05-02T14:15:16.218Z</time></trkpt><trkpt lat="44.4374991" lon="10.8217968"><ele>541.4285714285714</ele><time>2026-05-02T14:15:17.201Z</time></trkpt><trkpt lat="44.4375695" lon="10.8218239"><ele>539.7142857142858</ele><time>2026-05-02T14:15:18.21Z</time></trkpt><trkpt lat="44.4376386" lon="10.8218502"><ele>538.0</ele><time>2026-05-02T14:15:19.238Z</time></trkpt><trkpt lat="44.4377064" lon="10.8218732"><ele>537.6</ele><time>2026-05-02T14:15:20.298Z</time></trkpt><trkpt lat="44.4377699" lon="10.8218989"><ele>537.1999999999999</ele><time>2026-05-02T14:15:21.231Z</time></trkpt><trkpt lat="44.437881" lon="10.8219548"><ele>536.8</ele><time>2026-05-02T14:15:23.224Z</time></trkpt><trkpt lat="44.4379948" lon="10.8219947"><ele>536.4</ele><time>2026-05-02T14:15:25.242Z</time></trkpt><trkpt lat="44.4380886" lon="10.8220069"><ele>536.0</ele><time>2026-05-02T14:15:27.233Z</time></trkpt><trkpt lat="44.4381797" lon="10.8220179"><ele>534.3333333333333</ele><time>2026-05-02T14:15:29.212Z</time></trkpt><trkpt lat="44.4382552" lon="10.822032"><ele>532.6666666666666</ele><time>2026-05-02T14:15:31.219Z</time></trkpt><trkpt lat="44.4383423" lon="10.8220625"><ele>531.0</ele><time>2026-05-02T14:15:33.246Z</time></trkpt><trkpt lat="44.4384379" lon="10.8220767"><ele>529.3333333333334</ele><time>2026-05-02T14:15:35.199Z</time></trkpt><trkpt lat="44.4385328" lon="10.8220796"><ele>527.6666666666667</ele><time>2026-05-02T14:15:37.237Z</time></trkpt><trkpt lat="44.4386181" lon="10.8221021"><ele>526.0</ele><time>2026-05-02T14:15:39.218Z</time></trkpt><trkpt lat="44.4387131" lon="10.8221286"><ele>524.5</ele><time>2026-05-02T14:15:41.181Z</time></trkpt><trkpt lat="44.4388103" lon="10.822156"><ele>523.0</ele><time>2026-05-02T14:15:43.244Z</time></trkpt><trkpt lat="44.4389155" lon="10.8221634"><ele>521.5</ele><time>2026-05-02T14:15:45.22Z</time></trkpt><trkpt lat="44.4390099" lon="10.8221623"><ele>520.0</ele><time>2026-05-02T14:15:47.247Z</time></trkpt><trkpt lat="44.4390936" lon="10.8221488"><ele>518.5</ele><time>2026-05-02T14:15:50.186Z</time></trkpt><trkpt lat="44.4391558" lon="10.8221299"><ele>517.0</ele><time>2026-05-02T14:17:49.236Z</time></trkpt><trkpt lat="44.4392271" lon="10.8221315"><ele>517.0</ele><time>2026-05-02T14:17:51.217Z</time></trkpt><trkpt lat="44.4393471" lon="10.8221101"><ele>517.0</ele><time>2026-05-02T14:17:53.194Z</time></trkpt><trkpt lat="44.4394226" lon="10.8220859"><ele>517.0</ele><time>2026-05-02T14:17:54.238Z</time></trkpt><trkpt lat="44.4395072" lon="10.8220573"><ele>517.0</ele><time>2026-05-02T14:17:55.245Z</time></trkpt><trkpt lat="44.4395943" lon="10.8220284"><ele>517.0</ele><time>2026-05-02T14:17:56.257Z</time></trkpt><trkpt lat="44.4396831" lon="10.8220014"><ele>515.8333333333334</ele><time>2026-05-02T14:17:57.258Z</time></trkpt><trkpt lat="44.4397715" lon="10.821978"><ele>514.6666666666667</ele><time>2026-05-02T14:17:58.215Z</time></trkpt><trkpt lat="44.4398598" lon="10.821961"><ele>513.5</ele><time>2026-05-02T14:17:59.258Z</time></trkpt><trkpt lat="44.4399466" lon="10.8219438"><ele>512.3333333333334</ele><time>2026-05-02T14:18:00.245Z</time></trkpt><trkpt lat="44.4400313" lon="10.821925"><ele>511.1666666666667</ele><time>2026-05-02T14:18:01.216Z</time></trkpt><trkpt lat="44.4401133" lon="10.8219059"><ele>510.0</ele><time>2026-05-02T14:18:02.229Z</time></trkpt><trkpt lat="44.4401902" lon="10.8218853"><ele>510.0</ele><time>2026-05-02T14:18:03.248Z</time></trkpt><trkpt lat="44.4402606" lon="10.8218574"><ele>510.0</ele><time>2026-05-02T14:18:04.224Z</time></trkpt><trkpt lat="44.4403265" lon="10.8218303"><ele>510.0</ele><time>2026-05-02T14:18:05.242Z</time></trkpt><trkpt lat="44.440395" lon="10.8218065"><ele>510.0</ele><time>2026-05-02T14:18:06.243Z</time></trkpt><trkpt lat="44.4404678" lon="10.821796"><ele>510.0</ele><time>2026-05-02T14:18:07.207Z</time></trkpt><trkpt lat="44.4405905" lon="10.8218091"><ele>510.0</ele><time>2026-05-02T14:18:09.253Z</time></trkpt><trkpt lat="44.4406674" lon="10.821849"><ele>510.0</ele><time>2026-05-02T14:18:10.198Z</time></trkpt><trkpt lat="44.4407514" lon="10.8218951"><ele>510.0</ele><time>2026-05-02T14:18:11.219Z</time></trkpt><trkpt lat="44.4408218" lon="10.8219441"><ele>510.0</ele><time>2026-05-02T14:18:12.214Z</time></trkpt><trkpt lat="44.4408867" lon="10.8219984"><ele>510.0</ele><time>2026-05-02T14:18:13.231Z</time></trkpt><trkpt lat="44.440948" lon="10.8220684"><ele>510.0</ele><time>2026-05-02T14:18:14.236Z</time></trkpt><trkpt lat="44.4410106" lon="10.8221538"><ele>510.0</ele><time>2026-05-02T14:18:15.233Z</time></trkpt><trkpt lat="44.4410693" lon="10.8222458"><ele>510.0</ele><time>2026-05-02T14:18:16.23Z</time></trkpt><trkpt lat="44.4411288" lon="10.8223366"><ele>510.0</ele><time>2026-05-02T14:18:17.253Z</time></trkpt><trkpt lat="44.4411897" lon="10.822422"><ele>510.0</ele><time>2026-05-02T14:18:18.226Z</time></trkpt><trkpt lat="44.4412495" lon="10.822491"><ele>510.0</ele><time>2026-05-02T14:18:19.23Z</time></trkpt><trkpt lat="44.4413024" lon="10.8225514"><ele>510.0</ele><time>2026-05-02T14:18:20.234Z</time></trkpt><trkpt lat="44.4413741" lon="10.822668"><ele>510.0</ele><time>2026-05-02T14:18:22.236Z</time></trkpt><trkpt lat="44.4414214" lon="10.8228287"><ele>508.8</ele><time>2026-05-02T14:18:24.282Z</time></trkpt><trkpt lat="44.4414568" lon="10.8229883"><ele>507.6</ele><time>2026-05-02T14:18:26.217Z</time></trkpt><trkpt lat="44.4414891" lon="10.8231469"><ele>506.4</ele><time>2026-05-02T14:18:28.247Z</time></trkpt><trkpt lat="44.4415173" lon="10.8233128"><ele>505.2</ele><time>2026-05-02T14:18:30.234Z</time></trkpt><trkpt lat="44.4415333" lon="10.8233993"><ele>504.0</ele><time>2026-05-02T14:18:31.233Z</time></trkpt><trkpt lat="44.4415503" lon="10.8234911"><ele>502.2</ele><time>2026-05-02T14:18:32.226Z</time></trkpt><trkpt lat="44.4415688" lon="10.8235819"><ele>500.4</ele><time>2026-05-02T14:18:33.247Z</time></trkpt><trkpt lat="44.4416038" lon="10.8237395"><ele>498.6</ele><time>2026-05-02T14:18:35.239Z</time></trkpt><trkpt lat="44.4416366" lon="10.823869"><ele>496.8</ele><time>2026-05-02T14:18:37.216Z</time></trkpt><trkpt lat="44.4416589" lon="10.8240044"><ele>495.0</ele><time>2026-05-02T14:18:39.226Z</time></trkpt><trkpt lat="44.4416668" lon="10.8241518"><ele>495.0</ele><time>2026-05-02T14:18:41.222Z</time></trkpt><trkpt lat="44.4416636" lon="10.8242958"><ele>495.0</ele><time>2026-05-02T14:18:43.196Z</time></trkpt><trkpt lat="44.441637" lon="10.8244109"><ele>495.0</ele><time>2026-05-02T14:18:45.213Z</time></trkpt><trkpt lat="44.4415979" lon="10.8245069"><ele>495.0</ele><time>2026-05-02T14:18:47.191Z</time></trkpt><trkpt lat="44.4415589" lon="10.8246071"><ele>495.0</ele><time>2026-05-02T14:18:49.199Z</time></trkpt><trkpt lat="44.4415229" lon="10.8247033"><ele>495.0</ele><time>2026-05-02T14:18:51.196Z</time></trkpt><trkpt lat="44.4414933" lon="10.8247843"><ele>493.8333333333333</ele><time>2026-05-02T14:18:53.217Z</time></trkpt><trkpt lat="44.4414561" lon="10.8248607"><ele>492.66666666666663</ele><time>2026-05-02T14:18:55.212Z</time></trkpt><trkpt lat="44.4414085" lon="10.8249499"><ele>491.5</ele><time>2026-05-02T14:18:57.194Z</time></trkpt><trkpt lat="44.441346" lon="10.8250611"><ele>490.3333333333333</ele><time>2026-05-02T14:18:59.205Z</time></trkpt><trkpt lat="44.4413067" lon="10.8251577"><ele>489.16666666666663</ele><time>2026-05-02T14:19:01.231Z</time></trkpt><trkpt lat="44.4412886" lon="10.8252557"><ele>488.0</ele><time>2026-05-02T14:19:03.236Z</time></trkpt><trkpt lat="44.4412995" lon="10.8253497"><ele>485.59999999999997</ele><time>2026-05-02T14:19:05.242Z</time></trkpt><trkpt lat="44.4413188" lon="10.8254514"><ele>483.19999999999993</ele><time>2026-05-02T14:19:07.233Z</time></trkpt><trkpt lat="44.4413595" lon="10.8255551"><ele>480.8</ele><time>2026-05-02T14:19:09.241Z</time></trkpt><trkpt lat="44.4414218" lon="10.8256939"><ele>478.4</ele><time>2026-05-02T14:19:11.236Z</time></trkpt><trkpt lat="44.4414685" lon="10.8258233"><ele>476.0</ele><time>2026-05-02T14:19:13.237Z</time></trkpt><trkpt lat="44.4415164" lon="10.8259475"><ele>473.66666666666663</ele><time>2026-05-02T14:19:15.235Z</time></trkpt><trkpt lat="44.4415611" lon="10.8260767"><ele>471.3333333333333</ele><time>2026-05-02T14:19:17.244Z</time></trkpt><trkpt lat="44.4416025" lon="10.8261879"><ele>469.0</ele><time>2026-05-02T14:19:19.242Z</time></trkpt><trkpt lat="44.4416469" lon="10.8262762"><ele>466.66666666666663</ele><time>2026-05-02T14:19:21.24Z</time></trkpt><trkpt lat="44.4416908" lon="10.8263784"><ele>464.3333333333333</ele><time>2026-05-02T14:19:23.22Z</time></trkpt><trkpt lat="44.441725" lon="10.8264895"><ele>462.0</ele><time>2026-05-02T14:19:25.241Z</time></trkpt><trkpt lat="44.4417618" lon="10.8265944"><ele>462.0</ele><time>2026-05-02T14:19:27.218Z</time></trkpt><trkpt lat="44.4417971" lon="10.826701"><ele>462.00000000000006</ele><time>2026-05-02T14:19:29.205Z</time></trkpt><trkpt lat="44.4418482" lon="10.8268194"><ele>462.00000000000006</ele><time>2026-05-02T14:19:31.236Z</time></trkpt><trkpt lat="44.4419163" lon="10.8269131"><ele>462.0</ele><time>2026-05-02T14:19:33.264Z</time></trkpt><trkpt lat="44.4419811" lon="10.8270042"><ele>462.0</ele><time>2026-05-02T14:19:35.23Z</time></trkpt><trkpt lat="44.4420437" lon="10.8271059"><ele>460.6666666666667</ele><time>2026-05-02T14:19:37.205Z</time></trkpt><trkpt lat="44.4420972" lon="10.8272002"><ele>459.33333333333337</ele><time>2026-05-02T14:19:39.201Z</time></trkpt><trkpt lat="44.4421393" lon="10.8272668"><ele>458.0</ele><time>2026-05-02T14:19:41.238Z</time></trkpt><trkpt lat="44.4421818" lon="10.8273476"><ele>456.6666666666667</ele><time>2026-05-02T14:19:44.207Z</time></trkpt><trkpt lat="44.4421597" lon="10.8274373"><ele>455.33333333333337</ele><time>2026-05-02T14:19:47.239Z</time></trkpt><trkpt lat="44.4421" lon="10.8275182"><ele>454.0</ele><time>2026-05-02T14:19:50.251Z</time></trkpt><trkpt lat="44.4420199" lon="10.8275751"><ele>453.00000000000006</ele><time>2026-05-02T14:19:53.231Z</time></trkpt><trkpt lat="44.4419453" lon="10.8276393"><ele>452.0</ele><time>2026-05-02T14:19:55.218Z</time></trkpt><trkpt lat="44.4418758" lon="10.8276993"><ele>451.0</ele><time>2026-05-02T14:19:57.228Z</time></trkpt><trkpt lat="44.4418451" lon="10.8278276"><ele>450.0</ele><time>2026-05-02T14:20:00.227Z</time></trkpt><trkpt lat="44.4418553" lon="10.8279424"><ele>449.00000000000006</ele><time>2026-05-02T14:20:02.249Z</time></trkpt><trkpt lat="44.4418555" lon="10.8280453"><ele>448.0</ele><time>2026-05-02T14:20:04.22Z</time></trkpt><trkpt lat="44.4418649" lon="10.8281583"><ele>445.57142857142856</ele><time>2026-05-02T14:20:07.209Z</time></trkpt><trkpt lat="44.4418778" lon="10.8282451"><ele>443.1428571428571</ele><time>2026-05-02T14:20:09.231Z</time></trkpt><trkpt lat="44.4418897" lon="10.8283759"><ele>440.7142857142857</ele><time>2026-05-02T14:20:12.214Z</time></trkpt><trkpt lat="44.4419141" lon="10.828477"><ele>438.2857142857143</ele><time>2026-05-02T14:20:15.248Z</time></trkpt><trkpt lat="44.4419789" lon="10.8285163"><ele>435.85714285714283</ele><time>2026-05-02T14:20:22.241Z</time></trkpt><trkpt lat="44.4420433" lon="10.8285328"><ele>433.42857142857144</ele><time>2026-05-02T14:20:26.227Z</time></trkpt><trkpt lat="44.4420817" lon="10.8286169"><ele>431.0</ele><time>2026-05-02T14:20:35.235Z</time></trkpt><trkpt lat="44.4421455" lon="10.8286412"><ele>429.3333333333333</ele><time>2026-05-02T14:20:40.223Z</time></trkpt><trkpt lat="44.4422131" lon="10.8286786"><ele>427.66666666666663</ele><time>2026-05-02T14:20:43.194Z</time></trkpt><trkpt lat="44.4422816" lon="10.8287468"><ele>426.0</ele><time>2026-05-02T14:20:46.225Z</time></trkpt><trkpt lat="44.4423484" lon="10.8288314"><ele>424.33333333333337</ele><time>2026-05-02T14:20:48.265Z</time></trkpt><trkpt lat="44.4424111" lon="10.8289023"><ele>422.6666666666667</ele><time>2026-05-02T14:20:50.25Z</time></trkpt><trkpt lat="44.4424802" lon="10.8289494"><ele>421.0</ele><time>2026-05-02T14:20:52.219Z</time></trkpt><trkpt lat="44.4425426" lon="10.8289915"><ele>421.00000000000006</ele><time>2026-05-02T14:20:54.206Z</time></trkpt><trkpt lat="44.4426116" lon="10.8290351"><ele>421.0</ele><time>2026-05-02T14:20:56.221Z</time></trkpt><trkpt lat="44.4426958" lon="10.829071"><ele>421.0</ele><time>2026-05-02T14:20:58.225Z</time></trkpt><trkpt lat="44.4427722" lon="10.8291105"><ele>421.0</ele><time>2026-05-02T14:21:00.226Z</time></trkpt><trkpt lat="44.442831" lon="10.8291463"><ele>421.00000000000006</ele><time>2026-05-02T14:21:02.251Z</time></trkpt><trkpt lat="44.4429194" lon="10.8292257"><ele>421.0</ele><time>2026-05-02T14:21:05.206Z</time></trkpt><trkpt lat="44.4429946" lon="10.8292941"><ele>420.50000000000006</ele><time>2026-05-02T14:21:07.233Z</time></trkpt><trkpt lat="44.4430624" lon="10.829366"><ele>420.0</ele><time>2026-05-02T14:21:09.203Z</time></trkpt><trkpt lat="44.4431086" lon="10.829437"><ele>419.5</ele><time>2026-05-02T14:21:12.229Z</time></trkpt><trkpt lat="44.443064" lon="10.8295507"><ele>419.0</ele><time>2026-05-02T14:21:14.253Z</time></trkpt><trkpt lat="44.4430293" lon="10.8296289"><ele>418.50000000000006</ele><time>2026-05-02T14:21:15.236Z</time></trkpt><trkpt lat="44.4429892" lon="10.8297054"><ele>418.0</ele><time>2026-05-02T14:21:16.25Z</time></trkpt><trkpt lat="44.4429465" lon="10.8297845"><ele>416.57142857142856</ele><time>2026-05-02T14:21:17.269Z</time></trkpt><trkpt lat="44.4429031" lon="10.8298644"><ele>415.1428571428571</ele><time>2026-05-02T14:21:18.247Z</time></trkpt><trkpt lat="44.442863" lon="10.8299436"><ele>413.7142857142857</ele><time>2026-05-02T14:21:19.237Z</time></trkpt><trkpt lat="44.4428304" lon="10.8300252"><ele>412.2857142857143</ele><time>2026-05-02T14:21:20.254Z</time></trkpt><trkpt lat="44.4428006" lon="10.8301119"><ele>410.8571428571429</ele><time>2026-05-02T14:21:21.253Z</time></trkpt><trkpt lat="44.4427739" lon="10.8302079"><ele>409.42857142857144</ele><time>2026-05-02T14:21:22.241Z</time></trkpt><trkpt lat="44.4427529" lon="10.8303135"><ele>408.0</ele><time>2026-05-02T14:21:23.237Z</time></trkpt><trkpt lat="44.4427359" lon="10.8304196"><ele>406.4</ele><time>2026-05-02T14:21:24.234Z</time></trkpt><trkpt lat="44.442725" lon="10.8305193"><ele>404.79999999999995</ele><time>2026-05-02T14:21:25.256Z</time></trkpt><trkpt lat="44.4427189" lon="10.8306093"><ele>403.2</ele><time>2026-05-02T14:21:26.231Z</time></trkpt><trkpt lat="44.4427404" lon="10.8307517"><ele>401.6</ele><time>2026-05-02T14:21:28.248Z</time></trkpt><trkpt lat="44.4428252" lon="10.8308135"><ele>400.0</ele><time>2026-05-02T14:21:30.234Z</time></trkpt><trkpt lat="44.4429459" lon="10.8307849"><ele>400.50000000000006</ele><time>2026-05-02T14:21:32.247Z</time></trkpt><trkpt lat="44.4430147" lon="10.8307583"><ele>401.0</ele><time>2026-05-02T14:21:33.24Z</time></trkpt><trkpt lat="44.4430826" lon="10.8307472"><ele>401.5</ele><time>2026-05-02T14:21:34.262Z</time></trkpt><trkpt lat="44.4431458" lon="10.8307647"><ele>402.0</ele><time>2026-05-02T14:21:35.223Z</time></trkpt><trkpt lat="44.4432348" lon="10.8308786"><ele>402.50000000000006</ele><time>2026-05-02T14:21:37.233Z</time></trkpt><trkpt lat="44.4432534" lon="10.8309659"><ele>403.0</ele><time>2026-05-02T14:21:38.243Z</time></trkpt><trkpt lat="44.4432591" lon="10.8310627"><ele>400.59999999999997</ele><time>2026-05-02T14:21:39.231Z</time></trkpt><trkpt lat="44.4432576" lon="10.8311632"><ele>398.2</ele><time>2026-05-02T14:21:40.242Z</time></trkpt><trkpt lat="44.4432517" lon="10.8312684"><ele>395.8</ele><time>2026-05-02T14:21:41.254Z</time></trkpt><trkpt lat="44.4432479" lon="10.8313645"><ele>393.4</ele><time>2026-05-02T14:21:42.274Z</time></trkpt><trkpt lat="44.4432803" lon="10.831523"><ele>391.0</ele><time>2026-05-02T14:21:44.238Z</time></trkpt><trkpt lat="44.4433795" lon="10.8316253"><ele>391.00000000000006</ele><time>2026-05-02T14:21:46.169Z</time></trkpt><trkpt lat="44.4434632" lon="10.8317251"><ele>391.0</ele><time>2026-05-02T14:21:48.18Z</time></trkpt><trkpt lat="44.4434704" lon="10.8318743"><ele>391.0</ele><time>2026-05-02T14:21:50.186Z</time></trkpt><trkpt lat="44.4434434" lon="10.8319659"><ele>391.0</ele><time>2026-05-02T14:21:51.18Z</time></trkpt><trkpt lat="44.4434089" lon="10.8320642"><ele>391.00000000000006</ele><time>2026-05-02T14:21:52.196Z</time></trkpt><trkpt lat="44.4433743" lon="10.832171"><ele>391.0</ele><time>2026-05-02T14:21:53.198Z</time></trkpt><trkpt lat="44.443341" lon="10.8322865"><ele>389.00000000000006</ele><time>2026-05-02T14:21:54.187Z</time></trkpt><trkpt lat="44.4433124" lon="10.832403"><ele>387.0</ele><time>2026-05-02T14:21:55.185Z</time></trkpt><trkpt lat="44.4432937" lon="10.8325187"><ele>385.0</ele><time>2026-05-02T14:21:56.19Z</time></trkpt><trkpt lat="44.4432891" lon="10.8326409"><ele>383.0</ele><time>2026-05-02T14:21:57.186Z</time></trkpt><trkpt lat="44.4432957" lon="10.832769"><ele>381.0</ele><time>2026-05-02T14:21:58.184Z</time></trkpt><trkpt lat="44.4433026" lon="10.8328884"><ele>379.0</ele><time>2026-05-02T14:21:59.199Z</time></trkpt><trkpt lat="44.4433069" lon="10.8329898"><ele>377.5714285714286</ele><time>2026-05-02T14:22:00.193Z</time></trkpt><trkpt lat="44.4433114" lon="10.8330836"><ele>376.14285714285717</ele><time>2026-05-02T14:22:01.183Z</time></trkpt><trkpt lat="44.4433129" lon="10.8331723"><ele>374.7142857142857</ele><time>2026-05-02T14:22:02.199Z</time></trkpt><trkpt lat="44.4433163" lon="10.8332625"><ele>373.28571428571433</ele><time>2026-05-02T14:22:03.202Z</time></trkpt><trkpt lat="44.4433223" lon="10.8333544"><ele>371.85714285714283</ele><time>2026-05-02T14:22:04.177Z</time></trkpt><trkpt lat="44.4433318" lon="10.8334477"><ele>370.42857142857144</ele><time>2026-05-02T14:22:05.21Z</time></trkpt><trkpt lat="44.4433653" lon="10.833611"><ele>369.0</ele><time>2026-05-02T14:22:07.245Z</time></trkpt><trkpt lat="44.4434514" lon="10.8337309"><ele>367.42857142857144</ele><time>2026-05-02T14:22:09.205Z</time></trkpt><trkpt lat="44.4435112" lon="10.8337637"><ele>365.85714285714283</ele><time>2026-05-02T14:22:10.235Z</time></trkpt><trkpt lat="44.4435759" lon="10.8337695"><ele>364.28571428571433</ele><time>2026-05-02T14:22:11.219Z</time></trkpt><trkpt lat="44.4436428" lon="10.8337435"><ele>362.7142857142857</ele><time>2026-05-02T14:22:12.201Z</time></trkpt><trkpt lat="44.443699" lon="10.8336966"><ele>361.14285714285717</ele><time>2026-05-02T14:22:13.195Z</time></trkpt><trkpt lat="44.4437497" lon="10.8336438"><ele>359.5714285714286</ele><time>2026-05-02T14:22:14.202Z</time></trkpt><trkpt lat="44.4438327" lon="10.8335561"><ele>358.0</ele><time>2026-05-02T14:22:16.216Z</time></trkpt><trkpt lat="44.4438868" lon="10.8334918"><ele>359.5</ele><time>2026-05-02T14:22:18.23Z</time></trkpt><trkpt lat="44.443934" lon="10.8334296"><ele>361.0</ele><time>2026-05-02T14:22:24.217Z</time></trkpt><trkpt lat="44.4440079" lon="10.8333666"><ele>362.5</ele><time>2026-05-02T14:22:30.187Z</time></trkpt><trkpt lat="44.4440677" lon="10.8333173"><ele>364.0</ele><time>2026-05-02T14:22:32.221Z</time></trkpt><trkpt lat="44.4441321" lon="10.8332735"><ele>365.5</ele><time>2026-05-02T14:22:34.218Z</time></trkpt><trkpt lat="44.4442346" lon="10.8332219"><ele>367.0</ele><time>2026-05-02T14:22:36.213Z</time></trkpt><trkpt lat="44.4442991" lon="10.8332067"><ele>367.0</ele><time>2026-05-02T14:22:37.228Z</time></trkpt><trkpt lat="44.4443673" lon="10.8332145"><ele>367.0</ele><time>2026-05-02T14:22:38.18Z</time></trkpt><trkpt lat="44.4444317" lon="10.8332373"><ele>367.0</ele><time>2026-05-02T14:22:39.224Z</time></trkpt><trkpt lat="44.444501" lon="10.8332757"><ele>367.0</ele><time>2026-05-02T14:22:40.261Z</time></trkpt><trkpt lat="44.444569" lon="10.8333252"><ele>367.0</ele><time>2026-05-02T14:22:41.228Z</time></trkpt><trkpt lat="44.444626" lon="10.8333779"><ele>367.0</ele><time>2026-05-02T14:22:42.213Z</time></trkpt><trkpt lat="44.4447075" lon="10.8334654"><ele>363.5</ele><time>2026-05-02T14:22:44.203Z</time></trkpt><trkpt lat="44.4447728" lon="10.8335106"><ele>360.0</ele><time>2026-05-02T14:22:46.223Z</time></trkpt><trkpt lat="44.4448471" lon="10.833539"><ele>356.5</ele><time>2026-05-02T14:22:48.229Z</time></trkpt><trkpt lat="44.4449447" lon="10.8335511"><ele>353.0</ele><time>2026-05-02T14:22:50.21Z</time></trkpt><trkpt lat="44.4450106" lon="10.8335392"><ele>349.5</ele><time>2026-05-02T14:22:51.192Z</time></trkpt><trkpt lat="44.445082" lon="10.8335185"><ele>346.0</ele><time>2026-05-02T14:22:52.226Z</time></trkpt><trkpt lat="44.4451521" lon="10.8334898"><ele>346.8333333333333</ele><time>2026-05-02T14:22:53.225Z</time></trkpt><trkpt lat="44.4452296" lon="10.8334552"><ele>347.66666666666663</ele><time>2026-05-02T14:22:54.222Z</time></trkpt><trkpt lat="44.4453069" lon="10.8334216"><ele>348.5</ele><time>2026-05-02T14:22:55.214Z</time></trkpt><trkpt lat="44.4453858" lon="10.8333876"><ele>349.3333333333333</ele><time>2026-05-02T14:22:56.194Z</time></trkpt><trkpt lat="44.4454645" lon="10.8333561"><ele>350.1666666666667</ele><time>2026-05-02T14:22:57.254Z</time></trkpt><trkpt lat="44.4455435" lon="10.8333246"><ele>351.0</ele><time>2026-05-02T14:22:58.239Z</time></trkpt><trkpt lat="44.4456235" lon="10.833299"><ele>351.00000000000006</ele><time>2026-05-02T14:22:59.233Z</time></trkpt><trkpt lat="44.4457014" lon="10.8332754"><ele>351.0</ele><time>2026-05-02T14:23:00.207Z</time></trkpt><trkpt lat="44.4457733" lon="10.8332491"><ele>351.0</ele><time>2026-05-02T14:23:01.197Z</time></trkpt><trkpt lat="44.4458397" lon="10.8332216"><ele>351.0</ele><time>2026-05-02T14:23:02.183Z</time></trkpt><trkpt lat="44.4459003" lon="10.8331941"><ele>351.0</ele><time>2026-05-02T14:23:03.192Z</time></trkpt><trkpt lat="44.4459759" lon="10.8331561"><ele>351.00000000000006</ele><time>2026-05-02T14:23:05.242Z</time></trkpt><trkpt lat="44.4460424" lon="10.83315"><ele>351.0</ele><time>2026-05-02T14:23:14.203Z</time></trkpt><trkpt lat="44.4461091" lon="10.8331365"><ele>351.0</ele><time>2026-05-02T14:23:16.205Z</time></trkpt><trkpt lat="44.4461793" lon="10.833089"><ele>351.0</ele><time>2026-05-02T14:23:18.188Z</time></trkpt><trkpt lat="44.446279" lon="10.8330476"><ele>351.0</ele><time>2026-05-02T14:23:20.221Z</time></trkpt><trkpt lat="44.4463972" lon="10.8329773"><ele>351.0</ele><time>2026-05-02T14:23:22.206Z</time></trkpt><trkpt lat="44.4465159" lon="10.8329279"><ele>351.0</ele><time>2026-05-02T14:23:24.215Z</time></trkpt><trkpt lat="44.4466362" lon="10.8328995"><ele>349.7142857142857</ele><time>2026-05-02T14:23:26.201Z</time></trkpt><trkpt lat="44.4467014" lon="10.8329021"><ele>348.42857142857144</ele><time>2026-05-02T14:23:27.213Z</time></trkpt><trkpt lat="44.4467719" lon="10.8329176"><ele>347.1428571428571</ele><time>2026-05-02T14:23:28.205Z</time></trkpt><trkpt lat="44.4468476" lon="10.8329423"><ele>345.8571428571429</ele><time>2026-05-02T14:23:29.203Z</time></trkpt><trkpt lat="44.446921" lon="10.8329663"><ele>344.57142857142856</ele><time>2026-05-02T14:23:30.222Z</time></trkpt><trkpt lat="44.4469928" lon="10.8329946"><ele>343.2857142857143</ele><time>2026-05-02T14:23:31.222Z</time></trkpt><trkpt lat="44.4470615" lon="10.8330228"><ele>342.0</ele><time>2026-05-02T14:23:32.236Z</time></trkpt><trkpt lat="44.4471286" lon="10.8330403"><ele>341.6</ele><time>2026-05-02T14:23:33.199Z</time></trkpt><trkpt lat="44.4471941" lon="10.8330533"><ele>341.20000000000005</ele><time>2026-05-02T14:23:34.207Z</time></trkpt><trkpt lat="44.447311" lon="10.8330835"><ele>340.8</ele><time>2026-05-02T14:23:36.224Z</time></trkpt><trkpt lat="44.4474255" lon="10.8331074"><ele>340.4</ele><time>2026-05-02T14:23:38.179Z</time></trkpt><trkpt lat="44.4475514" lon="10.8331384"><ele>340.0</ele><time>2026-05-02T14:23:40.225Z</time></trkpt><trkpt lat="44.4476155" lon="10.8331537"><ele>340.0</ele><time>2026-05-02T14:23:41.223Z</time></trkpt><trkpt lat="44.4476775" lon="10.8331692"><ele>340.0</ele><time>2026-05-02T14:23:42.221Z</time></trkpt><trkpt lat="44.4477906" lon="10.8332066"><ele>340.0</ele><time>2026-05-02T14:23:44.217Z</time></trkpt><trkpt lat="44.44789" lon="10.833285"><ele>340.0</ele><time>2026-05-02T14:23:46.196Z</time></trkpt><trkpt lat="44.4479776" lon="10.8333999"><ele>340.0</ele><time>2026-05-02T14:23:48.223Z</time></trkpt><trkpt lat="44.4480643" lon="10.8335239"><ele>338.3333333333333</ele><time>2026-05-02T14:23:50.21Z</time></trkpt><trkpt lat="44.4481123" lon="10.8335873"><ele>336.66666666666663</ele><time>2026-05-02T14:23:51.184Z</time></trkpt><trkpt lat="44.4482307" lon="10.8336635"><ele>335.0</ele><time>2026-05-02T14:23:53.222Z</time></trkpt><trkpt lat="44.448299" lon="10.8336911"><ele>333.3333333333333</ele><time>2026-05-02T14:23:54.267Z</time></trkpt><trkpt lat="44.448364" lon="10.8337117"><ele>331.6666666666667</ele><time>2026-05-02T14:23:55.239Z</time></trkpt><trkpt lat="44.4484265" lon="10.8337418"><ele>330.0</ele><time>2026-05-02T14:23:56.218Z</time></trkpt><trkpt lat="44.4485281" lon="10.8338418"><ele>330.0</ele><time>2026-05-02T14:23:58.232Z</time></trkpt><trkpt lat="44.4485743" lon="10.8339048"><ele>330.0</ele><time>2026-05-02T14:23:59.188Z</time></trkpt><trkpt lat="44.4486245" lon="10.8339627"><ele>330.0</ele><time>2026-05-02T14:24:00.227Z</time></trkpt><trkpt lat="44.4487254" lon="10.8340178"><ele>330.0</ele><time>2026-05-02T14:24:02.23Z</time></trkpt><trkpt lat="44.4488154" lon="10.8340001"><ele>330.0</ele><time>2026-05-02T14:24:04.225Z</time></trkpt><trkpt lat="44.4489019" lon="10.8339611"><ele>330.0</ele><time>2026-05-02T14:24:06.243Z</time></trkpt><trkpt lat="44.4489842" lon="10.8339411"><ele>329.8</ele><time>2026-05-02T14:24:08.217Z</time></trkpt><trkpt lat="44.4490617" lon="10.833981"><ele>329.6</ele><time>2026-05-02T14:24:10.208Z</time></trkpt><trkpt lat="44.4491618" lon="10.834006"><ele>329.4</ele><time>2026-05-02T14:24:12.191Z</time></trkpt><trkpt lat="44.4492656" lon="10.8340266"><ele>329.2</ele><time>2026-05-02T14:24:14.187Z</time></trkpt><trkpt lat="44.4493562" lon="10.8340177"><ele>329.0</ele><time>2026-05-02T14:24:16.223Z</time></trkpt><trkpt lat="44.4494511" lon="10.8339796"><ele>329.0</ele><time>2026-05-02T14:24:19.205Z</time></trkpt><trkpt lat="44.4495486" lon="10.8339586"><ele>329.0</ele><time>2026-05-02T14:24:21.221Z</time></trkpt><trkpt lat="44.4496804" lon="10.8340077"><ele>329.0</ele><time>2026-05-02T14:24:23.215Z</time></trkpt><trkpt lat="44.4497415" lon="10.8340465"><ele>329.0</ele><time>2026-05-02T14:24:24.21Z</time></trkpt><trkpt lat="44.4498592" lon="10.8340892"><ele>329.0</ele><time>2026-05-02T14:24:26.207Z</time></trkpt><trkpt lat="44.4499803" lon="10.834095"><ele>328.0</ele><time>2026-05-02T14:24:28.242Z</time></trkpt><trkpt lat="44.4500932" lon="10.834073"><ele>327.0</ele><time>2026-05-02T14:24:30.205Z</time></trkpt><trkpt lat="44.4501993" lon="10.8340408"><ele>326.0</ele><time>2026-05-02T14:24:32.23Z</time></trkpt><trkpt lat="44.4503131" lon="10.834037"><ele>325.0</ele><time>2026-05-02T14:24:34.229Z</time></trkpt><trkpt lat="44.4503941" lon="10.8340022"><ele>324.0</ele><time>2026-05-02T14:24:36.216Z</time></trkpt><trkpt lat="44.4504943" lon="10.8339574"><ele>322.4</ele><time>2026-05-02T14:24:38.192Z</time></trkpt><trkpt lat="44.4506069" lon="10.8339163"><ele>320.79999999999995</ele><time>2026-05-02T14:24:40.238Z</time></trkpt><trkpt lat="44.4506876" lon="10.8338926"><ele>319.20000000000005</ele><time>2026-05-02T14:24:42.226Z</time></trkpt><trkpt lat="44.4507588" lon="10.8338651"><ele>317.6</ele><time>2026-05-02T14:24:44.215Z</time></trkpt><trkpt lat="44.450863" lon="10.8338423"><ele>316.0</ele><time>2026-05-02T14:24:46.182Z</time></trkpt><trkpt lat="44.4509428" lon="10.8338234"><ele>316.0</ele><time>2026-05-02T14:24:48.206Z</time></trkpt><trkpt lat="44.451037" lon="10.83379"><ele>316.0</ele><time>2026-05-02T14:24:50.222Z</time></trkpt><trkpt lat="44.4511021" lon="10.8337704"><ele>316.0</ele><time>2026-05-02T14:24:51.194Z</time></trkpt><trkpt lat="44.45117" lon="10.8337525"><ele>316.0</ele><time>2026-05-02T14:24:52.251Z</time></trkpt><trkpt lat="44.4512769" lon="10.8337197"><ele>316.0</ele><time>2026-05-02T14:24:54.195Z</time></trkpt><trkpt lat="44.4513896" lon="10.833743"><ele>315.40000000000003</ele><time>2026-05-02T14:24:56.198Z</time></trkpt><trkpt lat="44.4515111" lon="10.8337946"><ele>314.8</ele><time>2026-05-02T14:24:58.218Z</time></trkpt><trkpt lat="44.4515719" lon="10.8338176"><ele>314.20000000000005</ele><time>2026-05-02T14:24:59.188Z</time></trkpt><trkpt lat="44.451635" lon="10.8338289"><ele>313.6</ele><time>2026-05-02T14:25:00.185Z</time></trkpt><trkpt lat="44.4517544" lon="10.8338535"><ele>313.0</ele><time>2026-05-02T14:25:02.241Z</time></trkpt><trkpt lat="44.4518652" lon="10.8339002"><ele>313.0</ele><time>2026-05-02T14:25:04.215Z</time></trkpt><trkpt lat="44.4519839" lon="10.8339633"><ele>313.0</ele><time>2026-05-02T14:25:06.238Z</time></trkpt><trkpt lat="44.4520468" lon="10.8339781"><ele>313.0</ele><time>2026-05-02T14:25:07.211Z</time></trkpt><trkpt lat="44.4521141" lon="10.8339749"><ele>313.0</ele><time>2026-05-02T14:25:08.229Z</time></trkpt><trkpt lat="44.4521805" lon="10.8339529"><ele>313.0</ele><time>2026-05-02T14:25:09.209Z</time></trkpt><trkpt lat="44.452243" lon="10.8339226"><ele>313.0</ele><time>2026-05-02T14:25:10.207Z</time></trkpt><trkpt lat="44.4523403" lon="10.8338371"><ele>311.0</ele><time>2026-05-02T14:25:12.18Z</time></trkpt><trkpt lat="44.4524269" lon="10.8337315"><ele>309.0</ele><time>2026-05-02T14:25:14.213Z</time></trkpt><trkpt lat="44.4524654" lon="10.8336474"><ele>307.0</ele><time>2026-05-02T14:25:16.192Z</time></trkpt><trkpt lat="44.4524874" lon="10.833546"><ele>305.0</ele><time>2026-05-02T14:25:18.225Z</time></trkpt><trkpt lat="44.4525495" lon="10.8334972"><ele>303.0</ele><time>2026-05-02T14:25:21.222Z</time></trkpt><trkpt lat="44.4526934" lon="10.8335338"><ele>303.0</ele><time>2026-05-02T14:25:26.217Z</time></trkpt><trkpt lat="44.4527837" lon="10.8336057"><ele>303.0</ele><time>2026-05-02T14:25:28.263Z</time></trkpt><trkpt lat="44.4528808" lon="10.8336306"><ele>303.0</ele><time>2026-05-02T14:25:30.217Z</time></trkpt><trkpt lat="44.4530035" lon="10.8336305"><ele>303.0</ele><time>2026-05-02T14:25:32.222Z</time></trkpt><trkpt lat="44.4530672" lon="10.8336268"><ele>303.0</ele><time>2026-05-02T14:25:33.192Z</time></trkpt><trkpt lat="44.4531387" lon="10.8336171"><ele>302.2857142857143</ele><time>2026-05-02T14:25:34.228Z</time></trkpt><trkpt lat="44.453206" lon="10.8336083"><ele>301.57142857142856</ele><time>2026-05-02T14:25:35.23Z</time></trkpt><trkpt lat="44.4532749" lon="10.8336098"><ele>300.85714285714283</ele><time>2026-05-02T14:25:36.287Z</time></trkpt><trkpt lat="44.4533463" lon="10.8336262"><ele>300.1428571428571</ele><time>2026-05-02T14:25:37.217Z</time></trkpt><trkpt lat="44.4534202" lon="10.8336453"><ele>299.4285714285714</ele><time>2026-05-02T14:25:38.179Z</time></trkpt><trkpt lat="44.4534885" lon="10.8336704"><ele>298.7142857142857</ele><time>2026-05-02T14:25:39.225Z</time></trkpt><trkpt lat="44.4535542" lon="10.8336984"><ele>298.0</ele><time>2026-05-02T14:25:40.211Z</time></trkpt><trkpt lat="44.4536213" lon="10.8337257"><ele>298.0</ele><time>2026-05-02T14:25:41.203Z</time></trkpt><trkpt lat="44.4536846" lon="10.8337564"><ele>298.0</ele><time>2026-05-02T14:25:42.24Z</time></trkpt><trkpt lat="44.4537483" lon="10.8337827"><ele>298.0</ele><time>2026-05-02T14:25:43.235Z</time></trkpt><trkpt lat="44.4538142" lon="10.8337922"><ele>298.0</ele><time>2026-05-02T14:25:44.22Z</time></trkpt><trkpt lat="44.4538802" lon="10.8337862"><ele>298.0</ele><time>2026-05-02T14:25:45.227Z</time></trkpt><trkpt lat="44.4539438" lon="10.8337673"><ele>298.0</ele><time>2026-05-02T14:25:46.17Z</time></trkpt><trkpt lat="44.4540508" lon="10.8336886"><ele>296.8</ele><time>2026-05-02T14:25:48.232Z</time></trkpt><trkpt lat="44.4541536" lon="10.8336261"><ele>295.6</ele><time>2026-05-02T14:25:50.213Z</time></trkpt><trkpt lat="44.4542165" lon="10.8336077"><ele>294.4</ele><time>2026-05-02T14:25:51.196Z</time></trkpt><trkpt lat="44.4542823" lon="10.833605"><ele>293.2</ele><time>2026-05-02T14:25:52.227Z</time></trkpt><trkpt lat="44.4543978" lon="10.8335853"><ele>292.0</ele><time>2026-05-02T14:25:54.214Z</time></trkpt><trkpt lat="44.4544907" lon="10.8335876"><ele>292.0</ele><time>2026-05-02T14:25:56.232Z</time></trkpt><trkpt lat="44.4546023" lon="10.8336315"><ele>292.0</ele><time>2026-05-02T14:25:58.231Z</time></trkpt><trkpt lat="44.4546653" lon="10.8336327"><ele>292.0</ele><time>2026-05-02T14:25:59.182Z</time></trkpt><trkpt lat="44.454731" lon="10.8336325"><ele>292.0</ele><time>2026-05-02T14:26:00.184Z</time></trkpt><trkpt lat="44.454855" lon="10.8336006"><ele>292.0</ele><time>2026-05-02T14:26:02.177Z</time></trkpt><trkpt lat="44.4549108" lon="10.8335513"><ele>292.0</ele><time>2026-05-02T14:26:03.226Z</time></trkpt><trkpt lat="44.4549983" lon="10.8334431"><ele>293.16666666666663</ele><time>2026-05-02T14:26:05.256Z</time></trkpt><trkpt lat="44.4550469" lon="10.8333726"><ele>294.3333333333333</ele><time>2026-05-02T14:26:06.254Z</time></trkpt><trkpt lat="44.4550962" lon="10.8333142"><ele>295.5</ele><time>2026-05-02T14:26:07.231Z</time></trkpt><trkpt lat="44.4551544" lon="10.8332739"><ele>296.6666666666667</ele><time>2026-05-02T14:26:08.207Z</time></trkpt><trkpt lat="44.4552181" lon="10.8332542"><ele>297.83333333333337</ele><time>2026-05-02T14:26:09.251Z</time></trkpt><trkpt lat="44.4553414" lon="10.8332105"><ele>299.0</ele><time>2026-05-02T14:26:11.213Z</time></trkpt><trkpt lat="44.455408" lon="10.8331797"><ele>297.2857142857143</ele><time>2026-05-02T14:26:12.197Z</time></trkpt><trkpt lat="44.4554706" lon="10.8331415"><ele>295.57142857142856</ele><time>2026-05-02T14:26:13.227Z</time></trkpt><trkpt lat="44.4555315" lon="10.8331055"><ele>293.8571428571429</ele><time>2026-05-02T14:26:14.209Z</time></trkpt><trkpt lat="44.4555954" lon="10.833065"><ele>292.1428571428571</ele><time>2026-05-02T14:26:15.224Z</time></trkpt><trkpt lat="44.4556629" lon="10.833021"><ele>290.42857142857144</ele><time>2026-05-02T14:26:16.218Z</time></trkpt><trkpt lat="44.4557248" lon="10.832969"><ele>288.7142857142857</ele><time>2026-05-02T14:26:17.203Z</time></trkpt><trkpt lat="44.4557833" lon="10.8329154"><ele>287.0</ele><time>2026-05-02T14:26:18.233Z</time></trkpt><trkpt lat="44.4558802" lon="10.8328324"><ele>287.0</ele><time>2026-05-02T14:26:20.207Z</time></trkpt><trkpt lat="44.4559491" lon="10.8327541"><ele>287.0</ele><time>2026-05-02T14:26:22.198Z</time></trkpt><trkpt lat="44.4560212" lon="10.8327368"><ele>287.0</ele><time>2026-05-02T14:26:24.216Z</time></trkpt><trkpt lat="44.4561326" lon="10.8327499"><ele>287.0</ele><time>2026-05-02T14:26:26.244Z</time></trkpt><trkpt lat="44.4562407" lon="10.8327559"><ele>287.0</ele><time>2026-05-02T14:26:28.247Z</time></trkpt><trkpt lat="44.4563417" lon="10.8326974"><ele>287.4</ele><time>2026-05-02T14:26:30.201Z</time></trkpt><trkpt lat="44.4564332" lon="10.8326012"><ele>287.79999999999995</ele><time>2026-05-02T14:26:32.252Z</time></trkpt><trkpt lat="44.4565109" lon="10.8325054"><ele>288.2</ele><time>2026-05-02T14:26:34.22Z</time></trkpt><trkpt lat="44.4566042" lon="10.8324316"><ele>288.59999999999997</ele><time>2026-05-02T14:26:36.219Z</time></trkpt><trkpt lat="44.4566955" lon="10.832377"><ele>289.0</ele><time>2026-05-02T14:26:38.186Z</time></trkpt><trkpt lat="44.4567946" lon="10.8323347"><ele>289.0</ele><time>2026-05-02T14:26:40.244Z</time></trkpt><trkpt lat="44.4569064" lon="10.832288"><ele>289.0</ele><time>2026-05-02T14:26:42.211Z</time></trkpt><trkpt lat="44.4569889" lon="10.8322692"><ele>289.0</ele><time>2026-05-02T14:26:44.234Z</time></trkpt><trkpt lat="44.4570775" lon="10.8322821"><ele>289.0</ele><time>2026-05-02T14:26:54.182Z</time></trkpt><trkpt lat="44.4571424" lon="10.8323193"><ele>289.0</ele><time>2026-05-02T14:26:56.227Z</time></trkpt><trkpt lat="44.4572072" lon="10.8323637"><ele>289.0</ele><time>2026-05-02T14:26:58.198Z</time></trkpt><trkpt lat="44.4572666" lon="10.8324093"><ele>287.5</ele><time>2026-05-02T14:27:00.192Z</time></trkpt><trkpt lat="44.4573207" lon="10.8324569"><ele>286.0</ele><time>2026-05-02T14:27:03.236Z</time></trkpt><trkpt lat="44.4573984" lon="10.8325012"><ele>284.5</ele><time>2026-05-02T14:27:35.217Z</time></trkpt><trkpt lat="44.4575079" lon="10.8324966"><ele>283.0</ele><time>2026-05-02T14:27:37.2Z</time></trkpt><trkpt lat="44.4575838" lon="10.8324578"><ele>281.5</ele><time>2026-05-02T14:27:38.223Z</time></trkpt><trkpt lat="44.4576692" lon="10.832403"><ele>280.0</ele><time>2026-05-02T14:27:39.234Z</time></trkpt><trkpt lat="44.4577633" lon="10.8323403"><ele>280.0</ele><time>2026-05-02T14:27:40.18Z</time></trkpt><trkpt lat="44.457871" lon="10.8322707"><ele>280.0</ele><time>2026-05-02T14:27:41.181Z</time></trkpt><trkpt lat="44.4579897" lon="10.8321989"><ele>280.0</ele><time>2026-05-02T14:27:42.237Z</time></trkpt><trkpt lat="44.4581064" lon="10.832135"><ele>280.0</ele><time>2026-05-02T14:27:43.206Z</time></trkpt><trkpt lat="44.4582198" lon="10.8320791"><ele>279.4</ele><time>2026-05-02T14:27:44.239Z</time></trkpt><trkpt lat="44.4583298" lon="10.8320315"><ele>278.8</ele><time>2026-05-02T14:27:45.217Z</time></trkpt><trkpt lat="44.4584367" lon="10.8319915"><ele>278.2</ele><time>2026-05-02T14:27:46.25Z</time></trkpt><trkpt lat="44.4585384" lon="10.8319576"><ele>277.6</ele><time>2026-05-02T14:27:47.269Z</time></trkpt><trkpt lat="44.4586341" lon="10.8319304"><ele>277.0</ele><time>2026-05-02T14:27:48.239Z</time></trkpt><trkpt lat="44.4587258" lon="10.8319018"><ele>276.5</ele><time>2026-05-02T14:27:49.198Z</time></trkpt><trkpt lat="44.4588124" lon="10.8318529"><ele>276.0</ele><time>2026-05-02T14:27:50.224Z</time></trkpt><trkpt lat="44.4588979" lon="10.8317925"><ele>275.5</ele><time>2026-05-02T14:27:51.24Z</time></trkpt><trkpt lat="44.4589802" lon="10.8317331"><ele>275.0</ele><time>2026-05-02T14:27:52.224Z</time></trkpt><trkpt lat="44.4590496" lon="10.8316791"><ele>274.5</ele><time>2026-05-02T14:27:53.236Z</time></trkpt><trkpt lat="44.4591139" lon="10.8316245"><ele>274.0</ele><time>2026-05-02T14:27:54.204Z</time></trkpt><trkpt lat="44.4591728" lon="10.83157"><ele>274.0</ele><time>2026-05-02T14:27:55.228Z</time></trkpt><trkpt lat="44.459228" lon="10.8315166"><ele>274.0</ele><time>2026-05-02T14:27:56.23Z</time></trkpt><trkpt lat="44.4592812" lon="10.8314664"><ele>274.0</ele><time>2026-05-02T14:27:57.229Z</time></trkpt><trkpt lat="44.4593769" lon="10.8313726"><ele>274.0</ele><time>2026-05-02T14:27:59.221Z</time></trkpt><trkpt lat="44.4594591" lon="10.8312877"><ele>274.0</ele><time>2026-05-02T14:28:01.233Z</time></trkpt><trkpt lat="44.4595421" lon="10.8312068"><ele>274.0</ele><time>2026-05-02T14:28:03.201Z</time></trkpt><trkpt lat="44.4596147" lon="10.8311107"><ele>274.0</ele><time>2026-05-02T14:28:05.247Z</time></trkpt><trkpt lat="44.4596313" lon="10.8309873"><ele>274.0</ele><time>2026-05-02T14:28:07.22Z</time></trkpt><trkpt lat="44.459604" lon="10.8308491"><ele>274.0</ele><time>2026-05-02T14:28:09.228Z</time></trkpt><trkpt lat="44.4595756" lon="10.8307677"><ele>274.0</ele><time>2026-05-02T14:28:10.195Z</time></trkpt><trkpt lat="44.4595468" lon="10.8306882"><ele>274.0</ele><time>2026-05-02T14:28:11.199Z</time></trkpt><trkpt lat="44.4594977" lon="10.8305532"><ele>274.5</ele><time>2026-05-02T14:28:13.216Z</time></trkpt><trkpt lat="44.4594811" lon="10.830406"><ele>275.0</ele><time>2026-05-02T14:28:15.174Z</time></trkpt><trkpt lat="44.4594853" lon="10.8303035"><ele>275.5</ele><time>2026-05-02T14:28:16.213Z</time></trkpt><trkpt lat="44.459494" lon="10.8301835"><ele>276.0</ele><time>2026-05-02T14:28:17.223Z</time></trkpt><trkpt lat="44.4595014" lon="10.8300738"><ele>276.5</ele><time>2026-05-02T14:28:18.222Z</time></trkpt><trkpt lat="44.4595" lon="10.82997"><ele>277.0</ele><time>2026-05-02T14:28:19.243Z</time></trkpt><trkpt lat="44.4594865" lon="10.8298653"><ele>277.4</ele><time>2026-05-02T14:28:20.207Z</time></trkpt><trkpt lat="44.4594724" lon="10.8297568"><ele>277.79999999999995</ele><time>2026-05-02T14:28:21.228Z</time></trkpt><trkpt lat="44.4594322" lon="10.8296463"><ele>278.2</ele><time>2026-05-02T14:28:22.225Z</time></trkpt><trkpt lat="44.4593912" lon="10.8295421"><ele>278.59999999999997</ele><time>2026-05-02T14:28:23.195Z</time></trkpt><trkpt lat="44.4593567" lon="10.829463"><ele>279.0</ele><time>2026-05-02T14:28:24.209Z</time></trkpt><trkpt lat="44.4593126" lon="10.8292815"><ele>279.2</ele><time>2026-05-02T14:28:26.214Z</time></trkpt><trkpt lat="44.4592979" lon="10.8291659"><ele>279.4</ele><time>2026-05-02T14:28:27.211Z</time></trkpt><trkpt lat="44.4592848" lon="10.8290347"><ele>279.6</ele><time>2026-05-02T14:28:28.182Z</time></trkpt><trkpt lat="44.4592681" lon="10.8289036"><ele>279.8</ele><time>2026-05-02T14:28:29.239Z</time></trkpt><trkpt lat="44.4592504" lon="10.8287695"><ele>280.0</ele><time>2026-05-02T14:28:30.237Z</time></trkpt><trkpt lat="44.4592323" lon="10.8286381"><ele>280.0</ele><time>2026-05-02T14:28:31.208Z</time></trkpt><trkpt lat="44.4592154" lon="10.8285032"><ele>280.0</ele><time>2026-05-02T14:28:32.206Z</time></trkpt><trkpt lat="44.4592041" lon="10.8283738"><ele>280.0</ele><time>2026-05-02T14:28:33.202Z</time></trkpt><trkpt lat="44.4591971" lon="10.8282512"><ele>280.0</ele><time>2026-05-02T14:28:34.232Z</time></trkpt><trkpt lat="44.4591955" lon="10.8281303"><ele>280.0</ele><time>2026-05-02T14:28:35.254Z</time></trkpt><trkpt lat="44.4591966" lon="10.8280149"><ele>280.0</ele><time>2026-05-02T14:28:36.194Z</time></trkpt><trkpt lat="44.4591962" lon="10.827903"><ele>280.16666666666663</ele><time>2026-05-02T14:28:37.248Z</time></trkpt><trkpt lat="44.4591908" lon="10.8278007"><ele>280.3333333333333</ele><time>2026-05-02T14:28:38.234Z</time></trkpt><trkpt lat="44.4591756" lon="10.8277123"><ele>280.5</ele><time>2026-05-02T14:28:39.222Z</time></trkpt><trkpt lat="44.4591474" lon="10.827624"><ele>280.6666666666667</ele><time>2026-05-02T14:28:40.221Z</time></trkpt><trkpt lat="44.4591082" lon="10.8275355"><ele>280.83333333333337</ele><time>2026-05-02T14:28:41.202Z</time></trkpt><trkpt lat="44.459059" lon="10.8274401"><ele>281.0</ele><time>2026-05-02T14:28:42.257Z</time></trkpt><trkpt lat="44.4590094" lon="10.8273413"><ele>281.0</ele><time>2026-05-02T14:28:43.24Z</time></trkpt><trkpt lat="44.4589645" lon="10.8272433"><ele>281.0</ele><time>2026-05-02T14:28:44.216Z</time></trkpt><trkpt lat="44.4589193" lon="10.8271428"><ele>281.0</ele><time>2026-05-02T14:28:45.218Z</time></trkpt><trkpt lat="44.4588762" lon="10.8270485"><ele>281.0</ele><time>2026-05-02T14:28:46.174Z</time></trkpt><trkpt lat="44.4588316" lon="10.8269594"><ele>281.0</ele><time>2026-05-02T14:28:47.234Z</time></trkpt><trkpt lat="44.4587926" lon="10.8268698"><ele>281.0</ele><time>2026-05-02T14:28:48.227Z</time></trkpt><trkpt lat="44.458758" lon="10.826772"><ele>282.1666666666667</ele><time>2026-05-02T14:28:49.181Z</time></trkpt><trkpt lat="44.4587224" lon="10.8266538"><ele>283.33333333333337</ele><time>2026-05-02T14:28:50.219Z</time></trkpt><trkpt lat="44.4586878" lon="10.8265361"><ele>284.5</ele><time>2026-05-02T14:28:51.222Z</time></trkpt><trkpt lat="44.4586532" lon="10.8264267"><ele>285.6666666666667</ele><time>2026-05-02T14:28:52.256Z</time></trkpt><trkpt lat="44.4586173" lon="10.8263331"><ele>286.8333333333333</ele><time>2026-05-02T14:28:53.246Z</time></trkpt><trkpt lat="44.4585671" lon="10.8262355"><ele>288.0</ele><time>2026-05-02T14:28:54.225Z</time></trkpt><trkpt lat="44.4585144" lon="10.8261422"><ele>288.0</ele><time>2026-05-02T14:28:55.218Z</time></trkpt><trkpt lat="44.4584622" lon="10.8260464"><ele>288.0</ele><time>2026-05-02T14:28:56.229Z</time></trkpt><trkpt lat="44.4584239" lon="10.8259343"><ele>288.0</ele><time>2026-05-02T14:28:57.202Z</time></trkpt><trkpt lat="44.4583866" lon="10.825823"><ele>288.0</ele><time>2026-05-02T14:28:58.22Z</time></trkpt><trkpt lat="44.4583548" lon="10.8257202"><ele>288.0</ele><time>2026-05-02T14:28:59.221Z</time></trkpt><trkpt lat="44.4583297" lon="10.8256191"><ele>288.0</ele><time>2026-05-02T14:29:00.239Z</time></trkpt><trkpt lat="44.4583094" lon="10.8255138"><ele>287.8571428571429</ele><time>2026-05-02T14:29:01.241Z</time></trkpt><trkpt lat="44.458287" lon="10.8254093"><ele>287.7142857142857</ele><time>2026-05-02T14:29:02.176Z</time></trkpt><trkpt lat="44.4582611" lon="10.8253024"><ele>287.57142857142856</ele><time>2026-05-02T14:29:03.249Z</time></trkpt><trkpt lat="44.4582373" lon="10.8251987"><ele>287.42857142857144</ele><time>2026-05-02T14:29:04.217Z</time></trkpt><trkpt lat="44.4582135" lon="10.8251033"><ele>287.2857142857143</ele><time>2026-05-02T14:29:05.273Z</time></trkpt><trkpt lat="44.4582066" lon="10.8250154"><ele>287.14285714285717</ele><time>2026-05-02T14:29:06.227Z</time></trkpt><trkpt lat="44.4582124" lon="10.8249218"><ele>287.0</ele><time>2026-05-02T14:29:07.211Z</time></trkpt><trkpt lat="44.4582322" lon="10.8248216"><ele>287.0</ele><time>2026-05-02T14:29:08.224Z</time></trkpt><trkpt lat="44.4582592" lon="10.8247164"><ele>287.0</ele><time>2026-05-02T14:29:09.259Z</time></trkpt><trkpt lat="44.4582787" lon="10.82462"><ele>287.0</ele><time>2026-05-02T14:29:10.201Z</time></trkpt><trkpt lat="44.4582861" lon="10.8245241"><ele>287.0</ele><time>2026-05-02T14:29:11.263Z</time></trkpt><trkpt lat="44.4582735" lon="10.8244154"><ele>287.0</ele><time>2026-05-02T14:29:12.213Z</time></trkpt><trkpt lat="44.4582585" lon="10.824302"><ele>287.0</ele><time>2026-05-02T14:29:13.221Z</time></trkpt><trkpt lat="44.4582316" lon="10.8241698"><ele>287.0</ele><time>2026-05-02T14:29:14.211Z</time></trkpt><trkpt lat="44.4582102" lon="10.8240391"><ele>287.0</ele><time>2026-05-02T14:29:15.179Z</time></trkpt><trkpt lat="44.4581911" lon="10.8239239"><ele>287.0</ele><time>2026-05-02T14:29:16.2Z</time></trkpt><trkpt lat="44.458167" lon="10.8238134"><ele>287.0</ele><time>2026-05-02T14:29:17.21Z</time></trkpt><trkpt lat="44.45815" lon="10.8237133"><ele>287.0</ele><time>2026-05-02T14:29:18.197Z</time></trkpt><trkpt lat="44.4581415" lon="10.82362"><ele>287.0</ele><time>2026-05-02T14:29:19.233Z</time></trkpt><trkpt lat="44.4581466" lon="10.8235301"><ele>287.42857142857144</ele><time>2026-05-02T14:29:20.245Z</time></trkpt><trkpt lat="44.4581637" lon="10.823436"><ele>287.8571428571429</ele><time>2026-05-02T14:29:21.218Z</time></trkpt><trkpt lat="44.4581824" lon="10.8233395"><ele>288.2857142857143</ele><time>2026-05-02T14:29:22.246Z</time></trkpt><trkpt lat="44.4581875" lon="10.8232447"><ele>288.7142857142857</ele><time>2026-05-02T14:29:23.201Z</time></trkpt><trkpt lat="44.458179" lon="10.8231473"><ele>289.14285714285717</ele><time>2026-05-02T14:29:24.2Z</time></trkpt><trkpt lat="44.4581613" lon="10.8230457"><ele>289.57142857142856</ele><time>2026-05-02T14:29:25.233Z</time></trkpt><trkpt lat="44.4581359" lon="10.8229465"><ele>290.0</ele><time>2026-05-02T14:29:26.229Z</time></trkpt><trkpt lat="44.4580992" lon="10.8228506"><ele>290.0</ele><time>2026-05-02T14:29:27.195Z</time></trkpt><trkpt lat="44.4580604" lon="10.8227601"><ele>290.0</ele><time>2026-05-02T14:29:28.187Z</time></trkpt><trkpt lat="44.4580238" lon="10.8226725"><ele>290.0</ele><time>2026-05-02T14:29:29.23Z</time></trkpt><trkpt lat="44.4579793" lon="10.8225791"><ele>290.0</ele><time>2026-05-02T14:29:30.214Z</time></trkpt><trkpt lat="44.4579294" lon="10.8224935"><ele>290.0</ele><time>2026-05-02T14:29:31.199Z</time></trkpt><trkpt lat="44.4578711" lon="10.8224085"><ele>290.0</ele><time>2026-05-02T14:29:32.188Z</time></trkpt><trkpt lat="44.4578137" lon="10.8223282"><ele>290.5</ele><time>2026-05-02T14:29:33.236Z</time></trkpt><trkpt lat="44.4577601" lon="10.8222508"><ele>291.0</ele><time>2026-05-02T14:29:34.225Z</time></trkpt><trkpt lat="44.4577058" lon="10.8221845"><ele>291.5</ele><time>2026-05-02T14:29:35.23Z</time></trkpt><trkpt lat="44.4576481" lon="10.8221321"><ele>292.0</ele><time>2026-05-02T14:29:36.17Z</time></trkpt><trkpt lat="44.4575936" lon="10.8220877"><ele>292.5</ele><time>2026-05-02T14:29:37.22Z</time></trkpt><trkpt lat="44.4574947" lon="10.8219706"><ele>293.0</ele><time>2026-05-02T14:29:39.246Z</time></trkpt><trkpt lat="44.4574468" lon="10.8218939"><ele>293.0</ele><time>2026-05-02T14:29:40.206Z</time></trkpt><trkpt lat="44.4574019" lon="10.8218281"><ele>293.0</ele><time>2026-05-02T14:29:41.187Z</time></trkpt><trkpt lat="44.4573042" lon="10.8217376"><ele>293.0</ele><time>2026-05-02T14:29:43.31Z</time></trkpt><trkpt lat="44.4572325" lon="10.8216512"><ele>293.0</ele><time>2026-05-02T14:29:45.224Z</time></trkpt><trkpt lat="44.4571983" lon="10.8215669"><ele>293.0</ele><time>2026-05-02T14:29:46.19Z</time></trkpt><trkpt lat="44.457155" lon="10.8214751"><ele>293.0</ele><time>2026-05-02T14:29:47.229Z</time></trkpt><trkpt lat="44.4571027" lon="10.8213971"><ele>294.6</ele><time>2026-05-02T14:29:48.238Z</time></trkpt><trkpt lat="44.4570482" lon="10.8213308"><ele>296.20000000000005</ele><time>2026-05-02T14:29:49.182Z</time></trkpt><trkpt lat="44.4570019" lon="10.8212606"><ele>297.8</ele><time>2026-05-02T14:29:50.227Z</time></trkpt><trkpt lat="44.4569629" lon="10.8211831"><ele>299.40000000000003</ele><time>2026-05-02T14:29:51.215Z</time></trkpt><trkpt lat="44.4569024" lon="10.8210593"><ele>301.0</ele><time>2026-05-02T14:29:53.237Z</time></trkpt><trkpt lat="44.4568396" lon="10.8208789"><ele>301.0</ele><time>2026-05-02T14:30:12.193Z</time></trkpt><trkpt lat="44.4569197" lon="10.8208245"><ele>301.0</ele><time>2026-05-02T14:30:15.188Z</time></trkpt><trkpt lat="44.4570042" lon="10.820763"><ele>301.0</ele><time>2026-05-02T14:30:18.193Z</time></trkpt><trkpt lat="44.4570858" lon="10.8207268"><ele>301.0</ele><time>2026-05-02T14:30:20.212Z</time></trkpt><trkpt lat="44.4571743" lon="10.8206797"><ele>301.0</ele><time>2026-05-02T14:30:22.192Z</time></trkpt><trkpt lat="44.4572703" lon="10.8206351"><ele>300.40000000000003</ele><time>2026-05-02T14:30:24.257Z</time></trkpt><trkpt lat="44.457359" lon="10.8205827"><ele>299.8</ele><time>2026-05-02T14:30:26.227Z</time></trkpt><trkpt lat="44.457421" lon="10.8205562"><ele>299.20000000000005</ele><time>2026-05-02T14:30:28.185Z</time></trkpt><trkpt lat="44.4575077" lon="10.8205217"><ele>298.6</ele><time>2026-05-02T14:30:30.206Z</time></trkpt><trkpt lat="44.4576161" lon="10.8204708"><ele>298.0</ele><time>2026-05-02T14:30:32.21Z</time></trkpt><trkpt lat="44.4577083" lon="10.8204297"><ele>298.0</ele><time>2026-05-02T14:30:34.266Z</time></trkpt><trkpt lat="44.4577775" lon="10.8204138"><ele>298.0</ele><time>2026-05-02T14:30:36.189Z</time></trkpt><trkpt lat="44.4578748" lon="10.8204019"><ele>298.0</ele><time>2026-05-02T14:30:38.231Z</time></trkpt><trkpt lat="44.457954" lon="10.820341"><ele>298.0</ele><time>2026-05-02T14:30:40.223Z</time></trkpt><trkpt lat="44.4580316" lon="10.8202818"><ele>298.0</ele><time>2026-05-02T14:30:42.272Z</time></trkpt><trkpt lat="44.4581203" lon="10.8202594"><ele>298.0</ele><time>2026-05-02T14:30:44.188Z</time></trkpt><trkpt lat="44.4581967" lon="10.8201848"><ele>298.8333333333333</ele><time>2026-05-02T14:30:46.172Z</time></trkpt><trkpt lat="44.4582632" lon="10.8201506"><ele>299.66666666666663</ele><time>2026-05-02T14:30:48.216Z</time></trkpt><trkpt lat="44.4583498" lon="10.8201313"><ele>300.5</ele><time>2026-05-02T14:30:50.177Z</time></trkpt><trkpt lat="44.4583359" lon="10.8202495"><ele>301.3333333333333</ele><time>2026-05-02T14:30:53.22Z</time></trkpt><trkpt lat="44.4583143" lon="10.8203467"><ele>302.1666666666667</ele><time>2026-05-02T14:30:55.224Z</time></trkpt><trkpt lat="44.4582897" lon="10.8204443"><ele>303.0</ele><time>2026-05-02T14:30:57.19Z</time></trkpt><trkpt lat="44.4582789" lon="10.8205432"><ele>304.4</ele><time>2026-05-02T14:30:59.204Z</time></trkpt><trkpt lat="44.4582818" lon="10.8206525"><ele>305.8</ele><time>2026-05-02T14:31:01.215Z</time></trkpt><trkpt lat="44.4582809" lon="10.820785"><ele>307.2</ele><time>2026-05-02T14:31:03.226Z</time></trkpt><trkpt lat="44.4582958" lon="10.8209313"><ele>308.6</ele><time>2026-05-02T14:31:05.191Z</time></trkpt><trkpt lat="44.4583267" lon="10.8210413"><ele>310.0</ele><time>2026-05-02T14:31:07.224Z</time></trkpt><trkpt lat="44.458365" lon="10.8211549"><ele>310.0</ele><time>2026-05-02T14:31:09.197Z</time></trkpt><trkpt lat="44.4584008" lon="10.821261"><ele>310.0</ele><time>2026-05-02T14:31:11.224Z</time></trkpt><trkpt lat="44.4584628" lon="10.8213396"><ele>310.0</ele><time>2026-05-02T14:31:29.258Z</time></trkpt><trkpt lat="44.4585264" lon="10.82126"><ele>310.0</ele><time>2026-05-02T14:31:40.228Z</time></trkpt><trkpt lat="44.4585539" lon="10.8211594"><ele>310.0</ele><time>2026-05-02T14:31:42.213Z</time></trkpt><trkpt lat="44.4585907" lon="10.8210655"><ele>310.0</ele><time>2026-05-02T14:31:44.195Z</time></trkpt><trkpt lat="44.458606" lon="10.8209557"><ele>310.2</ele><time>2026-05-02T14:31:47.204Z</time></trkpt><trkpt lat="44.4587048" lon="10.8209402"><ele>310.4</ele><time>2026-05-02T14:31:50.246Z</time></trkpt><trkpt lat="44.4588116" lon="10.820986"><ele>310.6</ele><time>2026-05-02T14:31:52.219Z</time></trkpt><trkpt lat="44.4589259" lon="10.8210319"><ele>310.8</ele><time>2026-05-02T14:31:54.199Z</time></trkpt><trkpt lat="44.4590074" lon="10.8210242"><ele>311.0</ele><time>2026-05-02T14:31:56.221Z</time></trkpt><trkpt lat="44.4590912" lon="10.8210093"><ele>315.1666666666667</ele><time>2026-05-02T14:31:58.197Z</time></trkpt><trkpt lat="44.4591688" lon="10.8210453"><ele>319.33333333333337</ele><time>2026-05-02T14:32:00.234Z</time></trkpt><trkpt lat="44.4592178" lon="10.8211106"><ele>323.5</ele><time>2026-05-02T14:32:02.178Z</time></trkpt><trkpt lat="44.4592727" lon="10.8212042"><ele>327.6666666666667</ele><time>2026-05-02T14:32:04.227Z</time></trkpt><trkpt lat="44.459355" lon="10.8212645"><ele>331.8333333333333</ele><time>2026-05-02T14:32:06.221Z</time></trkpt><trkpt lat="44.4594616" lon="10.8212813"><ele>336.0</ele><time>2026-05-02T14:32:08.232Z</time></trkpt><trkpt lat="44.4595278" lon="10.8212828"><ele>336.0</ele><time>2026-05-02T14:32:09.262Z</time></trkpt><trkpt lat="44.4595982" lon="10.8212847"><ele>336.0</ele><time>2026-05-02T14:32:10.195Z</time></trkpt><trkpt lat="44.4597174" lon="10.8212768"><ele>336.0</ele><time>2026-05-02T14:32:12.203Z</time></trkpt><trkpt lat="44.4597873" lon="10.8212299"><ele>336.0</ele><time>2026-05-02T14:32:14.286Z</time></trkpt><trkpt lat="44.4598489" lon="10.8211673"><ele>336.0</ele><time>2026-05-02T14:33:32.244Z</time></trkpt><trkpt lat="44.4599399" lon="10.8211102"><ele>336.0</ele><time>2026-05-02T14:33:34.181Z</time></trkpt><trkpt lat="44.4600474" lon="10.8210489"><ele>338.8333333333333</ele><time>2026-05-02T14:33:36.199Z</time></trkpt><trkpt lat="44.4601435" lon="10.8209719"><ele>341.6666666666667</ele><time>2026-05-02T14:33:38.221Z</time></trkpt><trkpt lat="44.4601982" lon="10.8209282"><ele>344.5</ele><time>2026-05-02T14:33:39.209Z</time></trkpt><trkpt lat="44.4602535" lon="10.8208838"><ele>347.33333333333337</ele><time>2026-05-02T14:33:40.214Z</time></trkpt><trkpt lat="44.4603548" lon="10.8207925"><ele>350.1666666666667</ele><time>2026-05-02T14:33:42.223Z</time></trkpt><trkpt lat="44.4604115" lon="10.8207404"><ele>353.0</ele><time>2026-05-02T14:33:43.206Z</time></trkpt><trkpt lat="44.4604653" lon="10.8206905"><ele>355.33333333333337</ele><time>2026-05-02T14:33:44.194Z</time></trkpt><trkpt lat="44.4605574" lon="10.8206153"><ele>357.6666666666667</ele><time>2026-05-02T14:33:46.202Z</time></trkpt><trkpt lat="44.4606671" lon="10.8205416"><ele>360.0</ele><time>2026-05-02T14:33:48.254Z</time></trkpt><trkpt lat="44.4607268" lon="10.8204886"><ele>362.3333333333333</ele><time>2026-05-02T14:33:49.201Z</time></trkpt><trkpt lat="44.4607791" lon="10.8204279"><ele>364.66666666666663</ele><time>2026-05-02T14:33:50.233Z</time></trkpt><trkpt lat="44.4608315" lon="10.8203656"><ele>367.0</ele><time>2026-05-02T14:33:51.215Z</time></trkpt><trkpt lat="44.4608858" lon="10.82031"><ele>367.0</ele><time>2026-05-02T14:33:52.201Z</time></trkpt><trkpt lat="44.4609457" lon="10.8202542"><ele>367.0</ele><time>2026-05-02T14:33:53.23Z</time></trkpt><trkpt lat="44.4610124" lon="10.8202006"><ele>367.0</ele><time>2026-05-02T14:33:54.264Z</time></trkpt><trkpt lat="44.4610796" lon="10.8201489"><ele>367.0</ele><time>2026-05-02T14:33:55.236Z</time></trkpt><trkpt lat="44.4611423" lon="10.8201001"><ele>367.0</ele><time>2026-05-02T14:33:56.193Z</time></trkpt><trkpt lat="44.4612044" lon="10.8200552"><ele>367.0</ele><time>2026-05-02T14:33:57.195Z</time></trkpt><trkpt lat="44.4612661" lon="10.8200148"><ele>367.0</ele><time>2026-05-02T14:33:58.233Z</time></trkpt><trkpt lat="44.4613258" lon="10.8199726"><ele>369.5</ele><time>2026-05-02T14:33:59.225Z</time></trkpt><trkpt lat="44.4613883" lon="10.8199334"><ele>372.0</ele><time>2026-05-02T14:34:00.225Z</time></trkpt><trkpt lat="44.4614445" lon="10.8198882"><ele>374.5</ele><time>2026-05-02T14:34:01.259Z</time></trkpt><trkpt lat="44.461501" lon="10.8198265"><ele>377.0</ele><time>2026-05-02T14:34:02.261Z</time></trkpt><trkpt lat="44.4615889" lon="10.8197305"><ele>379.5</ele><time>2026-05-02T14:34:04.224Z</time></trkpt><trkpt lat="44.4616975" lon="10.8196884"><ele>382.0</ele><time>2026-05-02T14:34:06.216Z</time></trkpt><trkpt lat="44.4618228" lon="10.819675"><ele>382.0</ele><time>2026-05-02T14:34:08.227Z</time></trkpt><trkpt lat="44.4618863" lon="10.8196775"><ele>382.0</ele><time>2026-05-02T14:34:09.252Z</time></trkpt><trkpt lat="44.4619523" lon="10.8196834"><ele>382.0</ele><time>2026-05-02T14:34:10.217Z</time></trkpt><trkpt lat="44.4620252" lon="10.8196857"><ele>382.0</ele><time>2026-05-02T14:34:11.247Z</time></trkpt><trkpt lat="44.4620969" lon="10.8196835"><ele>382.0</ele><time>2026-05-02T14:34:12.233Z</time></trkpt><trkpt lat="44.4622099" lon="10.8196565"><ele>382.0</ele><time>2026-05-02T14:34:14.212Z</time></trkpt><trkpt lat="44.4623138" lon="10.8196004"><ele>383.5714285714286</ele><time>2026-05-02T14:34:16.218Z</time></trkpt><trkpt lat="44.4623736" lon="10.8195636"><ele>385.1428571428571</ele><time>2026-05-02T14:34:17.21Z</time></trkpt><trkpt lat="44.4624385" lon="10.8195313"><ele>386.7142857142857</ele><time>2026-05-02T14:34:18.181Z</time></trkpt><trkpt lat="44.4625016" lon="10.8195067"><ele>388.28571428571433</ele><time>2026-05-02T14:34:19.239Z</time></trkpt><trkpt lat="44.462563" lon="10.8194842"><ele>389.8571428571429</ele><time>2026-05-02T14:34:20.223Z</time></trkpt><trkpt lat="44.4626291" lon="10.8194603"><ele>391.42857142857144</ele><time>2026-05-02T14:34:21.191Z</time></trkpt><trkpt lat="44.4627019" lon="10.8194332"><ele>393.0</ele><time>2026-05-02T14:34:22.23Z</time></trkpt><trkpt lat="44.4627743" lon="10.8194039"><ele>393.0</ele><time>2026-05-02T14:34:23.221Z</time></trkpt><trkpt lat="44.4628479" lon="10.8193918"><ele>393.0</ele><time>2026-05-02T14:34:24.261Z</time></trkpt><trkpt lat="44.4629125" lon="10.819387"><ele>393.0</ele><time>2026-05-02T14:34:25.264Z</time></trkpt><trkpt lat="44.4629778" lon="10.819382"><ele>393.0</ele><time>2026-05-02T14:34:26.188Z</time></trkpt><trkpt lat="44.4630418" lon="10.8193736"><ele>393.0</ele><time>2026-05-02T14:34:27.236Z</time></trkpt><trkpt lat="44.4631602" lon="10.8193654"><ele>393.0</ele><time>2026-05-02T14:34:29.238Z</time></trkpt><trkpt lat="44.4632288" lon="10.8193642"><ele>395.8333333333333</ele><time>2026-05-02T14:34:30.23Z</time></trkpt><trkpt lat="44.4632932" lon="10.8193644"><ele>398.66666666666663</ele><time>2026-05-02T14:34:31.186Z</time></trkpt><trkpt lat="44.4633573" lon="10.8193666"><ele>401.5</ele><time>2026-05-02T14:34:32.229Z</time></trkpt><trkpt lat="44.4634717" lon="10.8193696"><ele>404.3333333333333</ele><time>2026-05-02T14:34:34.274Z</time></trkpt><trkpt lat="44.4635963" lon="10.8193742"><ele>407.16666666666663</ele><time>2026-05-02T14:34:36.262Z</time></trkpt><trkpt lat="44.4636682" lon="10.8193831"><ele>410.0</ele><time>2026-05-02T14:34:37.258Z</time></trkpt><trkpt lat="44.4637379" lon="10.8193861"><ele>412.8571428571429</ele><time>2026-05-02T14:34:38.24Z</time></trkpt><trkpt lat="44.4638088" lon="10.8193886"><ele>415.71428571428567</ele><time>2026-05-02T14:34:39.177Z</time></trkpt><trkpt lat="44.4638807" lon="10.8193925"><ele>418.57142857142856</ele><time>2026-05-02T14:34:40.224Z</time></trkpt><trkpt lat="44.4639583" lon="10.8193961"><ele>421.42857142857144</ele><time>2026-05-02T14:34:41.212Z</time></trkpt><trkpt lat="44.4640364" lon="10.8193974"><ele>424.28571428571433</ele><time>2026-05-02T14:34:42.215Z</time></trkpt><trkpt lat="44.4641116" lon="10.8193883"><ele>427.1428571428571</ele><time>2026-05-02T14:34:43.241Z</time></trkpt><trkpt lat="44.4641833" lon="10.8193755"><ele>430.0</ele><time>2026-05-02T14:34:44.208Z</time></trkpt><trkpt lat="44.4642551" lon="10.8193695"><ele>430.0</ele><time>2026-05-02T14:34:45.256Z</time></trkpt><trkpt lat="44.464328" lon="10.8193646"><ele>430.0</ele><time>2026-05-02T14:34:46.248Z</time></trkpt><trkpt lat="44.4644076" lon="10.8193634"><ele>430.0</ele><time>2026-05-02T14:34:47.197Z</time></trkpt><trkpt lat="44.4644823" lon="10.8193611"><ele>430.0</ele><time>2026-05-02T14:34:48.254Z</time></trkpt><trkpt lat="44.4645572" lon="10.819353"><ele>430.0</ele><time>2026-05-02T14:34:49.245Z</time></trkpt><trkpt lat="44.4646264" lon="10.8193481"><ele>430.0</ele><time>2026-05-02T14:34:50.237Z</time></trkpt><trkpt lat="44.4646921" lon="10.819347"><ele>430.0</ele><time>2026-05-02T14:34:51.227Z</time></trkpt><trkpt lat="44.4648167" lon="10.8193404"><ele>433.33333333333337</ele><time>2026-05-02T14:34:53.251Z</time></trkpt><trkpt lat="44.4648856" lon="10.819332"><ele>436.6666666666667</ele><time>2026-05-02T14:34:54.223Z</time></trkpt><trkpt lat="44.4649533" lon="10.8193247"><ele>440.0</ele><time>2026-05-02T14:34:55.233Z</time></trkpt><trkpt lat="44.4650174" lon="10.8193186"><ele>443.33333333333337</ele><time>2026-05-02T14:34:56.232Z</time></trkpt><trkpt lat="44.4651403" lon="10.8193092"><ele>446.6666666666667</ele><time>2026-05-02T14:34:58.211Z</time></trkpt><trkpt lat="44.4652558" lon="10.8193464"><ele>450.0</ele><time>2026-05-02T14:35:00.202Z</time></trkpt><trkpt lat="44.4653024" lon="10.8194077"><ele>450.8571428571429</ele><time>2026-05-02T14:35:01.236Z</time></trkpt><trkpt lat="44.4653428" lon="10.8194945"><ele>451.7142857142857</ele><time>2026-05-02T14:35:02.28Z</time></trkpt><trkpt lat="44.4653769" lon="10.8195735"><ele>452.57142857142856</ele><time>2026-05-02T14:35:03.224Z</time></trkpt><trkpt lat="44.4654136" lon="10.8196556"><ele>453.42857142857144</ele><time>2026-05-02T14:35:04.235Z</time></trkpt><trkpt lat="44.4654546" lon="10.8197397"><ele>454.2857142857142</ele><time>2026-05-02T14:35:05.196Z</time></trkpt><trkpt lat="44.4654916" lon="10.8198183"><ele>455.1428571428571</ele><time>2026-05-02T14:35:06.246Z</time></trkpt><trkpt lat="44.4655364" lon="10.8198926"><ele>456.0</ele><time>2026-05-02T14:35:07.254Z</time></trkpt><trkpt lat="44.465585" lon="10.8199617"><ele>459.8333333333333</ele><time>2026-05-02T14:35:08.256Z</time></trkpt><trkpt lat="44.4656871" lon="10.8200537"><ele>463.66666666666663</ele><time>2026-05-02T14:35:10.224Z</time></trkpt><trkpt lat="44.4657457" lon="10.8200887"><ele>467.5</ele><time>2026-05-02T14:35:11.241Z</time></trkpt><trkpt lat="44.4658413" lon="10.8201535"><ele>471.3333333333333</ele><time>2026-05-02T14:35:13.185Z</time></trkpt><trkpt lat="44.4659062" lon="10.8201875"><ele>475.16666666666663</ele><time>2026-05-02T14:35:15.242Z</time></trkpt><trkpt lat="44.4659836" lon="10.8201562"><ele>479.0</ele><time>2026-05-02T14:35:18.204Z</time></trkpt><trkpt lat="44.4660453" lon="10.8201172"><ele>479.0</ele><time>2026-05-02T14:35:30.218Z</time></trkpt><trkpt lat="44.4661495" lon="10.8200639"><ele>479.0</ele><time>2026-05-02T14:35:32.253Z</time></trkpt><trkpt lat="44.4662084" lon="10.8200293"><ele>479.0</ele><time>2026-05-02T14:35:33.236Z</time></trkpt><trkpt lat="44.4662678" lon="10.8199911"><ele>479.0</ele><time>2026-05-02T14:35:34.216Z</time></trkpt><trkpt lat="44.4663652" lon="10.8199118"><ele>479.0</ele><time>2026-05-02T14:35:36.252Z</time></trkpt><trkpt lat="44.4664585" lon="10.8198222"><ele>479.42857142857144</ele><time>2026-05-02T14:35:38.235Z</time></trkpt><trkpt lat="44.4665111" lon="10.8197594"><ele>479.8571428571429</ele><time>2026-05-02T14:35:39.193Z</time></trkpt><trkpt lat="44.4665667" lon="10.8196735"><ele>480.28571428571433</ele><time>2026-05-02T14:35:40.247Z</time></trkpt><trkpt lat="44.4666204" lon="10.819593"><ele>480.7142857142857</ele><time>2026-05-02T14:35:41.23Z</time></trkpt><trkpt lat="44.4666658" lon="10.8195088"><ele>481.1428571428572</ele><time>2026-05-02T14:35:42.224Z</time></trkpt><trkpt lat="44.4667115" lon="10.819436"><ele>481.5714285714286</ele><time>2026-05-02T14:35:43.225Z</time></trkpt><trkpt lat="44.4667574" lon="10.8193652"><ele>482.0</ele><time>2026-05-02T14:35:44.223Z</time></trkpt><trkpt lat="44.4668059" lon="10.8193037"><ele>481.99999999999994</ele><time>2026-05-02T14:35:45.245Z</time></trkpt><trkpt lat="44.4668527" lon="10.8192406"><ele>482.0</ele><time>2026-05-02T14:35:46.25Z</time></trkpt><trkpt lat="44.4669092" lon="10.8191732"><ele>482.0</ele><time>2026-05-02T14:35:47.205Z</time></trkpt><trkpt lat="44.4669635" lon="10.8190977"><ele>482.0</ele><time>2026-05-02T14:35:48.238Z</time></trkpt><trkpt lat="44.4670179" lon="10.8190208"><ele>481.99999999999994</ele><time>2026-05-02T14:35:49.26Z</time></trkpt><trkpt lat="44.4670753" lon="10.8189486"><ele>482.0</ele><time>2026-05-02T14:35:50.192Z</time></trkpt><trkpt lat="44.4671399" lon="10.8188747"><ele>481.6</ele><time>2026-05-02T14:35:51.215Z</time></trkpt><trkpt lat="44.4672068" lon="10.8188037"><ele>481.20000000000005</ele><time>2026-05-02T14:35:52.183Z</time></trkpt><trkpt lat="44.4672746" lon="10.8187276"><ele>480.8</ele><time>2026-05-02T14:35:53.251Z</time></trkpt><trkpt lat="44.467352" lon="10.8186447"><ele>480.4</ele><time>2026-05-02T14:35:54.219Z</time></trkpt><trkpt lat="44.4674369" lon="10.818561"><ele>480.0</ele><time>2026-05-02T14:35:55.246Z</time></trkpt><trkpt lat="44.4675301" lon="10.8184958"><ele>480.2</ele><time>2026-05-02T14:35:56.24Z</time></trkpt><trkpt lat="44.4676251" lon="10.8184436"><ele>480.4</ele><time>2026-05-02T14:35:57.222Z</time></trkpt><trkpt lat="44.4677185" lon="10.8184003"><ele>480.6</ele><time>2026-05-02T14:35:58.227Z</time></trkpt><trkpt lat="44.4678026" lon="10.8183667"><ele>480.8</ele><time>2026-05-02T14:35:59.265Z</time></trkpt><trkpt lat="44.4678902" lon="10.8183367"><ele>481.0</ele><time>2026-05-02T14:36:00.191Z</time></trkpt><trkpt lat="44.4679861" lon="10.8183053"><ele>481.0</ele><time>2026-05-02T14:36:01.218Z</time></trkpt><trkpt lat="44.4680817" lon="10.8182666"><ele>481.0</ele><time>2026-05-02T14:36:02.243Z</time></trkpt><trkpt lat="44.4681772" lon="10.8182306"><ele>481.0</ele><time>2026-05-02T14:36:03.273Z</time></trkpt><trkpt lat="44.4682685" lon="10.8181972"><ele>481.0</ele><time>2026-05-02T14:36:04.221Z</time></trkpt><trkpt lat="44.4683536" lon="10.8181551"><ele>481.0</ele><time>2026-05-02T14:36:05.19Z</time></trkpt><trkpt lat="44.4684402" lon="10.8181007"><ele>481.00000000000006</ele><time>2026-05-02T14:36:06.237Z</time></trkpt><trkpt lat="44.4685225" lon="10.8180405"><ele>481.0</ele><time>2026-05-02T14:36:07.253Z</time></trkpt><trkpt lat="44.4685886" lon="10.8179661"><ele>481.0</ele><time>2026-05-02T14:36:08.235Z</time></trkpt><trkpt lat="44.4686491" lon="10.817877"><ele>481.0</ele><time>2026-05-02T14:36:09.26Z</time></trkpt><trkpt lat="44.4687048" lon="10.8177744"><ele>481.00000000000006</ele><time>2026-05-02T14:36:10.252Z</time></trkpt><trkpt lat="44.4687584" lon="10.8176728"><ele>481.0</ele><time>2026-05-02T14:36:11.204Z</time></trkpt><trkpt lat="44.4688082" lon="10.817587"><ele>483.83333333333337</ele><time>2026-05-02T14:36:12.22Z</time></trkpt><trkpt lat="44.4688688" lon="10.8175125"><ele>486.6666666666667</ele><time>2026-05-02T14:36:13.187Z</time></trkpt><trkpt lat="44.4689495" lon="10.817453"><ele>489.5</ele><time>2026-05-02T14:36:14.248Z</time></trkpt><trkpt lat="44.4690265" lon="10.8174087"><ele>492.33333333333337</ele><time>2026-05-02T14:36:15.219Z</time></trkpt><trkpt lat="44.4690999" lon="10.8173721"><ele>495.1666666666667</ele><time>2026-05-02T14:36:16.228Z</time></trkpt><trkpt lat="44.4691746" lon="10.8173366"><ele>498.0</ele><time>2026-05-02T14:36:17.215Z</time></trkpt><trkpt lat="44.469244" lon="10.8173032"><ele>498.0</ele><time>2026-05-02T14:36:18.187Z</time></trkpt><trkpt lat="44.4693057" lon="10.8172745"><ele>497.99999999999994</ele><time>2026-05-02T14:36:19.253Z</time></trkpt><trkpt lat="44.469405" lon="10.817229"><ele>497.99999999999994</ele><time>2026-05-02T14:36:21.243Z</time></trkpt><trkpt lat="44.4694657" lon="10.8171831"><ele>498.0</ele><time>2026-05-02T14:36:24.228Z</time></trkpt><trkpt lat="44.4694889" lon="10.8170876"><ele>498.0</ele><time>2026-05-02T14:36:26.188Z</time></trkpt><trkpt lat="44.4694602" lon="10.8168964"><ele>496.25</ele><time>2026-05-02T14:36:28.222Z</time></trkpt><trkpt lat="44.4694446" lon="10.8167657"><ele>494.5</ele><time>2026-05-02T14:36:29.245Z</time></trkpt><trkpt lat="44.4694419" lon="10.8166093"><ele>492.75</ele><time>2026-05-02T14:36:30.236Z</time></trkpt><trkpt lat="44.4694548" lon="10.8164351"><ele>491.0</ele><time>2026-05-02T14:36:31.216Z</time></trkpt><trkpt lat="44.4694786" lon="10.8162558"><ele>491.0</ele><time>2026-05-02T14:36:32.246Z</time></trkpt><trkpt lat="44.4695084" lon="10.8160709"><ele>491.0</ele><time>2026-05-02T14:36:33.252Z</time></trkpt><trkpt lat="44.4695452" lon="10.8158963"><ele>491.0</ele><time>2026-05-02T14:36:34.208Z</time></trkpt><trkpt lat="44.4695964" lon="10.8157311"><ele>491.0</ele><time>2026-05-02T14:36:35.258Z</time></trkpt><trkpt lat="44.4696661" lon="10.8155674"><ele>493.75</ele><time>2026-05-02T14:36:36.208Z</time></trkpt><trkpt lat="44.4697459" lon="10.8154043"><ele>496.5</ele><time>2026-05-02T14:36:37.24Z</time></trkpt><trkpt lat="44.4698224" lon="10.8152478"><ele>499.25</ele><time>2026-05-02T14:36:38.213Z</time></trkpt><trkpt lat="44.4698931" lon="10.8150953"><ele>502.0</ele><time>2026-05-02T14:36:39.193Z</time></trkpt><trkpt lat="44.4699604" lon="10.8149374"><ele>502.0</ele><time>2026-05-02T14:36:40.241Z</time></trkpt><trkpt lat="44.4700228" lon="10.8147707"><ele>502.0</ele><time>2026-05-02T14:36:41.219Z</time></trkpt><trkpt lat="44.4700769" lon="10.814592"><ele>502.0</ele><time>2026-05-02T14:36:42.239Z</time></trkpt><trkpt lat="44.4701227" lon="10.814409"><ele>502.0</ele><time>2026-05-02T14:36:43.205Z</time></trkpt><trkpt lat="44.4701626" lon="10.8142316"><ele>501.0</ele><time>2026-05-02T14:36:44.221Z</time></trkpt><trkpt lat="44.4701992" lon="10.8140583"><ele>500.0</ele><time>2026-05-02T14:36:45.252Z</time></trkpt><trkpt lat="44.4702308" lon="10.8138853"><ele>499.0</ele><time>2026-05-02T14:36:46.241Z</time></trkpt><trkpt lat="44.4702541" lon="10.813718"><ele>498.0</ele><time>2026-05-02T14:36:47.213Z</time></trkpt><trkpt lat="44.470268" lon="10.8135526"><ele>497.5</ele><time>2026-05-02T14:36:48.18Z</time></trkpt><trkpt lat="44.4702692" lon="10.8133832"><ele>497.0</ele><time>2026-05-02T14:36:49.25Z</time></trkpt><trkpt lat="44.4702542" lon="10.8132061"><ele>496.5</ele><time>2026-05-02T14:36:50.231Z</time></trkpt><trkpt lat="44.4702253" lon="10.8130295"><ele>496.0</ele><time>2026-05-02T14:36:51.217Z</time></trkpt><trkpt lat="44.4701941" lon="10.8128607"><ele>496.0</ele><time>2026-05-02T14:36:52.195Z</time></trkpt><trkpt lat="44.470173" lon="10.8126979"><ele>496.0</ele><time>2026-05-02T14:36:53.255Z</time></trkpt><trkpt lat="44.4701632" lon="10.8125299"><ele>496.0</ele><time>2026-05-02T14:36:54.223Z</time></trkpt><trkpt lat="44.4701686" lon="10.8123593"><ele>496.0</ele><time>2026-05-02T14:36:55.242Z</time></trkpt><trkpt lat="44.4701918" lon="10.8121855"><ele>496.0</ele><time>2026-05-02T14:36:56.214Z</time></trkpt><trkpt lat="44.4702262" lon="10.8120115"><ele>496.0</ele><time>2026-05-02T14:36:57.237Z</time></trkpt><trkpt lat="44.4702615" lon="10.8118464"><ele>496.0</ele><time>2026-05-02T14:36:58.246Z</time></trkpt><trkpt lat="44.4702893" lon="10.8116862"><ele>496.0</ele><time>2026-05-02T14:36:59.241Z</time></trkpt><trkpt lat="44.4703082" lon="10.8115229"><ele>495.6</ele><time>2026-05-02T14:37:00.2Z</time></trkpt><trkpt lat="44.4703223" lon="10.8113636"><ele>495.20000000000005</ele><time>2026-05-02T14:37:01.201Z</time></trkpt><trkpt lat="44.4703387" lon="10.8112142"><ele>494.79999999999995</ele><time>2026-05-02T14:37:02.229Z</time></trkpt><trkpt lat="44.4703623" lon="10.8110747"><ele>494.4</ele><time>2026-05-02T14:37:03.256Z</time></trkpt><trkpt lat="44.4704002" lon="10.8109461"><ele>494.0</ele><time>2026-05-02T14:37:04.225Z</time></trkpt><trkpt lat="44.4704489" lon="10.8108237"><ele>496.49999999999994</ele><time>2026-05-02T14:37:05.21Z</time></trkpt><trkpt lat="44.4704991" lon="10.8107096"><ele>499.0</ele><time>2026-05-02T14:37:06.241Z</time></trkpt><trkpt lat="44.4705429" lon="10.8105976"><ele>501.5</ele><time>2026-05-02T14:37:07.22Z</time></trkpt><trkpt lat="44.470571" lon="10.8104834"><ele>504.0</ele><time>2026-05-02T14:37:08.211Z</time></trkpt><trkpt lat="44.4705858" lon="10.810363"><ele>506.49999999999994</ele><time>2026-05-02T14:37:09.239Z</time></trkpt><trkpt lat="44.4705918" lon="10.8102397"><ele>509.0</ele><time>2026-05-02T14:37:10.25Z</time></trkpt><trkpt lat="44.4705953" lon="10.8101242"><ele>508.99999999999994</ele><time>2026-05-02T14:37:11.257Z</time></trkpt><trkpt lat="44.4706035" lon="10.8100265"><ele>509.0</ele><time>2026-05-02T14:37:12.261Z</time></trkpt><trkpt lat="44.4706639" lon="10.8098818"><ele>509.0</ele><time>2026-05-02T14:37:14.252Z</time></trkpt><trkpt lat="44.4707422" lon="10.8097951"><ele>509.0</ele><time>2026-05-02T14:37:16.24Z</time></trkpt><trkpt lat="44.4708298" lon="10.8097806"><ele>508.99999999999994</ele><time>2026-05-02T14:37:18.201Z</time></trkpt><trkpt lat="44.4708925" lon="10.8098154"><ele>509.0</ele><time>2026-05-02T14:37:19.246Z</time></trkpt><trkpt lat="44.4709694" lon="10.8098706"><ele>509.0</ele><time>2026-05-02T14:37:20.199Z</time></trkpt><trkpt lat="44.4710562" lon="10.8099367"><ele>509.0</ele><time>2026-05-02T14:37:21.182Z</time></trkpt><trkpt lat="44.4711468" lon="10.8100041"><ele>509.0</ele><time>2026-05-02T14:37:22.202Z</time></trkpt><trkpt lat="44.4712468" lon="10.8100744"><ele>509.0</ele><time>2026-05-02T14:37:23.2Z</time></trkpt><trkpt lat="44.4713422" lon="10.8101429"><ele>509.0</ele><time>2026-05-02T14:37:24.184Z</time></trkpt><trkpt lat="44.4714445" lon="10.8102087"><ele>507.4</ele><time>2026-05-02T14:37:25.178Z</time></trkpt><trkpt lat="44.4715342" lon="10.8102634"><ele>505.79999999999995</ele><time>2026-05-02T14:37:26.186Z</time></trkpt><trkpt lat="44.4716207" lon="10.8103269"><ele>504.20000000000005</ele><time>2026-05-02T14:37:27.188Z</time></trkpt><trkpt lat="44.4716982" lon="10.8103959"><ele>502.6</ele><time>2026-05-02T14:37:28.19Z</time></trkpt><trkpt lat="44.471763" lon="10.8104731"><ele>501.0</ele><time>2026-05-02T14:37:29.185Z</time></trkpt><trkpt lat="44.4718299" lon="10.8105844"><ele>501.0</ele><time>2026-05-02T14:37:30.183Z</time></trkpt><trkpt lat="44.4718752" lon="10.8106917"><ele>501.0</ele><time>2026-05-02T14:37:31.186Z</time></trkpt><trkpt lat="44.4719219" lon="10.8108032"><ele>501.0</ele><time>2026-05-02T14:37:32.183Z</time></trkpt><trkpt lat="44.4719888" lon="10.810908"><ele>501.0</ele><time>2026-05-02T14:37:33.193Z</time></trkpt><trkpt lat="44.4720605" lon="10.8110063"><ele>501.0</ele><time>2026-05-02T14:37:34.186Z</time></trkpt><trkpt lat="44.4721376" lon="10.8110929"><ele>498.20000000000005</ele><time>2026-05-02T14:37:35.187Z</time></trkpt><trkpt lat="44.4722222" lon="10.8111738"><ele>495.40000000000003</ele><time>2026-05-02T14:37:36.175Z</time></trkpt><trkpt lat="44.472311" lon="10.8112512"><ele>492.6</ele><time>2026-05-02T14:37:37.213Z</time></trkpt><trkpt lat="44.4723964" lon="10.8113282"><ele>489.8</ele><time>2026-05-02T14:37:38.226Z</time></trkpt><trkpt lat="44.472486" lon="10.8114002"><ele>487.0</ele><time>2026-05-02T14:37:39.197Z</time></trkpt><trkpt lat="44.472571" lon="10.8114768"><ele>487.0</ele><time>2026-05-02T14:37:40.203Z</time></trkpt><trkpt lat="44.4726513" lon="10.8115559"><ele>487.00000000000006</ele><time>2026-05-02T14:37:41.212Z</time></trkpt><trkpt lat="44.4727304" lon="10.8116374"><ele>487.00000000000006</ele><time>2026-05-02T14:37:42.218Z</time></trkpt><trkpt lat="44.4728165" lon="10.8117222"><ele>487.0</ele><time>2026-05-02T14:37:43.208Z</time></trkpt><trkpt lat="44.4728701" lon="10.811811"><ele>487.0</ele><time>2026-05-02T14:37:44.227Z</time></trkpt><trkpt lat="44.4729048" lon="10.8119147"><ele>485.6666666666667</ele><time>2026-05-02T14:37:45.207Z</time></trkpt><trkpt lat="44.4729476" lon="10.8120282"><ele>484.33333333333337</ele><time>2026-05-02T14:37:46.238Z</time></trkpt><trkpt lat="44.4729883" lon="10.8121266"><ele>483.0</ele><time>2026-05-02T14:37:47.228Z</time></trkpt><trkpt lat="44.4730392" lon="10.8122093"><ele>481.66666666666663</ele><time>2026-05-02T14:37:48.212Z</time></trkpt><trkpt lat="44.4731058" lon="10.8122868"><ele>480.3333333333333</ele><time>2026-05-02T14:37:49.224Z</time></trkpt><trkpt lat="44.4731734" lon="10.8123673"><ele>479.0</ele><time>2026-05-02T14:37:50.212Z</time></trkpt><trkpt lat="44.4732613" lon="10.8124351"><ele>479.0</ele><time>2026-05-02T14:37:51.23Z</time></trkpt><trkpt lat="44.4733508" lon="10.8124944"><ele>479.0</ele><time>2026-05-02T14:37:52.192Z</time></trkpt><trkpt lat="44.4734441" lon="10.8125416"><ele>479.0</ele><time>2026-05-02T14:37:53.192Z</time></trkpt><trkpt lat="44.4735334" lon="10.8125683"><ele>479.0</ele><time>2026-05-02T14:37:54.234Z</time></trkpt><trkpt lat="44.4736228" lon="10.8125842"><ele>479.0</ele><time>2026-05-02T14:37:55.222Z</time></trkpt><trkpt lat="44.4737194" lon="10.8126029"><ele>478.0</ele><time>2026-05-02T14:37:56.206Z</time></trkpt><trkpt lat="44.4738129" lon="10.812637"><ele>477.0</ele><time>2026-05-02T14:37:57.26Z</time></trkpt><trkpt lat="44.4739002" lon="10.8126921"><ele>476.0</ele><time>2026-05-02T14:37:58.23Z</time></trkpt><trkpt lat="44.4739731" lon="10.8127651"><ele>475.0</ele><time>2026-05-02T14:37:59.247Z</time></trkpt><trkpt lat="44.4740479" lon="10.8128594"><ele>474.0</ele><time>2026-05-02T14:38:00.184Z</time></trkpt><trkpt lat="44.4741123" lon="10.8129599"><ele>473.2</ele><time>2026-05-02T14:38:01.2Z</time></trkpt><trkpt lat="44.4741822" lon="10.8130594"><ele>472.4</ele><time>2026-05-02T14:38:02.221Z</time></trkpt><trkpt lat="44.4742588" lon="10.8131415"><ele>471.6</ele><time>2026-05-02T14:38:03.187Z</time></trkpt><trkpt lat="44.4743434" lon="10.8132019"><ele>470.8</ele><time>2026-05-02T14:38:04.236Z</time></trkpt><trkpt lat="44.474429" lon="10.8132393"><ele>470.0</ele><time>2026-05-02T14:38:05.173Z</time></trkpt><trkpt lat="44.4745138" lon="10.8132667"><ele>469.99999999999994</ele><time>2026-05-02T14:38:06.232Z</time></trkpt><trkpt lat="44.4745933" lon="10.8132916"><ele>470.0</ele><time>2026-05-02T14:38:07.222Z</time></trkpt><trkpt lat="44.4746695" lon="10.8133196"><ele>470.0</ele><time>2026-05-02T14:38:08.237Z</time></trkpt><trkpt lat="44.4747449" lon="10.8133521"><ele>470.0</ele><time>2026-05-02T14:38:09.251Z</time></trkpt><trkpt lat="44.4748231" lon="10.8133862"><ele>469.99999999999994</ele><time>2026-05-02T14:38:10.234Z</time></trkpt><trkpt lat="44.4748937" lon="10.8134672"><ele>470.0</ele><time>2026-05-02T14:38:11.244Z</time></trkpt><trkpt lat="44.4749508" lon="10.8135707"><ele>469.0</ele><time>2026-05-02T14:38:12.251Z</time></trkpt><trkpt lat="44.4750126" lon="10.8136799"><ele>468.0</ele><time>2026-05-02T14:38:13.169Z</time></trkpt><trkpt lat="44.4750529" lon="10.8138006"><ele>467.0</ele><time>2026-05-02T14:38:14.204Z</time></trkpt><trkpt lat="44.475115" lon="10.8139314"><ele>466.0</ele><time>2026-05-02T14:38:15.19Z</time></trkpt><trkpt lat="44.4751788" lon="10.8140459"><ele>465.0</ele><time>2026-05-02T14:38:16.229Z</time></trkpt><trkpt lat="44.4752348" lon="10.8141592"><ele>465.0</ele><time>2026-05-02T14:38:17.217Z</time></trkpt><trkpt lat="44.4752935" lon="10.814272"><ele>465.0</ele><time>2026-05-02T14:38:18.189Z</time></trkpt><trkpt lat="44.4753359" lon="10.8143631"><ele>465.0</ele><time>2026-05-02T14:38:19.25Z</time></trkpt><trkpt lat="44.4753778" lon="10.8144525"><ele>465.0</ele><time>2026-05-02T14:38:20.227Z</time></trkpt><trkpt lat="44.4754284" lon="10.8145454"><ele>465.0</ele><time>2026-05-02T14:38:21.217Z</time></trkpt><trkpt lat="44.4754783" lon="10.8146267"><ele>465.0</ele><time>2026-05-02T14:38:22.228Z</time></trkpt><trkpt lat="44.4755717" lon="10.8147377"><ele>464.8</ele><time>2026-05-02T14:38:24.229Z</time></trkpt><trkpt lat="44.475637" lon="10.8147925"><ele>464.6</ele><time>2026-05-02T14:38:25.213Z</time></trkpt><trkpt lat="44.4757208" lon="10.8148469"><ele>464.4</ele><time>2026-05-02T14:38:26.186Z</time></trkpt><trkpt lat="44.4758236" lon="10.8148982"><ele>464.2</ele><time>2026-05-02T14:38:27.231Z</time></trkpt><trkpt lat="44.4759302" lon="10.8149487"><ele>464.0</ele><time>2026-05-02T14:38:28.206Z</time></trkpt><trkpt lat="44.4760286" lon="10.8149974"><ele>463.99999999999994</ele><time>2026-05-02T14:38:29.246Z</time></trkpt><trkpt lat="44.4761256" lon="10.8150423"><ele>464.0</ele><time>2026-05-02T14:38:30.223Z</time></trkpt><trkpt lat="44.4762093" lon="10.8150845"><ele>464.0</ele><time>2026-05-02T14:38:31.215Z</time></trkpt><trkpt lat="44.4762953" lon="10.8151198"><ele>464.0</ele><time>2026-05-02T14:38:32.269Z</time></trkpt><trkpt lat="44.4763701" lon="10.8151523"><ele>463.99999999999994</ele><time>2026-05-02T14:38:33.235Z</time></trkpt><trkpt lat="44.4764559" lon="10.8151774"><ele>464.0</ele><time>2026-05-02T14:38:34.222Z</time></trkpt><trkpt lat="44.4765412" lon="10.8151942"><ele>463.5</ele><time>2026-05-02T14:38:35.197Z</time></trkpt><trkpt lat="44.4766383" lon="10.8152042"><ele>463.0</ele><time>2026-05-02T14:38:36.288Z</time></trkpt><trkpt lat="44.4768208" lon="10.8151276"><ele>462.5</ele><time>2026-05-02T14:38:38.241Z</time></trkpt><trkpt lat="44.476918" lon="10.8150817"><ele>462.0</ele><time>2026-05-02T14:38:39.172Z</time></trkpt><trkpt lat="44.477013" lon="10.8150487"><ele>460.20000000000005</ele><time>2026-05-02T14:38:40.232Z</time></trkpt><trkpt lat="44.4771179" lon="10.8150309"><ele>458.40000000000003</ele><time>2026-05-02T14:38:41.203Z</time></trkpt><trkpt lat="44.4772298" lon="10.8150196"><ele>456.59999999999997</ele><time>2026-05-02T14:38:42.243Z</time></trkpt><trkpt lat="44.4773414" lon="10.8150206"><ele>454.79999999999995</ele><time>2026-05-02T14:38:43.227Z</time></trkpt><trkpt lat="44.4774506" lon="10.8150293"><ele>453.0</ele><time>2026-05-02T14:38:44.233Z</time></trkpt><trkpt lat="44.4775594" lon="10.8150436"><ele>453.0</ele><time>2026-05-02T14:38:45.282Z</time></trkpt><trkpt lat="44.477667" lon="10.8150678"><ele>452.99999999999994</ele><time>2026-05-02T14:38:46.252Z</time></trkpt><trkpt lat="44.4777754" lon="10.8151076"><ele>452.99999999999994</ele><time>2026-05-02T14:38:47.18Z</time></trkpt><trkpt lat="44.4778796" lon="10.8151533"><ele>453.0</ele><time>2026-05-02T14:38:48.201Z</time></trkpt><trkpt lat="44.4779799" lon="10.8152064"><ele>453.0</ele><time>2026-05-02T14:38:49.247Z</time></trkpt><trkpt lat="44.4780751" lon="10.8152759"><ele>453.4</ele><time>2026-05-02T14:38:50.239Z</time></trkpt><trkpt lat="44.4781701" lon="10.8153625"><ele>453.79999999999995</ele><time>2026-05-02T14:38:51.215Z</time></trkpt><trkpt lat="44.4782568" lon="10.8154438"><ele>454.2</ele><time>2026-05-02T14:38:52.21Z</time></trkpt><trkpt lat="44.4783458" lon="10.8155017"><ele>454.6</ele><time>2026-05-02T14:38:53.277Z</time></trkpt><trkpt lat="44.4784478" lon="10.8155396"><ele>455.0</ele><time>2026-05-02T14:38:54.243Z</time></trkpt><trkpt lat="44.478551" lon="10.8155675"><ele>455.0</ele><time>2026-05-02T14:38:55.229Z</time></trkpt><trkpt lat="44.4786503" lon="10.8156028"><ele>455.0</ele><time>2026-05-02T14:38:56.242Z</time></trkpt><trkpt lat="44.4787531" lon="10.815652"><ele>455.0</ele><time>2026-05-02T14:38:57.215Z</time></trkpt><trkpt lat="44.4788525" lon="10.8157132"><ele>455.0</ele><time>2026-05-02T14:38:58.221Z</time></trkpt><trkpt lat="44.4789451" lon="10.8157867"><ele>455.0</ele><time>2026-05-02T14:38:59.224Z</time></trkpt><trkpt lat="44.4790259" lon="10.8158687"><ele>454.6</ele><time>2026-05-02T14:39:00.192Z</time></trkpt><trkpt lat="44.4790999" lon="10.8159583"><ele>454.2</ele><time>2026-05-02T14:39:01.247Z</time></trkpt><trkpt lat="44.4791762" lon="10.8160507"><ele>453.79999999999995</ele><time>2026-05-02T14:39:02.235Z</time></trkpt><trkpt lat="44.4792552" lon="10.8161423"><ele>453.4</ele><time>2026-05-02T14:39:03.243Z</time></trkpt><trkpt lat="44.4793363" lon="10.8162349"><ele>453.0</ele><time>2026-05-02T14:39:04.3Z</time></trkpt><trkpt lat="44.4794202" lon="10.8163247"><ele>453.0</ele><time>2026-05-02T14:39:05.223Z</time></trkpt><trkpt lat="44.4795101" lon="10.8164035"><ele>452.99999999999994</ele><time>2026-05-02T14:39:06.23Z</time></trkpt><trkpt lat="44.4796072" lon="10.8164733"><ele>452.99999999999994</ele><time>2026-05-02T14:39:07.252Z</time></trkpt><trkpt lat="44.4797077" lon="10.8165396"><ele>453.0</ele><time>2026-05-02T14:39:08.221Z</time></trkpt><trkpt lat="44.4798015" lon="10.8166003"><ele>453.0</ele><time>2026-05-02T14:39:09.252Z</time></trkpt><trkpt lat="44.4798967" lon="10.8166552"><ele>454.0</ele><time>2026-05-02T14:39:10.25Z</time></trkpt><trkpt lat="44.479999" lon="10.8167001"><ele>454.99999999999994</ele><time>2026-05-02T14:39:11.246Z</time></trkpt><trkpt lat="44.480104" lon="10.8167332"><ele>455.99999999999994</ele><time>2026-05-02T14:39:12.222Z</time></trkpt><trkpt lat="44.4802085" lon="10.8167559"><ele>457.0</ele><time>2026-05-02T14:39:13.173Z</time></trkpt><trkpt lat="44.4803159" lon="10.8167727"><ele>458.0</ele><time>2026-05-02T14:39:14.225Z</time></trkpt><trkpt lat="44.4804274" lon="10.8167927"><ele>456.66666666666663</ele><time>2026-05-02T14:39:15.24Z</time></trkpt><trkpt lat="44.4805321" lon="10.8168071"><ele>455.3333333333333</ele><time>2026-05-02T14:39:16.262Z</time></trkpt><trkpt lat="44.4806169" lon="10.8168256"><ele>454.0</ele><time>2026-05-02T14:39:17.268Z</time></trkpt><trkpt lat="44.4807019" lon="10.8168334"><ele>452.66666666666663</ele><time>2026-05-02T14:39:18.216Z</time></trkpt><trkpt lat="44.4807839" lon="10.816828"><ele>451.3333333333333</ele><time>2026-05-02T14:39:19.21Z</time></trkpt><trkpt lat="44.4808679" lon="10.8168225"><ele>450.0</ele><time>2026-05-02T14:39:20.215Z</time></trkpt><trkpt lat="44.4809424" lon="10.816827"><ele>450.0</ele><time>2026-05-02T14:39:21.199Z</time></trkpt><trkpt lat="44.4810167" lon="10.8168568"><ele>450.0</ele><time>2026-05-02T14:39:22.215Z</time></trkpt><trkpt lat="44.4810859" lon="10.816914"><ele>450.0</ele><time>2026-05-02T14:39:23.245Z</time></trkpt><trkpt lat="44.4811502" lon="10.8169796"><ele>450.0</ele><time>2026-05-02T14:39:24.248Z</time></trkpt><trkpt lat="44.4812174" lon="10.8170456"><ele>450.0</ele><time>2026-05-02T14:39:25.232Z</time></trkpt><trkpt lat="44.4812867" lon="10.8171108"><ele>450.0</ele><time>2026-05-02T14:39:26.203Z</time></trkpt><trkpt lat="44.4813598" lon="10.8171723"><ele>451.5</ele><time>2026-05-02T14:39:27.242Z</time></trkpt><trkpt lat="44.481437" lon="10.8172196"><ele>453.0</ele><time>2026-05-02T14:39:28.209Z</time></trkpt><trkpt lat="44.481518" lon="10.8172535"><ele>454.5</ele><time>2026-05-02T14:39:29.257Z</time></trkpt><trkpt lat="44.4816" lon="10.8172834"><ele>456.0</ele><time>2026-05-02T14:39:30.224Z</time></trkpt><trkpt lat="44.4816785" lon="10.8173237"><ele>457.5</ele><time>2026-05-02T14:39:31.227Z</time></trkpt><trkpt lat="44.4817548" lon="10.8173654"><ele>459.0</ele><time>2026-05-02T14:39:32.234Z</time></trkpt><trkpt lat="44.4818267" lon="10.8174036"><ele>459.0</ele><time>2026-05-02T14:39:33.219Z</time></trkpt><trkpt lat="44.4818957" lon="10.8174301"><ele>459.0</ele><time>2026-05-02T14:39:34.191Z</time></trkpt><trkpt lat="44.4819619" lon="10.8174435"><ele>459.0</ele><time>2026-05-02T14:39:35.237Z</time></trkpt><trkpt lat="44.4820848" lon="10.8174563"><ele>459.0</ele><time>2026-05-02T14:39:36.191Z</time></trkpt><trkpt lat="44.4822068" lon="10.8174463"><ele>459.0</ele><time>2026-05-02T14:39:37.227Z</time></trkpt><trkpt lat="44.4823162" lon="10.817434"><ele>458.4</ele><time>2026-05-02T14:39:38.211Z</time></trkpt><trkpt lat="44.4824166" lon="10.8174193"><ele>457.79999999999995</ele><time>2026-05-02T14:39:39.212Z</time></trkpt><trkpt lat="44.4825142" lon="10.8174105"><ele>457.20000000000005</ele><time>2026-05-02T14:39:40.244Z</time></trkpt><trkpt lat="44.4826083" lon="10.8174193"><ele>456.6</ele><time>2026-05-02T14:39:41.202Z</time></trkpt><trkpt lat="44.4827014" lon="10.8174533"><ele>456.0</ele><time>2026-05-02T14:39:42.231Z</time></trkpt><trkpt lat="44.4828012" lon="10.817486"><ele>456.0</ele><time>2026-05-02T14:39:43.259Z</time></trkpt><trkpt lat="44.4828967" lon="10.8175279"><ele>456.0</ele><time>2026-05-02T14:39:44.214Z</time></trkpt><trkpt lat="44.483002" lon="10.8175425"><ele>456.0</ele><time>2026-05-02T14:39:45.229Z</time></trkpt><trkpt lat="44.4830852" lon="10.8175572"><ele>456.0</ele><time>2026-05-02T14:39:46.238Z</time></trkpt><trkpt lat="44.4831693" lon="10.8175723"><ele>456.0</ele><time>2026-05-02T14:39:47.201Z</time></trkpt><trkpt lat="44.4832521" lon="10.8175787"><ele>456.4285714285714</ele><time>2026-05-02T14:39:48.217Z</time></trkpt><trkpt lat="44.4833357" lon="10.8175984"><ele>456.8571428571428</ele><time>2026-05-02T14:39:49.218Z</time></trkpt><trkpt lat="44.483408" lon="10.8176203"><ele>457.2857142857143</ele><time>2026-05-02T14:39:50.269Z</time></trkpt><trkpt lat="44.4834804" lon="10.8176442"><ele>457.71428571428567</ele><time>2026-05-02T14:39:51.228Z</time></trkpt><trkpt lat="44.4835486" lon="10.8176717"><ele>458.1428571428571</ele><time>2026-05-02T14:39:52.193Z</time></trkpt><trkpt lat="44.4836113" lon="10.8177062"><ele>458.57142857142856</ele><time>2026-05-02T14:39:53.229Z</time></trkpt><trkpt lat="44.4836695" lon="10.8177541"><ele>459.0</ele><time>2026-05-02T14:39:54.249Z</time></trkpt><trkpt lat="44.4837259" lon="10.8178258"><ele>459.2</ele><time>2026-05-02T14:39:55.236Z</time></trkpt><trkpt lat="44.4837852" lon="10.8179225"><ele>459.4</ele><time>2026-05-02T14:39:56.236Z</time></trkpt><trkpt lat="44.4838463" lon="10.8180428"><ele>459.6</ele><time>2026-05-02T14:39:57.242Z</time></trkpt><trkpt lat="44.4839151" lon="10.8181716"><ele>459.8</ele><time>2026-05-02T14:39:58.256Z</time></trkpt><trkpt lat="44.483981" lon="10.8183098"><ele>460.0</ele><time>2026-05-02T14:39:59.222Z</time></trkpt><trkpt lat="44.4840426" lon="10.8184529"><ele>458.0</ele><time>2026-05-02T14:40:00.192Z</time></trkpt><trkpt lat="44.4840926" lon="10.818593"><ele>456.0</ele><time>2026-05-02T14:40:01.242Z</time></trkpt><trkpt lat="44.4841353" lon="10.818728"><ele>454.0</ele><time>2026-05-02T14:40:02.231Z</time></trkpt><trkpt lat="44.4841711" lon="10.8188522"><ele>452.0</ele><time>2026-05-02T14:40:03.249Z</time></trkpt><trkpt lat="44.4842067" lon="10.8189617"><ele>450.0</ele><time>2026-05-02T14:40:04.238Z</time></trkpt><trkpt lat="44.4842387" lon="10.8190644"><ele>450.0</ele><time>2026-05-02T14:40:05.219Z</time></trkpt><trkpt lat="44.4842917" lon="10.8191809"><ele>450.0</ele><time>2026-05-02T14:40:06.189Z</time></trkpt><trkpt lat="44.4843434" lon="10.8192756"><ele>450.0</ele><time>2026-05-02T14:40:07.205Z</time></trkpt><trkpt lat="44.4844097" lon="10.8193667"><ele>450.0</ele><time>2026-05-02T14:40:08.169Z</time></trkpt><trkpt lat="44.4844889" lon="10.8194491"><ele>450.0</ele><time>2026-05-02T14:40:09.223Z</time></trkpt><trkpt lat="44.484563" lon="10.8195242"><ele>448.4</ele><time>2026-05-02T14:40:10.262Z</time></trkpt><trkpt lat="44.4846422" lon="10.8195938"><ele>446.8</ele><time>2026-05-02T14:40:11.255Z</time></trkpt><trkpt lat="44.4847357" lon="10.8196795"><ele>445.20000000000005</ele><time>2026-05-02T14:40:12.218Z</time></trkpt><trkpt lat="44.4848192" lon="10.8197599"><ele>443.6</ele><time>2026-05-02T14:40:13.205Z</time></trkpt><trkpt lat="44.4849013" lon="10.8198412"><ele>442.0</ele><time>2026-05-02T14:40:14.238Z</time></trkpt><trkpt lat="44.4849945" lon="10.8199323"><ele>442.0</ele><time>2026-05-02T14:40:15.259Z</time></trkpt><trkpt lat="44.4850859" lon="10.8200073"><ele>442.00000000000006</ele><time>2026-05-02T14:40:16.233Z</time></trkpt><trkpt lat="44.4851676" lon="10.8200573"><ele>442.00000000000006</ele><time>2026-05-02T14:40:17.231Z</time></trkpt><trkpt lat="44.4852454" lon="10.8201"><ele>442.0</ele><time>2026-05-02T14:40:18.229Z</time></trkpt><trkpt lat="44.4853278" lon="10.820139"><ele>442.0</ele><time>2026-05-02T14:40:19.233Z</time></trkpt><trkpt lat="44.4854054" lon="10.8201907"><ele>438.20000000000005</ele><time>2026-05-02T14:40:20.237Z</time></trkpt><trkpt lat="44.4854835" lon="10.8202556"><ele>434.40000000000003</ele><time>2026-05-02T14:40:21.18Z</time></trkpt><trkpt lat="44.4855558" lon="10.8203208"><ele>430.6</ele><time>2026-05-02T14:40:22.212Z</time></trkpt><trkpt lat="44.4856377" lon="10.8204078"><ele>426.79999999999995</ele><time>2026-05-02T14:40:23.21Z</time></trkpt><trkpt lat="44.4857136" lon="10.820491"><ele>423.0</ele><time>2026-05-02T14:40:24.225Z</time></trkpt><trkpt lat="44.4857748" lon="10.8205697"><ele>423.0</ele><time>2026-05-02T14:40:25.21Z</time></trkpt><trkpt lat="44.4858528" lon="10.8206383"><ele>423.0</ele><time>2026-05-02T14:40:26.201Z</time></trkpt><trkpt lat="44.4859238" lon="10.8206802"><ele>423.0</ele><time>2026-05-02T14:40:27.255Z</time></trkpt><trkpt lat="44.4859929" lon="10.8207182"><ele>423.0</ele><time>2026-05-02T14:40:28.217Z</time></trkpt><trkpt lat="44.4860948" lon="10.8208152"><ele>423.0</ele><time>2026-05-02T14:40:30.208Z</time></trkpt><trkpt lat="44.4861401" lon="10.8208908"><ele>423.0</ele><time>2026-05-02T14:40:31.245Z</time></trkpt><trkpt lat="44.4861541" lon="10.8209806"><ele>422.3333333333333</ele><time>2026-05-02T14:40:32.214Z</time></trkpt><trkpt lat="44.4861527" lon="10.8210698"><ele>421.66666666666663</ele><time>2026-05-02T14:40:33.243Z</time></trkpt><trkpt lat="44.4861481" lon="10.8212089"><ele>421.0</ele><time>2026-05-02T14:40:35.22Z</time></trkpt><trkpt lat="44.4861157" lon="10.821383"><ele>420.3333333333333</ele><time>2026-05-02T14:40:37.215Z</time></trkpt><trkpt lat="44.4861123" lon="10.8214716"><ele>419.66666666666663</ele><time>2026-05-02T14:40:38.23Z</time></trkpt><trkpt lat="44.4861385" lon="10.8215651"><ele>419.0</ele><time>2026-05-02T14:40:39.192Z</time></trkpt><trkpt lat="44.4861719" lon="10.8216477"><ele>418.99999999999994</ele><time>2026-05-02T14:40:40.209Z</time></trkpt><trkpt lat="44.4862162" lon="10.8217177"><ele>419.0</ele><time>2026-05-02T14:40:41.208Z</time></trkpt><trkpt lat="44.4862784" lon="10.8217739"><ele>419.0</ele><time>2026-05-02T14:40:42.222Z</time></trkpt><trkpt lat="44.4863558" lon="10.821831"><ele>419.0</ele><time>2026-05-02T14:40:43.263Z</time></trkpt><trkpt lat="44.4864362" lon="10.8218849"><ele>418.99999999999994</ele><time>2026-05-02T14:40:44.235Z</time></trkpt><trkpt lat="44.4865084" lon="10.8219409"><ele>419.0</ele><time>2026-05-02T14:40:45.251Z</time></trkpt><trkpt lat="44.4865849" lon="10.8219925"><ele>419.2857142857143</ele><time>2026-05-02T14:40:46.242Z</time></trkpt><trkpt lat="44.4866471" lon="10.8220345"><ele>419.57142857142856</ele><time>2026-05-02T14:40:47.179Z</time></trkpt><trkpt lat="44.4867073" lon="10.8220732"><ele>419.8571428571429</ele><time>2026-05-02T14:40:48.229Z</time></trkpt><trkpt lat="44.4867684" lon="10.8221229"><ele>420.1428571428571</ele><time>2026-05-02T14:40:49.226Z</time></trkpt><trkpt lat="44.4868274" lon="10.8221793"><ele>420.42857142857144</ele><time>2026-05-02T14:40:50.226Z</time></trkpt><trkpt lat="44.4869001" lon="10.8222392"><ele>420.7142857142857</ele><time>2026-05-02T14:40:51.224Z</time></trkpt><trkpt lat="44.4869669" lon="10.8223051"><ele>421.0</ele><time>2026-05-02T14:40:52.288Z</time></trkpt><trkpt lat="44.4870371" lon="10.8223742"><ele>420.1666666666667</ele><time>2026-05-02T14:40:53.223Z</time></trkpt><trkpt lat="44.4871133" lon="10.8224347"><ele>419.33333333333337</ele><time>2026-05-02T14:40:54.216Z</time></trkpt><trkpt lat="44.4871919" lon="10.8224928"><ele>418.5</ele><time>2026-05-02T14:40:55.189Z</time></trkpt><trkpt lat="44.4872725" lon="10.8225435"><ele>417.66666666666663</ele><time>2026-05-02T14:40:56.208Z</time></trkpt><trkpt lat="44.48735" lon="10.8225943"><ele>416.8333333333333</ele><time>2026-05-02T14:40:57.223Z</time></trkpt><trkpt lat="44.4874239" lon="10.8226514"><ele>416.0</ele><time>2026-05-02T14:40:58.236Z</time></trkpt><trkpt lat="44.4874882" lon="10.8227206"><ele>415.99999999999994</ele><time>2026-05-02T14:40:59.226Z</time></trkpt><trkpt lat="44.4875439" lon="10.8227991"><ele>416.0</ele><time>2026-05-02T14:41:00.2Z</time></trkpt><trkpt lat="44.4875915" lon="10.8228788"><ele>416.0</ele><time>2026-05-02T14:41:01.201Z</time></trkpt><trkpt lat="44.4876259" lon="10.8229641"><ele>416.0</ele><time>2026-05-02T14:41:02.221Z</time></trkpt><trkpt lat="44.4876579" lon="10.8230498"><ele>415.99999999999994</ele><time>2026-05-02T14:41:03.213Z</time></trkpt><trkpt lat="44.4877027" lon="10.8232064"><ele>416.0</ele><time>2026-05-02T14:41:05.231Z</time></trkpt><trkpt lat="44.4877409" lon="10.8233583"><ele>412.8333333333333</ele><time>2026-05-02T14:41:07.219Z</time></trkpt><trkpt lat="44.4878229" lon="10.8234817"><ele>409.66666666666663</ele><time>2026-05-02T14:41:09.226Z</time></trkpt><trkpt lat="44.487891" lon="10.8235065"><ele>406.5</ele><time>2026-05-02T14:41:10.22Z</time></trkpt><trkpt lat="44.4879681" lon="10.8235285"><ele>403.33333333333337</ele><time>2026-05-02T14:41:11.236Z</time></trkpt><trkpt lat="44.4880364" lon="10.8235414"><ele>400.1666666666667</ele><time>2026-05-02T14:41:12.244Z</time></trkpt><trkpt lat="44.4881121" lon="10.8235557"><ele>397.0</ele><time>2026-05-02T14:41:13.211Z</time></trkpt><trkpt lat="44.4881968" lon="10.8235968"><ele>397.00000000000006</ele><time>2026-05-02T14:41:14.218Z</time></trkpt><trkpt lat="44.4882692" lon="10.8236407"><ele>397.0</ele><time>2026-05-02T14:41:15.21Z</time></trkpt><trkpt lat="44.4883579" lon="10.8236974"><ele>397.0</ele><time>2026-05-02T14:41:16.201Z</time></trkpt><trkpt lat="44.4884414" lon="10.8237524"><ele>397.0</ele><time>2026-05-02T14:41:17.248Z</time></trkpt><trkpt lat="44.4885215" lon="10.8238152"><ele>397.00000000000006</ele><time>2026-05-02T14:41:18.231Z</time></trkpt><trkpt lat="44.4885977" lon="10.8238696"><ele>397.0</ele><time>2026-05-02T14:41:19.242Z</time></trkpt><trkpt lat="44.488676" lon="10.8239172"><ele>397.00000000000006</ele><time>2026-05-02T14:41:20.213Z</time></trkpt><trkpt lat="44.4887428" lon="10.8239606"><ele>397.0</ele><time>2026-05-02T14:41:21.19Z</time></trkpt><trkpt lat="44.4888142" lon="10.8240013"><ele>397.0</ele><time>2026-05-02T14:41:22.215Z</time></trkpt><trkpt lat="44.4888883" lon="10.8240415"><ele>397.0</ele><time>2026-05-02T14:41:23.269Z</time></trkpt><trkpt lat="44.4889582" lon="10.82406"><ele>397.00000000000006</ele><time>2026-05-02T14:41:24.235Z</time></trkpt><trkpt lat="44.4890857" lon="10.82409"><ele>397.0</ele><time>2026-05-02T14:41:26.232Z</time></trkpt><trkpt lat="44.4891501" lon="10.8241065"><ele>397.1666666666667</ele><time>2026-05-02T14:41:27.206Z</time></trkpt><trkpt lat="44.4892127" lon="10.8241173"><ele>397.33333333333337</ele><time>2026-05-02T14:41:28.272Z</time></trkpt><trkpt lat="44.4892772" lon="10.8241221"><ele>397.5</ele><time>2026-05-02T14:41:29.189Z</time></trkpt><trkpt lat="44.4893844" lon="10.824122"><ele>397.66666666666663</ele><time>2026-05-02T14:41:31.215Z</time></trkpt><trkpt lat="44.4895058" lon="10.824052"><ele>397.8333333333333</ele><time>2026-05-02T14:41:33.211Z</time></trkpt><trkpt lat="44.4895707" lon="10.8239897"><ele>398.0</ele><time>2026-05-02T14:41:34.18Z</time></trkpt><trkpt lat="44.4896468" lon="10.8239161"><ele>393.16666666666663</ele><time>2026-05-02T14:41:35.235Z</time></trkpt><trkpt lat="44.4897116" lon="10.823846"><ele>388.3333333333333</ele><time>2026-05-02T14:41:36.267Z</time></trkpt><trkpt lat="44.4897832" lon="10.8237945"><ele>383.5</ele><time>2026-05-02T14:41:37.237Z</time></trkpt><trkpt lat="44.4898552" lon="10.8237398"><ele>378.66666666666663</ele><time>2026-05-02T14:41:38.194Z</time></trkpt><trkpt lat="44.4899283" lon="10.8236859"><ele>373.8333333333333</ele><time>2026-05-02T14:41:39.243Z</time></trkpt><trkpt lat="44.4899935" lon="10.8236521"><ele>369.0</ele><time>2026-05-02T14:41:40.228Z</time></trkpt><trkpt lat="44.490074" lon="10.8236397"><ele>369.0</ele><time>2026-05-02T14:41:41.227Z</time></trkpt><trkpt lat="44.4901509" lon="10.8236532"><ele>369.0</ele><time>2026-05-02T14:41:42.179Z</time></trkpt><trkpt lat="44.4902334" lon="10.8236827"><ele>369.0</ele><time>2026-05-02T14:41:43.226Z</time></trkpt><trkpt lat="44.4903451" lon="10.8237268"><ele>369.0</ele><time>2026-05-02T14:41:45.22Z</time></trkpt><trkpt lat="44.4904767" lon="10.82371"><ele>369.0</ele><time>2026-05-02T14:41:47.172Z</time></trkpt><trkpt lat="44.4905725" lon="10.8236565"><ele>367.0</ele><time>2026-05-02T14:41:49.247Z</time></trkpt><trkpt lat="44.4906707" lon="10.8236167"><ele>365.0</ele><time>2026-05-02T14:41:51.246Z</time></trkpt><trkpt lat="44.4907876" lon="10.8236736"><ele>363.0</ele><time>2026-05-02T14:41:53.305Z</time></trkpt><trkpt lat="44.4908948" lon="10.823735"><ele>361.0</ele><time>2026-05-02T14:41:55.19Z</time></trkpt><trkpt lat="44.4909842" lon="10.8237254"><ele>359.0</ele><time>2026-05-02T14:41:57.207Z</time></trkpt><trkpt lat="44.4911039" lon="10.8237144"><ele>359.0</ele><time>2026-05-02T14:41:59.188Z</time></trkpt><trkpt lat="44.4912258" lon="10.8237327"><ele>359.0</ele><time>2026-05-02T14:42:01.234Z</time></trkpt><trkpt lat="44.4913123" lon="10.8237956"><ele>359.0</ele><time>2026-05-02T14:42:02.239Z</time></trkpt><trkpt lat="44.4913792" lon="10.8238426"><ele>359.0</ele><time>2026-05-02T14:42:03.209Z</time></trkpt><trkpt lat="44.4914473" lon="10.8238859"><ele>359.0</ele><time>2026-05-02T14:42:04.214Z</time></trkpt><trkpt lat="44.4915493" lon="10.8239215"><ele>359.0</ele><time>2026-05-02T14:42:06.251Z</time></trkpt><trkpt lat="44.4916198" lon="10.8239446"><ele>359.0</ele><time>2026-05-02T14:42:07.242Z</time></trkpt><trkpt lat="44.4916761" lon="10.8239858"><ele>359.0</ele><time>2026-05-02T14:42:08.175Z</time></trkpt><trkpt lat="44.4917176" lon="10.8240583"><ele>359.0</ele><time>2026-05-02T14:42:09.286Z</time></trkpt><trkpt lat="44.4917475" lon="10.824142"><ele>359.0</ele><time>2026-05-02T14:42:10.209Z</time></trkpt><trkpt lat="44.4918373" lon="10.8242538"><ele>359.0</ele><time>2026-05-02T14:42:12.233Z</time></trkpt><trkpt lat="44.4919096" lon="10.8242763"><ele>359.0</ele><time>2026-05-02T14:42:13.22Z</time></trkpt><trkpt lat="44.4919837" lon="10.8242804"><ele>359.0</ele><time>2026-05-02T14:42:14.208Z</time></trkpt><trkpt lat="44.4920485" lon="10.8242837"><ele>359.0</ele><time>2026-05-02T14:42:15.192Z</time></trkpt><trkpt lat="44.4921518" lon="10.8243271"><ele>359.0</ele><time>2026-05-02T14:42:17.234Z</time></trkpt><trkpt lat="44.4922021" lon="10.8244809"><ele>359.0</ele><time>2026-05-02T14:42:19.202Z</time></trkpt><trkpt lat="44.4922061" lon="10.8245763"><ele>359.0</ele><time>2026-05-02T14:42:20.201Z</time></trkpt><trkpt lat="44.4922151" lon="10.8246747"><ele>361.0</ele><time>2026-05-02T14:42:21.18Z</time></trkpt><trkpt lat="44.4922408" lon="10.8247721"><ele>363.0</ele><time>2026-05-02T14:42:22.284Z</time></trkpt><trkpt lat="44.4922796" lon="10.8248558"><ele>365.0</ele><time>2026-05-02T14:42:23.21Z</time></trkpt><trkpt lat="44.492323" lon="10.8249206"><ele>367.0</ele><time>2026-05-02T14:42:24.245Z</time></trkpt><trkpt lat="44.4924875" lon="10.8249952"><ele>369.0</ele><time>2026-05-02T14:42:27.203Z</time></trkpt><trkpt lat="44.4925542" lon="10.825016"><ele>369.0</ele><time>2026-05-02T14:42:28.225Z</time></trkpt><trkpt lat="44.4926219" lon="10.8250471"><ele>369.0</ele><time>2026-05-02T14:42:29.206Z</time></trkpt><trkpt lat="44.492688" lon="10.8250793"><ele>369.0</ele><time>2026-05-02T14:42:30.212Z</time></trkpt><trkpt lat="44.4927523" lon="10.8251084"><ele>369.0</ele><time>2026-05-02T14:42:31.26Z</time></trkpt><trkpt lat="44.492817" lon="10.8251351"><ele>369.0</ele><time>2026-05-02T14:42:32.259Z</time></trkpt><trkpt lat="44.4928806" lon="10.8251663"><ele>369.0</ele><time>2026-05-02T14:42:33.244Z</time></trkpt><trkpt lat="44.4929757" lon="10.8252561"><ele>368.57142857142856</ele><time>2026-05-02T14:42:35.245Z</time></trkpt><trkpt lat="44.4930362" lon="10.8253605"><ele>368.1428571428571</ele><time>2026-05-02T14:42:37.233Z</time></trkpt><trkpt lat="44.4930922" lon="10.8254327"><ele>367.7142857142857</ele><time>2026-05-02T14:42:39.202Z</time></trkpt><trkpt lat="44.4931533" lon="10.8254993"><ele>367.2857142857143</ele><time>2026-05-02T14:42:48.194Z</time></trkpt><trkpt lat="44.4932059" lon="10.8255526"><ele>366.8571428571429</ele><time>2026-05-02T14:42:50.224Z</time></trkpt><trkpt lat="44.4932509" lon="10.8256158"><ele>366.42857142857144</ele><time>2026-05-02T14:42:52.203Z</time></trkpt><trkpt lat="44.4932925" lon="10.8256957"><ele>366.0</ele><time>2026-05-02T14:42:54.201Z</time></trkpt><trkpt lat="44.4933235" lon="10.8257988"><ele>366.0</ele><time>2026-05-02T14:42:56.21Z</time></trkpt><trkpt lat="44.4933541" lon="10.8259162"><ele>366.0</ele><time>2026-05-02T14:42:58.215Z</time></trkpt><trkpt lat="44.4933961" lon="10.8260351"><ele>366.0</ele><time>2026-05-02T14:43:00.197Z</time></trkpt><trkpt lat="44.4934523" lon="10.8261488"><ele>366.0</ele><time>2026-05-02T14:43:02.213Z</time></trkpt><trkpt lat="44.4935289" lon="10.8262646"><ele>366.0</ele><time>2026-05-02T14:43:04.231Z</time></trkpt><trkpt lat="44.4936134" lon="10.8263766"><ele>363.8</ele><time>2026-05-02T14:43:06.238Z</time></trkpt><trkpt lat="44.4937065" lon="10.8264942"><ele>361.6</ele><time>2026-05-02T14:43:08.225Z</time></trkpt><trkpt lat="44.4937586" lon="10.8265521"><ele>359.4</ele><time>2026-05-02T14:43:09.225Z</time></trkpt><trkpt lat="44.4938526" lon="10.8266557"><ele>357.2</ele><time>2026-05-02T14:43:11.227Z</time></trkpt><trkpt lat="44.4939346" lon="10.8267831"><ele>355.0</ele><time>2026-05-02T14:43:13.198Z</time></trkpt><trkpt lat="44.4939757" lon="10.8268529"><ele>353.5</ele><time>2026-05-02T14:43:14.272Z</time></trkpt><trkpt lat="44.4940148" lon="10.8269226"><ele>352.0</ele><time>2026-05-02T14:43:15.226Z</time></trkpt><trkpt lat="44.4940806" lon="10.8270703"><ele>350.5</ele><time>2026-05-02T14:43:17.22Z</time></trkpt><trkpt lat="44.4941106" lon="10.8271514"><ele>349.0</ele><time>2026-05-02T14:43:18.199Z</time></trkpt><trkpt lat="44.4941427" lon="10.8272458"><ele>347.5</ele><time>2026-05-02T14:43:19.242Z</time></trkpt><trkpt lat="44.4941774" lon="10.8273458"><ele>346.0</ele><time>2026-05-02T14:43:20.227Z</time></trkpt><trkpt lat="44.494211" lon="10.8274429"><ele>346.0</ele><time>2026-05-02T14:43:21.195Z</time></trkpt><trkpt lat="44.4942436" lon="10.8275378"><ele>346.0</ele><time>2026-05-02T14:43:22.195Z</time></trkpt><trkpt lat="44.4942788" lon="10.8276203"><ele>346.0</ele><time>2026-05-02T14:43:23.19Z</time></trkpt><trkpt lat="44.494321" lon="10.8276885"><ele>346.0</ele><time>2026-05-02T14:43:24.189Z</time></trkpt><trkpt lat="44.494369" lon="10.8277512"><ele>346.0</ele><time>2026-05-02T14:43:25.217Z</time></trkpt><trkpt lat="44.4944189" lon="10.8278147"><ele>346.0</ele><time>2026-05-02T14:43:26.192Z</time></trkpt><trkpt lat="44.4944728" lon="10.827879"><ele>346.0</ele><time>2026-05-02T14:43:27.235Z</time></trkpt><trkpt lat="44.4945284" lon="10.8279488"><ele>344.5</ele><time>2026-05-02T14:43:28.205Z</time></trkpt><trkpt lat="44.4945825" lon="10.828027"><ele>343.0</ele><time>2026-05-02T14:43:29.253Z</time></trkpt><trkpt lat="44.4946313" lon="10.8281164"><ele>341.5</ele><time>2026-05-02T14:43:30.253Z</time></trkpt><trkpt lat="44.4946775" lon="10.8282147"><ele>340.0</ele><time>2026-05-02T14:43:31.207Z</time></trkpt><trkpt lat="44.4947192" lon="10.8283186"><ele>338.5</ele><time>2026-05-02T14:43:32.252Z</time></trkpt><trkpt lat="44.4947596" lon="10.8284253"><ele>337.0</ele><time>2026-05-02T14:43:33.275Z</time></trkpt><trkpt lat="44.494802" lon="10.8285317"><ele>336.20000000000005</ele><time>2026-05-02T14:43:34.205Z</time></trkpt><trkpt lat="44.4948501" lon="10.8286462"><ele>335.4</ele><time>2026-05-02T14:43:35.239Z</time></trkpt><trkpt lat="44.4949026" lon="10.8287656"><ele>334.6</ele><time>2026-05-02T14:43:36.209Z</time></trkpt><trkpt lat="44.4949555" lon="10.8288804"><ele>333.79999999999995</ele><time>2026-05-02T14:43:37.22Z</time></trkpt><trkpt lat="44.4950073" lon="10.8289909"><ele>333.0</ele><time>2026-05-02T14:43:38.252Z</time></trkpt><trkpt lat="44.4950605" lon="10.8290928"><ele>333.0</ele><time>2026-05-02T14:43:39.203Z</time></trkpt><trkpt lat="44.4951218" lon="10.8291856"><ele>333.0</ele><time>2026-05-02T14:43:40.205Z</time></trkpt><trkpt lat="44.4951911" lon="10.8292724"><ele>333.0</ele><time>2026-05-02T14:43:41.254Z</time></trkpt><trkpt lat="44.4952614" lon="10.8293525"><ele>333.0</ele><time>2026-05-02T14:43:42.229Z</time></trkpt><trkpt lat="44.4953273" lon="10.8294323"><ele>333.0</ele><time>2026-05-02T14:43:43.273Z</time></trkpt><trkpt lat="44.4953851" lon="10.8295169"><ele>333.0</ele><time>2026-05-02T14:43:44.221Z</time></trkpt><trkpt lat="44.4954327" lon="10.8296008"><ele>331.2</ele><time>2026-05-02T14:43:45.246Z</time></trkpt><trkpt lat="44.4954693" lon="10.8296739"><ele>329.4</ele><time>2026-05-02T14:43:46.2Z</time></trkpt><trkpt lat="44.4955436" lon="10.8297899"><ele>327.59999999999997</ele><time>2026-05-02T14:43:48.248Z</time></trkpt><trkpt lat="44.4956117" lon="10.8299092"><ele>325.79999999999995</ele><time>2026-05-02T14:43:50.261Z</time></trkpt><trkpt lat="44.4956695" lon="10.8300432"><ele>324.0</ele><time>2026-05-02T14:43:52.189Z</time></trkpt><trkpt lat="44.4957333" lon="10.8301518"><ele>322.59999999999997</ele><time>2026-05-02T14:43:54.249Z</time></trkpt><trkpt lat="44.4958118" lon="10.8301967"><ele>321.2</ele><time>2026-05-02T14:43:56.221Z</time></trkpt><trkpt lat="44.4959116" lon="10.830224"><ele>319.79999999999995</ele><time>2026-05-02T14:43:58.242Z</time></trkpt><trkpt lat="44.4959982" lon="10.8302961"><ele>318.4</ele><time>2026-05-02T14:44:00.195Z</time></trkpt><trkpt lat="44.4960615" lon="10.8303994"><ele>317.0</ele><time>2026-05-02T14:44:02.254Z</time></trkpt><trkpt lat="44.4961128" lon="10.8304912"><ele>317.0</ele><time>2026-05-02T14:44:04.209Z</time></trkpt><trkpt lat="44.4961674" lon="10.8305828"><ele>317.0</ele><time>2026-05-02T14:44:06.203Z</time></trkpt><trkpt lat="44.496239" lon="10.8306579"><ele>317.0</ele><time>2026-05-02T14:44:08.223Z</time></trkpt><trkpt lat="44.4963027" lon="10.8306759"><ele>317.0</ele><time>2026-05-02T14:44:10.209Z</time></trkpt><trkpt lat="44.4963538" lon="10.8307534"><ele>317.0</ele><time>2026-05-02T14:44:12.243Z</time></trkpt><trkpt lat="44.4964048" lon="10.8309272"><ele>317.0</ele><time>2026-05-02T14:44:14.191Z</time></trkpt><trkpt lat="44.4964224" lon="10.8310829"><ele>314.33333333333337</ele><time>2026-05-02T14:44:16.241Z</time></trkpt><trkpt lat="44.496409" lon="10.8311707"><ele>311.6666666666667</ele><time>2026-05-02T14:44:17.229Z</time></trkpt><trkpt lat="44.496397" lon="10.8312589"><ele>309.0</ele><time>2026-05-02T14:44:18.206Z</time></trkpt><trkpt lat="44.4963609" lon="10.8313871"><ele>306.3333333333333</ele><time>2026-05-02T14:44:20.245Z</time></trkpt><trkpt lat="44.4963268" lon="10.8315177"><ele>303.66666666666663</ele><time>2026-05-02T14:44:22.224Z</time></trkpt><trkpt lat="44.4962568" lon="10.8316489"><ele>301.0</ele><time>2026-05-02T14:44:24.252Z</time></trkpt><trkpt lat="44.4962167" lon="10.8317622"><ele>301.0</ele><time>2026-05-02T14:44:26.187Z</time></trkpt><trkpt lat="44.4962952" lon="10.8318389"><ele>301.0</ele><time>2026-05-02T14:44:28.211Z</time></trkpt><trkpt lat="44.4963878" lon="10.8318486"><ele>301.0</ele><time>2026-05-02T14:44:30.216Z</time></trkpt><trkpt lat="44.4964979" lon="10.8317965"><ele>301.0</ele><time>2026-05-02T14:44:32.219Z</time></trkpt><trkpt lat="44.4966135" lon="10.8317322"><ele>301.0</ele><time>2026-05-02T14:44:34.199Z</time></trkpt><trkpt lat="44.4966866" lon="10.8316959"><ele>301.0</ele><time>2026-05-02T14:44:35.207Z</time></trkpt><trkpt lat="44.4967485" lon="10.8316576"><ele>301.0</ele><time>2026-05-02T14:44:36.227Z</time></trkpt><trkpt lat="44.4968141" lon="10.8316175"><ele>301.0</ele><time>2026-05-02T14:44:37.243Z</time></trkpt><trkpt lat="44.4968745" lon="10.8315734"><ele>301.0</ele><time>2026-05-02T14:44:38.209Z</time></trkpt><trkpt lat="44.4969303" lon="10.8315281"><ele>301.0</ele><time>2026-05-02T14:44:39.185Z</time></trkpt><trkpt lat="44.4970386" lon="10.8314343"><ele>301.0</ele><time>2026-05-02T14:44:41.223Z</time></trkpt><trkpt lat="44.4971479" lon="10.8313561"><ele>298.66666666666663</ele><time>2026-05-02T14:44:43.21Z</time></trkpt><trkpt lat="44.4972067" lon="10.8313143"><ele>296.3333333333333</ele><time>2026-05-02T14:44:44.212Z</time></trkpt><trkpt lat="44.4972657" lon="10.8312678"><ele>294.0</ele><time>2026-05-02T14:44:45.245Z</time></trkpt><trkpt lat="44.4973259" lon="10.8312124"><ele>291.6666666666667</ele><time>2026-05-02T14:44:46.238Z</time></trkpt><trkpt lat="44.4973735" lon="10.8311542"><ele>289.33333333333337</ele><time>2026-05-02T14:44:47.192Z</time></trkpt><trkpt lat="44.4974545" lon="10.8310723"><ele>287.0</ele><time>2026-05-02T14:44:49.268Z</time></trkpt><trkpt lat="44.4975564" lon="10.8309954"><ele>287.0</ele><time>2026-05-02T14:44:51.22Z</time></trkpt><trkpt lat="44.4976319" lon="10.8310143"><ele>287.0</ele><time>2026-05-02T14:44:52.205Z</time></trkpt><trkpt lat="44.4977174" lon="10.8310354"><ele>287.0</ele><time>2026-05-02T14:44:53.235Z</time></trkpt><trkpt lat="44.4978087" lon="10.8310566"><ele>287.0</ele><time>2026-05-02T14:44:54.242Z</time></trkpt><trkpt lat="44.4979064" lon="10.8310786"><ele>287.0</ele><time>2026-05-02T14:44:55.216Z</time></trkpt><trkpt lat="44.4980016" lon="10.8311015"><ele>286.4</ele><time>2026-05-02T14:44:56.243Z</time></trkpt><trkpt lat="44.4980926" lon="10.8311168"><ele>285.79999999999995</ele><time>2026-05-02T14:44:57.25Z</time></trkpt><trkpt lat="44.4981869" lon="10.831126"><ele>285.2</ele><time>2026-05-02T14:44:58.211Z</time></trkpt><trkpt lat="44.498285" lon="10.8311317"><ele>284.59999999999997</ele><time>2026-05-02T14:44:59.249Z</time></trkpt><trkpt lat="44.4983859" lon="10.8311377"><ele>284.0</ele><time>2026-05-02T14:45:00.187Z</time></trkpt><trkpt lat="44.4984831" lon="10.8311456"><ele>284.0</ele><time>2026-05-02T14:45:01.208Z</time></trkpt><trkpt lat="44.4985816" lon="10.8311565"><ele>284.0</ele><time>2026-05-02T14:45:02.232Z</time></trkpt><trkpt lat="44.498681" lon="10.8311681"><ele>284.0</ele><time>2026-05-02T14:45:03.22Z</time></trkpt><trkpt lat="44.4987835" lon="10.8311795"><ele>284.0</ele><time>2026-05-02T14:45:04.241Z</time></trkpt><trkpt lat="44.4988779" lon="10.8311893"><ele>284.0</ele><time>2026-05-02T14:45:05.223Z</time></trkpt><trkpt lat="44.4989604" lon="10.8311965"><ele>281.83333333333337</ele><time>2026-05-02T14:45:06.251Z</time></trkpt><trkpt lat="44.4990276" lon="10.8312032"><ele>279.6666666666667</ele><time>2026-05-02T14:45:07.3Z</time></trkpt><trkpt lat="44.4991094" lon="10.8312408"><ele>277.5</ele><time>2026-05-02T14:45:09.232Z</time></trkpt><trkpt lat="44.4991238" lon="10.8313478"><ele>275.3333333333333</ele><time>2026-05-02T14:45:11.238Z</time></trkpt><trkpt lat="44.4990832" lon="10.8314779"><ele>273.16666666666663</ele><time>2026-05-02T14:45:13.179Z</time></trkpt><trkpt lat="44.4990526" lon="10.8315632"><ele>271.0</ele><time>2026-05-02T14:45:14.229Z</time></trkpt><trkpt lat="44.4990087" lon="10.8316873"><ele>268.75</ele><time>2026-05-02T14:45:15.208Z</time></trkpt><trkpt lat="44.4989522" lon="10.8318525"><ele>266.5</ele><time>2026-05-02T14:45:16.185Z</time></trkpt><trkpt lat="44.498892" lon="10.8320294"><ele>264.25</ele><time>2026-05-02T14:45:17.258Z</time></trkpt><trkpt lat="44.4988303" lon="10.8322137"><ele>262.0</ele><time>2026-05-02T14:45:18.228Z</time></trkpt><trkpt lat="44.4987685" lon="10.8324005"><ele>263.0</ele><time>2026-05-02T14:45:19.243Z</time></trkpt><trkpt lat="44.4987065" lon="10.832584"><ele>264.0</ele><time>2026-05-02T14:45:20.214Z</time></trkpt><trkpt lat="44.4986477" lon="10.8327623"><ele>265.0</ele><time>2026-05-02T14:45:21.187Z</time></trkpt><trkpt lat="44.4985901" lon="10.8329331"><ele>266.0</ele><time>2026-05-02T14:45:22.228Z</time></trkpt><trkpt lat="44.4985432" lon="10.8330903"><ele>266.0</ele><time>2026-05-02T14:45:23.225Z</time></trkpt><trkpt lat="44.4985065" lon="10.8332359"><ele>266.0</ele><time>2026-05-02T14:45:24.214Z</time></trkpt><trkpt lat="44.4984743" lon="10.8333722"><ele>266.0</ele><time>2026-05-02T14:45:25.221Z</time></trkpt><trkpt lat="44.4984455" lon="10.8334964"><ele>266.0</ele><time>2026-05-02T14:45:26.206Z</time></trkpt><trkpt lat="44.498416" lon="10.8336095"><ele>266.0</ele><time>2026-05-02T14:45:27.236Z</time></trkpt><trkpt lat="44.4983758" lon="10.8337137"><ele>264.40000000000003</ele><time>2026-05-02T14:45:28.258Z</time></trkpt><trkpt lat="44.4983125" lon="10.8338282"><ele>262.8</ele><time>2026-05-02T14:45:29.209Z</time></trkpt><trkpt lat="44.498247" lon="10.8339517"><ele>261.20000000000005</ele><time>2026-05-02T14:45:30.28Z</time></trkpt><trkpt lat="44.4981752" lon="10.8340534"><ele>259.6</ele><time>2026-05-02T14:45:31.211Z</time></trkpt><trkpt lat="44.4980856" lon="10.8341567"><ele>258.0</ele><time>2026-05-02T14:45:32.22Z</time></trkpt><trkpt lat="44.497992" lon="10.8342824"><ele>257.4</ele><time>2026-05-02T14:45:33.214Z</time></trkpt><trkpt lat="44.4978943" lon="10.834398"><ele>256.8</ele><time>2026-05-02T14:45:34.176Z</time></trkpt><trkpt lat="44.4978094" lon="10.8344962"><ele>256.2</ele><time>2026-05-02T14:45:35.255Z</time></trkpt><trkpt lat="44.49775" lon="10.8345777"><ele>255.6</ele><time>2026-05-02T14:45:36.219Z</time></trkpt><trkpt lat="44.4976931" lon="10.834655"><ele>255.0</ele><time>2026-05-02T14:45:37.251Z</time></trkpt><trkpt lat="44.4976445" lon="10.8347342"><ele>255.0</ele><time>2026-05-02T14:45:38.239Z</time></trkpt><trkpt lat="44.497598" lon="10.8348061"><ele>255.0</ele><time>2026-05-02T14:45:39.208Z</time></trkpt><trkpt lat="44.4975675" lon="10.8349181"><ele>255.0</ele><time>2026-05-02T14:45:40.25Z</time></trkpt><trkpt lat="44.4975318" lon="10.8350584"><ele>255.0</ele><time>2026-05-02T14:45:41.209Z</time></trkpt><trkpt lat="44.4975336" lon="10.8351896"><ele>255.0</ele><time>2026-05-02T14:45:42.193Z</time></trkpt><trkpt lat="44.4975329" lon="10.8353332"><ele>254.0</ele><time>2026-05-02T14:45:43.22Z</time></trkpt><trkpt lat="44.4975445" lon="10.8354515"><ele>253.0</ele><time>2026-05-02T14:45:44.251Z</time></trkpt><trkpt lat="44.497568" lon="10.8355528"><ele>252.0</ele><time>2026-05-02T14:45:45.267Z</time></trkpt><trkpt lat="44.497581" lon="10.8356539"><ele>251.0</ele><time>2026-05-02T14:45:46.215Z</time></trkpt><trkpt lat="44.4976409" lon="10.8357604"><ele>250.0</ele><time>2026-05-02T14:45:47.197Z</time></trkpt><trkpt lat="44.497703" lon="10.8358804"><ele>249.0</ele><time>2026-05-02T14:45:48.257Z</time></trkpt><trkpt lat="44.4977763" lon="10.8360011"><ele>250.2</ele><time>2026-05-02T14:45:49.256Z</time></trkpt><trkpt lat="44.497845" lon="10.836118"><ele>251.39999999999998</ele><time>2026-05-02T14:45:50.226Z</time></trkpt><trkpt lat="44.4979167" lon="10.8362374"><ele>252.6</ele><time>2026-05-02T14:45:51.215Z</time></trkpt><trkpt lat="44.4979786" lon="10.8363388"><ele>253.8</ele><time>2026-05-02T14:45:52.254Z</time></trkpt><trkpt lat="44.4980347" lon="10.8364298"><ele>255.0</ele><time>2026-05-02T14:45:53.251Z</time></trkpt><trkpt lat="44.4980751" lon="10.8365145"><ele>255.0</ele><time>2026-05-02T14:45:54.221Z</time></trkpt><trkpt lat="44.4981085" lon="10.836591"><ele>255.0</ele><time>2026-05-02T14:45:55.184Z</time></trkpt><trkpt lat="44.4981713" lon="10.8367109"><ele>255.0</ele><time>2026-05-02T14:45:57.239Z</time></trkpt><trkpt lat="44.4982294" lon="10.8368256"><ele>255.0</ele><time>2026-05-02T14:45:59.227Z</time></trkpt><trkpt lat="44.4982954" lon="10.8369486"><ele>255.0</ele><time>2026-05-02T14:46:01.252Z</time></trkpt><trkpt lat="44.4983734" lon="10.8370684"><ele>254.66666666666666</ele><time>2026-05-02T14:46:03.206Z</time></trkpt><trkpt lat="44.4984277" lon="10.8371324"><ele>254.33333333333331</ele><time>2026-05-02T14:46:04.21Z</time></trkpt><trkpt lat="44.4984837" lon="10.8371939"><ele>254.0</ele><time>2026-05-02T14:46:05.25Z</time></trkpt><trkpt lat="44.4985788" lon="10.837315"><ele>253.66666666666666</ele><time>2026-05-02T14:46:07.227Z</time></trkpt><trkpt lat="44.4986416" lon="10.8373623"><ele>253.33333333333331</ele><time>2026-05-02T14:46:08.182Z</time></trkpt><trkpt lat="44.4987198" lon="10.8373915"><ele>253.0</ele><time>2026-05-02T14:46:09.24Z</time></trkpt><trkpt lat="44.4988184" lon="10.837412"><ele>255.0</ele><time>2026-05-02T14:46:10.212Z</time></trkpt><trkpt lat="44.4989173" lon="10.8374199"><ele>257.0</ele><time>2026-05-02T14:46:11.207Z</time></trkpt><trkpt lat="44.4990053" lon="10.8374201"><ele>259.0</ele><time>2026-05-02T14:46:12.225Z</time></trkpt><trkpt lat="44.4990908" lon="10.8374173"><ele>261.0</ele><time>2026-05-02T14:46:13.225Z</time></trkpt><trkpt lat="44.4991746" lon="10.837418"><ele>263.0</ele><time>2026-05-02T14:46:14.239Z</time></trkpt><trkpt lat="44.4993082" lon="10.8374366"><ele>263.0</ele><time>2026-05-02T14:46:16.192Z</time></trkpt><trkpt lat="44.4993977" lon="10.837454"><ele>263.0</ele><time>2026-05-02T14:46:17.222Z</time></trkpt><trkpt lat="44.4994751" lon="10.8374674"><ele>263.0</ele><time>2026-05-02T14:46:18.233Z</time></trkpt><trkpt lat="44.4995437" lon="10.8374863"><ele>263.0</ele><time>2026-05-02T14:46:19.245Z</time></trkpt><trkpt lat="44.4996094" lon="10.8375095"><ele>263.0</ele><time>2026-05-02T14:46:20.205Z</time></trkpt><trkpt lat="44.4996722" lon="10.8375359"><ele>263.0</ele><time>2026-05-02T14:46:21.205Z</time></trkpt><trkpt lat="44.4997692" lon="10.8376219"><ele>263.0</ele><time>2026-05-02T14:46:23.222Z</time></trkpt><trkpt lat="44.4998188" lon="10.8377328"><ele>263.0</ele><time>2026-05-02T14:46:25.21Z</time></trkpt><trkpt lat="44.4998499" lon="10.8378356"><ele>263.0</ele><time>2026-05-02T14:46:27.237Z</time></trkpt><trkpt lat="44.4998302" lon="10.8379246"><ele>263.0</ele><time>2026-05-02T14:46:29.169Z</time></trkpt><trkpt lat="44.4997665" lon="10.8380076"><ele>263.0</ele><time>2026-05-02T14:46:32.218Z</time></trkpt><trkpt lat="44.4997584" lon="10.8381072"><ele>263.0</ele><time>2026-05-02T14:46:48.212Z</time></trkpt><trkpt lat="44.4997226" lon="10.8382524"><ele>263.0</ele><time>2026-05-02T14:46:51.213Z</time></trkpt><trkpt lat="44.4996734" lon="10.8384227"><ele>263.0</ele><time>2026-05-02T14:46:53.234Z</time></trkpt><trkpt lat="44.4996415" lon="10.8385175"><ele>263.0</ele><time>2026-05-02T14:46:54.192Z</time></trkpt><trkpt lat="44.4996079" lon="10.8386114"><ele>263.0</ele><time>2026-05-02T14:46:55.19Z</time></trkpt><trkpt lat="44.499574" lon="10.8387"><ele>263.0</ele><time>2026-05-02T14:46:56.255Z</time></trkpt><trkpt lat="44.4995411" lon="10.8387771"><ele>263.0</ele><time>2026-05-02T14:46:57.269Z</time></trkpt><trkpt lat="44.499478" lon="10.8389143"><ele>261.6666666666667</ele><time>2026-05-02T14:46:59.221Z</time></trkpt><trkpt lat="44.4994538" lon="10.8389996"><ele>260.33333333333337</ele><time>2026-05-02T14:47:00.229Z</time></trkpt><trkpt lat="44.499437" lon="10.8390953"><ele>259.0</ele><time>2026-05-02T14:47:01.234Z</time></trkpt><trkpt lat="44.4994335" lon="10.8391927"><ele>257.6666666666667</ele><time>2026-05-02T14:47:02.196Z</time></trkpt><trkpt lat="44.4994487" lon="10.8392937"><ele>256.3333333333333</ele><time>2026-05-02T14:47:03.192Z</time></trkpt><trkpt lat="44.4994739" lon="10.8393867"><ele>255.0</ele><time>2026-05-02T14:47:04.231Z</time></trkpt><trkpt lat="44.4995205" lon="10.8395345"><ele>255.0</ele><time>2026-05-02T14:47:06.256Z</time></trkpt><trkpt lat="44.4995425" lon="10.8396195"><ele>255.0</ele><time>2026-05-02T14:47:07.248Z</time></trkpt><trkpt lat="44.4995796" lon="10.8397316"><ele>255.0</ele><time>2026-05-02T14:47:08.198Z</time></trkpt><trkpt lat="44.4996286" lon="10.8398703"><ele>255.0</ele><time>2026-05-02T14:47:09.203Z</time></trkpt><trkpt lat="44.4996711" lon="10.8400166"><ele>255.0</ele><time>2026-05-02T14:47:10.22Z</time></trkpt><trkpt lat="44.4997026" lon="10.8401754"><ele>255.5</ele><time>2026-05-02T14:47:11.213Z</time></trkpt><trkpt lat="44.4997331" lon="10.8403365"><ele>256.0</ele><time>2026-05-02T14:47:12.225Z</time></trkpt><trkpt lat="44.4997395" lon="10.8405156"><ele>256.5</ele><time>2026-05-02T14:47:13.237Z</time></trkpt><trkpt lat="44.4997452" lon="10.8406951"><ele>257.0</ele><time>2026-05-02T14:47:14.23Z</time></trkpt><trkpt lat="44.4997516" lon="10.8408691"><ele>257.8</ele><time>2026-05-02T14:47:15.243Z</time></trkpt><trkpt lat="44.4997642" lon="10.8410253"><ele>258.6</ele><time>2026-05-02T14:47:16.169Z</time></trkpt><trkpt lat="44.499783" lon="10.8411878"><ele>259.40000000000003</ele><time>2026-05-02T14:47:17.232Z</time></trkpt><trkpt lat="44.4998046" lon="10.8413462"><ele>260.2</ele><time>2026-05-02T14:47:18.241Z</time></trkpt><trkpt lat="44.4998221" lon="10.8414865"><ele>261.0</ele><time>2026-05-02T14:47:19.239Z</time></trkpt><trkpt lat="44.4998574" lon="10.8416099"><ele>261.0</ele><time>2026-05-02T14:47:20.246Z</time></trkpt><trkpt lat="44.499915" lon="10.8417474"><ele>261.0</ele><time>2026-05-02T14:47:21.221Z</time></trkpt><trkpt lat="44.4999742" lon="10.841881"><ele>261.0</ele><time>2026-05-02T14:47:22.237Z</time></trkpt><trkpt lat="44.5000242" lon="10.8420016"><ele>261.0</ele><time>2026-05-02T14:47:23.306Z</time></trkpt><trkpt lat="44.5000948" lon="10.8422706"><ele>260.3333333333333</ele><time>2026-05-02T14:47:25.225Z</time></trkpt><trkpt lat="44.5001269" lon="10.8424007"><ele>259.6666666666667</ele><time>2026-05-02T14:47:26.206Z</time></trkpt><trkpt lat="44.5001659" lon="10.8425108"><ele>259.0</ele><time>2026-05-02T14:47:27.245Z</time></trkpt><trkpt lat="44.5002186" lon="10.8426052"><ele>258.33333333333337</ele><time>2026-05-02T14:47:28.206Z</time></trkpt><trkpt lat="44.5002882" lon="10.8426831"><ele>257.6666666666667</ele><time>2026-05-02T14:47:29.182Z</time></trkpt><trkpt lat="44.5003542" lon="10.8427569"><ele>257.0</ele><time>2026-05-02T14:47:30.239Z</time></trkpt><trkpt lat="44.5004489" lon="10.842789"><ele>259.8</ele><time>2026-05-02T14:47:31.202Z</time></trkpt><trkpt lat="44.5005458" lon="10.8428067"><ele>262.6</ele><time>2026-05-02T14:47:32.218Z</time></trkpt><trkpt lat="44.5006451" lon="10.8428306"><ele>265.40000000000003</ele><time>2026-05-02T14:47:33.2Z</time></trkpt><trkpt lat="44.5007438" lon="10.8428731"><ele>268.2</ele><time>2026-05-02T14:47:34.215Z</time></trkpt><trkpt lat="44.5008314" lon="10.8429354"><ele>271.0</ele><time>2026-05-02T14:47:35.246Z</time></trkpt><trkpt lat="44.500913" lon="10.8430298"><ele>271.0</ele><time>2026-05-02T14:47:36.208Z</time></trkpt><trkpt lat="44.5009943" lon="10.8431208"><ele>271.0</ele><time>2026-05-02T14:47:37.199Z</time></trkpt><trkpt lat="44.5010867" lon="10.8432405"><ele>271.0</ele><time>2026-05-02T14:47:38.261Z</time></trkpt><trkpt lat="44.5011799" lon="10.8433509"><ele>271.0</ele><time>2026-05-02T14:47:39.242Z</time></trkpt><trkpt lat="44.5012686" lon="10.843439"><ele>272.25</ele><time>2026-05-02T14:47:40.232Z</time></trkpt><trkpt lat="44.5013677" lon="10.8435258"><ele>273.5</ele><time>2026-05-02T14:47:41.237Z</time></trkpt><trkpt lat="44.5014772" lon="10.8436282"><ele>274.75</ele><time>2026-05-02T14:47:42.179Z</time></trkpt><trkpt lat="44.5015949" lon="10.8437415"><ele>276.0</ele><time>2026-05-02T14:47:43.249Z</time></trkpt><trkpt lat="44.5017181" lon="10.8438587"><ele>276.0</ele><time>2026-05-02T14:47:44.229Z</time></trkpt><trkpt lat="44.5018501" lon="10.8439751"><ele>276.0</ele><time>2026-05-02T14:47:45.24Z</time></trkpt><trkpt lat="44.5019721" lon="10.8440728"><ele>276.0</ele><time>2026-05-02T14:47:46.243Z</time></trkpt><trkpt lat="44.5020876" lon="10.8441595"><ele>276.0</ele><time>2026-05-02T14:47:47.25Z</time></trkpt><trkpt lat="44.5021988" lon="10.8442382"><ele>279.0</ele><time>2026-05-02T14:47:48.28Z</time></trkpt><trkpt lat="44.5023049" lon="10.8443133"><ele>282.0</ele><time>2026-05-02T14:47:49.214Z</time></trkpt><trkpt lat="44.5024086" lon="10.844393"><ele>285.0</ele><time>2026-05-02T14:47:50.187Z</time></trkpt><trkpt lat="44.5025105" lon="10.8444672"><ele>288.0</ele><time>2026-05-02T14:47:51.225Z</time></trkpt><trkpt lat="44.5026153" lon="10.8445397"><ele>288.0</ele><time>2026-05-02T14:47:52.226Z</time></trkpt><trkpt lat="44.5027124" lon="10.8446066"><ele>288.0</ele><time>2026-05-02T14:47:53.212Z</time></trkpt><trkpt lat="44.5028134" lon="10.8446753"><ele>288.0</ele><time>2026-05-02T14:47:54.226Z</time></trkpt><trkpt lat="44.5029156" lon="10.8447406"><ele>288.0</ele><time>2026-05-02T14:47:55.219Z</time></trkpt><trkpt lat="44.5030078" lon="10.844811"><ele>288.0</ele><time>2026-05-02T14:47:56.229Z</time></trkpt><trkpt lat="44.5031016" lon="10.8448826"><ele>287.8</ele><time>2026-05-02T14:47:57.264Z</time></trkpt><trkpt lat="44.5031946" lon="10.8449644"><ele>287.6</ele><time>2026-05-02T14:47:58.194Z</time></trkpt><trkpt lat="44.5032792" lon="10.8450449"><ele>287.4</ele><time>2026-05-02T14:47:59.2Z</time></trkpt><trkpt lat="44.5033515" lon="10.845109"><ele>287.2</ele><time>2026-05-02T14:48:00.291Z</time></trkpt><trkpt lat="44.5034172" lon="10.8451597"><ele>287.0</ele><time>2026-05-02T14:48:01.245Z</time></trkpt><trkpt lat="44.5034881" lon="10.8452104"><ele>287.6666666666667</ele><time>2026-05-02T14:48:02.196Z</time></trkpt><trkpt lat="44.503553" lon="10.8452568"><ele>288.33333333333337</ele><time>2026-05-02T14:48:03.181Z</time></trkpt><trkpt lat="44.5036144" lon="10.845303"><ele>289.0</ele><time>2026-05-02T14:48:04.25Z</time></trkpt><trkpt lat="44.5036968" lon="10.8453228"><ele>289.6666666666667</ele><time>2026-05-02T14:48:05.227Z</time></trkpt><trkpt lat="44.5037724" lon="10.8453077"><ele>290.3333333333333</ele><time>2026-05-02T14:48:06.208Z</time></trkpt><trkpt lat="44.5038748" lon="10.845285"><ele>291.0</ele><time>2026-05-02T14:48:07.211Z</time></trkpt><trkpt lat="44.5039736" lon="10.8452688"><ele>291.0</ele><time>2026-05-02T14:48:08.196Z</time></trkpt><trkpt lat="44.5040732" lon="10.8452605"><ele>291.0</ele><time>2026-05-02T14:48:09.179Z</time></trkpt><trkpt lat="44.5041728" lon="10.8452449"><ele>291.0</ele><time>2026-05-02T14:48:10.169Z</time></trkpt><trkpt lat="44.5042598" lon="10.8452369"><ele>291.0</ele><time>2026-05-02T14:48:11.188Z</time></trkpt><trkpt lat="44.5043472" lon="10.8452353"><ele>291.0</ele><time>2026-05-02T14:48:12.182Z</time></trkpt><trkpt lat="44.5044416" lon="10.8452258"><ele>291.0</ele><time>2026-05-02T14:48:13.212Z</time></trkpt><trkpt lat="44.5045526" lon="10.8452194"><ele>291.0</ele><time>2026-05-02T14:48:14.252Z</time></trkpt><trkpt lat="44.5046603" lon="10.8452211"><ele>291.0</ele><time>2026-05-02T14:48:15.244Z</time></trkpt><trkpt lat="44.5047657" lon="10.8452369"><ele>291.0</ele><time>2026-05-02T14:48:16.179Z</time></trkpt><trkpt lat="44.5048742" lon="10.8452599"><ele>291.0</ele><time>2026-05-02T14:48:17.197Z</time></trkpt><trkpt lat="44.5049828" lon="10.8452952"><ele>290.8</ele><time>2026-05-02T14:48:18.225Z</time></trkpt><trkpt lat="44.5050827" lon="10.84535"><ele>290.6</ele><time>2026-05-02T14:48:19.236Z</time></trkpt><trkpt lat="44.5051809" lon="10.8454183"><ele>290.4</ele><time>2026-05-02T14:48:20.2Z</time></trkpt><trkpt lat="44.5052701" lon="10.8454866"><ele>290.2</ele><time>2026-05-02T14:48:21.192Z</time></trkpt><trkpt lat="44.505358" lon="10.8455421"><ele>290.0</ele><time>2026-05-02T14:48:22.267Z</time></trkpt><trkpt lat="44.5054474" lon="10.8455723"><ele>290.0</ele><time>2026-05-02T14:48:23.231Z</time></trkpt><trkpt lat="44.5055318" lon="10.8455575"><ele>290.0</ele><time>2026-05-02T14:48:24.209Z</time></trkpt><trkpt lat="44.5056026" lon="10.8455033"><ele>290.0</ele><time>2026-05-02T14:48:25.254Z</time></trkpt><trkpt lat="44.5056711" lon="10.8454127"><ele>290.0</ele><time>2026-05-02T14:48:26.202Z</time></trkpt><trkpt lat="44.5057387" lon="10.8452881"><ele>290.0</ele><time>2026-05-02T14:48:27.199Z</time></trkpt><trkpt lat="44.5058045" lon="10.8451599"><ele>288.8</ele><time>2026-05-02T14:48:28.206Z</time></trkpt><trkpt lat="44.5058793" lon="10.8450484"><ele>287.6</ele><time>2026-05-02T14:48:29.183Z</time></trkpt><trkpt lat="44.5059623" lon="10.8449439"><ele>286.4</ele><time>2026-05-02T14:48:30.245Z</time></trkpt><trkpt lat="44.5060551" lon="10.844861"><ele>285.2</ele><time>2026-05-02T14:48:31.217Z</time></trkpt><trkpt lat="44.5061463" lon="10.8447865"><ele>284.0</ele><time>2026-05-02T14:48:32.227Z</time></trkpt><trkpt lat="44.5062528" lon="10.8447031"><ele>284.0</ele><time>2026-05-02T14:48:33.26Z</time></trkpt><trkpt lat="44.5063679" lon="10.8446365"><ele>284.0</ele><time>2026-05-02T14:48:34.198Z</time></trkpt><trkpt lat="44.5064624" lon="10.844568"><ele>284.0</ele><time>2026-05-02T14:48:35.221Z</time></trkpt><trkpt lat="44.50655" lon="10.8444941"><ele>284.0</ele><time>2026-05-02T14:48:36.222Z</time></trkpt><trkpt lat="44.5066423" lon="10.8444157"><ele>284.0</ele><time>2026-05-02T14:48:37.191Z</time></trkpt><trkpt lat="44.5067189" lon="10.8443436"><ele>285.2</ele><time>2026-05-02T14:48:38.225Z</time></trkpt><trkpt lat="44.5067977" lon="10.8442701"><ele>286.4</ele><time>2026-05-02T14:48:39.198Z</time></trkpt><trkpt lat="44.5068769" lon="10.8442027"><ele>287.6</ele><time>2026-05-02T14:48:40.232Z</time></trkpt><trkpt lat="44.5069729" lon="10.844154"><ele>288.8</ele><time>2026-05-02T14:48:41.222Z</time></trkpt><trkpt lat="44.5070823" lon="10.8441436"><ele>290.0</ele><time>2026-05-02T14:48:42.205Z</time></trkpt><trkpt lat="44.5071864" lon="10.8441445"><ele>290.0</ele><time>2026-05-02T14:48:43.237Z</time></trkpt><trkpt lat="44.5072904" lon="10.8441522"><ele>290.0</ele><time>2026-05-02T14:48:44.246Z</time></trkpt><trkpt lat="44.5074007" lon="10.8441499"><ele>290.0</ele><time>2026-05-02T14:48:45.211Z</time></trkpt><trkpt lat="44.5074948" lon="10.8441558"><ele>290.0</ele><time>2026-05-02T14:48:46.247Z</time></trkpt><trkpt lat="44.5076047" lon="10.8441668"><ele>290.0</ele><time>2026-05-02T14:48:47.214Z</time></trkpt><trkpt lat="44.507718" lon="10.8441972"><ele>290.0</ele><time>2026-05-02T14:48:48.231Z</time></trkpt><trkpt lat="44.5078281" lon="10.8442301"><ele>290.0</ele><time>2026-05-02T14:48:49.234Z</time></trkpt><trkpt lat="44.5079371" lon="10.8442608"><ele>290.0</ele><time>2026-05-02T14:48:50.185Z</time></trkpt><trkpt lat="44.5080455" lon="10.8442932"><ele>290.0</ele><time>2026-05-02T14:48:51.247Z</time></trkpt><trkpt lat="44.5081477" lon="10.8443151"><ele>290.0</ele><time>2026-05-02T14:48:52.227Z</time></trkpt><trkpt lat="44.5082447" lon="10.8443203"><ele>289.1666666666667</ele><time>2026-05-02T14:48:53.257Z</time></trkpt><trkpt lat="44.5083344" lon="10.8442991"><ele>288.33333333333337</ele><time>2026-05-02T14:48:54.253Z</time></trkpt><trkpt lat="44.5084149" lon="10.8442404"><ele>287.5</ele><time>2026-05-02T14:48:55.188Z</time></trkpt><trkpt lat="44.5084883" lon="10.8441709"><ele>286.6666666666667</ele><time>2026-05-02T14:48:56.264Z</time></trkpt><trkpt lat="44.5085642" lon="10.8441308"><ele>285.8333333333333</ele><time>2026-05-02T14:48:57.219Z</time></trkpt><trkpt lat="44.5086435" lon="10.844081"><ele>285.0</ele><time>2026-05-02T14:48:58.232Z</time></trkpt><trkpt lat="44.5087359" lon="10.8441075"><ele>282.6</ele><time>2026-05-02T14:48:59.227Z</time></trkpt><trkpt lat="44.5088388" lon="10.8441628"><ele>280.2</ele><time>2026-05-02T14:49:00.24Z</time></trkpt><trkpt lat="44.5089415" lon="10.8442194"><ele>277.8</ele><time>2026-05-02T14:49:01.219Z</time></trkpt><trkpt lat="44.5090476" lon="10.8442714"><ele>275.4</ele><time>2026-05-02T14:49:02.24Z</time></trkpt><trkpt lat="44.509158" lon="10.8443137"><ele>273.0</ele><time>2026-05-02T14:49:03.186Z</time></trkpt><trkpt lat="44.5092624" lon="10.8443568"><ele>272.2</ele><time>2026-05-02T14:49:04.255Z</time></trkpt><trkpt lat="44.5093567" lon="10.8443975"><ele>271.4</ele><time>2026-05-02T14:49:05.241Z</time></trkpt><trkpt lat="44.5094525" lon="10.8444358"><ele>270.59999999999997</ele><time>2026-05-02T14:49:06.24Z</time></trkpt><trkpt lat="44.5095286" lon="10.844463"><ele>269.8</ele><time>2026-05-02T14:49:07.203Z</time></trkpt><trkpt lat="44.5096424" lon="10.8444871"><ele>269.0</ele><time>2026-05-02T14:49:09.255Z</time></trkpt><trkpt lat="44.5097384" lon="10.8445185"><ele>269.0</ele><time>2026-05-02T14:49:11.219Z</time></trkpt><trkpt lat="44.5098549" lon="10.8445761"><ele>269.0</ele><time>2026-05-02T14:49:13.229Z</time></trkpt><trkpt lat="44.509926" lon="10.8446092"><ele>269.0</ele><time>2026-05-02T14:49:15.211Z</time></trkpt><trkpt lat="44.5100033" lon="10.8446049"><ele>269.0</ele><time>2026-05-02T14:49:16.188Z</time></trkpt><trkpt lat="44.5100848" lon="10.8445961"><ele>269.0</ele><time>2026-05-02T14:49:17.186Z</time></trkpt><trkpt lat="44.5101832" lon="10.8445786"><ele>269.0</ele><time>2026-05-02T14:49:18.244Z</time></trkpt><trkpt lat="44.5102788" lon="10.8445458"><ele>269.0</ele><time>2026-05-02T14:49:19.238Z</time></trkpt><trkpt lat="44.5103628" lon="10.844513"><ele>269.0</ele><time>2026-05-02T14:49:20.242Z</time></trkpt><trkpt lat="44.5104399" lon="10.844485"><ele>269.0</ele><time>2026-05-02T14:49:21.218Z</time></trkpt><trkpt lat="44.5105103" lon="10.8444529"><ele>269.0</ele><time>2026-05-02T14:49:22.25Z</time></trkpt><trkpt lat="44.5105688" lon="10.8444202"><ele>269.0</ele><time>2026-05-02T14:49:23.241Z</time></trkpt><trkpt lat="44.5106585" lon="10.8443665"><ele>268.33333333333337</ele><time>2026-05-02T14:49:25.216Z</time></trkpt><trkpt lat="44.5107335" lon="10.8443707"><ele>267.6666666666667</ele><time>2026-05-02T14:49:26.22Z</time></trkpt><trkpt lat="44.5108169" lon="10.844371"><ele>267.0</ele><time>2026-05-02T14:49:27.247Z</time></trkpt><trkpt lat="44.5109061" lon="10.8443562"><ele>266.3333333333333</ele><time>2026-05-02T14:49:28.226Z</time></trkpt><trkpt lat="44.5109762" lon="10.8443521"><ele>265.66666666666663</ele><time>2026-05-02T14:49:29.194Z</time></trkpt><trkpt lat="44.511077" lon="10.8443959"><ele>265.0</ele><time>2026-05-02T14:49:31.241Z</time></trkpt><trkpt lat="44.5111526" lon="10.8444423"><ele>263.0</ele><time>2026-05-02T14:49:33.207Z</time></trkpt><trkpt lat="44.511276" lon="10.8444396"><ele>261.0</ele><time>2026-05-02T14:49:35.226Z</time></trkpt><trkpt lat="44.5113434" lon="10.8444316"><ele>259.0</ele><time>2026-05-02T14:49:36.227Z</time></trkpt><trkpt lat="44.5114097" lon="10.8444254"><ele>257.0</ele><time>2026-05-02T14:49:37.185Z</time></trkpt><trkpt lat="44.5114754" lon="10.8444217"><ele>254.99999999999997</ele><time>2026-05-02T14:49:38.226Z</time></trkpt><trkpt lat="44.5115411" lon="10.8444149"><ele>253.0</ele><time>2026-05-02T14:49:39.227Z</time></trkpt><trkpt lat="44.5116548" lon="10.8444027"><ele>253.0</ele><time>2026-05-02T14:49:41.224Z</time></trkpt><trkpt lat="44.5117601" lon="10.844398"><ele>253.0</ele><time>2026-05-02T14:49:43.231Z</time></trkpt><trkpt lat="44.5118785" lon="10.8443932"><ele>253.0</ele><time>2026-05-02T14:49:45.194Z</time></trkpt><trkpt lat="44.5119833" lon="10.8444055"><ele>253.0</ele><time>2026-05-02T14:49:47.242Z</time></trkpt><trkpt lat="44.512072" lon="10.8444111"><ele>253.0</ele><time>2026-05-02T14:49:50.241Z</time></trkpt><trkpt lat="44.5121604" lon="10.8443912"><ele>251.2</ele><time>2026-05-02T14:49:53.219Z</time></trkpt><trkpt lat="44.5122531" lon="10.8443911"><ele>249.4</ele><time>2026-05-02T14:49:56.26Z</time></trkpt><trkpt lat="44.5123379" lon="10.844384"><ele>247.59999999999997</ele><time>2026-05-02T14:49:58.187Z</time></trkpt><trkpt lat="44.5124454" lon="10.8443872"><ele>245.79999999999998</ele><time>2026-05-02T14:50:00.228Z</time></trkpt><trkpt lat="44.5125497" lon="10.8444231"><ele>244.0</ele><time>2026-05-02T14:50:02.202Z</time></trkpt><trkpt lat="44.5126476" lon="10.8444819"><ele>244.0</ele><time>2026-05-02T14:50:04.226Z</time></trkpt><trkpt lat="44.5127029" lon="10.8445241"><ele>243.99999999999997</ele><time>2026-05-02T14:50:05.229Z</time></trkpt><trkpt lat="44.5128084" lon="10.8446116"><ele>243.99999999999997</ele><time>2026-05-02T14:50:07.223Z</time></trkpt><trkpt lat="44.5128831" lon="10.8446835"><ele>244.0</ele><time>2026-05-02T14:50:08.247Z</time></trkpt><trkpt lat="44.5129527" lon="10.8447365"><ele>244.0</ele><time>2026-05-02T14:50:09.264Z</time></trkpt><trkpt lat="44.5130828" lon="10.8448282"><ele>242.16666666666666</ele><time>2026-05-02T14:50:11.188Z</time></trkpt><trkpt lat="44.5131532" lon="10.8448697"><ele>240.33333333333331</ele><time>2026-05-02T14:50:12.266Z</time></trkpt><trkpt lat="44.51321" lon="10.8449109"><ele>238.5</ele><time>2026-05-02T14:50:13.213Z</time></trkpt><trkpt lat="44.5132723" lon="10.8449435"><ele>236.66666666666669</ele><time>2026-05-02T14:50:14.208Z</time></trkpt><trkpt lat="44.51335" lon="10.8449977"><ele>234.83333333333334</ele><time>2026-05-02T14:50:15.224Z</time></trkpt><trkpt lat="44.5134189" lon="10.845052"><ele>233.0</ele><time>2026-05-02T14:50:16.188Z</time></trkpt><trkpt lat="44.513496" lon="10.8451164"><ele>232.4</ele><time>2026-05-02T14:50:17.216Z</time></trkpt><trkpt lat="44.5136039" lon="10.8452043"><ele>231.8</ele><time>2026-05-02T14:50:18.225Z</time></trkpt><trkpt lat="44.5136722" lon="10.8452709"><ele>231.2</ele><time>2026-05-02T14:50:19.209Z</time></trkpt><trkpt lat="44.5137611" lon="10.8453434"><ele>230.6</ele><time>2026-05-02T14:50:20.208Z</time></trkpt><trkpt lat="44.5138381" lon="10.8454129"><ele>230.0</ele><time>2026-05-02T14:50:21.23Z</time></trkpt><trkpt lat="44.5139172" lon="10.8454827"><ele>228.0</ele><time>2026-05-02T14:50:22.24Z</time></trkpt><trkpt lat="44.5139919" lon="10.8455538"><ele>226.0</ele><time>2026-05-02T14:50:23.222Z</time></trkpt><trkpt lat="44.5140772" lon="10.8456299"><ele>224.0</ele><time>2026-05-02T14:50:24.184Z</time></trkpt><trkpt lat="44.5141568" lon="10.845695"><ele>222.0</ele><time>2026-05-02T14:50:25.229Z</time></trkpt><trkpt lat="44.5142452" lon="10.8457552"><ele>220.0</ele><time>2026-05-02T14:50:26.208Z</time></trkpt><trkpt lat="44.5143317" lon="10.8457917"><ele>220.0</ele><time>2026-05-02T14:50:27.222Z</time></trkpt><trkpt lat="44.5144241" lon="10.8458102"><ele>220.0</ele><time>2026-05-02T14:50:28.244Z</time></trkpt><trkpt lat="44.5145199" lon="10.845815"><ele>220.0</ele><time>2026-05-02T14:50:29.237Z</time></trkpt><trkpt lat="44.5146194" lon="10.8458123"><ele>220.0</ele><time>2026-05-02T14:50:30.246Z</time></trkpt><trkpt lat="44.5147164" lon="10.8458007"><ele>220.0</ele><time>2026-05-02T14:50:31.288Z</time></trkpt><trkpt lat="44.5148143" lon="10.8457846"><ele>218.8</ele><time>2026-05-02T14:50:32.212Z</time></trkpt><trkpt lat="44.5149043" lon="10.8457637"><ele>217.6</ele><time>2026-05-02T14:50:33.239Z</time></trkpt><trkpt lat="44.51499" lon="10.845737"><ele>216.39999999999998</ele><time>2026-05-02T14:50:34.234Z</time></trkpt><trkpt lat="44.5150771" lon="10.845704"><ele>215.2</ele><time>2026-05-02T14:50:35.243Z</time></trkpt><trkpt lat="44.5151652" lon="10.845666"><ele>214.0</ele><time>2026-05-02T14:50:36.234Z</time></trkpt><trkpt lat="44.5152578" lon="10.8456286"><ele>214.0</ele><time>2026-05-02T14:50:37.193Z</time></trkpt><trkpt lat="44.5153514" lon="10.8455952"><ele>213.99999999999997</ele><time>2026-05-02T14:50:38.201Z</time></trkpt><trkpt lat="44.5154405" lon="10.8455649"><ele>213.99999999999997</ele><time>2026-05-02T14:50:39.228Z</time></trkpt><trkpt lat="44.5155301" lon="10.8455404"><ele>214.0</ele><time>2026-05-02T14:50:40.241Z</time></trkpt><trkpt lat="44.5156217" lon="10.8455195"><ele>214.0</ele><time>2026-05-02T14:50:41.212Z</time></trkpt><trkpt lat="44.5157109" lon="10.8455017"><ele>213.0</ele><time>2026-05-02T14:50:42.251Z</time></trkpt><trkpt lat="44.5158025" lon="10.8454891"><ele>211.99999999999997</ele><time>2026-05-02T14:50:43.24Z</time></trkpt><trkpt lat="44.5158938" lon="10.8454768"><ele>211.0</ele><time>2026-05-02T14:50:44.222Z</time></trkpt><trkpt lat="44.5159826" lon="10.8454631"><ele>210.0</ele><time>2026-05-02T14:50:45.199Z</time></trkpt><trkpt lat="44.5160712" lon="10.8454497"><ele>209.0</ele><time>2026-05-02T14:50:46.216Z</time></trkpt><trkpt lat="44.5161583" lon="10.8454357"><ele>208.33333333333334</ele><time>2026-05-02T14:50:47.216Z</time></trkpt><trkpt lat="44.5162399" lon="10.8454259"><ele>207.66666666666669</ele><time>2026-05-02T14:50:48.226Z</time></trkpt><trkpt lat="44.5163169" lon="10.8454188"><ele>207.0</ele><time>2026-05-02T14:50:49.224Z</time></trkpt><trkpt lat="44.5163846" lon="10.8454183"><ele>206.33333333333331</ele><time>2026-05-02T14:50:50.199Z</time></trkpt><trkpt lat="44.5164513" lon="10.8454309"><ele>205.66666666666666</ele><time>2026-05-02T14:50:51.242Z</time></trkpt><trkpt lat="44.5165518" lon="10.845444"><ele>205.0</ele><time>2026-05-02T14:50:53.221Z</time></trkpt><trkpt lat="44.5166063" lon="10.8453882"><ele>205.0</ele><time>2026-05-02T14:50:55.241Z</time></trkpt><trkpt lat="44.5166455" lon="10.8452725"><ele>205.0</ele><time>2026-05-02T14:50:57.21Z</time></trkpt><trkpt lat="44.5166905" lon="10.8451517"><ele>205.0</ele><time>2026-05-02T14:50:59.231Z</time></trkpt><trkpt lat="44.516746" lon="10.8450335"><ele>205.0</ele><time>2026-05-02T14:51:01.238Z</time></trkpt><trkpt lat="44.5168404" lon="10.844934"><ele>205.0</ele><time>2026-05-02T14:51:03.223Z</time></trkpt><trkpt lat="44.5169628" lon="10.8449117"><ele>204.16666666666666</ele><time>2026-05-02T14:51:05.26Z</time></trkpt><trkpt lat="44.5170442" lon="10.8449013"><ele>203.33333333333331</ele><time>2026-05-02T14:51:06.202Z</time></trkpt><trkpt lat="44.5171207" lon="10.8448761"><ele>202.5</ele><time>2026-05-02T14:51:07.227Z</time></trkpt><trkpt lat="44.5172112" lon="10.8448679"><ele>201.66666666666669</ele><time>2026-05-02T14:51:08.234Z</time></trkpt><trkpt lat="44.5172879" lon="10.8448703"><ele>200.83333333333334</ele><time>2026-05-02T14:51:09.245Z</time></trkpt><trkpt lat="44.5173608" lon="10.8448737"><ele>200.0</ele><time>2026-05-02T14:51:10.214Z</time></trkpt><trkpt lat="44.517431" lon="10.8448746"><ele>199.16666666666669</ele><time>2026-05-02T14:51:11.183Z</time></trkpt><trkpt lat="44.5175004" lon="10.8448832"><ele>198.33333333333334</ele><time>2026-05-02T14:51:12.23Z</time></trkpt><trkpt lat="44.5175779" lon="10.8449072"><ele>197.5</ele><time>2026-05-02T14:51:13.233Z</time></trkpt><trkpt lat="44.5176811" lon="10.844921"><ele>196.66666666666669</ele><time>2026-05-02T14:51:14.234Z</time></trkpt><trkpt lat="44.517774" lon="10.8449473"><ele>195.83333333333334</ele><time>2026-05-02T14:51:15.237Z</time></trkpt><trkpt lat="44.517843" lon="10.8449474"><ele>195.0</ele><time>2026-05-02T14:51:16.207Z</time></trkpt><trkpt lat="44.5179763" lon="10.8449376"><ele>194.16666666666666</ele><time>2026-05-02T14:51:18.289Z</time></trkpt><trkpt lat="44.5180396" lon="10.8449384"><ele>193.33333333333334</ele><time>2026-05-02T14:51:19.188Z</time></trkpt><trkpt lat="44.5181421" lon="10.8449596"><ele>192.5</ele><time>2026-05-02T14:51:21.273Z</time></trkpt><trkpt lat="44.5182136" lon="10.8449695"><ele>191.66666666666669</ele><time>2026-05-02T14:51:22.227Z</time></trkpt><trkpt lat="44.5182999" lon="10.8449964"><ele>190.83333333333334</ele><time>2026-05-02T14:51:23.234Z</time></trkpt><trkpt lat="44.5183827" lon="10.8450222"><ele>190.0</ele><time>2026-05-02T14:51:24.183Z</time></trkpt><trkpt lat="44.518452" lon="10.8450453"><ele>190.0</ele><time>2026-05-02T14:51:25.187Z</time></trkpt><trkpt lat="44.5185539" lon="10.8450922"><ele>190.0</ele><time>2026-05-02T14:51:26.213Z</time></trkpt><trkpt lat="44.5186483" lon="10.845135"><ele>190.0</ele><time>2026-05-02T14:51:27.223Z</time></trkpt><trkpt lat="44.51877" lon="10.8451883"><ele>190.0</ele><time>2026-05-02T14:51:29.235Z</time></trkpt><trkpt lat="44.5188362" lon="10.8452347"><ele>190.0</ele><time>2026-05-02T14:51:30.225Z</time></trkpt><trkpt lat="44.5188821" lon="10.8453003"><ele>189.6</ele><time>2026-05-02T14:51:31.221Z</time></trkpt><trkpt lat="44.5189266" lon="10.8453889"><ele>189.2</ele><time>2026-05-02T14:51:32.19Z</time></trkpt><trkpt lat="44.518982" lon="10.8454989"><ele>188.8</ele><time>2026-05-02T14:51:33.219Z</time></trkpt><trkpt lat="44.5190349" lon="10.8456091"><ele>188.4</ele><time>2026-05-02T14:51:34.217Z</time></trkpt><trkpt lat="44.5190908" lon="10.8457155"><ele>188.0</ele><time>2026-05-02T14:51:35.249Z</time></trkpt><trkpt lat="44.5191497" lon="10.8458218"><ele>188.0</ele><time>2026-05-02T14:51:36.223Z</time></trkpt><trkpt lat="44.5191957" lon="10.8459214"><ele>188.0</ele><time>2026-05-02T14:51:37.185Z</time></trkpt><trkpt lat="44.5192373" lon="10.846018"><ele>188.0</ele><time>2026-05-02T14:51:38.225Z</time></trkpt><trkpt lat="44.5192749" lon="10.8461073"><ele>188.0</ele><time>2026-05-02T14:51:39.224Z</time></trkpt><trkpt lat="44.5193102" lon="10.8461885"><ele>188.0</ele><time>2026-05-02T14:51:40.216Z</time></trkpt><trkpt lat="44.5193435" lon="10.8462683"><ele>188.0</ele><time>2026-05-02T14:51:41.225Z</time></trkpt><trkpt lat="44.5194286" lon="10.8463694"><ele>188.0</ele><time>2026-05-02T14:51:43.248Z</time></trkpt><trkpt lat="44.519545" lon="10.8463786"><ele>188.0</ele><time>2026-05-02T14:51:45.167Z</time></trkpt><trkpt lat="44.5196193" lon="10.8464175"><ele>188.0</ele><time>2026-05-02T14:51:46.213Z</time></trkpt><trkpt lat="44.5197056" lon="10.8464623"><ele>188.0</ele><time>2026-05-02T14:51:47.2Z</time></trkpt><trkpt lat="44.5197957" lon="10.8465105"><ele>188.0</ele><time>2026-05-02T14:51:48.234Z</time></trkpt><trkpt lat="44.5198798" lon="10.8465544"><ele>187.2</ele><time>2026-05-02T14:51:49.217Z</time></trkpt><trkpt lat="44.5199671" lon="10.8465923"><ele>186.4</ele><time>2026-05-02T14:51:50.208Z</time></trkpt><trkpt lat="44.5200908" lon="10.846634"><ele>185.6</ele><time>2026-05-02T14:51:51.225Z</time></trkpt><trkpt lat="44.5201969" lon="10.8466665"><ele>184.79999999999998</ele><time>2026-05-02T14:51:52.274Z</time></trkpt><trkpt lat="44.5202916" lon="10.8466769"><ele>184.0</ele><time>2026-05-02T14:51:53.196Z</time></trkpt><trkpt lat="44.5204039" lon="10.8466975"><ele>183.6</ele><time>2026-05-02T14:51:54.203Z</time></trkpt><trkpt lat="44.5205191" lon="10.8467196"><ele>183.2</ele><time>2026-05-02T14:51:55.233Z</time></trkpt><trkpt lat="44.5206154" lon="10.8467423"><ele>182.79999999999998</ele><time>2026-05-02T14:51:56.192Z</time></trkpt><trkpt lat="44.5207271" lon="10.8467784"><ele>182.39999999999998</ele><time>2026-05-02T14:51:57.257Z</time></trkpt><trkpt lat="44.5208328" lon="10.846806"><ele>182.0</ele><time>2026-05-02T14:51:58.185Z</time></trkpt><trkpt lat="44.5209057" lon="10.8468299"><ele>181.83333333333331</ele><time>2026-05-02T14:51:59.237Z</time></trkpt><trkpt lat="44.5209805" lon="10.8468391"><ele>181.66666666666666</ele><time>2026-05-02T14:52:01.242Z</time></trkpt><trkpt lat="44.5210511" lon="10.8468647"><ele>181.5</ele><time>2026-05-02T14:52:04.237Z</time></trkpt><trkpt lat="44.5211353" lon="10.8469478"><ele>181.33333333333334</ele><time>2026-05-02T14:52:07.209Z</time></trkpt><trkpt lat="44.5211981" lon="10.8470325"><ele>181.16666666666669</ele><time>2026-05-02T14:52:08.202Z</time></trkpt><trkpt lat="44.5212511" lon="10.8471225"><ele>181.0</ele><time>2026-05-02T14:52:09.252Z</time></trkpt><trkpt lat="44.5213179" lon="10.847198"><ele>180.5</ele><time>2026-05-02T14:52:10.196Z</time></trkpt><trkpt lat="44.5213878" lon="10.847261"><ele>180.0</ele><time>2026-05-02T14:52:11.177Z</time></trkpt><trkpt lat="44.5214539" lon="10.8473196"><ele>179.5</ele><time>2026-05-02T14:52:12.229Z</time></trkpt><trkpt lat="44.5215614" lon="10.847364"><ele>179.0</ele><time>2026-05-02T14:52:13.211Z</time></trkpt><trkpt lat="44.5216386" lon="10.8473809"><ele>178.5</ele><time>2026-05-02T14:52:14.251Z</time></trkpt><trkpt lat="44.5217026" lon="10.8473938"><ele>178.0</ele><time>2026-05-02T14:52:15.2Z</time></trkpt><trkpt lat="44.5217884" lon="10.8474008"><ele>178.0</ele><time>2026-05-02T14:52:16.182Z</time></trkpt><trkpt lat="44.5219058" lon="10.8474051"><ele>178.0</ele><time>2026-05-02T14:52:17.294Z</time></trkpt><trkpt lat="44.52202" lon="10.8473894"><ele>178.0</ele><time>2026-05-02T14:52:18.219Z</time></trkpt><trkpt lat="44.5221365" lon="10.8473775"><ele>178.0</ele><time>2026-05-02T14:52:19.23Z</time></trkpt><trkpt lat="44.5222507" lon="10.847362"><ele>175.5</ele><time>2026-05-02T14:52:20.211Z</time></trkpt><trkpt lat="44.5223682" lon="10.8473434"><ele>173.0</ele><time>2026-05-02T14:52:21.234Z</time></trkpt><trkpt lat="44.5224823" lon="10.8473179"><ele>170.5</ele><time>2026-05-02T14:52:22.254Z</time></trkpt><trkpt lat="44.5226011" lon="10.8472836"><ele>168.0</ele><time>2026-05-02T14:52:23.194Z</time></trkpt><trkpt lat="44.522703" lon="10.8472643"><ele>168.0</ele><time>2026-05-02T14:52:24.191Z</time></trkpt><trkpt lat="44.5227918" lon="10.8472479"><ele>168.0</ele><time>2026-05-02T14:52:25.226Z</time></trkpt><trkpt lat="44.5228647" lon="10.8472047"><ele>168.0</ele><time>2026-05-02T14:52:26.228Z</time></trkpt><trkpt lat="44.5229228" lon="10.8471382"><ele>168.0</ele><time>2026-05-02T14:52:27.22Z</time></trkpt><trkpt lat="44.5229547" lon="10.8470335"><ele>168.0</ele><time>2026-05-02T14:52:28.199Z</time></trkpt><trkpt lat="44.5229852" lon="10.8469118"><ele>168.0</ele><time>2026-05-02T14:52:29.192Z</time></trkpt><trkpt lat="44.523004" lon="10.8467799"><ele>164.6</ele><time>2026-05-02T14:52:30.23Z</time></trkpt><trkpt lat="44.5230356" lon="10.8466441"><ele>161.20000000000002</ele><time>2026-05-02T14:52:31.231Z</time></trkpt><trkpt lat="44.5230792" lon="10.8465191"><ele>157.8</ele><time>2026-05-02T14:52:32.23Z</time></trkpt><trkpt lat="44.5231381" lon="10.8463972"><ele>154.4</ele><time>2026-05-02T14:52:33.259Z</time></trkpt><trkpt lat="44.5231926" lon="10.8462868"><ele>151.0</ele><time>2026-05-02T14:52:34.244Z</time></trkpt><trkpt lat="44.5232537" lon="10.8461762"><ele>151.0</ele><time>2026-05-02T14:52:35.226Z</time></trkpt><trkpt lat="44.5233099" lon="10.846067"><ele>151.0</ele><time>2026-05-02T14:52:36.245Z</time></trkpt><trkpt lat="44.5233624" lon="10.8459571"><ele>151.0</ele><time>2026-05-02T14:52:37.188Z</time></trkpt><trkpt lat="44.5234098" lon="10.8458677"><ele>151.0</ele><time>2026-05-02T14:52:38.219Z</time></trkpt><trkpt lat="44.5234851" lon="10.8457582"><ele>151.0</ele><time>2026-05-02T14:52:40.202Z</time></trkpt><trkpt lat="44.5235784" lon="10.8457323"><ele>145.0</ele><time>2026-05-02T14:52:42.226Z</time></trkpt><trkpt lat="44.5236778" lon="10.8457688"><ele>145.0</ele><time>2026-05-02T14:52:44.24Z</time></trkpt><trkpt lat="44.523753" lon="10.845844"><ele>142.0</ele><time>2026-05-02T14:52:46.246Z</time></trkpt><trkpt lat="44.5237987" lon="10.8459383"><ele>142.0</ele><time>2026-05-02T14:52:48.23Z</time></trkpt></trkseg></trk></gpx>